<?xml version="1.0" encoding="UTF-8" standalone="no" ?>
<gpx xmlns="http://www.topografix.com/GPX/1/1" xmlns:xsi="http://www.w3.org/2001/XMLSchema-instance" xsi:schemaLocation="http://www.topografix.com/GPX/1/1 http://www.topografix.com/GPX/1/1/gpx.xsd" version="1.1" creator="VisuGPX - https://www.visugpx.com">
  <metadata>
    <name>Activité de Randonnée TwoNav</name>
    <desc><![CDATA[2022-02-12_073452.trk]]></desc>
  </metadata>
  <trk>
    <name><![CDATA[Activité de Randonnée TwoNav_1]]></name>
    <trkseg>
      <trkpt lat="48.22762" lon="7.17049">
        <ele>497.4</ele>
        <time>2022-02-12T06:34:52Z</time>
      </trkpt>
      <trkpt lat="48.22758" lon="7.17048">
        <ele>497.5</ele>
        <time>2022-02-12T06:34:53Z</time>
      </trkpt>
      <trkpt lat="48.22754" lon="7.17048">
        <ele>498.1</ele>
        <time>2022-02-12T06:35:06Z</time>
      </trkpt>
      <trkpt lat="48.2275" lon="7.17047">
        <ele>498.7</ele>
        <time>2022-02-12T06:35:16Z</time>
      </trkpt>
      <trkpt lat="48.22747" lon="7.17046">
        <ele>499.2</ele>
        <time>2022-02-12T06:35:17Z</time>
      </trkpt>
      <trkpt lat="48.22743" lon="7.17046">
        <ele>499.9</ele>
        <time>2022-02-12T06:35:17Z</time>
      </trkpt>
      <trkpt lat="48.22737" lon="7.1705">
        <ele>500.9</ele>
        <time>2022-02-12T06:35:23Z</time>
      </trkpt>
      <trkpt lat="48.22729" lon="7.17058">
        <ele>502.5</ele>
        <time>2022-02-12T06:35:32Z</time>
      </trkpt>
      <trkpt lat="48.22721" lon="7.17065">
        <ele>504.1</ele>
        <time>2022-02-12T06:35:39Z</time>
      </trkpt>
      <trkpt lat="48.22712" lon="7.17063">
        <ele>505.7</ele>
        <time>2022-02-12T06:35:49Z</time>
      </trkpt>
      <trkpt lat="48.22703" lon="7.17067">
        <ele>507.4</ele>
        <time>2022-02-12T06:36:01Z</time>
      </trkpt>
      <trkpt lat="48.22697" lon="7.17079">
        <ele>509.2</ele>
        <time>2022-02-12T06:36:10Z</time>
      </trkpt>
      <trkpt lat="48.2269" lon="7.17088">
        <ele>510.8</ele>
        <time>2022-02-12T06:36:20Z</time>
      </trkpt>
      <trkpt lat="48.22686" lon="7.17101">
        <ele>512.5</ele>
        <time>2022-02-12T06:36:30Z</time>
      </trkpt>
      <trkpt lat="48.22678" lon="7.17109">
        <ele>514.4</ele>
        <time>2022-02-12T06:36:39Z</time>
      </trkpt>
      <trkpt lat="48.22669" lon="7.17107">
        <ele>516.1</ele>
        <time>2022-02-12T06:36:47Z</time>
      </trkpt>
      <trkpt lat="48.22663" lon="7.1712">
        <ele>517.9</ele>
        <time>2022-02-12T06:36:54Z</time>
      </trkpt>
      <trkpt lat="48.22652" lon="7.17126">
        <ele>520</ele>
        <time>2022-02-12T06:37:03Z</time>
      </trkpt>
      <trkpt lat="48.22642" lon="7.17129">
        <ele>521.7</ele>
        <time>2022-02-12T06:37:10Z</time>
      </trkpt>
      <trkpt lat="48.22633" lon="7.17137">
        <ele>523.3</ele>
        <time>2022-02-12T06:37:20Z</time>
      </trkpt>
      <trkpt lat="48.22624" lon="7.17134">
        <ele>524.4</ele>
        <time>2022-02-12T06:37:32Z</time>
      </trkpt>
      <trkpt lat="48.22615" lon="7.17128">
        <ele>524.9</ele>
        <time>2022-02-12T06:37:37Z</time>
      </trkpt>
      <trkpt lat="48.22606" lon="7.17131">
        <ele>527.2</ele>
        <time>2022-02-12T06:37:53Z</time>
      </trkpt>
      <trkpt lat="48.226" lon="7.17142">
        <ele>529.7</ele>
        <time>2022-02-12T06:37:59Z</time>
      </trkpt>
      <trkpt lat="48.22598" lon="7.17158">
        <ele>530.8</ele>
        <time>2022-02-12T06:38:02Z</time>
      </trkpt>
      <trkpt lat="48.22598" lon="7.17172">
        <ele>532</ele>
        <time>2022-02-12T06:38:05Z</time>
      </trkpt>
      <trkpt lat="48.226" lon="7.17187">
        <ele>533.2</ele>
        <time>2022-02-12T06:38:16Z</time>
      </trkpt>
      <trkpt lat="48.22593" lon="7.17199">
        <ele>534.5</ele>
        <time>2022-02-12T06:38:24Z</time>
      </trkpt>
      <trkpt lat="48.22588" lon="7.17211">
        <ele>535.6</ele>
        <time>2022-02-12T06:38:29Z</time>
      </trkpt>
      <trkpt lat="48.22589" lon="7.17225">
        <ele>536.8</ele>
        <time>2022-02-12T06:38:35Z</time>
      </trkpt>
      <trkpt lat="48.22582" lon="7.17234">
        <ele>537.9</ele>
        <time>2022-02-12T06:38:41Z</time>
      </trkpt>
      <trkpt lat="48.22576" lon="7.17244">
        <ele>539</ele>
        <time>2022-02-12T06:38:53Z</time>
      </trkpt>
      <trkpt lat="48.2257" lon="7.17256">
        <ele>540.1</ele>
        <time>2022-02-12T06:39:03Z</time>
      </trkpt>
      <trkpt lat="48.22576" lon="7.17256">
        <ele>540.9</ele>
        <time>2022-02-12T06:39:07Z</time>
      </trkpt>
      <trkpt lat="48.22577" lon="7.17256">
        <ele>541</ele>
        <time>2022-02-12T06:39:08Z</time>
      </trkpt>
      <trkpt lat="48.22569" lon="7.17268">
        <ele>542.5</ele>
        <time>2022-02-12T06:39:21Z</time>
      </trkpt>
      <trkpt lat="48.22559" lon="7.17274">
        <ele>543.9</ele>
        <time>2022-02-12T06:39:28Z</time>
      </trkpt>
      <trkpt lat="48.2255" lon="7.17273">
        <ele>545.2</ele>
        <time>2022-02-12T06:39:36Z</time>
      </trkpt>
      <trkpt lat="48.2254" lon="7.17274">
        <ele>546.3</ele>
        <time>2022-02-12T06:39:47Z</time>
      </trkpt>
      <trkpt lat="48.22537" lon="7.17288">
        <ele>547.4</ele>
        <time>2022-02-12T06:40:00Z</time>
      </trkpt>
      <trkpt lat="48.22533" lon="7.17301">
        <ele>548.4</ele>
        <time>2022-02-12T06:40:14Z</time>
      </trkpt>
      <trkpt lat="48.22541" lon="7.17308">
        <ele>549.6</ele>
        <time>2022-02-12T06:40:20Z</time>
      </trkpt>
      <trkpt lat="48.22529" lon="7.17308">
        <ele>551.4</ele>
        <time>2022-02-12T06:40:31Z</time>
      </trkpt>
      <trkpt lat="48.22519" lon="7.1731">
        <ele>552.9</ele>
        <time>2022-02-12T06:40:35Z</time>
      </trkpt>
      <trkpt lat="48.22513" lon="7.17322">
        <ele>554.4</ele>
        <time>2022-02-12T06:40:41Z</time>
      </trkpt>
      <trkpt lat="48.22507" lon="7.17332">
        <ele>556</ele>
        <time>2022-02-12T06:40:47Z</time>
      </trkpt>
      <trkpt lat="48.22498" lon="7.17339">
        <ele>557.8</ele>
        <time>2022-02-12T06:40:58Z</time>
      </trkpt>
      <trkpt lat="48.22496" lon="7.17353">
        <ele>559.5</ele>
        <time>2022-02-12T06:41:07Z</time>
      </trkpt>
      <trkpt lat="48.22493" lon="7.17366">
        <ele>561</ele>
        <time>2022-02-12T06:41:18Z</time>
      </trkpt>
      <trkpt lat="48.22485" lon="7.17373">
        <ele>562.5</ele>
        <time>2022-02-12T06:41:24Z</time>
      </trkpt>
      <trkpt lat="48.22478" lon="7.17381">
        <ele>563.9</ele>
        <time>2022-02-12T06:41:32Z</time>
      </trkpt>
      <trkpt lat="48.22481" lon="7.17394">
        <ele>565.1</ele>
        <time>2022-02-12T06:41:38Z</time>
      </trkpt>
      <trkpt lat="48.22472" lon="7.17396">
        <ele>566.2</ele>
        <time>2022-02-12T06:41:53Z</time>
      </trkpt>
      <trkpt lat="48.22464" lon="7.17404">
        <ele>567.3</ele>
        <time>2022-02-12T06:42:04Z</time>
      </trkpt>
      <trkpt lat="48.22454" lon="7.17402">
        <ele>568.5</ele>
        <time>2022-02-12T06:42:13Z</time>
      </trkpt>
      <trkpt lat="48.22451" lon="7.17416">
        <ele>569.6</ele>
        <time>2022-02-12T06:42:22Z</time>
      </trkpt>
      <trkpt lat="48.22442" lon="7.17424">
        <ele>570.8</ele>
        <time>2022-02-12T06:42:32Z</time>
      </trkpt>
      <trkpt lat="48.22433" lon="7.17428">
        <ele>571.8</ele>
        <time>2022-02-12T06:42:43Z</time>
      </trkpt>
      <trkpt lat="48.22424" lon="7.17429">
        <ele>572.8</ele>
        <time>2022-02-12T06:42:47Z</time>
      </trkpt>
      <trkpt lat="48.22416" lon="7.17436">
        <ele>573.6</ele>
        <time>2022-02-12T06:42:58Z</time>
      </trkpt>
      <trkpt lat="48.22411" lon="7.17448">
        <ele>574.3</ele>
        <time>2022-02-12T06:43:05Z</time>
      </trkpt>
      <trkpt lat="48.22403" lon="7.17456">
        <ele>575.1</ele>
        <time>2022-02-12T06:43:15Z</time>
      </trkpt>
      <trkpt lat="48.22396" lon="7.17466">
        <ele>576</ele>
        <time>2022-02-12T06:43:24Z</time>
      </trkpt>
      <trkpt lat="48.22389" lon="7.17476">
        <ele>577</ele>
        <time>2022-02-12T06:43:33Z</time>
      </trkpt>
      <trkpt lat="48.22382" lon="7.17485">
        <ele>578</ele>
        <time>2022-02-12T06:43:40Z</time>
      </trkpt>
      <trkpt lat="48.22376" lon="7.17495">
        <ele>578.1</ele>
        <time>2022-02-12T06:43:48Z</time>
      </trkpt>
      <trkpt lat="48.22368" lon="7.17504">
        <ele>579.3</ele>
        <time>2022-02-12T06:43:58Z</time>
      </trkpt>
      <trkpt lat="48.22365" lon="7.17518">
        <ele>580.3</ele>
        <time>2022-02-12T06:44:09Z</time>
      </trkpt>
      <trkpt lat="48.22363" lon="7.17532">
        <ele>581.4</ele>
        <time>2022-02-12T06:44:18Z</time>
      </trkpt>
      <trkpt lat="48.22354" lon="7.17538">
        <ele>582.5</ele>
        <time>2022-02-12T06:44:28Z</time>
      </trkpt>
      <trkpt lat="48.22348" lon="7.1755">
        <ele>583.7</ele>
        <time>2022-02-12T06:44:36Z</time>
      </trkpt>
      <trkpt lat="48.22339" lon="7.17556">
        <ele>584.8</ele>
        <time>2022-02-12T06:44:43Z</time>
      </trkpt>
      <trkpt lat="48.2233" lon="7.17561">
        <ele>586</ele>
        <time>2022-02-12T06:44:50Z</time>
      </trkpt>
      <trkpt lat="48.2232" lon="7.17567">
        <ele>587.2</ele>
        <time>2022-02-12T06:44:57Z</time>
      </trkpt>
      <trkpt lat="48.22322" lon="7.17582">
        <ele>588.4</ele>
        <time>2022-02-12T06:45:03Z</time>
      </trkpt>
      <trkpt lat="48.22321" lon="7.17596">
        <ele>589.4</ele>
        <time>2022-02-12T06:45:11Z</time>
      </trkpt>
      <trkpt lat="48.22329" lon="7.17604">
        <ele>590.5</ele>
        <time>2022-02-12T06:45:32Z</time>
      </trkpt>
      <trkpt lat="48.22329" lon="7.17619">
        <ele>591.6</ele>
        <time>2022-02-12T06:45:47Z</time>
      </trkpt>
      <trkpt lat="48.22327" lon="7.17633">
        <ele>592.8</ele>
        <time>2022-02-12T06:45:54Z</time>
      </trkpt>
      <trkpt lat="48.22317" lon="7.1763">
        <ele>593.9</ele>
        <time>2022-02-12T06:46:00Z</time>
      </trkpt>
      <trkpt lat="48.22304" lon="7.17626">
        <ele>595.4</ele>
        <time>2022-02-12T06:46:05Z</time>
      </trkpt>
      <trkpt lat="48.223" lon="7.17639">
        <ele>596.5</ele>
        <time>2022-02-12T06:46:14Z</time>
      </trkpt>
      <trkpt lat="48.22291" lon="7.17647">
        <ele>597</ele>
        <time>2022-02-12T06:46:20Z</time>
      </trkpt>
      <trkpt lat="48.22282" lon="7.17648">
        <ele>598.2</ele>
        <time>2022-02-12T06:46:25Z</time>
      </trkpt>
      <trkpt lat="48.22273" lon="7.17644">
        <ele>599.3</ele>
        <time>2022-02-12T06:46:30Z</time>
      </trkpt>
      <trkpt lat="48.22261" lon="7.17643">
        <ele>600.8</ele>
        <time>2022-02-12T06:46:37Z</time>
      </trkpt>
      <trkpt lat="48.22254" lon="7.17651">
        <ele>601.9</ele>
        <time>2022-02-12T06:46:50Z</time>
      </trkpt>
      <trkpt lat="48.22244" lon="7.17654">
        <ele>603.2</ele>
        <time>2022-02-12T06:46:59Z</time>
      </trkpt>
      <trkpt lat="48.22234" lon="7.17653">
        <ele>604.5</ele>
        <time>2022-02-12T06:47:06Z</time>
      </trkpt>
      <trkpt lat="48.22223" lon="7.17652">
        <ele>605.8</ele>
        <time>2022-02-12T06:47:15Z</time>
      </trkpt>
      <trkpt lat="48.22215" lon="7.17646">
        <ele>607</ele>
        <time>2022-02-12T06:47:20Z</time>
      </trkpt>
      <trkpt lat="48.22206" lon="7.17642">
        <ele>608.1</ele>
        <time>2022-02-12T06:47:37Z</time>
      </trkpt>
      <trkpt lat="48.22197" lon="7.1765">
        <ele>609.4</ele>
        <time>2022-02-12T06:47:48Z</time>
      </trkpt>
      <trkpt lat="48.22189" lon="7.17643">
        <ele>610.5</ele>
        <time>2022-02-12T06:47:54Z</time>
      </trkpt>
      <trkpt lat="48.2218" lon="7.17641">
        <ele>611.7</ele>
        <time>2022-02-12T06:48:01Z</time>
      </trkpt>
      <trkpt lat="48.2217" lon="7.17641">
        <ele>612.9</ele>
        <time>2022-02-12T06:48:09Z</time>
      </trkpt>
      <trkpt lat="48.22163" lon="7.1765">
        <ele>614.1</ele>
        <time>2022-02-12T06:48:19Z</time>
      </trkpt>
      <trkpt lat="48.22155" lon="7.17659">
        <ele>615.3</ele>
        <time>2022-02-12T06:48:27Z</time>
      </trkpt>
      <trkpt lat="48.22145" lon="7.17659">
        <ele>616.6</ele>
        <time>2022-02-12T06:48:33Z</time>
      </trkpt>
      <trkpt lat="48.22137" lon="7.17663">
        <ele>617.7</ele>
        <time>2022-02-12T06:48:44Z</time>
      </trkpt>
      <trkpt lat="48.2213" lon="7.17675">
        <ele>619</ele>
        <time>2022-02-12T06:48:53Z</time>
      </trkpt>
      <trkpt lat="48.2212" lon="7.17678">
        <ele>620.2</ele>
        <time>2022-02-12T06:48:58Z</time>
      </trkpt>
      <trkpt lat="48.22111" lon="7.17686">
        <ele>621.5</ele>
        <time>2022-02-12T06:49:14Z</time>
      </trkpt>
      <trkpt lat="48.22104" lon="7.17696">
        <ele>622.7</ele>
        <time>2022-02-12T06:49:17Z</time>
      </trkpt>
      <trkpt lat="48.22095" lon="7.177">
        <ele>624</ele>
        <time>2022-02-12T06:49:20Z</time>
      </trkpt>
      <trkpt lat="48.22096" lon="7.17716">
        <ele>625.3</ele>
        <time>2022-02-12T06:49:31Z</time>
      </trkpt>
      <trkpt lat="48.22088" lon="7.17726">
        <ele>626.6</ele>
        <time>2022-02-12T06:49:43Z</time>
      </trkpt>
      <trkpt lat="48.22079" lon="7.1773">
        <ele>627.7</ele>
        <time>2022-02-12T06:49:51Z</time>
      </trkpt>
      <trkpt lat="48.22069" lon="7.17733">
        <ele>629</ele>
        <time>2022-02-12T06:49:58Z</time>
      </trkpt>
      <trkpt lat="48.2206" lon="7.1774">
        <ele>630.2</ele>
        <time>2022-02-12T06:50:09Z</time>
      </trkpt>
      <trkpt lat="48.22063" lon="7.17753">
        <ele>631.4</ele>
        <time>2022-02-12T06:50:18Z</time>
      </trkpt>
      <trkpt lat="48.22053" lon="7.17758">
        <ele>632.6</ele>
        <time>2022-02-12T06:50:25Z</time>
      </trkpt>
      <trkpt lat="48.22045" lon="7.17766">
        <ele>633.8</ele>
        <time>2022-02-12T06:50:35Z</time>
      </trkpt>
      <trkpt lat="48.22037" lon="7.17774">
        <ele>635</ele>
        <time>2022-02-12T06:50:50Z</time>
      </trkpt>
      <trkpt lat="48.22038" lon="7.17779">
        <ele>635.4</ele>
        <time>2022-02-12T06:51:00Z</time>
      </trkpt>
      <trkpt lat="48.22037" lon="7.17781">
        <ele>635.7</ele>
        <time>2022-02-12T06:51:01Z</time>
      </trkpt>
      <trkpt lat="48.22032" lon="7.17793">
        <ele>636.8</ele>
        <time>2022-02-12T06:51:06Z</time>
      </trkpt>
      <trkpt lat="48.22027" lon="7.17804">
        <ele>637.9</ele>
        <time>2022-02-12T06:51:12Z</time>
      </trkpt>
      <trkpt lat="48.22019" lon="7.17814">
        <ele>639.2</ele>
        <time>2022-02-12T06:51:18Z</time>
      </trkpt>
      <trkpt lat="48.22018" lon="7.17828">
        <ele>640.4</ele>
        <time>2022-02-12T06:51:24Z</time>
      </trkpt>
      <trkpt lat="48.22007" lon="7.17832">
        <ele>641.8</ele>
        <time>2022-02-12T06:51:34Z</time>
      </trkpt>
      <trkpt lat="48.22016" lon="7.17836">
        <ele>642.9</ele>
        <time>2022-02-12T06:51:41Z</time>
      </trkpt>
      <trkpt lat="48.22019" lon="7.17851">
        <ele>644.1</ele>
        <time>2022-02-12T06:51:51Z</time>
      </trkpt>
      <trkpt lat="48.22007" lon="7.17853">
        <ele>645.5</ele>
        <time>2022-02-12T06:51:55Z</time>
      </trkpt>
      <trkpt lat="48.21998" lon="7.17853">
        <ele>646.7</ele>
        <time>2022-02-12T06:51:59Z</time>
      </trkpt>
      <trkpt lat="48.21988" lon="7.17858">
        <ele>648</ele>
        <time>2022-02-12T06:52:08Z</time>
      </trkpt>
      <trkpt lat="48.21989" lon="7.17872">
        <ele>649.1</ele>
        <time>2022-02-12T06:52:25Z</time>
      </trkpt>
      <trkpt lat="48.2198" lon="7.17879">
        <ele>650.4</ele>
        <time>2022-02-12T06:52:57Z</time>
      </trkpt>
      <trkpt lat="48.21972" lon="7.17889">
        <ele>651.7</ele>
        <time>2022-02-12T06:53:06Z</time>
      </trkpt>
      <trkpt lat="48.21963" lon="7.17889">
        <ele>652.8</ele>
        <time>2022-02-12T06:53:12Z</time>
      </trkpt>
      <trkpt lat="48.21953" lon="7.17889">
        <ele>654.1</ele>
        <time>2022-02-12T06:53:15Z</time>
      </trkpt>
      <trkpt lat="48.21941" lon="7.1789">
        <ele>655.5</ele>
        <time>2022-02-12T06:53:18Z</time>
      </trkpt>
      <trkpt lat="48.21931" lon="7.17894">
        <ele>656.8</ele>
        <time>2022-02-12T06:53:22Z</time>
      </trkpt>
      <trkpt lat="48.21924" lon="7.17903">
        <ele>658</ele>
        <time>2022-02-12T06:53:28Z</time>
      </trkpt>
      <trkpt lat="48.21932" lon="7.17915">
        <ele>659.4</ele>
        <time>2022-02-12T06:53:52Z</time>
      </trkpt>
      <trkpt lat="48.21939" lon="7.17924">
        <ele>660.5</ele>
        <time>2022-02-12T06:53:56Z</time>
      </trkpt>
      <trkpt lat="48.21945" lon="7.17929">
        <ele>660.3</ele>
        <time>2022-02-12T06:54:04Z</time>
      </trkpt>
      <trkpt lat="48.21945" lon="7.17927">
        <ele>660.2</ele>
        <time>2022-02-12T06:54:05Z</time>
      </trkpt>
      <trkpt lat="48.21935" lon="7.17925">
        <ele>660.1</ele>
        <time>2022-02-12T06:54:27Z</time>
      </trkpt>
      <trkpt lat="48.21926" lon="7.17924">
        <ele>660</ele>
        <time>2022-02-12T06:54:50Z</time>
      </trkpt>
      <trkpt lat="48.21917" lon="7.1792">
        <ele>660</ele>
        <time>2022-02-12T06:54:59Z</time>
      </trkpt>
      <trkpt lat="48.21927" lon="7.17917">
        <ele>660</ele>
        <time>2022-02-12T06:55:23Z</time>
      </trkpt>
      <trkpt lat="48.21938" lon="7.17918">
        <ele>660.1</ele>
        <time>2022-02-12T06:55:33Z</time>
      </trkpt>
      <trkpt lat="48.21947" lon="7.17914">
        <ele>660.2</ele>
        <time>2022-02-12T06:55:35Z</time>
      </trkpt>
      <trkpt lat="48.21954" lon="7.17921">
        <ele>660.3</ele>
        <time>2022-02-12T06:55:57Z</time>
      </trkpt>
      <trkpt lat="48.21947" lon="7.17911">
        <ele>660.6</ele>
        <time>2022-02-12T06:56:30Z</time>
      </trkpt>
      <trkpt lat="48.21937" lon="7.17909">
        <ele>661</ele>
        <time>2022-02-12T06:56:40Z</time>
      </trkpt>
      <trkpt lat="48.21947" lon="7.17901">
        <ele>661.4</ele>
        <time>2022-02-12T06:56:54Z</time>
      </trkpt>
      <trkpt lat="48.21954" lon="7.17893">
        <ele>661.8</ele>
        <time>2022-02-12T06:56:59Z</time>
      </trkpt>
      <trkpt lat="48.21962" lon="7.1788">
        <ele>662.2</ele>
        <time>2022-02-12T06:57:12Z</time>
      </trkpt>
      <trkpt lat="48.21968" lon="7.1787">
        <ele>662.6</ele>
        <time>2022-02-12T06:57:17Z</time>
      </trkpt>
      <trkpt lat="48.21975" lon="7.17856">
        <ele>663</ele>
        <time>2022-02-12T06:57:22Z</time>
      </trkpt>
      <trkpt lat="48.21985" lon="7.1785">
        <ele>663.5</ele>
        <time>2022-02-12T06:57:25Z</time>
      </trkpt>
      <trkpt lat="48.21995" lon="7.17848">
        <ele>663.9</ele>
        <time>2022-02-12T06:57:29Z</time>
      </trkpt>
      <trkpt lat="48.22005" lon="7.17844">
        <ele>664.2</ele>
        <time>2022-02-12T06:57:35Z</time>
      </trkpt>
      <trkpt lat="48.22013" lon="7.17834">
        <ele>664.6</ele>
        <time>2022-02-12T06:57:38Z</time>
      </trkpt>
      <trkpt lat="48.22004" lon="7.17827">
        <ele>664.9</ele>
        <time>2022-02-12T06:57:47Z</time>
      </trkpt>
      <trkpt lat="48.22007" lon="7.17813">
        <ele>665.3</ele>
        <time>2022-02-12T06:57:52Z</time>
      </trkpt>
      <trkpt lat="48.22016" lon="7.17806">
        <ele>665.6</ele>
        <time>2022-02-12T06:57:57Z</time>
      </trkpt>
      <trkpt lat="48.22024" lon="7.17799">
        <ele>666</ele>
        <time>2022-02-12T06:58:01Z</time>
      </trkpt>
      <trkpt lat="48.22024" lon="7.17784">
        <ele>666.5</ele>
        <time>2022-02-12T06:58:10Z</time>
      </trkpt>
      <trkpt lat="48.22016" lon="7.17776">
        <ele>666.9</ele>
        <time>2022-02-12T06:58:14Z</time>
      </trkpt>
      <trkpt lat="48.22006" lon="7.17771">
        <ele>667.4</ele>
        <time>2022-02-12T06:58:23Z</time>
      </trkpt>
      <trkpt lat="48.22" lon="7.1776">
        <ele>667.8</ele>
        <time>2022-02-12T06:58:32Z</time>
      </trkpt>
      <trkpt lat="48.22003" lon="7.17747">
        <ele>668.2</ele>
        <time>2022-02-12T06:58:40Z</time>
      </trkpt>
      <trkpt lat="48.22004" lon="7.17731">
        <ele>668.7</ele>
        <time>2022-02-12T06:58:44Z</time>
      </trkpt>
      <trkpt lat="48.22007" lon="7.17716">
        <ele>669.3</ele>
        <time>2022-02-12T06:58:49Z</time>
      </trkpt>
      <trkpt lat="48.22011" lon="7.17691">
        <ele>670.3</ele>
        <time>2022-02-12T06:59:00Z</time>
      </trkpt>
      <trkpt lat="48.22014" lon="7.1768">
        <ele>670.8</ele>
        <time>2022-02-12T06:59:07Z</time>
      </trkpt>
      <trkpt lat="48.22018" lon="7.1767">
        <ele>671.3</ele>
        <time>2022-02-12T06:59:18Z</time>
      </trkpt>
      <trkpt lat="48.22021" lon="7.17659">
        <ele>671.8</ele>
        <time>2022-02-12T06:59:25Z</time>
      </trkpt>
      <trkpt lat="48.22025" lon="7.17648">
        <ele>672.3</ele>
        <time>2022-02-12T06:59:31Z</time>
      </trkpt>
      <trkpt lat="48.22029" lon="7.17637">
        <ele>672.8</ele>
        <time>2022-02-12T06:59:39Z</time>
      </trkpt>
      <trkpt lat="48.22032" lon="7.17627">
        <ele>673.2</ele>
        <time>2022-02-12T06:59:52Z</time>
      </trkpt>
      <trkpt lat="48.22036" lon="7.17616">
        <ele>673.6</ele>
        <time>2022-02-12T07:00:31Z</time>
      </trkpt>
      <trkpt lat="48.22039" lon="7.17605">
        <ele>674</ele>
        <time>2022-02-12T07:00:32Z</time>
      </trkpt>
      <trkpt lat="48.22048" lon="7.17594">
        <ele>674.5</ele>
        <time>2022-02-12T07:00:35Z</time>
      </trkpt>
      <trkpt lat="48.22065" lon="7.17581">
        <ele>675.2</ele>
        <time>2022-02-12T07:00:43Z</time>
      </trkpt>
      <trkpt lat="48.22062" lon="7.17567">
        <ele>675.3</ele>
        <time>2022-02-12T07:00:52Z</time>
      </trkpt>
      <trkpt lat="48.22058" lon="7.17553">
        <ele>675.4</ele>
        <time>2022-02-12T07:01:04Z</time>
      </trkpt>
      <trkpt lat="48.22059" lon="7.17539">
        <ele>675.3</ele>
        <time>2022-02-12T07:01:17Z</time>
      </trkpt>
      <trkpt lat="48.22067" lon="7.17532">
        <ele>675.2</ele>
        <time>2022-02-12T07:01:22Z</time>
      </trkpt>
      <trkpt lat="48.22074" lon="7.17522">
        <ele>675.1</ele>
        <time>2022-02-12T07:01:28Z</time>
      </trkpt>
      <trkpt lat="48.2208" lon="7.17512">
        <ele>674.9</ele>
        <time>2022-02-12T07:01:34Z</time>
      </trkpt>
      <trkpt lat="48.22089" lon="7.17504">
        <ele>674.7</ele>
        <time>2022-02-12T07:01:39Z</time>
      </trkpt>
      <trkpt lat="48.22096" lon="7.17493">
        <ele>674.4</ele>
        <time>2022-02-12T07:01:47Z</time>
      </trkpt>
      <trkpt lat="48.221" lon="7.1748">
        <ele>674.1</ele>
        <time>2022-02-12T07:01:55Z</time>
      </trkpt>
      <trkpt lat="48.22102" lon="7.17466">
        <ele>673.8</ele>
        <time>2022-02-12T07:02:06Z</time>
      </trkpt>
      <trkpt lat="48.22106" lon="7.17453">
        <ele>673.5</ele>
        <time>2022-02-12T07:02:15Z</time>
      </trkpt>
      <trkpt lat="48.22109" lon="7.17439">
        <ele>673.2</ele>
        <time>2022-02-12T07:02:23Z</time>
      </trkpt>
      <trkpt lat="48.22113" lon="7.17426">
        <ele>672.9</ele>
        <time>2022-02-12T07:02:29Z</time>
      </trkpt>
      <trkpt lat="48.22112" lon="7.17412">
        <ele>672.7</ele>
        <time>2022-02-12T07:02:37Z</time>
      </trkpt>
      <trkpt lat="48.22109" lon="7.17399">
        <ele>672.4</ele>
        <time>2022-02-12T07:02:44Z</time>
      </trkpt>
      <trkpt lat="48.22102" lon="7.1739">
        <ele>672.1</ele>
        <time>2022-02-12T07:02:49Z</time>
      </trkpt>
      <trkpt lat="48.22095" lon="7.17381">
        <ele>671.7</ele>
        <time>2022-02-12T07:02:54Z</time>
      </trkpt>
      <trkpt lat="48.22093" lon="7.17366">
        <ele>671.8</ele>
        <time>2022-02-12T07:03:02Z</time>
      </trkpt>
      <trkpt lat="48.22084" lon="7.17358">
        <ele>672.6</ele>
        <time>2022-02-12T07:03:09Z</time>
      </trkpt>
      <trkpt lat="48.22077" lon="7.17347">
        <ele>673.3</ele>
        <time>2022-02-12T07:03:16Z</time>
      </trkpt>
      <trkpt lat="48.22074" lon="7.17334">
        <ele>674</ele>
        <time>2022-02-12T07:03:24Z</time>
      </trkpt>
      <trkpt lat="48.22076" lon="7.17319">
        <ele>674.9</ele>
        <time>2022-02-12T07:03:35Z</time>
      </trkpt>
      <trkpt lat="48.22076" lon="7.17305">
        <ele>675.8</ele>
        <time>2022-02-12T07:03:43Z</time>
      </trkpt>
      <trkpt lat="48.22077" lon="7.17291">
        <ele>676.7</ele>
        <time>2022-02-12T07:03:53Z</time>
      </trkpt>
      <trkpt lat="48.22067" lon="7.1729">
        <ele>677.9</ele>
        <time>2022-02-12T07:04:03Z</time>
      </trkpt>
      <trkpt lat="48.22058" lon="7.17288">
        <ele>679.5</ele>
        <time>2022-02-12T07:04:10Z</time>
      </trkpt>
      <trkpt lat="48.22049" lon="7.17284">
        <ele>681</ele>
        <time>2022-02-12T07:04:16Z</time>
      </trkpt>
      <trkpt lat="48.22042" lon="7.17275">
        <ele>682.5</ele>
        <time>2022-02-12T07:04:20Z</time>
      </trkpt>
      <trkpt lat="48.22035" lon="7.17264">
        <ele>684.2</ele>
        <time>2022-02-12T07:04:28Z</time>
      </trkpt>
      <trkpt lat="48.22027" lon="7.17256">
        <ele>685.7</ele>
        <time>2022-02-12T07:04:34Z</time>
      </trkpt>
      <trkpt lat="48.22019" lon="7.17251">
        <ele>687.1</ele>
        <time>2022-02-12T07:04:40Z</time>
      </trkpt>
      <trkpt lat="48.22013" lon="7.1724">
        <ele>688.6</ele>
        <time>2022-02-12T07:04:54Z</time>
      </trkpt>
      <trkpt lat="48.22002" lon="7.17239">
        <ele>690.2</ele>
        <time>2022-02-12T07:04:59Z</time>
      </trkpt>
      <trkpt lat="48.21994" lon="7.17231">
        <ele>690.9</ele>
        <time>2022-02-12T07:05:09Z</time>
      </trkpt>
      <trkpt lat="48.21989" lon="7.17219">
        <ele>691.9</ele>
        <time>2022-02-12T07:05:30Z</time>
      </trkpt>
      <trkpt lat="48.21979" lon="7.17212">
        <ele>693</ele>
        <time>2022-02-12T07:05:39Z</time>
      </trkpt>
      <trkpt lat="48.21969" lon="7.17207">
        <ele>694.1</ele>
        <time>2022-02-12T07:05:46Z</time>
      </trkpt>
      <trkpt lat="48.2196" lon="7.17201">
        <ele>695.2</ele>
        <time>2022-02-12T07:05:52Z</time>
      </trkpt>
      <trkpt lat="48.21952" lon="7.17194">
        <ele>696.2</ele>
        <time>2022-02-12T07:06:00Z</time>
      </trkpt>
      <trkpt lat="48.21943" lon="7.17188">
        <ele>697.3</ele>
        <time>2022-02-12T07:06:04Z</time>
      </trkpt>
      <trkpt lat="48.21935" lon="7.1718">
        <ele>698.3</ele>
        <time>2022-02-12T07:06:10Z</time>
      </trkpt>
      <trkpt lat="48.21926" lon="7.17171">
        <ele>699.4</ele>
        <time>2022-02-12T07:06:16Z</time>
      </trkpt>
      <trkpt lat="48.21914" lon="7.17166">
        <ele>700.9</ele>
        <time>2022-02-12T07:06:25Z</time>
      </trkpt>
      <trkpt lat="48.21905" lon="7.17161">
        <ele>702.2</ele>
        <time>2022-02-12T07:06:31Z</time>
      </trkpt>
      <trkpt lat="48.21896" lon="7.17161">
        <ele>703.4</ele>
        <time>2022-02-12T07:06:42Z</time>
      </trkpt>
      <trkpt lat="48.21885" lon="7.17165">
        <ele>704.8</ele>
        <time>2022-02-12T07:06:55Z</time>
      </trkpt>
      <trkpt lat="48.21876" lon="7.1716">
        <ele>706</ele>
        <time>2022-02-12T07:07:11Z</time>
      </trkpt>
      <trkpt lat="48.21867" lon="7.17156">
        <ele>707.3</ele>
        <time>2022-02-12T07:07:21Z</time>
      </trkpt>
      <trkpt lat="48.21857" lon="7.17152">
        <ele>708.6</ele>
        <time>2022-02-12T07:07:31Z</time>
      </trkpt>
      <trkpt lat="48.21846" lon="7.17148">
        <ele>710.1</ele>
        <time>2022-02-12T07:07:39Z</time>
      </trkpt>
      <trkpt lat="48.21836" lon="7.17143">
        <ele>711.4</ele>
        <time>2022-02-12T07:07:44Z</time>
      </trkpt>
      <trkpt lat="48.21826" lon="7.17138">
        <ele>712.7</ele>
        <time>2022-02-12T07:07:49Z</time>
      </trkpt>
      <trkpt lat="48.21816" lon="7.17141">
        <ele>713.9</ele>
        <time>2022-02-12T07:07:56Z</time>
      </trkpt>
      <trkpt lat="48.21807" lon="7.17148">
        <ele>715.3</ele>
        <time>2022-02-12T07:08:02Z</time>
      </trkpt>
      <trkpt lat="48.21796" lon="7.1715">
        <ele>716.6</ele>
        <time>2022-02-12T07:08:08Z</time>
      </trkpt>
      <trkpt lat="48.21787" lon="7.17152">
        <ele>717.8</ele>
        <time>2022-02-12T07:08:14Z</time>
      </trkpt>
      <trkpt lat="48.21778" lon="7.17149">
        <ele>719</ele>
        <time>2022-02-12T07:08:26Z</time>
      </trkpt>
      <trkpt lat="48.21768" lon="7.17149">
        <ele>720.3</ele>
        <time>2022-02-12T07:08:32Z</time>
      </trkpt>
      <trkpt lat="48.21759" lon="7.17152">
        <ele>721.6</ele>
        <time>2022-02-12T07:08:39Z</time>
      </trkpt>
      <trkpt lat="48.2175" lon="7.17156">
        <ele>722.9</ele>
        <time>2022-02-12T07:08:47Z</time>
      </trkpt>
      <trkpt lat="48.21743" lon="7.17162">
        <ele>723.8</ele>
        <time>2022-02-12T07:08:57Z</time>
      </trkpt>
      <trkpt lat="48.21743" lon="7.17162">
        <ele>723.9</ele>
        <time>2022-02-12T07:08:58Z</time>
      </trkpt>
      <trkpt lat="48.21734" lon="7.17166">
        <ele>725</ele>
        <time>2022-02-12T07:09:09Z</time>
      </trkpt>
      <trkpt lat="48.21734" lon="7.17166">
        <ele>725</ele>
        <time>2022-02-12T07:09:10Z</time>
      </trkpt>
      <trkpt lat="48.21734" lon="7.17166">
        <ele>725.1</ele>
        <time>2022-02-12T07:09:11Z</time>
      </trkpt>
      <trkpt lat="48.21725" lon="7.1717">
        <ele>726.3</ele>
        <time>2022-02-12T07:09:21Z</time>
      </trkpt>
      <trkpt lat="48.21715" lon="7.17169">
        <ele>727.5</ele>
        <time>2022-02-12T07:09:29Z</time>
      </trkpt>
      <trkpt lat="48.21706" lon="7.17169">
        <ele>728.6</ele>
        <time>2022-02-12T07:09:35Z</time>
      </trkpt>
      <trkpt lat="48.21697" lon="7.17167">
        <ele>729.9</ele>
        <time>2022-02-12T07:09:44Z</time>
      </trkpt>
      <trkpt lat="48.21688" lon="7.17161">
        <ele>731.1</ele>
        <time>2022-02-12T07:09:50Z</time>
      </trkpt>
      <trkpt lat="48.21679" lon="7.17157">
        <ele>732.4</ele>
        <time>2022-02-12T07:10:00Z</time>
      </trkpt>
      <trkpt lat="48.21672" lon="7.17148">
        <ele>733.7</ele>
        <time>2022-02-12T07:10:08Z</time>
      </trkpt>
      <trkpt lat="48.2167" lon="7.17149">
        <ele>734</ele>
        <time>2022-02-12T07:10:11Z</time>
      </trkpt>
      <trkpt lat="48.2167" lon="7.1715">
        <ele>734</ele>
        <time>2022-02-12T07:10:12Z</time>
      </trkpt>
      <trkpt lat="48.21661" lon="7.17147">
        <ele>735.3</ele>
        <time>2022-02-12T07:10:29Z</time>
      </trkpt>
      <trkpt lat="48.21652" lon="7.1714">
        <ele>736.6</ele>
        <time>2022-02-12T07:10:37Z</time>
      </trkpt>
      <trkpt lat="48.21644" lon="7.17133">
        <ele>737.8</ele>
        <time>2022-02-12T07:10:45Z</time>
      </trkpt>
      <trkpt lat="48.21634" lon="7.1713">
        <ele>738.9</ele>
        <time>2022-02-12T07:10:50Z</time>
      </trkpt>
      <trkpt lat="48.21625" lon="7.17126">
        <ele>740.1</ele>
        <time>2022-02-12T07:10:55Z</time>
      </trkpt>
      <trkpt lat="48.21617" lon="7.17118">
        <ele>741.4</ele>
        <time>2022-02-12T07:11:00Z</time>
      </trkpt>
      <trkpt lat="48.21608" lon="7.17111">
        <ele>742.7</ele>
        <time>2022-02-12T07:11:04Z</time>
      </trkpt>
      <trkpt lat="48.21598" lon="7.17107">
        <ele>744</ele>
        <time>2022-02-12T07:11:08Z</time>
      </trkpt>
      <trkpt lat="48.21588" lon="7.17106">
        <ele>745.3</ele>
        <time>2022-02-12T07:11:15Z</time>
      </trkpt>
      <trkpt lat="48.21578" lon="7.17103">
        <ele>746.6</ele>
        <time>2022-02-12T07:11:36Z</time>
      </trkpt>
      <trkpt lat="48.21568" lon="7.17103">
        <ele>747.9</ele>
        <time>2022-02-12T07:11:44Z</time>
      </trkpt>
      <trkpt lat="48.21558" lon="7.17103">
        <ele>749</ele>
        <time>2022-02-12T07:11:51Z</time>
      </trkpt>
      <trkpt lat="48.2155" lon="7.17106">
        <ele>750.2</ele>
        <time>2022-02-12T07:11:56Z</time>
      </trkpt>
      <trkpt lat="48.21541" lon="7.17103">
        <ele>750.8</ele>
        <time>2022-02-12T07:12:01Z</time>
      </trkpt>
      <trkpt lat="48.21529" lon="7.17104">
        <ele>751.7</ele>
        <time>2022-02-12T07:12:07Z</time>
      </trkpt>
      <trkpt lat="48.2152" lon="7.17101">
        <ele>752.5</ele>
        <time>2022-02-12T07:12:16Z</time>
      </trkpt>
      <trkpt lat="48.21528" lon="7.17107">
        <ele>753.2</ele>
        <time>2022-02-12T07:12:29Z</time>
      </trkpt>
      <trkpt lat="48.21528" lon="7.17106">
        <ele>753.2</ele>
        <time>2022-02-12T07:12:30Z</time>
      </trkpt>
      <trkpt lat="48.21523" lon="7.17118">
        <ele>753.9</ele>
        <time>2022-02-12T07:12:58Z</time>
      </trkpt>
      <trkpt lat="48.21522" lon="7.17129">
        <ele>754.5</ele>
        <time>2022-02-12T07:13:14Z</time>
      </trkpt>
      <trkpt lat="48.21523" lon="7.17128">
        <ele>754.5</ele>
        <time>2022-02-12T07:13:15Z</time>
      </trkpt>
      <trkpt lat="48.21517" lon="7.17121">
        <ele>755.1</ele>
        <time>2022-02-12T07:13:22Z</time>
      </trkpt>
      <trkpt lat="48.21519" lon="7.17119">
        <ele>755.3</ele>
        <time>2022-02-12T07:13:23Z</time>
      </trkpt>
      <trkpt lat="48.2153" lon="7.17108">
        <ele>756.4</ele>
        <time>2022-02-12T07:13:34Z</time>
      </trkpt>
      <trkpt lat="48.21532" lon="7.17113">
        <ele>756.6</ele>
        <time>2022-02-12T07:13:41Z</time>
      </trkpt>
      <trkpt lat="48.21532" lon="7.17112">
        <ele>756.7</ele>
        <time>2022-02-12T07:13:42Z</time>
      </trkpt>
      <trkpt lat="48.21539" lon="7.17102">
        <ele>757.3</ele>
        <time>2022-02-12T07:13:46Z</time>
      </trkpt>
      <trkpt lat="48.21538" lon="7.17103">
        <ele>757.4</ele>
        <time>2022-02-12T07:13:52Z</time>
      </trkpt>
      <trkpt lat="48.21538" lon="7.17103">
        <ele>757.4</ele>
        <time>2022-02-12T07:13:53Z</time>
      </trkpt>
      <trkpt lat="48.21547" lon="7.17105">
        <ele>758</ele>
        <time>2022-02-12T07:14:00Z</time>
      </trkpt>
      <trkpt lat="48.2154" lon="7.17115">
        <ele>758.6</ele>
        <time>2022-02-12T07:14:21Z</time>
      </trkpt>
      <trkpt lat="48.21532" lon="7.17109">
        <ele>759.1</ele>
        <time>2022-02-12T07:14:28Z</time>
      </trkpt>
      <trkpt lat="48.2152" lon="7.17111">
        <ele>759.8</ele>
        <time>2022-02-12T07:14:35Z</time>
      </trkpt>
      <trkpt lat="48.21525" lon="7.17112">
        <ele>760.1</ele>
        <time>2022-02-12T07:14:40Z</time>
      </trkpt>
      <trkpt lat="48.21525" lon="7.17112">
        <ele>760.1</ele>
        <time>2022-02-12T07:14:41Z</time>
      </trkpt>
      <trkpt lat="48.21517" lon="7.17118">
        <ele>760.6</ele>
        <time>2022-02-12T07:14:51Z</time>
      </trkpt>
      <trkpt lat="48.21507" lon="7.17113">
        <ele>761.2</ele>
        <time>2022-02-12T07:14:58Z</time>
      </trkpt>
      <trkpt lat="48.21498" lon="7.17109">
        <ele>761.7</ele>
        <time>2022-02-12T07:15:07Z</time>
      </trkpt>
      <trkpt lat="48.21487" lon="7.17105">
        <ele>762.1</ele>
        <time>2022-02-12T07:15:14Z</time>
      </trkpt>
      <trkpt lat="48.21478" lon="7.17107">
        <ele>762.6</ele>
        <time>2022-02-12T07:15:21Z</time>
      </trkpt>
      <trkpt lat="48.2147" lon="7.17115">
        <ele>763.1</ele>
        <time>2022-02-12T07:15:30Z</time>
      </trkpt>
      <trkpt lat="48.21465" lon="7.17126">
        <ele>763.7</ele>
        <time>2022-02-12T07:15:39Z</time>
      </trkpt>
      <trkpt lat="48.21466" lon="7.17141">
        <ele>764.4</ele>
        <time>2022-02-12T07:15:45Z</time>
      </trkpt>
      <trkpt lat="48.21468" lon="7.17155">
        <ele>765</ele>
        <time>2022-02-12T07:15:51Z</time>
      </trkpt>
      <trkpt lat="48.21465" lon="7.1717">
        <ele>765.5</ele>
        <time>2022-02-12T07:15:56Z</time>
      </trkpt>
      <trkpt lat="48.21462" lon="7.17184">
        <ele>766.1</ele>
        <time>2022-02-12T07:16:03Z</time>
      </trkpt>
      <trkpt lat="48.21459" lon="7.17198">
        <ele>766.7</ele>
        <time>2022-02-12T07:16:14Z</time>
      </trkpt>
      <trkpt lat="48.21453" lon="7.17211">
        <ele>767.2</ele>
        <time>2022-02-12T07:16:22Z</time>
      </trkpt>
      <trkpt lat="48.21449" lon="7.17224">
        <ele>767.7</ele>
        <time>2022-02-12T07:16:32Z</time>
      </trkpt>
      <trkpt lat="48.2144" lon="7.17228">
        <ele>768.1</ele>
        <time>2022-02-12T07:16:39Z</time>
      </trkpt>
      <trkpt lat="48.21434" lon="7.17241">
        <ele>768.6</ele>
        <time>2022-02-12T07:16:47Z</time>
      </trkpt>
      <trkpt lat="48.21424" lon="7.17243">
        <ele>769.3</ele>
        <time>2022-02-12T07:16:54Z</time>
      </trkpt>
      <trkpt lat="48.21414" lon="7.17247">
        <ele>770.1</ele>
        <time>2022-02-12T07:17:05Z</time>
      </trkpt>
      <trkpt lat="48.21407" lon="7.17256">
        <ele>770.8</ele>
        <time>2022-02-12T07:17:17Z</time>
      </trkpt>
      <trkpt lat="48.21402" lon="7.17268">
        <ele>771.7</ele>
        <time>2022-02-12T07:17:24Z</time>
      </trkpt>
      <trkpt lat="48.21393" lon="7.17271">
        <ele>772.4</ele>
        <time>2022-02-12T07:17:32Z</time>
      </trkpt>
      <trkpt lat="48.21383" lon="7.17279">
        <ele>773.2</ele>
        <time>2022-02-12T07:17:40Z</time>
      </trkpt>
      <trkpt lat="48.21374" lon="7.17282">
        <ele>773.8</ele>
        <time>2022-02-12T07:17:48Z</time>
      </trkpt>
      <trkpt lat="48.21367" lon="7.17291">
        <ele>774.4</ele>
        <time>2022-02-12T07:17:56Z</time>
      </trkpt>
      <trkpt lat="48.21363" lon="7.17304">
        <ele>775</ele>
        <time>2022-02-12T07:18:02Z</time>
      </trkpt>
      <trkpt lat="48.21351" lon="7.17301">
        <ele>775.8</ele>
        <time>2022-02-12T07:18:10Z</time>
      </trkpt>
      <trkpt lat="48.21341" lon="7.173">
        <ele>776.2</ele>
        <time>2022-02-12T07:18:22Z</time>
      </trkpt>
      <trkpt lat="48.21334" lon="7.17291">
        <ele>776.6</ele>
        <time>2022-02-12T07:18:31Z</time>
      </trkpt>
      <trkpt lat="48.21334" lon="7.17291">
        <ele>776.6</ele>
        <time>2022-02-12T07:18:32Z</time>
      </trkpt>
      <trkpt lat="48.21335" lon="7.17291">
        <ele>776.6</ele>
        <time>2022-02-12T07:18:33Z</time>
      </trkpt>
      <trkpt lat="48.21324" lon="7.17291">
        <ele>777</ele>
        <time>2022-02-12T07:18:43Z</time>
      </trkpt>
      <trkpt lat="48.21319" lon="7.17278">
        <ele>777.3</ele>
        <time>2022-02-12T07:18:53Z</time>
      </trkpt>
      <trkpt lat="48.21313" lon="7.17268">
        <ele>777.7</ele>
        <time>2022-02-12T07:18:58Z</time>
      </trkpt>
      <trkpt lat="48.21315" lon="7.17255">
        <ele>778.3</ele>
        <time>2022-02-12T07:19:04Z</time>
      </trkpt>
      <trkpt lat="48.21314" lon="7.17241">
        <ele>778.9</ele>
        <time>2022-02-12T07:19:16Z</time>
      </trkpt>
      <trkpt lat="48.21307" lon="7.17232">
        <ele>779.5</ele>
        <time>2022-02-12T07:19:24Z</time>
      </trkpt>
      <trkpt lat="48.21301" lon="7.17221">
        <ele>780.1</ele>
        <time>2022-02-12T07:19:32Z</time>
      </trkpt>
      <trkpt lat="48.21294" lon="7.17208">
        <ele>780.7</ele>
        <time>2022-02-12T07:19:39Z</time>
      </trkpt>
      <trkpt lat="48.21285" lon="7.172">
        <ele>781.3</ele>
        <time>2022-02-12T07:19:46Z</time>
      </trkpt>
      <trkpt lat="48.2128" lon="7.17187">
        <ele>782</ele>
        <time>2022-02-12T07:19:53Z</time>
      </trkpt>
      <trkpt lat="48.21279" lon="7.17173">
        <ele>782.6</ele>
        <time>2022-02-12T07:20:02Z</time>
      </trkpt>
      <trkpt lat="48.21272" lon="7.17162">
        <ele>783.2</ele>
        <time>2022-02-12T07:20:12Z</time>
      </trkpt>
      <trkpt lat="48.21272" lon="7.17147">
        <ele>783.8</ele>
        <time>2022-02-12T07:20:20Z</time>
      </trkpt>
      <trkpt lat="48.21268" lon="7.17134">
        <ele>784.4</ele>
        <time>2022-02-12T07:20:25Z</time>
      </trkpt>
      <trkpt lat="48.21259" lon="7.1713">
        <ele>785.1</ele>
        <time>2022-02-12T07:20:28Z</time>
      </trkpt>
      <trkpt lat="48.21263" lon="7.17109">
        <ele>786.2</ele>
        <time>2022-02-12T07:20:42Z</time>
      </trkpt>
      <trkpt lat="48.2126" lon="7.17094">
        <ele>787.1</ele>
        <time>2022-02-12T07:20:48Z</time>
      </trkpt>
      <trkpt lat="48.2126" lon="7.17079">
        <ele>787.9</ele>
        <time>2022-02-12T07:20:55Z</time>
      </trkpt>
      <trkpt lat="48.2125" lon="7.17077">
        <ele>788.7</ele>
        <time>2022-02-12T07:20:58Z</time>
      </trkpt>
      <trkpt lat="48.21245" lon="7.17066">
        <ele>789.4</ele>
        <time>2022-02-12T07:21:04Z</time>
      </trkpt>
      <trkpt lat="48.21243" lon="7.17052">
        <ele>790.1</ele>
        <time>2022-02-12T07:21:12Z</time>
      </trkpt>
      <trkpt lat="48.21238" lon="7.1704">
        <ele>790.7</ele>
        <time>2022-02-12T07:21:19Z</time>
      </trkpt>
      <trkpt lat="48.2123" lon="7.1703">
        <ele>791.4</ele>
        <time>2022-02-12T07:21:23Z</time>
      </trkpt>
      <trkpt lat="48.21229" lon="7.17012">
        <ele>792.2</ele>
        <time>2022-02-12T07:21:35Z</time>
      </trkpt>
      <trkpt lat="48.21218" lon="7.1701">
        <ele>793.1</ele>
        <time>2022-02-12T07:21:38Z</time>
      </trkpt>
      <trkpt lat="48.21209" lon="7.17006">
        <ele>793.8</ele>
        <time>2022-02-12T07:21:43Z</time>
      </trkpt>
      <trkpt lat="48.21201" lon="7.16997">
        <ele>794.5</ele>
        <time>2022-02-12T07:21:49Z</time>
      </trkpt>
      <trkpt lat="48.21206" lon="7.16983">
        <ele>795.3</ele>
        <time>2022-02-12T07:21:59Z</time>
      </trkpt>
      <trkpt lat="48.212" lon="7.1697">
        <ele>796.1</ele>
        <time>2022-02-12T07:22:08Z</time>
      </trkpt>
      <trkpt lat="48.21196" lon="7.16956">
        <ele>796.9</ele>
        <time>2022-02-12T07:22:15Z</time>
      </trkpt>
      <trkpt lat="48.2119" lon="7.16944">
        <ele>797.9</ele>
        <time>2022-02-12T07:22:28Z</time>
      </trkpt>
      <trkpt lat="48.21181" lon="7.16944">
        <ele>798.9</ele>
        <time>2022-02-12T07:22:42Z</time>
      </trkpt>
      <trkpt lat="48.21172" lon="7.16941">
        <ele>799.4</ele>
        <time>2022-02-12T07:22:47Z</time>
      </trkpt>
      <trkpt lat="48.21163" lon="7.16936">
        <ele>799.8</ele>
        <time>2022-02-12T07:22:54Z</time>
      </trkpt>
      <trkpt lat="48.21161" lon="7.16936">
        <ele>800</ele>
        <time>2022-02-12T07:22:57Z</time>
      </trkpt>
      <trkpt lat="48.21162" lon="7.16934">
        <ele>800</ele>
        <time>2022-02-12T07:22:58Z</time>
      </trkpt>
      <trkpt lat="48.21163" lon="7.16949">
        <ele>800.5</ele>
        <time>2022-02-12T07:23:10Z</time>
      </trkpt>
      <trkpt lat="48.21163" lon="7.16935">
        <ele>801.1</ele>
        <time>2022-02-12T07:23:16Z</time>
      </trkpt>
      <trkpt lat="48.21156" lon="7.16926">
        <ele>801.7</ele>
        <time>2022-02-12T07:23:25Z</time>
      </trkpt>
      <trkpt lat="48.21144" lon="7.16926">
        <ele>802.3</ele>
        <time>2022-02-12T07:23:29Z</time>
      </trkpt>
      <trkpt lat="48.21135" lon="7.16922">
        <ele>802.8</ele>
        <time>2022-02-12T07:23:35Z</time>
      </trkpt>
      <trkpt lat="48.21125" lon="7.16923">
        <ele>803.3</ele>
        <time>2022-02-12T07:23:43Z</time>
      </trkpt>
      <trkpt lat="48.21117" lon="7.16914">
        <ele>803.8</ele>
        <time>2022-02-12T07:23:51Z</time>
      </trkpt>
      <trkpt lat="48.21107" lon="7.16913">
        <ele>804.3</ele>
        <time>2022-02-12T07:23:57Z</time>
      </trkpt>
      <trkpt lat="48.21098" lon="7.16916">
        <ele>804.7</ele>
        <time>2022-02-12T07:24:05Z</time>
      </trkpt>
      <trkpt lat="48.21088" lon="7.16912">
        <ele>805.2</ele>
        <time>2022-02-12T07:24:25Z</time>
      </trkpt>
      <trkpt lat="48.21078" lon="7.16912">
        <ele>805.6</ele>
        <time>2022-02-12T07:24:32Z</time>
      </trkpt>
      <trkpt lat="48.21069" lon="7.16912">
        <ele>805.9</ele>
        <time>2022-02-12T07:24:35Z</time>
      </trkpt>
      <trkpt lat="48.21062" lon="7.16921">
        <ele>806.4</ele>
        <time>2022-02-12T07:24:41Z</time>
      </trkpt>
      <trkpt lat="48.21055" lon="7.1693">
        <ele>806.9</ele>
        <time>2022-02-12T07:24:47Z</time>
      </trkpt>
      <trkpt lat="48.21047" lon="7.16936">
        <ele>807.4</ele>
        <time>2022-02-12T07:24:52Z</time>
      </trkpt>
      <trkpt lat="48.21038" lon="7.16938">
        <ele>808</ele>
        <time>2022-02-12T07:25:01Z</time>
      </trkpt>
      <trkpt lat="48.21029" lon="7.16936">
        <ele>808.4</ele>
        <time>2022-02-12T07:25:05Z</time>
      </trkpt>
      <trkpt lat="48.21022" lon="7.16947">
        <ele>808.8</ele>
        <time>2022-02-12T07:25:14Z</time>
      </trkpt>
      <trkpt lat="48.21011" lon="7.16951">
        <ele>809.1</ele>
        <time>2022-02-12T07:25:21Z</time>
      </trkpt>
      <trkpt lat="48.21002" lon="7.16951">
        <ele>809.5</ele>
        <time>2022-02-12T07:25:28Z</time>
      </trkpt>
      <trkpt lat="48.20993" lon="7.16953">
        <ele>810</ele>
        <time>2022-02-12T07:25:35Z</time>
      </trkpt>
      <trkpt lat="48.20987" lon="7.16965">
        <ele>810.5</ele>
        <time>2022-02-12T07:25:41Z</time>
      </trkpt>
      <trkpt lat="48.20979" lon="7.16973">
        <ele>811.1</ele>
        <time>2022-02-12T07:25:50Z</time>
      </trkpt>
      <trkpt lat="48.20971" lon="7.16967">
        <ele>811.6</ele>
        <time>2022-02-12T07:25:53Z</time>
      </trkpt>
      <trkpt lat="48.20964" lon="7.16957">
        <ele>812.2</ele>
        <time>2022-02-12T07:25:57Z</time>
      </trkpt>
      <trkpt lat="48.20955" lon="7.16962">
        <ele>812.7</ele>
        <time>2022-02-12T07:26:08Z</time>
      </trkpt>
      <trkpt lat="48.20948" lon="7.16972">
        <ele>813.3</ele>
        <time>2022-02-12T07:26:12Z</time>
      </trkpt>
      <trkpt lat="48.20947" lon="7.16983">
        <ele>813.7</ele>
        <time>2022-02-12T07:26:18Z</time>
      </trkpt>
      <trkpt lat="48.20947" lon="7.16984">
        <ele>813.7</ele>
        <time>2022-02-12T07:26:19Z</time>
      </trkpt>
      <trkpt lat="48.20939" lon="7.16991">
        <ele>814.2</ele>
        <time>2022-02-12T07:26:28Z</time>
      </trkpt>
      <trkpt lat="48.20929" lon="7.16986">
        <ele>814.6</ele>
        <time>2022-02-12T07:26:39Z</time>
      </trkpt>
      <trkpt lat="48.20928" lon="7.16987">
        <ele>814.7</ele>
        <time>2022-02-12T07:26:43Z</time>
      </trkpt>
      <trkpt lat="48.20927" lon="7.16987">
        <ele>814.7</ele>
        <time>2022-02-12T07:26:44Z</time>
      </trkpt>
      <trkpt lat="48.20918" lon="7.16983">
        <ele>815.2</ele>
        <time>2022-02-12T07:26:49Z</time>
      </trkpt>
      <trkpt lat="48.20908" lon="7.16982">
        <ele>815.7</ele>
        <time>2022-02-12T07:26:56Z</time>
      </trkpt>
      <trkpt lat="48.20917" lon="7.16987">
        <ele>816.3</ele>
        <time>2022-02-12T07:27:15Z</time>
      </trkpt>
      <trkpt lat="48.20926" lon="7.16991">
        <ele>816.8</ele>
        <time>2022-02-12T07:27:25Z</time>
      </trkpt>
      <trkpt lat="48.20916" lon="7.16987">
        <ele>817.3</ele>
        <time>2022-02-12T07:27:46Z</time>
      </trkpt>
      <trkpt lat="48.20918" lon="7.16974">
        <ele>817.7</ele>
        <time>2022-02-12T07:28:03Z</time>
      </trkpt>
      <trkpt lat="48.20929" lon="7.16981">
        <ele>818.3</ele>
        <time>2022-02-12T07:28:21Z</time>
      </trkpt>
      <trkpt lat="48.2093" lon="7.16977">
        <ele>818.5</ele>
        <time>2022-02-12T07:28:29Z</time>
      </trkpt>
      <trkpt lat="48.2093" lon="7.16978">
        <ele>818.5</ele>
        <time>2022-02-12T07:28:30Z</time>
      </trkpt>
      <trkpt lat="48.20928" lon="7.16976">
        <ele>818.6</ele>
        <time>2022-02-12T07:28:35Z</time>
      </trkpt>
      <trkpt lat="48.20927" lon="7.16975">
        <ele>818.6</ele>
        <time>2022-02-12T07:28:36Z</time>
      </trkpt>
      <trkpt lat="48.20926" lon="7.16975">
        <ele>818.7</ele>
        <time>2022-02-12T07:28:38Z</time>
      </trkpt>
      <trkpt lat="48.20926" lon="7.16975">
        <ele>818.7</ele>
        <time>2022-02-12T07:28:39Z</time>
      </trkpt>
      <trkpt lat="48.20926" lon="7.16974">
        <ele>818.7</ele>
        <time>2022-02-12T07:28:43Z</time>
      </trkpt>
      <trkpt lat="48.20926" lon="7.16974">
        <ele>818.8</ele>
        <time>2022-02-12T07:28:44Z</time>
      </trkpt>
      <trkpt lat="48.20916" lon="7.16978">
        <ele>819.3</ele>
        <time>2022-02-12T07:28:57Z</time>
      </trkpt>
      <trkpt lat="48.2092" lon="7.16979">
        <ele>819.5</ele>
        <time>2022-02-12T07:29:02Z</time>
      </trkpt>
      <trkpt lat="48.2092" lon="7.16979">
        <ele>819.5</ele>
        <time>2022-02-12T07:29:03Z</time>
      </trkpt>
      <trkpt lat="48.20926" lon="7.16974">
        <ele>819.9</ele>
        <time>2022-02-12T07:29:10Z</time>
      </trkpt>
      <trkpt lat="48.20926" lon="7.16974">
        <ele>819.9</ele>
        <time>2022-02-12T07:29:11Z</time>
      </trkpt>
      <trkpt lat="48.20927" lon="7.16972">
        <ele>820</ele>
        <time>2022-02-12T07:29:14Z</time>
      </trkpt>
      <trkpt lat="48.20927" lon="7.1697">
        <ele>820.1</ele>
        <time>2022-02-12T07:29:15Z</time>
      </trkpt>
      <trkpt lat="48.20928" lon="7.16968">
        <ele>820.1</ele>
        <time>2022-02-12T07:29:20Z</time>
      </trkpt>
      <trkpt lat="48.20929" lon="7.16968">
        <ele>820.2</ele>
        <time>2022-02-12T07:29:22Z</time>
      </trkpt>
      <trkpt lat="48.20929" lon="7.16968">
        <ele>820.2</ele>
        <time>2022-02-12T07:29:25Z</time>
      </trkpt>
      <trkpt lat="48.20929" lon="7.16967">
        <ele>820.2</ele>
        <time>2022-02-12T07:29:26Z</time>
      </trkpt>
      <trkpt lat="48.20926" lon="7.16972">
        <ele>820.4</ele>
        <time>2022-02-12T07:29:31Z</time>
      </trkpt>
      <trkpt lat="48.20926" lon="7.16972">
        <ele>820.4</ele>
        <time>2022-02-12T07:29:39Z</time>
      </trkpt>
      <trkpt lat="48.20917" lon="7.16976">
        <ele>820.8</ele>
        <time>2022-02-12T07:29:52Z</time>
      </trkpt>
      <trkpt lat="48.20921" lon="7.16967">
        <ele>821.1</ele>
        <time>2022-02-12T07:30:01Z</time>
      </trkpt>
      <trkpt lat="48.20921" lon="7.16967">
        <ele>821.1</ele>
        <time>2022-02-12T07:30:03Z</time>
      </trkpt>
      <trkpt lat="48.20921" lon="7.16967">
        <ele>821.1</ele>
        <time>2022-02-12T07:30:05Z</time>
      </trkpt>
      <trkpt lat="48.20921" lon="7.16966">
        <ele>821.1</ele>
        <time>2022-02-12T07:30:06Z</time>
      </trkpt>
      <trkpt lat="48.20921" lon="7.16966">
        <ele>821.1</ele>
        <time>2022-02-12T07:30:07Z</time>
      </trkpt>
      <trkpt lat="48.20921" lon="7.16967">
        <ele>821.1</ele>
        <time>2022-02-12T07:30:11Z</time>
      </trkpt>
      <trkpt lat="48.20921" lon="7.16968">
        <ele>821.2</ele>
        <time>2022-02-12T07:30:13Z</time>
      </trkpt>
      <trkpt lat="48.20921" lon="7.16967">
        <ele>821.2</ele>
        <time>2022-02-12T07:30:22Z</time>
      </trkpt>
      <trkpt lat="48.20921" lon="7.16968">
        <ele>821.2</ele>
        <time>2022-02-12T07:30:24Z</time>
      </trkpt>
      <trkpt lat="48.2092" lon="7.16967">
        <ele>821.2</ele>
        <time>2022-02-12T07:30:25Z</time>
      </trkpt>
      <trkpt lat="48.2092" lon="7.16967">
        <ele>821.3</ele>
        <time>2022-02-12T07:30:31Z</time>
      </trkpt>
      <trkpt lat="48.2092" lon="7.16967">
        <ele>821.3</ele>
        <time>2022-02-12T07:30:32Z</time>
      </trkpt>
      <trkpt lat="48.20917" lon="7.16968">
        <ele>821.4</ele>
        <time>2022-02-12T07:30:38Z</time>
      </trkpt>
      <trkpt lat="48.20916" lon="7.16968">
        <ele>821.4</ele>
        <time>2022-02-12T07:30:40Z</time>
      </trkpt>
      <trkpt lat="48.20916" lon="7.16954">
        <ele>821.8</ele>
        <time>2022-02-12T07:31:05Z</time>
      </trkpt>
      <trkpt lat="48.20916" lon="7.1694">
        <ele>822.3</ele>
        <time>2022-02-12T07:31:14Z</time>
      </trkpt>
      <trkpt lat="48.20918" lon="7.16926">
        <ele>822.8</ele>
        <time>2022-02-12T07:31:25Z</time>
      </trkpt>
      <trkpt lat="48.20918" lon="7.16912">
        <ele>823.3</ele>
        <time>2022-02-12T07:31:34Z</time>
      </trkpt>
      <trkpt lat="48.20919" lon="7.16898">
        <ele>823.9</ele>
        <time>2022-02-12T07:31:41Z</time>
      </trkpt>
      <trkpt lat="48.20921" lon="7.16883">
        <ele>824.4</ele>
        <time>2022-02-12T07:31:48Z</time>
      </trkpt>
      <trkpt lat="48.20915" lon="7.16873">
        <ele>824.8</ele>
        <time>2022-02-12T07:31:55Z</time>
      </trkpt>
      <trkpt lat="48.20908" lon="7.16863">
        <ele>825.2</ele>
        <time>2022-02-12T07:32:03Z</time>
      </trkpt>
      <trkpt lat="48.20902" lon="7.16851">
        <ele>825.6</ele>
        <time>2022-02-12T07:32:12Z</time>
      </trkpt>
      <trkpt lat="48.20901" lon="7.16837">
        <ele>826</ele>
        <time>2022-02-12T07:32:21Z</time>
      </trkpt>
      <trkpt lat="48.20898" lon="7.16824">
        <ele>826.4</ele>
        <time>2022-02-12T07:32:32Z</time>
      </trkpt>
      <trkpt lat="48.20901" lon="7.16811">
        <ele>826.8</ele>
        <time>2022-02-12T07:32:40Z</time>
      </trkpt>
      <trkpt lat="48.20899" lon="7.16797">
        <ele>827.2</ele>
        <time>2022-02-12T07:32:49Z</time>
      </trkpt>
      <trkpt lat="48.209" lon="7.16783">
        <ele>827.6</ele>
        <time>2022-02-12T07:32:57Z</time>
      </trkpt>
      <trkpt lat="48.20904" lon="7.1677">
        <ele>828.1</ele>
        <time>2022-02-12T07:33:03Z</time>
      </trkpt>
      <trkpt lat="48.20904" lon="7.16756">
        <ele>828.5</ele>
        <time>2022-02-12T07:33:13Z</time>
      </trkpt>
      <trkpt lat="48.20904" lon="7.16742">
        <ele>828.9</ele>
        <time>2022-02-12T07:33:23Z</time>
      </trkpt>
      <trkpt lat="48.20907" lon="7.16729">
        <ele>829.2</ele>
        <time>2022-02-12T07:33:31Z</time>
      </trkpt>
      <trkpt lat="48.20903" lon="7.16715">
        <ele>829.6</ele>
        <time>2022-02-12T07:33:40Z</time>
      </trkpt>
      <trkpt lat="48.20911" lon="7.16707">
        <ele>829.8</ele>
        <time>2022-02-12T07:33:45Z</time>
      </trkpt>
      <trkpt lat="48.20915" lon="7.16695">
        <ele>830</ele>
        <time>2022-02-12T07:33:55Z</time>
      </trkpt>
      <trkpt lat="48.20906" lon="7.16688">
        <ele>830.3</ele>
        <time>2022-02-12T07:34:10Z</time>
      </trkpt>
      <trkpt lat="48.20914" lon="7.16678">
        <ele>830.6</ele>
        <time>2022-02-12T07:34:15Z</time>
      </trkpt>
      <trkpt lat="48.20923" lon="7.1667">
        <ele>830.8</ele>
        <time>2022-02-12T07:34:18Z</time>
      </trkpt>
      <trkpt lat="48.20931" lon="7.1666">
        <ele>831.1</ele>
        <time>2022-02-12T07:34:24Z</time>
      </trkpt>
      <trkpt lat="48.20936" lon="7.16648">
        <ele>831.3</ele>
        <time>2022-02-12T07:34:30Z</time>
      </trkpt>
      <trkpt lat="48.2094" lon="7.16634">
        <ele>831.4</ele>
        <time>2022-02-12T07:34:37Z</time>
      </trkpt>
      <trkpt lat="48.20948" lon="7.1662">
        <ele>831.5</ele>
        <time>2022-02-12T07:34:44Z</time>
      </trkpt>
      <trkpt lat="48.20957" lon="7.16615">
        <ele>831.5</ele>
        <time>2022-02-12T07:34:48Z</time>
      </trkpt>
      <trkpt lat="48.20952" lon="7.16602">
        <ele>831.6</ele>
        <time>2022-02-12T07:35:00Z</time>
      </trkpt>
      <trkpt lat="48.20958" lon="7.1659">
        <ele>831.8</ele>
        <time>2022-02-12T07:35:10Z</time>
      </trkpt>
      <trkpt lat="48.20965" lon="7.1658">
        <ele>832.1</ele>
        <time>2022-02-12T07:35:16Z</time>
      </trkpt>
      <trkpt lat="48.20978" lon="7.16577">
        <ele>832.3</ele>
        <time>2022-02-12T07:35:19Z</time>
      </trkpt>
      <trkpt lat="48.20984" lon="7.16566">
        <ele>832.5</ele>
        <time>2022-02-12T07:35:26Z</time>
      </trkpt>
      <trkpt lat="48.20983" lon="7.16552">
        <ele>832.7</ele>
        <time>2022-02-12T07:35:34Z</time>
      </trkpt>
      <trkpt lat="48.20974" lon="7.16544">
        <ele>832.2</ele>
        <time>2022-02-12T07:35:40Z</time>
      </trkpt>
      <trkpt lat="48.20969" lon="7.16533">
        <ele>831.9</ele>
        <time>2022-02-12T07:35:46Z</time>
      </trkpt>
      <trkpt lat="48.20966" lon="7.16519">
        <ele>831.7</ele>
        <time>2022-02-12T07:35:52Z</time>
      </trkpt>
      <trkpt lat="48.20959" lon="7.16512">
        <ele>831.7</ele>
        <time>2022-02-12T07:36:04Z</time>
      </trkpt>
      <trkpt lat="48.20959" lon="7.16512">
        <ele>831.8</ele>
        <time>2022-02-12T07:36:05Z</time>
      </trkpt>
      <trkpt lat="48.2095" lon="7.16513">
        <ele>832</ele>
        <time>2022-02-12T07:36:16Z</time>
      </trkpt>
      <trkpt lat="48.20949" lon="7.16513">
        <ele>832.1</ele>
        <time>2022-02-12T07:36:18Z</time>
      </trkpt>
      <trkpt lat="48.20949" lon="7.16513">
        <ele>832.1</ele>
        <time>2022-02-12T07:36:19Z</time>
      </trkpt>
      <trkpt lat="48.20949" lon="7.16513">
        <ele>832.1</ele>
        <time>2022-02-12T07:36:20Z</time>
      </trkpt>
      <trkpt lat="48.20948" lon="7.16512">
        <ele>832.1</ele>
        <time>2022-02-12T07:36:21Z</time>
      </trkpt>
      <trkpt lat="48.20942" lon="7.16502">
        <ele>832.6</ele>
        <time>2022-02-12T07:36:44Z</time>
      </trkpt>
      <trkpt lat="48.21" lon="7.1649">
        <ele>832.4</ele>
        <time>2022-02-12T07:38:03Z</time>
      </trkpt>
      <trkpt lat="48.21013" lon="7.16491">
        <ele>832.3</ele>
        <time>2022-02-12T07:38:06Z</time>
      </trkpt>
      <trkpt lat="48.21006" lon="7.16502">
        <ele>832.3</ele>
        <time>2022-02-12T07:38:08Z</time>
      </trkpt>
      <trkpt lat="48.20987" lon="7.16508">
        <ele>832.2</ele>
        <time>2022-02-12T07:38:10Z</time>
      </trkpt>
      <trkpt lat="48.20976" lon="7.16514">
        <ele>832.1</ele>
        <time>2022-02-12T07:38:12Z</time>
      </trkpt>
      <trkpt lat="48.20964" lon="7.16513">
        <ele>832.1</ele>
        <time>2022-02-12T07:38:17Z</time>
      </trkpt>
      <trkpt lat="48.2096" lon="7.16514">
        <ele>832.1</ele>
        <time>2022-02-12T07:38:32Z</time>
      </trkpt>
      <trkpt lat="48.20959" lon="7.16514">
        <ele>832.1</ele>
        <time>2022-02-12T07:38:33Z</time>
      </trkpt>
      <trkpt lat="48.2095" lon="7.16512">
        <ele>832.1</ele>
        <time>2022-02-12T07:38:39Z</time>
      </trkpt>
      <trkpt lat="48.20981" lon="7.16566">
        <ele>832.7</ele>
        <time>2022-02-12T07:40:09Z</time>
      </trkpt>
      <trkpt lat="48.20978" lon="7.16552">
        <ele>832.1</ele>
        <time>2022-02-12T07:40:20Z</time>
      </trkpt>
      <trkpt lat="48.20976" lon="7.16538">
        <ele>831.6</ele>
        <time>2022-02-12T07:40:24Z</time>
      </trkpt>
      <trkpt lat="48.20969" lon="7.16523">
        <ele>831</ele>
        <time>2022-02-12T07:40:27Z</time>
      </trkpt>
      <trkpt lat="48.20966" lon="7.1651">
        <ele>830.4</ele>
        <time>2022-02-12T07:40:33Z</time>
      </trkpt>
      <trkpt lat="48.20966" lon="7.16496">
        <ele>829.9</ele>
        <time>2022-02-12T07:40:43Z</time>
      </trkpt>
      <trkpt lat="48.20964" lon="7.16481">
        <ele>829.4</ele>
        <time>2022-02-12T07:40:46Z</time>
      </trkpt>
      <trkpt lat="48.2097" lon="7.16465">
        <ele>828.7</ele>
        <time>2022-02-12T07:40:49Z</time>
      </trkpt>
      <trkpt lat="48.20949" lon="7.16471">
        <ele>827.4</ele>
        <time>2022-02-12T07:42:36Z</time>
      </trkpt>
      <trkpt lat="48.20949" lon="7.16457">
        <ele>826.8</ele>
        <time>2022-02-12T07:42:40Z</time>
      </trkpt>
      <trkpt lat="48.20954" lon="7.16471">
        <ele>827.8</ele>
        <time>2022-02-12T07:42:54Z</time>
      </trkpt>
      <trkpt lat="48.20961" lon="7.16482">
        <ele>828.1</ele>
        <time>2022-02-12T07:42:56Z</time>
      </trkpt>
      <trkpt lat="48.20983" lon="7.16476">
        <ele>828.9</ele>
        <time>2022-02-12T07:43:05Z</time>
      </trkpt>
      <trkpt lat="48.20973" lon="7.16461">
        <ele>829.3</ele>
        <time>2022-02-12T07:43:12Z</time>
      </trkpt>
      <trkpt lat="48.20983" lon="7.16492">
        <ele>830</ele>
        <time>2022-02-12T07:43:16Z</time>
      </trkpt>
      <trkpt lat="48.20982" lon="7.16506">
        <ele>830.3</ele>
        <time>2022-02-12T07:43:19Z</time>
      </trkpt>
      <trkpt lat="48.20975" lon="7.16516">
        <ele>830.5</ele>
        <time>2022-02-12T07:43:26Z</time>
      </trkpt>
      <trkpt lat="48.20965" lon="7.16519">
        <ele>830.9</ele>
        <time>2022-02-12T07:43:28Z</time>
      </trkpt>
      <trkpt lat="48.20954" lon="7.16518">
        <ele>831.2</ele>
        <time>2022-02-12T07:43:33Z</time>
      </trkpt>
      <trkpt lat="48.20964" lon="7.16516">
        <ele>831.5</ele>
        <time>2022-02-12T07:44:17Z</time>
      </trkpt>
      <trkpt lat="48.2098" lon="7.16537">
        <ele>832.1</ele>
        <time>2022-02-12T07:44:28Z</time>
      </trkpt>
      <trkpt lat="48.20969" lon="7.16535">
        <ele>831.8</ele>
        <time>2022-02-12T07:44:32Z</time>
      </trkpt>
      <trkpt lat="48.20963" lon="7.16516">
        <ele>831.7</ele>
        <time>2022-02-12T07:44:35Z</time>
      </trkpt>
      <trkpt lat="48.20961" lon="7.16501">
        <ele>831.7</ele>
        <time>2022-02-12T07:44:38Z</time>
      </trkpt>
      <trkpt lat="48.20971" lon="7.16496">
        <ele>831.7</ele>
        <time>2022-02-12T07:44:48Z</time>
      </trkpt>
      <trkpt lat="48.20967" lon="7.16483">
        <ele>831.7</ele>
        <time>2022-02-12T07:44:52Z</time>
      </trkpt>
      <trkpt lat="48.2096" lon="7.16493">
        <ele>831.7</ele>
        <time>2022-02-12T07:45:04Z</time>
      </trkpt>
      <trkpt lat="48.20962" lon="7.16507">
        <ele>831.7</ele>
        <time>2022-02-12T07:45:12Z</time>
      </trkpt>
      <trkpt lat="48.20968" lon="7.16521">
        <ele>831.8</ele>
        <time>2022-02-12T07:45:19Z</time>
      </trkpt>
      <trkpt lat="48.20959" lon="7.16514">
        <ele>831.9</ele>
        <time>2022-02-12T07:45:37Z</time>
      </trkpt>
      <trkpt lat="48.20963" lon="7.16529">
        <ele>832</ele>
        <time>2022-02-12T07:45:48Z</time>
      </trkpt>
      <trkpt lat="48.20965" lon="7.16544">
        <ele>832.1</ele>
        <time>2022-02-12T07:45:54Z</time>
      </trkpt>
      <trkpt lat="48.20956" lon="7.1655">
        <ele>832.2</ele>
        <time>2022-02-12T07:46:34Z</time>
      </trkpt>
      <trkpt lat="48.20949" lon="7.16538">
        <ele>832.3</ele>
        <time>2022-02-12T07:46:36Z</time>
      </trkpt>
      <trkpt lat="48.20941" lon="7.16521">
        <ele>832.5</ele>
        <time>2022-02-12T07:46:38Z</time>
      </trkpt>
      <trkpt lat="48.20939" lon="7.16506">
        <ele>832.6</ele>
        <time>2022-02-12T07:46:40Z</time>
      </trkpt>
      <trkpt lat="48.20937" lon="7.16492">
        <ele>833.5</ele>
        <time>2022-02-12T07:46:55Z</time>
      </trkpt>
      <trkpt lat="48.20942" lon="7.16505">
        <ele>833.3</ele>
        <time>2022-02-12T07:47:07Z</time>
      </trkpt>
      <trkpt lat="48.20948" lon="7.16517">
        <ele>833</ele>
        <time>2022-02-12T07:47:18Z</time>
      </trkpt>
      <trkpt lat="48.20942" lon="7.16507">
        <ele>832.8</ele>
        <time>2022-02-12T07:47:51Z</time>
      </trkpt>
      <trkpt lat="48.2094" lon="7.16524">
        <ele>832.5</ele>
        <time>2022-02-12T07:47:59Z</time>
      </trkpt>
      <trkpt lat="48.20949" lon="7.16527">
        <ele>832.3</ele>
        <time>2022-02-12T07:48:04Z</time>
      </trkpt>
      <trkpt lat="48.20953" lon="7.16504">
        <ele>832</ele>
        <time>2022-02-12T07:48:15Z</time>
      </trkpt>
      <trkpt lat="48.20949" lon="7.16491">
        <ele>831.9</ele>
        <time>2022-02-12T07:48:19Z</time>
      </trkpt>
      <trkpt lat="48.20948" lon="7.16504">
        <ele>831.8</ele>
        <time>2022-02-12T07:48:36Z</time>
      </trkpt>
      <trkpt lat="48.20948" lon="7.16518">
        <ele>831.7</ele>
        <time>2022-02-12T07:48:48Z</time>
      </trkpt>
      <trkpt lat="48.20964" lon="7.16526">
        <ele>831.7</ele>
        <time>2022-02-12T07:50:16Z</time>
      </trkpt>
      <trkpt lat="48.20964" lon="7.16527">
        <ele>831.7</ele>
        <time>2022-02-12T07:50:17Z</time>
      </trkpt>
      <trkpt lat="48.20961" lon="7.16529">
        <ele>831.7</ele>
        <time>2022-02-12T07:50:20Z</time>
      </trkpt>
      <trkpt lat="48.20966" lon="7.16517">
        <ele>831.8</ele>
        <time>2022-02-12T07:50:28Z</time>
      </trkpt>
      <trkpt lat="48.20978" lon="7.16531">
        <ele>832</ele>
        <time>2022-02-12T07:50:39Z</time>
      </trkpt>
      <trkpt lat="48.20981" lon="7.16514">
        <ele>831.7</ele>
        <time>2022-02-12T07:50:50Z</time>
      </trkpt>
      <trkpt lat="48.20984" lon="7.16494">
        <ele>831.7</ele>
        <time>2022-02-12T07:50:52Z</time>
      </trkpt>
      <trkpt lat="48.20985" lon="7.16477">
        <ele>831.7</ele>
        <time>2022-02-12T07:50:56Z</time>
      </trkpt>
      <trkpt lat="48.20977" lon="7.16468">
        <ele>831.7</ele>
        <time>2022-02-12T07:51:01Z</time>
      </trkpt>
      <trkpt lat="48.20967" lon="7.16462">
        <ele>831.7</ele>
        <time>2022-02-12T07:51:03Z</time>
      </trkpt>
      <trkpt lat="48.20958" lon="7.16459">
        <ele>831.7</ele>
        <time>2022-02-12T07:51:04Z</time>
      </trkpt>
      <trkpt lat="48.20952" lon="7.16464">
        <ele>831.7</ele>
        <time>2022-02-12T07:51:21Z</time>
      </trkpt>
      <trkpt lat="48.20953" lon="7.16467">
        <ele>831.7</ele>
        <time>2022-02-12T07:51:22Z</time>
      </trkpt>
      <trkpt lat="48.2096" lon="7.16482">
        <ele>831.7</ele>
        <time>2022-02-12T07:51:25Z</time>
      </trkpt>
      <trkpt lat="48.2096" lon="7.16467">
        <ele>831.7</ele>
        <time>2022-02-12T07:51:38Z</time>
      </trkpt>
      <trkpt lat="48.20974" lon="7.16472">
        <ele>831.8</ele>
        <time>2022-02-12T07:51:51Z</time>
      </trkpt>
      <trkpt lat="48.20985" lon="7.16473">
        <ele>831.9</ele>
        <time>2022-02-12T07:52:14Z</time>
      </trkpt>
      <trkpt lat="48.20977" lon="7.16464">
        <ele>831.9</ele>
        <time>2022-02-12T07:52:20Z</time>
      </trkpt>
      <trkpt lat="48.20967" lon="7.16464">
        <ele>831.9</ele>
        <time>2022-02-12T07:52:24Z</time>
      </trkpt>
      <trkpt lat="48.20961" lon="7.16474">
        <ele>832</ele>
        <time>2022-02-12T07:52:29Z</time>
      </trkpt>
      <trkpt lat="48.2095" lon="7.16465">
        <ele>832.1</ele>
        <time>2022-02-12T07:52:32Z</time>
      </trkpt>
      <trkpt lat="48.20964" lon="7.16509">
        <ele>832.3</ele>
        <time>2022-02-12T07:52:51Z</time>
      </trkpt>
      <trkpt lat="48.20969" lon="7.16495">
        <ele>832.3</ele>
        <time>2022-02-12T07:52:57Z</time>
      </trkpt>
      <trkpt lat="48.20979" lon="7.16495">
        <ele>832.4</ele>
        <time>2022-02-12T07:53:00Z</time>
      </trkpt>
      <trkpt lat="48.20989" lon="7.16494">
        <ele>832.5</ele>
        <time>2022-02-12T07:53:05Z</time>
      </trkpt>
      <trkpt lat="48.2098" lon="7.16498">
        <ele>832.6</ele>
        <time>2022-02-12T07:53:10Z</time>
      </trkpt>
      <trkpt lat="48.2097" lon="7.16498">
        <ele>832.6</ele>
        <time>2022-02-12T07:53:15Z</time>
      </trkpt>
      <trkpt lat="48.2096" lon="7.16496">
        <ele>832.7</ele>
        <time>2022-02-12T07:53:19Z</time>
      </trkpt>
      <trkpt lat="48.20949" lon="7.16491">
        <ele>832.8</ele>
        <time>2022-02-12T07:53:22Z</time>
      </trkpt>
      <trkpt lat="48.2087" lon="7.16477">
        <ele>838.9</ele>
        <time>2022-02-12T07:53:51Z</time>
      </trkpt>
      <trkpt lat="48.21002" lon="7.16516">
        <ele>832.7</ele>
        <time>2022-02-12T07:54:31Z</time>
      </trkpt>
      <trkpt lat="48.20981" lon="7.16495">
        <ele>831.7</ele>
        <time>2022-02-12T07:54:38Z</time>
      </trkpt>
      <trkpt lat="48.20966" lon="7.16497">
        <ele>831.9</ele>
        <time>2022-02-12T07:54:41Z</time>
      </trkpt>
      <trkpt lat="48.20954" lon="7.16499">
        <ele>832.1</ele>
        <time>2022-02-12T07:54:43Z</time>
      </trkpt>
      <trkpt lat="48.20968" lon="7.16502">
        <ele>832.3</ele>
        <time>2022-02-12T07:54:52Z</time>
      </trkpt>
      <trkpt lat="48.20952" lon="7.1651">
        <ele>832.6</ele>
        <time>2022-02-12T07:54:55Z</time>
      </trkpt>
      <trkpt lat="48.20936" lon="7.16514">
        <ele>832.9</ele>
        <time>2022-02-12T07:54:57Z</time>
      </trkpt>
      <trkpt lat="48.20947" lon="7.16511">
        <ele>833.1</ele>
        <time>2022-02-12T07:55:04Z</time>
      </trkpt>
      <trkpt lat="48.20916" lon="7.16525">
        <ele>833.8</ele>
        <time>2022-02-12T07:55:28Z</time>
      </trkpt>
      <trkpt lat="48.20897" lon="7.16526">
        <ele>835.5</ele>
        <time>2022-02-12T07:55:31Z</time>
      </trkpt>
      <trkpt lat="48.20908" lon="7.16519">
        <ele>835.3</ele>
        <time>2022-02-12T07:55:39Z</time>
      </trkpt>
      <trkpt lat="48.20917" lon="7.16515">
        <ele>835.1</ele>
        <time>2022-02-12T07:55:43Z</time>
      </trkpt>
      <trkpt lat="48.20927" lon="7.16516">
        <ele>834.8</ele>
        <time>2022-02-12T07:55:47Z</time>
      </trkpt>
      <trkpt lat="48.20936" lon="7.1651">
        <ele>834.6</ele>
        <time>2022-02-12T07:55:49Z</time>
      </trkpt>
      <trkpt lat="48.20942" lon="7.16499">
        <ele>834.4</ele>
        <time>2022-02-12T07:56:00Z</time>
      </trkpt>
      <trkpt lat="48.2095" lon="7.16509">
        <ele>834.1</ele>
        <time>2022-02-12T07:56:13Z</time>
      </trkpt>
      <trkpt lat="48.20958" lon="7.16516">
        <ele>833.9</ele>
        <time>2022-02-12T07:56:19Z</time>
      </trkpt>
      <trkpt lat="48.20949" lon="7.16521">
        <ele>833.6</ele>
        <time>2022-02-12T07:56:24Z</time>
      </trkpt>
      <trkpt lat="48.20938" lon="7.16514">
        <ele>833.3</ele>
        <time>2022-02-12T07:57:04Z</time>
      </trkpt>
      <trkpt lat="48.20951" lon="7.16522">
        <ele>833</ele>
        <time>2022-02-12T07:59:34Z</time>
      </trkpt>
      <trkpt lat="48.20953" lon="7.16523">
        <ele>832.9</ele>
        <time>2022-02-12T07:59:36Z</time>
      </trkpt>
      <trkpt lat="48.20962" lon="7.16524">
        <ele>832.7</ele>
        <time>2022-02-12T07:59:38Z</time>
      </trkpt>
      <trkpt lat="48.20952" lon="7.1652">
        <ele>832.5</ele>
        <time>2022-02-12T07:59:50Z</time>
      </trkpt>
      <trkpt lat="48.20953" lon="7.16522">
        <ele>832.4</ele>
        <time>2022-02-12T08:00:00Z</time>
      </trkpt>
      <trkpt lat="48.20952" lon="7.16523">
        <ele>832.4</ele>
        <time>2022-02-12T08:00:02Z</time>
      </trkpt>
      <trkpt lat="48.20955" lon="7.16522">
        <ele>832.3</ele>
        <time>2022-02-12T08:00:30Z</time>
      </trkpt>
      <trkpt lat="48.20956" lon="7.16522">
        <ele>832.3</ele>
        <time>2022-02-12T08:00:31Z</time>
      </trkpt>
      <trkpt lat="48.20955" lon="7.16521">
        <ele>832.3</ele>
        <time>2022-02-12T08:00:36Z</time>
      </trkpt>
      <trkpt lat="48.20956" lon="7.16521">
        <ele>832.3</ele>
        <time>2022-02-12T08:00:37Z</time>
      </trkpt>
      <trkpt lat="48.20952" lon="7.16507">
        <ele>832.1</ele>
        <time>2022-02-12T08:00:47Z</time>
      </trkpt>
      <trkpt lat="48.20954" lon="7.16494">
        <ele>832</ele>
        <time>2022-02-12T08:00:56Z</time>
      </trkpt>
      <trkpt lat="48.20963" lon="7.16499">
        <ele>831.8</ele>
        <time>2022-02-12T08:01:07Z</time>
      </trkpt>
      <trkpt lat="48.20968" lon="7.16511">
        <ele>831.7</ele>
        <time>2022-02-12T08:01:17Z</time>
      </trkpt>
      <trkpt lat="48.20971" lon="7.16524">
        <ele>832.7</ele>
        <time>2022-02-12T08:01:28Z</time>
      </trkpt>
      <trkpt lat="48.20969" lon="7.16538">
        <ele>833</ele>
        <time>2022-02-12T08:01:34Z</time>
      </trkpt>
      <trkpt lat="48.20964" lon="7.1655">
        <ele>833.6</ele>
        <time>2022-02-12T08:01:40Z</time>
      </trkpt>
      <trkpt lat="48.20963" lon="7.16564">
        <ele>834.6</ele>
        <time>2022-02-12T08:01:52Z</time>
      </trkpt>
      <trkpt lat="48.20961" lon="7.16577">
        <ele>835.4</ele>
        <time>2022-02-12T08:02:05Z</time>
      </trkpt>
      <trkpt lat="48.20955" lon="7.16587">
        <ele>836.1</ele>
        <time>2022-02-12T08:02:18Z</time>
      </trkpt>
      <trkpt lat="48.20947" lon="7.16597">
        <ele>836.6</ele>
        <time>2022-02-12T08:02:27Z</time>
      </trkpt>
      <trkpt lat="48.20938" lon="7.16601">
        <ele>837.2</ele>
        <time>2022-02-12T08:02:31Z</time>
      </trkpt>
      <trkpt lat="48.20931" lon="7.16612">
        <ele>838.1</ele>
        <time>2022-02-12T08:02:44Z</time>
      </trkpt>
      <trkpt lat="48.20923" lon="7.16618">
        <ele>839.2</ele>
        <time>2022-02-12T08:02:52Z</time>
      </trkpt>
      <trkpt lat="48.20915" lon="7.16624">
        <ele>840.3</ele>
        <time>2022-02-12T08:03:03Z</time>
      </trkpt>
      <trkpt lat="48.20907" lon="7.16632">
        <ele>841.3</ele>
        <time>2022-02-12T08:03:10Z</time>
      </trkpt>
      <trkpt lat="48.20901" lon="7.16642">
        <ele>842.1</ele>
        <time>2022-02-12T08:03:20Z</time>
      </trkpt>
      <trkpt lat="48.20892" lon="7.1665">
        <ele>843</ele>
        <time>2022-02-12T08:03:27Z</time>
      </trkpt>
      <trkpt lat="48.20884" lon="7.16657">
        <ele>843.8</ele>
        <time>2022-02-12T08:03:35Z</time>
      </trkpt>
      <trkpt lat="48.20878" lon="7.16668">
        <ele>844.6</ele>
        <time>2022-02-12T08:03:41Z</time>
      </trkpt>
      <trkpt lat="48.20874" lon="7.1668">
        <ele>845.3</ele>
        <time>2022-02-12T08:03:47Z</time>
      </trkpt>
      <trkpt lat="48.2087" lon="7.16693">
        <ele>846.1</ele>
        <time>2022-02-12T08:03:58Z</time>
      </trkpt>
      <trkpt lat="48.20865" lon="7.16704">
        <ele>847</ele>
        <time>2022-02-12T08:04:06Z</time>
      </trkpt>
      <trkpt lat="48.20862" lon="7.16719">
        <ele>848</ele>
        <time>2022-02-12T08:04:13Z</time>
      </trkpt>
      <trkpt lat="48.2086" lon="7.16734">
        <ele>849.1</ele>
        <time>2022-02-12T08:04:25Z</time>
      </trkpt>
      <trkpt lat="48.20857" lon="7.16748">
        <ele>850.1</ele>
        <time>2022-02-12T08:04:35Z</time>
      </trkpt>
      <trkpt lat="48.20851" lon="7.16761">
        <ele>851.1</ele>
        <time>2022-02-12T08:04:45Z</time>
      </trkpt>
      <trkpt lat="48.2085" lon="7.16774">
        <ele>851.9</ele>
        <time>2022-02-12T08:04:53Z</time>
      </trkpt>
      <trkpt lat="48.2085" lon="7.16789">
        <ele>852.7</ele>
        <time>2022-02-12T08:05:03Z</time>
      </trkpt>
      <trkpt lat="48.20847" lon="7.16802">
        <ele>853.6</ele>
        <time>2022-02-12T08:05:11Z</time>
      </trkpt>
      <trkpt lat="48.20848" lon="7.16816">
        <ele>854.7</ele>
        <time>2022-02-12T08:05:18Z</time>
      </trkpt>
      <trkpt lat="48.20849" lon="7.16831">
        <ele>855.8</ele>
        <time>2022-02-12T08:05:26Z</time>
      </trkpt>
      <trkpt lat="48.20851" lon="7.16847">
        <ele>856.5</ele>
        <time>2022-02-12T08:05:34Z</time>
      </trkpt>
      <trkpt lat="48.20847" lon="7.1686">
        <ele>857.2</ele>
        <time>2022-02-12T08:05:43Z</time>
      </trkpt>
      <trkpt lat="48.20848" lon="7.16874">
        <ele>858</ele>
        <time>2022-02-12T08:05:57Z</time>
      </trkpt>
      <trkpt lat="48.20847" lon="7.16888">
        <ele>858.9</ele>
        <time>2022-02-12T08:06:05Z</time>
      </trkpt>
      <trkpt lat="48.20854" lon="7.16897">
        <ele>859.7</ele>
        <time>2022-02-12T08:06:10Z</time>
      </trkpt>
      <trkpt lat="48.20852" lon="7.16911">
        <ele>860.5</ele>
        <time>2022-02-12T08:06:29Z</time>
      </trkpt>
      <trkpt lat="48.20847" lon="7.16922">
        <ele>861.3</ele>
        <time>2022-02-12T08:06:38Z</time>
      </trkpt>
      <trkpt lat="48.20854" lon="7.16933">
        <ele>862.2</ele>
        <time>2022-02-12T08:06:46Z</time>
      </trkpt>
      <trkpt lat="48.20853" lon="7.16947">
        <ele>863.1</ele>
        <time>2022-02-12T08:06:59Z</time>
      </trkpt>
      <trkpt lat="48.20851" lon="7.16951">
        <ele>863.4</ele>
        <time>2022-02-12T08:07:04Z</time>
      </trkpt>
      <trkpt lat="48.2085" lon="7.16953">
        <ele>863.5</ele>
        <time>2022-02-12T08:07:05Z</time>
      </trkpt>
      <trkpt lat="48.20849" lon="7.16967">
        <ele>864.4</ele>
        <time>2022-02-12T08:07:13Z</time>
      </trkpt>
      <trkpt lat="48.20848" lon="7.16972">
        <ele>864.7</ele>
        <time>2022-02-12T08:07:18Z</time>
      </trkpt>
      <trkpt lat="48.20848" lon="7.16973">
        <ele>864.8</ele>
        <time>2022-02-12T08:07:19Z</time>
      </trkpt>
      <trkpt lat="48.20841" lon="7.16983">
        <ele>865.6</ele>
        <time>2022-02-12T08:07:33Z</time>
      </trkpt>
      <trkpt lat="48.20833" lon="7.16992">
        <ele>866.6</ele>
        <time>2022-02-12T08:07:37Z</time>
      </trkpt>
      <trkpt lat="48.20827" lon="7.17004">
        <ele>867.5</ele>
        <time>2022-02-12T08:07:45Z</time>
      </trkpt>
      <trkpt lat="48.20818" lon="7.17014">
        <ele>868.4</ele>
        <time>2022-02-12T08:07:51Z</time>
      </trkpt>
      <trkpt lat="48.20812" lon="7.17026">
        <ele>869.4</ele>
        <time>2022-02-12T08:07:57Z</time>
      </trkpt>
      <trkpt lat="48.20804" lon="7.17033">
        <ele>870.2</ele>
        <time>2022-02-12T08:08:02Z</time>
      </trkpt>
      <trkpt lat="48.20811" lon="7.17046">
        <ele>871.2</ele>
        <time>2022-02-12T08:08:07Z</time>
      </trkpt>
      <trkpt lat="48.20807" lon="7.17059">
        <ele>872.1</ele>
        <time>2022-02-12T08:08:15Z</time>
      </trkpt>
      <trkpt lat="48.20806" lon="7.17074">
        <ele>873</ele>
        <time>2022-02-12T08:08:24Z</time>
      </trkpt>
      <trkpt lat="48.2081" lon="7.17088">
        <ele>873.9</ele>
        <time>2022-02-12T08:08:32Z</time>
      </trkpt>
      <trkpt lat="48.20819" lon="7.17094">
        <ele>874.7</ele>
        <time>2022-02-12T08:08:41Z</time>
      </trkpt>
      <trkpt lat="48.20814" lon="7.17107">
        <ele>875.6</ele>
        <time>2022-02-12T08:08:55Z</time>
      </trkpt>
      <trkpt lat="48.20822" lon="7.17115">
        <ele>876.5</ele>
        <time>2022-02-12T08:08:59Z</time>
      </trkpt>
      <trkpt lat="48.20831" lon="7.17119">
        <ele>877.4</ele>
        <time>2022-02-12T08:09:01Z</time>
      </trkpt>
      <trkpt lat="48.20837" lon="7.1713">
        <ele>878.2</ele>
        <time>2022-02-12T08:09:07Z</time>
      </trkpt>
      <trkpt lat="48.20845" lon="7.17138">
        <ele>879.1</ele>
        <time>2022-02-12T08:09:20Z</time>
      </trkpt>
      <trkpt lat="48.20855" lon="7.17141">
        <ele>880</ele>
        <time>2022-02-12T08:09:26Z</time>
      </trkpt>
      <trkpt lat="48.20865" lon="7.17146">
        <ele>880.9</ele>
        <time>2022-02-12T08:09:33Z</time>
      </trkpt>
      <trkpt lat="48.20874" lon="7.17149">
        <ele>881.8</ele>
        <time>2022-02-12T08:09:40Z</time>
      </trkpt>
      <trkpt lat="48.20884" lon="7.17153">
        <ele>882.7</ele>
        <time>2022-02-12T08:09:50Z</time>
      </trkpt>
      <trkpt lat="48.2089" lon="7.17166">
        <ele>883.6</ele>
        <time>2022-02-12T08:09:57Z</time>
      </trkpt>
      <trkpt lat="48.209" lon="7.17169">
        <ele>884.5</ele>
        <time>2022-02-12T08:10:05Z</time>
      </trkpt>
      <trkpt lat="48.2091" lon="7.17169">
        <ele>885.4</ele>
        <time>2022-02-12T08:10:13Z</time>
      </trkpt>
      <trkpt lat="48.20919" lon="7.17172">
        <ele>886.3</ele>
        <time>2022-02-12T08:10:19Z</time>
      </trkpt>
      <trkpt lat="48.20925" lon="7.17183">
        <ele>887.2</ele>
        <time>2022-02-12T08:10:23Z</time>
      </trkpt>
      <trkpt lat="48.20932" lon="7.17186">
        <ele>887.8</ele>
        <time>2022-02-12T08:10:32Z</time>
      </trkpt>
      <trkpt lat="48.20933" lon="7.17187">
        <ele>887.9</ele>
        <time>2022-02-12T08:10:33Z</time>
      </trkpt>
      <trkpt lat="48.20934" lon="7.17189">
        <ele>888.1</ele>
        <time>2022-02-12T08:10:37Z</time>
      </trkpt>
      <trkpt lat="48.20933" lon="7.17189">
        <ele>888.2</ele>
        <time>2022-02-12T08:10:38Z</time>
      </trkpt>
      <trkpt lat="48.20943" lon="7.17189">
        <ele>889.1</ele>
        <time>2022-02-12T08:10:52Z</time>
      </trkpt>
      <trkpt lat="48.20954" lon="7.1719">
        <ele>890</ele>
        <time>2022-02-12T08:11:03Z</time>
      </trkpt>
      <trkpt lat="48.20964" lon="7.17193">
        <ele>891</ele>
        <time>2022-02-12T08:11:08Z</time>
      </trkpt>
      <trkpt lat="48.20973" lon="7.17199">
        <ele>891.8</ele>
        <time>2022-02-12T08:11:24Z</time>
      </trkpt>
      <trkpt lat="48.2098" lon="7.17208">
        <ele>892.7</ele>
        <time>2022-02-12T08:11:32Z</time>
      </trkpt>
      <trkpt lat="48.20988" lon="7.17217">
        <ele>893.6</ele>
        <time>2022-02-12T08:11:41Z</time>
      </trkpt>
      <trkpt lat="48.20997" lon="7.17221">
        <ele>894.5</ele>
        <time>2022-02-12T08:11:49Z</time>
      </trkpt>
      <trkpt lat="48.21005" lon="7.17229">
        <ele>895.3</ele>
        <time>2022-02-12T08:11:57Z</time>
      </trkpt>
      <trkpt lat="48.21013" lon="7.17238">
        <ele>896.2</ele>
        <time>2022-02-12T08:12:04Z</time>
      </trkpt>
      <trkpt lat="48.2102" lon="7.17247">
        <ele>897.1</ele>
        <time>2022-02-12T08:12:17Z</time>
      </trkpt>
      <trkpt lat="48.2103" lon="7.17245">
        <ele>898</ele>
        <time>2022-02-12T08:12:22Z</time>
      </trkpt>
      <trkpt lat="48.21039" lon="7.17253">
        <ele>898.9</ele>
        <time>2022-02-12T08:12:29Z</time>
      </trkpt>
      <trkpt lat="48.2104" lon="7.17267">
        <ele>899.7</ele>
        <time>2022-02-12T08:12:42Z</time>
      </trkpt>
      <trkpt lat="48.21046" lon="7.1728">
        <ele>900.6</ele>
        <time>2022-02-12T08:12:53Z</time>
      </trkpt>
      <trkpt lat="48.21049" lon="7.17292">
        <ele>901.5</ele>
        <time>2022-02-12T08:13:04Z</time>
      </trkpt>
      <trkpt lat="48.21055" lon="7.17305">
        <ele>902.4</ele>
        <time>2022-02-12T08:13:13Z</time>
      </trkpt>
      <trkpt lat="48.21064" lon="7.17312">
        <ele>903.3</ele>
        <time>2022-02-12T08:13:19Z</time>
      </trkpt>
      <trkpt lat="48.21072" lon="7.1732">
        <ele>904.2</ele>
        <time>2022-02-12T08:13:26Z</time>
      </trkpt>
      <trkpt lat="48.21079" lon="7.1733">
        <ele>905.1</ele>
        <time>2022-02-12T08:13:36Z</time>
      </trkpt>
      <trkpt lat="48.21083" lon="7.17342">
        <ele>905.9</ele>
        <time>2022-02-12T08:13:48Z</time>
      </trkpt>
      <trkpt lat="48.21079" lon="7.17356">
        <ele>906.8</ele>
        <time>2022-02-12T08:13:56Z</time>
      </trkpt>
      <trkpt lat="48.2108" lon="7.1737">
        <ele>907.7</ele>
        <time>2022-02-12T08:14:06Z</time>
      </trkpt>
      <trkpt lat="48.21084" lon="7.17384">
        <ele>908.5</ele>
        <time>2022-02-12T08:14:14Z</time>
      </trkpt>
      <trkpt lat="48.21091" lon="7.17392">
        <ele>909.4</ele>
        <time>2022-02-12T08:14:21Z</time>
      </trkpt>
      <trkpt lat="48.21099" lon="7.17402">
        <ele>910.2</ele>
        <time>2022-02-12T08:14:29Z</time>
      </trkpt>
      <trkpt lat="48.21099" lon="7.17416">
        <ele>911.1</ele>
        <time>2022-02-12T08:14:41Z</time>
      </trkpt>
      <trkpt lat="48.21103" lon="7.17429">
        <ele>911.9</ele>
        <time>2022-02-12T08:14:48Z</time>
      </trkpt>
      <trkpt lat="48.2111" lon="7.17439">
        <ele>912.8</ele>
        <time>2022-02-12T08:14:55Z</time>
      </trkpt>
      <trkpt lat="48.21114" lon="7.17452">
        <ele>913.7</ele>
        <time>2022-02-12T08:15:07Z</time>
      </trkpt>
      <trkpt lat="48.21118" lon="7.17464">
        <ele>914.5</ele>
        <time>2022-02-12T08:15:15Z</time>
      </trkpt>
      <trkpt lat="48.21117" lon="7.17479">
        <ele>915.4</ele>
        <time>2022-02-12T08:15:23Z</time>
      </trkpt>
      <trkpt lat="48.21119" lon="7.17492">
        <ele>916.2</ele>
        <time>2022-02-12T08:15:32Z</time>
      </trkpt>
      <trkpt lat="48.21123" lon="7.17504">
        <ele>917.1</ele>
        <time>2022-02-12T08:15:42Z</time>
      </trkpt>
      <trkpt lat="48.21131" lon="7.17512">
        <ele>917.9</ele>
        <time>2022-02-12T08:15:47Z</time>
      </trkpt>
      <trkpt lat="48.21136" lon="7.17526">
        <ele>918.9</ele>
        <time>2022-02-12T08:16:01Z</time>
      </trkpt>
      <trkpt lat="48.21134" lon="7.1754">
        <ele>919.7</ele>
        <time>2022-02-12T08:16:08Z</time>
      </trkpt>
      <trkpt lat="48.21127" lon="7.1755">
        <ele>920.6</ele>
        <time>2022-02-12T08:16:12Z</time>
      </trkpt>
      <trkpt lat="48.21127" lon="7.17564">
        <ele>921.4</ele>
        <time>2022-02-12T08:16:19Z</time>
      </trkpt>
      <trkpt lat="48.21118" lon="7.17566">
        <ele>922.3</ele>
        <time>2022-02-12T08:16:21Z</time>
      </trkpt>
      <trkpt lat="48.21126" lon="7.17576">
        <ele>923.1</ele>
        <time>2022-02-12T08:16:29Z</time>
      </trkpt>
      <trkpt lat="48.21135" lon="7.17583">
        <ele>924.1</ele>
        <time>2022-02-12T08:16:35Z</time>
      </trkpt>
      <trkpt lat="48.21142" lon="7.17592">
        <ele>924.9</ele>
        <time>2022-02-12T08:16:40Z</time>
      </trkpt>
      <trkpt lat="48.21145" lon="7.17606">
        <ele>925.8</ele>
        <time>2022-02-12T08:16:46Z</time>
      </trkpt>
      <trkpt lat="48.21154" lon="7.17614">
        <ele>926.8</ele>
        <time>2022-02-12T08:16:53Z</time>
      </trkpt>
      <trkpt lat="48.21159" lon="7.17627">
        <ele>927.7</ele>
        <time>2022-02-12T08:16:58Z</time>
      </trkpt>
      <trkpt lat="48.21166" lon="7.17637">
        <ele>928.5</ele>
        <time>2022-02-12T08:17:04Z</time>
      </trkpt>
      <trkpt lat="48.21172" lon="7.17651">
        <ele>929.5</ele>
        <time>2022-02-12T08:17:14Z</time>
      </trkpt>
      <trkpt lat="48.21179" lon="7.1766">
        <ele>930.4</ele>
        <time>2022-02-12T08:17:26Z</time>
      </trkpt>
      <trkpt lat="48.21188" lon="7.17666">
        <ele>931.2</ele>
        <time>2022-02-12T08:17:36Z</time>
      </trkpt>
      <trkpt lat="48.21198" lon="7.17662">
        <ele>932.2</ele>
        <time>2022-02-12T08:17:42Z</time>
      </trkpt>
      <trkpt lat="48.21209" lon="7.17663">
        <ele>933.2</ele>
        <time>2022-02-12T08:17:49Z</time>
      </trkpt>
      <trkpt lat="48.21215" lon="7.17677">
        <ele>934.2</ele>
        <time>2022-02-12T08:18:01Z</time>
      </trkpt>
      <trkpt lat="48.21221" lon="7.17689">
        <ele>935.1</ele>
        <time>2022-02-12T08:18:06Z</time>
      </trkpt>
      <trkpt lat="48.21222" lon="7.17703">
        <ele>935.9</ele>
        <time>2022-02-12T08:18:13Z</time>
      </trkpt>
      <trkpt lat="48.21229" lon="7.17714">
        <ele>936.8</ele>
        <time>2022-02-12T08:18:22Z</time>
      </trkpt>
      <trkpt lat="48.21236" lon="7.17723">
        <ele>937.7</ele>
        <time>2022-02-12T08:18:29Z</time>
      </trkpt>
      <trkpt lat="48.2124" lon="7.17736">
        <ele>938.5</ele>
        <time>2022-02-12T08:18:36Z</time>
      </trkpt>
      <trkpt lat="48.21251" lon="7.17736">
        <ele>939.5</ele>
        <time>2022-02-12T08:18:42Z</time>
      </trkpt>
      <trkpt lat="48.21257" lon="7.17747">
        <ele>940.4</ele>
        <time>2022-02-12T08:18:50Z</time>
      </trkpt>
      <trkpt lat="48.21266" lon="7.1775">
        <ele>941.2</ele>
        <time>2022-02-12T08:18:57Z</time>
      </trkpt>
      <trkpt lat="48.21276" lon="7.17756">
        <ele>942.2</ele>
        <time>2022-02-12T08:19:06Z</time>
      </trkpt>
      <trkpt lat="48.2128" lon="7.17768">
        <ele>943</ele>
        <time>2022-02-12T08:19:15Z</time>
      </trkpt>
      <trkpt lat="48.21288" lon="7.17775">
        <ele>943.9</ele>
        <time>2022-02-12T08:19:24Z</time>
      </trkpt>
      <trkpt lat="48.21285" lon="7.17794">
        <ele>945</ele>
        <time>2022-02-12T08:19:31Z</time>
      </trkpt>
      <trkpt lat="48.21281" lon="7.17803">
        <ele>945.7</ele>
        <time>2022-02-12T08:19:41Z</time>
      </trkpt>
      <trkpt lat="48.2128" lon="7.17802">
        <ele>945.8</ele>
        <time>2022-02-12T08:19:42Z</time>
      </trkpt>
      <trkpt lat="48.21286" lon="7.1779">
        <ele>946.6</ele>
        <time>2022-02-12T08:20:02Z</time>
      </trkpt>
      <trkpt lat="48.21292" lon="7.17803">
        <ele>948.1</ele>
        <time>2022-02-12T08:20:17Z</time>
      </trkpt>
      <trkpt lat="48.21285" lon="7.17795">
        <ele>948.4</ele>
        <time>2022-02-12T08:20:50Z</time>
      </trkpt>
      <trkpt lat="48.21276" lon="7.17794">
        <ele>949</ele>
        <time>2022-02-12T08:21:11Z</time>
      </trkpt>
      <trkpt lat="48.21275" lon="7.17791">
        <ele>949.1</ele>
        <time>2022-02-12T08:21:34Z</time>
      </trkpt>
      <trkpt lat="48.21275" lon="7.17792">
        <ele>949.2</ele>
        <time>2022-02-12T08:21:35Z</time>
      </trkpt>
      <trkpt lat="48.21264" lon="7.17789">
        <ele>950.1</ele>
        <time>2022-02-12T08:21:43Z</time>
      </trkpt>
      <trkpt lat="48.21258" lon="7.17778">
        <ele>950.7</ele>
        <time>2022-02-12T08:21:53Z</time>
      </trkpt>
      <trkpt lat="48.21254" lon="7.17766">
        <ele>951.1</ele>
        <time>2022-02-12T08:22:11Z</time>
      </trkpt>
      <trkpt lat="48.21254" lon="7.17765">
        <ele>951.1</ele>
        <time>2022-02-12T08:22:12Z</time>
      </trkpt>
      <trkpt lat="48.21245" lon="7.17756">
        <ele>951.5</ele>
        <time>2022-02-12T08:22:23Z</time>
      </trkpt>
      <trkpt lat="48.21236" lon="7.17753">
        <ele>951.8</ele>
        <time>2022-02-12T08:22:30Z</time>
      </trkpt>
      <trkpt lat="48.21226" lon="7.1775">
        <ele>952.1</ele>
        <time>2022-02-12T08:22:37Z</time>
      </trkpt>
      <trkpt lat="48.21216" lon="7.17747">
        <ele>952.5</ele>
        <time>2022-02-12T08:22:49Z</time>
      </trkpt>
      <trkpt lat="48.21208" lon="7.17741">
        <ele>953</ele>
        <time>2022-02-12T08:22:55Z</time>
      </trkpt>
      <trkpt lat="48.212" lon="7.17732">
        <ele>953.6</ele>
        <time>2022-02-12T08:23:01Z</time>
      </trkpt>
      <trkpt lat="48.21195" lon="7.17718">
        <ele>954.1</ele>
        <time>2022-02-12T08:23:04Z</time>
      </trkpt>
      <trkpt lat="48.21186" lon="7.17708">
        <ele>954.5</ele>
        <time>2022-02-12T08:23:10Z</time>
      </trkpt>
      <trkpt lat="48.21181" lon="7.17695">
        <ele>955</ele>
        <time>2022-02-12T08:23:15Z</time>
      </trkpt>
      <trkpt lat="48.21172" lon="7.17701">
        <ele>955.3</ele>
        <time>2022-02-12T08:23:33Z</time>
      </trkpt>
      <trkpt lat="48.21164" lon="7.17697">
        <ele>955.7</ele>
        <time>2022-02-12T08:23:48Z</time>
      </trkpt>
      <trkpt lat="48.21155" lon="7.17691">
        <ele>956.2</ele>
        <time>2022-02-12T08:23:56Z</time>
      </trkpt>
      <trkpt lat="48.21149" lon="7.1768">
        <ele>956.7</ele>
        <time>2022-02-12T08:24:06Z</time>
      </trkpt>
      <trkpt lat="48.21142" lon="7.17669">
        <ele>957.3</ele>
        <time>2022-02-12T08:24:11Z</time>
      </trkpt>
      <trkpt lat="48.21138" lon="7.17664">
        <ele>957.6</ele>
        <time>2022-02-12T08:24:17Z</time>
      </trkpt>
      <trkpt lat="48.21138" lon="7.17664">
        <ele>957.6</ele>
        <time>2022-02-12T08:24:18Z</time>
      </trkpt>
      <trkpt lat="48.21134" lon="7.17653">
        <ele>958.1</ele>
        <time>2022-02-12T08:24:27Z</time>
      </trkpt>
      <trkpt lat="48.21127" lon="7.17641">
        <ele>958.7</ele>
        <time>2022-02-12T08:24:37Z</time>
      </trkpt>
      <trkpt lat="48.2112" lon="7.17631">
        <ele>959.2</ele>
        <time>2022-02-12T08:24:45Z</time>
      </trkpt>
      <trkpt lat="48.21117" lon="7.17616">
        <ele>959.9</ele>
        <time>2022-02-12T08:24:54Z</time>
      </trkpt>
      <trkpt lat="48.21109" lon="7.17609">
        <ele>960.5</ele>
        <time>2022-02-12T08:25:00Z</time>
      </trkpt>
      <trkpt lat="48.21105" lon="7.17596">
        <ele>961.1</ele>
        <time>2022-02-12T08:25:11Z</time>
      </trkpt>
      <trkpt lat="48.211" lon="7.17584">
        <ele>962</ele>
        <time>2022-02-12T08:25:18Z</time>
      </trkpt>
      <trkpt lat="48.21091" lon="7.17577">
        <ele>963.1</ele>
        <time>2022-02-12T08:25:25Z</time>
      </trkpt>
      <trkpt lat="48.21084" lon="7.17569">
        <ele>964.2</ele>
        <time>2022-02-12T08:25:34Z</time>
      </trkpt>
      <trkpt lat="48.21077" lon="7.17561">
        <ele>965.4</ele>
        <time>2022-02-12T08:25:46Z</time>
      </trkpt>
      <trkpt lat="48.21076" lon="7.17562">
        <ele>965.6</ele>
        <time>2022-02-12T08:25:49Z</time>
      </trkpt>
      <trkpt lat="48.21075" lon="7.17562">
        <ele>965.7</ele>
        <time>2022-02-12T08:25:50Z</time>
      </trkpt>
      <trkpt lat="48.21068" lon="7.17553">
        <ele>966.9</ele>
        <time>2022-02-12T08:26:00Z</time>
      </trkpt>
      <trkpt lat="48.21061" lon="7.17544">
        <ele>968.1</ele>
        <time>2022-02-12T08:26:10Z</time>
      </trkpt>
      <trkpt lat="48.21053" lon="7.17535">
        <ele>969.4</ele>
        <time>2022-02-12T08:26:19Z</time>
      </trkpt>
      <trkpt lat="48.21046" lon="7.17526">
        <ele>970.8</ele>
        <time>2022-02-12T08:26:33Z</time>
      </trkpt>
      <trkpt lat="48.21042" lon="7.17513">
        <ele>972.1</ele>
        <time>2022-02-12T08:26:44Z</time>
      </trkpt>
      <trkpt lat="48.21038" lon="7.17505">
        <ele>972.9</ele>
        <time>2022-02-12T08:26:50Z</time>
      </trkpt>
      <trkpt lat="48.21037" lon="7.17506">
        <ele>973.1</ele>
        <time>2022-02-12T08:26:51Z</time>
      </trkpt>
      <trkpt lat="48.21028" lon="7.17497">
        <ele>974.5</ele>
        <time>2022-02-12T08:26:58Z</time>
      </trkpt>
      <trkpt lat="48.21021" lon="7.17494">
        <ele>975.6</ele>
        <time>2022-02-12T08:27:07Z</time>
      </trkpt>
      <trkpt lat="48.2102" lon="7.17493">
        <ele>975.7</ele>
        <time>2022-02-12T08:27:08Z</time>
      </trkpt>
      <trkpt lat="48.21014" lon="7.17482">
        <ele>977</ele>
        <time>2022-02-12T08:27:26Z</time>
      </trkpt>
      <trkpt lat="48.21006" lon="7.17477">
        <ele>978.3</ele>
        <time>2022-02-12T08:27:35Z</time>
      </trkpt>
      <trkpt lat="48.21" lon="7.17466">
        <ele>979.6</ele>
        <time>2022-02-12T08:27:43Z</time>
      </trkpt>
      <trkpt lat="48.20994" lon="7.17456">
        <ele>980.9</ele>
        <time>2022-02-12T08:27:52Z</time>
      </trkpt>
      <trkpt lat="48.20985" lon="7.17449">
        <ele>982.1</ele>
        <time>2022-02-12T08:28:01Z</time>
      </trkpt>
      <trkpt lat="48.20979" lon="7.17438">
        <ele>983.4</ele>
        <time>2022-02-12T08:28:14Z</time>
      </trkpt>
      <trkpt lat="48.20978" lon="7.17424">
        <ele>984.6</ele>
        <time>2022-02-12T08:28:23Z</time>
      </trkpt>
      <trkpt lat="48.2097" lon="7.17416">
        <ele>985.7</ele>
        <time>2022-02-12T08:28:35Z</time>
      </trkpt>
      <trkpt lat="48.20961" lon="7.1741">
        <ele>986.9</ele>
        <time>2022-02-12T08:28:41Z</time>
      </trkpt>
      <trkpt lat="48.20955" lon="7.17408">
        <ele>987.7</ele>
        <time>2022-02-12T08:28:50Z</time>
      </trkpt>
      <trkpt lat="48.20954" lon="7.17407">
        <ele>987.8</ele>
        <time>2022-02-12T08:28:51Z</time>
      </trkpt>
      <trkpt lat="48.20946" lon="7.17398">
        <ele>989</ele>
        <time>2022-02-12T08:28:59Z</time>
      </trkpt>
      <trkpt lat="48.20937" lon="7.17392">
        <ele>990.2</ele>
        <time>2022-02-12T08:29:11Z</time>
      </trkpt>
      <trkpt lat="48.20928" lon="7.17395">
        <ele>991.3</ele>
        <time>2022-02-12T08:29:20Z</time>
      </trkpt>
      <trkpt lat="48.20918" lon="7.17394">
        <ele>992.4</ele>
        <time>2022-02-12T08:29:34Z</time>
      </trkpt>
      <trkpt lat="48.20911" lon="7.17404">
        <ele>993.6</ele>
        <time>2022-02-12T08:29:45Z</time>
      </trkpt>
      <trkpt lat="48.20901" lon="7.17401">
        <ele>994.9</ele>
        <time>2022-02-12T08:29:52Z</time>
      </trkpt>
      <trkpt lat="48.20893" lon="7.17395">
        <ele>996</ele>
        <time>2022-02-12T08:30:00Z</time>
      </trkpt>
      <trkpt lat="48.20886" lon="7.17387">
        <ele>997.1</ele>
        <time>2022-02-12T08:30:11Z</time>
      </trkpt>
      <trkpt lat="48.20881" lon="7.174">
        <ele>998.3</ele>
        <time>2022-02-12T08:30:23Z</time>
      </trkpt>
      <trkpt lat="48.2088" lon="7.17385">
        <ele>999.6</ele>
        <time>2022-02-12T08:30:37Z</time>
      </trkpt>
      <trkpt lat="48.2088" lon="7.17376">
        <ele>1000.3</ele>
        <time>2022-02-12T08:31:01Z</time>
      </trkpt>
      <trkpt lat="48.20879" lon="7.17375">
        <ele>1000.3</ele>
        <time>2022-02-12T08:31:02Z</time>
      </trkpt>
      <trkpt lat="48.20879" lon="7.17371">
        <ele>1000.6</ele>
        <time>2022-02-12T08:31:16Z</time>
      </trkpt>
      <trkpt lat="48.20879" lon="7.17372">
        <ele>1000.7</ele>
        <time>2022-02-12T08:31:18Z</time>
      </trkpt>
      <trkpt lat="48.20881" lon="7.17375">
        <ele>1001</ele>
        <time>2022-02-12T08:31:27Z</time>
      </trkpt>
      <trkpt lat="48.20882" lon="7.17375">
        <ele>1001</ele>
        <time>2022-02-12T08:31:28Z</time>
      </trkpt>
      <trkpt lat="48.20886" lon="7.17385">
        <ele>1001.9</ele>
        <time>2022-02-12T08:31:48Z</time>
      </trkpt>
      <trkpt lat="48.20887" lon="7.17386">
        <ele>1002</ele>
        <time>2022-02-12T08:31:49Z</time>
      </trkpt>
      <trkpt lat="48.20887" lon="7.17386">
        <ele>1002</ele>
        <time>2022-02-12T08:31:50Z</time>
      </trkpt>
      <trkpt lat="48.20887" lon="7.17385">
        <ele>1002</ele>
        <time>2022-02-12T08:31:51Z</time>
      </trkpt>
      <trkpt lat="48.20887" lon="7.17377">
        <ele>1002.6</ele>
        <time>2022-02-12T08:32:08Z</time>
      </trkpt>
      <trkpt lat="48.20887" lon="7.17376">
        <ele>1002.7</ele>
        <time>2022-02-12T08:32:09Z</time>
      </trkpt>
      <trkpt lat="48.2088" lon="7.17368">
        <ele>1003.5</ele>
        <time>2022-02-12T08:32:26Z</time>
      </trkpt>
      <trkpt lat="48.2087" lon="7.17367">
        <ele>1004.5</ele>
        <time>2022-02-12T08:32:34Z</time>
      </trkpt>
      <trkpt lat="48.20861" lon="7.17365">
        <ele>1005.7</ele>
        <time>2022-02-12T08:32:40Z</time>
      </trkpt>
      <trkpt lat="48.20852" lon="7.17364">
        <ele>1007.2</ele>
        <time>2022-02-12T08:32:49Z</time>
      </trkpt>
      <trkpt lat="48.20843" lon="7.1737">
        <ele>1007.9</ele>
        <time>2022-02-12T08:33:00Z</time>
      </trkpt>
      <trkpt lat="48.20834" lon="7.17368">
        <ele>1008.6</ele>
        <time>2022-02-12T08:33:08Z</time>
      </trkpt>
      <trkpt lat="48.20824" lon="7.17364">
        <ele>1009.3</ele>
        <time>2022-02-12T08:33:15Z</time>
      </trkpt>
      <trkpt lat="48.20815" lon="7.17365">
        <ele>1009.7</ele>
        <time>2022-02-12T08:33:23Z</time>
      </trkpt>
      <trkpt lat="48.20806" lon="7.17363">
        <ele>1010.1</ele>
        <time>2022-02-12T08:33:32Z</time>
      </trkpt>
      <trkpt lat="48.20797" lon="7.17363">
        <ele>1010.5</ele>
        <time>2022-02-12T08:33:41Z</time>
      </trkpt>
      <trkpt lat="48.20787" lon="7.17361">
        <ele>1010.9</ele>
        <time>2022-02-12T08:33:50Z</time>
      </trkpt>
      <trkpt lat="48.20778" lon="7.17356">
        <ele>1011.3</ele>
        <time>2022-02-12T08:33:57Z</time>
      </trkpt>
      <trkpt lat="48.20769" lon="7.1735">
        <ele>1011.7</ele>
        <time>2022-02-12T08:34:03Z</time>
      </trkpt>
      <trkpt lat="48.20762" lon="7.1734">
        <ele>1012</ele>
        <time>2022-02-12T08:34:12Z</time>
      </trkpt>
      <trkpt lat="48.20755" lon="7.17332">
        <ele>1012.2</ele>
        <time>2022-02-12T08:34:19Z</time>
      </trkpt>
      <trkpt lat="48.20748" lon="7.17322">
        <ele>1012.5</ele>
        <time>2022-02-12T08:34:26Z</time>
      </trkpt>
      <trkpt lat="48.20741" lon="7.17314">
        <ele>1012.7</ele>
        <time>2022-02-12T08:34:37Z</time>
      </trkpt>
      <trkpt lat="48.20732" lon="7.17309">
        <ele>1013.1</ele>
        <time>2022-02-12T08:34:44Z</time>
      </trkpt>
      <trkpt lat="48.20721" lon="7.17306">
        <ele>1013.4</ele>
        <time>2022-02-12T08:34:51Z</time>
      </trkpt>
      <trkpt lat="48.20713" lon="7.17296">
        <ele>1013.8</ele>
        <time>2022-02-12T08:35:01Z</time>
      </trkpt>
      <trkpt lat="48.20708" lon="7.17285">
        <ele>1014.2</ele>
        <time>2022-02-12T08:35:08Z</time>
      </trkpt>
      <trkpt lat="48.20701" lon="7.17275">
        <ele>1014.7</ele>
        <time>2022-02-12T08:35:16Z</time>
      </trkpt>
      <trkpt lat="48.20694" lon="7.17266">
        <ele>1015.2</ele>
        <time>2022-02-12T08:35:23Z</time>
      </trkpt>
      <trkpt lat="48.20686" lon="7.17259">
        <ele>1015.7</ele>
        <time>2022-02-12T08:35:32Z</time>
      </trkpt>
      <trkpt lat="48.20678" lon="7.17252">
        <ele>1015.8</ele>
        <time>2022-02-12T08:35:40Z</time>
      </trkpt>
      <trkpt lat="48.20672" lon="7.17241">
        <ele>1015.1</ele>
        <time>2022-02-12T08:35:49Z</time>
      </trkpt>
      <trkpt lat="48.20666" lon="7.17231">
        <ele>1014.3</ele>
        <time>2022-02-12T08:35:59Z</time>
      </trkpt>
      <trkpt lat="48.20657" lon="7.17225">
        <ele>1013.3</ele>
        <time>2022-02-12T08:36:05Z</time>
      </trkpt>
      <trkpt lat="48.20653" lon="7.17212">
        <ele>1012.1</ele>
        <time>2022-02-12T08:36:19Z</time>
      </trkpt>
      <trkpt lat="48.20649" lon="7.17199">
        <ele>1010.9</ele>
        <time>2022-02-12T08:36:29Z</time>
      </trkpt>
      <trkpt lat="48.20644" lon="7.17187">
        <ele>1010.4</ele>
        <time>2022-02-12T08:36:40Z</time>
      </trkpt>
      <trkpt lat="48.20644" lon="7.17172">
        <ele>1010.4</ele>
        <time>2022-02-12T08:36:50Z</time>
      </trkpt>
      <trkpt lat="48.20639" lon="7.1716">
        <ele>1010.4</ele>
        <time>2022-02-12T08:36:58Z</time>
      </trkpt>
      <trkpt lat="48.2063" lon="7.17154">
        <ele>1010.3</ele>
        <time>2022-02-12T08:37:04Z</time>
      </trkpt>
      <trkpt lat="48.20624" lon="7.17143">
        <ele>1010.1</ele>
        <time>2022-02-12T08:37:16Z</time>
      </trkpt>
      <trkpt lat="48.20621" lon="7.1713">
        <ele>1010</ele>
        <time>2022-02-12T08:37:26Z</time>
      </trkpt>
      <trkpt lat="48.20622" lon="7.17116">
        <ele>1009.8</ele>
        <time>2022-02-12T08:37:35Z</time>
      </trkpt>
      <trkpt lat="48.20619" lon="7.17102">
        <ele>1009.6</ele>
        <time>2022-02-12T08:37:44Z</time>
      </trkpt>
      <trkpt lat="48.20618" lon="7.17088">
        <ele>1009.4</ele>
        <time>2022-02-12T08:37:51Z</time>
      </trkpt>
      <trkpt lat="48.20623" lon="7.17076">
        <ele>1009.2</ele>
        <time>2022-02-12T08:38:00Z</time>
      </trkpt>
      <trkpt lat="48.20623" lon="7.17061">
        <ele>1008.9</ele>
        <time>2022-02-12T08:38:14Z</time>
      </trkpt>
      <trkpt lat="48.20617" lon="7.1705">
        <ele>1008.6</ele>
        <time>2022-02-12T08:38:20Z</time>
      </trkpt>
      <trkpt lat="48.20622" lon="7.17037">
        <ele>1008.3</ele>
        <time>2022-02-12T08:38:29Z</time>
      </trkpt>
      <trkpt lat="48.20626" lon="7.17023">
        <ele>1008</ele>
        <time>2022-02-12T08:38:38Z</time>
      </trkpt>
      <trkpt lat="48.20628" lon="7.17007">
        <ele>1007.6</ele>
        <time>2022-02-12T08:38:47Z</time>
      </trkpt>
      <trkpt lat="48.20631" lon="7.16993">
        <ele>1007.4</ele>
        <time>2022-02-12T08:38:54Z</time>
      </trkpt>
      <trkpt lat="48.20631" lon="7.16977">
        <ele>1007.3</ele>
        <time>2022-02-12T08:39:02Z</time>
      </trkpt>
      <trkpt lat="48.20632" lon="7.16962">
        <ele>1007.2</ele>
        <time>2022-02-12T08:39:11Z</time>
      </trkpt>
      <trkpt lat="48.20625" lon="7.1695">
        <ele>1007.2</ele>
        <time>2022-02-12T08:39:18Z</time>
      </trkpt>
      <trkpt lat="48.20623" lon="7.16936">
        <ele>1007</ele>
        <time>2022-02-12T08:39:26Z</time>
      </trkpt>
      <trkpt lat="48.20627" lon="7.16922">
        <ele>1006.8</ele>
        <time>2022-02-12T08:39:33Z</time>
      </trkpt>
      <trkpt lat="48.2063" lon="7.16909">
        <ele>1006.7</ele>
        <time>2022-02-12T08:39:41Z</time>
      </trkpt>
      <trkpt lat="48.20628" lon="7.16895">
        <ele>1006.5</ele>
        <time>2022-02-12T08:39:53Z</time>
      </trkpt>
      <trkpt lat="48.20625" lon="7.16881">
        <ele>1006.4</ele>
        <time>2022-02-12T08:40:00Z</time>
      </trkpt>
      <trkpt lat="48.20628" lon="7.16867">
        <ele>1006.2</ele>
        <time>2022-02-12T08:40:10Z</time>
      </trkpt>
      <trkpt lat="48.20626" lon="7.16853">
        <ele>1006</ele>
        <time>2022-02-12T08:40:18Z</time>
      </trkpt>
      <trkpt lat="48.20618" lon="7.16845">
        <ele>1005.8</ele>
        <time>2022-02-12T08:40:25Z</time>
      </trkpt>
      <trkpt lat="48.20616" lon="7.16831">
        <ele>1005.6</ele>
        <time>2022-02-12T08:40:33Z</time>
      </trkpt>
      <trkpt lat="48.20615" lon="7.16818">
        <ele>1005.4</ele>
        <time>2022-02-12T08:40:40Z</time>
      </trkpt>
      <trkpt lat="48.20611" lon="7.16804">
        <ele>1005.3</ele>
        <time>2022-02-12T08:40:51Z</time>
      </trkpt>
      <trkpt lat="48.20606" lon="7.16792">
        <ele>1005.2</ele>
        <time>2022-02-12T08:40:59Z</time>
      </trkpt>
      <trkpt lat="48.20604" lon="7.16778">
        <ele>1005.1</ele>
        <time>2022-02-12T08:41:07Z</time>
      </trkpt>
      <trkpt lat="48.20602" lon="7.1677">
        <ele>1005.1</ele>
        <time>2022-02-12T08:41:21Z</time>
      </trkpt>
      <trkpt lat="48.20603" lon="7.1677">
        <ele>1005.1</ele>
        <time>2022-02-12T08:41:22Z</time>
      </trkpt>
      <trkpt lat="48.20594" lon="7.16762">
        <ele>1005</ele>
        <time>2022-02-12T08:41:45Z</time>
      </trkpt>
      <trkpt lat="48.20586" lon="7.16754">
        <ele>1004.9</ele>
        <time>2022-02-12T08:41:51Z</time>
      </trkpt>
      <trkpt lat="48.20584" lon="7.16744">
        <ele>1004.8</ele>
        <time>2022-02-12T08:42:02Z</time>
      </trkpt>
      <trkpt lat="48.20584" lon="7.16743">
        <ele>1004.8</ele>
        <time>2022-02-12T08:42:03Z</time>
      </trkpt>
      <trkpt lat="48.20577" lon="7.16735">
        <ele>1004.7</ele>
        <time>2022-02-12T08:42:12Z</time>
      </trkpt>
      <trkpt lat="48.20568" lon="7.16727">
        <ele>1004.5</ele>
        <time>2022-02-12T08:42:20Z</time>
      </trkpt>
      <trkpt lat="48.2056" lon="7.16722">
        <ele>1004.3</ele>
        <time>2022-02-12T08:42:26Z</time>
      </trkpt>
      <trkpt lat="48.20551" lon="7.16715">
        <ele>1004.1</ele>
        <time>2022-02-12T08:42:36Z</time>
      </trkpt>
      <trkpt lat="48.20543" lon="7.16707">
        <ele>1004</ele>
        <time>2022-02-12T08:42:44Z</time>
      </trkpt>
      <trkpt lat="48.20535" lon="7.16701">
        <ele>1003.8</ele>
        <time>2022-02-12T08:42:54Z</time>
      </trkpt>
      <trkpt lat="48.20525" lon="7.16696">
        <ele>1003.7</ele>
        <time>2022-02-12T08:43:01Z</time>
      </trkpt>
      <trkpt lat="48.20516" lon="7.16692">
        <ele>1003.6</ele>
        <time>2022-02-12T08:43:09Z</time>
      </trkpt>
      <trkpt lat="48.20508" lon="7.16683">
        <ele>1003.5</ele>
        <time>2022-02-12T08:43:17Z</time>
      </trkpt>
      <trkpt lat="48.205" lon="7.16674">
        <ele>1003.4</ele>
        <time>2022-02-12T08:43:25Z</time>
      </trkpt>
      <trkpt lat="48.20491" lon="7.16668">
        <ele>1003.4</ele>
        <time>2022-02-12T08:43:31Z</time>
      </trkpt>
      <trkpt lat="48.20484" lon="7.16659">
        <ele>1003.3</ele>
        <time>2022-02-12T08:43:41Z</time>
      </trkpt>
      <trkpt lat="48.20475" lon="7.16654">
        <ele>1003.3</ele>
        <time>2022-02-12T08:43:46Z</time>
      </trkpt>
      <trkpt lat="48.20468" lon="7.16645">
        <ele>1003.2</ele>
        <time>2022-02-12T08:43:54Z</time>
      </trkpt>
      <trkpt lat="48.20461" lon="7.16634">
        <ele>1003.2</ele>
        <time>2022-02-12T08:44:05Z</time>
      </trkpt>
      <trkpt lat="48.20453" lon="7.16629">
        <ele>1003.2</ele>
        <time>2022-02-12T08:44:15Z</time>
      </trkpt>
      <trkpt lat="48.20444" lon="7.16623">
        <ele>1003.1</ele>
        <time>2022-02-12T08:44:23Z</time>
      </trkpt>
      <trkpt lat="48.20437" lon="7.16612">
        <ele>1002.9</ele>
        <time>2022-02-12T08:44:32Z</time>
      </trkpt>
      <trkpt lat="48.20434" lon="7.16599">
        <ele>1002.9</ele>
        <time>2022-02-12T08:44:45Z</time>
      </trkpt>
      <trkpt lat="48.20429" lon="7.16587">
        <ele>1002.8</ele>
        <time>2022-02-12T08:44:56Z</time>
      </trkpt>
      <trkpt lat="48.20421" lon="7.1658">
        <ele>1002.7</ele>
        <time>2022-02-12T08:45:00Z</time>
      </trkpt>
      <trkpt lat="48.20427" lon="7.16576">
        <ele>1002.7</ele>
        <time>2022-02-12T08:45:25Z</time>
      </trkpt>
      <trkpt lat="48.20426" lon="7.16577">
        <ele>1002.7</ele>
        <time>2022-02-12T08:45:27Z</time>
      </trkpt>
      <trkpt lat="48.20424" lon="7.16584">
        <ele>1002.6</ele>
        <time>2022-02-12T08:45:55Z</time>
      </trkpt>
      <trkpt lat="48.20424" lon="7.16584">
        <ele>1002.6</ele>
        <time>2022-02-12T08:45:56Z</time>
      </trkpt>
      <trkpt lat="48.20424" lon="7.16584">
        <ele>1002.6</ele>
        <time>2022-02-12T08:45:59Z</time>
      </trkpt>
      <trkpt lat="48.20425" lon="7.16583">
        <ele>1002.6</ele>
        <time>2022-02-12T08:46:00Z</time>
      </trkpt>
      <trkpt lat="48.20425" lon="7.16569">
        <ele>1002.6</ele>
        <time>2022-02-12T08:46:13Z</time>
      </trkpt>
      <trkpt lat="48.20415" lon="7.16567">
        <ele>1002.5</ele>
        <time>2022-02-12T08:46:33Z</time>
      </trkpt>
      <trkpt lat="48.20406" lon="7.16563">
        <ele>1002.5</ele>
        <time>2022-02-12T08:47:10Z</time>
      </trkpt>
      <trkpt lat="48.20406" lon="7.16563">
        <ele>1002.5</ele>
        <time>2022-02-12T08:47:15Z</time>
      </trkpt>
      <trkpt lat="48.20405" lon="7.16562">
        <ele>1002.4</ele>
        <time>2022-02-12T08:47:16Z</time>
      </trkpt>
      <trkpt lat="48.20405" lon="7.16561">
        <ele>1002.4</ele>
        <time>2022-02-12T08:47:38Z</time>
      </trkpt>
      <trkpt lat="48.20405" lon="7.16561">
        <ele>1002.4</ele>
        <time>2022-02-12T08:47:39Z</time>
      </trkpt>
      <trkpt lat="48.20405" lon="7.16561">
        <ele>1002.4</ele>
        <time>2022-02-12T08:47:40Z</time>
      </trkpt>
      <trkpt lat="48.20406" lon="7.1656">
        <ele>1002.4</ele>
        <time>2022-02-12T08:47:41Z</time>
      </trkpt>
      <trkpt lat="48.20406" lon="7.16558">
        <ele>1002.4</ele>
        <time>2022-02-12T08:47:45Z</time>
      </trkpt>
      <trkpt lat="48.20407" lon="7.16557">
        <ele>1002.4</ele>
        <time>2022-02-12T08:47:46Z</time>
      </trkpt>
      <trkpt lat="48.20402" lon="7.16544">
        <ele>1002.2</ele>
        <time>2022-02-12T08:47:58Z</time>
      </trkpt>
      <trkpt lat="48.20398" lon="7.16532">
        <ele>1002.1</ele>
        <time>2022-02-12T08:48:06Z</time>
      </trkpt>
      <trkpt lat="48.20396" lon="7.16517">
        <ele>1001.9</ele>
        <time>2022-02-12T08:48:14Z</time>
      </trkpt>
      <trkpt lat="48.20393" lon="7.16504">
        <ele>1001.7</ele>
        <time>2022-02-12T08:48:21Z</time>
      </trkpt>
      <trkpt lat="48.2039" lon="7.16489">
        <ele>1001.5</ele>
        <time>2022-02-12T08:48:28Z</time>
      </trkpt>
      <trkpt lat="48.20387" lon="7.16476">
        <ele>1001.2</ele>
        <time>2022-02-12T08:48:36Z</time>
      </trkpt>
      <trkpt lat="48.20383" lon="7.16462">
        <ele>1001</ele>
        <time>2022-02-12T08:48:47Z</time>
      </trkpt>
      <trkpt lat="48.20381" lon="7.16448">
        <ele>1000.9</ele>
        <time>2022-02-12T08:48:55Z</time>
      </trkpt>
      <trkpt lat="48.20377" lon="7.16434">
        <ele>1000.7</ele>
        <time>2022-02-12T08:49:09Z</time>
      </trkpt>
      <trkpt lat="48.20378" lon="7.1642">
        <ele>1000.6</ele>
        <time>2022-02-12T08:49:16Z</time>
      </trkpt>
      <trkpt lat="48.20377" lon="7.16406">
        <ele>1000.5</ele>
        <time>2022-02-12T08:49:24Z</time>
      </trkpt>
      <trkpt lat="48.20372" lon="7.16393">
        <ele>1000.3</ele>
        <time>2022-02-12T08:49:31Z</time>
      </trkpt>
      <trkpt lat="48.20369" lon="7.16379">
        <ele>1000</ele>
        <time>2022-02-12T08:49:40Z</time>
      </trkpt>
      <trkpt lat="48.20365" lon="7.16366">
        <ele>999.8</ele>
        <time>2022-02-12T08:49:49Z</time>
      </trkpt>
      <trkpt lat="48.20362" lon="7.16353">
        <ele>999.6</ele>
        <time>2022-02-12T08:49:59Z</time>
      </trkpt>
      <trkpt lat="48.20356" lon="7.16341">
        <ele>999.5</ele>
        <time>2022-02-12T08:50:06Z</time>
      </trkpt>
      <trkpt lat="48.20348" lon="7.16331">
        <ele>999.4</ele>
        <time>2022-02-12T08:50:13Z</time>
      </trkpt>
      <trkpt lat="48.20341" lon="7.16324">
        <ele>999.2</ele>
        <time>2022-02-12T08:50:19Z</time>
      </trkpt>
      <trkpt lat="48.20333" lon="7.16316">
        <ele>999.1</ele>
        <time>2022-02-12T08:50:24Z</time>
      </trkpt>
      <trkpt lat="48.20324" lon="7.16307">
        <ele>999</ele>
        <time>2022-02-12T08:50:31Z</time>
      </trkpt>
      <trkpt lat="48.20317" lon="7.16298">
        <ele>998.9</ele>
        <time>2022-02-12T08:50:40Z</time>
      </trkpt>
      <trkpt lat="48.20316" lon="7.16292">
        <ele>998.9</ele>
        <time>2022-02-12T08:50:58Z</time>
      </trkpt>
      <trkpt lat="48.20316" lon="7.16292">
        <ele>998.9</ele>
        <time>2022-02-12T08:50:59Z</time>
      </trkpt>
      <trkpt lat="48.20312" lon="7.16285">
        <ele>998.7</ele>
        <time>2022-02-12T08:51:10Z</time>
      </trkpt>
      <trkpt lat="48.20312" lon="7.16286">
        <ele>998.7</ele>
        <time>2022-02-12T08:51:14Z</time>
      </trkpt>
      <trkpt lat="48.20312" lon="7.16286">
        <ele>998.7</ele>
        <time>2022-02-12T08:51:15Z</time>
      </trkpt>
      <trkpt lat="48.20312" lon="7.16286">
        <ele>998.7</ele>
        <time>2022-02-12T08:51:16Z</time>
      </trkpt>
      <trkpt lat="48.20313" lon="7.16287">
        <ele>998.7</ele>
        <time>2022-02-12T08:51:18Z</time>
      </trkpt>
      <trkpt lat="48.20313" lon="7.16286">
        <ele>998.6</ele>
        <time>2022-02-12T08:51:19Z</time>
      </trkpt>
      <trkpt lat="48.20313" lon="7.16284">
        <ele>998.6</ele>
        <time>2022-02-12T08:51:21Z</time>
      </trkpt>
      <trkpt lat="48.20313" lon="7.16284">
        <ele>998.6</ele>
        <time>2022-02-12T08:51:23Z</time>
      </trkpt>
      <trkpt lat="48.20313" lon="7.16284">
        <ele>998.6</ele>
        <time>2022-02-12T08:51:24Z</time>
      </trkpt>
      <trkpt lat="48.20313" lon="7.16284">
        <ele>998.6</ele>
        <time>2022-02-12T08:51:25Z</time>
      </trkpt>
      <trkpt lat="48.20313" lon="7.16284">
        <ele>998.6</ele>
        <time>2022-02-12T08:51:26Z</time>
      </trkpt>
      <trkpt lat="48.20312" lon="7.16283">
        <ele>998.6</ele>
        <time>2022-02-12T08:51:28Z</time>
      </trkpt>
      <trkpt lat="48.20305" lon="7.16273">
        <ele>998</ele>
        <time>2022-02-12T08:51:52Z</time>
      </trkpt>
      <trkpt lat="48.20297" lon="7.16267">
        <ele>997.1</ele>
        <time>2022-02-12T08:52:01Z</time>
      </trkpt>
      <trkpt lat="48.20291" lon="7.16255">
        <ele>996.3</ele>
        <time>2022-02-12T08:52:10Z</time>
      </trkpt>
      <trkpt lat="48.20284" lon="7.16244">
        <ele>995.3</ele>
        <time>2022-02-12T08:52:20Z</time>
      </trkpt>
      <trkpt lat="48.20277" lon="7.16235">
        <ele>994.4</ele>
        <time>2022-02-12T08:52:31Z</time>
      </trkpt>
      <trkpt lat="48.2027" lon="7.16224">
        <ele>993.4</ele>
        <time>2022-02-12T08:52:40Z</time>
      </trkpt>
      <trkpt lat="48.20264" lon="7.16212">
        <ele>992.4</ele>
        <time>2022-02-12T08:52:48Z</time>
      </trkpt>
      <trkpt lat="48.2026" lon="7.16199">
        <ele>991.5</ele>
        <time>2022-02-12T08:52:57Z</time>
      </trkpt>
      <trkpt lat="48.20257" lon="7.16186">
        <ele>990.6</ele>
        <time>2022-02-12T08:53:05Z</time>
      </trkpt>
      <trkpt lat="48.20252" lon="7.16175">
        <ele>989.7</ele>
        <time>2022-02-12T08:53:13Z</time>
      </trkpt>
      <trkpt lat="48.20251" lon="7.16161">
        <ele>988.8</ele>
        <time>2022-02-12T08:53:21Z</time>
      </trkpt>
      <trkpt lat="48.20246" lon="7.16148">
        <ele>987.9</ele>
        <time>2022-02-12T08:53:32Z</time>
      </trkpt>
      <trkpt lat="48.20241" lon="7.16137">
        <ele>987</ele>
        <time>2022-02-12T08:53:41Z</time>
      </trkpt>
      <trkpt lat="48.20233" lon="7.16127">
        <ele>986.1</ele>
        <time>2022-02-12T08:53:47Z</time>
      </trkpt>
      <trkpt lat="48.20228" lon="7.16116">
        <ele>985.2</ele>
        <time>2022-02-12T08:53:59Z</time>
      </trkpt>
      <trkpt lat="48.20221" lon="7.16106">
        <ele>984.2</ele>
        <time>2022-02-12T08:54:09Z</time>
      </trkpt>
      <trkpt lat="48.20215" lon="7.16096">
        <ele>983.3</ele>
        <time>2022-02-12T08:54:18Z</time>
      </trkpt>
      <trkpt lat="48.20208" lon="7.16088">
        <ele>982.4</ele>
        <time>2022-02-12T08:54:26Z</time>
      </trkpt>
      <trkpt lat="48.20199" lon="7.16079">
        <ele>981.4</ele>
        <time>2022-02-12T08:54:35Z</time>
      </trkpt>
      <trkpt lat="48.20192" lon="7.1607">
        <ele>980.5</ele>
        <time>2022-02-12T08:54:46Z</time>
      </trkpt>
      <trkpt lat="48.20184" lon="7.16063">
        <ele>979.6</ele>
        <time>2022-02-12T08:54:54Z</time>
      </trkpt>
      <trkpt lat="48.20177" lon="7.16054">
        <ele>978.9</ele>
        <time>2022-02-12T08:55:06Z</time>
      </trkpt>
      <trkpt lat="48.20167" lon="7.16053">
        <ele>978.7</ele>
        <time>2022-02-12T08:55:20Z</time>
      </trkpt>
      <trkpt lat="48.20158" lon="7.16046">
        <ele>978.4</ele>
        <time>2022-02-12T08:55:29Z</time>
      </trkpt>
      <trkpt lat="48.20149" lon="7.16038">
        <ele>978.2</ele>
        <time>2022-02-12T08:55:36Z</time>
      </trkpt>
      <trkpt lat="48.2014" lon="7.16037">
        <ele>978</ele>
        <time>2022-02-12T08:55:45Z</time>
      </trkpt>
      <trkpt lat="48.20132" lon="7.1603">
        <ele>978</ele>
        <time>2022-02-12T08:55:56Z</time>
      </trkpt>
      <trkpt lat="48.20124" lon="7.16025">
        <ele>977.9</ele>
        <time>2022-02-12T08:56:06Z</time>
      </trkpt>
      <trkpt lat="48.20117" lon="7.16015">
        <ele>977.6</ele>
        <time>2022-02-12T08:56:15Z</time>
      </trkpt>
      <trkpt lat="48.2011" lon="7.16004">
        <ele>977.2</ele>
        <time>2022-02-12T08:56:22Z</time>
      </trkpt>
      <trkpt lat="48.20102" lon="7.15996">
        <ele>976.9</ele>
        <time>2022-02-12T08:56:29Z</time>
      </trkpt>
      <trkpt lat="48.20095" lon="7.15986">
        <ele>976.6</ele>
        <time>2022-02-12T08:56:45Z</time>
      </trkpt>
      <trkpt lat="48.20088" lon="7.15974">
        <ele>976.3</ele>
        <time>2022-02-12T08:56:55Z</time>
      </trkpt>
      <trkpt lat="48.20081" lon="7.15965">
        <ele>976.1</ele>
        <time>2022-02-12T08:57:03Z</time>
      </trkpt>
      <trkpt lat="48.20074" lon="7.15959">
        <ele>975.9</ele>
        <time>2022-02-12T08:57:15Z</time>
      </trkpt>
      <trkpt lat="48.20074" lon="7.15958">
        <ele>975.9</ele>
        <time>2022-02-12T08:57:16Z</time>
      </trkpt>
      <trkpt lat="48.20066" lon="7.15948">
        <ele>975.7</ele>
        <time>2022-02-12T08:57:23Z</time>
      </trkpt>
      <trkpt lat="48.20061" lon="7.15936">
        <ele>975.5</ele>
        <time>2022-02-12T08:57:28Z</time>
      </trkpt>
      <trkpt lat="48.20054" lon="7.15926">
        <ele>975.3</ele>
        <time>2022-02-12T08:57:33Z</time>
      </trkpt>
      <trkpt lat="48.20051" lon="7.15912">
        <ele>975.1</ele>
        <time>2022-02-12T08:57:41Z</time>
      </trkpt>
      <trkpt lat="48.20054" lon="7.15899">
        <ele>974.9</ele>
        <time>2022-02-12T08:57:51Z</time>
      </trkpt>
      <trkpt lat="48.20051" lon="7.15885">
        <ele>974.7</ele>
        <time>2022-02-12T08:57:59Z</time>
      </trkpt>
      <trkpt lat="48.20045" lon="7.15875">
        <ele>974.5</ele>
        <time>2022-02-12T08:58:05Z</time>
      </trkpt>
      <trkpt lat="48.20039" lon="7.15863">
        <ele>974.4</ele>
        <time>2022-02-12T08:58:15Z</time>
      </trkpt>
      <trkpt lat="48.20036" lon="7.1585">
        <ele>974.2</ele>
        <time>2022-02-12T08:58:19Z</time>
      </trkpt>
      <trkpt lat="48.20037" lon="7.15836">
        <ele>973.9</ele>
        <time>2022-02-12T08:58:27Z</time>
      </trkpt>
      <trkpt lat="48.20037" lon="7.15821">
        <ele>973.6</ele>
        <time>2022-02-12T08:58:36Z</time>
      </trkpt>
      <trkpt lat="48.20033" lon="7.15808">
        <ele>973.3</ele>
        <time>2022-02-12T08:58:46Z</time>
      </trkpt>
      <trkpt lat="48.20027" lon="7.15796">
        <ele>972.9</ele>
        <time>2022-02-12T08:58:55Z</time>
      </trkpt>
      <trkpt lat="48.20023" lon="7.15783">
        <ele>972.7</ele>
        <time>2022-02-12T08:59:07Z</time>
      </trkpt>
      <trkpt lat="48.20019" lon="7.15771">
        <ele>972.6</ele>
        <time>2022-02-12T08:59:17Z</time>
      </trkpt>
      <trkpt lat="48.20013" lon="7.1576">
        <ele>972.6</ele>
        <time>2022-02-12T08:59:28Z</time>
      </trkpt>
      <trkpt lat="48.20011" lon="7.15751">
        <ele>972.5</ele>
        <time>2022-02-12T08:59:39Z</time>
      </trkpt>
      <trkpt lat="48.2001" lon="7.1575">
        <ele>972.5</ele>
        <time>2022-02-12T08:59:40Z</time>
      </trkpt>
      <trkpt lat="48.20006" lon="7.15738">
        <ele>972.1</ele>
        <time>2022-02-12T08:59:47Z</time>
      </trkpt>
      <trkpt lat="48.20002" lon="7.15726">
        <ele>971.8</ele>
        <time>2022-02-12T08:59:58Z</time>
      </trkpt>
      <trkpt lat="48.19998" lon="7.15713">
        <ele>971.6</ele>
        <time>2022-02-12T09:00:07Z</time>
      </trkpt>
      <trkpt lat="48.19993" lon="7.15701">
        <ele>972</ele>
        <time>2022-02-12T09:00:16Z</time>
      </trkpt>
      <trkpt lat="48.19987" lon="7.15691">
        <ele>972.5</ele>
        <time>2022-02-12T09:00:27Z</time>
      </trkpt>
      <trkpt lat="48.19981" lon="7.1568">
        <ele>972.9</ele>
        <time>2022-02-12T09:00:37Z</time>
      </trkpt>
      <trkpt lat="48.19979" lon="7.1567">
        <ele>973.2</ele>
        <time>2022-02-12T09:00:46Z</time>
      </trkpt>
      <trkpt lat="48.19979" lon="7.1567">
        <ele>973.2</ele>
        <time>2022-02-12T09:00:47Z</time>
      </trkpt>
      <trkpt lat="48.19977" lon="7.15669">
        <ele>973.3</ele>
        <time>2022-02-12T09:01:37Z</time>
      </trkpt>
      <trkpt lat="48.19977" lon="7.15669">
        <ele>973.3</ele>
        <time>2022-02-12T09:01:38Z</time>
      </trkpt>
      <trkpt lat="48.19978" lon="7.15668">
        <ele>973.3</ele>
        <time>2022-02-12T09:01:48Z</time>
      </trkpt>
      <trkpt lat="48.19978" lon="7.15668">
        <ele>973.3</ele>
        <time>2022-02-12T09:01:49Z</time>
      </trkpt>
      <trkpt lat="48.19977" lon="7.15667">
        <ele>973.4</ele>
        <time>2022-02-12T09:01:52Z</time>
      </trkpt>
      <trkpt lat="48.19977" lon="7.15666">
        <ele>973.4</ele>
        <time>2022-02-12T09:01:53Z</time>
      </trkpt>
      <trkpt lat="48.19976" lon="7.15666">
        <ele>973.4</ele>
        <time>2022-02-12T09:02:02Z</time>
      </trkpt>
      <trkpt lat="48.19976" lon="7.15666">
        <ele>973.4</ele>
        <time>2022-02-12T09:02:03Z</time>
      </trkpt>
      <trkpt lat="48.19977" lon="7.15666">
        <ele>973.4</ele>
        <time>2022-02-12T09:02:13Z</time>
      </trkpt>
      <trkpt lat="48.19977" lon="7.15666">
        <ele>973.4</ele>
        <time>2022-02-12T09:02:14Z</time>
      </trkpt>
      <trkpt lat="48.19977" lon="7.15666">
        <ele>973.5</ele>
        <time>2022-02-12T09:02:16Z</time>
      </trkpt>
      <trkpt lat="48.19977" lon="7.15666">
        <ele>973.5</ele>
        <time>2022-02-12T09:02:17Z</time>
      </trkpt>
      <trkpt lat="48.19977" lon="7.15666">
        <ele>973.5</ele>
        <time>2022-02-12T09:02:20Z</time>
      </trkpt>
      <trkpt lat="48.19977" lon="7.15665">
        <ele>973.5</ele>
        <time>2022-02-12T09:02:24Z</time>
      </trkpt>
      <trkpt lat="48.19977" lon="7.15665">
        <ele>973.5</ele>
        <time>2022-02-12T09:02:25Z</time>
      </trkpt>
      <trkpt lat="48.19977" lon="7.15665">
        <ele>973.5</ele>
        <time>2022-02-12T09:02:30Z</time>
      </trkpt>
      <trkpt lat="48.19977" lon="7.15664">
        <ele>973.5</ele>
        <time>2022-02-12T09:02:32Z</time>
      </trkpt>
      <trkpt lat="48.19976" lon="7.15664">
        <ele>973.5</ele>
        <time>2022-02-12T09:02:39Z</time>
      </trkpt>
      <trkpt lat="48.19976" lon="7.15669">
        <ele>973.6</ele>
        <time>2022-02-12T09:02:47Z</time>
      </trkpt>
      <trkpt lat="48.19976" lon="7.15668">
        <ele>973.7</ele>
        <time>2022-02-12T09:02:48Z</time>
      </trkpt>
      <trkpt lat="48.19975" lon="7.15667">
        <ele>973.7</ele>
        <time>2022-02-12T09:02:53Z</time>
      </trkpt>
      <trkpt lat="48.19975" lon="7.15666">
        <ele>973.7</ele>
        <time>2022-02-12T09:02:55Z</time>
      </trkpt>
      <trkpt lat="48.19971" lon="7.15653">
        <ele>974</ele>
        <time>2022-02-12T09:03:19Z</time>
      </trkpt>
      <trkpt lat="48.19966" lon="7.15642">
        <ele>974.4</ele>
        <time>2022-02-12T09:03:28Z</time>
      </trkpt>
      <trkpt lat="48.19958" lon="7.15633">
        <ele>974.8</ele>
        <time>2022-02-12T09:03:37Z</time>
      </trkpt>
      <trkpt lat="48.19952" lon="7.15623">
        <ele>975.1</ele>
        <time>2022-02-12T09:03:47Z</time>
      </trkpt>
      <trkpt lat="48.19946" lon="7.15611">
        <ele>975.5</ele>
        <time>2022-02-12T09:03:56Z</time>
      </trkpt>
      <trkpt lat="48.19939" lon="7.15601">
        <ele>975.9</ele>
        <time>2022-02-12T09:04:04Z</time>
      </trkpt>
      <trkpt lat="48.19934" lon="7.15588">
        <ele>976.4</ele>
        <time>2022-02-12T09:04:13Z</time>
      </trkpt>
      <trkpt lat="48.19928" lon="7.15577">
        <ele>976.9</ele>
        <time>2022-02-12T09:04:23Z</time>
      </trkpt>
      <trkpt lat="48.19927" lon="7.15574">
        <ele>977</ele>
        <time>2022-02-12T09:04:30Z</time>
      </trkpt>
      <trkpt lat="48.19927" lon="7.15574">
        <ele>977</ele>
        <time>2022-02-12T09:04:31Z</time>
      </trkpt>
      <trkpt lat="48.19927" lon="7.15574">
        <ele>977</ele>
        <time>2022-02-12T09:04:32Z</time>
      </trkpt>
      <trkpt lat="48.19927" lon="7.15574">
        <ele>977</ele>
        <time>2022-02-12T09:04:37Z</time>
      </trkpt>
      <trkpt lat="48.19933" lon="7.15584">
        <ele>977.5</ele>
        <time>2022-02-12T09:04:51Z</time>
      </trkpt>
      <trkpt lat="48.19939" lon="7.15593">
        <ele>976.9</ele>
        <time>2022-02-12T09:05:01Z</time>
      </trkpt>
      <trkpt lat="48.19943" lon="7.15606">
        <ele>976.4</ele>
        <time>2022-02-12T09:05:09Z</time>
      </trkpt>
      <trkpt lat="48.1995" lon="7.15615">
        <ele>976</ele>
        <time>2022-02-12T09:05:17Z</time>
      </trkpt>
      <trkpt lat="48.19955" lon="7.15628">
        <ele>975.5</ele>
        <time>2022-02-12T09:05:28Z</time>
      </trkpt>
      <trkpt lat="48.19963" lon="7.15635">
        <ele>975.1</ele>
        <time>2022-02-12T09:05:37Z</time>
      </trkpt>
      <trkpt lat="48.19969" lon="7.15646">
        <ele>974.8</ele>
        <time>2022-02-12T09:05:45Z</time>
      </trkpt>
      <trkpt lat="48.19975" lon="7.15657">
        <ele>974.4</ele>
        <time>2022-02-12T09:05:54Z</time>
      </trkpt>
      <trkpt lat="48.19981" lon="7.15668">
        <ele>974</ele>
        <time>2022-02-12T09:06:08Z</time>
      </trkpt>
      <trkpt lat="48.19982" lon="7.15669">
        <ele>974</ele>
        <time>2022-02-12T09:06:13Z</time>
      </trkpt>
      <trkpt lat="48.19982" lon="7.15669">
        <ele>974</ele>
        <time>2022-02-12T09:06:14Z</time>
      </trkpt>
      <trkpt lat="48.19982" lon="7.15669">
        <ele>974</ele>
        <time>2022-02-12T09:06:15Z</time>
      </trkpt>
      <trkpt lat="48.19982" lon="7.1567">
        <ele>973.9</ele>
        <time>2022-02-12T09:06:16Z</time>
      </trkpt>
      <trkpt lat="48.19984" lon="7.15684">
        <ele>973.6</ele>
        <time>2022-02-12T09:06:27Z</time>
      </trkpt>
      <trkpt lat="48.19987" lon="7.15696">
        <ele>973.3</ele>
        <time>2022-02-12T09:06:41Z</time>
      </trkpt>
      <trkpt lat="48.19986" lon="7.15696">
        <ele>973.3</ele>
        <time>2022-02-12T09:06:42Z</time>
      </trkpt>
      <trkpt lat="48.19986" lon="7.15696">
        <ele>973.3</ele>
        <time>2022-02-12T09:06:43Z</time>
      </trkpt>
      <trkpt lat="48.19987" lon="7.15696">
        <ele>973.3</ele>
        <time>2022-02-12T09:06:45Z</time>
      </trkpt>
      <trkpt lat="48.19987" lon="7.15696">
        <ele>973.3</ele>
        <time>2022-02-12T09:06:46Z</time>
      </trkpt>
      <trkpt lat="48.19987" lon="7.15697">
        <ele>973.3</ele>
        <time>2022-02-12T09:06:48Z</time>
      </trkpt>
      <trkpt lat="48.19992" lon="7.15706">
        <ele>972.9</ele>
        <time>2022-02-12T09:07:06Z</time>
      </trkpt>
      <trkpt lat="48.19992" lon="7.15706">
        <ele>972.9</ele>
        <time>2022-02-12T09:07:07Z</time>
      </trkpt>
      <trkpt lat="48.19993" lon="7.15703">
        <ele>972.8</ele>
        <time>2022-02-12T09:07:14Z</time>
      </trkpt>
      <trkpt lat="48.19993" lon="7.15703">
        <ele>972.8</ele>
        <time>2022-02-12T09:07:15Z</time>
      </trkpt>
      <trkpt lat="48.19994" lon="7.157">
        <ele>972.7</ele>
        <time>2022-02-12T09:07:22Z</time>
      </trkpt>
      <trkpt lat="48.19994" lon="7.157">
        <ele>972.7</ele>
        <time>2022-02-12T09:07:25Z</time>
      </trkpt>
      <trkpt lat="48.19994" lon="7.157">
        <ele>972.7</ele>
        <time>2022-02-12T09:07:34Z</time>
      </trkpt>
      <trkpt lat="48.19993" lon="7.157">
        <ele>972.6</ele>
        <time>2022-02-12T09:07:35Z</time>
      </trkpt>
      <trkpt lat="48.19993" lon="7.15702">
        <ele>972.6</ele>
        <time>2022-02-12T09:07:42Z</time>
      </trkpt>
      <trkpt lat="48.19993" lon="7.15702">
        <ele>972.6</ele>
        <time>2022-02-12T09:07:45Z</time>
      </trkpt>
      <trkpt lat="48.19992" lon="7.15704">
        <ele>972.5</ele>
        <time>2022-02-12T09:07:50Z</time>
      </trkpt>
      <trkpt lat="48.19991" lon="7.15704">
        <ele>972.5</ele>
        <time>2022-02-12T09:07:52Z</time>
      </trkpt>
      <trkpt lat="48.19991" lon="7.15704">
        <ele>972.5</ele>
        <time>2022-02-12T09:07:53Z</time>
      </trkpt>
      <trkpt lat="48.19991" lon="7.15704">
        <ele>972.5</ele>
        <time>2022-02-12T09:07:54Z</time>
      </trkpt>
      <trkpt lat="48.19991" lon="7.15704">
        <ele>972.4</ele>
        <time>2022-02-12T09:07:56Z</time>
      </trkpt>
      <trkpt lat="48.19991" lon="7.15704">
        <ele>972.4</ele>
        <time>2022-02-12T09:07:58Z</time>
      </trkpt>
      <trkpt lat="48.19988" lon="7.15707">
        <ele>972.2</ele>
        <time>2022-02-12T09:08:09Z</time>
      </trkpt>
      <trkpt lat="48.19988" lon="7.15708">
        <ele>972.2</ele>
        <time>2022-02-12T09:08:10Z</time>
      </trkpt>
      <trkpt lat="48.19989" lon="7.15708">
        <ele>972.2</ele>
        <time>2022-02-12T09:08:15Z</time>
      </trkpt>
      <trkpt lat="48.19989" lon="7.15708">
        <ele>972.2</ele>
        <time>2022-02-12T09:08:17Z</time>
      </trkpt>
      <trkpt lat="48.19992" lon="7.15707">
        <ele>972</ele>
        <time>2022-02-12T09:08:22Z</time>
      </trkpt>
      <trkpt lat="48.19992" lon="7.15707">
        <ele>971.4</ele>
        <time>2022-02-12T09:08:24Z</time>
      </trkpt>
      <trkpt lat="48.19992" lon="7.15707">
        <ele>971.4</ele>
        <time>2022-02-12T09:08:25Z</time>
      </trkpt>
      <trkpt lat="48.19992" lon="7.15707">
        <ele>971.4</ele>
        <time>2022-02-12T09:08:27Z</time>
      </trkpt>
      <trkpt lat="48.19992" lon="7.15707">
        <ele>971.4</ele>
        <time>2022-02-12T09:08:28Z</time>
      </trkpt>
      <trkpt lat="48.19993" lon="7.15707">
        <ele>971.4</ele>
        <time>2022-02-12T09:08:29Z</time>
      </trkpt>
      <trkpt lat="48.19993" lon="7.15707">
        <ele>971.4</ele>
        <time>2022-02-12T09:08:32Z</time>
      </trkpt>
      <trkpt lat="48.19993" lon="7.15707">
        <ele>971.4</ele>
        <time>2022-02-12T09:08:34Z</time>
      </trkpt>
      <trkpt lat="48.19994" lon="7.15706">
        <ele>971.4</ele>
        <time>2022-02-12T09:08:36Z</time>
      </trkpt>
      <trkpt lat="48.19993" lon="7.15706">
        <ele>971.4</ele>
        <time>2022-02-12T09:08:37Z</time>
      </trkpt>
      <trkpt lat="48.19994" lon="7.15707">
        <ele>971.4</ele>
        <time>2022-02-12T09:08:42Z</time>
      </trkpt>
      <trkpt lat="48.19994" lon="7.15707">
        <ele>971.4</ele>
        <time>2022-02-12T09:08:43Z</time>
      </trkpt>
      <trkpt lat="48.19991" lon="7.15706">
        <ele>971.4</ele>
        <time>2022-02-12T09:08:52Z</time>
      </trkpt>
      <trkpt lat="48.19991" lon="7.15705">
        <ele>971.4</ele>
        <time>2022-02-12T09:09:02Z</time>
      </trkpt>
      <trkpt lat="48.19991" lon="7.15704">
        <ele>971.4</ele>
        <time>2022-02-12T09:09:05Z</time>
      </trkpt>
      <trkpt lat="48.19991" lon="7.15704">
        <ele>971.4</ele>
        <time>2022-02-12T09:09:06Z</time>
      </trkpt>
      <trkpt lat="48.19991" lon="7.15705">
        <ele>971.4</ele>
        <time>2022-02-12T09:09:08Z</time>
      </trkpt>
      <trkpt lat="48.19991" lon="7.15705">
        <ele>971.4</ele>
        <time>2022-02-12T09:09:09Z</time>
      </trkpt>
      <trkpt lat="48.19991" lon="7.15709">
        <ele>971.4</ele>
        <time>2022-02-12T09:09:15Z</time>
      </trkpt>
      <trkpt lat="48.19991" lon="7.15709">
        <ele>971.4</ele>
        <time>2022-02-12T09:09:16Z</time>
      </trkpt>
      <trkpt lat="48.19991" lon="7.15709">
        <ele>971.4</ele>
        <time>2022-02-12T09:09:17Z</time>
      </trkpt>
      <trkpt lat="48.19991" lon="7.15709">
        <ele>971.4</ele>
        <time>2022-02-12T09:09:20Z</time>
      </trkpt>
      <trkpt lat="48.19995" lon="7.15706">
        <ele>971.4</ele>
        <time>2022-02-12T09:09:38Z</time>
      </trkpt>
      <trkpt lat="48.19994" lon="7.15706">
        <ele>971.4</ele>
        <time>2022-02-12T09:09:39Z</time>
      </trkpt>
      <trkpt lat="48.19994" lon="7.15706">
        <ele>971.4</ele>
        <time>2022-02-12T09:09:40Z</time>
      </trkpt>
      <trkpt lat="48.19995" lon="7.15705">
        <ele>971.4</ele>
        <time>2022-02-12T09:09:48Z</time>
      </trkpt>
      <trkpt lat="48.19995" lon="7.15705">
        <ele>971.4</ele>
        <time>2022-02-12T09:09:49Z</time>
      </trkpt>
      <trkpt lat="48.19995" lon="7.15705">
        <ele>971.4</ele>
        <time>2022-02-12T09:09:52Z</time>
      </trkpt>
      <trkpt lat="48.19995" lon="7.15707">
        <ele>971.4</ele>
        <time>2022-02-12T09:09:57Z</time>
      </trkpt>
      <trkpt lat="48.19994" lon="7.15707">
        <ele>971.4</ele>
        <time>2022-02-12T09:09:58Z</time>
      </trkpt>
      <trkpt lat="48.19995" lon="7.15708">
        <ele>971.4</ele>
        <time>2022-02-12T09:10:01Z</time>
      </trkpt>
      <trkpt lat="48.19995" lon="7.15708">
        <ele>971.4</ele>
        <time>2022-02-12T09:10:03Z</time>
      </trkpt>
      <trkpt lat="48.19994" lon="7.15709">
        <ele>971.4</ele>
        <time>2022-02-12T09:10:05Z</time>
      </trkpt>
      <trkpt lat="48.19994" lon="7.15708">
        <ele>971.4</ele>
        <time>2022-02-12T09:10:06Z</time>
      </trkpt>
      <trkpt lat="48.19994" lon="7.15708">
        <ele>971.4</ele>
        <time>2022-02-12T09:10:07Z</time>
      </trkpt>
      <trkpt lat="48.19994" lon="7.15709">
        <ele>971.4</ele>
        <time>2022-02-12T09:10:08Z</time>
      </trkpt>
      <trkpt lat="48.19994" lon="7.15709">
        <ele>971.4</ele>
        <time>2022-02-12T09:10:09Z</time>
      </trkpt>
      <trkpt lat="48.19994" lon="7.15708">
        <ele>971.4</ele>
        <time>2022-02-12T09:10:12Z</time>
      </trkpt>
      <trkpt lat="48.19994" lon="7.15708">
        <ele>971.4</ele>
        <time>2022-02-12T09:10:14Z</time>
      </trkpt>
      <trkpt lat="48.19994" lon="7.15708">
        <ele>971.4</ele>
        <time>2022-02-12T09:10:28Z</time>
      </trkpt>
      <trkpt lat="48.19994" lon="7.15708">
        <ele>971.4</ele>
        <time>2022-02-12T09:10:29Z</time>
      </trkpt>
      <trkpt lat="48.19994" lon="7.15708">
        <ele>971.4</ele>
        <time>2022-02-12T09:10:33Z</time>
      </trkpt>
      <trkpt lat="48.19994" lon="7.15708">
        <ele>971.4</ele>
        <time>2022-02-12T09:10:35Z</time>
      </trkpt>
      <trkpt lat="48.19994" lon="7.15708">
        <ele>971.4</ele>
        <time>2022-02-12T09:10:38Z</time>
      </trkpt>
      <trkpt lat="48.19994" lon="7.15707">
        <ele>971.4</ele>
        <time>2022-02-12T09:10:40Z</time>
      </trkpt>
      <trkpt lat="48.19994" lon="7.15706">
        <ele>971.4</ele>
        <time>2022-02-12T09:10:41Z</time>
      </trkpt>
      <trkpt lat="48.19995" lon="7.15706">
        <ele>971.4</ele>
        <time>2022-02-12T09:10:44Z</time>
      </trkpt>
      <trkpt lat="48.19995" lon="7.15706">
        <ele>971.4</ele>
        <time>2022-02-12T09:10:45Z</time>
      </trkpt>
      <trkpt lat="48.19995" lon="7.15706">
        <ele>971.4</ele>
        <time>2022-02-12T09:10:46Z</time>
      </trkpt>
      <trkpt lat="48.19995" lon="7.15706">
        <ele>971.4</ele>
        <time>2022-02-12T09:10:47Z</time>
      </trkpt>
      <trkpt lat="48.19995" lon="7.15706">
        <ele>971.4</ele>
        <time>2022-02-12T09:10:48Z</time>
      </trkpt>
      <trkpt lat="48.19995" lon="7.15707">
        <ele>971.4</ele>
        <time>2022-02-12T09:10:59Z</time>
      </trkpt>
      <trkpt lat="48.19995" lon="7.15707">
        <ele>971.4</ele>
        <time>2022-02-12T09:11:01Z</time>
      </trkpt>
      <trkpt lat="48.19995" lon="7.15707">
        <ele>971.4</ele>
        <time>2022-02-12T09:11:10Z</time>
      </trkpt>
      <trkpt lat="48.19995" lon="7.15707">
        <ele>971.4</ele>
        <time>2022-02-12T09:11:11Z</time>
      </trkpt>
      <trkpt lat="48.19996" lon="7.15707">
        <ele>971.4</ele>
        <time>2022-02-12T09:11:15Z</time>
      </trkpt>
      <trkpt lat="48.19996" lon="7.15707">
        <ele>971.4</ele>
        <time>2022-02-12T09:11:16Z</time>
      </trkpt>
      <trkpt lat="48.19996" lon="7.15707">
        <ele>971.4</ele>
        <time>2022-02-12T09:11:17Z</time>
      </trkpt>
      <trkpt lat="48.19996" lon="7.15707">
        <ele>971.4</ele>
        <time>2022-02-12T09:11:18Z</time>
      </trkpt>
      <trkpt lat="48.19996" lon="7.15706">
        <ele>971.4</ele>
        <time>2022-02-12T09:11:21Z</time>
      </trkpt>
      <trkpt lat="48.19996" lon="7.15706">
        <ele>971.4</ele>
        <time>2022-02-12T09:11:22Z</time>
      </trkpt>
      <trkpt lat="48.19996" lon="7.15706">
        <ele>971.4</ele>
        <time>2022-02-12T09:11:38Z</time>
      </trkpt>
      <trkpt lat="48.19996" lon="7.15706">
        <ele>971.4</ele>
        <time>2022-02-12T09:11:39Z</time>
      </trkpt>
      <trkpt lat="48.19995" lon="7.15707">
        <ele>971.4</ele>
        <time>2022-02-12T09:11:40Z</time>
      </trkpt>
      <trkpt lat="48.19995" lon="7.15707">
        <ele>971.4</ele>
        <time>2022-02-12T09:11:44Z</time>
      </trkpt>
      <trkpt lat="48.19995" lon="7.15707">
        <ele>971.4</ele>
        <time>2022-02-12T09:12:09Z</time>
      </trkpt>
      <trkpt lat="48.19995" lon="7.15707">
        <ele>971.4</ele>
        <time>2022-02-12T09:12:10Z</time>
      </trkpt>
      <trkpt lat="48.19995" lon="7.15707">
        <ele>971.4</ele>
        <time>2022-02-12T09:12:23Z</time>
      </trkpt>
      <trkpt lat="48.19995" lon="7.15706">
        <ele>971.4</ele>
        <time>2022-02-12T09:12:31Z</time>
      </trkpt>
      <trkpt lat="48.19996" lon="7.15705">
        <ele>971.4</ele>
        <time>2022-02-12T09:12:34Z</time>
      </trkpt>
      <trkpt lat="48.19996" lon="7.15705">
        <ele>971.4</ele>
        <time>2022-02-12T09:12:35Z</time>
      </trkpt>
      <trkpt lat="48.19996" lon="7.15705">
        <ele>971.4</ele>
        <time>2022-02-12T09:12:39Z</time>
      </trkpt>
      <trkpt lat="48.19996" lon="7.15705">
        <ele>971.4</ele>
        <time>2022-02-12T09:12:40Z</time>
      </trkpt>
      <trkpt lat="48.19996" lon="7.15706">
        <ele>971.4</ele>
        <time>2022-02-12T09:12:42Z</time>
      </trkpt>
      <trkpt lat="48.19996" lon="7.15706">
        <ele>971.4</ele>
        <time>2022-02-12T09:12:44Z</time>
      </trkpt>
      <trkpt lat="48.19996" lon="7.15706">
        <ele>971.4</ele>
        <time>2022-02-12T09:12:45Z</time>
      </trkpt>
      <trkpt lat="48.19996" lon="7.15706">
        <ele>971.4</ele>
        <time>2022-02-12T09:12:46Z</time>
      </trkpt>
      <trkpt lat="48.19996" lon="7.15705">
        <ele>971.4</ele>
        <time>2022-02-12T09:12:49Z</time>
      </trkpt>
      <trkpt lat="48.19996" lon="7.15705">
        <ele>971.4</ele>
        <time>2022-02-12T09:12:50Z</time>
      </trkpt>
      <trkpt lat="48.19996" lon="7.15705">
        <ele>971.4</ele>
        <time>2022-02-12T09:12:54Z</time>
      </trkpt>
      <trkpt lat="48.19994" lon="7.15703">
        <ele>971.4</ele>
        <time>2022-02-12T09:13:08Z</time>
      </trkpt>
      <trkpt lat="48.19994" lon="7.15703">
        <ele>971.4</ele>
        <time>2022-02-12T09:13:09Z</time>
      </trkpt>
      <trkpt lat="48.19992" lon="7.15693">
        <ele>971.4</ele>
        <time>2022-02-12T09:13:21Z</time>
      </trkpt>
      <trkpt lat="48.19992" lon="7.15694">
        <ele>977.1</ele>
        <time>2022-02-12T09:13:24Z</time>
      </trkpt>
      <trkpt lat="48.19992" lon="7.15696">
        <ele>977.4</ele>
        <time>2022-02-12T09:13:26Z</time>
      </trkpt>
      <trkpt lat="48.19992" lon="7.15696">
        <ele>977.4</ele>
        <time>2022-02-12T09:13:27Z</time>
      </trkpt>
      <trkpt lat="48.19992" lon="7.15696">
        <ele>977.4</ele>
        <time>2022-02-12T09:13:28Z</time>
      </trkpt>
      <trkpt lat="48.19992" lon="7.15696">
        <ele>977.5</ele>
        <time>2022-02-12T09:13:32Z</time>
      </trkpt>
      <trkpt lat="48.19992" lon="7.15696">
        <ele>977.6</ele>
        <time>2022-02-12T09:13:35Z</time>
      </trkpt>
      <trkpt lat="48.19992" lon="7.15696">
        <ele>977.6</ele>
        <time>2022-02-12T09:13:36Z</time>
      </trkpt>
      <trkpt lat="48.19992" lon="7.15696">
        <ele>977.6</ele>
        <time>2022-02-12T09:13:37Z</time>
      </trkpt>
      <trkpt lat="48.19993" lon="7.15696">
        <ele>977.8</ele>
        <time>2022-02-12T09:13:38Z</time>
      </trkpt>
      <trkpt lat="48.19993" lon="7.15696">
        <ele>977.8</ele>
        <time>2022-02-12T09:13:40Z</time>
      </trkpt>
      <trkpt lat="48.19993" lon="7.15696">
        <ele>977.8</ele>
        <time>2022-02-12T09:13:43Z</time>
      </trkpt>
      <trkpt lat="48.19993" lon="7.15696">
        <ele>977.8</ele>
        <time>2022-02-12T09:13:44Z</time>
      </trkpt>
      <trkpt lat="48.19993" lon="7.15696">
        <ele>977.9</ele>
        <time>2022-02-12T09:13:46Z</time>
      </trkpt>
      <trkpt lat="48.19993" lon="7.15696">
        <ele>977.9</ele>
        <time>2022-02-12T09:13:47Z</time>
      </trkpt>
      <trkpt lat="48.19993" lon="7.15696">
        <ele>978</ele>
        <time>2022-02-12T09:14:01Z</time>
      </trkpt>
      <trkpt lat="48.19994" lon="7.15696">
        <ele>978</ele>
        <time>2022-02-12T09:14:03Z</time>
      </trkpt>
      <trkpt lat="48.19994" lon="7.15696">
        <ele>978.1</ele>
        <time>2022-02-12T09:14:07Z</time>
      </trkpt>
      <trkpt lat="48.19994" lon="7.15697">
        <ele>978.3</ele>
        <time>2022-02-12T09:14:12Z</time>
      </trkpt>
      <trkpt lat="48.19994" lon="7.15697">
        <ele>978.4</ele>
        <time>2022-02-12T09:14:18Z</time>
      </trkpt>
      <trkpt lat="48.19992" lon="7.15692">
        <ele>979.3</ele>
        <time>2022-02-12T09:14:28Z</time>
      </trkpt>
      <trkpt lat="48.19992" lon="7.15692">
        <ele>979.4</ele>
        <time>2022-02-12T09:14:29Z</time>
      </trkpt>
      <trkpt lat="48.19985" lon="7.15682">
        <ele>981.7</ele>
        <time>2022-02-12T09:14:41Z</time>
      </trkpt>
      <trkpt lat="48.19985" lon="7.1568">
        <ele>982</ele>
        <time>2022-02-12T09:14:44Z</time>
      </trkpt>
      <trkpt lat="48.19985" lon="7.1568">
        <ele>982</ele>
        <time>2022-02-12T09:14:46Z</time>
      </trkpt>
      <trkpt lat="48.19985" lon="7.1568">
        <ele>982</ele>
        <time>2022-02-12T09:14:47Z</time>
      </trkpt>
      <trkpt lat="48.19985" lon="7.1568">
        <ele>982.1</ele>
        <time>2022-02-12T09:14:48Z</time>
      </trkpt>
      <trkpt lat="48.19985" lon="7.1568">
        <ele>982.1</ele>
        <time>2022-02-12T09:14:49Z</time>
      </trkpt>
      <trkpt lat="48.19985" lon="7.15679">
        <ele>982.3</ele>
        <time>2022-02-12T09:14:51Z</time>
      </trkpt>
      <trkpt lat="48.19985" lon="7.15678">
        <ele>982.4</ele>
        <time>2022-02-12T09:14:53Z</time>
      </trkpt>
      <trkpt lat="48.19984" lon="7.15679">
        <ele>982.4</ele>
        <time>2022-02-12T09:14:54Z</time>
      </trkpt>
      <trkpt lat="48.19985" lon="7.1568">
        <ele>982.7</ele>
        <time>2022-02-12T09:14:58Z</time>
      </trkpt>
      <trkpt lat="48.19984" lon="7.15681">
        <ele>982.9</ele>
        <time>2022-02-12T09:15:00Z</time>
      </trkpt>
      <trkpt lat="48.19984" lon="7.15681">
        <ele>983</ele>
        <time>2022-02-12T09:15:03Z</time>
      </trkpt>
      <trkpt lat="48.19984" lon="7.15682">
        <ele>983.1</ele>
        <time>2022-02-12T09:15:08Z</time>
      </trkpt>
      <trkpt lat="48.19984" lon="7.15682">
        <ele>983.1</ele>
        <time>2022-02-12T09:15:09Z</time>
      </trkpt>
      <trkpt lat="48.19983" lon="7.15682">
        <ele>983.2</ele>
        <time>2022-02-12T09:15:13Z</time>
      </trkpt>
      <trkpt lat="48.19983" lon="7.1568">
        <ele>983.5</ele>
        <time>2022-02-12T09:15:19Z</time>
      </trkpt>
      <trkpt lat="48.19983" lon="7.1568">
        <ele>983.6</ele>
        <time>2022-02-12T09:15:24Z</time>
      </trkpt>
      <trkpt lat="48.19983" lon="7.15678">
        <ele>983.9</ele>
        <time>2022-02-12T09:15:30Z</time>
      </trkpt>
      <trkpt lat="48.19983" lon="7.15678">
        <ele>983.9</ele>
        <time>2022-02-12T09:15:31Z</time>
      </trkpt>
      <trkpt lat="48.19983" lon="7.15679">
        <ele>984.2</ele>
        <time>2022-02-12T09:15:49Z</time>
      </trkpt>
      <trkpt lat="48.19983" lon="7.15679">
        <ele>984.3</ele>
        <time>2022-02-12T09:15:51Z</time>
      </trkpt>
      <trkpt lat="48.19983" lon="7.15679">
        <ele>984.3</ele>
        <time>2022-02-12T09:15:53Z</time>
      </trkpt>
      <trkpt lat="48.19983" lon="7.15679">
        <ele>984.4</ele>
        <time>2022-02-12T09:15:55Z</time>
      </trkpt>
      <trkpt lat="48.19979" lon="7.15672">
        <ele>985.9</ele>
        <time>2022-02-12T09:16:06Z</time>
      </trkpt>
      <trkpt lat="48.19979" lon="7.15672">
        <ele>985.9</ele>
        <time>2022-02-12T09:16:07Z</time>
      </trkpt>
      <trkpt lat="48.1997" lon="7.15671">
        <ele>988.2</ele>
        <time>2022-02-12T09:16:27Z</time>
      </trkpt>
      <trkpt lat="48.19969" lon="7.15671">
        <ele>988.4</ele>
        <time>2022-02-12T09:16:30Z</time>
      </trkpt>
      <trkpt lat="48.19969" lon="7.15671">
        <ele>988.4</ele>
        <time>2022-02-12T09:16:31Z</time>
      </trkpt>
      <trkpt lat="48.19962" lon="7.15662">
        <ele>990.8</ele>
        <time>2022-02-12T09:16:55Z</time>
      </trkpt>
      <trkpt lat="48.19953" lon="7.15657">
        <ele>993.2</ele>
        <time>2022-02-12T09:17:14Z</time>
      </trkpt>
      <trkpt lat="48.19945" lon="7.1565">
        <ele>995.6</ele>
        <time>2022-02-12T09:17:32Z</time>
      </trkpt>
      <trkpt lat="48.19948" lon="7.15649">
        <ele>996.2</ele>
        <time>2022-02-12T09:17:50Z</time>
      </trkpt>
      <trkpt lat="48.19948" lon="7.1565">
        <ele>996.5</ele>
        <time>2022-02-12T09:17:51Z</time>
      </trkpt>
      <trkpt lat="48.19939" lon="7.15647">
        <ele>998.9</ele>
        <time>2022-02-12T09:18:21Z</time>
      </trkpt>
      <trkpt lat="48.19936" lon="7.15637">
        <ele>1000.7</ele>
        <time>2022-02-12T09:18:29Z</time>
      </trkpt>
      <trkpt lat="48.19935" lon="7.15639">
        <ele>1001</ele>
        <time>2022-02-12T09:18:30Z</time>
      </trkpt>
      <trkpt lat="48.19934" lon="7.15634">
        <ele>1001.8</ele>
        <time>2022-02-12T09:18:43Z</time>
      </trkpt>
      <trkpt lat="48.19934" lon="7.15634">
        <ele>1001.9</ele>
        <time>2022-02-12T09:18:48Z</time>
      </trkpt>
      <trkpt lat="48.19925" lon="7.15632">
        <ele>1004.2</ele>
        <time>2022-02-12T09:19:07Z</time>
      </trkpt>
      <trkpt lat="48.19922" lon="7.15624">
        <ele>1005.8</ele>
        <time>2022-02-12T09:19:37Z</time>
      </trkpt>
      <trkpt lat="48.19922" lon="7.15624">
        <ele>1005.8</ele>
        <time>2022-02-12T09:19:38Z</time>
      </trkpt>
      <trkpt lat="48.19918" lon="7.15625">
        <ele>1006.7</ele>
        <time>2022-02-12T09:19:50Z</time>
      </trkpt>
      <trkpt lat="48.19918" lon="7.15625">
        <ele>1006.8</ele>
        <time>2022-02-12T09:19:55Z</time>
      </trkpt>
      <trkpt lat="48.19918" lon="7.15625">
        <ele>1007</ele>
        <time>2022-02-12T09:19:58Z</time>
      </trkpt>
      <trkpt lat="48.19918" lon="7.15625">
        <ele>1007</ele>
        <time>2022-02-12T09:19:59Z</time>
      </trkpt>
      <trkpt lat="48.19909" lon="7.15622">
        <ele>1009.3</ele>
        <time>2022-02-12T09:20:12Z</time>
      </trkpt>
      <trkpt lat="48.19902" lon="7.15612">
        <ele>1011.7</ele>
        <time>2022-02-12T09:20:29Z</time>
      </trkpt>
      <trkpt lat="48.19899" lon="7.15609">
        <ele>1012.7</ele>
        <time>2022-02-12T09:20:43Z</time>
      </trkpt>
      <trkpt lat="48.19899" lon="7.15608">
        <ele>1012.8</ele>
        <time>2022-02-12T09:20:44Z</time>
      </trkpt>
      <trkpt lat="48.19899" lon="7.15608">
        <ele>1012.8</ele>
        <time>2022-02-12T09:20:46Z</time>
      </trkpt>
      <trkpt lat="48.19899" lon="7.15608">
        <ele>1012.9</ele>
        <time>2022-02-12T09:20:47Z</time>
      </trkpt>
      <trkpt lat="48.19899" lon="7.15611">
        <ele>1013.4</ele>
        <time>2022-02-12T09:20:58Z</time>
      </trkpt>
      <trkpt lat="48.19899" lon="7.15612">
        <ele>1013.6</ele>
        <time>2022-02-12T09:20:59Z</time>
      </trkpt>
      <trkpt lat="48.19899" lon="7.15612">
        <ele>1013.6</ele>
        <time>2022-02-12T09:21:00Z</time>
      </trkpt>
      <trkpt lat="48.19899" lon="7.15612">
        <ele>1013.7</ele>
        <time>2022-02-12T09:21:02Z</time>
      </trkpt>
      <trkpt lat="48.19897" lon="7.15615">
        <ele>1014.5</ele>
        <time>2022-02-12T09:21:14Z</time>
      </trkpt>
      <trkpt lat="48.19897" lon="7.15615">
        <ele>1014.7</ele>
        <time>2022-02-12T09:21:16Z</time>
      </trkpt>
      <trkpt lat="48.19888" lon="7.15609">
        <ele>1017</ele>
        <time>2022-02-12T09:21:51Z</time>
      </trkpt>
      <trkpt lat="48.19889" lon="7.15607">
        <ele>1017.4</ele>
        <time>2022-02-12T09:21:54Z</time>
      </trkpt>
      <trkpt lat="48.19889" lon="7.15608">
        <ele>1017.5</ele>
        <time>2022-02-12T09:21:56Z</time>
      </trkpt>
      <trkpt lat="48.1988" lon="7.15612">
        <ele>1019.8</ele>
        <time>2022-02-12T09:22:16Z</time>
      </trkpt>
      <trkpt lat="48.19876" lon="7.1561">
        <ele>1021</ele>
        <time>2022-02-12T09:22:26Z</time>
      </trkpt>
      <trkpt lat="48.19876" lon="7.1561">
        <ele>1024.3</ele>
        <time>2022-02-12T09:22:28Z</time>
      </trkpt>
      <trkpt lat="48.19875" lon="7.15609">
        <ele>1024.4</ele>
        <time>2022-02-12T09:22:40Z</time>
      </trkpt>
      <trkpt lat="48.19875" lon="7.1561">
        <ele>1024.4</ele>
        <time>2022-02-12T09:22:41Z</time>
      </trkpt>
      <trkpt lat="48.19877" lon="7.15611">
        <ele>1024.6</ele>
        <time>2022-02-12T09:22:54Z</time>
      </trkpt>
      <trkpt lat="48.19877" lon="7.15611">
        <ele>1024.6</ele>
        <time>2022-02-12T09:23:04Z</time>
      </trkpt>
      <trkpt lat="48.19877" lon="7.1561">
        <ele>1024.7</ele>
        <time>2022-02-12T09:23:06Z</time>
      </trkpt>
      <trkpt lat="48.19876" lon="7.1561">
        <ele>1024.7</ele>
        <time>2022-02-12T09:23:14Z</time>
      </trkpt>
      <trkpt lat="48.19884" lon="7.15617">
        <ele>1025.4</ele>
        <time>2022-02-12T09:23:39Z</time>
      </trkpt>
      <trkpt lat="48.19889" lon="7.15629">
        <ele>1026.3</ele>
        <time>2022-02-12T09:23:49Z</time>
      </trkpt>
      <trkpt lat="48.19889" lon="7.15631">
        <ele>1026.4</ele>
        <time>2022-02-12T09:23:51Z</time>
      </trkpt>
      <trkpt lat="48.19889" lon="7.15632">
        <ele>1026.4</ele>
        <time>2022-02-12T09:23:52Z</time>
      </trkpt>
      <trkpt lat="48.19896" lon="7.15644">
        <ele>1027.5</ele>
        <time>2022-02-12T09:23:59Z</time>
      </trkpt>
      <trkpt lat="48.19897" lon="7.15657">
        <ele>1028.3</ele>
        <time>2022-02-12T09:24:07Z</time>
      </trkpt>
      <trkpt lat="48.19901" lon="7.15671">
        <ele>1029.2</ele>
        <time>2022-02-12T09:24:26Z</time>
      </trkpt>
      <trkpt lat="48.19902" lon="7.15686">
        <ele>1030.1</ele>
        <time>2022-02-12T09:24:37Z</time>
      </trkpt>
      <trkpt lat="48.19904" lon="7.15696">
        <ele>1030.7</ele>
        <time>2022-02-12T09:24:46Z</time>
      </trkpt>
      <trkpt lat="48.19904" lon="7.15697">
        <ele>1030.7</ele>
        <time>2022-02-12T09:24:47Z</time>
      </trkpt>
      <trkpt lat="48.19908" lon="7.1571">
        <ele>1031.5</ele>
        <time>2022-02-12T09:24:56Z</time>
      </trkpt>
      <trkpt lat="48.19914" lon="7.1572">
        <ele>1032.2</ele>
        <time>2022-02-12T09:25:03Z</time>
      </trkpt>
      <trkpt lat="48.19918" lon="7.15734">
        <ele>1033.1</ele>
        <time>2022-02-12T09:25:15Z</time>
      </trkpt>
      <trkpt lat="48.19913" lon="7.15746">
        <ele>1033.9</ele>
        <time>2022-02-12T09:25:29Z</time>
      </trkpt>
      <trkpt lat="48.19913" lon="7.1576">
        <ele>1034.9</ele>
        <time>2022-02-12T09:25:43Z</time>
      </trkpt>
      <trkpt lat="48.19919" lon="7.15772">
        <ele>1035.9</ele>
        <time>2022-02-12T09:25:56Z</time>
      </trkpt>
      <trkpt lat="48.19921" lon="7.15786">
        <ele>1036.9</ele>
        <time>2022-02-12T09:26:06Z</time>
      </trkpt>
      <trkpt lat="48.19921" lon="7.15799">
        <ele>1037.7</ele>
        <time>2022-02-12T09:26:21Z</time>
      </trkpt>
      <trkpt lat="48.19919" lon="7.15813">
        <ele>1038.5</ele>
        <time>2022-02-12T09:26:32Z</time>
      </trkpt>
      <trkpt lat="48.19923" lon="7.15827">
        <ele>1039.4</ele>
        <time>2022-02-12T09:26:45Z</time>
      </trkpt>
      <trkpt lat="48.19928" lon="7.15839">
        <ele>1040.2</ele>
        <time>2022-02-12T09:27:00Z</time>
      </trkpt>
      <trkpt lat="48.19922" lon="7.15845">
        <ele>1040.9</ele>
        <time>2022-02-12T09:27:12Z</time>
      </trkpt>
      <trkpt lat="48.19922" lon="7.15845">
        <ele>1040.9</ele>
        <time>2022-02-12T09:27:13Z</time>
      </trkpt>
      <trkpt lat="48.19927" lon="7.15851">
        <ele>1041.5</ele>
        <time>2022-02-12T09:27:34Z</time>
      </trkpt>
      <trkpt lat="48.19927" lon="7.1585">
        <ele>1041.6</ele>
        <time>2022-02-12T09:27:35Z</time>
      </trkpt>
      <trkpt lat="48.19923" lon="7.15849">
        <ele>1042</ele>
        <time>2022-02-12T09:27:57Z</time>
      </trkpt>
      <trkpt lat="48.19923" lon="7.15849">
        <ele>1042</ele>
        <time>2022-02-12T09:27:58Z</time>
      </trkpt>
      <trkpt lat="48.19927" lon="7.15848">
        <ele>1042.4</ele>
        <time>2022-02-12T09:28:19Z</time>
      </trkpt>
      <trkpt lat="48.19926" lon="7.15848">
        <ele>1042.4</ele>
        <time>2022-02-12T09:28:20Z</time>
      </trkpt>
      <trkpt lat="48.19926" lon="7.15849">
        <ele>1042.5</ele>
        <time>2022-02-12T09:28:44Z</time>
      </trkpt>
      <trkpt lat="48.19925" lon="7.15849">
        <ele>1042.5</ele>
        <time>2022-02-12T09:28:45Z</time>
      </trkpt>
      <trkpt lat="48.19919" lon="7.15847">
        <ele>1043.2</ele>
        <time>2022-02-12T09:29:39Z</time>
      </trkpt>
      <trkpt lat="48.19919" lon="7.15847">
        <ele>1043.2</ele>
        <time>2022-02-12T09:29:40Z</time>
      </trkpt>
      <trkpt lat="48.19919" lon="7.15847">
        <ele>1043.2</ele>
        <time>2022-02-12T09:29:41Z</time>
      </trkpt>
      <trkpt lat="48.19919" lon="7.15847">
        <ele>1043.2</ele>
        <time>2022-02-12T09:29:44Z</time>
      </trkpt>
      <trkpt lat="48.19928" lon="7.15848">
        <ele>1044.2</ele>
        <time>2022-02-12T09:29:57Z</time>
      </trkpt>
      <trkpt lat="48.19928" lon="7.15848">
        <ele>1044.2</ele>
        <time>2022-02-12T09:29:58Z</time>
      </trkpt>
      <trkpt lat="48.19928" lon="7.15849">
        <ele>1044.2</ele>
        <time>2022-02-12T09:29:59Z</time>
      </trkpt>
      <trkpt lat="48.19925" lon="7.15849">
        <ele>1044.5</ele>
        <time>2022-02-12T09:30:42Z</time>
      </trkpt>
      <trkpt lat="48.19925" lon="7.15849">
        <ele>1044.6</ele>
        <time>2022-02-12T09:30:45Z</time>
      </trkpt>
      <trkpt lat="48.19931" lon="7.15852">
        <ele>1045.1</ele>
        <time>2022-02-12T09:31:00Z</time>
      </trkpt>
      <trkpt lat="48.19932" lon="7.15851">
        <ele>1045.2</ele>
        <time>2022-02-12T09:31:01Z</time>
      </trkpt>
      <trkpt lat="48.19929" lon="7.15852">
        <ele>1045.4</ele>
        <time>2022-02-12T09:31:56Z</time>
      </trkpt>
      <trkpt lat="48.19929" lon="7.15851">
        <ele>1045.4</ele>
        <time>2022-02-12T09:31:57Z</time>
      </trkpt>
      <trkpt lat="48.19929" lon="7.15854">
        <ele>1045.7</ele>
        <time>2022-02-12T09:32:26Z</time>
      </trkpt>
      <trkpt lat="48.19928" lon="7.15855">
        <ele>1045.8</ele>
        <time>2022-02-12T09:32:27Z</time>
      </trkpt>
      <trkpt lat="48.19928" lon="7.15869">
        <ele>1047.4</ele>
        <time>2022-02-12T09:32:42Z</time>
      </trkpt>
      <trkpt lat="48.1993" lon="7.15882">
        <ele>1049</ele>
        <time>2022-02-12T09:33:02Z</time>
      </trkpt>
      <trkpt lat="48.19929" lon="7.15897">
        <ele>1050.8</ele>
        <time>2022-02-12T09:33:20Z</time>
      </trkpt>
      <trkpt lat="48.1993" lon="7.15911">
        <ele>1052.8</ele>
        <time>2022-02-12T09:33:29Z</time>
      </trkpt>
      <trkpt lat="48.19932" lon="7.15924">
        <ele>1054.6</ele>
        <time>2022-02-12T09:33:34Z</time>
      </trkpt>
      <trkpt lat="48.19939" lon="7.15933">
        <ele>1056.4</ele>
        <time>2022-02-12T09:33:40Z</time>
      </trkpt>
      <trkpt lat="48.19945" lon="7.15946">
        <ele>1058.4</ele>
        <time>2022-02-12T09:33:50Z</time>
      </trkpt>
      <trkpt lat="48.19948" lon="7.15955">
        <ele>1059.8</ele>
        <time>2022-02-12T09:33:58Z</time>
      </trkpt>
      <trkpt lat="48.19948" lon="7.15956">
        <ele>1059.9</ele>
        <time>2022-02-12T09:33:59Z</time>
      </trkpt>
      <trkpt lat="48.19952" lon="7.15968">
        <ele>1061.8</ele>
        <time>2022-02-12T09:34:09Z</time>
      </trkpt>
      <trkpt lat="48.19948" lon="7.15981">
        <ele>1063.8</ele>
        <time>2022-02-12T09:34:17Z</time>
      </trkpt>
      <trkpt lat="48.1995" lon="7.15995">
        <ele>1066.1</ele>
        <time>2022-02-12T09:34:26Z</time>
      </trkpt>
      <trkpt lat="48.19953" lon="7.16009">
        <ele>1068.5</ele>
        <time>2022-02-12T09:34:40Z</time>
      </trkpt>
      <trkpt lat="48.19943" lon="7.16005">
        <ele>1070.7</ele>
        <time>2022-02-12T09:35:07Z</time>
      </trkpt>
      <trkpt lat="48.19938" lon="7.15995">
        <ele>1072.4</ele>
        <time>2022-02-12T09:35:19Z</time>
      </trkpt>
      <trkpt lat="48.19932" lon="7.15984">
        <ele>1074.2</ele>
        <time>2022-02-12T09:35:32Z</time>
      </trkpt>
      <trkpt lat="48.19926" lon="7.15973">
        <ele>1076</ele>
        <time>2022-02-12T09:35:44Z</time>
      </trkpt>
      <trkpt lat="48.19918" lon="7.15964">
        <ele>1077.9</ele>
        <time>2022-02-12T09:35:52Z</time>
      </trkpt>
      <trkpt lat="48.19911" lon="7.15955">
        <ele>1079.6</ele>
        <time>2022-02-12T09:36:09Z</time>
      </trkpt>
      <trkpt lat="48.19904" lon="7.15945">
        <ele>1081.4</ele>
        <time>2022-02-12T09:36:16Z</time>
      </trkpt>
      <trkpt lat="48.19895" lon="7.15939">
        <ele>1083.2</ele>
        <time>2022-02-12T09:36:26Z</time>
      </trkpt>
      <trkpt lat="48.19889" lon="7.15927">
        <ele>1085.2</ele>
        <time>2022-02-12T09:36:36Z</time>
      </trkpt>
      <trkpt lat="48.1988" lon="7.15919">
        <ele>1087.1</ele>
        <time>2022-02-12T09:36:42Z</time>
      </trkpt>
      <trkpt lat="48.19876" lon="7.15906">
        <ele>1089</ele>
        <time>2022-02-12T09:36:51Z</time>
      </trkpt>
      <trkpt lat="48.19874" lon="7.15901">
        <ele>1089.9</ele>
        <time>2022-02-12T09:37:00Z</time>
      </trkpt>
      <trkpt lat="48.19875" lon="7.15901">
        <ele>1090.1</ele>
        <time>2022-02-12T09:37:01Z</time>
      </trkpt>
      <trkpt lat="48.19869" lon="7.1589">
        <ele>1091.9</ele>
        <time>2022-02-12T09:37:13Z</time>
      </trkpt>
      <trkpt lat="48.19864" lon="7.15881">
        <ele>1092.4</ele>
        <time>2022-02-12T09:37:32Z</time>
      </trkpt>
      <trkpt lat="48.19863" lon="7.15882">
        <ele>1092.4</ele>
        <time>2022-02-12T09:37:33Z</time>
      </trkpt>
      <trkpt lat="48.19858" lon="7.1587">
        <ele>1092.4</ele>
        <time>2022-02-12T09:37:54Z</time>
      </trkpt>
      <trkpt lat="48.19853" lon="7.15859">
        <ele>1092.5</ele>
        <time>2022-02-12T09:38:08Z</time>
      </trkpt>
      <trkpt lat="48.19849" lon="7.15845">
        <ele>1094.2</ele>
        <time>2022-02-12T09:38:21Z</time>
      </trkpt>
      <trkpt lat="48.19841" lon="7.15838">
        <ele>1095.3</ele>
        <time>2022-02-12T09:38:29Z</time>
      </trkpt>
      <trkpt lat="48.19833" lon="7.15831">
        <ele>1096.4</ele>
        <time>2022-02-12T09:38:35Z</time>
      </trkpt>
      <trkpt lat="48.19831" lon="7.15817">
        <ele>1097.4</ele>
        <time>2022-02-12T09:38:46Z</time>
      </trkpt>
      <trkpt lat="48.19822" lon="7.15814">
        <ele>1098.5</ele>
        <time>2022-02-12T09:39:00Z</time>
      </trkpt>
      <trkpt lat="48.19821" lon="7.15815">
        <ele>1098.6</ele>
        <time>2022-02-12T09:39:07Z</time>
      </trkpt>
      <trkpt lat="48.19822" lon="7.15814">
        <ele>1098.7</ele>
        <time>2022-02-12T09:39:08Z</time>
      </trkpt>
      <trkpt lat="48.19816" lon="7.15804">
        <ele>1100</ele>
        <time>2022-02-12T09:39:20Z</time>
      </trkpt>
      <trkpt lat="48.19814" lon="7.15793">
        <ele>1101</ele>
        <time>2022-02-12T09:39:33Z</time>
      </trkpt>
      <trkpt lat="48.19814" lon="7.15793">
        <ele>1101.1</ele>
        <time>2022-02-12T09:39:34Z</time>
      </trkpt>
      <trkpt lat="48.19805" lon="7.15786">
        <ele>1102.4</ele>
        <time>2022-02-12T09:40:07Z</time>
      </trkpt>
      <trkpt lat="48.19796" lon="7.15782">
        <ele>1103.7</ele>
        <time>2022-02-12T09:40:21Z</time>
      </trkpt>
      <trkpt lat="48.19789" lon="7.15771">
        <ele>1105</ele>
        <time>2022-02-12T09:40:31Z</time>
      </trkpt>
      <trkpt lat="48.19782" lon="7.15763">
        <ele>1106.2</ele>
        <time>2022-02-12T09:40:38Z</time>
      </trkpt>
      <trkpt lat="48.19775" lon="7.15752">
        <ele>1107.6</ele>
        <time>2022-02-12T09:40:46Z</time>
      </trkpt>
      <trkpt lat="48.19768" lon="7.15741">
        <ele>1108.9</ele>
        <time>2022-02-12T09:40:53Z</time>
      </trkpt>
      <trkpt lat="48.19759" lon="7.15735">
        <ele>1110.1</ele>
        <time>2022-02-12T09:41:02Z</time>
      </trkpt>
      <trkpt lat="48.19758" lon="7.15734">
        <ele>1110.2</ele>
        <time>2022-02-12T09:41:05Z</time>
      </trkpt>
      <trkpt lat="48.19758" lon="7.15734">
        <ele>1110.3</ele>
        <time>2022-02-12T09:41:06Z</time>
      </trkpt>
      <trkpt lat="48.19752" lon="7.15725">
        <ele>1111.3</ele>
        <time>2022-02-12T09:41:17Z</time>
      </trkpt>
      <trkpt lat="48.19752" lon="7.15724">
        <ele>1111.3</ele>
        <time>2022-02-12T09:41:18Z</time>
      </trkpt>
      <trkpt lat="48.19743" lon="7.15721">
        <ele>1112.5</ele>
        <time>2022-02-12T09:41:39Z</time>
      </trkpt>
      <trkpt lat="48.19736" lon="7.15711">
        <ele>1113.7</ele>
        <time>2022-02-12T09:41:55Z</time>
      </trkpt>
      <trkpt lat="48.19729" lon="7.15702">
        <ele>1114.9</ele>
        <time>2022-02-12T09:42:08Z</time>
      </trkpt>
      <trkpt lat="48.19721" lon="7.15694">
        <ele>1116.2</ele>
        <time>2022-02-12T09:42:18Z</time>
      </trkpt>
      <trkpt lat="48.19711" lon="7.15693">
        <ele>1117.4</ele>
        <time>2022-02-12T09:42:25Z</time>
      </trkpt>
      <trkpt lat="48.1971" lon="7.15695">
        <ele>1117.7</ele>
        <time>2022-02-12T09:42:30Z</time>
      </trkpt>
      <trkpt lat="48.1971" lon="7.15696">
        <ele>1117.7</ele>
        <time>2022-02-12T09:42:31Z</time>
      </trkpt>
      <trkpt lat="48.19702" lon="7.15688">
        <ele>1119</ele>
        <time>2022-02-12T09:42:42Z</time>
      </trkpt>
      <trkpt lat="48.19694" lon="7.15679">
        <ele>1120.4</ele>
        <time>2022-02-12T09:42:50Z</time>
      </trkpt>
      <trkpt lat="48.1969" lon="7.15666">
        <ele>1121.8</ele>
        <time>2022-02-12T09:43:20Z</time>
      </trkpt>
      <trkpt lat="48.1968" lon="7.15663">
        <ele>1123.1</ele>
        <time>2022-02-12T09:43:28Z</time>
      </trkpt>
      <trkpt lat="48.19671" lon="7.15659">
        <ele>1124.2</ele>
        <time>2022-02-12T09:43:42Z</time>
      </trkpt>
      <trkpt lat="48.19666" lon="7.15656">
        <ele>1124.9</ele>
        <time>2022-02-12T09:44:00Z</time>
      </trkpt>
      <trkpt lat="48.19664" lon="7.15655">
        <ele>1125</ele>
        <time>2022-02-12T09:44:01Z</time>
      </trkpt>
      <trkpt lat="48.19658" lon="7.15646">
        <ele>1126.2</ele>
        <time>2022-02-12T09:44:13Z</time>
      </trkpt>
      <trkpt lat="48.19648" lon="7.15643">
        <ele>1127.4</ele>
        <time>2022-02-12T09:44:20Z</time>
      </trkpt>
      <trkpt lat="48.1964" lon="7.15639">
        <ele>1128.6</ele>
        <time>2022-02-12T09:44:31Z</time>
      </trkpt>
      <trkpt lat="48.19635" lon="7.15627">
        <ele>1129.8</ele>
        <time>2022-02-12T09:44:44Z</time>
      </trkpt>
      <trkpt lat="48.19635" lon="7.15612">
        <ele>1130.9</ele>
        <time>2022-02-12T09:44:56Z</time>
      </trkpt>
      <trkpt lat="48.19634" lon="7.15598">
        <ele>1132.1</ele>
        <time>2022-02-12T09:45:10Z</time>
      </trkpt>
      <trkpt lat="48.19632" lon="7.15594">
        <ele>1132.6</ele>
        <time>2022-02-12T09:45:20Z</time>
      </trkpt>
      <trkpt lat="48.19632" lon="7.15594">
        <ele>1132.7</ele>
        <time>2022-02-12T09:45:21Z</time>
      </trkpt>
      <trkpt lat="48.19631" lon="7.15606">
        <ele>1133.7</ele>
        <time>2022-02-12T09:45:42Z</time>
      </trkpt>
      <trkpt lat="48.19631" lon="7.15606">
        <ele>1133.7</ele>
        <time>2022-02-12T09:45:43Z</time>
      </trkpt>
      <trkpt lat="48.19621" lon="7.15603">
        <ele>1135</ele>
        <time>2022-02-12T09:46:24Z</time>
      </trkpt>
      <trkpt lat="48.1962" lon="7.15589">
        <ele>1136.1</ele>
        <time>2022-02-12T09:46:44Z</time>
      </trkpt>
      <trkpt lat="48.19619" lon="7.15583">
        <ele>1136.6</ele>
        <time>2022-02-12T09:46:52Z</time>
      </trkpt>
      <trkpt lat="48.19619" lon="7.15583">
        <ele>1136.7</ele>
        <time>2022-02-12T09:46:53Z</time>
      </trkpt>
      <trkpt lat="48.19611" lon="7.15575">
        <ele>1137.8</ele>
        <time>2022-02-12T09:47:07Z</time>
      </trkpt>
      <trkpt lat="48.19604" lon="7.15566">
        <ele>1138.9</ele>
        <time>2022-02-12T09:47:14Z</time>
      </trkpt>
      <trkpt lat="48.19595" lon="7.15561">
        <ele>1140.1</ele>
        <time>2022-02-12T09:47:21Z</time>
      </trkpt>
      <trkpt lat="48.19585" lon="7.15558">
        <ele>1141.3</ele>
        <time>2022-02-12T09:47:45Z</time>
      </trkpt>
      <trkpt lat="48.19579" lon="7.15548">
        <ele>1142.3</ele>
        <time>2022-02-12T09:47:56Z</time>
      </trkpt>
      <trkpt lat="48.19572" lon="7.15538">
        <ele>1143.5</ele>
        <time>2022-02-12T09:48:08Z</time>
      </trkpt>
      <trkpt lat="48.19562" lon="7.15537">
        <ele>1144.8</ele>
        <time>2022-02-12T09:48:15Z</time>
      </trkpt>
      <trkpt lat="48.19553" lon="7.15536">
        <ele>1146</ele>
        <time>2022-02-12T09:48:35Z</time>
      </trkpt>
      <trkpt lat="48.19544" lon="7.15537">
        <ele>1147.3</ele>
        <time>2022-02-12T09:48:47Z</time>
      </trkpt>
      <trkpt lat="48.19537" lon="7.15525">
        <ele>1148.8</ele>
        <time>2022-02-12T09:48:54Z</time>
      </trkpt>
      <trkpt lat="48.19529" lon="7.15526">
        <ele>1150</ele>
        <time>2022-02-12T09:49:08Z</time>
      </trkpt>
      <trkpt lat="48.19529" lon="7.15525">
        <ele>1150</ele>
        <time>2022-02-12T09:49:09Z</time>
      </trkpt>
      <trkpt lat="48.19524" lon="7.15512">
        <ele>1151.5</ele>
        <time>2022-02-12T09:49:19Z</time>
      </trkpt>
      <trkpt lat="48.19515" lon="7.15504">
        <ele>1152.9</ele>
        <time>2022-02-12T09:49:43Z</time>
      </trkpt>
      <trkpt lat="48.19506" lon="7.15499">
        <ele>1154.2</ele>
        <time>2022-02-12T09:49:55Z</time>
      </trkpt>
      <trkpt lat="48.19502" lon="7.15494">
        <ele>1154.8</ele>
        <time>2022-02-12T09:50:00Z</time>
      </trkpt>
      <trkpt lat="48.19501" lon="7.15495">
        <ele>1154.9</ele>
        <time>2022-02-12T09:50:01Z</time>
      </trkpt>
      <trkpt lat="48.19494" lon="7.15504">
        <ele>1156.1</ele>
        <time>2022-02-12T09:50:44Z</time>
      </trkpt>
      <trkpt lat="48.1949" lon="7.15514">
        <ele>1157</ele>
        <time>2022-02-12T09:50:52Z</time>
      </trkpt>
      <trkpt lat="48.19489" lon="7.15514">
        <ele>1157.1</ele>
        <time>2022-02-12T09:50:53Z</time>
      </trkpt>
      <trkpt lat="48.19484" lon="7.15502">
        <ele>1158.4</ele>
        <time>2022-02-12T09:51:04Z</time>
      </trkpt>
      <trkpt lat="48.19475" lon="7.15494">
        <ele>1159.7</ele>
        <time>2022-02-12T09:51:28Z</time>
      </trkpt>
      <trkpt lat="48.19468" lon="7.15486">
        <ele>1161</ele>
        <time>2022-02-12T09:51:37Z</time>
      </trkpt>
      <trkpt lat="48.19463" lon="7.15475">
        <ele>1161.9</ele>
        <time>2022-02-12T09:51:51Z</time>
      </trkpt>
      <trkpt lat="48.19471" lon="7.15469">
        <ele>1162.5</ele>
        <time>2022-02-12T09:52:39Z</time>
      </trkpt>
      <trkpt lat="48.1948" lon="7.15467">
        <ele>1162.4</ele>
        <time>2022-02-12T09:52:56Z</time>
      </trkpt>
      <trkpt lat="48.19471" lon="7.15473">
        <ele>1162.5</ele>
        <time>2022-02-12T09:53:49Z</time>
      </trkpt>
      <trkpt lat="48.19468" lon="7.15486">
        <ele>1162.7</ele>
        <time>2022-02-12T09:54:10Z</time>
      </trkpt>
      <trkpt lat="48.19474" lon="7.15497">
        <ele>1162.8</ele>
        <time>2022-02-12T09:54:38Z</time>
      </trkpt>
      <trkpt lat="48.19479" lon="7.15509">
        <ele>1163.1</ele>
        <time>2022-02-12T09:54:44Z</time>
      </trkpt>
      <trkpt lat="48.19487" lon="7.15517">
        <ele>1163.3</ele>
        <time>2022-02-12T09:54:49Z</time>
      </trkpt>
      <trkpt lat="48.19495" lon="7.15523">
        <ele>1163.6</ele>
        <time>2022-02-12T09:54:58Z</time>
      </trkpt>
      <trkpt lat="48.19504" lon="7.15529">
        <ele>1164.1</ele>
        <time>2022-02-12T09:55:05Z</time>
      </trkpt>
      <trkpt lat="48.19513" lon="7.15533">
        <ele>1164.5</ele>
        <time>2022-02-12T09:55:10Z</time>
      </trkpt>
      <trkpt lat="48.19521" lon="7.15541">
        <ele>1165</ele>
        <time>2022-02-12T09:55:26Z</time>
      </trkpt>
      <trkpt lat="48.19528" lon="7.1555">
        <ele>1165.4</ele>
        <time>2022-02-12T09:55:35Z</time>
      </trkpt>
      <trkpt lat="48.19526" lon="7.15564">
        <ele>1165.9</ele>
        <time>2022-02-12T09:55:44Z</time>
      </trkpt>
      <trkpt lat="48.19534" lon="7.15573">
        <ele>1166.4</ele>
        <time>2022-02-12T09:55:49Z</time>
      </trkpt>
      <trkpt lat="48.19542" lon="7.15583">
        <ele>1167</ele>
        <time>2022-02-12T09:55:56Z</time>
      </trkpt>
      <trkpt lat="48.19542" lon="7.15597">
        <ele>1167.5</ele>
        <time>2022-02-12T09:56:03Z</time>
      </trkpt>
      <trkpt lat="48.19544" lon="7.15611">
        <ele>1167.9</ele>
        <time>2022-02-12T09:56:14Z</time>
      </trkpt>
      <trkpt lat="48.19549" lon="7.15624">
        <ele>1168.2</ele>
        <time>2022-02-12T09:56:23Z</time>
      </trkpt>
      <trkpt lat="48.19555" lon="7.15637">
        <ele>1168.4</ele>
        <time>2022-02-12T09:56:29Z</time>
      </trkpt>
      <trkpt lat="48.19562" lon="7.15646">
        <ele>1168.5</ele>
        <time>2022-02-12T09:56:38Z</time>
      </trkpt>
      <trkpt lat="48.19568" lon="7.15657">
        <ele>1168.4</ele>
        <time>2022-02-12T09:56:46Z</time>
      </trkpt>
      <trkpt lat="48.19574" lon="7.15669">
        <ele>1168.2</ele>
        <time>2022-02-12T09:57:02Z</time>
      </trkpt>
      <trkpt lat="48.19582" lon="7.15678">
        <ele>1167.9</ele>
        <time>2022-02-12T09:57:09Z</time>
      </trkpt>
      <trkpt lat="48.19592" lon="7.15682">
        <ele>1167.4</ele>
        <time>2022-02-12T09:57:14Z</time>
      </trkpt>
      <trkpt lat="48.19599" lon="7.15692">
        <ele>1166.9</ele>
        <time>2022-02-12T09:57:23Z</time>
      </trkpt>
      <trkpt lat="48.19604" lon="7.15704">
        <ele>1166.3</ele>
        <time>2022-02-12T09:57:30Z</time>
      </trkpt>
      <trkpt lat="48.1961" lon="7.15717">
        <ele>1165.7</ele>
        <time>2022-02-12T09:57:36Z</time>
      </trkpt>
      <trkpt lat="48.19618" lon="7.15724">
        <ele>1165.1</ele>
        <time>2022-02-12T09:57:41Z</time>
      </trkpt>
      <trkpt lat="48.19627" lon="7.15732">
        <ele>1164.3</ele>
        <time>2022-02-12T09:57:49Z</time>
      </trkpt>
      <trkpt lat="48.19626" lon="7.15746">
        <ele>1163.6</ele>
        <time>2022-02-12T09:57:54Z</time>
      </trkpt>
      <trkpt lat="48.19631" lon="7.15759">
        <ele>1162.7</ele>
        <time>2022-02-12T09:58:01Z</time>
      </trkpt>
      <trkpt lat="48.19638" lon="7.15769">
        <ele>1161.8</ele>
        <time>2022-02-12T09:58:11Z</time>
      </trkpt>
      <trkpt lat="48.19641" lon="7.15782">
        <ele>1161</ele>
        <time>2022-02-12T09:58:17Z</time>
      </trkpt>
      <trkpt lat="48.19651" lon="7.15783">
        <ele>1160.2</ele>
        <time>2022-02-12T09:58:30Z</time>
      </trkpt>
      <trkpt lat="48.19649" lon="7.15778">
        <ele>1159.9</ele>
        <time>2022-02-12T09:58:54Z</time>
      </trkpt>
      <trkpt lat="48.19649" lon="7.15778">
        <ele>1159.8</ele>
        <time>2022-02-12T09:58:55Z</time>
      </trkpt>
      <trkpt lat="48.19647" lon="7.15774">
        <ele>1159.6</ele>
        <time>2022-02-12T09:59:54Z</time>
      </trkpt>
      <trkpt lat="48.19647" lon="7.15774">
        <ele>1159.5</ele>
        <time>2022-02-12T09:59:55Z</time>
      </trkpt>
      <trkpt lat="48.19644" lon="7.15769">
        <ele>1159.1</ele>
        <time>2022-02-12T10:00:26Z</time>
      </trkpt>
      <trkpt lat="48.19645" lon="7.1577">
        <ele>1159</ele>
        <time>2022-02-12T10:00:27Z</time>
      </trkpt>
      <trkpt lat="48.19643" lon="7.15773">
        <ele>1158.7</ele>
        <time>2022-02-12T10:00:44Z</time>
      </trkpt>
      <trkpt lat="48.19644" lon="7.15773">
        <ele>1158.6</ele>
        <time>2022-02-12T10:00:45Z</time>
      </trkpt>
      <trkpt lat="48.19649" lon="7.15775">
        <ele>1158.3</ele>
        <time>2022-02-12T10:00:59Z</time>
      </trkpt>
      <trkpt lat="48.19649" lon="7.15777">
        <ele>1158.1</ele>
        <time>2022-02-12T10:01:00Z</time>
      </trkpt>
      <trkpt lat="48.19647" lon="7.15777">
        <ele>1158</ele>
        <time>2022-02-12T10:01:16Z</time>
      </trkpt>
      <trkpt lat="48.19648" lon="7.15777">
        <ele>1158</ele>
        <time>2022-02-12T10:01:17Z</time>
      </trkpt>
      <trkpt lat="48.19648" lon="7.15773">
        <ele>1157.8</ele>
        <time>2022-02-12T10:01:49Z</time>
      </trkpt>
      <trkpt lat="48.19649" lon="7.15773">
        <ele>1157.7</ele>
        <time>2022-02-12T10:01:50Z</time>
      </trkpt>
      <trkpt lat="48.19652" lon="7.1578">
        <ele>1157.3</ele>
        <time>2022-02-12T10:02:15Z</time>
      </trkpt>
      <trkpt lat="48.19652" lon="7.1578">
        <ele>1157.3</ele>
        <time>2022-02-12T10:02:16Z</time>
      </trkpt>
      <trkpt lat="48.19644" lon="7.15777">
        <ele>1156.5</ele>
        <time>2022-02-12T10:02:35Z</time>
      </trkpt>
      <trkpt lat="48.19644" lon="7.1579">
        <ele>1155.8</ele>
        <time>2022-02-12T10:03:05Z</time>
      </trkpt>
      <trkpt lat="48.19647" lon="7.15787">
        <ele>1156.3</ele>
        <time>2022-02-12T10:03:28Z</time>
      </trkpt>
      <trkpt lat="48.19648" lon="7.15786">
        <ele>1156.4</ele>
        <time>2022-02-12T10:03:29Z</time>
      </trkpt>
      <trkpt lat="48.19649" lon="7.15786">
        <ele>1156.5</ele>
        <time>2022-02-12T10:03:31Z</time>
      </trkpt>
      <trkpt lat="48.19649" lon="7.15785">
        <ele>1156.6</ele>
        <time>2022-02-12T10:03:32Z</time>
      </trkpt>
      <trkpt lat="48.19651" lon="7.15781">
        <ele>1156.9</ele>
        <time>2022-02-12T10:03:43Z</time>
      </trkpt>
      <trkpt lat="48.19651" lon="7.15781">
        <ele>1157</ele>
        <time>2022-02-12T10:03:44Z</time>
      </trkpt>
      <trkpt lat="48.19642" lon="7.15774">
        <ele>1158.3</ele>
        <time>2022-02-12T10:04:18Z</time>
      </trkpt>
      <trkpt lat="48.19636" lon="7.15764">
        <ele>1159.4</ele>
        <time>2022-02-12T10:04:37Z</time>
      </trkpt>
      <trkpt lat="48.19629" lon="7.15756">
        <ele>1160.6</ele>
        <time>2022-02-12T10:04:48Z</time>
      </trkpt>
      <trkpt lat="48.19621" lon="7.15748">
        <ele>1161.8</ele>
        <time>2022-02-12T10:04:58Z</time>
      </trkpt>
      <trkpt lat="48.19612" lon="7.15745">
        <ele>1162.9</ele>
        <time>2022-02-12T10:05:06Z</time>
      </trkpt>
      <trkpt lat="48.19602" lon="7.15741">
        <ele>1164.2</ele>
        <time>2022-02-12T10:05:14Z</time>
      </trkpt>
      <trkpt lat="48.19595" lon="7.15731">
        <ele>1165.5</ele>
        <time>2022-02-12T10:05:24Z</time>
      </trkpt>
      <trkpt lat="48.19586" lon="7.15727">
        <ele>1166.7</ele>
        <time>2022-02-12T10:05:32Z</time>
      </trkpt>
      <trkpt lat="48.19577" lon="7.15723">
        <ele>1167.8</ele>
        <time>2022-02-12T10:05:46Z</time>
      </trkpt>
      <trkpt lat="48.19568" lon="7.15727">
        <ele>1168.8</ele>
        <time>2022-02-12T10:05:52Z</time>
      </trkpt>
      <trkpt lat="48.19565" lon="7.15713">
        <ele>1169.7</ele>
        <time>2022-02-12T10:06:02Z</time>
      </trkpt>
      <trkpt lat="48.1956" lon="7.157">
        <ele>1170.6</ele>
        <time>2022-02-12T10:06:07Z</time>
      </trkpt>
      <trkpt lat="48.19552" lon="7.1569">
        <ele>1171.4</ele>
        <time>2022-02-12T10:06:13Z</time>
      </trkpt>
      <trkpt lat="48.19544" lon="7.15683">
        <ele>1172.3</ele>
        <time>2022-02-12T10:06:22Z</time>
      </trkpt>
      <trkpt lat="48.19537" lon="7.15672">
        <ele>1173.1</ele>
        <time>2022-02-12T10:06:26Z</time>
      </trkpt>
      <trkpt lat="48.19534" lon="7.15674">
        <ele>1173.4</ele>
        <time>2022-02-12T10:06:33Z</time>
      </trkpt>
      <trkpt lat="48.19534" lon="7.15675">
        <ele>1173.5</ele>
        <time>2022-02-12T10:06:34Z</time>
      </trkpt>
      <trkpt lat="48.19528" lon="7.15674">
        <ele>1174</ele>
        <time>2022-02-12T10:06:53Z</time>
      </trkpt>
      <trkpt lat="48.19528" lon="7.15674">
        <ele>1174.1</ele>
        <time>2022-02-12T10:06:54Z</time>
      </trkpt>
      <trkpt lat="48.19519" lon="7.15666">
        <ele>1175</ele>
        <time>2022-02-12T10:07:07Z</time>
      </trkpt>
      <trkpt lat="48.1951" lon="7.15663">
        <ele>1176</ele>
        <time>2022-02-12T10:07:21Z</time>
      </trkpt>
      <trkpt lat="48.19502" lon="7.15658">
        <ele>1176.9</ele>
        <time>2022-02-12T10:07:36Z</time>
      </trkpt>
      <trkpt lat="48.19492" lon="7.15652">
        <ele>1177.9</ele>
        <time>2022-02-12T10:07:53Z</time>
      </trkpt>
      <trkpt lat="48.19487" lon="7.1564">
        <ele>1178.9</ele>
        <time>2022-02-12T10:08:01Z</time>
      </trkpt>
      <trkpt lat="48.19478" lon="7.15637">
        <ele>1179.9</ele>
        <time>2022-02-12T10:08:17Z</time>
      </trkpt>
      <trkpt lat="48.19473" lon="7.15627">
        <ele>1180.6</ele>
        <time>2022-02-12T10:08:34Z</time>
      </trkpt>
      <trkpt lat="48.19473" lon="7.15626">
        <ele>1180.7</ele>
        <time>2022-02-12T10:08:35Z</time>
      </trkpt>
      <trkpt lat="48.19475" lon="7.15613">
        <ele>1181.6</ele>
        <time>2022-02-12T10:08:48Z</time>
      </trkpt>
      <trkpt lat="48.1947" lon="7.15626">
        <ele>1182.6</ele>
        <time>2022-02-12T10:08:53Z</time>
      </trkpt>
      <trkpt lat="48.19461" lon="7.15622">
        <ele>1183.6</ele>
        <time>2022-02-12T10:09:01Z</time>
      </trkpt>
      <trkpt lat="48.19453" lon="7.15617">
        <ele>1184.8</ele>
        <time>2022-02-12T10:09:26Z</time>
      </trkpt>
      <trkpt lat="48.19445" lon="7.15608">
        <ele>1186</ele>
        <time>2022-02-12T10:09:48Z</time>
      </trkpt>
      <trkpt lat="48.19436" lon="7.15604">
        <ele>1187.3</ele>
        <time>2022-02-12T10:10:07Z</time>
      </trkpt>
      <trkpt lat="48.19436" lon="7.15604">
        <ele>1187.3</ele>
        <time>2022-02-12T10:10:14Z</time>
      </trkpt>
      <trkpt lat="48.19436" lon="7.15602">
        <ele>1187.5</ele>
        <time>2022-02-12T10:10:15Z</time>
      </trkpt>
      <trkpt lat="48.19436" lon="7.15605">
        <ele>1187.7</ele>
        <time>2022-02-12T10:11:21Z</time>
      </trkpt>
      <trkpt lat="48.19436" lon="7.15604">
        <ele>1187.8</ele>
        <time>2022-02-12T10:11:22Z</time>
      </trkpt>
      <trkpt lat="48.19438" lon="7.15599">
        <ele>1188.4</ele>
        <time>2022-02-12T10:11:31Z</time>
      </trkpt>
      <trkpt lat="48.19438" lon="7.15599">
        <ele>1188.4</ele>
        <time>2022-02-12T10:11:32Z</time>
      </trkpt>
      <trkpt lat="48.19439" lon="7.15606">
        <ele>1189.2</ele>
        <time>2022-02-12T10:11:47Z</time>
      </trkpt>
      <trkpt lat="48.1944" lon="7.15606">
        <ele>1189.3</ele>
        <time>2022-02-12T10:11:48Z</time>
      </trkpt>
      <trkpt lat="48.1944" lon="7.15605">
        <ele>1189.3</ele>
        <time>2022-02-12T10:11:53Z</time>
      </trkpt>
      <trkpt lat="48.1944" lon="7.15605">
        <ele>1189.3</ele>
        <time>2022-02-12T10:11:54Z</time>
      </trkpt>
      <trkpt lat="48.1944" lon="7.15605">
        <ele>1189.4</ele>
        <time>2022-02-12T10:11:58Z</time>
      </trkpt>
      <trkpt lat="48.1944" lon="7.15606">
        <ele>1189.4</ele>
        <time>2022-02-12T10:11:59Z</time>
      </trkpt>
      <trkpt lat="48.1944" lon="7.15605">
        <ele>1189.5</ele>
        <time>2022-02-12T10:12:03Z</time>
      </trkpt>
      <trkpt lat="48.1944" lon="7.15606">
        <ele>1189.5</ele>
        <time>2022-02-12T10:12:04Z</time>
      </trkpt>
      <trkpt lat="48.19437" lon="7.15606">
        <ele>1190.2</ele>
        <time>2022-02-12T10:12:17Z</time>
      </trkpt>
      <trkpt lat="48.19437" lon="7.15607">
        <ele>1190.3</ele>
        <time>2022-02-12T10:12:18Z</time>
      </trkpt>
      <trkpt lat="48.19437" lon="7.15608">
        <ele>1190.4</ele>
        <time>2022-02-12T10:12:23Z</time>
      </trkpt>
      <trkpt lat="48.19437" lon="7.15608">
        <ele>1190.5</ele>
        <time>2022-02-12T10:12:28Z</time>
      </trkpt>
      <trkpt lat="48.19437" lon="7.15608">
        <ele>1190.5</ele>
        <time>2022-02-12T10:12:31Z</time>
      </trkpt>
      <trkpt lat="48.19437" lon="7.15608">
        <ele>1190.5</ele>
        <time>2022-02-12T10:12:34Z</time>
      </trkpt>
      <trkpt lat="48.19438" lon="7.15608">
        <ele>1190.7</ele>
        <time>2022-02-12T10:12:39Z</time>
      </trkpt>
      <trkpt lat="48.19438" lon="7.15608">
        <ele>1190.7</ele>
        <time>2022-02-12T10:12:40Z</time>
      </trkpt>
      <trkpt lat="48.19438" lon="7.15608">
        <ele>1190.7</ele>
        <time>2022-02-12T10:12:42Z</time>
      </trkpt>
      <trkpt lat="48.19438" lon="7.15608">
        <ele>1190.8</ele>
        <time>2022-02-12T10:12:44Z</time>
      </trkpt>
      <trkpt lat="48.19438" lon="7.15608">
        <ele>1190.8</ele>
        <time>2022-02-12T10:12:45Z</time>
      </trkpt>
      <trkpt lat="48.19437" lon="7.15607">
        <ele>1191</ele>
        <time>2022-02-12T10:12:46Z</time>
      </trkpt>
      <trkpt lat="48.19437" lon="7.15606">
        <ele>1191.1</ele>
        <time>2022-02-12T10:12:49Z</time>
      </trkpt>
      <trkpt lat="48.19437" lon="7.15606">
        <ele>1191.2</ele>
        <time>2022-02-12T10:12:50Z</time>
      </trkpt>
      <trkpt lat="48.19437" lon="7.15608">
        <ele>1191.4</ele>
        <time>2022-02-12T10:13:06Z</time>
      </trkpt>
      <trkpt lat="48.19437" lon="7.15608">
        <ele>1191.5</ele>
        <time>2022-02-12T10:13:09Z</time>
      </trkpt>
      <trkpt lat="48.19435" lon="7.15605">
        <ele>1191.9</ele>
        <time>2022-02-12T10:13:19Z</time>
      </trkpt>
      <trkpt lat="48.19435" lon="7.15606">
        <ele>1192</ele>
        <time>2022-02-12T10:13:20Z</time>
      </trkpt>
      <trkpt lat="48.19435" lon="7.15602">
        <ele>1192.4</ele>
        <time>2022-02-12T10:13:37Z</time>
      </trkpt>
      <trkpt lat="48.19435" lon="7.15602">
        <ele>1192.5</ele>
        <time>2022-02-12T10:13:38Z</time>
      </trkpt>
      <trkpt lat="48.19444" lon="7.15598">
        <ele>1194.3</ele>
        <time>2022-02-12T10:13:58Z</time>
      </trkpt>
      <trkpt lat="48.19444" lon="7.15601">
        <ele>1194.6</ele>
        <time>2022-02-12T10:14:18Z</time>
      </trkpt>
      <trkpt lat="48.19444" lon="7.15601">
        <ele>1194.6</ele>
        <time>2022-02-12T10:14:19Z</time>
      </trkpt>
      <trkpt lat="48.19443" lon="7.15601">
        <ele>1194.8</ele>
        <time>2022-02-12T10:14:21Z</time>
      </trkpt>
      <trkpt lat="48.19443" lon="7.15601">
        <ele>1194.8</ele>
        <time>2022-02-12T10:14:23Z</time>
      </trkpt>
      <trkpt lat="48.19439" lon="7.15603">
        <ele>1195.5</ele>
        <time>2022-02-12T10:14:36Z</time>
      </trkpt>
      <trkpt lat="48.19439" lon="7.15603">
        <ele>1195.6</ele>
        <time>2022-02-12T10:14:37Z</time>
      </trkpt>
      <trkpt lat="48.19439" lon="7.15603">
        <ele>1195.6</ele>
        <time>2022-02-12T10:14:38Z</time>
      </trkpt>
      <trkpt lat="48.19439" lon="7.15603">
        <ele>1195.6</ele>
        <time>2022-02-12T10:14:39Z</time>
      </trkpt>
      <trkpt lat="48.19438" lon="7.15604">
        <ele>1195.9</ele>
        <time>2022-02-12T10:14:48Z</time>
      </trkpt>
      <trkpt lat="48.19438" lon="7.15604">
        <ele>1196</ele>
        <time>2022-02-12T10:14:49Z</time>
      </trkpt>
      <trkpt lat="48.19441" lon="7.15607">
        <ele>1196.5</ele>
        <time>2022-02-12T10:15:25Z</time>
      </trkpt>
      <trkpt lat="48.19441" lon="7.15607">
        <ele>1196.7</ele>
        <time>2022-02-12T10:15:26Z</time>
      </trkpt>
      <trkpt lat="48.19443" lon="7.15603">
        <ele>1197.3</ele>
        <time>2022-02-12T10:15:49Z</time>
      </trkpt>
      <trkpt lat="48.19443" lon="7.15603">
        <ele>1197.3</ele>
        <time>2022-02-12T10:15:50Z</time>
      </trkpt>
      <trkpt lat="48.1944" lon="7.15604">
        <ele>1197.8</ele>
        <time>2022-02-12T10:16:00Z</time>
      </trkpt>
      <trkpt lat="48.1944" lon="7.15604">
        <ele>1197.9</ele>
        <time>2022-02-12T10:16:06Z</time>
      </trkpt>
      <trkpt lat="48.1944" lon="7.15605">
        <ele>1197.9</ele>
        <time>2022-02-12T10:16:09Z</time>
      </trkpt>
      <trkpt lat="48.1944" lon="7.15605">
        <ele>1198</ele>
        <time>2022-02-12T10:16:11Z</time>
      </trkpt>
      <trkpt lat="48.1944" lon="7.15605">
        <ele>1198</ele>
        <time>2022-02-12T10:16:12Z</time>
      </trkpt>
      <trkpt lat="48.1944" lon="7.15605">
        <ele>1198</ele>
        <time>2022-02-12T10:16:16Z</time>
      </trkpt>
      <trkpt lat="48.19439" lon="7.15606">
        <ele>1198.3</ele>
        <time>2022-02-12T10:16:24Z</time>
      </trkpt>
      <trkpt lat="48.19439" lon="7.15606">
        <ele>1198.3</ele>
        <time>2022-02-12T10:16:27Z</time>
      </trkpt>
      <trkpt lat="48.19439" lon="7.15606">
        <ele>1198.3</ele>
        <time>2022-02-12T10:16:28Z</time>
      </trkpt>
      <trkpt lat="48.19439" lon="7.15606">
        <ele>1198.3</ele>
        <time>2022-02-12T10:16:34Z</time>
      </trkpt>
      <trkpt lat="48.1944" lon="7.15607">
        <ele>1198.4</ele>
        <time>2022-02-12T10:16:37Z</time>
      </trkpt>
      <trkpt lat="48.1944" lon="7.15607">
        <ele>1198.4</ele>
        <time>2022-02-12T10:16:38Z</time>
      </trkpt>
      <trkpt lat="48.1944" lon="7.15607">
        <ele>1198.5</ele>
        <time>2022-02-12T10:16:39Z</time>
      </trkpt>
      <trkpt lat="48.1944" lon="7.15607">
        <ele>1198.5</ele>
        <time>2022-02-12T10:16:40Z</time>
      </trkpt>
      <trkpt lat="48.1944" lon="7.15607">
        <ele>1198.5</ele>
        <time>2022-02-12T10:16:41Z</time>
      </trkpt>
      <trkpt lat="48.1944" lon="7.15607">
        <ele>1198.5</ele>
        <time>2022-02-12T10:16:42Z</time>
      </trkpt>
      <trkpt lat="48.1944" lon="7.15607">
        <ele>1198.5</ele>
        <time>2022-02-12T10:16:44Z</time>
      </trkpt>
      <trkpt lat="48.1944" lon="7.15607">
        <ele>1198.5</ele>
        <time>2022-02-12T10:16:46Z</time>
      </trkpt>
      <trkpt lat="48.1944" lon="7.15607">
        <ele>1198.5</ele>
        <time>2022-02-12T10:16:47Z</time>
      </trkpt>
      <trkpt lat="48.1944" lon="7.15607">
        <ele>1198.6</ele>
        <time>2022-02-12T10:16:51Z</time>
      </trkpt>
      <trkpt lat="48.1944" lon="7.15607">
        <ele>1198.6</ele>
        <time>2022-02-12T10:16:52Z</time>
      </trkpt>
      <trkpt lat="48.1944" lon="7.15607">
        <ele>1198.6</ele>
        <time>2022-02-12T10:16:54Z</time>
      </trkpt>
      <trkpt lat="48.1944" lon="7.15606">
        <ele>1198.7</ele>
        <time>2022-02-12T10:17:00Z</time>
      </trkpt>
      <trkpt lat="48.1944" lon="7.15606">
        <ele>1198.7</ele>
        <time>2022-02-12T10:17:03Z</time>
      </trkpt>
      <trkpt lat="48.1944" lon="7.15606">
        <ele>1198.7</ele>
        <time>2022-02-12T10:17:04Z</time>
      </trkpt>
      <trkpt lat="48.1944" lon="7.15606">
        <ele>1198.8</ele>
        <time>2022-02-12T10:17:06Z</time>
      </trkpt>
      <trkpt lat="48.19442" lon="7.15608">
        <ele>1199.1</ele>
        <time>2022-02-12T10:17:24Z</time>
      </trkpt>
      <trkpt lat="48.19442" lon="7.15608">
        <ele>1199.1</ele>
        <time>2022-02-12T10:17:25Z</time>
      </trkpt>
      <trkpt lat="48.19443" lon="7.15607">
        <ele>1199.2</ele>
        <time>2022-02-12T10:17:32Z</time>
      </trkpt>
      <trkpt lat="48.19443" lon="7.15607">
        <ele>1199.2</ele>
        <time>2022-02-12T10:17:33Z</time>
      </trkpt>
      <trkpt lat="48.19443" lon="7.15603">
        <ele>1199.4</ele>
        <time>2022-02-12T10:17:42Z</time>
      </trkpt>
      <trkpt lat="48.19443" lon="7.15603">
        <ele>1199.4</ele>
        <time>2022-02-12T10:17:45Z</time>
      </trkpt>
      <trkpt lat="48.19441" lon="7.15605">
        <ele>1199.6</ele>
        <time>2022-02-12T10:17:52Z</time>
      </trkpt>
      <trkpt lat="48.19441" lon="7.15605">
        <ele>1199.6</ele>
        <time>2022-02-12T10:17:53Z</time>
      </trkpt>
      <trkpt lat="48.19441" lon="7.15604">
        <ele>1199.6</ele>
        <time>2022-02-12T10:17:54Z</time>
      </trkpt>
      <trkpt lat="48.19441" lon="7.15604">
        <ele>1199.6</ele>
        <time>2022-02-12T10:17:55Z</time>
      </trkpt>
      <trkpt lat="48.19441" lon="7.15602">
        <ele>1199.7</ele>
        <time>2022-02-12T10:18:02Z</time>
      </trkpt>
      <trkpt lat="48.1944" lon="7.15602">
        <ele>1199.7</ele>
        <time>2022-02-12T10:18:16Z</time>
      </trkpt>
      <trkpt lat="48.1944" lon="7.15603">
        <ele>1199.7</ele>
        <time>2022-02-12T10:18:21Z</time>
      </trkpt>
      <trkpt lat="48.1944" lon="7.15603">
        <ele>1199.7</ele>
        <time>2022-02-12T10:18:30Z</time>
      </trkpt>
      <trkpt lat="48.1944" lon="7.15603">
        <ele>1199.7</ele>
        <time>2022-02-12T10:18:31Z</time>
      </trkpt>
      <trkpt lat="48.1944" lon="7.15603">
        <ele>1199.7</ele>
        <time>2022-02-12T10:18:35Z</time>
      </trkpt>
      <trkpt lat="48.1944" lon="7.15603">
        <ele>1199.7</ele>
        <time>2022-02-12T10:18:36Z</time>
      </trkpt>
      <trkpt lat="48.1944" lon="7.15603">
        <ele>1199.8</ele>
        <time>2022-02-12T10:18:37Z</time>
      </trkpt>
      <trkpt lat="48.1944" lon="7.15602">
        <ele>1199.8</ele>
        <time>2022-02-12T10:18:38Z</time>
      </trkpt>
      <trkpt lat="48.19441" lon="7.15602">
        <ele>1199.8</ele>
        <time>2022-02-12T10:18:39Z</time>
      </trkpt>
      <trkpt lat="48.19441" lon="7.15602">
        <ele>1199.8</ele>
        <time>2022-02-12T10:18:40Z</time>
      </trkpt>
      <trkpt lat="48.19442" lon="7.15602">
        <ele>1199.8</ele>
        <time>2022-02-12T10:18:41Z</time>
      </trkpt>
      <trkpt lat="48.19442" lon="7.15601">
        <ele>1199.8</ele>
        <time>2022-02-12T10:18:45Z</time>
      </trkpt>
      <trkpt lat="48.19442" lon="7.15601">
        <ele>1199.8</ele>
        <time>2022-02-12T10:18:47Z</time>
      </trkpt>
      <trkpt lat="48.19446" lon="7.15599">
        <ele>1199.9</ele>
        <time>2022-02-12T10:18:58Z</time>
      </trkpt>
      <trkpt lat="48.19446" lon="7.15599">
        <ele>1199.9</ele>
        <time>2022-02-12T10:18:59Z</time>
      </trkpt>
      <trkpt lat="48.19444" lon="7.15599">
        <ele>1199.9</ele>
        <time>2022-02-12T10:19:17Z</time>
      </trkpt>
      <trkpt lat="48.19444" lon="7.15599">
        <ele>1199.9</ele>
        <time>2022-02-12T10:19:18Z</time>
      </trkpt>
      <trkpt lat="48.1944" lon="7.15585">
        <ele>1199.7</ele>
        <time>2022-02-12T10:19:43Z</time>
      </trkpt>
      <trkpt lat="48.19448" lon="7.15593">
        <ele>1199.2</ele>
        <time>2022-02-12T10:20:03Z</time>
      </trkpt>
      <trkpt lat="48.1944" lon="7.15598">
        <ele>1198.5</ele>
        <time>2022-02-12T10:20:21Z</time>
      </trkpt>
      <trkpt lat="48.19437" lon="7.15596">
        <ele>1198.2</ele>
        <time>2022-02-12T10:20:40Z</time>
      </trkpt>
      <trkpt lat="48.19438" lon="7.15596">
        <ele>1198.2</ele>
        <time>2022-02-12T10:20:41Z</time>
      </trkpt>
      <trkpt lat="48.1944" lon="7.15597">
        <ele>1197.9</ele>
        <time>2022-02-12T10:20:53Z</time>
      </trkpt>
      <trkpt lat="48.1944" lon="7.15596">
        <ele>1197.9</ele>
        <time>2022-02-12T10:20:54Z</time>
      </trkpt>
      <trkpt lat="48.19446" lon="7.15584">
        <ele>1196.7</ele>
        <time>2022-02-12T10:21:15Z</time>
      </trkpt>
      <trkpt lat="48.1944" lon="7.15578">
        <ele>1195.8</ele>
        <time>2022-02-12T10:21:24Z</time>
      </trkpt>
      <trkpt lat="48.19441" lon="7.15577">
        <ele>1195.8</ele>
        <time>2022-02-12T10:21:25Z</time>
      </trkpt>
      <trkpt lat="48.19446" lon="7.15566">
        <ele>1194.6</ele>
        <time>2022-02-12T10:21:46Z</time>
      </trkpt>
      <trkpt lat="48.19441" lon="7.15554">
        <ele>1193.3</ele>
        <time>2022-02-12T10:21:57Z</time>
      </trkpt>
      <trkpt lat="48.19435" lon="7.15543">
        <ele>1192</ele>
        <time>2022-02-12T10:22:10Z</time>
      </trkpt>
      <trkpt lat="48.19428" lon="7.15532">
        <ele>1190.7</ele>
        <time>2022-02-12T10:22:16Z</time>
      </trkpt>
      <trkpt lat="48.19422" lon="7.15519">
        <ele>1189.4</ele>
        <time>2022-02-12T10:22:23Z</time>
      </trkpt>
      <trkpt lat="48.19416" lon="7.15508">
        <ele>1188.2</ele>
        <time>2022-02-12T10:22:30Z</time>
      </trkpt>
      <trkpt lat="48.19408" lon="7.15496">
        <ele>1186.8</ele>
        <time>2022-02-12T10:22:35Z</time>
      </trkpt>
      <trkpt lat="48.19406" lon="7.15483">
        <ele>1185.6</ele>
        <time>2022-02-12T10:22:44Z</time>
      </trkpt>
      <trkpt lat="48.19407" lon="7.15468">
        <ele>1184.1</ele>
        <time>2022-02-12T10:22:52Z</time>
      </trkpt>
      <trkpt lat="48.19407" lon="7.15453">
        <ele>1182.6</ele>
        <time>2022-02-12T10:23:01Z</time>
      </trkpt>
      <trkpt lat="48.19403" lon="7.15441">
        <ele>1181.3</ele>
        <time>2022-02-12T10:23:09Z</time>
      </trkpt>
      <trkpt lat="48.19399" lon="7.15427">
        <ele>1180</ele>
        <time>2022-02-12T10:23:16Z</time>
      </trkpt>
      <trkpt lat="48.19397" lon="7.15413">
        <ele>1179</ele>
        <time>2022-02-12T10:23:22Z</time>
      </trkpt>
      <trkpt lat="48.19392" lon="7.154">
        <ele>1178.1</ele>
        <time>2022-02-12T10:23:30Z</time>
      </trkpt>
      <trkpt lat="48.1939" lon="7.15387">
        <ele>1177.4</ele>
        <time>2022-02-12T10:23:37Z</time>
      </trkpt>
      <trkpt lat="48.19384" lon="7.15377">
        <ele>1176.9</ele>
        <time>2022-02-12T10:23:49Z</time>
      </trkpt>
      <trkpt lat="48.19374" lon="7.1537">
        <ele>1176.6</ele>
        <time>2022-02-12T10:24:45Z</time>
      </trkpt>
      <trkpt lat="48.19374" lon="7.1537">
        <ele>1176.5</ele>
        <time>2022-02-12T10:24:47Z</time>
      </trkpt>
      <trkpt lat="48.19373" lon="7.15369">
        <ele>1176.5</ele>
        <time>2022-02-12T10:24:49Z</time>
      </trkpt>
      <trkpt lat="48.1937" lon="7.15368">
        <ele>1176.4</ele>
        <time>2022-02-12T10:24:56Z</time>
      </trkpt>
      <trkpt lat="48.1937" lon="7.15368">
        <ele>1176.4</ele>
        <time>2022-02-12T10:24:57Z</time>
      </trkpt>
      <trkpt lat="48.19371" lon="7.15368">
        <ele>1176.4</ele>
        <time>2022-02-12T10:25:00Z</time>
      </trkpt>
      <trkpt lat="48.19371" lon="7.15369">
        <ele>1176.4</ele>
        <time>2022-02-12T10:25:01Z</time>
      </trkpt>
      <trkpt lat="48.19377" lon="7.15378">
        <ele>1176.3</ele>
        <time>2022-02-12T10:25:18Z</time>
      </trkpt>
      <trkpt lat="48.19381" lon="7.15372">
        <ele>1176.3</ele>
        <time>2022-02-12T10:25:28Z</time>
      </trkpt>
      <trkpt lat="48.19381" lon="7.15372">
        <ele>1176.3</ele>
        <time>2022-02-12T10:25:29Z</time>
      </trkpt>
      <trkpt lat="48.19385" lon="7.15364">
        <ele>1176.3</ele>
        <time>2022-02-12T10:25:38Z</time>
      </trkpt>
      <trkpt lat="48.19385" lon="7.15364">
        <ele>1176.3</ele>
        <time>2022-02-12T10:25:39Z</time>
      </trkpt>
      <trkpt lat="48.19347" lon="7.15421">
        <ele>1175.2</ele>
        <time>2022-02-12T11:15:11Z</time>
      </trkpt>
      <trkpt lat="48.19349" lon="7.15419">
        <ele>1175.2</ele>
        <time>2022-02-12T11:15:12Z</time>
      </trkpt>
      <trkpt lat="48.19362" lon="7.15394">
        <ele>1176</ele>
        <time>2022-02-12T11:15:24Z</time>
      </trkpt>
      <trkpt lat="48.19363" lon="7.15378">
        <ele>1176.2</ele>
        <time>2022-02-12T11:15:30Z</time>
      </trkpt>
      <trkpt lat="48.19365" lon="7.15367">
        <ele>1176.3</ele>
        <time>2022-02-12T11:15:34Z</time>
      </trkpt>
      <trkpt lat="48.19365" lon="7.15364">
        <ele>1176.3</ele>
        <time>2022-02-12T11:15:35Z</time>
      </trkpt>
      <trkpt lat="48.19373" lon="7.15359">
        <ele>1176.9</ele>
        <time>2022-02-12T11:16:01Z</time>
      </trkpt>
      <trkpt lat="48.19372" lon="7.1536">
        <ele>1177</ele>
        <time>2022-02-12T11:16:11Z</time>
      </trkpt>
      <trkpt lat="48.19373" lon="7.15361">
        <ele>1177</ele>
        <time>2022-02-12T11:16:12Z</time>
      </trkpt>
      <trkpt lat="48.19371" lon="7.15367">
        <ele>1177.2</ele>
        <time>2022-02-12T11:16:35Z</time>
      </trkpt>
      <trkpt lat="48.1937" lon="7.15367">
        <ele>1177.3</ele>
        <time>2022-02-12T11:16:36Z</time>
      </trkpt>
      <trkpt lat="48.19369" lon="7.15364">
        <ele>1177.4</ele>
        <time>2022-02-12T11:16:42Z</time>
      </trkpt>
      <trkpt lat="48.19369" lon="7.15364">
        <ele>1177.4</ele>
        <time>2022-02-12T11:16:43Z</time>
      </trkpt>
      <trkpt lat="48.1937" lon="7.15366">
        <ele>1177.5</ele>
        <time>2022-02-12T11:16:46Z</time>
      </trkpt>
      <trkpt lat="48.1937" lon="7.15366">
        <ele>1177.5</ele>
        <time>2022-02-12T11:16:48Z</time>
      </trkpt>
      <trkpt lat="48.19372" lon="7.15363">
        <ele>1177.7</ele>
        <time>2022-02-12T11:17:02Z</time>
      </trkpt>
      <trkpt lat="48.19372" lon="7.15362">
        <ele>1177.7</ele>
        <time>2022-02-12T11:17:03Z</time>
      </trkpt>
      <trkpt lat="48.19366" lon="7.15351">
        <ele>1178.4</ele>
        <time>2022-02-12T11:17:20Z</time>
      </trkpt>
      <trkpt lat="48.1936" lon="7.15341">
        <ele>1179</ele>
        <time>2022-02-12T11:17:30Z</time>
      </trkpt>
      <trkpt lat="48.1936" lon="7.15326">
        <ele>1179.6</ele>
        <time>2022-02-12T11:17:41Z</time>
      </trkpt>
      <trkpt lat="48.19356" lon="7.15314">
        <ele>1180.3</ele>
        <time>2022-02-12T11:17:51Z</time>
      </trkpt>
      <trkpt lat="48.19356" lon="7.15299">
        <ele>1181.1</ele>
        <time>2022-02-12T11:18:02Z</time>
      </trkpt>
      <trkpt lat="48.19352" lon="7.15286">
        <ele>1181.9</ele>
        <time>2022-02-12T11:18:13Z</time>
      </trkpt>
      <trkpt lat="48.19345" lon="7.15278">
        <ele>1182.7</ele>
        <time>2022-02-12T11:18:26Z</time>
      </trkpt>
      <trkpt lat="48.19338" lon="7.15268">
        <ele>1183.5</ele>
        <time>2022-02-12T11:18:43Z</time>
      </trkpt>
      <trkpt lat="48.19332" lon="7.15257">
        <ele>1184.7</ele>
        <time>2022-02-12T11:18:58Z</time>
      </trkpt>
      <trkpt lat="48.19325" lon="7.15249">
        <ele>1186.1</ele>
        <time>2022-02-12T11:19:06Z</time>
      </trkpt>
      <trkpt lat="48.1933" lon="7.15239">
        <ele>1187.6</ele>
        <time>2022-02-12T11:19:22Z</time>
      </trkpt>
      <trkpt lat="48.1933" lon="7.15239">
        <ele>1187.7</ele>
        <time>2022-02-12T11:19:23Z</time>
      </trkpt>
      <trkpt lat="48.19331" lon="7.15225">
        <ele>1189.4</ele>
        <time>2022-02-12T11:19:37Z</time>
      </trkpt>
      <trkpt lat="48.1933" lon="7.1521">
        <ele>1191.3</ele>
        <time>2022-02-12T11:19:53Z</time>
      </trkpt>
      <trkpt lat="48.19325" lon="7.15199">
        <ele>1192.8</ele>
        <time>2022-02-12T11:20:04Z</time>
      </trkpt>
      <trkpt lat="48.19318" lon="7.15191">
        <ele>1194.2</ele>
        <time>2022-02-12T11:20:13Z</time>
      </trkpt>
      <trkpt lat="48.19311" lon="7.15181">
        <ele>1195.5</ele>
        <time>2022-02-12T11:20:26Z</time>
      </trkpt>
      <trkpt lat="48.19304" lon="7.1517">
        <ele>1196.9</ele>
        <time>2022-02-12T11:20:41Z</time>
      </trkpt>
      <trkpt lat="48.19303" lon="7.15169">
        <ele>1197.1</ele>
        <time>2022-02-12T11:20:45Z</time>
      </trkpt>
      <trkpt lat="48.19303" lon="7.15169">
        <ele>1197.1</ele>
        <time>2022-02-12T11:20:46Z</time>
      </trkpt>
      <trkpt lat="48.19294" lon="7.15166">
        <ele>1198.5</ele>
        <time>2022-02-12T11:20:54Z</time>
      </trkpt>
      <trkpt lat="48.19287" lon="7.15164">
        <ele>1199.5</ele>
        <time>2022-02-12T11:21:01Z</time>
      </trkpt>
      <trkpt lat="48.19286" lon="7.15165">
        <ele>1199.6</ele>
        <time>2022-02-12T11:21:02Z</time>
      </trkpt>
      <trkpt lat="48.19277" lon="7.15157">
        <ele>1201</ele>
        <time>2022-02-12T11:21:11Z</time>
      </trkpt>
      <trkpt lat="48.1927" lon="7.15148">
        <ele>1202.3</ele>
        <time>2022-02-12T11:21:23Z</time>
      </trkpt>
      <trkpt lat="48.19264" lon="7.15137">
        <ele>1203.7</ele>
        <time>2022-02-12T11:21:42Z</time>
      </trkpt>
      <trkpt lat="48.19254" lon="7.1513">
        <ele>1205.3</ele>
        <time>2022-02-12T11:21:48Z</time>
      </trkpt>
      <trkpt lat="48.19247" lon="7.15119">
        <ele>1206.8</ele>
        <time>2022-02-12T11:21:54Z</time>
      </trkpt>
      <trkpt lat="48.19245" lon="7.15105">
        <ele>1208.2</ele>
        <time>2022-02-12T11:22:17Z</time>
      </trkpt>
      <trkpt lat="48.19236" lon="7.15102">
        <ele>1209.5</ele>
        <time>2022-02-12T11:22:28Z</time>
      </trkpt>
      <trkpt lat="48.19229" lon="7.15093">
        <ele>1210.6</ele>
        <time>2022-02-12T11:23:13Z</time>
      </trkpt>
      <trkpt lat="48.19227" lon="7.15089">
        <ele>1211</ele>
        <time>2022-02-12T11:23:20Z</time>
      </trkpt>
      <trkpt lat="48.19227" lon="7.1509">
        <ele>1211.1</ele>
        <time>2022-02-12T11:23:21Z</time>
      </trkpt>
      <trkpt lat="48.19229" lon="7.15091">
        <ele>1211.3</ele>
        <time>2022-02-12T11:23:31Z</time>
      </trkpt>
      <trkpt lat="48.19229" lon="7.15091">
        <ele>1211.3</ele>
        <time>2022-02-12T11:23:32Z</time>
      </trkpt>
      <trkpt lat="48.19229" lon="7.15091">
        <ele>1211.3</ele>
        <time>2022-02-12T11:23:33Z</time>
      </trkpt>
      <trkpt lat="48.19228" lon="7.15091">
        <ele>1211.3</ele>
        <time>2022-02-12T11:23:34Z</time>
      </trkpt>
      <trkpt lat="48.19232" lon="7.15097">
        <ele>1211.8</ele>
        <time>2022-02-12T11:23:49Z</time>
      </trkpt>
      <trkpt lat="48.19231" lon="7.15097">
        <ele>1211.8</ele>
        <time>2022-02-12T11:23:50Z</time>
      </trkpt>
      <trkpt lat="48.19232" lon="7.15097">
        <ele>1211.8</ele>
        <time>2022-02-12T11:23:52Z</time>
      </trkpt>
      <trkpt lat="48.19231" lon="7.15096">
        <ele>1211.8</ele>
        <time>2022-02-12T11:23:55Z</time>
      </trkpt>
      <trkpt lat="48.19231" lon="7.15096">
        <ele>1211.8</ele>
        <time>2022-02-12T11:23:56Z</time>
      </trkpt>
      <trkpt lat="48.19232" lon="7.15096">
        <ele>1211.8</ele>
        <time>2022-02-12T11:24:03Z</time>
      </trkpt>
      <trkpt lat="48.19232" lon="7.15096">
        <ele>1211.9</ele>
        <time>2022-02-12T11:24:05Z</time>
      </trkpt>
      <trkpt lat="48.19232" lon="7.15096">
        <ele>1211.9</ele>
        <time>2022-02-12T11:24:06Z</time>
      </trkpt>
      <trkpt lat="48.19222" lon="7.15096">
        <ele>1212.4</ele>
        <time>2022-02-12T11:24:27Z</time>
      </trkpt>
      <trkpt lat="48.19213" lon="7.1509">
        <ele>1212.8</ele>
        <time>2022-02-12T11:24:35Z</time>
      </trkpt>
      <trkpt lat="48.19203" lon="7.15088">
        <ele>1213</ele>
        <time>2022-02-12T11:24:42Z</time>
      </trkpt>
      <trkpt lat="48.19194" lon="7.15088">
        <ele>1213.3</ele>
        <time>2022-02-12T11:24:55Z</time>
      </trkpt>
      <trkpt lat="48.19194" lon="7.15087">
        <ele>1213.3</ele>
        <time>2022-02-12T11:25:00Z</time>
      </trkpt>
      <trkpt lat="48.19194" lon="7.15087">
        <ele>1213.3</ele>
        <time>2022-02-12T11:25:01Z</time>
      </trkpt>
      <trkpt lat="48.19185" lon="7.15081">
        <ele>1213.7</ele>
        <time>2022-02-12T11:25:10Z</time>
      </trkpt>
      <trkpt lat="48.19178" lon="7.15072">
        <ele>1214.1</ele>
        <time>2022-02-12T11:25:18Z</time>
      </trkpt>
      <trkpt lat="48.19169" lon="7.15071">
        <ele>1214.5</ele>
        <time>2022-02-12T11:25:24Z</time>
      </trkpt>
      <trkpt lat="48.19167" lon="7.15073">
        <ele>1214.6</ele>
        <time>2022-02-12T11:25:34Z</time>
      </trkpt>
      <trkpt lat="48.19167" lon="7.15074">
        <ele>1214.6</ele>
        <time>2022-02-12T11:25:35Z</time>
      </trkpt>
      <trkpt lat="48.19158" lon="7.15072">
        <ele>1215</ele>
        <time>2022-02-12T11:25:49Z</time>
      </trkpt>
      <trkpt lat="48.19152" lon="7.15072">
        <ele>1215.2</ele>
        <time>2022-02-12T11:25:55Z</time>
      </trkpt>
      <trkpt lat="48.19152" lon="7.15072">
        <ele>1215.2</ele>
        <time>2022-02-12T11:25:56Z</time>
      </trkpt>
      <trkpt lat="48.19142" lon="7.1507">
        <ele>1215.7</ele>
        <time>2022-02-12T11:26:05Z</time>
      </trkpt>
      <trkpt lat="48.19133" lon="7.15074">
        <ele>1216.1</ele>
        <time>2022-02-12T11:26:11Z</time>
      </trkpt>
      <trkpt lat="48.19123" lon="7.15071">
        <ele>1216.6</ele>
        <time>2022-02-12T11:26:20Z</time>
      </trkpt>
      <trkpt lat="48.19115" lon="7.15065">
        <ele>1217</ele>
        <time>2022-02-12T11:26:33Z</time>
      </trkpt>
      <trkpt lat="48.1911" lon="7.15068">
        <ele>1217.3</ele>
        <time>2022-02-12T11:26:43Z</time>
      </trkpt>
      <trkpt lat="48.1911" lon="7.15069">
        <ele>1217.3</ele>
        <time>2022-02-12T11:26:44Z</time>
      </trkpt>
      <trkpt lat="48.19101" lon="7.15068">
        <ele>1217.6</ele>
        <time>2022-02-12T11:26:57Z</time>
      </trkpt>
      <trkpt lat="48.191" lon="7.15069">
        <ele>1217.7</ele>
        <time>2022-02-12T11:27:00Z</time>
      </trkpt>
      <trkpt lat="48.191" lon="7.15067">
        <ele>1217.7</ele>
        <time>2022-02-12T11:27:02Z</time>
      </trkpt>
      <trkpt lat="48.19091" lon="7.15067">
        <ele>1217.9</ele>
        <time>2022-02-12T11:27:11Z</time>
      </trkpt>
      <trkpt lat="48.19083" lon="7.15059">
        <ele>1218.1</ele>
        <time>2022-02-12T11:27:24Z</time>
      </trkpt>
      <trkpt lat="48.19075" lon="7.15052">
        <ele>1218.3</ele>
        <time>2022-02-12T11:27:32Z</time>
      </trkpt>
      <trkpt lat="48.19065" lon="7.15056">
        <ele>1218.2</ele>
        <time>2022-02-12T11:27:45Z</time>
      </trkpt>
      <trkpt lat="48.19056" lon="7.1505">
        <ele>1218</ele>
        <time>2022-02-12T11:27:54Z</time>
      </trkpt>
      <trkpt lat="48.19047" lon="7.15051">
        <ele>1217.5</ele>
        <time>2022-02-12T11:28:01Z</time>
      </trkpt>
      <trkpt lat="48.19036" lon="7.15048">
        <ele>1216.7</ele>
        <time>2022-02-12T11:28:15Z</time>
      </trkpt>
      <trkpt lat="48.19028" lon="7.15041">
        <ele>1216.2</ele>
        <time>2022-02-12T11:28:19Z</time>
      </trkpt>
      <trkpt lat="48.1902" lon="7.15032">
        <ele>1215.7</ele>
        <time>2022-02-12T11:28:24Z</time>
      </trkpt>
      <trkpt lat="48.19011" lon="7.15022">
        <ele>1215.6</ele>
        <time>2022-02-12T11:28:29Z</time>
      </trkpt>
      <trkpt lat="48.19001" lon="7.1502">
        <ele>1215.9</ele>
        <time>2022-02-12T11:28:52Z</time>
      </trkpt>
      <trkpt lat="48.18992" lon="7.15015">
        <ele>1216.4</ele>
        <time>2022-02-12T11:28:59Z</time>
      </trkpt>
      <trkpt lat="48.18983" lon="7.15017">
        <ele>1217.1</ele>
        <time>2022-02-12T11:29:06Z</time>
      </trkpt>
      <trkpt lat="48.18974" lon="7.15013">
        <ele>1218</ele>
        <time>2022-02-12T11:29:19Z</time>
      </trkpt>
      <trkpt lat="48.1897" lon="7.15009">
        <ele>1218.5</ele>
        <time>2022-02-12T11:29:32Z</time>
      </trkpt>
      <trkpt lat="48.1897" lon="7.15009">
        <ele>1218.5</ele>
        <time>2022-02-12T11:29:33Z</time>
      </trkpt>
      <trkpt lat="48.1896" lon="7.15008">
        <ele>1219.4</ele>
        <time>2022-02-12T11:29:44Z</time>
      </trkpt>
      <trkpt lat="48.18954" lon="7.14998">
        <ele>1220.1</ele>
        <time>2022-02-12T11:30:07Z</time>
      </trkpt>
      <trkpt lat="48.18954" lon="7.14995">
        <ele>1220.3</ele>
        <time>2022-02-12T11:30:10Z</time>
      </trkpt>
      <trkpt lat="48.18953" lon="7.14997">
        <ele>1220.3</ele>
        <time>2022-02-12T11:30:11Z</time>
      </trkpt>
      <trkpt lat="48.18954" lon="7.14997">
        <ele>1220.4</ele>
        <time>2022-02-12T11:30:20Z</time>
      </trkpt>
      <trkpt lat="48.18955" lon="7.14997">
        <ele>1220.4</ele>
        <time>2022-02-12T11:30:22Z</time>
      </trkpt>
      <trkpt lat="48.18957" lon="7.15001">
        <ele>1220.6</ele>
        <time>2022-02-12T11:30:36Z</time>
      </trkpt>
      <trkpt lat="48.18956" lon="7.15001">
        <ele>1220.7</ele>
        <time>2022-02-12T11:30:37Z</time>
      </trkpt>
      <trkpt lat="48.18954" lon="7.15">
        <ele>1220.8</ele>
        <time>2022-02-12T11:30:47Z</time>
      </trkpt>
      <trkpt lat="48.18954" lon="7.15001">
        <ele>1220.8</ele>
        <time>2022-02-12T11:30:48Z</time>
      </trkpt>
      <trkpt lat="48.18944" lon="7.15">
        <ele>1221.2</ele>
        <time>2022-02-12T11:32:21Z</time>
      </trkpt>
      <trkpt lat="48.18938" lon="7.1499">
        <ele>1221.5</ele>
        <time>2022-02-12T11:32:30Z</time>
      </trkpt>
      <trkpt lat="48.1893" lon="7.1498">
        <ele>1221.7</ele>
        <time>2022-02-12T11:32:43Z</time>
      </trkpt>
      <trkpt lat="48.18921" lon="7.14973">
        <ele>1221.5</ele>
        <time>2022-02-12T11:32:53Z</time>
      </trkpt>
      <trkpt lat="48.1892" lon="7.14972">
        <ele>1221.5</ele>
        <time>2022-02-12T11:32:56Z</time>
      </trkpt>
      <trkpt lat="48.1892" lon="7.14971">
        <ele>1221.4</ele>
        <time>2022-02-12T11:32:57Z</time>
      </trkpt>
      <trkpt lat="48.18914" lon="7.1496">
        <ele>1220.9</ele>
        <time>2022-02-12T11:33:08Z</time>
      </trkpt>
      <trkpt lat="48.18904" lon="7.14953">
        <ele>1219.8</ele>
        <time>2022-02-12T11:33:20Z</time>
      </trkpt>
      <trkpt lat="48.18903" lon="7.14942">
        <ele>1218.7</ele>
        <time>2022-02-12T11:33:29Z</time>
      </trkpt>
      <trkpt lat="48.18901" lon="7.14939">
        <ele>1218.3</ele>
        <time>2022-02-12T11:33:30Z</time>
      </trkpt>
      <trkpt lat="48.18901" lon="7.14935">
        <ele>1217.9</ele>
        <time>2022-02-12T11:33:36Z</time>
      </trkpt>
      <trkpt lat="48.189" lon="7.14935">
        <ele>1217.7</ele>
        <time>2022-02-12T11:33:37Z</time>
      </trkpt>
      <trkpt lat="48.1889" lon="7.14932">
        <ele>1215.9</ele>
        <time>2022-02-12T11:33:45Z</time>
      </trkpt>
      <trkpt lat="48.18881" lon="7.14931">
        <ele>1214</ele>
        <time>2022-02-12T11:33:54Z</time>
      </trkpt>
      <trkpt lat="48.18882" lon="7.14917">
        <ele>1211.8</ele>
        <time>2022-02-12T11:34:05Z</time>
      </trkpt>
      <trkpt lat="48.18873" lon="7.14909">
        <ele>1209.3</ele>
        <time>2022-02-12T11:34:18Z</time>
      </trkpt>
      <trkpt lat="48.18865" lon="7.14899">
        <ele>1207.1</ele>
        <time>2022-02-12T11:34:29Z</time>
      </trkpt>
      <trkpt lat="48.18856" lon="7.14902">
        <ele>1205</ele>
        <time>2022-02-12T11:34:38Z</time>
      </trkpt>
      <trkpt lat="48.18852" lon="7.14888">
        <ele>1202.7</ele>
        <time>2022-02-12T11:34:55Z</time>
      </trkpt>
      <trkpt lat="48.18851" lon="7.14872">
        <ele>1200</ele>
        <time>2022-02-12T11:34:59Z</time>
      </trkpt>
      <trkpt lat="48.18842" lon="7.14876">
        <ele>1197.5</ele>
        <time>2022-02-12T11:35:27Z</time>
      </trkpt>
      <trkpt lat="48.18836" lon="7.14886">
        <ele>1195.1</ele>
        <time>2022-02-12T11:35:36Z</time>
      </trkpt>
      <trkpt lat="48.18833" lon="7.14872">
        <ele>1192.7</ele>
        <time>2022-02-12T11:35:56Z</time>
      </trkpt>
      <trkpt lat="48.18833" lon="7.14872">
        <ele>1192.7</ele>
        <time>2022-02-12T11:35:57Z</time>
      </trkpt>
      <trkpt lat="48.18834" lon="7.14871">
        <ele>1192.6</ele>
        <time>2022-02-12T11:35:58Z</time>
      </trkpt>
      <trkpt lat="48.18833" lon="7.14856">
        <ele>1190.4</ele>
        <time>2022-02-12T11:36:05Z</time>
      </trkpt>
      <trkpt lat="48.18833" lon="7.14843">
        <ele>1188.7</ele>
        <time>2022-02-12T11:36:09Z</time>
      </trkpt>
      <trkpt lat="48.18829" lon="7.14829">
        <ele>1187.2</ele>
        <time>2022-02-12T11:36:15Z</time>
      </trkpt>
      <trkpt lat="48.18825" lon="7.14842">
        <ele>1186.2</ele>
        <time>2022-02-12T11:36:24Z</time>
      </trkpt>
      <trkpt lat="48.18821" lon="7.14854">
        <ele>1185.6</ele>
        <time>2022-02-12T11:36:57Z</time>
      </trkpt>
      <trkpt lat="48.18821" lon="7.14839">
        <ele>1185.6</ele>
        <time>2022-02-12T11:37:02Z</time>
      </trkpt>
      <trkpt lat="48.18817" lon="7.14852">
        <ele>1185.6</ele>
        <time>2022-02-12T11:37:26Z</time>
      </trkpt>
      <trkpt lat="48.18818" lon="7.14865">
        <ele>1185.4</ele>
        <time>2022-02-12T11:37:38Z</time>
      </trkpt>
      <trkpt lat="48.18818" lon="7.14865">
        <ele>1185.4</ele>
        <time>2022-02-12T11:37:39Z</time>
      </trkpt>
      <trkpt lat="48.1882" lon="7.14852">
        <ele>1185</ele>
        <time>2022-02-12T11:37:57Z</time>
      </trkpt>
      <trkpt lat="48.18822" lon="7.14865">
        <ele>1184.5</ele>
        <time>2022-02-12T11:38:18Z</time>
      </trkpt>
      <trkpt lat="48.18828" lon="7.14854">
        <ele>1183.7</ele>
        <time>2022-02-12T11:38:28Z</time>
      </trkpt>
      <trkpt lat="48.18836" lon="7.14846">
        <ele>1182.8</ele>
        <time>2022-02-12T11:38:34Z</time>
      </trkpt>
      <trkpt lat="48.18844" lon="7.14837">
        <ele>1181.8</ele>
        <time>2022-02-12T11:38:44Z</time>
      </trkpt>
      <trkpt lat="48.18851" lon="7.14827">
        <ele>1181</ele>
        <time>2022-02-12T11:38:49Z</time>
      </trkpt>
      <trkpt lat="48.18855" lon="7.14814">
        <ele>1180.2</ele>
        <time>2022-02-12T11:38:56Z</time>
      </trkpt>
      <trkpt lat="48.18863" lon="7.14805">
        <ele>1179.6</ele>
        <time>2022-02-12T11:39:07Z</time>
      </trkpt>
      <trkpt lat="48.18872" lon="7.14798">
        <ele>1178.9</ele>
        <time>2022-02-12T11:39:13Z</time>
      </trkpt>
      <trkpt lat="48.18881" lon="7.14802">
        <ele>1178</ele>
        <time>2022-02-12T11:39:20Z</time>
      </trkpt>
      <trkpt lat="48.1889" lon="7.14802">
        <ele>1177</ele>
        <time>2022-02-12T11:39:27Z</time>
      </trkpt>
      <trkpt lat="48.18898" lon="7.14794">
        <ele>1175.4</ele>
        <time>2022-02-12T11:39:44Z</time>
      </trkpt>
      <trkpt lat="48.18901" lon="7.14781">
        <ele>1173.6</ele>
        <time>2022-02-12T11:39:54Z</time>
      </trkpt>
      <trkpt lat="48.18908" lon="7.14791">
        <ele>1171.7</ele>
        <time>2022-02-12T11:39:56Z</time>
      </trkpt>
      <trkpt lat="48.18917" lon="7.14792">
        <ele>1169.9</ele>
        <time>2022-02-12T11:40:08Z</time>
      </trkpt>
      <trkpt lat="48.18924" lon="7.14802">
        <ele>1168.2</ele>
        <time>2022-02-12T11:40:16Z</time>
      </trkpt>
      <trkpt lat="48.18921" lon="7.14791">
        <ele>1167</ele>
        <time>2022-02-12T11:40:57Z</time>
      </trkpt>
      <trkpt lat="48.18921" lon="7.14791">
        <ele>1167</ele>
        <time>2022-02-12T11:40:58Z</time>
      </trkpt>
      <trkpt lat="48.18926" lon="7.14785">
        <ele>1166</ele>
        <time>2022-02-12T11:41:13Z</time>
      </trkpt>
      <trkpt lat="48.18928" lon="7.14785">
        <ele>1165.8</ele>
        <time>2022-02-12T11:41:14Z</time>
      </trkpt>
      <trkpt lat="48.18932" lon="7.14793">
        <ele>1164.8</ele>
        <time>2022-02-12T11:41:31Z</time>
      </trkpt>
      <trkpt lat="48.18932" lon="7.14792">
        <ele>1164.7</ele>
        <time>2022-02-12T11:41:32Z</time>
      </trkpt>
      <trkpt lat="48.18932" lon="7.14793">
        <ele>1164.7</ele>
        <time>2022-02-12T11:41:34Z</time>
      </trkpt>
      <trkpt lat="48.18932" lon="7.14792">
        <ele>1164.6</ele>
        <time>2022-02-12T11:41:35Z</time>
      </trkpt>
      <trkpt lat="48.1894" lon="7.14785">
        <ele>1163.2</ele>
        <time>2022-02-12T11:42:13Z</time>
      </trkpt>
      <trkpt lat="48.18948" lon="7.14777">
        <ele>1161.9</ele>
        <time>2022-02-12T11:42:22Z</time>
      </trkpt>
      <trkpt lat="48.18957" lon="7.14778">
        <ele>1160.6</ele>
        <time>2022-02-12T11:42:32Z</time>
      </trkpt>
      <trkpt lat="48.18958" lon="7.14778">
        <ele>1160.4</ele>
        <time>2022-02-12T11:42:34Z</time>
      </trkpt>
      <trkpt lat="48.18959" lon="7.14778">
        <ele>1160.3</ele>
        <time>2022-02-12T11:42:35Z</time>
      </trkpt>
      <trkpt lat="48.18967" lon="7.14786">
        <ele>1158.9</ele>
        <time>2022-02-12T11:42:51Z</time>
      </trkpt>
      <trkpt lat="48.18975" lon="7.14776">
        <ele>1157.5</ele>
        <time>2022-02-12T11:43:09Z</time>
      </trkpt>
      <trkpt lat="48.18985" lon="7.14771">
        <ele>1156</ele>
        <time>2022-02-12T11:43:35Z</time>
      </trkpt>
      <trkpt lat="48.18994" lon="7.1477">
        <ele>1154.7</ele>
        <time>2022-02-12T11:43:50Z</time>
      </trkpt>
      <trkpt lat="48.18997" lon="7.14777">
        <ele>1153.8</ele>
        <time>2022-02-12T11:43:59Z</time>
      </trkpt>
      <trkpt lat="48.18997" lon="7.14777">
        <ele>1153.8</ele>
        <time>2022-02-12T11:44:00Z</time>
      </trkpt>
      <trkpt lat="48.19006" lon="7.1478">
        <ele>1152.3</ele>
        <time>2022-02-12T11:44:10Z</time>
      </trkpt>
      <trkpt lat="48.19015" lon="7.14778">
        <ele>1150.9</ele>
        <time>2022-02-12T11:44:24Z</time>
      </trkpt>
      <trkpt lat="48.19022" lon="7.14769">
        <ele>1149.5</ele>
        <time>2022-02-12T11:44:34Z</time>
      </trkpt>
      <trkpt lat="48.19031" lon="7.14765">
        <ele>1148.1</ele>
        <time>2022-02-12T11:44:58Z</time>
      </trkpt>
      <trkpt lat="48.1904" lon="7.14769">
        <ele>1146.8</ele>
        <time>2022-02-12T11:45:08Z</time>
      </trkpt>
      <trkpt lat="48.19047" lon="7.14761">
        <ele>1145.5</ele>
        <time>2022-02-12T11:45:21Z</time>
      </trkpt>
      <trkpt lat="48.19057" lon="7.14756">
        <ele>1143.9</ele>
        <time>2022-02-12T11:45:32Z</time>
      </trkpt>
      <trkpt lat="48.19065" lon="7.14751">
        <ele>1142.2</ele>
        <time>2022-02-12T11:45:40Z</time>
      </trkpt>
      <trkpt lat="48.19075" lon="7.14756">
        <ele>1140.1</ele>
        <time>2022-02-12T11:45:53Z</time>
      </trkpt>
      <trkpt lat="48.19084" lon="7.14759">
        <ele>1138</ele>
        <time>2022-02-12T11:46:02Z</time>
      </trkpt>
      <trkpt lat="48.19091" lon="7.14751">
        <ele>1135.9</ele>
        <time>2022-02-12T11:46:10Z</time>
      </trkpt>
      <trkpt lat="48.19101" lon="7.14752">
        <ele>1133.7</ele>
        <time>2022-02-12T11:46:22Z</time>
      </trkpt>
      <trkpt lat="48.1911" lon="7.14755">
        <ele>1131.4</ele>
        <time>2022-02-12T11:46:33Z</time>
      </trkpt>
      <trkpt lat="48.1912" lon="7.14746">
        <ele>1128.8</ele>
        <time>2022-02-12T11:46:49Z</time>
      </trkpt>
      <trkpt lat="48.19129" lon="7.14741">
        <ele>1126.5</ele>
        <time>2022-02-12T11:47:04Z</time>
      </trkpt>
      <trkpt lat="48.19135" lon="7.14745">
        <ele>1124.9</ele>
        <time>2022-02-12T11:47:12Z</time>
      </trkpt>
      <trkpt lat="48.19135" lon="7.14745">
        <ele>1124.8</ele>
        <time>2022-02-12T11:47:13Z</time>
      </trkpt>
      <trkpt lat="48.19134" lon="7.14746">
        <ele>1124.6</ele>
        <time>2022-02-12T11:47:15Z</time>
      </trkpt>
      <trkpt lat="48.19134" lon="7.14746">
        <ele>1124.6</ele>
        <time>2022-02-12T11:47:16Z</time>
      </trkpt>
      <trkpt lat="48.19133" lon="7.14746">
        <ele>1124.4</ele>
        <time>2022-02-12T11:47:18Z</time>
      </trkpt>
      <trkpt lat="48.19133" lon="7.14746">
        <ele>1124.4</ele>
        <time>2022-02-12T11:47:19Z</time>
      </trkpt>
      <trkpt lat="48.19133" lon="7.14746">
        <ele>1124.4</ele>
        <time>2022-02-12T11:47:20Z</time>
      </trkpt>
      <trkpt lat="48.19133" lon="7.14746">
        <ele>1124.3</ele>
        <time>2022-02-12T11:47:22Z</time>
      </trkpt>
      <trkpt lat="48.19133" lon="7.14746">
        <ele>1124.3</ele>
        <time>2022-02-12T11:47:23Z</time>
      </trkpt>
      <trkpt lat="48.19133" lon="7.14746">
        <ele>1124.3</ele>
        <time>2022-02-12T11:47:26Z</time>
      </trkpt>
      <trkpt lat="48.19134" lon="7.14746">
        <ele>1124.1</ele>
        <time>2022-02-12T11:47:29Z</time>
      </trkpt>
      <trkpt lat="48.19133" lon="7.14747">
        <ele>1123.9</ele>
        <time>2022-02-12T11:47:30Z</time>
      </trkpt>
      <trkpt lat="48.19132" lon="7.14748">
        <ele>1123.6</ele>
        <time>2022-02-12T11:47:34Z</time>
      </trkpt>
      <trkpt lat="48.19132" lon="7.14748">
        <ele>1123.6</ele>
        <time>2022-02-12T11:47:36Z</time>
      </trkpt>
      <trkpt lat="48.19141" lon="7.14744">
        <ele>1121.5</ele>
        <time>2022-02-12T11:47:49Z</time>
      </trkpt>
      <trkpt lat="48.19151" lon="7.14744">
        <ele>1119.5</ele>
        <time>2022-02-12T11:48:01Z</time>
      </trkpt>
      <trkpt lat="48.19159" lon="7.14738">
        <ele>1117.6</ele>
        <time>2022-02-12T11:48:12Z</time>
      </trkpt>
      <trkpt lat="48.19169" lon="7.14736">
        <ele>1115.7</ele>
        <time>2022-02-12T11:48:23Z</time>
      </trkpt>
      <trkpt lat="48.19178" lon="7.14731">
        <ele>1114</ele>
        <time>2022-02-12T11:48:32Z</time>
      </trkpt>
      <trkpt lat="48.19187" lon="7.14729">
        <ele>1112.4</ele>
        <time>2022-02-12T11:48:41Z</time>
      </trkpt>
      <trkpt lat="48.19189" lon="7.14735">
        <ele>1111.7</ele>
        <time>2022-02-12T11:48:55Z</time>
      </trkpt>
      <trkpt lat="48.19188" lon="7.14735">
        <ele>1111.7</ele>
        <time>2022-02-12T11:48:58Z</time>
      </trkpt>
      <trkpt lat="48.19188" lon="7.14735">
        <ele>1111.7</ele>
        <time>2022-02-12T11:48:59Z</time>
      </trkpt>
      <trkpt lat="48.19188" lon="7.14735">
        <ele>1111.7</ele>
        <time>2022-02-12T11:49:00Z</time>
      </trkpt>
      <trkpt lat="48.19188" lon="7.14735">
        <ele>1111.7</ele>
        <time>2022-02-12T11:49:01Z</time>
      </trkpt>
      <trkpt lat="48.19188" lon="7.14735">
        <ele>1111.6</ele>
        <time>2022-02-12T11:49:02Z</time>
      </trkpt>
      <trkpt lat="48.19186" lon="7.14743">
        <ele>1110.7</ele>
        <time>2022-02-12T11:49:16Z</time>
      </trkpt>
      <trkpt lat="48.19186" lon="7.14744">
        <ele>1110.6</ele>
        <time>2022-02-12T11:49:22Z</time>
      </trkpt>
      <trkpt lat="48.19185" lon="7.14747">
        <ele>1110.2</ele>
        <time>2022-02-12T11:49:28Z</time>
      </trkpt>
      <trkpt lat="48.19186" lon="7.14746">
        <ele>1110</ele>
        <time>2022-02-12T11:49:30Z</time>
      </trkpt>
      <trkpt lat="48.19186" lon="7.14746">
        <ele>1109.9</ele>
        <time>2022-02-12T11:49:33Z</time>
      </trkpt>
      <trkpt lat="48.19186" lon="7.14745">
        <ele>1109.8</ele>
        <time>2022-02-12T11:49:34Z</time>
      </trkpt>
      <trkpt lat="48.19186" lon="7.14746">
        <ele>1109.7</ele>
        <time>2022-02-12T11:49:37Z</time>
      </trkpt>
      <trkpt lat="48.19186" lon="7.14746">
        <ele>1109.7</ele>
        <time>2022-02-12T11:49:45Z</time>
      </trkpt>
      <trkpt lat="48.19186" lon="7.14746">
        <ele>1109.7</ele>
        <time>2022-02-12T11:49:46Z</time>
      </trkpt>
      <trkpt lat="48.19186" lon="7.14746">
        <ele>1109.7</ele>
        <time>2022-02-12T11:49:55Z</time>
      </trkpt>
      <trkpt lat="48.19186" lon="7.14746">
        <ele>1109.7</ele>
        <time>2022-02-12T11:49:56Z</time>
      </trkpt>
      <trkpt lat="48.19185" lon="7.14747">
        <ele>1109.5</ele>
        <time>2022-02-12T11:50:13Z</time>
      </trkpt>
      <trkpt lat="48.19185" lon="7.14747">
        <ele>1109.5</ele>
        <time>2022-02-12T11:50:14Z</time>
      </trkpt>
      <trkpt lat="48.19185" lon="7.14747">
        <ele>1109.5</ele>
        <time>2022-02-12T11:50:15Z</time>
      </trkpt>
      <trkpt lat="48.19185" lon="7.14747">
        <ele>1109.5</ele>
        <time>2022-02-12T11:50:16Z</time>
      </trkpt>
      <trkpt lat="48.19185" lon="7.14747">
        <ele>1109.5</ele>
        <time>2022-02-12T11:50:20Z</time>
      </trkpt>
      <trkpt lat="48.19186" lon="7.14748">
        <ele>1109.4</ele>
        <time>2022-02-12T11:50:22Z</time>
      </trkpt>
      <trkpt lat="48.19185" lon="7.14748">
        <ele>1109.4</ele>
        <time>2022-02-12T11:50:23Z</time>
      </trkpt>
      <trkpt lat="48.19187" lon="7.14747">
        <ele>1109.1</ele>
        <time>2022-02-12T11:50:29Z</time>
      </trkpt>
      <trkpt lat="48.19187" lon="7.14747">
        <ele>1109</ele>
        <time>2022-02-12T11:50:30Z</time>
      </trkpt>
      <trkpt lat="48.19186" lon="7.14745">
        <ele>1108.7</ele>
        <time>2022-02-12T11:50:37Z</time>
      </trkpt>
      <trkpt lat="48.19186" lon="7.14744">
        <ele>1108.6</ele>
        <time>2022-02-12T11:50:38Z</time>
      </trkpt>
      <trkpt lat="48.19186" lon="7.14744">
        <ele>1108.6</ele>
        <time>2022-02-12T11:50:39Z</time>
      </trkpt>
      <trkpt lat="48.19186" lon="7.14744">
        <ele>1108.6</ele>
        <time>2022-02-12T11:50:41Z</time>
      </trkpt>
      <trkpt lat="48.19187" lon="7.14749">
        <ele>1107.9</ele>
        <time>2022-02-12T11:50:51Z</time>
      </trkpt>
      <trkpt lat="48.19187" lon="7.14749">
        <ele>1107.8</ele>
        <time>2022-02-12T11:50:55Z</time>
      </trkpt>
      <trkpt lat="48.19188" lon="7.14751">
        <ele>1107.6</ele>
        <time>2022-02-12T11:51:07Z</time>
      </trkpt>
      <trkpt lat="48.19188" lon="7.14751">
        <ele>1107.6</ele>
        <time>2022-02-12T11:51:12Z</time>
      </trkpt>
      <trkpt lat="48.19197" lon="7.14748">
        <ele>1105.7</ele>
        <time>2022-02-12T11:51:26Z</time>
      </trkpt>
      <trkpt lat="48.19206" lon="7.14747">
        <ele>1103.7</ele>
        <time>2022-02-12T11:51:39Z</time>
      </trkpt>
      <trkpt lat="48.19213" lon="7.14738">
        <ele>1101.8</ele>
        <time>2022-02-12T11:51:53Z</time>
      </trkpt>
      <trkpt lat="48.19223" lon="7.14733">
        <ele>1099.6</ele>
        <time>2022-02-12T11:52:04Z</time>
      </trkpt>
      <trkpt lat="48.19231" lon="7.14726">
        <ele>1097.6</ele>
        <time>2022-02-12T11:52:18Z</time>
      </trkpt>
      <trkpt lat="48.19239" lon="7.1472">
        <ele>1095.8</ele>
        <time>2022-02-12T11:52:27Z</time>
      </trkpt>
      <trkpt lat="48.19246" lon="7.1471">
        <ele>1093.8</ele>
        <time>2022-02-12T11:52:37Z</time>
      </trkpt>
      <trkpt lat="48.19252" lon="7.147">
        <ele>1091.7</ele>
        <time>2022-02-12T11:52:49Z</time>
      </trkpt>
      <trkpt lat="48.1926" lon="7.14693">
        <ele>1089.7</ele>
        <time>2022-02-12T11:52:57Z</time>
      </trkpt>
      <trkpt lat="48.19269" lon="7.14687">
        <ele>1087.6</ele>
        <time>2022-02-12T11:53:06Z</time>
      </trkpt>
      <trkpt lat="48.19278" lon="7.14684">
        <ele>1085.5</ele>
        <time>2022-02-12T11:53:21Z</time>
      </trkpt>
      <trkpt lat="48.19286" lon="7.14679">
        <ele>1083.6</ele>
        <time>2022-02-12T11:53:32Z</time>
      </trkpt>
      <trkpt lat="48.19293" lon="7.1467">
        <ele>1081.7</ele>
        <time>2022-02-12T11:53:39Z</time>
      </trkpt>
      <trkpt lat="48.19302" lon="7.14664">
        <ele>1080</ele>
        <time>2022-02-12T11:53:49Z</time>
      </trkpt>
      <trkpt lat="48.1931" lon="7.14654">
        <ele>1078.6</ele>
        <time>2022-02-12T11:53:54Z</time>
      </trkpt>
      <trkpt lat="48.19318" lon="7.14646">
        <ele>1077.3</ele>
        <time>2022-02-12T11:54:02Z</time>
      </trkpt>
      <trkpt lat="48.19328" lon="7.14643">
        <ele>1076.4</ele>
        <time>2022-02-12T11:54:10Z</time>
      </trkpt>
      <trkpt lat="48.19336" lon="7.1465">
        <ele>1075.7</ele>
        <time>2022-02-12T11:54:16Z</time>
      </trkpt>
      <trkpt lat="48.19346" lon="7.14645">
        <ele>1075.5</ele>
        <time>2022-02-12T11:54:24Z</time>
      </trkpt>
      <trkpt lat="48.19351" lon="7.14632">
        <ele>1075.5</ele>
        <time>2022-02-12T11:54:31Z</time>
      </trkpt>
      <trkpt lat="48.19352" lon="7.14619">
        <ele>1075.5</ele>
        <time>2022-02-12T11:54:40Z</time>
      </trkpt>
      <trkpt lat="48.19348" lon="7.14631">
        <ele>1075.5</ele>
        <time>2022-02-12T11:54:56Z</time>
      </trkpt>
      <trkpt lat="48.19343" lon="7.14638">
        <ele>1075.5</ele>
        <time>2022-02-12T11:55:16Z</time>
      </trkpt>
      <trkpt lat="48.19343" lon="7.14638">
        <ele>1075.5</ele>
        <time>2022-02-12T11:55:17Z</time>
      </trkpt>
      <trkpt lat="48.19343" lon="7.14638">
        <ele>1075.5</ele>
        <time>2022-02-12T11:55:18Z</time>
      </trkpt>
      <trkpt lat="48.19343" lon="7.14639">
        <ele>1075.5</ele>
        <time>2022-02-12T11:55:20Z</time>
      </trkpt>
      <trkpt lat="48.19341" lon="7.14645">
        <ele>1075.5</ele>
        <time>2022-02-12T11:55:38Z</time>
      </trkpt>
      <trkpt lat="48.19341" lon="7.14644">
        <ele>1075.5</ele>
        <time>2022-02-12T11:55:39Z</time>
      </trkpt>
      <trkpt lat="48.19342" lon="7.14644">
        <ele>1075.5</ele>
        <time>2022-02-12T11:55:45Z</time>
      </trkpt>
      <trkpt lat="48.19342" lon="7.14645">
        <ele>1075.5</ele>
        <time>2022-02-12T11:55:51Z</time>
      </trkpt>
      <trkpt lat="48.19342" lon="7.14646">
        <ele>1075.5</ele>
        <time>2022-02-12T11:55:54Z</time>
      </trkpt>
      <trkpt lat="48.19342" lon="7.14647">
        <ele>1075.5</ele>
        <time>2022-02-12T11:55:55Z</time>
      </trkpt>
      <trkpt lat="48.19342" lon="7.14647">
        <ele>1075.5</ele>
        <time>2022-02-12T11:55:56Z</time>
      </trkpt>
      <trkpt lat="48.19342" lon="7.14647">
        <ele>1075.5</ele>
        <time>2022-02-12T11:55:58Z</time>
      </trkpt>
      <trkpt lat="48.19345" lon="7.14635">
        <ele>1075.5</ele>
        <time>2022-02-12T11:56:10Z</time>
      </trkpt>
      <trkpt lat="48.19347" lon="7.1462">
        <ele>1075.6</ele>
        <time>2022-02-12T11:56:17Z</time>
      </trkpt>
      <trkpt lat="48.19352" lon="7.14607">
        <ele>1076.4</ele>
        <time>2022-02-12T11:56:29Z</time>
      </trkpt>
      <trkpt lat="48.19356" lon="7.14595">
        <ele>1077.3</ele>
        <time>2022-02-12T11:56:39Z</time>
      </trkpt>
      <trkpt lat="48.19358" lon="7.14591">
        <ele>1077.7</ele>
        <time>2022-02-12T11:56:44Z</time>
      </trkpt>
      <trkpt lat="48.19358" lon="7.1459">
        <ele>1077.7</ele>
        <time>2022-02-12T11:56:45Z</time>
      </trkpt>
      <trkpt lat="48.19363" lon="7.14578">
        <ele>1079.1</ele>
        <time>2022-02-12T11:56:54Z</time>
      </trkpt>
      <trkpt lat="48.19369" lon="7.14567">
        <ele>1080.4</ele>
        <time>2022-02-12T11:57:04Z</time>
      </trkpt>
      <trkpt lat="48.19377" lon="7.14559">
        <ele>1081.5</ele>
        <time>2022-02-12T11:57:14Z</time>
      </trkpt>
      <trkpt lat="48.19384" lon="7.1455">
        <ele>1082.5</ele>
        <time>2022-02-12T11:57:24Z</time>
      </trkpt>
      <trkpt lat="48.19391" lon="7.14541">
        <ele>1083.3</ele>
        <time>2022-02-12T11:57:37Z</time>
      </trkpt>
      <trkpt lat="48.19392" lon="7.1454">
        <ele>1083.3</ele>
        <time>2022-02-12T11:57:40Z</time>
      </trkpt>
      <trkpt lat="48.19391" lon="7.14541">
        <ele>1083.4</ele>
        <time>2022-02-12T11:57:41Z</time>
      </trkpt>
      <trkpt lat="48.19392" lon="7.14546">
        <ele>1083.7</ele>
        <time>2022-02-12T11:57:59Z</time>
      </trkpt>
      <trkpt lat="48.19392" lon="7.14546">
        <ele>1083.7</ele>
        <time>2022-02-12T11:58:00Z</time>
      </trkpt>
      <trkpt lat="48.1939" lon="7.14547">
        <ele>1083.8</ele>
        <time>2022-02-12T11:58:03Z</time>
      </trkpt>
      <trkpt lat="48.1939" lon="7.14547">
        <ele>1083.8</ele>
        <time>2022-02-12T11:58:04Z</time>
      </trkpt>
      <trkpt lat="48.1939" lon="7.14546">
        <ele>1083.8</ele>
        <time>2022-02-12T11:58:06Z</time>
      </trkpt>
      <trkpt lat="48.1939" lon="7.14546">
        <ele>1083.9</ele>
        <time>2022-02-12T11:58:10Z</time>
      </trkpt>
      <trkpt lat="48.19392" lon="7.14531">
        <ele>1084.2</ele>
        <time>2022-02-12T11:58:17Z</time>
      </trkpt>
      <trkpt lat="48.19398" lon="7.14519">
        <ele>1084.4</ele>
        <time>2022-02-12T11:58:23Z</time>
      </trkpt>
      <trkpt lat="48.19403" lon="7.14509">
        <ele>1084.5</ele>
        <time>2022-02-12T11:58:29Z</time>
      </trkpt>
      <trkpt lat="48.1941" lon="7.14498">
        <ele>1084.7</ele>
        <time>2022-02-12T11:58:38Z</time>
      </trkpt>
      <trkpt lat="48.19416" lon="7.14487">
        <ele>1084.9</ele>
        <time>2022-02-12T11:58:47Z</time>
      </trkpt>
      <trkpt lat="48.19423" lon="7.14476">
        <ele>1085.2</ele>
        <time>2022-02-12T11:58:57Z</time>
      </trkpt>
      <trkpt lat="48.19428" lon="7.14463">
        <ele>1085.7</ele>
        <time>2022-02-12T11:59:06Z</time>
      </trkpt>
      <trkpt lat="48.19433" lon="7.14451">
        <ele>1086.2</ele>
        <time>2022-02-12T11:59:13Z</time>
      </trkpt>
      <trkpt lat="48.1944" lon="7.14442">
        <ele>1086.7</ele>
        <time>2022-02-12T11:59:20Z</time>
      </trkpt>
      <trkpt lat="48.1944" lon="7.14442">
        <ele>1086.8</ele>
        <time>2022-02-12T11:59:22Z</time>
      </trkpt>
      <trkpt lat="48.19441" lon="7.14441">
        <ele>1086.8</ele>
        <time>2022-02-12T11:59:23Z</time>
      </trkpt>
      <trkpt lat="48.19447" lon="7.14429">
        <ele>1087.3</ele>
        <time>2022-02-12T11:59:31Z</time>
      </trkpt>
      <trkpt lat="48.1945" lon="7.14416">
        <ele>1087.7</ele>
        <time>2022-02-12T11:59:38Z</time>
      </trkpt>
      <trkpt lat="48.19454" lon="7.14404">
        <ele>1088</ele>
        <time>2022-02-12T11:59:46Z</time>
      </trkpt>
      <trkpt lat="48.19457" lon="7.1439">
        <ele>1088.2</ele>
        <time>2022-02-12T11:59:54Z</time>
      </trkpt>
      <trkpt lat="48.19459" lon="7.14375">
        <ele>1088.4</ele>
        <time>2022-02-12T12:00:00Z</time>
      </trkpt>
      <trkpt lat="48.19457" lon="7.14361">
        <ele>1088.6</ele>
        <time>2022-02-12T12:00:08Z</time>
      </trkpt>
      <trkpt lat="48.19455" lon="7.14348">
        <ele>1088.8</ele>
        <time>2022-02-12T12:00:17Z</time>
      </trkpt>
      <trkpt lat="48.19453" lon="7.14335">
        <ele>1089.1</ele>
        <time>2022-02-12T12:00:25Z</time>
      </trkpt>
      <trkpt lat="48.19449" lon="7.1432">
        <ele>1089.5</ele>
        <time>2022-02-12T12:00:34Z</time>
      </trkpt>
      <trkpt lat="48.19449" lon="7.14306">
        <ele>1090</ele>
        <time>2022-02-12T12:00:40Z</time>
      </trkpt>
      <trkpt lat="48.19447" lon="7.14292">
        <ele>1090.6</ele>
        <time>2022-02-12T12:00:49Z</time>
      </trkpt>
      <trkpt lat="48.19442" lon="7.14278">
        <ele>1091.2</ele>
        <time>2022-02-12T12:01:00Z</time>
      </trkpt>
      <trkpt lat="48.19435" lon="7.14269">
        <ele>1091.8</ele>
        <time>2022-02-12T12:01:07Z</time>
      </trkpt>
      <trkpt lat="48.19432" lon="7.14255">
        <ele>1092.4</ele>
        <time>2022-02-12T12:01:15Z</time>
      </trkpt>
      <trkpt lat="48.19427" lon="7.14244">
        <ele>1093</ele>
        <time>2022-02-12T12:01:23Z</time>
      </trkpt>
      <trkpt lat="48.19424" lon="7.1423">
        <ele>1093.6</ele>
        <time>2022-02-12T12:01:30Z</time>
      </trkpt>
      <trkpt lat="48.19418" lon="7.14217">
        <ele>1094.2</ele>
        <time>2022-02-12T12:01:39Z</time>
      </trkpt>
      <trkpt lat="48.19412" lon="7.14207">
        <ele>1094.6</ele>
        <time>2022-02-12T12:01:45Z</time>
      </trkpt>
      <trkpt lat="48.19407" lon="7.14195">
        <ele>1094.8</ele>
        <time>2022-02-12T12:01:55Z</time>
      </trkpt>
      <trkpt lat="48.19399" lon="7.14187">
        <ele>1095.1</ele>
        <time>2022-02-12T12:02:02Z</time>
      </trkpt>
      <trkpt lat="48.19393" lon="7.14176">
        <ele>1095.3</ele>
        <time>2022-02-12T12:02:08Z</time>
      </trkpt>
      <trkpt lat="48.19385" lon="7.14166">
        <ele>1095.7</ele>
        <time>2022-02-12T12:02:17Z</time>
      </trkpt>
      <trkpt lat="48.19379" lon="7.14156">
        <ele>1096</ele>
        <time>2022-02-12T12:02:26Z</time>
      </trkpt>
      <trkpt lat="48.19372" lon="7.14146">
        <ele>1096.5</ele>
        <time>2022-02-12T12:02:34Z</time>
      </trkpt>
      <trkpt lat="48.19364" lon="7.1414">
        <ele>1096.8</ele>
        <time>2022-02-12T12:02:40Z</time>
      </trkpt>
      <trkpt lat="48.19358" lon="7.1413">
        <ele>1096.9</ele>
        <time>2022-02-12T12:02:47Z</time>
      </trkpt>
      <trkpt lat="48.19354" lon="7.14116">
        <ele>1096.9</ele>
        <time>2022-02-12T12:02:56Z</time>
      </trkpt>
      <trkpt lat="48.19348" lon="7.14105">
        <ele>1096.9</ele>
        <time>2022-02-12T12:03:03Z</time>
      </trkpt>
      <trkpt lat="48.19343" lon="7.14093">
        <ele>1096.7</ele>
        <time>2022-02-12T12:03:10Z</time>
      </trkpt>
      <trkpt lat="48.19335" lon="7.14086">
        <ele>1096.4</ele>
        <time>2022-02-12T12:03:18Z</time>
      </trkpt>
      <trkpt lat="48.19331" lon="7.14073">
        <ele>1096</ele>
        <time>2022-02-12T12:03:26Z</time>
      </trkpt>
      <trkpt lat="48.19329" lon="7.1406">
        <ele>1095.7</ele>
        <time>2022-02-12T12:03:33Z</time>
      </trkpt>
      <trkpt lat="48.19322" lon="7.1405">
        <ele>1095.5</ele>
        <time>2022-02-12T12:03:40Z</time>
      </trkpt>
      <trkpt lat="48.19316" lon="7.1404">
        <ele>1095.3</ele>
        <time>2022-02-12T12:03:47Z</time>
      </trkpt>
      <trkpt lat="48.1931" lon="7.14029">
        <ele>1095.2</ele>
        <time>2022-02-12T12:03:55Z</time>
      </trkpt>
      <trkpt lat="48.1931" lon="7.14015">
        <ele>1095.1</ele>
        <time>2022-02-12T12:04:02Z</time>
      </trkpt>
      <trkpt lat="48.19307" lon="7.14">
        <ele>1095.1</ele>
        <time>2022-02-12T12:04:10Z</time>
      </trkpt>
      <trkpt lat="48.19305" lon="7.13987">
        <ele>1095</ele>
        <time>2022-02-12T12:04:16Z</time>
      </trkpt>
      <trkpt lat="48.19301" lon="7.13974">
        <ele>1094.9</ele>
        <time>2022-02-12T12:04:24Z</time>
      </trkpt>
      <trkpt lat="48.193" lon="7.1396">
        <ele>1094.7</ele>
        <time>2022-02-12T12:04:32Z</time>
      </trkpt>
      <trkpt lat="48.19303" lon="7.13947">
        <ele>1094.4</ele>
        <time>2022-02-12T12:04:38Z</time>
      </trkpt>
      <trkpt lat="48.19306" lon="7.13931">
        <ele>1094.1</ele>
        <time>2022-02-12T12:04:46Z</time>
      </trkpt>
      <trkpt lat="48.19306" lon="7.13917">
        <ele>1093.8</ele>
        <time>2022-02-12T12:04:52Z</time>
      </trkpt>
      <trkpt lat="48.19307" lon="7.13901">
        <ele>1093.5</ele>
        <time>2022-02-12T12:04:59Z</time>
      </trkpt>
      <trkpt lat="48.19308" lon="7.13885">
        <ele>1093.1</ele>
        <time>2022-02-12T12:05:07Z</time>
      </trkpt>
      <trkpt lat="48.19308" lon="7.13871">
        <ele>1092.8</ele>
        <time>2022-02-12T12:05:18Z</time>
      </trkpt>
      <trkpt lat="48.19313" lon="7.13858">
        <ele>1092.5</ele>
        <time>2022-02-12T12:05:26Z</time>
      </trkpt>
      <trkpt lat="48.19319" lon="7.13848">
        <ele>1092.2</ele>
        <time>2022-02-12T12:05:37Z</time>
      </trkpt>
      <trkpt lat="48.19327" lon="7.1384">
        <ele>1092.1</ele>
        <time>2022-02-12T12:05:46Z</time>
      </trkpt>
      <trkpt lat="48.19335" lon="7.1383">
        <ele>1091.9</ele>
        <time>2022-02-12T12:05:53Z</time>
      </trkpt>
      <trkpt lat="48.19341" lon="7.13818">
        <ele>1091.7</ele>
        <time>2022-02-12T12:06:01Z</time>
      </trkpt>
      <trkpt lat="48.1935" lon="7.13811">
        <ele>1091.3</ele>
        <time>2022-02-12T12:06:09Z</time>
      </trkpt>
      <trkpt lat="48.19358" lon="7.13805">
        <ele>1090.8</ele>
        <time>2022-02-12T12:06:19Z</time>
      </trkpt>
      <trkpt lat="48.19367" lon="7.13795">
        <ele>1090</ele>
        <time>2022-02-12T12:06:29Z</time>
      </trkpt>
      <trkpt lat="48.19376" lon="7.13788">
        <ele>1088.9</ele>
        <time>2022-02-12T12:06:34Z</time>
      </trkpt>
      <trkpt lat="48.19384" lon="7.13781">
        <ele>1088</ele>
        <time>2022-02-12T12:06:40Z</time>
      </trkpt>
      <trkpt lat="48.1939" lon="7.1377">
        <ele>1087</ele>
        <time>2022-02-12T12:06:47Z</time>
      </trkpt>
      <trkpt lat="48.19397" lon="7.1376">
        <ele>1086.1</ele>
        <time>2022-02-12T12:06:55Z</time>
      </trkpt>
      <trkpt lat="48.19404" lon="7.1375">
        <ele>1085.2</ele>
        <time>2022-02-12T12:07:03Z</time>
      </trkpt>
      <trkpt lat="48.19412" lon="7.13744">
        <ele>1084.3</ele>
        <time>2022-02-12T12:07:09Z</time>
      </trkpt>
      <trkpt lat="48.1942" lon="7.13736">
        <ele>1083.1</ele>
        <time>2022-02-12T12:07:17Z</time>
      </trkpt>
      <trkpt lat="48.19428" lon="7.13727">
        <ele>1081.7</ele>
        <time>2022-02-12T12:07:26Z</time>
      </trkpt>
      <trkpt lat="48.19433" lon="7.13715">
        <ele>1080.3</ele>
        <time>2022-02-12T12:07:33Z</time>
      </trkpt>
      <trkpt lat="48.19436" lon="7.13701">
        <ele>1078.8</ele>
        <time>2022-02-12T12:07:41Z</time>
      </trkpt>
      <trkpt lat="48.19437" lon="7.13687">
        <ele>1077.5</ele>
        <time>2022-02-12T12:07:50Z</time>
      </trkpt>
      <trkpt lat="48.19439" lon="7.13674">
        <ele>1076.3</ele>
        <time>2022-02-12T12:07:56Z</time>
      </trkpt>
      <trkpt lat="48.19443" lon="7.13661">
        <ele>1075.2</ele>
        <time>2022-02-12T12:08:04Z</time>
      </trkpt>
      <trkpt lat="48.1945" lon="7.13652">
        <ele>1075.1</ele>
        <time>2022-02-12T12:08:13Z</time>
      </trkpt>
      <trkpt lat="48.19459" lon="7.13649">
        <ele>1075</ele>
        <time>2022-02-12T12:08:21Z</time>
      </trkpt>
      <trkpt lat="48.19469" lon="7.13646">
        <ele>1075</ele>
        <time>2022-02-12T12:08:29Z</time>
      </trkpt>
      <trkpt lat="48.19478" lon="7.13642">
        <ele>1075</ele>
        <time>2022-02-12T12:08:38Z</time>
      </trkpt>
      <trkpt lat="48.19487" lon="7.13637">
        <ele>1074.1</ele>
        <time>2022-02-12T12:09:00Z</time>
      </trkpt>
      <trkpt lat="48.19488" lon="7.13624">
        <ele>1073</ele>
        <time>2022-02-12T12:09:11Z</time>
      </trkpt>
      <trkpt lat="48.1949" lon="7.13609">
        <ele>1071.7</ele>
        <time>2022-02-12T12:09:20Z</time>
      </trkpt>
      <trkpt lat="48.19491" lon="7.13595">
        <ele>1070.6</ele>
        <time>2022-02-12T12:09:27Z</time>
      </trkpt>
      <trkpt lat="48.19489" lon="7.13582">
        <ele>1069.7</ele>
        <time>2022-02-12T12:09:35Z</time>
      </trkpt>
      <trkpt lat="48.19488" lon="7.13568">
        <ele>1069.1</ele>
        <time>2022-02-12T12:09:42Z</time>
      </trkpt>
      <trkpt lat="48.19488" lon="7.13553">
        <ele>1068.5</ele>
        <time>2022-02-12T12:09:50Z</time>
      </trkpt>
      <trkpt lat="48.19487" lon="7.13539">
        <ele>1067.7</ele>
        <time>2022-02-12T12:09:59Z</time>
      </trkpt>
      <trkpt lat="48.19483" lon="7.13525">
        <ele>1066.7</ele>
        <time>2022-02-12T12:10:08Z</time>
      </trkpt>
      <trkpt lat="48.19481" lon="7.13511">
        <ele>1065.4</ele>
        <time>2022-02-12T12:10:16Z</time>
      </trkpt>
      <trkpt lat="48.19481" lon="7.13496">
        <ele>1063.7</ele>
        <time>2022-02-12T12:10:24Z</time>
      </trkpt>
      <trkpt lat="48.19483" lon="7.13482">
        <ele>1062.1</ele>
        <time>2022-02-12T12:10:31Z</time>
      </trkpt>
      <trkpt lat="48.19483" lon="7.13468">
        <ele>1060.6</ele>
        <time>2022-02-12T12:10:39Z</time>
      </trkpt>
      <trkpt lat="48.19482" lon="7.13453">
        <ele>1059.3</ele>
        <time>2022-02-12T12:10:47Z</time>
      </trkpt>
      <trkpt lat="48.1948" lon="7.13439">
        <ele>1058.1</ele>
        <time>2022-02-12T12:10:55Z</time>
      </trkpt>
      <trkpt lat="48.19479" lon="7.13424">
        <ele>1056.8</ele>
        <time>2022-02-12T12:11:03Z</time>
      </trkpt>
      <trkpt lat="48.19477" lon="7.1341">
        <ele>1055.7</ele>
        <time>2022-02-12T12:11:10Z</time>
      </trkpt>
      <trkpt lat="48.19474" lon="7.13397">
        <ele>1054.4</ele>
        <time>2022-02-12T12:11:18Z</time>
      </trkpt>
      <trkpt lat="48.19471" lon="7.13384">
        <ele>1053.1</ele>
        <time>2022-02-12T12:11:26Z</time>
      </trkpt>
      <trkpt lat="48.19463" lon="7.13374">
        <ele>1051.7</ele>
        <time>2022-02-12T12:11:34Z</time>
      </trkpt>
      <trkpt lat="48.19458" lon="7.13361">
        <ele>1050.2</ele>
        <time>2022-02-12T12:11:41Z</time>
      </trkpt>
      <trkpt lat="48.19453" lon="7.1335">
        <ele>1048.8</ele>
        <time>2022-02-12T12:11:49Z</time>
      </trkpt>
      <trkpt lat="48.1945" lon="7.13335">
        <ele>1047.4</ele>
        <time>2022-02-12T12:11:59Z</time>
      </trkpt>
      <trkpt lat="48.19447" lon="7.13322">
        <ele>1046.1</ele>
        <time>2022-02-12T12:12:06Z</time>
      </trkpt>
      <trkpt lat="48.19442" lon="7.1331">
        <ele>1044.8</ele>
        <time>2022-02-12T12:12:13Z</time>
      </trkpt>
      <trkpt lat="48.1944" lon="7.13295">
        <ele>1043.5</ele>
        <time>2022-02-12T12:12:21Z</time>
      </trkpt>
      <trkpt lat="48.19438" lon="7.13281">
        <ele>1042.3</ele>
        <time>2022-02-12T12:12:29Z</time>
      </trkpt>
      <trkpt lat="48.19433" lon="7.13269">
        <ele>1041.2</ele>
        <time>2022-02-12T12:12:36Z</time>
      </trkpt>
      <trkpt lat="48.19428" lon="7.13256">
        <ele>1040</ele>
        <time>2022-02-12T12:12:45Z</time>
      </trkpt>
      <trkpt lat="48.19424" lon="7.13242">
        <ele>1038.8</ele>
        <time>2022-02-12T12:12:52Z</time>
      </trkpt>
      <trkpt lat="48.19421" lon="7.13228">
        <ele>1037.6</ele>
        <time>2022-02-12T12:12:58Z</time>
      </trkpt>
      <trkpt lat="48.19417" lon="7.13215">
        <ele>1036.4</ele>
        <time>2022-02-12T12:13:05Z</time>
      </trkpt>
      <trkpt lat="48.19416" lon="7.13202">
        <ele>1035.3</ele>
        <time>2022-02-12T12:13:12Z</time>
      </trkpt>
      <trkpt lat="48.19414" lon="7.13188">
        <ele>1034.2</ele>
        <time>2022-02-12T12:13:20Z</time>
      </trkpt>
      <trkpt lat="48.19413" lon="7.13175">
        <ele>1033.3</ele>
        <time>2022-02-12T12:13:29Z</time>
      </trkpt>
      <trkpt lat="48.19408" lon="7.13163">
        <ele>1032.3</ele>
        <time>2022-02-12T12:13:38Z</time>
      </trkpt>
      <trkpt lat="48.19404" lon="7.13149">
        <ele>1031.5</ele>
        <time>2022-02-12T12:13:46Z</time>
      </trkpt>
      <trkpt lat="48.19397" lon="7.13138">
        <ele>1030.8</ele>
        <time>2022-02-12T12:13:53Z</time>
      </trkpt>
      <trkpt lat="48.19392" lon="7.13127">
        <ele>1030.3</ele>
        <time>2022-02-12T12:13:59Z</time>
      </trkpt>
      <trkpt lat="48.19387" lon="7.13113">
        <ele>1029.8</ele>
        <time>2022-02-12T12:14:06Z</time>
      </trkpt>
      <trkpt lat="48.19382" lon="7.13101">
        <ele>1029.3</ele>
        <time>2022-02-12T12:14:14Z</time>
      </trkpt>
      <trkpt lat="48.19377" lon="7.13087">
        <ele>1028.9</ele>
        <time>2022-02-12T12:14:21Z</time>
      </trkpt>
      <trkpt lat="48.19376" lon="7.13072">
        <ele>1028.5</ele>
        <time>2022-02-12T12:14:28Z</time>
      </trkpt>
      <trkpt lat="48.19372" lon="7.13059">
        <ele>1028.3</ele>
        <time>2022-02-12T12:14:34Z</time>
      </trkpt>
      <trkpt lat="48.19364" lon="7.13052">
        <ele>1028.1</ele>
        <time>2022-02-12T12:14:40Z</time>
      </trkpt>
      <trkpt lat="48.19361" lon="7.13038">
        <ele>1028</ele>
        <time>2022-02-12T12:14:47Z</time>
      </trkpt>
      <trkpt lat="48.19358" lon="7.13025">
        <ele>1028.1</ele>
        <time>2022-02-12T12:14:55Z</time>
      </trkpt>
      <trkpt lat="48.1935" lon="7.13017">
        <ele>1028.2</ele>
        <time>2022-02-12T12:15:03Z</time>
      </trkpt>
      <trkpt lat="48.19345" lon="7.13006">
        <ele>1028.3</ele>
        <time>2022-02-12T12:15:12Z</time>
      </trkpt>
      <trkpt lat="48.19342" lon="7.12992">
        <ele>1028.6</ele>
        <time>2022-02-12T12:15:19Z</time>
      </trkpt>
      <trkpt lat="48.19343" lon="7.12979">
        <ele>1028.8</ele>
        <time>2022-02-12T12:15:25Z</time>
      </trkpt>
      <trkpt lat="48.19336" lon="7.12968">
        <ele>1029.2</ele>
        <time>2022-02-12T12:15:31Z</time>
      </trkpt>
      <trkpt lat="48.1933" lon="7.12955">
        <ele>1029.6</ele>
        <time>2022-02-12T12:15:39Z</time>
      </trkpt>
      <trkpt lat="48.19327" lon="7.12941">
        <ele>1029.9</ele>
        <time>2022-02-12T12:15:45Z</time>
      </trkpt>
      <trkpt lat="48.19322" lon="7.12928">
        <ele>1030.2</ele>
        <time>2022-02-12T12:15:51Z</time>
      </trkpt>
      <trkpt lat="48.19322" lon="7.12914">
        <ele>1030.5</ele>
        <time>2022-02-12T12:15:57Z</time>
      </trkpt>
      <trkpt lat="48.19318" lon="7.12902">
        <ele>1030.8</ele>
        <time>2022-02-12T12:16:04Z</time>
      </trkpt>
      <trkpt lat="48.1932" lon="7.12888">
        <ele>1031.1</ele>
        <time>2022-02-12T12:16:09Z</time>
      </trkpt>
      <trkpt lat="48.19312" lon="7.12879">
        <ele>1031.3</ele>
        <time>2022-02-12T12:16:16Z</time>
      </trkpt>
      <trkpt lat="48.19303" lon="7.12874">
        <ele>1031.3</ele>
        <time>2022-02-12T12:16:23Z</time>
      </trkpt>
      <trkpt lat="48.19297" lon="7.12863">
        <ele>1031.3</ele>
        <time>2022-02-12T12:16:31Z</time>
      </trkpt>
      <trkpt lat="48.19287" lon="7.12862">
        <ele>1031.1</ele>
        <time>2022-02-12T12:16:38Z</time>
      </trkpt>
      <trkpt lat="48.19281" lon="7.12852">
        <ele>1030.9</ele>
        <time>2022-02-12T12:16:46Z</time>
      </trkpt>
      <trkpt lat="48.19272" lon="7.12846">
        <ele>1030.7</ele>
        <time>2022-02-12T12:16:53Z</time>
      </trkpt>
      <trkpt lat="48.19267" lon="7.12833">
        <ele>1030.3</ele>
        <time>2022-02-12T12:17:00Z</time>
      </trkpt>
      <trkpt lat="48.1926" lon="7.12822">
        <ele>1029.8</ele>
        <time>2022-02-12T12:17:06Z</time>
      </trkpt>
      <trkpt lat="48.19259" lon="7.12808">
        <ele>1029.3</ele>
        <time>2022-02-12T12:17:12Z</time>
      </trkpt>
      <trkpt lat="48.19257" lon="7.12795">
        <ele>1028.9</ele>
        <time>2022-02-12T12:17:18Z</time>
      </trkpt>
      <trkpt lat="48.19252" lon="7.12783">
        <ele>1028.4</ele>
        <time>2022-02-12T12:17:26Z</time>
      </trkpt>
      <trkpt lat="48.19254" lon="7.12769">
        <ele>1028</ele>
        <time>2022-02-12T12:17:30Z</time>
      </trkpt>
      <trkpt lat="48.1925" lon="7.12756">
        <ele>1027.7</ele>
        <time>2022-02-12T12:17:38Z</time>
      </trkpt>
      <trkpt lat="48.19241" lon="7.12748">
        <ele>1027.4</ele>
        <time>2022-02-12T12:17:46Z</time>
      </trkpt>
      <trkpt lat="48.19234" lon="7.12739">
        <ele>1027.3</ele>
        <time>2022-02-12T12:17:53Z</time>
      </trkpt>
      <trkpt lat="48.19225" lon="7.12731">
        <ele>1027.2</ele>
        <time>2022-02-12T12:17:59Z</time>
      </trkpt>
      <trkpt lat="48.19216" lon="7.12725">
        <ele>1027.2</ele>
        <time>2022-02-12T12:18:06Z</time>
      </trkpt>
      <trkpt lat="48.19207" lon="7.1272">
        <ele>1027.3</ele>
        <time>2022-02-12T12:18:13Z</time>
      </trkpt>
      <trkpt lat="48.192" lon="7.12709">
        <ele>1027.5</ele>
        <time>2022-02-12T12:18:21Z</time>
      </trkpt>
      <trkpt lat="48.19191" lon="7.12703">
        <ele>1027.6</ele>
        <time>2022-02-12T12:18:28Z</time>
      </trkpt>
      <trkpt lat="48.19182" lon="7.12696">
        <ele>1027.8</ele>
        <time>2022-02-12T12:18:36Z</time>
      </trkpt>
      <trkpt lat="48.19173" lon="7.12694">
        <ele>1028</ele>
        <time>2022-02-12T12:18:44Z</time>
      </trkpt>
      <trkpt lat="48.19164" lon="7.12689">
        <ele>1028.2</ele>
        <time>2022-02-12T12:18:52Z</time>
      </trkpt>
      <trkpt lat="48.19155" lon="7.1269">
        <ele>1028.3</ele>
        <time>2022-02-12T12:18:57Z</time>
      </trkpt>
      <trkpt lat="48.19145" lon="7.12684">
        <ele>1028.2</ele>
        <time>2022-02-12T12:19:05Z</time>
      </trkpt>
      <trkpt lat="48.19136" lon="7.12678">
        <ele>1028.1</ele>
        <time>2022-02-12T12:19:13Z</time>
      </trkpt>
      <trkpt lat="48.19128" lon="7.12672">
        <ele>1027.9</ele>
        <time>2022-02-12T12:19:21Z</time>
      </trkpt>
      <trkpt lat="48.19124" lon="7.12659">
        <ele>1027.5</ele>
        <time>2022-02-12T12:19:28Z</time>
      </trkpt>
      <trkpt lat="48.19117" lon="7.12648">
        <ele>1027.1</ele>
        <time>2022-02-12T12:19:34Z</time>
      </trkpt>
      <trkpt lat="48.19109" lon="7.12637">
        <ele>1026.6</ele>
        <time>2022-02-12T12:19:41Z</time>
      </trkpt>
      <trkpt lat="48.19102" lon="7.12627">
        <ele>1025.9</ele>
        <time>2022-02-12T12:19:47Z</time>
      </trkpt>
      <trkpt lat="48.19094" lon="7.12619">
        <ele>1025.2</ele>
        <time>2022-02-12T12:19:53Z</time>
      </trkpt>
      <trkpt lat="48.19084" lon="7.12613">
        <ele>1024.4</ele>
        <time>2022-02-12T12:20:01Z</time>
      </trkpt>
      <trkpt lat="48.19082" lon="7.12597">
        <ele>1023.5</ele>
        <time>2022-02-12T12:20:07Z</time>
      </trkpt>
      <trkpt lat="48.19076" lon="7.12584">
        <ele>1022.7</ele>
        <time>2022-02-12T12:20:15Z</time>
      </trkpt>
      <trkpt lat="48.19072" lon="7.1257">
        <ele>1021.9</ele>
        <time>2022-02-12T12:20:22Z</time>
      </trkpt>
      <trkpt lat="48.19073" lon="7.12554">
        <ele>1021.1</ele>
        <time>2022-02-12T12:20:30Z</time>
      </trkpt>
      <trkpt lat="48.1907" lon="7.1254">
        <ele>1020.4</ele>
        <time>2022-02-12T12:20:37Z</time>
      </trkpt>
      <trkpt lat="48.19069" lon="7.12524">
        <ele>1019.7</ele>
        <time>2022-02-12T12:20:43Z</time>
      </trkpt>
      <trkpt lat="48.19064" lon="7.12513">
        <ele>1019</ele>
        <time>2022-02-12T12:20:49Z</time>
      </trkpt>
      <trkpt lat="48.19056" lon="7.12503">
        <ele>1018.2</ele>
        <time>2022-02-12T12:20:56Z</time>
      </trkpt>
      <trkpt lat="48.19047" lon="7.125">
        <ele>1017.6</ele>
        <time>2022-02-12T12:21:02Z</time>
      </trkpt>
      <trkpt lat="48.19039" lon="7.12492">
        <ele>1017</ele>
        <time>2022-02-12T12:21:09Z</time>
      </trkpt>
      <trkpt lat="48.19037" lon="7.12478">
        <ele>1016.5</ele>
        <time>2022-02-12T12:21:15Z</time>
      </trkpt>
      <trkpt lat="48.19032" lon="7.12465">
        <ele>1016</ele>
        <time>2022-02-12T12:21:25Z</time>
      </trkpt>
      <trkpt lat="48.19028" lon="7.12452">
        <ele>1015.6</ele>
        <time>2022-02-12T12:21:34Z</time>
      </trkpt>
      <trkpt lat="48.19023" lon="7.12441">
        <ele>1015.2</ele>
        <time>2022-02-12T12:21:40Z</time>
      </trkpt>
      <trkpt lat="48.19015" lon="7.1243">
        <ele>1014.6</ele>
        <time>2022-02-12T12:21:47Z</time>
      </trkpt>
      <trkpt lat="48.19007" lon="7.12425">
        <ele>1014</ele>
        <time>2022-02-12T12:21:53Z</time>
      </trkpt>
      <trkpt lat="48.19002" lon="7.12413">
        <ele>1013.3</ele>
        <time>2022-02-12T12:22:01Z</time>
      </trkpt>
      <trkpt lat="48.18995" lon="7.12405">
        <ele>1012.3</ele>
        <time>2022-02-12T12:22:09Z</time>
      </trkpt>
      <trkpt lat="48.18987" lon="7.12395">
        <ele>1011.2</ele>
        <time>2022-02-12T12:22:16Z</time>
      </trkpt>
      <trkpt lat="48.18982" lon="7.12382">
        <ele>1010.1</ele>
        <time>2022-02-12T12:22:24Z</time>
      </trkpt>
      <trkpt lat="48.18974" lon="7.12373">
        <ele>1009</ele>
        <time>2022-02-12T12:22:31Z</time>
      </trkpt>
      <trkpt lat="48.18968" lon="7.12362">
        <ele>1007.9</ele>
        <time>2022-02-12T12:22:38Z</time>
      </trkpt>
      <trkpt lat="48.18965" lon="7.1235">
        <ele>1006.7</ele>
        <time>2022-02-12T12:22:46Z</time>
      </trkpt>
      <trkpt lat="48.18959" lon="7.12338">
        <ele>1005.4</ele>
        <time>2022-02-12T12:22:53Z</time>
      </trkpt>
      <trkpt lat="48.18952" lon="7.12326">
        <ele>1004</ele>
        <time>2022-02-12T12:23:01Z</time>
      </trkpt>
      <trkpt lat="48.18946" lon="7.12315">
        <ele>1002.6</ele>
        <time>2022-02-12T12:23:08Z</time>
      </trkpt>
      <trkpt lat="48.18939" lon="7.12306">
        <ele>1001.1</ele>
        <time>2022-02-12T12:23:15Z</time>
      </trkpt>
      <trkpt lat="48.18933" lon="7.12294">
        <ele>999.6</ele>
        <time>2022-02-12T12:23:22Z</time>
      </trkpt>
      <trkpt lat="48.18927" lon="7.12284">
        <ele>998.2</ele>
        <time>2022-02-12T12:23:28Z</time>
      </trkpt>
      <trkpt lat="48.18926" lon="7.12268">
        <ele>996.7</ele>
        <time>2022-02-12T12:23:41Z</time>
      </trkpt>
      <trkpt lat="48.18924" lon="7.12254">
        <ele>995.5</ele>
        <time>2022-02-12T12:23:47Z</time>
      </trkpt>
      <trkpt lat="48.18925" lon="7.12237">
        <ele>994</ele>
        <time>2022-02-12T12:23:54Z</time>
      </trkpt>
      <trkpt lat="48.18923" lon="7.12224">
        <ele>992.8</ele>
        <time>2022-02-12T12:23:58Z</time>
      </trkpt>
      <trkpt lat="48.18922" lon="7.12208">
        <ele>991.2</ele>
        <time>2022-02-12T12:24:06Z</time>
      </trkpt>
      <trkpt lat="48.18919" lon="7.12193">
        <ele>989.5</ele>
        <time>2022-02-12T12:24:12Z</time>
      </trkpt>
      <trkpt lat="48.18917" lon="7.1218">
        <ele>987.9</ele>
        <time>2022-02-12T12:24:21Z</time>
      </trkpt>
      <trkpt lat="48.18909" lon="7.12174">
        <ele>986.4</ele>
        <time>2022-02-12T12:24:32Z</time>
      </trkpt>
      <trkpt lat="48.189" lon="7.12168">
        <ele>984.8</ele>
        <time>2022-02-12T12:24:39Z</time>
      </trkpt>
      <trkpt lat="48.18897" lon="7.12154">
        <ele>983.1</ele>
        <time>2022-02-12T12:24:47Z</time>
      </trkpt>
      <trkpt lat="48.18888" lon="7.12149">
        <ele>981.4</ele>
        <time>2022-02-12T12:24:52Z</time>
      </trkpt>
      <trkpt lat="48.18884" lon="7.12135">
        <ele>979.8</ele>
        <time>2022-02-12T12:25:01Z</time>
      </trkpt>
      <trkpt lat="48.18886" lon="7.1212">
        <ele>978.4</ele>
        <time>2022-02-12T12:25:07Z</time>
      </trkpt>
      <trkpt lat="48.1888" lon="7.12108">
        <ele>977.1</ele>
        <time>2022-02-12T12:25:17Z</time>
      </trkpt>
      <trkpt lat="48.18876" lon="7.12096">
        <ele>976</ele>
        <time>2022-02-12T12:25:35Z</time>
      </trkpt>
      <trkpt lat="48.18872" lon="7.12082">
        <ele>974.9</ele>
        <time>2022-02-12T12:25:44Z</time>
      </trkpt>
      <trkpt lat="48.18866" lon="7.12069">
        <ele>973.8</ele>
        <time>2022-02-12T12:25:50Z</time>
      </trkpt>
      <trkpt lat="48.18865" lon="7.12055">
        <ele>973.6</ele>
        <time>2022-02-12T12:26:03Z</time>
      </trkpt>
      <trkpt lat="48.18865" lon="7.12046">
        <ele>973.6</ele>
        <time>2022-02-12T12:26:15Z</time>
      </trkpt>
      <trkpt lat="48.18864" lon="7.12048">
        <ele>973.6</ele>
        <time>2022-02-12T12:26:16Z</time>
      </trkpt>
      <trkpt lat="48.18862" lon="7.12061">
        <ele>973.6</ele>
        <time>2022-02-12T12:27:01Z</time>
      </trkpt>
      <trkpt lat="48.18855" lon="7.12071">
        <ele>973.7</ele>
        <time>2022-02-12T12:27:09Z</time>
      </trkpt>
      <trkpt lat="48.18851" lon="7.12077">
        <ele>973.7</ele>
        <time>2022-02-12T12:27:14Z</time>
      </trkpt>
      <trkpt lat="48.18852" lon="7.12077">
        <ele>973.7</ele>
        <time>2022-02-12T12:27:15Z</time>
      </trkpt>
      <trkpt lat="48.18861" lon="7.1207">
        <ele>973.8</ele>
        <time>2022-02-12T12:27:30Z</time>
      </trkpt>
      <trkpt lat="48.18869" lon="7.1206">
        <ele>973.5</ele>
        <time>2022-02-12T12:27:38Z</time>
      </trkpt>
      <trkpt lat="48.18877" lon="7.12053">
        <ele>973.3</ele>
        <time>2022-02-12T12:27:44Z</time>
      </trkpt>
      <trkpt lat="48.18885" lon="7.12046">
        <ele>972.8</ele>
        <time>2022-02-12T12:27:51Z</time>
      </trkpt>
      <trkpt lat="48.18895" lon="7.12041">
        <ele>972.5</ele>
        <time>2022-02-12T12:27:59Z</time>
      </trkpt>
      <trkpt lat="48.18912" lon="7.12038">
        <ele>971.8</ele>
        <time>2022-02-12T12:28:11Z</time>
      </trkpt>
      <trkpt lat="48.18923" lon="7.12046">
        <ele>971.3</ele>
        <time>2022-02-12T12:28:13Z</time>
      </trkpt>
      <trkpt lat="48.18933" lon="7.1205">
        <ele>970.8</ele>
        <time>2022-02-12T12:28:16Z</time>
      </trkpt>
      <trkpt lat="48.18941" lon="7.12045">
        <ele>970.3</ele>
        <time>2022-02-12T12:28:28Z</time>
      </trkpt>
      <trkpt lat="48.1895" lon="7.12049">
        <ele>969.7</ele>
        <time>2022-02-12T12:28:36Z</time>
      </trkpt>
      <trkpt lat="48.18961" lon="7.12052">
        <ele>969.2</ele>
        <time>2022-02-12T12:28:41Z</time>
      </trkpt>
      <trkpt lat="48.18966" lon="7.1204">
        <ele>968.8</ele>
        <time>2022-02-12T12:28:48Z</time>
      </trkpt>
      <trkpt lat="48.18975" lon="7.12043">
        <ele>968.4</ele>
        <time>2022-02-12T12:29:08Z</time>
      </trkpt>
      <trkpt lat="48.18988" lon="7.12045">
        <ele>967.9</ele>
        <time>2022-02-12T12:29:15Z</time>
      </trkpt>
      <trkpt lat="48.18999" lon="7.12047">
        <ele>967.3</ele>
        <time>2022-02-12T12:29:20Z</time>
      </trkpt>
      <trkpt lat="48.19017" lon="7.1206">
        <ele>966.1</ele>
        <time>2022-02-12T12:29:27Z</time>
      </trkpt>
      <trkpt lat="48.19026" lon="7.12075">
        <ele>965.1</ele>
        <time>2022-02-12T12:29:30Z</time>
      </trkpt>
      <trkpt lat="48.19041" lon="7.1208">
        <ele>963.6</ele>
        <time>2022-02-12T12:29:39Z</time>
      </trkpt>
      <trkpt lat="48.19061" lon="7.12078">
        <ele>961.2</ele>
        <time>2022-02-12T12:29:52Z</time>
      </trkpt>
      <trkpt lat="48.1907" lon="7.12083">
        <ele>960.1</ele>
        <time>2022-02-12T12:29:59Z</time>
      </trkpt>
      <trkpt lat="48.19078" lon="7.12092">
        <ele>958.9</ele>
        <time>2022-02-12T12:30:02Z</time>
      </trkpt>
      <trkpt lat="48.19087" lon="7.12095">
        <ele>957.7</ele>
        <time>2022-02-12T12:30:07Z</time>
      </trkpt>
      <trkpt lat="48.19097" lon="7.12098">
        <ele>956.7</ele>
        <time>2022-02-12T12:30:15Z</time>
      </trkpt>
      <trkpt lat="48.19109" lon="7.12098">
        <ele>955.6</ele>
        <time>2022-02-12T12:30:18Z</time>
      </trkpt>
      <trkpt lat="48.19116" lon="7.1209">
        <ele>954.8</ele>
        <time>2022-02-12T12:30:23Z</time>
      </trkpt>
      <trkpt lat="48.19122" lon="7.12076">
        <ele>953.9</ele>
        <time>2022-02-12T12:30:29Z</time>
      </trkpt>
      <trkpt lat="48.19151" lon="7.12039">
        <ele>950.7</ele>
        <time>2022-02-12T12:30:54Z</time>
      </trkpt>
      <trkpt lat="48.19148" lon="7.12026">
        <ele>949.9</ele>
        <time>2022-02-12T12:30:56Z</time>
      </trkpt>
      <trkpt lat="48.19144" lon="7.12012">
        <ele>949.1</ele>
        <time>2022-02-12T12:30:59Z</time>
      </trkpt>
      <trkpt lat="48.19139" lon="7.11999">
        <ele>948.4</ele>
        <time>2022-02-12T12:31:02Z</time>
      </trkpt>
      <trkpt lat="48.19137" lon="7.11984">
        <ele>947.7</ele>
        <time>2022-02-12T12:31:15Z</time>
      </trkpt>
      <trkpt lat="48.19132" lon="7.11971">
        <ele>947.1</ele>
        <time>2022-02-12T12:31:18Z</time>
      </trkpt>
      <trkpt lat="48.19137" lon="7.11957">
        <ele>946.5</ele>
        <time>2022-02-12T12:31:26Z</time>
      </trkpt>
      <trkpt lat="48.19144" lon="7.11948">
        <ele>946</ele>
        <time>2022-02-12T12:31:32Z</time>
      </trkpt>
      <trkpt lat="48.19149" lon="7.11935">
        <ele>945.6</ele>
        <time>2022-02-12T12:31:40Z</time>
      </trkpt>
      <trkpt lat="48.19157" lon="7.11925">
        <ele>945.2</ele>
        <time>2022-02-12T12:31:45Z</time>
      </trkpt>
      <trkpt lat="48.19168" lon="7.11921">
        <ele>944.8</ele>
        <time>2022-02-12T12:31:50Z</time>
      </trkpt>
      <trkpt lat="48.19164" lon="7.11907">
        <ele>944.4</ele>
        <time>2022-02-12T12:31:54Z</time>
      </trkpt>
      <trkpt lat="48.19162" lon="7.1189">
        <ele>943.8</ele>
        <time>2022-02-12T12:31:59Z</time>
      </trkpt>
      <trkpt lat="48.19163" lon="7.11876">
        <ele>943.3</ele>
        <time>2022-02-12T12:32:05Z</time>
      </trkpt>
      <trkpt lat="48.19173" lon="7.11882">
        <ele>942.6</ele>
        <time>2022-02-12T12:32:08Z</time>
      </trkpt>
      <trkpt lat="48.19179" lon="7.11883">
        <ele>942.3</ele>
        <time>2022-02-12T12:32:13Z</time>
      </trkpt>
      <trkpt lat="48.19179" lon="7.11883">
        <ele>942.2</ele>
        <time>2022-02-12T12:32:14Z</time>
      </trkpt>
      <trkpt lat="48.19188" lon="7.11875">
        <ele>941.5</ele>
        <time>2022-02-12T12:32:22Z</time>
      </trkpt>
      <trkpt lat="48.19197" lon="7.1188">
        <ele>940.8</ele>
        <time>2022-02-12T12:32:30Z</time>
      </trkpt>
      <trkpt lat="48.19203" lon="7.11868">
        <ele>940</ele>
        <time>2022-02-12T12:32:35Z</time>
      </trkpt>
      <trkpt lat="48.19204" lon="7.11854">
        <ele>939.1</ele>
        <time>2022-02-12T12:32:40Z</time>
      </trkpt>
      <trkpt lat="48.19214" lon="7.11847">
        <ele>938.1</ele>
        <time>2022-02-12T12:32:47Z</time>
      </trkpt>
      <trkpt lat="48.19208" lon="7.11836">
        <ele>937.4</ele>
        <time>2022-02-12T12:32:51Z</time>
      </trkpt>
      <trkpt lat="48.19214" lon="7.11824">
        <ele>936.6</ele>
        <time>2022-02-12T12:32:59Z</time>
      </trkpt>
      <trkpt lat="48.19224" lon="7.11823">
        <ele>935.9</ele>
        <time>2022-02-12T12:33:04Z</time>
      </trkpt>
      <trkpt lat="48.19229" lon="7.11809">
        <ele>935.3</ele>
        <time>2022-02-12T12:33:10Z</time>
      </trkpt>
      <trkpt lat="48.19232" lon="7.11795">
        <ele>934.6</ele>
        <time>2022-02-12T12:33:16Z</time>
      </trkpt>
      <trkpt lat="48.19227" lon="7.11784">
        <ele>934</ele>
        <time>2022-02-12T12:33:23Z</time>
      </trkpt>
      <trkpt lat="48.19224" lon="7.11771">
        <ele>933.3</ele>
        <time>2022-02-12T12:33:27Z</time>
      </trkpt>
      <trkpt lat="48.19222" lon="7.11757">
        <ele>932.8</ele>
        <time>2022-02-12T12:33:32Z</time>
      </trkpt>
      <trkpt lat="48.19214" lon="7.11748">
        <ele>932.5</ele>
        <time>2022-02-12T12:33:38Z</time>
      </trkpt>
      <trkpt lat="48.19205" lon="7.11744">
        <ele>932.3</ele>
        <time>2022-02-12T12:33:44Z</time>
      </trkpt>
      <trkpt lat="48.19198" lon="7.11735">
        <ele>932.2</ele>
        <time>2022-02-12T12:33:53Z</time>
      </trkpt>
      <trkpt lat="48.19203" lon="7.11723">
        <ele>932.1</ele>
        <time>2022-02-12T12:33:56Z</time>
      </trkpt>
      <trkpt lat="48.19202" lon="7.11709">
        <ele>932</ele>
        <time>2022-02-12T12:34:02Z</time>
      </trkpt>
      <trkpt lat="48.19197" lon="7.11696">
        <ele>931.6</ele>
        <time>2022-02-12T12:34:07Z</time>
      </trkpt>
      <trkpt lat="48.19193" lon="7.11683">
        <ele>931.1</ele>
        <time>2022-02-12T12:34:13Z</time>
      </trkpt>
      <trkpt lat="48.19193" lon="7.11669">
        <ele>930.5</ele>
        <time>2022-02-12T12:34:18Z</time>
      </trkpt>
      <trkpt lat="48.19194" lon="7.11655">
        <ele>929.6</ele>
        <time>2022-02-12T12:34:23Z</time>
      </trkpt>
      <trkpt lat="48.19193" lon="7.11642">
        <ele>928.6</ele>
        <time>2022-02-12T12:34:31Z</time>
      </trkpt>
      <trkpt lat="48.19197" lon="7.11628">
        <ele>927.3</ele>
        <time>2022-02-12T12:34:40Z</time>
      </trkpt>
      <trkpt lat="48.192" lon="7.11613">
        <ele>925.8</ele>
        <time>2022-02-12T12:34:50Z</time>
      </trkpt>
      <trkpt lat="48.19204" lon="7.116">
        <ele>924.4</ele>
        <time>2022-02-12T12:35:03Z</time>
      </trkpt>
      <trkpt lat="48.19199" lon="7.11588">
        <ele>923</ele>
        <time>2022-02-12T12:35:14Z</time>
      </trkpt>
      <trkpt lat="48.19199" lon="7.11574">
        <ele>921.6</ele>
        <time>2022-02-12T12:35:22Z</time>
      </trkpt>
      <trkpt lat="48.19205" lon="7.11563">
        <ele>920.3</ele>
        <time>2022-02-12T12:35:29Z</time>
      </trkpt>
      <trkpt lat="48.19208" lon="7.11548">
        <ele>919</ele>
        <time>2022-02-12T12:35:33Z</time>
      </trkpt>
      <trkpt lat="48.19209" lon="7.11535">
        <ele>917.8</ele>
        <time>2022-02-12T12:35:39Z</time>
      </trkpt>
      <trkpt lat="48.19215" lon="7.11524">
        <ele>916.7</ele>
        <time>2022-02-12T12:35:48Z</time>
      </trkpt>
      <trkpt lat="48.19225" lon="7.11519">
        <ele>915.4</ele>
        <time>2022-02-12T12:35:54Z</time>
      </trkpt>
      <trkpt lat="48.19233" lon="7.1151">
        <ele>914</ele>
        <time>2022-02-12T12:36:02Z</time>
      </trkpt>
      <trkpt lat="48.19241" lon="7.11502">
        <ele>912.5</ele>
        <time>2022-02-12T12:36:08Z</time>
      </trkpt>
      <trkpt lat="48.19246" lon="7.11488">
        <ele>910.8</ele>
        <time>2022-02-12T12:36:24Z</time>
      </trkpt>
      <trkpt lat="48.1925" lon="7.11476">
        <ele>909.4</ele>
        <time>2022-02-12T12:36:31Z</time>
      </trkpt>
      <trkpt lat="48.19254" lon="7.11464">
        <ele>907.9</ele>
        <time>2022-02-12T12:36:40Z</time>
      </trkpt>
      <trkpt lat="48.19263" lon="7.11454">
        <ele>906</ele>
        <time>2022-02-12T12:36:46Z</time>
      </trkpt>
      <trkpt lat="48.19272" lon="7.11449">
        <ele>904.4</ele>
        <time>2022-02-12T12:36:52Z</time>
      </trkpt>
      <trkpt lat="48.19277" lon="7.11437">
        <ele>903</ele>
        <time>2022-02-12T12:36:59Z</time>
      </trkpt>
      <trkpt lat="48.19274" lon="7.11424">
        <ele>902.8</ele>
        <time>2022-02-12T12:37:05Z</time>
      </trkpt>
      <trkpt lat="48.19274" lon="7.1141">
        <ele>903.8</ele>
        <time>2022-02-12T12:37:12Z</time>
      </trkpt>
      <trkpt lat="48.19273" lon="7.11396">
        <ele>904.9</ele>
        <time>2022-02-12T12:37:20Z</time>
      </trkpt>
      <trkpt lat="48.19264" lon="7.1139">
        <ele>906.1</ele>
        <time>2022-02-12T12:37:23Z</time>
      </trkpt>
      <trkpt lat="48.19258" lon="7.11378">
        <ele>907.4</ele>
        <time>2022-02-12T12:37:31Z</time>
      </trkpt>
      <trkpt lat="48.19258" lon="7.11364">
        <ele>908.7</ele>
        <time>2022-02-12T12:37:46Z</time>
      </trkpt>
      <trkpt lat="48.19258" lon="7.11349">
        <ele>910.2</ele>
        <time>2022-02-12T12:37:57Z</time>
      </trkpt>
      <trkpt lat="48.19265" lon="7.11349">
        <ele>911.2</ele>
        <time>2022-02-12T12:38:36Z</time>
      </trkpt>
      <trkpt lat="48.19265" lon="7.11349">
        <ele>911.2</ele>
        <time>2022-02-12T12:38:37Z</time>
      </trkpt>
      <trkpt lat="48.19268" lon="7.11347">
        <ele>911.9</ele>
        <time>2022-02-12T12:39:04Z</time>
      </trkpt>
      <trkpt lat="48.19268" lon="7.11348">
        <ele>912</ele>
        <time>2022-02-12T12:39:05Z</time>
      </trkpt>
      <trkpt lat="48.19273" lon="7.11336">
        <ele>913.6</ele>
        <time>2022-02-12T12:39:16Z</time>
      </trkpt>
      <trkpt lat="48.1927" lon="7.11322">
        <ele>916.6</ele>
        <time>2022-02-12T12:39:40Z</time>
      </trkpt>
      <trkpt lat="48.19276" lon="7.11311">
        <ele>917.5</ele>
        <time>2022-02-12T12:39:54Z</time>
      </trkpt>
      <trkpt lat="48.19278" lon="7.11296">
        <ele>918.3</ele>
        <time>2022-02-12T12:39:59Z</time>
      </trkpt>
      <trkpt lat="48.19276" lon="7.11287">
        <ele>918.7</ele>
        <time>2022-02-12T12:40:09Z</time>
      </trkpt>
      <trkpt lat="48.19276" lon="7.11287">
        <ele>918.8</ele>
        <time>2022-02-12T12:40:10Z</time>
      </trkpt>
      <trkpt lat="48.19286" lon="7.11288">
        <ele>919.5</ele>
        <time>2022-02-12T12:40:54Z</time>
      </trkpt>
      <trkpt lat="48.19286" lon="7.11295">
        <ele>920</ele>
        <time>2022-02-12T12:41:03Z</time>
      </trkpt>
      <trkpt lat="48.19286" lon="7.11295">
        <ele>920</ele>
        <time>2022-02-12T12:41:04Z</time>
      </trkpt>
      <trkpt lat="48.19287" lon="7.1129">
        <ele>920.4</ele>
        <time>2022-02-12T12:41:19Z</time>
      </trkpt>
      <trkpt lat="48.19287" lon="7.11289">
        <ele>920.5</ele>
        <time>2022-02-12T12:41:20Z</time>
      </trkpt>
      <trkpt lat="48.19277" lon="7.11286">
        <ele>921.7</ele>
        <time>2022-02-12T12:41:29Z</time>
      </trkpt>
      <trkpt lat="48.19276" lon="7.11272">
        <ele>922.7</ele>
        <time>2022-02-12T12:41:37Z</time>
      </trkpt>
      <trkpt lat="48.19275" lon="7.11257">
        <ele>923.5</ele>
        <time>2022-02-12T12:41:45Z</time>
      </trkpt>
      <trkpt lat="48.19278" lon="7.11243">
        <ele>924.3</ele>
        <time>2022-02-12T12:41:51Z</time>
      </trkpt>
      <trkpt lat="48.19277" lon="7.11229">
        <ele>925</ele>
        <time>2022-02-12T12:41:56Z</time>
      </trkpt>
      <trkpt lat="48.19277" lon="7.11214">
        <ele>925.7</ele>
        <time>2022-02-12T12:42:02Z</time>
      </trkpt>
      <trkpt lat="48.19272" lon="7.11202">
        <ele>926.5</ele>
        <time>2022-02-12T12:42:14Z</time>
      </trkpt>
      <trkpt lat="48.19269" lon="7.11189">
        <ele>927.3</ele>
        <time>2022-02-12T12:42:25Z</time>
      </trkpt>
      <trkpt lat="48.19265" lon="7.11174">
        <ele>928.3</ele>
        <time>2022-02-12T12:42:34Z</time>
      </trkpt>
      <trkpt lat="48.19268" lon="7.1116">
        <ele>929.3</ele>
        <time>2022-02-12T12:42:39Z</time>
      </trkpt>
      <trkpt lat="48.19261" lon="7.1115">
        <ele>930.3</ele>
        <time>2022-02-12T12:42:57Z</time>
      </trkpt>
      <trkpt lat="48.19257" lon="7.11137">
        <ele>931.2</ele>
        <time>2022-02-12T12:43:02Z</time>
      </trkpt>
      <trkpt lat="48.19265" lon="7.11132">
        <ele>932.2</ele>
        <time>2022-02-12T12:43:13Z</time>
      </trkpt>
      <trkpt lat="48.19266" lon="7.11114">
        <ele>933.4</ele>
        <time>2022-02-12T12:43:24Z</time>
      </trkpt>
      <trkpt lat="48.19265" lon="7.11096">
        <ele>934.7</ele>
        <time>2022-02-12T12:43:40Z</time>
      </trkpt>
      <trkpt lat="48.19267" lon="7.1108">
        <ele>935.9</ele>
        <time>2022-02-12T12:43:45Z</time>
      </trkpt>
      <trkpt lat="48.1926" lon="7.11071">
        <ele>936.8</ele>
        <time>2022-02-12T12:43:58Z</time>
      </trkpt>
      <trkpt lat="48.1926" lon="7.11053">
        <ele>938.1</ele>
        <time>2022-02-12T12:44:07Z</time>
      </trkpt>
      <trkpt lat="48.19252" lon="7.11061">
        <ele>939</ele>
        <time>2022-02-12T12:44:13Z</time>
      </trkpt>
      <trkpt lat="48.19254" lon="7.11046">
        <ele>939.8</ele>
        <time>2022-02-12T12:44:28Z</time>
      </trkpt>
      <trkpt lat="48.19264" lon="7.11043">
        <ele>940.5</ele>
        <time>2022-02-12T12:44:44Z</time>
      </trkpt>
      <trkpt lat="48.19256" lon="7.10994">
        <ele>940.6</ele>
        <time>2022-02-12T12:45:08Z</time>
      </trkpt>
      <trkpt lat="48.19264" lon="7.10988">
        <ele>941.6</ele>
        <time>2022-02-12T12:45:21Z</time>
      </trkpt>
      <trkpt lat="48.19272" lon="7.10996">
        <ele>942.7</ele>
        <time>2022-02-12T12:45:30Z</time>
      </trkpt>
      <trkpt lat="48.1928" lon="7.11006">
        <ele>944.1</ele>
        <time>2022-02-12T12:45:47Z</time>
      </trkpt>
      <trkpt lat="48.19284" lon="7.11019">
        <ele>945.5</ele>
        <time>2022-02-12T12:46:00Z</time>
      </trkpt>
      <trkpt lat="48.1929" lon="7.11028">
        <ele>946.9</ele>
        <time>2022-02-12T12:46:19Z</time>
      </trkpt>
      <trkpt lat="48.19297" lon="7.11038">
        <ele>948.3</ele>
        <time>2022-02-12T12:46:29Z</time>
      </trkpt>
      <trkpt lat="48.19305" lon="7.11048">
        <ele>949.9</ele>
        <time>2022-02-12T12:46:36Z</time>
      </trkpt>
      <trkpt lat="48.19309" lon="7.1106">
        <ele>951.2</ele>
        <time>2022-02-12T12:47:03Z</time>
      </trkpt>
      <trkpt lat="48.19302" lon="7.11068">
        <ele>952.4</ele>
        <time>2022-02-12T12:47:12Z</time>
      </trkpt>
      <trkpt lat="48.19306" lon="7.11078">
        <ele>953.4</ele>
        <time>2022-02-12T12:47:35Z</time>
      </trkpt>
      <trkpt lat="48.19306" lon="7.11078">
        <ele>953.4</ele>
        <time>2022-02-12T12:47:36Z</time>
      </trkpt>
      <trkpt lat="48.19306" lon="7.11077">
        <ele>953.5</ele>
        <time>2022-02-12T12:47:41Z</time>
      </trkpt>
      <trkpt lat="48.19307" lon="7.11077">
        <ele>953.6</ele>
        <time>2022-02-12T12:47:42Z</time>
      </trkpt>
      <trkpt lat="48.19308" lon="7.11076">
        <ele>953.7</ele>
        <time>2022-02-12T12:47:46Z</time>
      </trkpt>
      <trkpt lat="48.19308" lon="7.11076">
        <ele>953.8</ele>
        <time>2022-02-12T12:47:47Z</time>
      </trkpt>
      <trkpt lat="48.19313" lon="7.11065">
        <ele>954.9</ele>
        <time>2022-02-12T12:48:00Z</time>
      </trkpt>
      <trkpt lat="48.19322" lon="7.11059">
        <ele>956.1</ele>
        <time>2022-02-12T12:48:13Z</time>
      </trkpt>
      <trkpt lat="48.19316" lon="7.11073">
        <ele>957.5</ele>
        <time>2022-02-12T12:48:26Z</time>
      </trkpt>
      <trkpt lat="48.19317" lon="7.11087">
        <ele>958.7</ele>
        <time>2022-02-12T12:48:39Z</time>
      </trkpt>
      <trkpt lat="48.19321" lon="7.11101">
        <ele>959.9</ele>
        <time>2022-02-12T12:48:46Z</time>
      </trkpt>
      <trkpt lat="48.19327" lon="7.11111">
        <ele>961</ele>
        <time>2022-02-12T12:48:53Z</time>
      </trkpt>
      <trkpt lat="48.19334" lon="7.1112">
        <ele>962.2</ele>
        <time>2022-02-12T12:49:02Z</time>
      </trkpt>
      <trkpt lat="48.19342" lon="7.1113">
        <ele>963.4</ele>
        <time>2022-02-12T12:49:11Z</time>
      </trkpt>
      <trkpt lat="48.1935" lon="7.11134">
        <ele>964.5</ele>
        <time>2022-02-12T12:49:20Z</time>
      </trkpt>
      <trkpt lat="48.19357" lon="7.11145">
        <ele>965.8</ele>
        <time>2022-02-12T12:49:41Z</time>
      </trkpt>
      <trkpt lat="48.19366" lon="7.11141">
        <ele>967.2</ele>
        <time>2022-02-12T12:49:55Z</time>
      </trkpt>
      <trkpt lat="48.19374" lon="7.11135">
        <ele>968.6</ele>
        <time>2022-02-12T12:50:08Z</time>
      </trkpt>
      <trkpt lat="48.19382" lon="7.11127">
        <ele>970</ele>
        <time>2022-02-12T12:50:38Z</time>
      </trkpt>
      <trkpt lat="48.1938" lon="7.1112">
        <ele>970.8</ele>
        <time>2022-02-12T12:50:48Z</time>
      </trkpt>
      <trkpt lat="48.1938" lon="7.11119">
        <ele>970.9</ele>
        <time>2022-02-12T12:50:49Z</time>
      </trkpt>
      <trkpt lat="48.19373" lon="7.11111">
        <ele>972.4</ele>
        <time>2022-02-12T12:51:04Z</time>
      </trkpt>
      <trkpt lat="48.19369" lon="7.11102">
        <ele>973.4</ele>
        <time>2022-02-12T12:51:15Z</time>
      </trkpt>
      <trkpt lat="48.1937" lon="7.11102">
        <ele>973.5</ele>
        <time>2022-02-12T12:51:16Z</time>
      </trkpt>
      <trkpt lat="48.19377" lon="7.11112">
        <ele>974.9</ele>
        <time>2022-02-12T12:51:37Z</time>
      </trkpt>
      <trkpt lat="48.19383" lon="7.11114">
        <ele>975.7</ele>
        <time>2022-02-12T12:51:44Z</time>
      </trkpt>
      <trkpt lat="48.19383" lon="7.11115">
        <ele>975.7</ele>
        <time>2022-02-12T12:51:45Z</time>
      </trkpt>
      <trkpt lat="48.19384" lon="7.11116">
        <ele>975.7</ele>
        <time>2022-02-12T12:51:48Z</time>
      </trkpt>
      <trkpt lat="48.19385" lon="7.11116">
        <ele>975.7</ele>
        <time>2022-02-12T12:51:49Z</time>
      </trkpt>
      <trkpt lat="48.19384" lon="7.11124">
        <ele>975.8</ele>
        <time>2022-02-12T12:52:10Z</time>
      </trkpt>
      <trkpt lat="48.19384" lon="7.11124">
        <ele>975.8</ele>
        <time>2022-02-12T12:52:11Z</time>
      </trkpt>
      <trkpt lat="48.19383" lon="7.11124">
        <ele>975.9</ele>
        <time>2022-02-12T12:52:16Z</time>
      </trkpt>
      <trkpt lat="48.19383" lon="7.11123">
        <ele>975.9</ele>
        <time>2022-02-12T12:52:17Z</time>
      </trkpt>
      <trkpt lat="48.19392" lon="7.11127">
        <ele>975.9</ele>
        <time>2022-02-12T12:52:41Z</time>
      </trkpt>
      <trkpt lat="48.19394" lon="7.11137">
        <ele>975.8</ele>
        <time>2022-02-12T12:52:50Z</time>
      </trkpt>
      <trkpt lat="48.19394" lon="7.11137">
        <ele>975.8</ele>
        <time>2022-02-12T12:52:51Z</time>
      </trkpt>
      <trkpt lat="48.19395" lon="7.11138">
        <ele>975.7</ele>
        <time>2022-02-12T12:52:57Z</time>
      </trkpt>
      <trkpt lat="48.19394" lon="7.11136">
        <ele>975.6</ele>
        <time>2022-02-12T12:52:58Z</time>
      </trkpt>
      <trkpt lat="48.19403" lon="7.11135">
        <ele>975.1</ele>
        <time>2022-02-12T12:53:22Z</time>
      </trkpt>
      <trkpt lat="48.19413" lon="7.11133">
        <ele>974.4</ele>
        <time>2022-02-12T12:53:30Z</time>
      </trkpt>
      <trkpt lat="48.19422" lon="7.1113">
        <ele>973.7</ele>
        <time>2022-02-12T12:53:43Z</time>
      </trkpt>
      <trkpt lat="48.19424" lon="7.11115">
        <ele>976.4</ele>
        <time>2022-02-12T12:53:54Z</time>
      </trkpt>
      <trkpt lat="48.19427" lon="7.11105">
        <ele>978.9</ele>
        <time>2022-02-12T12:54:06Z</time>
      </trkpt>
      <trkpt lat="48.19429" lon="7.11103">
        <ele>977.2</ele>
        <time>2022-02-12T12:54:07Z</time>
      </trkpt>
      <trkpt lat="48.19436" lon="7.11092">
        <ele>975.4</ele>
        <time>2022-02-12T12:54:24Z</time>
      </trkpt>
      <trkpt lat="48.19445" lon="7.11084">
        <ele>977.4</ele>
        <time>2022-02-12T12:54:36Z</time>
      </trkpt>
      <trkpt lat="48.19443" lon="7.1107">
        <ele>980.4</ele>
        <time>2022-02-12T12:54:51Z</time>
      </trkpt>
      <trkpt lat="48.19434" lon="7.11065">
        <ele>981.4</ele>
        <time>2022-02-12T12:54:59Z</time>
      </trkpt>
      <trkpt lat="48.19441" lon="7.11078">
        <ele>982.6</ele>
        <time>2022-02-12T12:55:04Z</time>
      </trkpt>
      <trkpt lat="48.19434" lon="7.11067">
        <ele>983.7</ele>
        <time>2022-02-12T12:55:27Z</time>
      </trkpt>
      <trkpt lat="48.19422" lon="7.11066">
        <ele>985.1</ele>
        <time>2022-02-12T12:55:30Z</time>
      </trkpt>
      <trkpt lat="48.19413" lon="7.11063">
        <ele>986.3</ele>
        <time>2022-02-12T12:55:38Z</time>
      </trkpt>
      <trkpt lat="48.1941" lon="7.11062">
        <ele>986.7</ele>
        <time>2022-02-12T12:55:44Z</time>
      </trkpt>
      <trkpt lat="48.19411" lon="7.11061">
        <ele>986.8</ele>
        <time>2022-02-12T12:55:45Z</time>
      </trkpt>
      <trkpt lat="48.19401" lon="7.11056">
        <ele>988.1</ele>
        <time>2022-02-12T12:56:18Z</time>
      </trkpt>
      <trkpt lat="48.1939" lon="7.11054">
        <ele>989.5</ele>
        <time>2022-02-12T12:56:29Z</time>
      </trkpt>
      <trkpt lat="48.19386" lon="7.11042">
        <ele>990.5</ele>
        <time>2022-02-12T12:56:42Z</time>
      </trkpt>
      <trkpt lat="48.19391" lon="7.1103">
        <ele>995.4</ele>
        <time>2022-02-12T12:56:57Z</time>
      </trkpt>
      <trkpt lat="48.19391" lon="7.11041">
        <ele>996.6</ele>
        <time>2022-02-12T12:57:10Z</time>
      </trkpt>
      <trkpt lat="48.19391" lon="7.11041">
        <ele>996.6</ele>
        <time>2022-02-12T12:57:11Z</time>
      </trkpt>
      <trkpt lat="48.19398" lon="7.11031">
        <ele>998.1</ele>
        <time>2022-02-12T12:57:22Z</time>
      </trkpt>
      <trkpt lat="48.19402" lon="7.11023">
        <ele>999.1</ele>
        <time>2022-02-12T12:57:35Z</time>
      </trkpt>
      <trkpt lat="48.19402" lon="7.11022">
        <ele>999.2</ele>
        <time>2022-02-12T12:57:36Z</time>
      </trkpt>
      <trkpt lat="48.19411" lon="7.11019">
        <ele>1000.6</ele>
        <time>2022-02-12T12:57:45Z</time>
      </trkpt>
      <trkpt lat="48.19419" lon="7.11012">
        <ele>1002</ele>
        <time>2022-02-12T12:58:00Z</time>
      </trkpt>
      <trkpt lat="48.19427" lon="7.11004">
        <ele>1003.6</ele>
        <time>2022-02-12T12:58:17Z</time>
      </trkpt>
      <trkpt lat="48.19435" lon="7.10999">
        <ele>1005.2</ele>
        <time>2022-02-12T12:58:28Z</time>
      </trkpt>
      <trkpt lat="48.19443" lon="7.10989">
        <ele>1007.1</ele>
        <time>2022-02-12T12:58:50Z</time>
      </trkpt>
      <trkpt lat="48.19448" lon="7.10977">
        <ele>1008.9</ele>
        <time>2022-02-12T12:59:23Z</time>
      </trkpt>
      <trkpt lat="48.19449" lon="7.10961">
        <ele>1011.1</ele>
        <time>2022-02-12T12:59:38Z</time>
      </trkpt>
      <trkpt lat="48.1944" lon="7.10961">
        <ele>1013</ele>
        <time>2022-02-12T12:59:47Z</time>
      </trkpt>
      <trkpt lat="48.19434" lon="7.10949">
        <ele>1014.8</ele>
        <time>2022-02-12T13:00:00Z</time>
      </trkpt>
      <trkpt lat="48.19436" lon="7.10935">
        <ele>1016.6</ele>
        <time>2022-02-12T13:00:24Z</time>
      </trkpt>
      <trkpt lat="48.19442" lon="7.10925">
        <ele>1018.2</ele>
        <time>2022-02-12T13:00:37Z</time>
      </trkpt>
      <trkpt lat="48.19447" lon="7.10913">
        <ele>1019.5</ele>
        <time>2022-02-12T13:00:54Z</time>
      </trkpt>
      <trkpt lat="48.19447" lon="7.10913">
        <ele>1019.6</ele>
        <time>2022-02-12T13:00:55Z</time>
      </trkpt>
      <trkpt lat="48.19442" lon="7.10902">
        <ele>1021</ele>
        <time>2022-02-12T13:01:16Z</time>
      </trkpt>
      <trkpt lat="48.19441" lon="7.10888">
        <ele>1022.3</ele>
        <time>2022-02-12T13:01:34Z</time>
      </trkpt>
      <trkpt lat="48.19449" lon="7.10878">
        <ele>1023.8</ele>
        <time>2022-02-12T13:01:54Z</time>
      </trkpt>
      <trkpt lat="48.1945" lon="7.10863">
        <ele>1025.1</ele>
        <time>2022-02-12T13:02:09Z</time>
      </trkpt>
      <trkpt lat="48.19456" lon="7.10854">
        <ele>1026.2</ele>
        <time>2022-02-12T13:02:28Z</time>
      </trkpt>
      <trkpt lat="48.19456" lon="7.10854">
        <ele>1026.3</ele>
        <time>2022-02-12T13:02:29Z</time>
      </trkpt>
      <trkpt lat="48.19466" lon="7.10852">
        <ele>1027.6</ele>
        <time>2022-02-12T13:02:34Z</time>
      </trkpt>
      <trkpt lat="48.19471" lon="7.10845">
        <ele>1028.6</ele>
        <time>2022-02-12T13:02:55Z</time>
      </trkpt>
      <trkpt lat="48.19471" lon="7.10843">
        <ele>1028.7</ele>
        <time>2022-02-12T13:02:56Z</time>
      </trkpt>
      <trkpt lat="48.19481" lon="7.10839">
        <ele>1030</ele>
        <time>2022-02-12T13:03:13Z</time>
      </trkpt>
      <trkpt lat="48.19491" lon="7.10846">
        <ele>1031.5</ele>
        <time>2022-02-12T13:03:26Z</time>
      </trkpt>
      <trkpt lat="48.19501" lon="7.10848">
        <ele>1032.6</ele>
        <time>2022-02-12T13:03:34Z</time>
      </trkpt>
      <trkpt lat="48.19511" lon="7.10852">
        <ele>1033.8</ele>
        <time>2022-02-12T13:03:39Z</time>
      </trkpt>
      <trkpt lat="48.19519" lon="7.10859">
        <ele>1034.9</ele>
        <time>2022-02-12T13:03:53Z</time>
      </trkpt>
      <trkpt lat="48.1953" lon="7.10853">
        <ele>1036.1</ele>
        <time>2022-02-12T13:04:12Z</time>
      </trkpt>
      <trkpt lat="48.19539" lon="7.10849">
        <ele>1037.1</ele>
        <time>2022-02-12T13:04:20Z</time>
      </trkpt>
      <trkpt lat="48.19546" lon="7.10841">
        <ele>1037.9</ele>
        <time>2022-02-12T13:04:29Z</time>
      </trkpt>
      <trkpt lat="48.19555" lon="7.10835">
        <ele>1038.6</ele>
        <time>2022-02-12T13:04:41Z</time>
      </trkpt>
      <trkpt lat="48.19564" lon="7.10839">
        <ele>1039.2</ele>
        <time>2022-02-12T13:04:50Z</time>
      </trkpt>
      <trkpt lat="48.19573" lon="7.10841">
        <ele>1039.8</ele>
        <time>2022-02-12T13:05:02Z</time>
      </trkpt>
      <trkpt lat="48.19583" lon="7.10838">
        <ele>1040.5</ele>
        <time>2022-02-12T13:05:12Z</time>
      </trkpt>
      <trkpt lat="48.19592" lon="7.10839">
        <ele>1041.1</ele>
        <time>2022-02-12T13:05:19Z</time>
      </trkpt>
      <trkpt lat="48.19601" lon="7.10833">
        <ele>1041.8</ele>
        <time>2022-02-12T13:05:36Z</time>
      </trkpt>
      <trkpt lat="48.19602" lon="7.10819">
        <ele>1042.4</ele>
        <time>2022-02-12T13:05:52Z</time>
      </trkpt>
      <trkpt lat="48.1961" lon="7.10811">
        <ele>1043</ele>
        <time>2022-02-12T13:05:59Z</time>
      </trkpt>
      <trkpt lat="48.19614" lon="7.10797">
        <ele>1043.5</ele>
        <time>2022-02-12T13:06:08Z</time>
      </trkpt>
      <trkpt lat="48.19615" lon="7.10782">
        <ele>1044</ele>
        <time>2022-02-12T13:06:19Z</time>
      </trkpt>
      <trkpt lat="48.19622" lon="7.10773">
        <ele>1044.5</ele>
        <time>2022-02-12T13:06:29Z</time>
      </trkpt>
      <trkpt lat="48.19632" lon="7.10777">
        <ele>1044.8</ele>
        <time>2022-02-12T13:06:42Z</time>
      </trkpt>
      <trkpt lat="48.19641" lon="7.10773">
        <ele>1045</ele>
        <time>2022-02-12T13:06:47Z</time>
      </trkpt>
      <trkpt lat="48.19651" lon="7.10771">
        <ele>1045</ele>
        <time>2022-02-12T13:06:51Z</time>
      </trkpt>
      <trkpt lat="48.1966" lon="7.10762">
        <ele>1044.9</ele>
        <time>2022-02-12T13:06:58Z</time>
      </trkpt>
      <trkpt lat="48.19668" lon="7.1077">
        <ele>1043.8</ele>
        <time>2022-02-12T13:07:07Z</time>
      </trkpt>
      <trkpt lat="48.19677" lon="7.10775">
        <ele>1042.9</ele>
        <time>2022-02-12T13:07:15Z</time>
      </trkpt>
      <trkpt lat="48.19687" lon="7.10777">
        <ele>1042</ele>
        <time>2022-02-12T13:07:21Z</time>
      </trkpt>
      <trkpt lat="48.19697" lon="7.10778">
        <ele>1041.2</ele>
        <time>2022-02-12T13:07:31Z</time>
      </trkpt>
      <trkpt lat="48.19707" lon="7.10783">
        <ele>1040.5</ele>
        <time>2022-02-12T13:07:35Z</time>
      </trkpt>
      <trkpt lat="48.19714" lon="7.10793">
        <ele>1039.8</ele>
        <time>2022-02-12T13:07:44Z</time>
      </trkpt>
      <trkpt lat="48.19721" lon="7.10804">
        <ele>1039.4</ele>
        <time>2022-02-12T13:07:50Z</time>
      </trkpt>
      <trkpt lat="48.19731" lon="7.10811">
        <ele>1038.9</ele>
        <time>2022-02-12T13:07:56Z</time>
      </trkpt>
      <trkpt lat="48.19738" lon="7.10818">
        <ele>1038.6</ele>
        <time>2022-02-12T13:08:02Z</time>
      </trkpt>
      <trkpt lat="48.19747" lon="7.10825">
        <ele>1038.2</ele>
        <time>2022-02-12T13:08:09Z</time>
      </trkpt>
      <trkpt lat="48.19754" lon="7.10834">
        <ele>1037.8</ele>
        <time>2022-02-12T13:08:18Z</time>
      </trkpt>
      <trkpt lat="48.19764" lon="7.10836">
        <ele>1037.4</ele>
        <time>2022-02-12T13:08:29Z</time>
      </trkpt>
      <trkpt lat="48.19774" lon="7.10839">
        <ele>1037</ele>
        <time>2022-02-12T13:08:38Z</time>
      </trkpt>
      <trkpt lat="48.19782" lon="7.10831">
        <ele>1036.4</ele>
        <time>2022-02-12T13:08:49Z</time>
      </trkpt>
      <trkpt lat="48.19792" lon="7.10825">
        <ele>1035.4</ele>
        <time>2022-02-12T13:08:57Z</time>
      </trkpt>
      <trkpt lat="48.198" lon="7.1082">
        <ele>1034.3</ele>
        <time>2022-02-12T13:09:06Z</time>
      </trkpt>
      <trkpt lat="48.19807" lon="7.1081">
        <ele>1033</ele>
        <time>2022-02-12T13:09:20Z</time>
      </trkpt>
      <trkpt lat="48.19817" lon="7.10811">
        <ele>1031.6</ele>
        <time>2022-02-12T13:09:26Z</time>
      </trkpt>
      <trkpt lat="48.19823" lon="7.10801">
        <ele>1030.1</ele>
        <time>2022-02-12T13:09:37Z</time>
      </trkpt>
      <trkpt lat="48.19833" lon="7.10793">
        <ele>1028.4</ele>
        <time>2022-02-12T13:09:45Z</time>
      </trkpt>
      <trkpt lat="48.19841" lon="7.10785">
        <ele>1026.9</ele>
        <time>2022-02-12T13:09:54Z</time>
      </trkpt>
      <trkpt lat="48.19849" lon="7.10777">
        <ele>1025.2</ele>
        <time>2022-02-12T13:10:02Z</time>
      </trkpt>
      <trkpt lat="48.19853" lon="7.10764">
        <ele>1023.5</ele>
        <time>2022-02-12T13:10:09Z</time>
      </trkpt>
      <trkpt lat="48.19862" lon="7.10758">
        <ele>1021.6</ele>
        <time>2022-02-12T13:10:20Z</time>
      </trkpt>
      <trkpt lat="48.19869" lon="7.10748">
        <ele>1019.7</ele>
        <time>2022-02-12T13:10:28Z</time>
      </trkpt>
      <trkpt lat="48.19879" lon="7.10748">
        <ele>1017.8</ele>
        <time>2022-02-12T13:10:34Z</time>
      </trkpt>
      <trkpt lat="48.19887" lon="7.10742">
        <ele>1016</ele>
        <time>2022-02-12T13:10:42Z</time>
      </trkpt>
      <trkpt lat="48.19897" lon="7.10739">
        <ele>1014</ele>
        <time>2022-02-12T13:10:49Z</time>
      </trkpt>
      <trkpt lat="48.19906" lon="7.10734">
        <ele>1012.2</ele>
        <time>2022-02-12T13:10:56Z</time>
      </trkpt>
      <trkpt lat="48.19915" lon="7.10731">
        <ele>1010.5</ele>
        <time>2022-02-12T13:11:04Z</time>
      </trkpt>
      <trkpt lat="48.19921" lon="7.1072">
        <ele>1009.3</ele>
        <time>2022-02-12T13:11:10Z</time>
      </trkpt>
      <trkpt lat="48.19929" lon="7.10714">
        <ele>1008.4</ele>
        <time>2022-02-12T13:11:19Z</time>
      </trkpt>
      <trkpt lat="48.19938" lon="7.1071">
        <ele>1007.8</ele>
        <time>2022-02-12T13:11:24Z</time>
      </trkpt>
      <trkpt lat="48.19947" lon="7.10706">
        <ele>1007.9</ele>
        <time>2022-02-12T13:11:30Z</time>
      </trkpt>
      <trkpt lat="48.19953" lon="7.10695">
        <ele>1008</ele>
        <time>2022-02-12T13:11:36Z</time>
      </trkpt>
      <trkpt lat="48.19949" lon="7.10683">
        <ele>1008.1</ele>
        <time>2022-02-12T13:11:41Z</time>
      </trkpt>
      <trkpt lat="48.19955" lon="7.10673">
        <ele>1008.4</ele>
        <time>2022-02-12T13:11:53Z</time>
      </trkpt>
      <trkpt lat="48.19964" lon="7.10673">
        <ele>1008.6</ele>
        <time>2022-02-12T13:12:01Z</time>
      </trkpt>
      <trkpt lat="48.19973" lon="7.1068">
        <ele>1008.9</ele>
        <time>2022-02-12T13:12:11Z</time>
      </trkpt>
      <trkpt lat="48.19982" lon="7.10681">
        <ele>1009.1</ele>
        <time>2022-02-12T13:12:20Z</time>
      </trkpt>
      <trkpt lat="48.1999" lon="7.10692">
        <ele>1009.3</ele>
        <time>2022-02-12T13:12:26Z</time>
      </trkpt>
      <trkpt lat="48.19998" lon="7.10701">
        <ele>1009.4</ele>
        <time>2022-02-12T13:12:31Z</time>
      </trkpt>
      <trkpt lat="48.20007" lon="7.10706">
        <ele>1009.4</ele>
        <time>2022-02-12T13:12:37Z</time>
      </trkpt>
      <trkpt lat="48.20016" lon="7.10706">
        <ele>1009.5</ele>
        <time>2022-02-12T13:12:47Z</time>
      </trkpt>
      <trkpt lat="48.20023" lon="7.10714">
        <ele>1009.5</ele>
        <time>2022-02-12T13:12:58Z</time>
      </trkpt>
      <trkpt lat="48.20031" lon="7.10722">
        <ele>1009.6</ele>
        <time>2022-02-12T13:13:03Z</time>
      </trkpt>
      <trkpt lat="48.20034" lon="7.10723">
        <ele>1009.6</ele>
        <time>2022-02-12T13:13:07Z</time>
      </trkpt>
      <trkpt lat="48.20034" lon="7.10722">
        <ele>1009.6</ele>
        <time>2022-02-12T13:13:08Z</time>
      </trkpt>
      <trkpt lat="48.20043" lon="7.10723">
        <ele>1009.7</ele>
        <time>2022-02-12T13:13:14Z</time>
      </trkpt>
      <trkpt lat="48.20054" lon="7.10726">
        <ele>1009.7</ele>
        <time>2022-02-12T13:13:19Z</time>
      </trkpt>
      <trkpt lat="48.20064" lon="7.10729">
        <ele>1009.7</ele>
        <time>2022-02-12T13:13:26Z</time>
      </trkpt>
      <trkpt lat="48.20073" lon="7.10733">
        <ele>1009.7</ele>
        <time>2022-02-12T13:13:31Z</time>
      </trkpt>
      <trkpt lat="48.20082" lon="7.10729">
        <ele>1009.7</ele>
        <time>2022-02-12T13:13:40Z</time>
      </trkpt>
      <trkpt lat="48.2009" lon="7.10724">
        <ele>1009.7</ele>
        <time>2022-02-12T13:13:57Z</time>
      </trkpt>
      <trkpt lat="48.201" lon="7.10724">
        <ele>1009.3</ele>
        <time>2022-02-12T13:14:06Z</time>
      </trkpt>
      <trkpt lat="48.20111" lon="7.10725">
        <ele>1008.8</ele>
        <time>2022-02-12T13:14:11Z</time>
      </trkpt>
      <trkpt lat="48.2012" lon="7.10721">
        <ele>1008.4</ele>
        <time>2022-02-12T13:14:23Z</time>
      </trkpt>
      <trkpt lat="48.20131" lon="7.10721">
        <ele>1008.1</ele>
        <time>2022-02-12T13:14:29Z</time>
      </trkpt>
      <trkpt lat="48.2014" lon="7.10715">
        <ele>1007.9</ele>
        <time>2022-02-12T13:14:41Z</time>
      </trkpt>
      <trkpt lat="48.20147" lon="7.10729">
        <ele>1007.7</ele>
        <time>2022-02-12T13:14:52Z</time>
      </trkpt>
      <trkpt lat="48.20155" lon="7.10738">
        <ele>1007.6</ele>
        <time>2022-02-12T13:14:54Z</time>
      </trkpt>
      <trkpt lat="48.20165" lon="7.10747">
        <ele>1007.5</ele>
        <time>2022-02-12T13:14:56Z</time>
      </trkpt>
      <trkpt lat="48.20172" lon="7.10759">
        <ele>1007.8</ele>
        <time>2022-02-12T13:15:00Z</time>
      </trkpt>
      <trkpt lat="48.20179" lon="7.10769">
        <ele>1007.9</ele>
        <time>2022-02-12T13:15:03Z</time>
      </trkpt>
      <trkpt lat="48.20175" lon="7.10757">
        <ele>1008.1</ele>
        <time>2022-02-12T13:15:22Z</time>
      </trkpt>
      <trkpt lat="48.20177" lon="7.10759">
        <ele>1008.1</ele>
        <time>2022-02-12T13:15:23Z</time>
      </trkpt>
      <trkpt lat="48.20187" lon="7.10759">
        <ele>1008.2</ele>
        <time>2022-02-12T13:15:33Z</time>
      </trkpt>
      <trkpt lat="48.20191" lon="7.10771">
        <ele>1008.1</ele>
        <time>2022-02-12T13:15:54Z</time>
      </trkpt>
      <trkpt lat="48.20192" lon="7.10785">
        <ele>1008</ele>
        <time>2022-02-12T13:16:14Z</time>
      </trkpt>
      <trkpt lat="48.20192" lon="7.10785">
        <ele>1008</ele>
        <time>2022-02-12T13:16:15Z</time>
      </trkpt>
      <trkpt lat="48.20191" lon="7.10787">
        <ele>1008</ele>
        <time>2022-02-12T13:16:16Z</time>
      </trkpt>
      <trkpt lat="48.20184" lon="7.10793">
        <ele>1007.9</ele>
        <time>2022-02-12T13:16:23Z</time>
      </trkpt>
      <trkpt lat="48.20185" lon="7.10793">
        <ele>1007.9</ele>
        <time>2022-02-12T13:16:24Z</time>
      </trkpt>
      <trkpt lat="48.20194" lon="7.10799">
        <ele>1007.7</ele>
        <time>2022-02-12T13:16:29Z</time>
      </trkpt>
      <trkpt lat="48.20201" lon="7.10808">
        <ele>1007.5</ele>
        <time>2022-02-12T13:16:36Z</time>
      </trkpt>
      <trkpt lat="48.20207" lon="7.10823">
        <ele>1007.2</ele>
        <time>2022-02-12T13:16:47Z</time>
      </trkpt>
      <trkpt lat="48.20215" lon="7.10833">
        <ele>1006.8</ele>
        <time>2022-02-12T13:16:53Z</time>
      </trkpt>
      <trkpt lat="48.20224" lon="7.1084">
        <ele>1006.4</ele>
        <time>2022-02-12T13:17:01Z</time>
      </trkpt>
      <trkpt lat="48.20231" lon="7.1085">
        <ele>1006.1</ele>
        <time>2022-02-12T13:17:09Z</time>
      </trkpt>
      <trkpt lat="48.20242" lon="7.1085">
        <ele>1005.7</ele>
        <time>2022-02-12T13:17:21Z</time>
      </trkpt>
      <trkpt lat="48.20257" lon="7.10854">
        <ele>1005.2</ele>
        <time>2022-02-12T13:17:36Z</time>
      </trkpt>
      <trkpt lat="48.20262" lon="7.10883">
        <ele>1004.8</ele>
        <time>2022-02-12T13:17:52Z</time>
      </trkpt>
      <trkpt lat="48.20264" lon="7.10897">
        <ele>1004.7</ele>
        <time>2022-02-12T13:17:59Z</time>
      </trkpt>
      <trkpt lat="48.20272" lon="7.10904">
        <ele>1004.6</ele>
        <time>2022-02-12T13:18:03Z</time>
      </trkpt>
      <trkpt lat="48.2028" lon="7.10912">
        <ele>1004.5</ele>
        <time>2022-02-12T13:18:15Z</time>
      </trkpt>
      <trkpt lat="48.20289" lon="7.1092">
        <ele>1004.5</ele>
        <time>2022-02-12T13:18:19Z</time>
      </trkpt>
      <trkpt lat="48.20293" lon="7.10932">
        <ele>1004.6</ele>
        <time>2022-02-12T13:18:27Z</time>
      </trkpt>
      <trkpt lat="48.20299" lon="7.10943">
        <ele>1004.6</ele>
        <time>2022-02-12T13:18:31Z</time>
      </trkpt>
      <trkpt lat="48.20307" lon="7.1095">
        <ele>1004.7</ele>
        <time>2022-02-12T13:18:46Z</time>
      </trkpt>
      <trkpt lat="48.20316" lon="7.10957">
        <ele>1004.7</ele>
        <time>2022-02-12T13:18:48Z</time>
      </trkpt>
      <trkpt lat="48.20319" lon="7.10972">
        <ele>1004.5</ele>
        <time>2022-02-12T13:18:59Z</time>
      </trkpt>
      <trkpt lat="48.20322" lon="7.10987">
        <ele>1004.3</ele>
        <time>2022-02-12T13:19:07Z</time>
      </trkpt>
      <trkpt lat="48.2033" lon="7.10994">
        <ele>1004.1</ele>
        <time>2022-02-12T13:19:17Z</time>
      </trkpt>
      <trkpt lat="48.20331" lon="7.11007">
        <ele>1003.8</ele>
        <time>2022-02-12T13:19:25Z</time>
      </trkpt>
      <trkpt lat="48.20331" lon="7.11033">
        <ele>1003.2</ele>
        <time>2022-02-12T13:19:45Z</time>
      </trkpt>
      <trkpt lat="48.20324" lon="7.11041">
        <ele>1002.9</ele>
        <time>2022-02-12T13:19:49Z</time>
      </trkpt>
      <trkpt lat="48.20332" lon="7.1105">
        <ele>1002.5</ele>
        <time>2022-02-12T13:19:54Z</time>
      </trkpt>
      <trkpt lat="48.20331" lon="7.11054">
        <ele>1002.5</ele>
        <time>2022-02-12T13:20:07Z</time>
      </trkpt>
      <trkpt lat="48.20331" lon="7.11053">
        <ele>1002.5</ele>
        <time>2022-02-12T13:20:08Z</time>
      </trkpt>
      <trkpt lat="48.20338" lon="7.11064">
        <ele>1002.1</ele>
        <time>2022-02-12T13:20:17Z</time>
      </trkpt>
      <trkpt lat="48.20346" lon="7.11072">
        <ele>1001.7</ele>
        <time>2022-02-12T13:20:21Z</time>
      </trkpt>
      <trkpt lat="48.20369" lon="7.11108">
        <ele>1000.1</ele>
        <time>2022-02-12T13:20:38Z</time>
      </trkpt>
      <trkpt lat="48.20361" lon="7.111">
        <ele>1000.7</ele>
        <time>2022-02-12T13:20:42Z</time>
      </trkpt>
      <trkpt lat="48.20353" lon="7.11093">
        <ele>1000.9</ele>
        <time>2022-02-12T13:20:55Z</time>
      </trkpt>
      <trkpt lat="48.20348" lon="7.1108">
        <ele>1001.2</ele>
        <time>2022-02-12T13:21:05Z</time>
      </trkpt>
      <trkpt lat="48.20337" lon="7.11076">
        <ele>1001.5</ele>
        <time>2022-02-12T13:21:11Z</time>
      </trkpt>
      <trkpt lat="48.20346" lon="7.11081">
        <ele>1001.7</ele>
        <time>2022-02-12T13:21:43Z</time>
      </trkpt>
      <trkpt lat="48.20349" lon="7.11075">
        <ele>1001.8</ele>
        <time>2022-02-12T13:22:34Z</time>
      </trkpt>
      <trkpt lat="48.20348" lon="7.11075">
        <ele>1001.8</ele>
        <time>2022-02-12T13:22:35Z</time>
      </trkpt>
      <trkpt lat="48.20344" lon="7.11061">
        <ele>1002</ele>
        <time>2022-02-12T13:22:54Z</time>
      </trkpt>
      <trkpt lat="48.20343" lon="7.11048">
        <ele>1002.3</ele>
        <time>2022-02-12T13:23:23Z</time>
      </trkpt>
      <trkpt lat="48.20357" lon="7.11056">
        <ele>1001.9</ele>
        <time>2022-02-12T13:23:42Z</time>
      </trkpt>
      <trkpt lat="48.20356" lon="7.11041">
        <ele>1001.6</ele>
        <time>2022-02-12T13:23:46Z</time>
      </trkpt>
      <trkpt lat="48.20361" lon="7.11043">
        <ele>1001.5</ele>
        <time>2022-02-12T13:23:52Z</time>
      </trkpt>
      <trkpt lat="48.20361" lon="7.11044">
        <ele>1001.5</ele>
        <time>2022-02-12T13:23:53Z</time>
      </trkpt>
      <trkpt lat="48.20368" lon="7.11055">
        <ele>1001.2</ele>
        <time>2022-02-12T13:24:01Z</time>
      </trkpt>
      <trkpt lat="48.20369" lon="7.11071">
        <ele>1000.8</ele>
        <time>2022-02-12T13:24:18Z</time>
      </trkpt>
      <trkpt lat="48.20376" lon="7.1108">
        <ele>1000.5</ele>
        <time>2022-02-12T13:24:24Z</time>
      </trkpt>
      <trkpt lat="48.20385" lon="7.11084">
        <ele>1000.1</ele>
        <time>2022-02-12T13:24:31Z</time>
      </trkpt>
      <trkpt lat="48.2039" lon="7.11091">
        <ele>999.8</ele>
        <time>2022-02-12T13:24:49Z</time>
      </trkpt>
      <trkpt lat="48.2039" lon="7.11091">
        <ele>999.8</ele>
        <time>2022-02-12T13:24:50Z</time>
      </trkpt>
      <trkpt lat="48.20396" lon="7.11102">
        <ele>999.6</ele>
        <time>2022-02-12T13:25:02Z</time>
      </trkpt>
      <trkpt lat="48.20398" lon="7.11116">
        <ele>999.6</ele>
        <time>2022-02-12T13:25:22Z</time>
      </trkpt>
      <trkpt lat="48.20404" lon="7.11129">
        <ele>999.7</ele>
        <time>2022-02-12T13:25:28Z</time>
      </trkpt>
      <trkpt lat="48.20402" lon="7.11142">
        <ele>999.9</ele>
        <time>2022-02-12T13:25:41Z</time>
      </trkpt>
      <trkpt lat="48.20409" lon="7.11152">
        <ele>1000.3</ele>
        <time>2022-02-12T13:25:46Z</time>
      </trkpt>
      <trkpt lat="48.20416" lon="7.11161">
        <ele>1000.8</ele>
        <time>2022-02-12T13:25:58Z</time>
      </trkpt>
      <trkpt lat="48.20415" lon="7.11175">
        <ele>1001.4</ele>
        <time>2022-02-12T13:26:06Z</time>
      </trkpt>
      <trkpt lat="48.20423" lon="7.11184">
        <ele>1002.5</ele>
        <time>2022-02-12T13:26:10Z</time>
      </trkpt>
      <trkpt lat="48.20425" lon="7.11199">
        <ele>1003.7</ele>
        <time>2022-02-12T13:26:25Z</time>
      </trkpt>
      <trkpt lat="48.20431" lon="7.1121">
        <ele>1005</ele>
        <time>2022-02-12T13:26:40Z</time>
      </trkpt>
      <trkpt lat="48.20435" lon="7.11225">
        <ele>1006.6</ele>
        <time>2022-02-12T13:26:50Z</time>
      </trkpt>
      <trkpt lat="48.20438" lon="7.1124">
        <ele>1008.2</ele>
        <time>2022-02-12T13:27:01Z</time>
      </trkpt>
      <trkpt lat="48.20442" lon="7.11253">
        <ele>1009.6</ele>
        <time>2022-02-12T13:27:13Z</time>
      </trkpt>
      <trkpt lat="48.20449" lon="7.11261">
        <ele>1011</ele>
        <time>2022-02-12T13:27:30Z</time>
      </trkpt>
      <trkpt lat="48.20457" lon="7.11272">
        <ele>1012.6</ele>
        <time>2022-02-12T13:27:36Z</time>
      </trkpt>
      <trkpt lat="48.20463" lon="7.11283">
        <ele>1013.9</ele>
        <time>2022-02-12T13:27:40Z</time>
      </trkpt>
      <trkpt lat="48.20466" lon="7.11295">
        <ele>1015.1</ele>
        <time>2022-02-12T13:27:49Z</time>
      </trkpt>
      <trkpt lat="48.20466" lon="7.11309">
        <ele>1016.2</ele>
        <time>2022-02-12T13:28:00Z</time>
      </trkpt>
      <trkpt lat="48.20465" lon="7.1131">
        <ele>1016.3</ele>
        <time>2022-02-12T13:28:03Z</time>
      </trkpt>
      <trkpt lat="48.20466" lon="7.11311">
        <ele>1016.3</ele>
        <time>2022-02-12T13:28:04Z</time>
      </trkpt>
      <trkpt lat="48.20475" lon="7.11318">
        <ele>1017.2</ele>
        <time>2022-02-12T13:28:22Z</time>
      </trkpt>
      <trkpt lat="48.2048" lon="7.1133">
        <ele>1017.5</ele>
        <time>2022-02-12T13:28:47Z</time>
      </trkpt>
      <trkpt lat="48.20485" lon="7.11341">
        <ele>1017.3</ele>
        <time>2022-02-12T13:28:52Z</time>
      </trkpt>
      <trkpt lat="48.20493" lon="7.11351">
        <ele>1016.5</ele>
        <time>2022-02-12T13:29:01Z</time>
      </trkpt>
      <trkpt lat="48.20499" lon="7.11362">
        <ele>1015.3</ele>
        <time>2022-02-12T13:29:10Z</time>
      </trkpt>
      <trkpt lat="48.20504" lon="7.11374">
        <ele>1013.8</ele>
        <time>2022-02-12T13:29:18Z</time>
      </trkpt>
      <trkpt lat="48.20511" lon="7.11385">
        <ele>1012.3</ele>
        <time>2022-02-12T13:29:25Z</time>
      </trkpt>
      <trkpt lat="48.20518" lon="7.11394">
        <ele>1010.8</ele>
        <time>2022-02-12T13:29:34Z</time>
      </trkpt>
      <trkpt lat="48.20528" lon="7.114">
        <ele>1009.1</ele>
        <time>2022-02-12T13:29:41Z</time>
      </trkpt>
      <trkpt lat="48.20536" lon="7.11409">
        <ele>1007.6</ele>
        <time>2022-02-12T13:29:46Z</time>
      </trkpt>
      <trkpt lat="48.20543" lon="7.11419">
        <ele>1006.2</ele>
        <time>2022-02-12T13:29:51Z</time>
      </trkpt>
      <trkpt lat="48.20544" lon="7.11433">
        <ele>1004.9</ele>
        <time>2022-02-12T13:30:04Z</time>
      </trkpt>
      <trkpt lat="48.20553" lon="7.11435">
        <ele>1003.3</ele>
        <time>2022-02-12T13:30:11Z</time>
      </trkpt>
      <trkpt lat="48.20562" lon="7.11441">
        <ele>1001.7</ele>
        <time>2022-02-12T13:30:17Z</time>
      </trkpt>
      <trkpt lat="48.20571" lon="7.11448">
        <ele>999.8</ele>
        <time>2022-02-12T13:30:23Z</time>
      </trkpt>
      <trkpt lat="48.20578" lon="7.11457">
        <ele>998.1</ele>
        <time>2022-02-12T13:30:35Z</time>
      </trkpt>
      <trkpt lat="48.20586" lon="7.11466">
        <ele>996.3</ele>
        <time>2022-02-12T13:30:46Z</time>
      </trkpt>
      <trkpt lat="48.20594" lon="7.11477">
        <ele>994.3</ele>
        <time>2022-02-12T13:30:52Z</time>
      </trkpt>
      <trkpt lat="48.20601" lon="7.11486">
        <ele>992.7</ele>
        <time>2022-02-12T13:30:57Z</time>
      </trkpt>
      <trkpt lat="48.20607" lon="7.11497">
        <ele>991.4</ele>
        <time>2022-02-12T13:31:08Z</time>
      </trkpt>
      <trkpt lat="48.20614" lon="7.11508">
        <ele>990.1</ele>
        <time>2022-02-12T13:31:19Z</time>
      </trkpt>
      <trkpt lat="48.20623" lon="7.11515">
        <ele>988.9</ele>
        <time>2022-02-12T13:31:23Z</time>
      </trkpt>
      <trkpt lat="48.20631" lon="7.11523">
        <ele>987.8</ele>
        <time>2022-02-12T13:31:28Z</time>
      </trkpt>
      <trkpt lat="48.20638" lon="7.11533">
        <ele>986.6</ele>
        <time>2022-02-12T13:31:34Z</time>
      </trkpt>
      <trkpt lat="48.20644" lon="7.11544">
        <ele>985.4</ele>
        <time>2022-02-12T13:31:47Z</time>
      </trkpt>
      <trkpt lat="48.20652" lon="7.11549">
        <ele>984.3</ele>
        <time>2022-02-12T13:31:58Z</time>
      </trkpt>
      <trkpt lat="48.20659" lon="7.11558">
        <ele>983.4</ele>
        <time>2022-02-12T13:32:05Z</time>
      </trkpt>
      <trkpt lat="48.20663" lon="7.11572">
        <ele>982.7</ele>
        <time>2022-02-12T13:32:20Z</time>
      </trkpt>
      <trkpt lat="48.20669" lon="7.11586">
        <ele>982.3</ele>
        <time>2022-02-12T13:32:26Z</time>
      </trkpt>
      <trkpt lat="48.20677" lon="7.11595">
        <ele>982.2</ele>
        <time>2022-02-12T13:32:40Z</time>
      </trkpt>
      <trkpt lat="48.20687" lon="7.11601">
        <ele>982.4</ele>
        <time>2022-02-12T13:32:48Z</time>
      </trkpt>
      <trkpt lat="48.20693" lon="7.11612">
        <ele>982.7</ele>
        <time>2022-02-12T13:32:54Z</time>
      </trkpt>
      <trkpt lat="48.20699" lon="7.11623">
        <ele>983.1</ele>
        <time>2022-02-12T13:32:59Z</time>
      </trkpt>
      <trkpt lat="48.20709" lon="7.11627">
        <ele>983.4</ele>
        <time>2022-02-12T13:33:11Z</time>
      </trkpt>
      <trkpt lat="48.20713" lon="7.1164">
        <ele>983.5</ele>
        <time>2022-02-12T13:33:34Z</time>
      </trkpt>
      <trkpt lat="48.20719" lon="7.11652">
        <ele>983.5</ele>
        <time>2022-02-12T13:33:43Z</time>
      </trkpt>
      <trkpt lat="48.20726" lon="7.11662">
        <ele>983.4</ele>
        <time>2022-02-12T13:33:50Z</time>
      </trkpt>
      <trkpt lat="48.20735" lon="7.11668">
        <ele>983.5</ele>
        <time>2022-02-12T13:33:59Z</time>
      </trkpt>
      <trkpt lat="48.20744" lon="7.11679">
        <ele>983.9</ele>
        <time>2022-02-12T13:34:07Z</time>
      </trkpt>
      <trkpt lat="48.20753" lon="7.11688">
        <ele>984.4</ele>
        <time>2022-02-12T13:34:12Z</time>
      </trkpt>
      <trkpt lat="48.2076" lon="7.11701">
        <ele>985.2</ele>
        <time>2022-02-12T13:34:30Z</time>
      </trkpt>
      <trkpt lat="48.20766" lon="7.11713">
        <ele>986.1</ele>
        <time>2022-02-12T13:34:43Z</time>
      </trkpt>
      <trkpt lat="48.20773" lon="7.11723">
        <ele>986.9</ele>
        <time>2022-02-12T13:34:56Z</time>
      </trkpt>
      <trkpt lat="48.20772" lon="7.11723">
        <ele>987</ele>
        <time>2022-02-12T13:34:58Z</time>
      </trkpt>
      <trkpt lat="48.20773" lon="7.11723">
        <ele>987.1</ele>
        <time>2022-02-12T13:34:59Z</time>
      </trkpt>
      <trkpt lat="48.20782" lon="7.1172">
        <ele>988</ele>
        <time>2022-02-12T13:35:07Z</time>
      </trkpt>
      <trkpt lat="48.20784" lon="7.1172">
        <ele>988.2</ele>
        <time>2022-02-12T13:35:29Z</time>
      </trkpt>
      <trkpt lat="48.20784" lon="7.1172">
        <ele>988.2</ele>
        <time>2022-02-12T13:35:34Z</time>
      </trkpt>
      <trkpt lat="48.20784" lon="7.1172">
        <ele>988.2</ele>
        <time>2022-02-12T13:35:36Z</time>
      </trkpt>
      <trkpt lat="48.20784" lon="7.11718">
        <ele>988.3</ele>
        <time>2022-02-12T13:35:38Z</time>
      </trkpt>
      <trkpt lat="48.20792" lon="7.1173">
        <ele>989.7</ele>
        <time>2022-02-12T13:35:45Z</time>
      </trkpt>
      <trkpt lat="48.20802" lon="7.11739">
        <ele>991.1</ele>
        <time>2022-02-12T13:35:54Z</time>
      </trkpt>
      <trkpt lat="48.20806" lon="7.11752">
        <ele>992.2</ele>
        <time>2022-02-12T13:36:09Z</time>
      </trkpt>
      <trkpt lat="48.20813" lon="7.11762">
        <ele>992.9</ele>
        <time>2022-02-12T13:36:18Z</time>
      </trkpt>
      <trkpt lat="48.20813" lon="7.11772">
        <ele>993.4</ele>
        <time>2022-02-12T13:36:41Z</time>
      </trkpt>
      <trkpt lat="48.20813" lon="7.11772">
        <ele>993.4</ele>
        <time>2022-02-12T13:36:43Z</time>
      </trkpt>
      <trkpt lat="48.20816" lon="7.11785">
        <ele>993.9</ele>
        <time>2022-02-12T13:36:59Z</time>
      </trkpt>
      <trkpt lat="48.20821" lon="7.11778">
        <ele>994.1</ele>
        <time>2022-02-12T13:37:11Z</time>
      </trkpt>
      <trkpt lat="48.2082" lon="7.11777">
        <ele>994.1</ele>
        <time>2022-02-12T13:37:12Z</time>
      </trkpt>
      <trkpt lat="48.20822" lon="7.1177">
        <ele>993.9</ele>
        <time>2022-02-12T13:37:21Z</time>
      </trkpt>
      <trkpt lat="48.20822" lon="7.1177">
        <ele>993.9</ele>
        <time>2022-02-12T13:37:22Z</time>
      </trkpt>
      <trkpt lat="48.20823" lon="7.1177">
        <ele>993.8</ele>
        <time>2022-02-12T13:37:24Z</time>
      </trkpt>
      <trkpt lat="48.20823" lon="7.1177">
        <ele>993.8</ele>
        <time>2022-02-12T13:37:27Z</time>
      </trkpt>
      <trkpt lat="48.20827" lon="7.1177">
        <ele>993.3</ele>
        <time>2022-02-12T13:37:32Z</time>
      </trkpt>
      <trkpt lat="48.20827" lon="7.1177">
        <ele>993.3</ele>
        <time>2022-02-12T13:37:49Z</time>
      </trkpt>
      <trkpt lat="48.20827" lon="7.1177">
        <ele>993.3</ele>
        <time>2022-02-12T13:37:50Z</time>
      </trkpt>
      <trkpt lat="48.20827" lon="7.11771">
        <ele>993.2</ele>
        <time>2022-02-12T13:38:05Z</time>
      </trkpt>
      <trkpt lat="48.20827" lon="7.11772">
        <ele>993.1</ele>
        <time>2022-02-12T13:38:07Z</time>
      </trkpt>
      <trkpt lat="48.20826" lon="7.11772">
        <ele>993</ele>
        <time>2022-02-12T13:38:08Z</time>
      </trkpt>
      <trkpt lat="48.2083" lon="7.11785">
        <ele>990.9</ele>
        <time>2022-02-12T13:38:22Z</time>
      </trkpt>
      <trkpt lat="48.20825" lon="7.11773">
        <ele>988.3</ele>
        <time>2022-02-12T13:38:51Z</time>
      </trkpt>
      <trkpt lat="48.20824" lon="7.11771">
        <ele>987.8</ele>
        <time>2022-02-12T13:38:56Z</time>
      </trkpt>
      <trkpt lat="48.20825" lon="7.11771">
        <ele>987.5</ele>
        <time>2022-02-12T13:38:57Z</time>
      </trkpt>
      <trkpt lat="48.20828" lon="7.11768">
        <ele>986.4</ele>
        <time>2022-02-12T13:39:09Z</time>
      </trkpt>
      <trkpt lat="48.20828" lon="7.11768">
        <ele>986.3</ele>
        <time>2022-02-12T13:39:10Z</time>
      </trkpt>
      <trkpt lat="48.20827" lon="7.11769">
        <ele>986</ele>
        <time>2022-02-12T13:39:13Z</time>
      </trkpt>
      <trkpt lat="48.20827" lon="7.11768">
        <ele>985.9</ele>
        <time>2022-02-12T13:39:14Z</time>
      </trkpt>
      <trkpt lat="48.20827" lon="7.11768">
        <ele>985.8</ele>
        <time>2022-02-12T13:39:17Z</time>
      </trkpt>
      <trkpt lat="48.20827" lon="7.11767">
        <ele>985.7</ele>
        <time>2022-02-12T13:39:19Z</time>
      </trkpt>
      <trkpt lat="48.20836" lon="7.11761">
        <ele>983.1</ele>
        <time>2022-02-12T13:39:33Z</time>
      </trkpt>
      <trkpt lat="48.20842" lon="7.11751">
        <ele>980.9</ele>
        <time>2022-02-12T13:39:44Z</time>
      </trkpt>
      <trkpt lat="48.20848" lon="7.11741">
        <ele>978.7</ele>
        <time>2022-02-12T13:40:00Z</time>
      </trkpt>
      <trkpt lat="48.20856" lon="7.11732">
        <ele>976.4</ele>
        <time>2022-02-12T13:40:15Z</time>
      </trkpt>
      <trkpt lat="48.20861" lon="7.11721">
        <ele>974.3</ele>
        <time>2022-02-12T13:40:29Z</time>
      </trkpt>
      <trkpt lat="48.20871" lon="7.11717">
        <ele>972.3</ele>
        <time>2022-02-12T13:40:40Z</time>
      </trkpt>
      <trkpt lat="48.20877" lon="7.11706">
        <ele>970.5</ele>
        <time>2022-02-12T13:40:51Z</time>
      </trkpt>
      <trkpt lat="48.20885" lon="7.117">
        <ele>968.6</ele>
        <time>2022-02-12T13:41:00Z</time>
      </trkpt>
      <trkpt lat="48.20894" lon="7.11693">
        <ele>966.8</ele>
        <time>2022-02-12T13:41:08Z</time>
      </trkpt>
      <trkpt lat="48.20901" lon="7.11684">
        <ele>965.1</ele>
        <time>2022-02-12T13:41:20Z</time>
      </trkpt>
      <trkpt lat="48.20911" lon="7.11676">
        <ele>963.2</ele>
        <time>2022-02-12T13:41:30Z</time>
      </trkpt>
      <trkpt lat="48.2092" lon="7.11674">
        <ele>961.6</ele>
        <time>2022-02-12T13:41:36Z</time>
      </trkpt>
      <trkpt lat="48.20928" lon="7.11665">
        <ele>960.2</ele>
        <time>2022-02-12T13:41:46Z</time>
      </trkpt>
      <trkpt lat="48.20933" lon="7.11653">
        <ele>958.8</ele>
        <time>2022-02-12T13:41:57Z</time>
      </trkpt>
      <trkpt lat="48.20935" lon="7.1164">
        <ele>957.6</ele>
        <time>2022-02-12T13:42:07Z</time>
      </trkpt>
      <trkpt lat="48.20943" lon="7.11634">
        <ele>956.5</ele>
        <time>2022-02-12T13:42:17Z</time>
      </trkpt>
      <trkpt lat="48.20953" lon="7.11627">
        <ele>955.7</ele>
        <time>2022-02-12T13:42:26Z</time>
      </trkpt>
      <trkpt lat="48.20961" lon="7.11621">
        <ele>954.2</ele>
        <time>2022-02-12T13:42:51Z</time>
      </trkpt>
      <trkpt lat="48.2096" lon="7.11618">
        <ele>954.2</ele>
        <time>2022-02-12T13:42:56Z</time>
      </trkpt>
      <trkpt lat="48.2096" lon="7.11618">
        <ele>954.2</ele>
        <time>2022-02-12T13:42:57Z</time>
      </trkpt>
      <trkpt lat="48.20957" lon="7.11618">
        <ele>954.2</ele>
        <time>2022-02-12T13:43:01Z</time>
      </trkpt>
      <trkpt lat="48.20957" lon="7.11618">
        <ele>954.2</ele>
        <time>2022-02-12T13:43:02Z</time>
      </trkpt>
      <trkpt lat="48.2095" lon="7.11612">
        <ele>952.6</ele>
        <time>2022-02-12T13:43:12Z</time>
      </trkpt>
      <trkpt lat="48.20951" lon="7.11613">
        <ele>952.6</ele>
        <time>2022-02-12T13:43:13Z</time>
      </trkpt>
      <trkpt lat="48.20951" lon="7.11613">
        <ele>952.6</ele>
        <time>2022-02-12T13:43:14Z</time>
      </trkpt>
      <trkpt lat="48.20952" lon="7.11614">
        <ele>952.6</ele>
        <time>2022-02-12T13:43:15Z</time>
      </trkpt>
      <trkpt lat="48.20956" lon="7.11617">
        <ele>952.6</ele>
        <time>2022-02-12T13:43:18Z</time>
      </trkpt>
      <trkpt lat="48.20956" lon="7.11616">
        <ele>952.6</ele>
        <time>2022-02-12T13:43:19Z</time>
      </trkpt>
      <trkpt lat="48.20949" lon="7.11609">
        <ele>952.6</ele>
        <time>2022-02-12T13:43:31Z</time>
      </trkpt>
      <trkpt lat="48.20949" lon="7.11609">
        <ele>952.6</ele>
        <time>2022-02-12T13:43:32Z</time>
      </trkpt>
      <trkpt lat="48.20955" lon="7.11608">
        <ele>952.6</ele>
        <time>2022-02-12T13:43:53Z</time>
      </trkpt>
      <trkpt lat="48.20955" lon="7.11608">
        <ele>952.6</ele>
        <time>2022-02-12T13:43:54Z</time>
      </trkpt>
      <trkpt lat="48.20954" lon="7.11609">
        <ele>952.6</ele>
        <time>2022-02-12T13:44:04Z</time>
      </trkpt>
      <trkpt lat="48.20955" lon="7.1161">
        <ele>952.6</ele>
        <time>2022-02-12T13:44:05Z</time>
      </trkpt>
      <trkpt lat="48.20966" lon="7.11612">
        <ele>952.7</ele>
        <time>2022-02-12T13:44:12Z</time>
      </trkpt>
      <trkpt lat="48.20975" lon="7.11608">
        <ele>953.4</ele>
        <time>2022-02-12T13:45:08Z</time>
      </trkpt>
      <trkpt lat="48.20983" lon="7.11602">
        <ele>954.3</ele>
        <time>2022-02-12T13:45:19Z</time>
      </trkpt>
      <trkpt lat="48.20986" lon="7.11598">
        <ele>954.8</ele>
        <time>2022-02-12T13:45:29Z</time>
      </trkpt>
      <trkpt lat="48.20986" lon="7.11598">
        <ele>954.8</ele>
        <time>2022-02-12T13:45:30Z</time>
      </trkpt>
      <trkpt lat="48.20995" lon="7.11594">
        <ele>956</ele>
        <time>2022-02-12T13:45:42Z</time>
      </trkpt>
      <trkpt lat="48.21003" lon="7.11589">
        <ele>957.3</ele>
        <time>2022-02-12T13:45:51Z</time>
      </trkpt>
      <trkpt lat="48.21008" lon="7.11577">
        <ele>958.9</ele>
        <time>2022-02-12T13:46:12Z</time>
      </trkpt>
      <trkpt lat="48.21017" lon="7.11577">
        <ele>960.7</ele>
        <time>2022-02-12T13:46:23Z</time>
      </trkpt>
      <trkpt lat="48.21021" lon="7.11572">
        <ele>961.8</ele>
        <time>2022-02-12T13:46:33Z</time>
      </trkpt>
      <trkpt lat="48.21022" lon="7.11572">
        <ele>961.9</ele>
        <time>2022-02-12T13:46:34Z</time>
      </trkpt>
      <trkpt lat="48.2103" lon="7.11568">
        <ele>963.8</ele>
        <time>2022-02-12T13:47:04Z</time>
      </trkpt>
      <trkpt lat="48.21039" lon="7.11564">
        <ele>965.8</ele>
        <time>2022-02-12T13:47:15Z</time>
      </trkpt>
      <trkpt lat="48.2105" lon="7.11562">
        <ele>968.3</ele>
        <time>2022-02-12T13:47:22Z</time>
      </trkpt>
      <trkpt lat="48.21055" lon="7.1155">
        <ele>970.5</ele>
        <time>2022-02-12T13:47:39Z</time>
      </trkpt>
      <trkpt lat="48.21059" lon="7.11547">
        <ele>971.6</ele>
        <time>2022-02-12T13:48:03Z</time>
      </trkpt>
      <trkpt lat="48.2106" lon="7.11547">
        <ele>971.8</ele>
        <time>2022-02-12T13:48:04Z</time>
      </trkpt>
      <trkpt lat="48.2107" lon="7.11544">
        <ele>974</ele>
        <time>2022-02-12T13:48:34Z</time>
      </trkpt>
      <trkpt lat="48.2107" lon="7.11543">
        <ele>974.2</ele>
        <time>2022-02-12T13:48:57Z</time>
      </trkpt>
      <trkpt lat="48.21071" lon="7.11544">
        <ele>974.4</ele>
        <time>2022-02-12T13:48:58Z</time>
      </trkpt>
      <trkpt lat="48.2108" lon="7.11545">
        <ele>976.5</ele>
        <time>2022-02-12T13:49:05Z</time>
      </trkpt>
      <trkpt lat="48.21089" lon="7.11541">
        <ele>978.6</ele>
        <time>2022-02-12T13:49:25Z</time>
      </trkpt>
      <trkpt lat="48.21098" lon="7.11542">
        <ele>980.5</ele>
        <time>2022-02-12T13:49:35Z</time>
      </trkpt>
      <trkpt lat="48.21107" lon="7.11544">
        <ele>982.5</ele>
        <time>2022-02-12T13:49:45Z</time>
      </trkpt>
      <trkpt lat="48.2111" lon="7.11542">
        <ele>983</ele>
        <time>2022-02-12T13:49:48Z</time>
      </trkpt>
      <trkpt lat="48.2111" lon="7.11541">
        <ele>983.2</ele>
        <time>2022-02-12T13:49:49Z</time>
      </trkpt>
      <trkpt lat="48.21119" lon="7.11542">
        <ele>985</ele>
        <time>2022-02-12T13:49:58Z</time>
      </trkpt>
      <trkpt lat="48.21128" lon="7.11543">
        <ele>986.5</ele>
        <time>2022-02-12T13:50:11Z</time>
      </trkpt>
      <trkpt lat="48.21129" lon="7.11542">
        <ele>986.7</ele>
        <time>2022-02-12T13:50:19Z</time>
      </trkpt>
      <trkpt lat="48.21129" lon="7.11541">
        <ele>986.8</ele>
        <time>2022-02-12T13:50:20Z</time>
      </trkpt>
      <trkpt lat="48.21135" lon="7.11542">
        <ele>987.8</ele>
        <time>2022-02-12T13:50:39Z</time>
      </trkpt>
      <trkpt lat="48.21136" lon="7.11542">
        <ele>987.9</ele>
        <time>2022-02-12T13:50:40Z</time>
      </trkpt>
      <trkpt lat="48.21145" lon="7.11543">
        <ele>989.4</ele>
        <time>2022-02-12T13:50:47Z</time>
      </trkpt>
      <trkpt lat="48.21146" lon="7.11542">
        <ele>989.5</ele>
        <time>2022-02-12T13:50:50Z</time>
      </trkpt>
      <trkpt lat="48.21146" lon="7.11543">
        <ele>989.6</ele>
        <time>2022-02-12T13:50:51Z</time>
      </trkpt>
      <trkpt lat="48.21146" lon="7.11543">
        <ele>989.7</ele>
        <time>2022-02-12T13:50:53Z</time>
      </trkpt>
      <trkpt lat="48.21147" lon="7.11544">
        <ele>989.9</ele>
        <time>2022-02-12T13:50:54Z</time>
      </trkpt>
      <trkpt lat="48.21157" lon="7.11546">
        <ele>991.6</ele>
        <time>2022-02-12T13:51:02Z</time>
      </trkpt>
      <trkpt lat="48.21161" lon="7.11547">
        <ele>992.3</ele>
        <time>2022-02-12T13:51:06Z</time>
      </trkpt>
      <trkpt lat="48.21162" lon="7.11547">
        <ele>992.4</ele>
        <time>2022-02-12T13:51:07Z</time>
      </trkpt>
      <trkpt lat="48.21161" lon="7.11538">
        <ele>993.4</ele>
        <time>2022-02-12T13:51:31Z</time>
      </trkpt>
      <trkpt lat="48.21161" lon="7.11538">
        <ele>993.5</ele>
        <time>2022-02-12T13:51:32Z</time>
      </trkpt>
      <trkpt lat="48.2117" lon="7.11541">
        <ele>995.1</ele>
        <time>2022-02-12T13:51:42Z</time>
      </trkpt>
      <trkpt lat="48.2118" lon="7.11541">
        <ele>996.6</ele>
        <time>2022-02-12T13:51:54Z</time>
      </trkpt>
      <trkpt lat="48.2119" lon="7.11538">
        <ele>998.2</ele>
        <time>2022-02-12T13:52:01Z</time>
      </trkpt>
      <trkpt lat="48.21199" lon="7.11535">
        <ele>999.7</ele>
        <time>2022-02-12T13:52:08Z</time>
      </trkpt>
      <trkpt lat="48.21209" lon="7.11535">
        <ele>1001.3</ele>
        <time>2022-02-12T13:52:28Z</time>
      </trkpt>
      <trkpt lat="48.21218" lon="7.1154">
        <ele>1002.6</ele>
        <time>2022-02-12T13:52:37Z</time>
      </trkpt>
      <trkpt lat="48.21221" lon="7.11536">
        <ele>1003</ele>
        <time>2022-02-12T13:52:47Z</time>
      </trkpt>
      <trkpt lat="48.21219" lon="7.11535">
        <ele>1003.2</ele>
        <time>2022-02-12T13:52:48Z</time>
      </trkpt>
      <trkpt lat="48.21214" lon="7.11523">
        <ele>1003.9</ele>
        <time>2022-02-12T13:53:07Z</time>
      </trkpt>
      <trkpt lat="48.21224" lon="7.11525">
        <ele>1003.8</ele>
        <time>2022-02-12T13:53:21Z</time>
      </trkpt>
      <trkpt lat="48.21235" lon="7.11524">
        <ele>1002.8</ele>
        <time>2022-02-12T13:53:37Z</time>
      </trkpt>
      <trkpt lat="48.21244" lon="7.11531">
        <ele>1001.6</ele>
        <time>2022-02-12T13:53:42Z</time>
      </trkpt>
      <trkpt lat="48.21236" lon="7.11536">
        <ele>1000.3</ele>
        <time>2022-02-12T13:53:45Z</time>
      </trkpt>
      <trkpt lat="48.21237" lon="7.11535">
        <ele>1000</ele>
        <time>2022-02-12T13:53:47Z</time>
      </trkpt>
      <trkpt lat="48.21236" lon="7.11536">
        <ele>999.9</ele>
        <time>2022-02-12T13:53:48Z</time>
      </trkpt>
      <trkpt lat="48.21233" lon="7.11536">
        <ele>999.4</ele>
        <time>2022-02-12T13:53:53Z</time>
      </trkpt>
      <trkpt lat="48.21232" lon="7.11536">
        <ele>999.1</ele>
        <time>2022-02-12T13:53:54Z</time>
      </trkpt>
      <trkpt lat="48.21223" lon="7.11529">
        <ele>997.5</ele>
        <time>2022-02-12T13:54:11Z</time>
      </trkpt>
      <trkpt lat="48.21222" lon="7.11529">
        <ele>997.3</ele>
        <time>2022-02-12T13:54:15Z</time>
      </trkpt>
      <trkpt lat="48.21221" lon="7.11529">
        <ele>997.1</ele>
        <time>2022-02-12T13:54:16Z</time>
      </trkpt>
      <trkpt lat="48.21215" lon="7.1154">
        <ele>995.3</ele>
        <time>2022-02-12T13:54:35Z</time>
      </trkpt>
      <trkpt lat="48.21222" lon="7.11539">
        <ele>994</ele>
        <time>2022-02-12T13:54:45Z</time>
      </trkpt>
      <trkpt lat="48.21224" lon="7.11541">
        <ele>993.4</ele>
        <time>2022-02-12T13:54:46Z</time>
      </trkpt>
      <trkpt lat="48.21226" lon="7.11545">
        <ele>992.7</ele>
        <time>2022-02-12T13:54:50Z</time>
      </trkpt>
      <trkpt lat="48.21226" lon="7.11545">
        <ele>992.6</ele>
        <time>2022-02-12T13:54:51Z</time>
      </trkpt>
      <trkpt lat="48.21231" lon="7.11557">
        <ele>990.5</ele>
        <time>2022-02-12T13:55:28Z</time>
      </trkpt>
      <trkpt lat="48.21234" lon="7.11571">
        <ele>988.3</ele>
        <time>2022-02-12T13:55:36Z</time>
      </trkpt>
      <trkpt lat="48.21239" lon="7.11583">
        <ele>986.1</ele>
        <time>2022-02-12T13:55:51Z</time>
      </trkpt>
      <trkpt lat="48.21243" lon="7.11596">
        <ele>983.9</ele>
        <time>2022-02-12T13:56:00Z</time>
      </trkpt>
      <trkpt lat="48.21242" lon="7.11599">
        <ele>983.5</ele>
        <time>2022-02-12T13:56:05Z</time>
      </trkpt>
      <trkpt lat="48.21242" lon="7.11599">
        <ele>983.4</ele>
        <time>2022-02-12T13:56:07Z</time>
      </trkpt>
      <trkpt lat="48.21249" lon="7.11609">
        <ele>981.2</ele>
        <time>2022-02-12T13:56:24Z</time>
      </trkpt>
      <trkpt lat="48.21255" lon="7.11621">
        <ele>978.7</ele>
        <time>2022-02-12T13:56:32Z</time>
      </trkpt>
      <trkpt lat="48.21261" lon="7.11633">
        <ele>976</ele>
        <time>2022-02-12T13:56:38Z</time>
      </trkpt>
      <trkpt lat="48.21268" lon="7.11644">
        <ele>973.4</ele>
        <time>2022-02-12T13:56:46Z</time>
      </trkpt>
      <trkpt lat="48.21273" lon="7.11658">
        <ele>970.8</ele>
        <time>2022-02-12T13:56:55Z</time>
      </trkpt>
      <trkpt lat="48.21273" lon="7.11672">
        <ele>968.7</ele>
        <time>2022-02-12T13:57:04Z</time>
      </trkpt>
      <trkpt lat="48.21278" lon="7.11685">
        <ele>966.7</ele>
        <time>2022-02-12T13:57:15Z</time>
      </trkpt>
      <trkpt lat="48.21283" lon="7.11698">
        <ele>965.1</ele>
        <time>2022-02-12T13:57:26Z</time>
      </trkpt>
      <trkpt lat="48.21286" lon="7.11711">
        <ele>964</ele>
        <time>2022-02-12T13:57:39Z</time>
      </trkpt>
      <trkpt lat="48.21294" lon="7.1172">
        <ele>963</ele>
        <time>2022-02-12T13:57:51Z</time>
      </trkpt>
      <trkpt lat="48.21302" lon="7.1173">
        <ele>962.2</ele>
        <time>2022-02-12T13:58:00Z</time>
      </trkpt>
      <trkpt lat="48.21308" lon="7.1174">
        <ele>961.6</ele>
        <time>2022-02-12T13:58:09Z</time>
      </trkpt>
      <trkpt lat="48.21316" lon="7.11747">
        <ele>961</ele>
        <time>2022-02-12T13:58:15Z</time>
      </trkpt>
      <trkpt lat="48.21322" lon="7.11758">
        <ele>960.4</ele>
        <time>2022-02-12T13:58:24Z</time>
      </trkpt>
      <trkpt lat="48.2133" lon="7.11764">
        <ele>959.7</ele>
        <time>2022-02-12T13:58:32Z</time>
      </trkpt>
      <trkpt lat="48.21338" lon="7.1177">
        <ele>959.1</ele>
        <time>2022-02-12T13:58:37Z</time>
      </trkpt>
      <trkpt lat="48.21347" lon="7.11776">
        <ele>958.5</ele>
        <time>2022-02-12T13:58:42Z</time>
      </trkpt>
      <trkpt lat="48.21356" lon="7.11781">
        <ele>958.2</ele>
        <time>2022-02-12T13:58:47Z</time>
      </trkpt>
      <trkpt lat="48.21364" lon="7.11789">
        <ele>957.9</ele>
        <time>2022-02-12T13:58:56Z</time>
      </trkpt>
      <trkpt lat="48.21372" lon="7.11799">
        <ele>957.5</ele>
        <time>2022-02-12T13:59:05Z</time>
      </trkpt>
      <trkpt lat="48.21375" lon="7.11809">
        <ele>957.2</ele>
        <time>2022-02-12T13:59:13Z</time>
      </trkpt>
      <trkpt lat="48.21375" lon="7.11809">
        <ele>957.2</ele>
        <time>2022-02-12T13:59:14Z</time>
      </trkpt>
      <trkpt lat="48.21384" lon="7.11814">
        <ele>956.7</ele>
        <time>2022-02-12T13:59:21Z</time>
      </trkpt>
      <trkpt lat="48.21394" lon="7.11818">
        <ele>956.2</ele>
        <time>2022-02-12T13:59:28Z</time>
      </trkpt>
      <trkpt lat="48.21402" lon="7.11827">
        <ele>955.7</ele>
        <time>2022-02-12T13:59:38Z</time>
      </trkpt>
      <trkpt lat="48.2141" lon="7.11835">
        <ele>955.2</ele>
        <time>2022-02-12T13:59:48Z</time>
      </trkpt>
      <trkpt lat="48.21421" lon="7.11841">
        <ele>954.7</ele>
        <time>2022-02-12T13:59:53Z</time>
      </trkpt>
      <trkpt lat="48.21428" lon="7.11849">
        <ele>954.4</ele>
        <time>2022-02-12T14:00:03Z</time>
      </trkpt>
      <trkpt lat="48.21436" lon="7.11856">
        <ele>954.2</ele>
        <time>2022-02-12T14:00:12Z</time>
      </trkpt>
      <trkpt lat="48.21446" lon="7.1186">
        <ele>954</ele>
        <time>2022-02-12T14:00:18Z</time>
      </trkpt>
      <trkpt lat="48.21456" lon="7.11867">
        <ele>953.8</ele>
        <time>2022-02-12T14:00:29Z</time>
      </trkpt>
      <trkpt lat="48.21465" lon="7.11874">
        <ele>953.5</ele>
        <time>2022-02-12T14:00:36Z</time>
      </trkpt>
      <trkpt lat="48.21472" lon="7.11883">
        <ele>952.7</ele>
        <time>2022-02-12T14:00:46Z</time>
      </trkpt>
      <trkpt lat="48.21481" lon="7.11894">
        <ele>951.3</ele>
        <time>2022-02-12T14:00:52Z</time>
      </trkpt>
      <trkpt lat="48.21485" lon="7.11907">
        <ele>950.1</ele>
        <time>2022-02-12T14:01:02Z</time>
      </trkpt>
      <trkpt lat="48.21488" lon="7.11922">
        <ele>948.7</ele>
        <time>2022-02-12T14:01:12Z</time>
      </trkpt>
      <trkpt lat="48.21489" lon="7.11935">
        <ele>947.6</ele>
        <time>2022-02-12T14:01:23Z</time>
      </trkpt>
      <trkpt lat="48.21496" lon="7.11945">
        <ele>946.5</ele>
        <time>2022-02-12T14:01:34Z</time>
      </trkpt>
      <trkpt lat="48.21492" lon="7.11959">
        <ele>945.5</ele>
        <time>2022-02-12T14:01:41Z</time>
      </trkpt>
      <trkpt lat="48.21498" lon="7.1197">
        <ele>944.6</ele>
        <time>2022-02-12T14:01:48Z</time>
      </trkpt>
      <trkpt lat="48.21504" lon="7.11982">
        <ele>943.7</ele>
        <time>2022-02-12T14:01:56Z</time>
      </trkpt>
      <trkpt lat="48.21509" lon="7.11994">
        <ele>942.9</ele>
        <time>2022-02-12T14:02:05Z</time>
      </trkpt>
      <trkpt lat="48.2151" lon="7.12008">
        <ele>942.2</ele>
        <time>2022-02-12T14:02:14Z</time>
      </trkpt>
      <trkpt lat="48.21512" lon="7.12021">
        <ele>941.4</ele>
        <time>2022-02-12T14:02:23Z</time>
      </trkpt>
      <trkpt lat="48.21515" lon="7.12036">
        <ele>940.6</ele>
        <time>2022-02-12T14:02:30Z</time>
      </trkpt>
      <trkpt lat="48.21521" lon="7.12047">
        <ele>939.9</ele>
        <time>2022-02-12T14:02:35Z</time>
      </trkpt>
      <trkpt lat="48.21525" lon="7.12062">
        <ele>939.2</ele>
        <time>2022-02-12T14:02:45Z</time>
      </trkpt>
      <trkpt lat="48.2153" lon="7.12075">
        <ele>938.7</ele>
        <time>2022-02-12T14:02:55Z</time>
      </trkpt>
      <trkpt lat="48.21536" lon="7.12087">
        <ele>938.3</ele>
        <time>2022-02-12T14:03:01Z</time>
      </trkpt>
      <trkpt lat="48.21541" lon="7.12101">
        <ele>937.9</ele>
        <time>2022-02-12T14:03:10Z</time>
      </trkpt>
      <trkpt lat="48.21544" lon="7.12114">
        <ele>937.5</ele>
        <time>2022-02-12T14:03:36Z</time>
      </trkpt>
      <trkpt lat="48.21548" lon="7.12126">
        <ele>937.1</ele>
        <time>2022-02-12T14:03:42Z</time>
      </trkpt>
      <trkpt lat="48.21554" lon="7.12136">
        <ele>936.9</ele>
        <time>2022-02-12T14:03:49Z</time>
      </trkpt>
      <trkpt lat="48.21563" lon="7.12143">
        <ele>937.1</ele>
        <time>2022-02-12T14:03:59Z</time>
      </trkpt>
      <trkpt lat="48.21568" lon="7.12156">
        <ele>937.4</ele>
        <time>2022-02-12T14:04:08Z</time>
      </trkpt>
      <trkpt lat="48.21569" lon="7.12172">
        <ele>937.9</ele>
        <time>2022-02-12T14:04:13Z</time>
      </trkpt>
      <trkpt lat="48.2157" lon="7.12185">
        <ele>938.4</ele>
        <time>2022-02-12T14:04:18Z</time>
      </trkpt>
      <trkpt lat="48.21574" lon="7.12198">
        <ele>939.1</ele>
        <time>2022-02-12T14:04:29Z</time>
      </trkpt>
      <trkpt lat="48.21573" lon="7.12213">
        <ele>940</ele>
        <time>2022-02-12T14:04:36Z</time>
      </trkpt>
      <trkpt lat="48.21581" lon="7.12218">
        <ele>940.8</ele>
        <time>2022-02-12T14:04:46Z</time>
      </trkpt>
      <trkpt lat="48.21586" lon="7.12232">
        <ele>941.7</ele>
        <time>2022-02-12T14:04:58Z</time>
      </trkpt>
      <trkpt lat="48.21593" lon="7.12242">
        <ele>942.6</ele>
        <time>2022-02-12T14:05:06Z</time>
      </trkpt>
      <trkpt lat="48.21593" lon="7.12256">
        <ele>943.5</ele>
        <time>2022-02-12T14:05:15Z</time>
      </trkpt>
      <trkpt lat="48.2159" lon="7.12269">
        <ele>944.5</ele>
        <time>2022-02-12T14:05:27Z</time>
      </trkpt>
      <trkpt lat="48.21594" lon="7.12282">
        <ele>945.5</ele>
        <time>2022-02-12T14:05:45Z</time>
      </trkpt>
      <trkpt lat="48.21603" lon="7.1229">
        <ele>946.6</ele>
        <time>2022-02-12T14:05:51Z</time>
      </trkpt>
      <trkpt lat="48.21604" lon="7.12304">
        <ele>947.6</ele>
        <time>2022-02-12T14:05:59Z</time>
      </trkpt>
      <trkpt lat="48.21613" lon="7.12313">
        <ele>948.5</ele>
        <time>2022-02-12T14:06:05Z</time>
      </trkpt>
      <trkpt lat="48.21621" lon="7.1232">
        <ele>949.2</ele>
        <time>2022-02-12T14:06:08Z</time>
      </trkpt>
      <trkpt lat="48.21628" lon="7.12331">
        <ele>949.8</ele>
        <time>2022-02-12T14:06:14Z</time>
      </trkpt>
      <trkpt lat="48.2164" lon="7.12335">
        <ele>950.4</ele>
        <time>2022-02-12T14:06:20Z</time>
      </trkpt>
      <trkpt lat="48.21653" lon="7.12333">
        <ele>950.7</ele>
        <time>2022-02-12T14:06:37Z</time>
      </trkpt>
      <trkpt lat="48.21642" lon="7.12337">
        <ele>950.9</ele>
        <time>2022-02-12T14:06:41Z</time>
      </trkpt>
      <trkpt lat="48.21654" lon="7.12344">
        <ele>951</ele>
        <time>2022-02-12T14:06:54Z</time>
      </trkpt>
      <trkpt lat="48.21666" lon="7.12348">
        <ele>951</ele>
        <time>2022-02-12T14:06:57Z</time>
      </trkpt>
      <trkpt lat="48.21676" lon="7.12354">
        <ele>951.1</ele>
        <time>2022-02-12T14:07:05Z</time>
      </trkpt>
      <trkpt lat="48.21686" lon="7.12357">
        <ele>951.1</ele>
        <time>2022-02-12T14:07:07Z</time>
      </trkpt>
      <trkpt lat="48.21697" lon="7.1236">
        <ele>951</ele>
        <time>2022-02-12T14:07:09Z</time>
      </trkpt>
      <trkpt lat="48.21707" lon="7.12359">
        <ele>950.6</ele>
        <time>2022-02-12T14:07:15Z</time>
      </trkpt>
      <trkpt lat="48.21716" lon="7.12362">
        <ele>950.1</ele>
        <time>2022-02-12T14:07:23Z</time>
      </trkpt>
      <trkpt lat="48.21726" lon="7.12366">
        <ele>949.3</ele>
        <time>2022-02-12T14:07:38Z</time>
      </trkpt>
      <trkpt lat="48.21735" lon="7.1237">
        <ele>948.4</ele>
        <time>2022-02-12T14:07:45Z</time>
      </trkpt>
      <trkpt lat="48.21742" lon="7.1238">
        <ele>947.3</ele>
        <time>2022-02-12T14:07:50Z</time>
      </trkpt>
      <trkpt lat="48.21745" lon="7.12382">
        <ele>947</ele>
        <time>2022-02-12T14:07:57Z</time>
      </trkpt>
      <trkpt lat="48.21745" lon="7.12382">
        <ele>946.9</ele>
        <time>2022-02-12T14:07:58Z</time>
      </trkpt>
      <trkpt lat="48.21756" lon="7.12383">
        <ele>945.6</ele>
        <time>2022-02-12T14:08:04Z</time>
      </trkpt>
      <trkpt lat="48.21766" lon="7.12385">
        <ele>944.3</ele>
        <time>2022-02-12T14:08:08Z</time>
      </trkpt>
      <trkpt lat="48.21776" lon="7.12388">
        <ele>943</ele>
        <time>2022-02-12T14:08:15Z</time>
      </trkpt>
      <trkpt lat="48.21782" lon="7.12392">
        <ele>942.1</ele>
        <time>2022-02-12T14:08:20Z</time>
      </trkpt>
      <trkpt lat="48.21782" lon="7.12393">
        <ele>942.1</ele>
        <time>2022-02-12T14:08:21Z</time>
      </trkpt>
      <trkpt lat="48.2179" lon="7.12402">
        <ele>940.7</ele>
        <time>2022-02-12T14:08:30Z</time>
      </trkpt>
      <trkpt lat="48.21798" lon="7.12409">
        <ele>939.2</ele>
        <time>2022-02-12T14:08:36Z</time>
      </trkpt>
      <trkpt lat="48.21807" lon="7.12414">
        <ele>937.7</ele>
        <time>2022-02-12T14:09:03Z</time>
      </trkpt>
      <trkpt lat="48.21816" lon="7.12413">
        <ele>936.1</ele>
        <time>2022-02-12T14:09:14Z</time>
      </trkpt>
      <trkpt lat="48.21825" lon="7.12415">
        <ele>934.6</ele>
        <time>2022-02-12T14:09:18Z</time>
      </trkpt>
      <trkpt lat="48.21834" lon="7.12414">
        <ele>933.2</ele>
        <time>2022-02-12T14:09:25Z</time>
      </trkpt>
      <trkpt lat="48.21834" lon="7.12415">
        <ele>933.1</ele>
        <time>2022-02-12T14:09:26Z</time>
      </trkpt>
      <trkpt lat="48.21843" lon="7.1242">
        <ele>931.4</ele>
        <time>2022-02-12T14:09:35Z</time>
      </trkpt>
      <trkpt lat="48.21853" lon="7.12423">
        <ele>929.5</ele>
        <time>2022-02-12T14:09:43Z</time>
      </trkpt>
      <trkpt lat="48.21861" lon="7.12429">
        <ele>927.8</ele>
        <time>2022-02-12T14:09:52Z</time>
      </trkpt>
      <trkpt lat="48.2187" lon="7.12434">
        <ele>925.9</ele>
        <time>2022-02-12T14:10:06Z</time>
      </trkpt>
      <trkpt lat="48.21879" lon="7.12436">
        <ele>924.2</ele>
        <time>2022-02-12T14:10:13Z</time>
      </trkpt>
      <trkpt lat="48.21889" lon="7.1244">
        <ele>922.3</ele>
        <time>2022-02-12T14:10:27Z</time>
      </trkpt>
      <trkpt lat="48.21891" lon="7.12442">
        <ele>921.8</ele>
        <time>2022-02-12T14:10:31Z</time>
      </trkpt>
      <trkpt lat="48.21892" lon="7.12442">
        <ele>921.7</ele>
        <time>2022-02-12T14:10:32Z</time>
      </trkpt>
      <trkpt lat="48.21901" lon="7.12448">
        <ele>919.8</ele>
        <time>2022-02-12T14:10:45Z</time>
      </trkpt>
      <trkpt lat="48.21908" lon="7.12455">
        <ele>918.3</ele>
        <time>2022-02-12T14:10:54Z</time>
      </trkpt>
      <trkpt lat="48.21909" lon="7.12455">
        <ele>918.2</ele>
        <time>2022-02-12T14:10:55Z</time>
      </trkpt>
      <trkpt lat="48.21911" lon="7.12458">
        <ele>917.7</ele>
        <time>2022-02-12T14:11:07Z</time>
      </trkpt>
      <trkpt lat="48.21911" lon="7.12458">
        <ele>917.7</ele>
        <time>2022-02-12T14:11:08Z</time>
      </trkpt>
      <trkpt lat="48.21907" lon="7.12452">
        <ele>916.7</ele>
        <time>2022-02-12T14:11:16Z</time>
      </trkpt>
      <trkpt lat="48.21907" lon="7.12452">
        <ele>916.7</ele>
        <time>2022-02-12T14:11:18Z</time>
      </trkpt>
      <trkpt lat="48.2191" lon="7.12457">
        <ele>915.9</ele>
        <time>2022-02-12T14:11:32Z</time>
      </trkpt>
      <trkpt lat="48.2191" lon="7.12457">
        <ele>915.9</ele>
        <time>2022-02-12T14:11:33Z</time>
      </trkpt>
      <trkpt lat="48.21909" lon="7.12456">
        <ele>915.8</ele>
        <time>2022-02-12T14:11:38Z</time>
      </trkpt>
      <trkpt lat="48.21909" lon="7.12456">
        <ele>915.7</ele>
        <time>2022-02-12T14:11:40Z</time>
      </trkpt>
      <trkpt lat="48.21909" lon="7.12456">
        <ele>915.7</ele>
        <time>2022-02-12T14:11:42Z</time>
      </trkpt>
      <trkpt lat="48.21909" lon="7.12456">
        <ele>915.6</ele>
        <time>2022-02-12T14:11:49Z</time>
      </trkpt>
      <trkpt lat="48.21909" lon="7.12456">
        <ele>915.6</ele>
        <time>2022-02-12T14:11:50Z</time>
      </trkpt>
      <trkpt lat="48.21909" lon="7.12456">
        <ele>915.6</ele>
        <time>2022-02-12T14:11:51Z</time>
      </trkpt>
      <trkpt lat="48.21909" lon="7.12456">
        <ele>915.6</ele>
        <time>2022-02-12T14:11:52Z</time>
      </trkpt>
      <trkpt lat="48.21909" lon="7.12457">
        <ele>915.6</ele>
        <time>2022-02-12T14:12:04Z</time>
      </trkpt>
      <trkpt lat="48.21909" lon="7.12457">
        <ele>915.6</ele>
        <time>2022-02-12T14:12:05Z</time>
      </trkpt>
      <trkpt lat="48.21909" lon="7.12456">
        <ele>915.5</ele>
        <time>2022-02-12T14:12:06Z</time>
      </trkpt>
      <trkpt lat="48.21909" lon="7.12456">
        <ele>915.5</ele>
        <time>2022-02-12T14:12:07Z</time>
      </trkpt>
      <trkpt lat="48.21909" lon="7.12456">
        <ele>915.4</ele>
        <time>2022-02-12T14:12:08Z</time>
      </trkpt>
      <trkpt lat="48.21911" lon="7.12456">
        <ele>915.2</ele>
        <time>2022-02-12T14:12:14Z</time>
      </trkpt>
      <trkpt lat="48.21911" lon="7.12456">
        <ele>915.2</ele>
        <time>2022-02-12T14:12:21Z</time>
      </trkpt>
      <trkpt lat="48.21914" lon="7.12458">
        <ele>914.6</ele>
        <time>2022-02-12T14:12:30Z</time>
      </trkpt>
      <trkpt lat="48.21915" lon="7.12458">
        <ele>914.6</ele>
        <time>2022-02-12T14:12:31Z</time>
      </trkpt>
      <trkpt lat="48.21913" lon="7.12455">
        <ele>914.2</ele>
        <time>2022-02-12T14:12:38Z</time>
      </trkpt>
      <trkpt lat="48.21914" lon="7.12455">
        <ele>914.2</ele>
        <time>2022-02-12T14:12:39Z</time>
      </trkpt>
      <trkpt lat="48.21924" lon="7.12456">
        <ele>912.8</ele>
        <time>2022-02-12T14:12:52Z</time>
      </trkpt>
      <trkpt lat="48.21926" lon="7.12456">
        <ele>912.6</ele>
        <time>2022-02-12T14:12:56Z</time>
      </trkpt>
      <trkpt lat="48.21924" lon="7.12455">
        <ele>912.4</ele>
        <time>2022-02-12T14:12:57Z</time>
      </trkpt>
      <trkpt lat="48.21928" lon="7.12467">
        <ele>911.4</ele>
        <time>2022-02-12T14:13:27Z</time>
      </trkpt>
      <trkpt lat="48.21928" lon="7.12467">
        <ele>911.4</ele>
        <time>2022-02-12T14:13:28Z</time>
      </trkpt>
      <trkpt lat="48.21929" lon="7.12467">
        <ele>911.3</ele>
        <time>2022-02-12T14:13:34Z</time>
      </trkpt>
      <trkpt lat="48.21929" lon="7.12466">
        <ele>911.2</ele>
        <time>2022-02-12T14:13:44Z</time>
      </trkpt>
      <trkpt lat="48.21929" lon="7.12466">
        <ele>911.2</ele>
        <time>2022-02-12T14:13:45Z</time>
      </trkpt>
      <trkpt lat="48.21929" lon="7.12467">
        <ele>911.2</ele>
        <time>2022-02-12T14:13:46Z</time>
      </trkpt>
      <trkpt lat="48.21929" lon="7.12467">
        <ele>911.2</ele>
        <time>2022-02-12T14:13:48Z</time>
      </trkpt>
      <trkpt lat="48.21929" lon="7.12466">
        <ele>911.1</ele>
        <time>2022-02-12T14:13:50Z</time>
      </trkpt>
      <trkpt lat="48.21928" lon="7.12466">
        <ele>911.1</ele>
        <time>2022-02-12T14:13:52Z</time>
      </trkpt>
      <trkpt lat="48.21928" lon="7.12466">
        <ele>911.1</ele>
        <time>2022-02-12T14:13:55Z</time>
      </trkpt>
      <trkpt lat="48.21928" lon="7.12466">
        <ele>911.1</ele>
        <time>2022-02-12T14:13:56Z</time>
      </trkpt>
      <trkpt lat="48.21929" lon="7.12466">
        <ele>911</ele>
        <time>2022-02-12T14:13:57Z</time>
      </trkpt>
      <trkpt lat="48.21929" lon="7.12468">
        <ele>910.9</ele>
        <time>2022-02-12T14:14:04Z</time>
      </trkpt>
      <trkpt lat="48.21929" lon="7.12468">
        <ele>910.4</ele>
        <time>2022-02-12T14:14:06Z</time>
      </trkpt>
      <trkpt lat="48.21929" lon="7.12468">
        <ele>910.4</ele>
        <time>2022-02-12T14:14:07Z</time>
      </trkpt>
      <trkpt lat="48.21929" lon="7.12468">
        <ele>910.4</ele>
        <time>2022-02-12T14:14:10Z</time>
      </trkpt>
      <trkpt lat="48.21929" lon="7.12468">
        <ele>910.4</ele>
        <time>2022-02-12T14:14:12Z</time>
      </trkpt>
      <trkpt lat="48.21929" lon="7.12468">
        <ele>910.4</ele>
        <time>2022-02-12T14:14:13Z</time>
      </trkpt>
      <trkpt lat="48.21929" lon="7.12468">
        <ele>910.4</ele>
        <time>2022-02-12T14:14:15Z</time>
      </trkpt>
      <trkpt lat="48.2193" lon="7.12468">
        <ele>910.4</ele>
        <time>2022-02-12T14:14:16Z</time>
      </trkpt>
      <trkpt lat="48.2193" lon="7.12468">
        <ele>910.4</ele>
        <time>2022-02-12T14:14:20Z</time>
      </trkpt>
      <trkpt lat="48.21931" lon="7.12468">
        <ele>910.4</ele>
        <time>2022-02-12T14:14:21Z</time>
      </trkpt>
      <trkpt lat="48.21936" lon="7.12456">
        <ele>910.1</ele>
        <time>2022-02-12T14:14:39Z</time>
      </trkpt>
      <trkpt lat="48.21939" lon="7.12443">
        <ele>909.6</ele>
        <time>2022-02-12T14:14:47Z</time>
      </trkpt>
      <trkpt lat="48.21947" lon="7.12434">
        <ele>908.6</ele>
        <time>2022-02-12T14:14:56Z</time>
      </trkpt>
      <trkpt lat="48.21952" lon="7.12423">
        <ele>907.4</ele>
        <time>2022-02-12T14:15:11Z</time>
      </trkpt>
      <trkpt lat="48.21952" lon="7.12423">
        <ele>907.3</ele>
        <time>2022-02-12T14:15:12Z</time>
      </trkpt>
      <trkpt lat="48.21953" lon="7.12423">
        <ele>907.3</ele>
        <time>2022-02-12T14:15:13Z</time>
      </trkpt>
      <trkpt lat="48.21953" lon="7.12423">
        <ele>907.3</ele>
        <time>2022-02-12T14:15:14Z</time>
      </trkpt>
      <trkpt lat="48.21953" lon="7.12423">
        <ele>907.2</ele>
        <time>2022-02-12T14:15:15Z</time>
      </trkpt>
      <trkpt lat="48.21953" lon="7.12423">
        <ele>907.2</ele>
        <time>2022-02-12T14:15:16Z</time>
      </trkpt>
      <trkpt lat="48.21953" lon="7.12423">
        <ele>907.2</ele>
        <time>2022-02-12T14:15:17Z</time>
      </trkpt>
      <trkpt lat="48.21956" lon="7.12408">
        <ele>906.2</ele>
        <time>2022-02-12T14:15:39Z</time>
      </trkpt>
      <trkpt lat="48.2196" lon="7.12395">
        <ele>905.3</ele>
        <time>2022-02-12T14:15:51Z</time>
      </trkpt>
      <trkpt lat="48.21967" lon="7.12387">
        <ele>904.3</ele>
        <time>2022-02-12T14:15:59Z</time>
      </trkpt>
      <trkpt lat="48.21976" lon="7.12383">
        <ele>903.2</ele>
        <time>2022-02-12T14:16:14Z</time>
      </trkpt>
      <trkpt lat="48.21983" lon="7.12373">
        <ele>902.3</ele>
        <time>2022-02-12T14:16:23Z</time>
      </trkpt>
      <trkpt lat="48.21993" lon="7.12369">
        <ele>901.4</ele>
        <time>2022-02-12T14:16:30Z</time>
      </trkpt>
      <trkpt lat="48.22002" lon="7.12368">
        <ele>900.6</ele>
        <time>2022-02-12T14:16:35Z</time>
      </trkpt>
      <trkpt lat="48.22011" lon="7.12367">
        <ele>899.8</ele>
        <time>2022-02-12T14:16:47Z</time>
      </trkpt>
      <trkpt lat="48.2202" lon="7.12363">
        <ele>899.1</ele>
        <time>2022-02-12T14:16:55Z</time>
      </trkpt>
      <trkpt lat="48.22028" lon="7.12356">
        <ele>898.5</ele>
        <time>2022-02-12T14:17:05Z</time>
      </trkpt>
      <trkpt lat="48.22038" lon="7.1235">
        <ele>897.9</ele>
        <time>2022-02-12T14:17:10Z</time>
      </trkpt>
      <trkpt lat="48.22046" lon="7.12346">
        <ele>897.5</ele>
        <time>2022-02-12T14:17:19Z</time>
      </trkpt>
      <trkpt lat="48.22056" lon="7.1234">
        <ele>897</ele>
        <time>2022-02-12T14:17:26Z</time>
      </trkpt>
      <trkpt lat="48.22064" lon="7.12333">
        <ele>896.7</ele>
        <time>2022-02-12T14:17:33Z</time>
      </trkpt>
      <trkpt lat="48.22074" lon="7.12327">
        <ele>896.4</ele>
        <time>2022-02-12T14:17:41Z</time>
      </trkpt>
      <trkpt lat="48.22082" lon="7.1232">
        <ele>896.1</ele>
        <time>2022-02-12T14:17:49Z</time>
      </trkpt>
      <trkpt lat="48.22088" lon="7.12308">
        <ele>895.8</ele>
        <time>2022-02-12T14:17:55Z</time>
      </trkpt>
      <trkpt lat="48.22092" lon="7.12294">
        <ele>895.7</ele>
        <time>2022-02-12T14:18:03Z</time>
      </trkpt>
      <trkpt lat="48.22101" lon="7.12285">
        <ele>895.4</ele>
        <time>2022-02-12T14:18:13Z</time>
      </trkpt>
      <trkpt lat="48.2211" lon="7.12276">
        <ele>895</ele>
        <time>2022-02-12T14:18:19Z</time>
      </trkpt>
      <trkpt lat="48.22119" lon="7.12272">
        <ele>894.6</ele>
        <time>2022-02-12T14:18:23Z</time>
      </trkpt>
      <trkpt lat="48.2212" lon="7.12271">
        <ele>894.6</ele>
        <time>2022-02-12T14:18:25Z</time>
      </trkpt>
      <trkpt lat="48.2212" lon="7.12271">
        <ele>894.6</ele>
        <time>2022-02-12T14:18:26Z</time>
      </trkpt>
      <trkpt lat="48.22127" lon="7.12261">
        <ele>894.3</ele>
        <time>2022-02-12T14:18:34Z</time>
      </trkpt>
      <trkpt lat="48.22133" lon="7.12249">
        <ele>894</ele>
        <time>2022-02-12T14:18:42Z</time>
      </trkpt>
      <trkpt lat="48.22136" lon="7.12237">
        <ele>893.9</ele>
        <time>2022-02-12T14:18:51Z</time>
      </trkpt>
      <trkpt lat="48.22143" lon="7.12225">
        <ele>893.9</ele>
        <time>2022-02-12T14:18:58Z</time>
      </trkpt>
      <trkpt lat="48.22146" lon="7.12211">
        <ele>894.9</ele>
        <time>2022-02-12T14:19:10Z</time>
      </trkpt>
      <trkpt lat="48.22151" lon="7.122">
        <ele>895.9</ele>
        <time>2022-02-12T14:19:19Z</time>
      </trkpt>
      <trkpt lat="48.22157" lon="7.12187">
        <ele>896.9</ele>
        <time>2022-02-12T14:19:28Z</time>
      </trkpt>
      <trkpt lat="48.22161" lon="7.12175">
        <ele>898.4</ele>
        <time>2022-02-12T14:19:37Z</time>
      </trkpt>
      <trkpt lat="48.2217" lon="7.1217">
        <ele>898</ele>
        <time>2022-02-12T14:20:08Z</time>
      </trkpt>
      <trkpt lat="48.22167" lon="7.12156">
        <ele>897.2</ele>
        <time>2022-02-12T14:20:15Z</time>
      </trkpt>
      <trkpt lat="48.2217" lon="7.12142">
        <ele>896</ele>
        <time>2022-02-12T14:20:23Z</time>
      </trkpt>
      <trkpt lat="48.22174" lon="7.12129">
        <ele>895.1</ele>
        <time>2022-02-12T14:20:30Z</time>
      </trkpt>
      <trkpt lat="48.22174" lon="7.12115">
        <ele>894.6</ele>
        <time>2022-02-12T14:20:41Z</time>
      </trkpt>
      <trkpt lat="48.22184" lon="7.12112">
        <ele>894.3</ele>
        <time>2022-02-12T14:20:50Z</time>
      </trkpt>
      <trkpt lat="48.22193" lon="7.12107">
        <ele>894.3</ele>
        <time>2022-02-12T14:20:54Z</time>
      </trkpt>
      <trkpt lat="48.22202" lon="7.12101">
        <ele>894.2</ele>
        <time>2022-02-12T14:20:59Z</time>
      </trkpt>
      <trkpt lat="48.22209" lon="7.12092">
        <ele>894.2</ele>
        <time>2022-02-12T14:21:06Z</time>
      </trkpt>
      <trkpt lat="48.22214" lon="7.1208">
        <ele>894.2</ele>
        <time>2022-02-12T14:21:14Z</time>
      </trkpt>
      <trkpt lat="48.22219" lon="7.12068">
        <ele>894.1</ele>
        <time>2022-02-12T14:21:21Z</time>
      </trkpt>
      <trkpt lat="48.22229" lon="7.12062">
        <ele>894.1</ele>
        <time>2022-02-12T14:21:28Z</time>
      </trkpt>
      <trkpt lat="48.22232" lon="7.12048">
        <ele>894.1</ele>
        <time>2022-02-12T14:21:35Z</time>
      </trkpt>
      <trkpt lat="48.22236" lon="7.12035">
        <ele>894</ele>
        <time>2022-02-12T14:21:41Z</time>
      </trkpt>
      <trkpt lat="48.22245" lon="7.12031">
        <ele>893.8</ele>
        <time>2022-02-12T14:21:49Z</time>
      </trkpt>
      <trkpt lat="48.22255" lon="7.12029">
        <ele>893.5</ele>
        <time>2022-02-12T14:21:54Z</time>
      </trkpt>
      <trkpt lat="48.22255" lon="7.12014">
        <ele>893.1</ele>
        <time>2022-02-12T14:22:04Z</time>
      </trkpt>
      <trkpt lat="48.22259" lon="7.12001">
        <ele>892.9</ele>
        <time>2022-02-12T14:22:14Z</time>
      </trkpt>
      <trkpt lat="48.22262" lon="7.11987">
        <ele>892.7</ele>
        <time>2022-02-12T14:22:25Z</time>
      </trkpt>
      <trkpt lat="48.22267" lon="7.11974">
        <ele>892.7</ele>
        <time>2022-02-12T14:22:34Z</time>
      </trkpt>
      <trkpt lat="48.22272" lon="7.11962">
        <ele>892.7</ele>
        <time>2022-02-12T14:22:41Z</time>
      </trkpt>
      <trkpt lat="48.22274" lon="7.11948">
        <ele>892.6</ele>
        <time>2022-02-12T14:22:49Z</time>
      </trkpt>
      <trkpt lat="48.22275" lon="7.11933">
        <ele>892.5</ele>
        <time>2022-02-12T14:22:56Z</time>
      </trkpt>
      <trkpt lat="48.22284" lon="7.11937">
        <ele>892.3</ele>
        <time>2022-02-12T14:23:04Z</time>
      </trkpt>
      <trkpt lat="48.22285" lon="7.11923">
        <ele>892.1</ele>
        <time>2022-02-12T14:23:13Z</time>
      </trkpt>
      <trkpt lat="48.22288" lon="7.1191">
        <ele>892.1</ele>
        <time>2022-02-12T14:23:20Z</time>
      </trkpt>
      <trkpt lat="48.22294" lon="7.11899">
        <ele>892</ele>
        <time>2022-02-12T14:23:30Z</time>
      </trkpt>
      <trkpt lat="48.22293" lon="7.11885">
        <ele>891.9</ele>
        <time>2022-02-12T14:23:47Z</time>
      </trkpt>
      <trkpt lat="48.22293" lon="7.11885">
        <ele>891.9</ele>
        <time>2022-02-12T14:23:48Z</time>
      </trkpt>
      <trkpt lat="48.22294" lon="7.11886">
        <ele>891.8</ele>
        <time>2022-02-12T14:23:49Z</time>
      </trkpt>
      <trkpt lat="48.22302" lon="7.11892">
        <ele>891.6</ele>
        <time>2022-02-12T14:24:03Z</time>
      </trkpt>
      <trkpt lat="48.22301" lon="7.11898">
        <ele>891.4</ele>
        <time>2022-02-12T14:24:08Z</time>
      </trkpt>
      <trkpt lat="48.223" lon="7.11898">
        <ele>891.4</ele>
        <time>2022-02-12T14:24:09Z</time>
      </trkpt>
      <trkpt lat="48.223" lon="7.11897">
        <ele>891.4</ele>
        <time>2022-02-12T14:24:11Z</time>
      </trkpt>
      <trkpt lat="48.22301" lon="7.11897">
        <ele>891.3</ele>
        <time>2022-02-12T14:24:12Z</time>
      </trkpt>
      <trkpt lat="48.22302" lon="7.11883">
        <ele>891.1</ele>
        <time>2022-02-12T14:24:26Z</time>
      </trkpt>
      <trkpt lat="48.22308" lon="7.11873">
        <ele>890.9</ele>
        <time>2022-02-12T14:24:37Z</time>
      </trkpt>
      <trkpt lat="48.22316" lon="7.11861">
        <ele>890.7</ele>
        <time>2022-02-12T14:24:43Z</time>
      </trkpt>
      <trkpt lat="48.22319" lon="7.11848">
        <ele>890.6</ele>
        <time>2022-02-12T14:24:51Z</time>
      </trkpt>
      <trkpt lat="48.22321" lon="7.11833">
        <ele>890.6</ele>
        <time>2022-02-12T14:24:58Z</time>
      </trkpt>
      <trkpt lat="48.22325" lon="7.11821">
        <ele>890.6</ele>
        <time>2022-02-12T14:25:10Z</time>
      </trkpt>
      <trkpt lat="48.22331" lon="7.1181">
        <ele>890.7</ele>
        <time>2022-02-12T14:25:20Z</time>
      </trkpt>
      <trkpt lat="48.22338" lon="7.11799">
        <ele>890.9</ele>
        <time>2022-02-12T14:25:26Z</time>
      </trkpt>
      <trkpt lat="48.22345" lon="7.11788">
        <ele>891</ele>
        <time>2022-02-12T14:25:34Z</time>
      </trkpt>
      <trkpt lat="48.2235" lon="7.11776">
        <ele>891.2</ele>
        <time>2022-02-12T14:25:43Z</time>
      </trkpt>
      <trkpt lat="48.22352" lon="7.11761">
        <ele>891.5</ele>
        <time>2022-02-12T14:25:54Z</time>
      </trkpt>
      <trkpt lat="48.22362" lon="7.11752">
        <ele>891.7</ele>
        <time>2022-02-12T14:26:01Z</time>
      </trkpt>
      <trkpt lat="48.22369" lon="7.11742">
        <ele>891.8</ele>
        <time>2022-02-12T14:26:10Z</time>
      </trkpt>
      <trkpt lat="48.22378" lon="7.11737">
        <ele>891.9</ele>
        <time>2022-02-12T14:26:17Z</time>
      </trkpt>
      <trkpt lat="48.22384" lon="7.11724">
        <ele>892</ele>
        <time>2022-02-12T14:26:25Z</time>
      </trkpt>
      <trkpt lat="48.22384" lon="7.11709">
        <ele>892.1</ele>
        <time>2022-02-12T14:26:40Z</time>
      </trkpt>
      <trkpt lat="48.22391" lon="7.11701">
        <ele>892.3</ele>
        <time>2022-02-12T14:26:45Z</time>
      </trkpt>
      <trkpt lat="48.22399" lon="7.11691">
        <ele>892.3</ele>
        <time>2022-02-12T14:26:49Z</time>
      </trkpt>
      <trkpt lat="48.22403" lon="7.11678">
        <ele>892.3</ele>
        <time>2022-02-12T14:26:56Z</time>
      </trkpt>
      <trkpt lat="48.22409" lon="7.11666">
        <ele>892.2</ele>
        <time>2022-02-12T14:27:04Z</time>
      </trkpt>
      <trkpt lat="48.22399" lon="7.11669">
        <ele>892</ele>
        <time>2022-02-12T14:27:35Z</time>
      </trkpt>
      <trkpt lat="48.22393" lon="7.11659">
        <ele>891.9</ele>
        <time>2022-02-12T14:27:40Z</time>
      </trkpt>
      <trkpt lat="48.2239" lon="7.11646">
        <ele>891.7</ele>
        <time>2022-02-12T14:27:44Z</time>
      </trkpt>
      <trkpt lat="48.22387" lon="7.11632">
        <ele>891.4</ele>
        <time>2022-02-12T14:27:52Z</time>
      </trkpt>
      <trkpt lat="48.22384" lon="7.11619">
        <ele>891.2</ele>
        <time>2022-02-12T14:28:01Z</time>
      </trkpt>
      <trkpt lat="48.22378" lon="7.11607">
        <ele>890.9</ele>
        <time>2022-02-12T14:28:08Z</time>
      </trkpt>
      <trkpt lat="48.22382" lon="7.11594">
        <ele>890.6</ele>
        <time>2022-02-12T14:28:15Z</time>
      </trkpt>
      <trkpt lat="48.22383" lon="7.1158">
        <ele>890.2</ele>
        <time>2022-02-12T14:28:23Z</time>
      </trkpt>
      <trkpt lat="48.22387" lon="7.11568">
        <ele>889.7</ele>
        <time>2022-02-12T14:28:30Z</time>
      </trkpt>
      <trkpt lat="48.22394" lon="7.11557">
        <ele>889.2</ele>
        <time>2022-02-12T14:28:37Z</time>
      </trkpt>
      <trkpt lat="48.22386" lon="7.11547">
        <ele>888.7</ele>
        <time>2022-02-12T14:28:43Z</time>
      </trkpt>
      <trkpt lat="48.22387" lon="7.11534">
        <ele>888.3</ele>
        <time>2022-02-12T14:28:52Z</time>
      </trkpt>
      <trkpt lat="48.22391" lon="7.11519">
        <ele>887.7</ele>
        <time>2022-02-12T14:28:59Z</time>
      </trkpt>
      <trkpt lat="48.22395" lon="7.11513">
        <ele>887.4</ele>
        <time>2022-02-12T14:29:08Z</time>
      </trkpt>
      <trkpt lat="48.22395" lon="7.11512">
        <ele>887.4</ele>
        <time>2022-02-12T14:29:09Z</time>
      </trkpt>
      <trkpt lat="48.22395" lon="7.11512">
        <ele>887.4</ele>
        <time>2022-02-12T14:29:10Z</time>
      </trkpt>
      <trkpt lat="48.22395" lon="7.11511">
        <ele>887.3</ele>
        <time>2022-02-12T14:29:11Z</time>
      </trkpt>
      <trkpt lat="48.22398" lon="7.11498">
        <ele>886.8</ele>
        <time>2022-02-12T14:29:18Z</time>
      </trkpt>
      <trkpt lat="48.22398" lon="7.11483">
        <ele>886.3</ele>
        <time>2022-02-12T14:29:25Z</time>
      </trkpt>
      <trkpt lat="48.22402" lon="7.1147">
        <ele>885.8</ele>
        <time>2022-02-12T14:29:30Z</time>
      </trkpt>
      <trkpt lat="48.22404" lon="7.11456">
        <ele>885.2</ele>
        <time>2022-02-12T14:29:36Z</time>
      </trkpt>
      <trkpt lat="48.22401" lon="7.11443">
        <ele>884.5</ele>
        <time>2022-02-12T14:29:44Z</time>
      </trkpt>
      <trkpt lat="48.22404" lon="7.1143">
        <ele>883.9</ele>
        <time>2022-02-12T14:29:51Z</time>
      </trkpt>
      <trkpt lat="48.22408" lon="7.11418">
        <ele>883.3</ele>
        <time>2022-02-12T14:30:02Z</time>
      </trkpt>
      <trkpt lat="48.22409" lon="7.11403">
        <ele>882.5</ele>
        <time>2022-02-12T14:30:11Z</time>
      </trkpt>
      <trkpt lat="48.22413" lon="7.11391">
        <ele>881.8</ele>
        <time>2022-02-12T14:30:17Z</time>
      </trkpt>
      <trkpt lat="48.22408" lon="7.11378">
        <ele>881</ele>
        <time>2022-02-12T14:30:25Z</time>
      </trkpt>
      <trkpt lat="48.22409" lon="7.11364">
        <ele>880.3</ele>
        <time>2022-02-12T14:30:32Z</time>
      </trkpt>
      <trkpt lat="48.2241" lon="7.1135">
        <ele>879.5</ele>
        <time>2022-02-12T14:30:40Z</time>
      </trkpt>
      <trkpt lat="48.22422" lon="7.11348">
        <ele>878.6</ele>
        <time>2022-02-12T14:30:48Z</time>
      </trkpt>
      <trkpt lat="48.22428" lon="7.11337">
        <ele>877.9</ele>
        <time>2022-02-12T14:30:56Z</time>
      </trkpt>
      <trkpt lat="48.22427" lon="7.11323">
        <ele>877.2</ele>
        <time>2022-02-12T14:31:03Z</time>
      </trkpt>
      <trkpt lat="48.22426" lon="7.1131">
        <ele>876.6</ele>
        <time>2022-02-12T14:31:11Z</time>
      </trkpt>
      <trkpt lat="48.22426" lon="7.11309">
        <ele>876.6</ele>
        <time>2022-02-12T14:31:12Z</time>
      </trkpt>
      <trkpt lat="48.22427" lon="7.11294">
        <ele>876.1</ele>
        <time>2022-02-12T14:31:25Z</time>
      </trkpt>
      <trkpt lat="48.22435" lon="7.11284">
        <ele>875.7</ele>
        <time>2022-02-12T14:31:32Z</time>
      </trkpt>
      <trkpt lat="48.22439" lon="7.11279">
        <ele>875.4</ele>
        <time>2022-02-12T14:31:37Z</time>
      </trkpt>
      <trkpt lat="48.22437" lon="7.11278">
        <ele>875.4</ele>
        <time>2022-02-12T14:31:38Z</time>
      </trkpt>
      <trkpt lat="48.22437" lon="7.11292">
        <ele>874.9</ele>
        <time>2022-02-12T14:32:10Z</time>
      </trkpt>
      <trkpt lat="48.22435" lon="7.11306">
        <ele>874.4</ele>
        <time>2022-02-12T14:32:25Z</time>
      </trkpt>
      <trkpt lat="48.22443" lon="7.11313">
        <ele>874</ele>
        <time>2022-02-12T14:32:32Z</time>
      </trkpt>
      <trkpt lat="48.22448" lon="7.11325">
        <ele>873.7</ele>
        <time>2022-02-12T14:32:40Z</time>
      </trkpt>
      <trkpt lat="48.22453" lon="7.11338">
        <ele>873.6</ele>
        <time>2022-02-12T14:32:50Z</time>
      </trkpt>
      <trkpt lat="48.22459" lon="7.11349">
        <ele>873.4</ele>
        <time>2022-02-12T14:33:07Z</time>
      </trkpt>
      <trkpt lat="48.22467" lon="7.11342">
        <ele>872.2</ele>
        <time>2022-02-12T14:33:14Z</time>
      </trkpt>
      <trkpt lat="48.2247" lon="7.1133">
        <ele>871.1</ele>
        <time>2022-02-12T14:33:25Z</time>
      </trkpt>
      <trkpt lat="48.22466" lon="7.11318">
        <ele>870</ele>
        <time>2022-02-12T14:33:32Z</time>
      </trkpt>
      <trkpt lat="48.22462" lon="7.11302">
        <ele>868.7</ele>
        <time>2022-02-12T14:33:39Z</time>
      </trkpt>
      <trkpt lat="48.2247" lon="7.11295">
        <ele>867.6</ele>
        <time>2022-02-12T14:33:48Z</time>
      </trkpt>
      <trkpt lat="48.22479" lon="7.11295">
        <ele>866.6</ele>
        <time>2022-02-12T14:33:53Z</time>
      </trkpt>
      <trkpt lat="48.22489" lon="7.11291">
        <ele>865.3</ele>
        <time>2022-02-12T14:34:00Z</time>
      </trkpt>
      <trkpt lat="48.22493" lon="7.11275">
        <ele>864</ele>
        <time>2022-02-12T14:34:15Z</time>
      </trkpt>
      <trkpt lat="48.22497" lon="7.11261">
        <ele>862.8</ele>
        <time>2022-02-12T14:34:21Z</time>
      </trkpt>
      <trkpt lat="48.22491" lon="7.11249">
        <ele>861.6</ele>
        <time>2022-02-12T14:34:34Z</time>
      </trkpt>
      <trkpt lat="48.225" lon="7.11242">
        <ele>860.4</ele>
        <time>2022-02-12T14:34:44Z</time>
      </trkpt>
      <trkpt lat="48.22506" lon="7.11239">
        <ele>859.8</ele>
        <time>2022-02-12T14:34:48Z</time>
      </trkpt>
      <trkpt lat="48.22504" lon="7.11238">
        <ele>859.5</ele>
        <time>2022-02-12T14:34:49Z</time>
      </trkpt>
      <trkpt lat="48.22517" lon="7.11237">
        <ele>858</ele>
        <time>2022-02-12T14:34:54Z</time>
      </trkpt>
      <trkpt lat="48.22522" lon="7.11223">
        <ele>856.8</ele>
        <time>2022-02-12T14:35:03Z</time>
      </trkpt>
      <trkpt lat="48.22531" lon="7.11222">
        <ele>855.7</ele>
        <time>2022-02-12T14:35:05Z</time>
      </trkpt>
      <trkpt lat="48.22541" lon="7.11217">
        <ele>854.5</ele>
        <time>2022-02-12T14:35:11Z</time>
      </trkpt>
      <trkpt lat="48.22554" lon="7.11214">
        <ele>852.8</ele>
        <time>2022-02-12T14:35:15Z</time>
      </trkpt>
      <trkpt lat="48.22562" lon="7.11204">
        <ele>851.6</ele>
        <time>2022-02-12T14:35:25Z</time>
      </trkpt>
      <trkpt lat="48.22573" lon="7.11208">
        <ele>850.3</ele>
        <time>2022-02-12T14:35:33Z</time>
      </trkpt>
      <trkpt lat="48.22584" lon="7.11211">
        <ele>849</ele>
        <time>2022-02-12T14:35:37Z</time>
      </trkpt>
      <trkpt lat="48.22592" lon="7.11203">
        <ele>847.7</ele>
        <time>2022-02-12T14:35:43Z</time>
      </trkpt>
      <trkpt lat="48.22578" lon="7.11199">
        <ele>846</ele>
        <time>2022-02-12T14:35:45Z</time>
      </trkpt>
      <trkpt lat="48.22593" lon="7.11201">
        <ele>844.2</ele>
        <time>2022-02-12T14:35:53Z</time>
      </trkpt>
      <trkpt lat="48.22596" lon="7.11189">
        <ele>843.1</ele>
        <time>2022-02-12T14:36:00Z</time>
      </trkpt>
      <trkpt lat="48.22605" lon="7.11183">
        <ele>841.9</ele>
        <time>2022-02-12T14:36:09Z</time>
      </trkpt>
      <trkpt lat="48.22611" lon="7.1117">
        <ele>840.8</ele>
        <time>2022-02-12T14:36:18Z</time>
      </trkpt>
      <trkpt lat="48.22618" lon="7.11162">
        <ele>839.7</ele>
        <time>2022-02-12T14:36:25Z</time>
      </trkpt>
      <trkpt lat="48.22609" lon="7.11153">
        <ele>838.4</ele>
        <time>2022-02-12T14:36:28Z</time>
      </trkpt>
      <trkpt lat="48.22605" lon="7.11136">
        <ele>836.9</ele>
        <time>2022-02-12T14:36:37Z</time>
      </trkpt>
      <trkpt lat="48.22616" lon="7.11129">
        <ele>835.6</ele>
        <time>2022-02-12T14:36:42Z</time>
      </trkpt>
      <trkpt lat="48.22625" lon="7.11128">
        <ele>834.5</ele>
        <time>2022-02-12T14:36:49Z</time>
      </trkpt>
      <trkpt lat="48.22636" lon="7.11125">
        <ele>833.2</ele>
        <time>2022-02-12T14:36:55Z</time>
      </trkpt>
      <trkpt lat="48.22645" lon="7.11121">
        <ele>832.1</ele>
        <time>2022-02-12T14:37:02Z</time>
      </trkpt>
      <trkpt lat="48.22651" lon="7.11111">
        <ele>831</ele>
        <time>2022-02-12T14:37:15Z</time>
      </trkpt>
      <trkpt lat="48.22655" lon="7.11103">
        <ele>830.2</ele>
        <time>2022-02-12T14:37:29Z</time>
      </trkpt>
      <trkpt lat="48.22656" lon="7.11105">
        <ele>830</ele>
        <time>2022-02-12T14:37:30Z</time>
      </trkpt>
      <trkpt lat="48.22655" lon="7.1109">
        <ele>828.9</ele>
        <time>2022-02-12T14:37:43Z</time>
      </trkpt>
      <trkpt lat="48.22662" lon="7.1108">
        <ele>827.7</ele>
        <time>2022-02-12T14:37:53Z</time>
      </trkpt>
      <trkpt lat="48.2267" lon="7.11073">
        <ele>826.6</ele>
        <time>2022-02-12T14:38:02Z</time>
      </trkpt>
      <trkpt lat="48.22679" lon="7.11068">
        <ele>825.4</ele>
        <time>2022-02-12T14:38:09Z</time>
      </trkpt>
      <trkpt lat="48.22689" lon="7.11063">
        <ele>824.2</ele>
        <time>2022-02-12T14:38:18Z</time>
      </trkpt>
      <trkpt lat="48.22699" lon="7.11058">
        <ele>823</ele>
        <time>2022-02-12T14:38:28Z</time>
      </trkpt>
      <trkpt lat="48.22708" lon="7.11056">
        <ele>821.8</ele>
        <time>2022-02-12T14:38:36Z</time>
      </trkpt>
      <trkpt lat="48.22718" lon="7.11052">
        <ele>820.7</ele>
        <time>2022-02-12T14:38:43Z</time>
      </trkpt>
      <trkpt lat="48.22727" lon="7.11046">
        <ele>819.5</ele>
        <time>2022-02-12T14:38:56Z</time>
      </trkpt>
      <trkpt lat="48.22736" lon="7.11043">
        <ele>818.4</ele>
        <time>2022-02-12T14:39:06Z</time>
      </trkpt>
      <trkpt lat="48.22745" lon="7.11043">
        <ele>817.3</ele>
        <time>2022-02-12T14:39:20Z</time>
      </trkpt>
      <trkpt lat="48.22754" lon="7.11044">
        <ele>816.2</ele>
        <time>2022-02-12T14:39:27Z</time>
      </trkpt>
      <trkpt lat="48.22763" lon="7.1104">
        <ele>815.1</ele>
        <time>2022-02-12T14:39:34Z</time>
      </trkpt>
      <trkpt lat="48.22773" lon="7.11037">
        <ele>813.8</ele>
        <time>2022-02-12T14:39:38Z</time>
      </trkpt>
      <trkpt lat="48.22775" lon="7.11037">
        <ele>813.6</ele>
        <time>2022-02-12T14:39:47Z</time>
      </trkpt>
      <trkpt lat="48.22776" lon="7.11037">
        <ele>813.5</ele>
        <time>2022-02-12T14:39:48Z</time>
      </trkpt>
      <trkpt lat="48.22785" lon="7.11035">
        <ele>812.4</ele>
        <time>2022-02-12T14:39:56Z</time>
      </trkpt>
      <trkpt lat="48.22793" lon="7.11026">
        <ele>811.2</ele>
        <time>2022-02-12T14:40:02Z</time>
      </trkpt>
      <trkpt lat="48.22803" lon="7.11023">
        <ele>810</ele>
        <time>2022-02-12T14:40:07Z</time>
      </trkpt>
      <trkpt lat="48.22813" lon="7.11016">
        <ele>808.7</ele>
        <time>2022-02-12T14:40:23Z</time>
      </trkpt>
      <trkpt lat="48.22822" lon="7.11012">
        <ele>807.6</ele>
        <time>2022-02-12T14:40:36Z</time>
      </trkpt>
      <trkpt lat="48.2283" lon="7.11006">
        <ele>806.5</ele>
        <time>2022-02-12T14:40:40Z</time>
      </trkpt>
      <trkpt lat="48.22842" lon="7.11">
        <ele>804.9</ele>
        <time>2022-02-12T14:40:44Z</time>
      </trkpt>
      <trkpt lat="48.22851" lon="7.10997">
        <ele>803.9</ele>
        <time>2022-02-12T14:40:47Z</time>
      </trkpt>
      <trkpt lat="48.22849" lon="7.10983">
        <ele>802.7</ele>
        <time>2022-02-12T14:40:57Z</time>
      </trkpt>
      <trkpt lat="48.22859" lon="7.10985">
        <ele>801.4</ele>
        <time>2022-02-12T14:41:07Z</time>
      </trkpt>
      <trkpt lat="48.2287" lon="7.10984">
        <ele>800.2</ele>
        <time>2022-02-12T14:41:15Z</time>
      </trkpt>
      <trkpt lat="48.22878" lon="7.10977">
        <ele>799.1</ele>
        <time>2022-02-12T14:41:21Z</time>
      </trkpt>
      <trkpt lat="48.22884" lon="7.10967">
        <ele>798</ele>
        <time>2022-02-12T14:41:26Z</time>
      </trkpt>
      <trkpt lat="48.22893" lon="7.10961">
        <ele>796.9</ele>
        <time>2022-02-12T14:41:31Z</time>
      </trkpt>
      <trkpt lat="48.22901" lon="7.10954">
        <ele>795.8</ele>
        <time>2022-02-12T14:41:37Z</time>
      </trkpt>
      <trkpt lat="48.22902" lon="7.10941">
        <ele>794.7</ele>
        <time>2022-02-12T14:41:46Z</time>
      </trkpt>
      <trkpt lat="48.2291" lon="7.10933">
        <ele>793.6</ele>
        <time>2022-02-12T14:41:54Z</time>
      </trkpt>
      <trkpt lat="48.22917" lon="7.10922">
        <ele>792.3</ele>
        <time>2022-02-12T14:42:01Z</time>
      </trkpt>
      <trkpt lat="48.22926" lon="7.10914">
        <ele>791.1</ele>
        <time>2022-02-12T14:42:15Z</time>
      </trkpt>
      <trkpt lat="48.22933" lon="7.10905">
        <ele>790</ele>
        <time>2022-02-12T14:42:25Z</time>
      </trkpt>
      <trkpt lat="48.22934" lon="7.10891">
        <ele>788.9</ele>
        <time>2022-02-12T14:42:37Z</time>
      </trkpt>
      <trkpt lat="48.22944" lon="7.10889">
        <ele>787.8</ele>
        <time>2022-02-12T14:42:43Z</time>
      </trkpt>
      <trkpt lat="48.22951" lon="7.10881">
        <ele>786.7</ele>
        <time>2022-02-12T14:42:50Z</time>
      </trkpt>
      <trkpt lat="48.22961" lon="7.10872">
        <ele>785.3</ele>
        <time>2022-02-12T14:43:06Z</time>
      </trkpt>
      <trkpt lat="48.22972" lon="7.10872">
        <ele>784</ele>
        <time>2022-02-12T14:43:17Z</time>
      </trkpt>
      <trkpt lat="48.22982" lon="7.10874">
        <ele>782.8</ele>
        <time>2022-02-12T14:43:20Z</time>
      </trkpt>
      <trkpt lat="48.22991" lon="7.1087">
        <ele>781.7</ele>
        <time>2022-02-12T14:43:23Z</time>
      </trkpt>
      <trkpt lat="48.23001" lon="7.10867">
        <ele>781.3</ele>
        <time>2022-02-12T14:43:29Z</time>
      </trkpt>
      <trkpt lat="48.2301" lon="7.10869">
        <ele>780.9</ele>
        <time>2022-02-12T14:43:32Z</time>
      </trkpt>
      <trkpt lat="48.2302" lon="7.10871">
        <ele>780.3</ele>
        <time>2022-02-12T14:43:36Z</time>
      </trkpt>
      <trkpt lat="48.2303" lon="7.10874">
        <ele>779.9</ele>
        <time>2022-02-12T14:43:44Z</time>
      </trkpt>
      <trkpt lat="48.23032" lon="7.1086">
        <ele>779.9</ele>
        <time>2022-02-12T14:43:56Z</time>
      </trkpt>
      <trkpt lat="48.23026" lon="7.1085">
        <ele>780.1</ele>
        <time>2022-02-12T14:44:04Z</time>
      </trkpt>
      <trkpt lat="48.23023" lon="7.10876">
        <ele>780.4</ele>
        <time>2022-02-12T14:44:40Z</time>
      </trkpt>
      <trkpt lat="48.23013" lon="7.10875">
        <ele>780.6</ele>
        <time>2022-02-12T14:44:43Z</time>
      </trkpt>
      <trkpt lat="48.23004" lon="7.10872">
        <ele>780.5</ele>
        <time>2022-02-12T14:44:49Z</time>
      </trkpt>
      <trkpt lat="48.23001" lon="7.10853">
        <ele>780.3</ele>
        <time>2022-02-12T14:45:05Z</time>
      </trkpt>
      <trkpt lat="48.2301" lon="7.10848">
        <ele>780.1</ele>
        <time>2022-02-12T14:53:13Z</time>
      </trkpt>
      <trkpt lat="48.23009" lon="7.10848">
        <ele>780.1</ele>
        <time>2022-02-12T14:53:14Z</time>
      </trkpt>
      <trkpt lat="48.2302" lon="7.10845">
        <ele>779.7</ele>
        <time>2022-02-12T14:53:23Z</time>
      </trkpt>
      <trkpt lat="48.23033" lon="7.1084">
        <ele>779.3</ele>
        <time>2022-02-12T14:53:25Z</time>
      </trkpt>
      <trkpt lat="48.23044" lon="7.10831">
        <ele>779.1</ele>
        <time>2022-02-12T14:55:51Z</time>
      </trkpt>
      <trkpt lat="48.23037" lon="7.10833">
        <ele>779.2</ele>
        <time>2022-02-12T14:57:18Z</time>
      </trkpt>
      <trkpt lat="48.2303" lon="7.10835">
        <ele>779.3</ele>
        <time>2022-02-12T14:57:46Z</time>
      </trkpt>
      <trkpt lat="48.23023" lon="7.10837">
        <ele>779.3</ele>
        <time>2022-02-12T14:57:47Z</time>
      </trkpt>
      <trkpt lat="48.23036" lon="7.10837">
        <ele>779.4</ele>
        <time>2022-02-12T14:57:53Z</time>
      </trkpt>
      <trkpt lat="48.23045" lon="7.10841">
        <ele>779.4</ele>
        <time>2022-02-12T14:57:57Z</time>
      </trkpt>
      <trkpt lat="48.23032" lon="7.10846">
        <ele>779.5</ele>
        <time>2022-02-12T14:58:09Z</time>
      </trkpt>
      <trkpt lat="48.23018" lon="7.10849">
        <ele>780</ele>
        <time>2022-02-12T14:58:31Z</time>
      </trkpt>
      <trkpt lat="48.23006" lon="7.10843">
        <ele>780</ele>
        <time>2022-02-12T14:58:36Z</time>
      </trkpt>
      <trkpt lat="48.22996" lon="7.10835">
        <ele>780</ele>
        <time>2022-02-12T14:58:39Z</time>
      </trkpt>
      <trkpt lat="48.23006" lon="7.10834">
        <ele>780</ele>
        <time>2022-02-12T14:58:44Z</time>
      </trkpt>
      <trkpt lat="48.23015" lon="7.10836">
        <ele>780</ele>
        <time>2022-02-12T14:58:47Z</time>
      </trkpt>
      <trkpt lat="48.23015" lon="7.10853">
        <ele>780</ele>
        <time>2022-02-12T14:59:46Z</time>
      </trkpt>
      <trkpt lat="48.23024" lon="7.10852">
        <ele>780</ele>
        <time>2022-02-12T14:59:49Z</time>
      </trkpt>
      <trkpt lat="48.23016" lon="7.10846">
        <ele>780</ele>
        <time>2022-02-12T14:59:52Z</time>
      </trkpt>
      <trkpt lat="48.23006" lon="7.10846">
        <ele>780.2</ele>
        <time>2022-02-12T14:59:55Z</time>
      </trkpt>
      <trkpt lat="48.23019" lon="7.10846">
        <ele>779.8</ele>
        <time>2022-02-12T15:00:33Z</time>
      </trkpt>
      <trkpt lat="48.23028" lon="7.1085">
        <ele>779.9</ele>
        <time>2022-02-12T15:00:40Z</time>
      </trkpt>
      <trkpt lat="48.23038" lon="7.10856">
        <ele>779.5</ele>
        <time>2022-02-12T15:00:44Z</time>
      </trkpt>
      <trkpt lat="48.23048" lon="7.10858">
        <ele>779.2</ele>
        <time>2022-02-12T15:00:46Z</time>
      </trkpt>
      <trkpt lat="48.23057" lon="7.10861">
        <ele>778.7</ele>
        <time>2022-02-12T15:00:48Z</time>
      </trkpt>
      <trkpt lat="48.23066" lon="7.10863">
        <ele>778.2</ele>
        <time>2022-02-12T15:00:50Z</time>
      </trkpt>
      <trkpt lat="48.22881" lon="7.10798">
        <ele>787.3</ele>
        <time>2022-02-12T15:05:20Z</time>
      </trkpt>
      <trkpt lat="48.22908" lon="7.10819">
        <ele>785.3</ele>
        <time>2022-02-12T15:05:51Z</time>
      </trkpt>
      <trkpt lat="48.22919" lon="7.10822">
        <ele>785.1</ele>
        <time>2022-02-12T15:05:53Z</time>
      </trkpt>
      <trkpt lat="48.23001" lon="7.10841">
        <ele>781.5</ele>
        <time>2022-02-12T15:06:11Z</time>
      </trkpt>
      <trkpt lat="48.23013" lon="7.10831">
        <ele>781.3</ele>
        <time>2022-02-12T15:06:19Z</time>
      </trkpt>
      <trkpt lat="48.23016" lon="7.10844">
        <ele>781.2</ele>
        <time>2022-02-12T15:06:52Z</time>
      </trkpt>
      <trkpt lat="48.23009" lon="7.10865">
        <ele>781</ele>
        <time>2022-02-12T15:07:26Z</time>
      </trkpt>
      <trkpt lat="48.2302" lon="7.1086">
        <ele>780.3</ele>
        <time>2022-02-12T15:07:30Z</time>
      </trkpt>
      <trkpt lat="48.23011" lon="7.10858">
        <ele>780.5</ele>
        <time>2022-02-12T15:07:50Z</time>
      </trkpt>
      <trkpt lat="48.23001" lon="7.10858">
        <ele>780.8</ele>
        <time>2022-02-12T15:08:09Z</time>
      </trkpt>
      <trkpt lat="48.23024" lon="7.10848">
        <ele>780.1</ele>
        <time>2022-02-12T15:08:49Z</time>
      </trkpt>
      <trkpt lat="48.23014" lon="7.10851">
        <ele>780</ele>
        <time>2022-02-12T15:08:54Z</time>
      </trkpt>
      <trkpt lat="48.22996" lon="7.10852">
        <ele>780</ele>
        <time>2022-02-12T15:09:17Z</time>
      </trkpt>
      <trkpt lat="48.23002" lon="7.10853">
        <ele>780</ele>
        <time>2022-02-12T15:09:26Z</time>
      </trkpt>
      <trkpt lat="48.23009" lon="7.10854">
        <ele>780</ele>
        <time>2022-02-12T15:09:42Z</time>
      </trkpt>
      <trkpt lat="48.23015" lon="7.10855">
        <ele>779.9</ele>
        <time>2022-02-12T15:09:54Z</time>
      </trkpt>
      <trkpt lat="48.23022" lon="7.10856">
        <ele>779.9</ele>
        <time>2022-02-12T15:09:57Z</time>
      </trkpt>
      <trkpt lat="48.23028" lon="7.10857">
        <ele>779.9</ele>
        <time>2022-02-12T15:09:57Z</time>
      </trkpt>
      <trkpt lat="48.22983" lon="7.10885">
        <ele>783</ele>
        <time>2022-02-13T07:10:38Z</time>
      </trkpt>
      <trkpt lat="48.22979" lon="7.10872">
        <ele>784.2</ele>
        <time>2022-02-13T07:10:41Z</time>
      </trkpt>
      <trkpt lat="48.2297" lon="7.1088">
        <ele>785.7</ele>
        <time>2022-02-13T07:10:50Z</time>
      </trkpt>
      <trkpt lat="48.2296" lon="7.1088">
        <ele>787</ele>
        <time>2022-02-13T07:11:02Z</time>
      </trkpt>
      <trkpt lat="48.2295" lon="7.10884">
        <ele>788.3</ele>
        <time>2022-02-13T07:11:14Z</time>
      </trkpt>
      <trkpt lat="48.2294" lon="7.10886">
        <ele>789.7</ele>
        <time>2022-02-13T07:11:19Z</time>
      </trkpt>
      <trkpt lat="48.22933" lon="7.10896">
        <ele>791</ele>
        <time>2022-02-13T07:11:28Z</time>
      </trkpt>
      <trkpt lat="48.22924" lon="7.10899">
        <ele>792.2</ele>
        <time>2022-02-13T07:11:37Z</time>
      </trkpt>
      <trkpt lat="48.22916" lon="7.10905">
        <ele>793.4</ele>
        <time>2022-02-13T07:11:46Z</time>
      </trkpt>
      <trkpt lat="48.22907" lon="7.10912">
        <ele>794.8</ele>
        <time>2022-02-13T07:12:00Z</time>
      </trkpt>
      <trkpt lat="48.22898" lon="7.1092">
        <ele>796.2</ele>
        <time>2022-02-13T07:12:11Z</time>
      </trkpt>
      <trkpt lat="48.22891" lon="7.10928">
        <ele>797.4</ele>
        <time>2022-02-13T07:12:24Z</time>
      </trkpt>
      <trkpt lat="48.22884" lon="7.10938">
        <ele>798.7</ele>
        <time>2022-02-13T07:12:35Z</time>
      </trkpt>
      <trkpt lat="48.22878" lon="7.1095">
        <ele>800</ele>
        <time>2022-02-13T07:12:45Z</time>
      </trkpt>
      <trkpt lat="48.22871" lon="7.1096">
        <ele>801.2</ele>
        <time>2022-02-13T07:12:57Z</time>
      </trkpt>
      <trkpt lat="48.22864" lon="7.10971">
        <ele>802.6</ele>
        <time>2022-02-13T07:13:07Z</time>
      </trkpt>
      <trkpt lat="48.22855" lon="7.10977">
        <ele>803.9</ele>
        <time>2022-02-13T07:13:21Z</time>
      </trkpt>
      <trkpt lat="48.22846" lon="7.10983">
        <ele>805.2</ele>
        <time>2022-02-13T07:13:29Z</time>
      </trkpt>
      <trkpt lat="48.22836" lon="7.10984">
        <ele>806.5</ele>
        <time>2022-02-13T07:13:36Z</time>
      </trkpt>
      <trkpt lat="48.22827" lon="7.10982">
        <ele>807.7</ele>
        <time>2022-02-13T07:13:44Z</time>
      </trkpt>
      <trkpt lat="48.2282" lon="7.10991">
        <ele>809</ele>
        <time>2022-02-13T07:13:54Z</time>
      </trkpt>
      <trkpt lat="48.22812" lon="7.10997">
        <ele>810.3</ele>
        <time>2022-02-13T07:14:01Z</time>
      </trkpt>
      <trkpt lat="48.22803" lon="7.11">
        <ele>811.5</ele>
        <time>2022-02-13T07:14:07Z</time>
      </trkpt>
      <trkpt lat="48.22795" lon="7.11006">
        <ele>812.7</ele>
        <time>2022-02-13T07:14:16Z</time>
      </trkpt>
      <trkpt lat="48.22786" lon="7.11013">
        <ele>814</ele>
        <time>2022-02-13T07:14:24Z</time>
      </trkpt>
      <trkpt lat="48.22778" lon="7.11018">
        <ele>815.2</ele>
        <time>2022-02-13T07:14:34Z</time>
      </trkpt>
      <trkpt lat="48.22768" lon="7.11018">
        <ele>816.4</ele>
        <time>2022-02-13T07:14:41Z</time>
      </trkpt>
      <trkpt lat="48.22758" lon="7.11018">
        <ele>817.7</ele>
        <time>2022-02-13T07:14:48Z</time>
      </trkpt>
      <trkpt lat="48.22749" lon="7.1102">
        <ele>819</ele>
        <time>2022-02-13T07:14:55Z</time>
      </trkpt>
      <trkpt lat="48.2274" lon="7.1102">
        <ele>820.2</ele>
        <time>2022-02-13T07:15:04Z</time>
      </trkpt>
      <trkpt lat="48.2273" lon="7.11025">
        <ele>821.5</ele>
        <time>2022-02-13T07:15:12Z</time>
      </trkpt>
      <trkpt lat="48.22721" lon="7.11031">
        <ele>822.9</ele>
        <time>2022-02-13T07:15:22Z</time>
      </trkpt>
      <trkpt lat="48.22711" lon="7.11034">
        <ele>824.3</ele>
        <time>2022-02-13T07:15:30Z</time>
      </trkpt>
      <trkpt lat="48.22702" lon="7.11038">
        <ele>825.5</ele>
        <time>2022-02-13T07:15:37Z</time>
      </trkpt>
      <trkpt lat="48.22692" lon="7.1104">
        <ele>826.8</ele>
        <time>2022-02-13T07:15:45Z</time>
      </trkpt>
      <trkpt lat="48.22683" lon="7.11042">
        <ele>828</ele>
        <time>2022-02-13T07:15:56Z</time>
      </trkpt>
      <trkpt lat="48.22676" lon="7.11051">
        <ele>829.3</ele>
        <time>2022-02-13T07:16:06Z</time>
      </trkpt>
      <trkpt lat="48.22668" lon="7.11058">
        <ele>830.6</ele>
        <time>2022-02-13T07:16:15Z</time>
      </trkpt>
      <trkpt lat="48.22659" lon="7.11065">
        <ele>831.8</ele>
        <time>2022-02-13T07:16:27Z</time>
      </trkpt>
      <trkpt lat="48.22651" lon="7.11072">
        <ele>833</ele>
        <time>2022-02-13T07:16:35Z</time>
      </trkpt>
      <trkpt lat="48.22642" lon="7.11078">
        <ele>834.4</ele>
        <time>2022-02-13T07:16:43Z</time>
      </trkpt>
      <trkpt lat="48.22635" lon="7.11088">
        <ele>835.7</ele>
        <time>2022-02-13T07:16:51Z</time>
      </trkpt>
      <trkpt lat="48.22627" lon="7.11096">
        <ele>836.9</ele>
        <time>2022-02-13T07:17:01Z</time>
      </trkpt>
      <trkpt lat="48.2262" lon="7.11105">
        <ele>838.1</ele>
        <time>2022-02-13T07:17:12Z</time>
      </trkpt>
      <trkpt lat="48.22614" lon="7.11115">
        <ele>839.4</ele>
        <time>2022-02-13T07:17:21Z</time>
      </trkpt>
      <trkpt lat="48.22608" lon="7.11127">
        <ele>840.7</ele>
        <time>2022-02-13T07:17:31Z</time>
      </trkpt>
      <trkpt lat="48.226" lon="7.11136">
        <ele>842</ele>
        <time>2022-02-13T07:17:37Z</time>
      </trkpt>
      <trkpt lat="48.22592" lon="7.11144">
        <ele>843.3</ele>
        <time>2022-02-13T07:17:45Z</time>
      </trkpt>
      <trkpt lat="48.22588" lon="7.11157">
        <ele>844.5</ele>
        <time>2022-02-13T07:18:03Z</time>
      </trkpt>
      <trkpt lat="48.22579" lon="7.11159">
        <ele>845.8</ele>
        <time>2022-02-13T07:18:13Z</time>
      </trkpt>
      <trkpt lat="48.2257" lon="7.11164">
        <ele>847.1</ele>
        <time>2022-02-13T07:18:24Z</time>
      </trkpt>
      <trkpt lat="48.22561" lon="7.1117">
        <ele>848.4</ele>
        <time>2022-02-13T07:18:36Z</time>
      </trkpt>
      <trkpt lat="48.22553" lon="7.11178">
        <ele>849.6</ele>
        <time>2022-02-13T07:18:42Z</time>
      </trkpt>
      <trkpt lat="48.22547" lon="7.11188">
        <ele>850.9</ele>
        <time>2022-02-13T07:18:52Z</time>
      </trkpt>
      <trkpt lat="48.22536" lon="7.11192">
        <ele>852.3</ele>
        <time>2022-02-13T07:19:01Z</time>
      </trkpt>
      <trkpt lat="48.22529" lon="7.112">
        <ele>853.5</ele>
        <time>2022-02-13T07:19:06Z</time>
      </trkpt>
      <trkpt lat="48.22522" lon="7.11209">
        <ele>854.7</ele>
        <time>2022-02-13T07:19:13Z</time>
      </trkpt>
      <trkpt lat="48.22514" lon="7.11215">
        <ele>856</ele>
        <time>2022-02-13T07:19:21Z</time>
      </trkpt>
      <trkpt lat="48.22506" lon="7.11222">
        <ele>857.2</ele>
        <time>2022-02-13T07:19:31Z</time>
      </trkpt>
      <trkpt lat="48.22499" lon="7.11232">
        <ele>858.5</ele>
        <time>2022-02-13T07:19:45Z</time>
      </trkpt>
      <trkpt lat="48.22491" lon="7.11239">
        <ele>859.7</ele>
        <time>2022-02-13T07:19:54Z</time>
      </trkpt>
      <trkpt lat="48.22485" lon="7.11249">
        <ele>860.9</ele>
        <time>2022-02-13T07:20:05Z</time>
      </trkpt>
      <trkpt lat="48.22478" lon="7.11259">
        <ele>862.2</ele>
        <time>2022-02-13T07:20:17Z</time>
      </trkpt>
      <trkpt lat="48.22471" lon="7.11269">
        <ele>863.5</ele>
        <time>2022-02-13T07:20:29Z</time>
      </trkpt>
      <trkpt lat="48.22463" lon="7.11275">
        <ele>864.7</ele>
        <time>2022-02-13T07:20:42Z</time>
      </trkpt>
      <trkpt lat="48.2246" lon="7.11289">
        <ele>865.9</ele>
        <time>2022-02-13T07:20:53Z</time>
      </trkpt>
      <trkpt lat="48.22461" lon="7.11303">
        <ele>867.2</ele>
        <time>2022-02-13T07:21:07Z</time>
      </trkpt>
      <trkpt lat="48.22458" lon="7.11317">
        <ele>868.5</ele>
        <time>2022-02-13T07:21:16Z</time>
      </trkpt>
      <trkpt lat="48.22458" lon="7.11331">
        <ele>869.8</ele>
        <time>2022-02-13T07:21:25Z</time>
      </trkpt>
      <trkpt lat="48.22459" lon="7.11345">
        <ele>871</ele>
        <time>2022-02-13T07:21:33Z</time>
      </trkpt>
      <trkpt lat="48.22464" lon="7.11354">
        <ele>872</ele>
        <time>2022-02-13T07:21:44Z</time>
      </trkpt>
      <trkpt lat="48.22465" lon="7.11354">
        <ele>872.1</ele>
        <time>2022-02-13T07:21:45Z</time>
      </trkpt>
      <trkpt lat="48.22465" lon="7.11357">
        <ele>872.3</ele>
        <time>2022-02-13T07:21:49Z</time>
      </trkpt>
      <trkpt lat="48.22465" lon="7.11357">
        <ele>872.4</ele>
        <time>2022-02-13T07:21:50Z</time>
      </trkpt>
      <trkpt lat="48.22465" lon="7.11357">
        <ele>872.4</ele>
        <time>2022-02-13T07:21:53Z</time>
      </trkpt>
      <trkpt lat="48.22465" lon="7.11357">
        <ele>872.5</ele>
        <time>2022-02-13T07:21:56Z</time>
      </trkpt>
      <trkpt lat="48.22466" lon="7.11357">
        <ele>872.5</ele>
        <time>2022-02-13T07:21:58Z</time>
      </trkpt>
      <trkpt lat="48.22467" lon="7.11357">
        <ele>872.7</ele>
        <time>2022-02-13T07:22:02Z</time>
      </trkpt>
      <trkpt lat="48.22469" lon="7.11359">
        <ele>873</ele>
        <time>2022-02-13T07:22:11Z</time>
      </trkpt>
      <trkpt lat="48.22468" lon="7.11359">
        <ele>873</ele>
        <time>2022-02-13T07:22:13Z</time>
      </trkpt>
      <trkpt lat="48.22467" lon="7.1136">
        <ele>873.2</ele>
        <time>2022-02-13T07:22:17Z</time>
      </trkpt>
      <trkpt lat="48.22467" lon="7.11359">
        <ele>873.3</ele>
        <time>2022-02-13T07:22:18Z</time>
      </trkpt>
      <trkpt lat="48.22459" lon="7.11349">
        <ele>873.4</ele>
        <time>2022-02-13T07:22:31Z</time>
      </trkpt>
      <trkpt lat="48.22453" lon="7.11337">
        <ele>873.6</ele>
        <time>2022-02-13T07:22:39Z</time>
      </trkpt>
      <trkpt lat="48.2245" lon="7.11325">
        <ele>873.7</ele>
        <time>2022-02-13T07:22:51Z</time>
      </trkpt>
      <trkpt lat="48.22446" lon="7.11311">
        <ele>873.8</ele>
        <time>2022-02-13T07:22:59Z</time>
      </trkpt>
      <trkpt lat="48.22443" lon="7.11298">
        <ele>874.3</ele>
        <time>2022-02-13T07:23:09Z</time>
      </trkpt>
      <trkpt lat="48.22443" lon="7.11283">
        <ele>874.8</ele>
        <time>2022-02-13T07:23:17Z</time>
      </trkpt>
      <trkpt lat="48.22436" lon="7.11272">
        <ele>875.3</ele>
        <time>2022-02-13T07:23:25Z</time>
      </trkpt>
      <trkpt lat="48.22426" lon="7.11271">
        <ele>875.8</ele>
        <time>2022-02-13T07:23:35Z</time>
      </trkpt>
      <trkpt lat="48.22422" lon="7.11283">
        <ele>876.2</ele>
        <time>2022-02-13T07:23:44Z</time>
      </trkpt>
      <trkpt lat="48.22421" lon="7.11297">
        <ele>876.6</ele>
        <time>2022-02-13T07:23:51Z</time>
      </trkpt>
      <trkpt lat="48.22418" lon="7.11311">
        <ele>877.2</ele>
        <time>2022-02-13T07:24:02Z</time>
      </trkpt>
      <trkpt lat="48.22414" lon="7.11325">
        <ele>878</ele>
        <time>2022-02-13T07:24:13Z</time>
      </trkpt>
      <trkpt lat="48.22411" lon="7.11338">
        <ele>878.7</ele>
        <time>2022-02-13T07:24:23Z</time>
      </trkpt>
      <trkpt lat="48.22407" lon="7.11351">
        <ele>879.5</ele>
        <time>2022-02-13T07:24:32Z</time>
      </trkpt>
      <trkpt lat="48.22403" lon="7.11364">
        <ele>880.3</ele>
        <time>2022-02-13T07:24:45Z</time>
      </trkpt>
      <trkpt lat="48.22401" lon="7.11379">
        <ele>881.1</ele>
        <time>2022-02-13T07:24:53Z</time>
      </trkpt>
      <trkpt lat="48.22399" lon="7.11393">
        <ele>881.9</ele>
        <time>2022-02-13T07:25:03Z</time>
      </trkpt>
      <trkpt lat="48.22396" lon="7.11406">
        <ele>882.7</ele>
        <time>2022-02-13T07:25:10Z</time>
      </trkpt>
      <trkpt lat="48.22393" lon="7.11419">
        <ele>883.3</ele>
        <time>2022-02-13T07:25:19Z</time>
      </trkpt>
      <trkpt lat="48.22393" lon="7.11421">
        <ele>883.4</ele>
        <time>2022-02-13T07:25:22Z</time>
      </trkpt>
      <trkpt lat="48.22393" lon="7.11421">
        <ele>883.4</ele>
        <time>2022-02-13T07:25:23Z</time>
      </trkpt>
      <trkpt lat="48.22389" lon="7.11434">
        <ele>884</ele>
        <time>2022-02-13T07:25:32Z</time>
      </trkpt>
      <trkpt lat="48.22387" lon="7.11447">
        <ele>884.7</ele>
        <time>2022-02-13T07:25:42Z</time>
      </trkpt>
      <trkpt lat="48.22383" lon="7.1146">
        <ele>885.4</ele>
        <time>2022-02-13T07:25:53Z</time>
      </trkpt>
      <trkpt lat="48.2238" lon="7.11474">
        <ele>886</ele>
        <time>2022-02-13T07:26:00Z</time>
      </trkpt>
      <trkpt lat="48.22379" lon="7.11488">
        <ele>886.5</ele>
        <time>2022-02-13T07:26:06Z</time>
      </trkpt>
      <trkpt lat="48.22378" lon="7.11502">
        <ele>887</ele>
        <time>2022-02-13T07:26:12Z</time>
      </trkpt>
      <trkpt lat="48.22376" lon="7.11515">
        <ele>887.5</ele>
        <time>2022-02-13T07:26:20Z</time>
      </trkpt>
      <trkpt lat="48.22373" lon="7.11529">
        <ele>888</ele>
        <time>2022-02-13T07:26:27Z</time>
      </trkpt>
      <trkpt lat="48.22373" lon="7.11543">
        <ele>888.5</ele>
        <time>2022-02-13T07:26:34Z</time>
      </trkpt>
      <trkpt lat="48.22371" lon="7.11556">
        <ele>888.9</ele>
        <time>2022-02-13T07:26:42Z</time>
      </trkpt>
      <trkpt lat="48.22372" lon="7.1157">
        <ele>889.4</ele>
        <time>2022-02-13T07:26:48Z</time>
      </trkpt>
      <trkpt lat="48.22372" lon="7.11584">
        <ele>889.9</ele>
        <time>2022-02-13T07:26:55Z</time>
      </trkpt>
      <trkpt lat="48.22374" lon="7.11597">
        <ele>890.3</ele>
        <time>2022-02-13T07:27:00Z</time>
      </trkpt>
      <trkpt lat="48.22379" lon="7.11612">
        <ele>890.8</ele>
        <time>2022-02-13T07:27:06Z</time>
      </trkpt>
      <trkpt lat="48.22382" lon="7.11626">
        <ele>891.1</ele>
        <time>2022-02-13T07:27:12Z</time>
      </trkpt>
      <trkpt lat="48.22387" lon="7.11638">
        <ele>891.3</ele>
        <time>2022-02-13T07:27:19Z</time>
      </trkpt>
      <trkpt lat="48.22386" lon="7.11652">
        <ele>891.6</ele>
        <time>2022-02-13T07:27:32Z</time>
      </trkpt>
      <trkpt lat="48.22386" lon="7.11655">
        <ele>891.7</ele>
        <time>2022-02-13T07:27:40Z</time>
      </trkpt>
      <trkpt lat="48.22386" lon="7.11655">
        <ele>891.7</ele>
        <time>2022-02-13T07:27:41Z</time>
      </trkpt>
      <trkpt lat="48.22388" lon="7.11657">
        <ele>891.7</ele>
        <time>2022-02-13T07:27:44Z</time>
      </trkpt>
      <trkpt lat="48.22388" lon="7.11657">
        <ele>891.7</ele>
        <time>2022-02-13T07:27:45Z</time>
      </trkpt>
      <trkpt lat="48.22388" lon="7.11657">
        <ele>891.7</ele>
        <time>2022-02-13T07:27:47Z</time>
      </trkpt>
      <trkpt lat="48.22388" lon="7.11658">
        <ele>891.7</ele>
        <time>2022-02-13T07:27:48Z</time>
      </trkpt>
      <trkpt lat="48.22386" lon="7.11658">
        <ele>891.8</ele>
        <time>2022-02-13T07:27:53Z</time>
      </trkpt>
      <trkpt lat="48.22387" lon="7.11657">
        <ele>891.8</ele>
        <time>2022-02-13T07:27:55Z</time>
      </trkpt>
      <trkpt lat="48.22384" lon="7.1166">
        <ele>891.9</ele>
        <time>2022-02-13T07:28:05Z</time>
      </trkpt>
      <trkpt lat="48.22384" lon="7.11659">
        <ele>891.9</ele>
        <time>2022-02-13T07:28:11Z</time>
      </trkpt>
      <trkpt lat="48.22383" lon="7.11658">
        <ele>891.9</ele>
        <time>2022-02-13T07:28:16Z</time>
      </trkpt>
      <trkpt lat="48.22383" lon="7.11658">
        <ele>891.9</ele>
        <time>2022-02-13T07:28:20Z</time>
      </trkpt>
      <trkpt lat="48.22387" lon="7.11669">
        <ele>892</ele>
        <time>2022-02-13T07:28:33Z</time>
      </trkpt>
      <trkpt lat="48.22387" lon="7.11669">
        <ele>892</ele>
        <time>2022-02-13T07:28:34Z</time>
      </trkpt>
      <trkpt lat="48.22391" lon="7.11668">
        <ele>892.1</ele>
        <time>2022-02-13T07:28:46Z</time>
      </trkpt>
      <trkpt lat="48.22391" lon="7.11668">
        <ele>892.1</ele>
        <time>2022-02-13T07:28:48Z</time>
      </trkpt>
      <trkpt lat="48.22391" lon="7.11668">
        <ele>892.1</ele>
        <time>2022-02-13T07:28:49Z</time>
      </trkpt>
      <trkpt lat="48.22391" lon="7.11668">
        <ele>892.1</ele>
        <time>2022-02-13T07:28:51Z</time>
      </trkpt>
      <trkpt lat="48.22392" lon="7.11668">
        <ele>892.1</ele>
        <time>2022-02-13T07:28:53Z</time>
      </trkpt>
      <trkpt lat="48.22391" lon="7.11666">
        <ele>892.1</ele>
        <time>2022-02-13T07:28:57Z</time>
      </trkpt>
      <trkpt lat="48.22391" lon="7.11666">
        <ele>892.1</ele>
        <time>2022-02-13T07:28:58Z</time>
      </trkpt>
      <trkpt lat="48.22391" lon="7.11666">
        <ele>892.1</ele>
        <time>2022-02-13T07:29:03Z</time>
      </trkpt>
      <trkpt lat="48.22391" lon="7.11666">
        <ele>892.1</ele>
        <time>2022-02-13T07:29:04Z</time>
      </trkpt>
      <trkpt lat="48.22391" lon="7.11665">
        <ele>892.1</ele>
        <time>2022-02-13T07:29:05Z</time>
      </trkpt>
      <trkpt lat="48.22391" lon="7.11665">
        <ele>892.1</ele>
        <time>2022-02-13T07:29:08Z</time>
      </trkpt>
      <trkpt lat="48.2239" lon="7.11664">
        <ele>892.1</ele>
        <time>2022-02-13T07:29:09Z</time>
      </trkpt>
      <trkpt lat="48.22389" lon="7.11661">
        <ele>892.1</ele>
        <time>2022-02-13T07:29:17Z</time>
      </trkpt>
      <trkpt lat="48.22388" lon="7.11659">
        <ele>892.1</ele>
        <time>2022-02-13T07:29:19Z</time>
      </trkpt>
      <trkpt lat="48.22388" lon="7.11659">
        <ele>892.1</ele>
        <time>2022-02-13T07:29:20Z</time>
      </trkpt>
      <trkpt lat="48.22388" lon="7.11659">
        <ele>892.1</ele>
        <time>2022-02-13T07:29:30Z</time>
      </trkpt>
      <trkpt lat="48.22387" lon="7.1166">
        <ele>892.2</ele>
        <time>2022-02-13T07:29:36Z</time>
      </trkpt>
      <trkpt lat="48.22387" lon="7.1166">
        <ele>892.2</ele>
        <time>2022-02-13T07:29:38Z</time>
      </trkpt>
      <trkpt lat="48.22386" lon="7.11659">
        <ele>892.2</ele>
        <time>2022-02-13T07:29:41Z</time>
      </trkpt>
      <trkpt lat="48.22386" lon="7.11659">
        <ele>892.2</ele>
        <time>2022-02-13T07:29:42Z</time>
      </trkpt>
      <trkpt lat="48.22385" lon="7.11668">
        <ele>892.2</ele>
        <time>2022-02-13T07:30:01Z</time>
      </trkpt>
      <trkpt lat="48.22385" lon="7.11669">
        <ele>892.2</ele>
        <time>2022-02-13T07:30:02Z</time>
      </trkpt>
      <trkpt lat="48.22388" lon="7.1168">
        <ele>892.3</ele>
        <time>2022-02-13T07:30:11Z</time>
      </trkpt>
      <trkpt lat="48.22388" lon="7.1168">
        <ele>892.3</ele>
        <time>2022-02-13T07:30:12Z</time>
      </trkpt>
      <trkpt lat="48.22387" lon="7.11681">
        <ele>892.3</ele>
        <time>2022-02-13T07:30:18Z</time>
      </trkpt>
      <trkpt lat="48.22387" lon="7.11682">
        <ele>892.3</ele>
        <time>2022-02-13T07:30:19Z</time>
      </trkpt>
      <trkpt lat="48.22386" lon="7.11696">
        <ele>892.3</ele>
        <time>2022-02-13T07:30:31Z</time>
      </trkpt>
      <trkpt lat="48.22389" lon="7.11709">
        <ele>892.3</ele>
        <time>2022-02-13T07:30:41Z</time>
      </trkpt>
      <trkpt lat="48.22393" lon="7.11721">
        <ele>892.3</ele>
        <time>2022-02-13T07:30:44Z</time>
      </trkpt>
      <trkpt lat="48.22396" lon="7.11734">
        <ele>893.2</ele>
        <time>2022-02-13T07:30:55Z</time>
      </trkpt>
      <trkpt lat="48.22395" lon="7.11735">
        <ele>893.2</ele>
        <time>2022-02-13T07:30:58Z</time>
      </trkpt>
      <trkpt lat="48.22395" lon="7.11734">
        <ele>893.2</ele>
        <time>2022-02-13T07:30:59Z</time>
      </trkpt>
      <trkpt lat="48.22397" lon="7.1174">
        <ele>893.2</ele>
        <time>2022-02-13T07:31:07Z</time>
      </trkpt>
      <trkpt lat="48.22398" lon="7.11741">
        <ele>893.2</ele>
        <time>2022-02-13T07:31:08Z</time>
      </trkpt>
      <trkpt lat="48.22396" lon="7.11754">
        <ele>894.9</ele>
        <time>2022-02-13T07:31:25Z</time>
      </trkpt>
      <trkpt lat="48.22393" lon="7.11768">
        <ele>897.3</ele>
        <time>2022-02-13T07:31:37Z</time>
      </trkpt>
      <trkpt lat="48.22396" lon="7.11782">
        <ele>899.8</ele>
        <time>2022-02-13T07:31:48Z</time>
      </trkpt>
      <trkpt lat="48.22394" lon="7.11796">
        <ele>901.8</ele>
        <time>2022-02-13T07:32:07Z</time>
      </trkpt>
      <trkpt lat="48.22392" lon="7.1181">
        <ele>901.8</ele>
        <time>2022-02-13T07:32:23Z</time>
      </trkpt>
      <trkpt lat="48.22391" lon="7.11823">
        <ele>903.5</ele>
        <time>2022-02-13T07:32:40Z</time>
      </trkpt>
      <trkpt lat="48.2239" lon="7.11836">
        <ele>904.8</ele>
        <time>2022-02-13T07:32:56Z</time>
      </trkpt>
      <trkpt lat="48.2239" lon="7.11836">
        <ele>904.8</ele>
        <time>2022-02-13T07:32:57Z</time>
      </trkpt>
      <trkpt lat="48.2239" lon="7.11837">
        <ele>904.8</ele>
        <time>2022-02-13T07:32:58Z</time>
      </trkpt>
      <trkpt lat="48.22392" lon="7.11851">
        <ele>906.3</ele>
        <time>2022-02-13T07:33:10Z</time>
      </trkpt>
      <trkpt lat="48.22389" lon="7.11864">
        <ele>908.7</ele>
        <time>2022-02-13T07:33:24Z</time>
      </trkpt>
      <trkpt lat="48.22385" lon="7.11871">
        <ele>909.9</ele>
        <time>2022-02-13T07:33:39Z</time>
      </trkpt>
      <trkpt lat="48.22385" lon="7.11871">
        <ele>909.9</ele>
        <time>2022-02-13T07:33:40Z</time>
      </trkpt>
      <trkpt lat="48.22388" lon="7.11885">
        <ele>910.7</ele>
        <time>2022-02-13T07:33:52Z</time>
      </trkpt>
      <trkpt lat="48.22386" lon="7.11898">
        <ele>914.4</ele>
        <time>2022-02-13T07:34:13Z</time>
      </trkpt>
      <trkpt lat="48.22386" lon="7.119">
        <ele>914.4</ele>
        <time>2022-02-13T07:34:16Z</time>
      </trkpt>
      <trkpt lat="48.22386" lon="7.119">
        <ele>914.4</ele>
        <time>2022-02-13T07:34:17Z</time>
      </trkpt>
      <trkpt lat="48.22387" lon="7.11904">
        <ele>914.4</ele>
        <time>2022-02-13T07:34:27Z</time>
      </trkpt>
      <trkpt lat="48.22387" lon="7.11904">
        <ele>914.4</ele>
        <time>2022-02-13T07:34:28Z</time>
      </trkpt>
      <trkpt lat="48.22392" lon="7.11916">
        <ele>915.2</ele>
        <time>2022-02-13T07:34:46Z</time>
      </trkpt>
      <trkpt lat="48.22391" lon="7.1193">
        <ele>915.2</ele>
        <time>2022-02-13T07:34:56Z</time>
      </trkpt>
      <trkpt lat="48.22388" lon="7.11944">
        <ele>917.3</ele>
        <time>2022-02-13T07:35:08Z</time>
      </trkpt>
      <trkpt lat="48.22387" lon="7.11949">
        <ele>920.4</ele>
        <time>2022-02-13T07:35:21Z</time>
      </trkpt>
      <trkpt lat="48.22387" lon="7.11949">
        <ele>920.4</ele>
        <time>2022-02-13T07:35:22Z</time>
      </trkpt>
      <trkpt lat="48.22388" lon="7.11952">
        <ele>919.4</ele>
        <time>2022-02-13T07:35:26Z</time>
      </trkpt>
      <trkpt lat="48.22387" lon="7.11952">
        <ele>920.4</ele>
        <time>2022-02-13T07:35:37Z</time>
      </trkpt>
      <trkpt lat="48.22388" lon="7.11963">
        <ele>919.4</ele>
        <time>2022-02-13T07:35:50Z</time>
      </trkpt>
      <trkpt lat="48.22388" lon="7.11963">
        <ele>919.4</ele>
        <time>2022-02-13T07:35:51Z</time>
      </trkpt>
      <trkpt lat="48.22388" lon="7.11977">
        <ele>921.2</ele>
        <time>2022-02-13T07:36:04Z</time>
      </trkpt>
      <trkpt lat="48.22388" lon="7.1199">
        <ele>923</ele>
        <time>2022-02-13T07:36:22Z</time>
      </trkpt>
      <trkpt lat="48.22387" lon="7.11991">
        <ele>923.9</ele>
        <time>2022-02-13T07:36:24Z</time>
      </trkpt>
      <trkpt lat="48.22387" lon="7.11993">
        <ele>923.9</ele>
        <time>2022-02-13T07:36:28Z</time>
      </trkpt>
      <trkpt lat="48.22387" lon="7.11993">
        <ele>923.9</ele>
        <time>2022-02-13T07:36:29Z</time>
      </trkpt>
      <trkpt lat="48.22386" lon="7.11993">
        <ele>923.9</ele>
        <time>2022-02-13T07:36:32Z</time>
      </trkpt>
      <trkpt lat="48.22387" lon="7.11994">
        <ele>923.9</ele>
        <time>2022-02-13T07:36:33Z</time>
      </trkpt>
      <trkpt lat="48.22387" lon="7.12007">
        <ele>925.9</ele>
        <time>2022-02-13T07:36:48Z</time>
      </trkpt>
      <trkpt lat="48.22392" lon="7.12022">
        <ele>927.8</ele>
        <time>2022-02-13T07:37:08Z</time>
      </trkpt>
      <trkpt lat="48.22395" lon="7.12035">
        <ele>930.9</ele>
        <time>2022-02-13T07:37:21Z</time>
      </trkpt>
      <trkpt lat="48.224" lon="7.12046">
        <ele>930.3</ele>
        <time>2022-02-13T07:37:42Z</time>
      </trkpt>
      <trkpt lat="48.224" lon="7.12046">
        <ele>930.3</ele>
        <time>2022-02-13T07:37:43Z</time>
      </trkpt>
      <trkpt lat="48.22394" lon="7.12057">
        <ele>934.1</ele>
        <time>2022-02-13T07:38:02Z</time>
      </trkpt>
      <trkpt lat="48.22387" lon="7.12065">
        <ele>934.5</ele>
        <time>2022-02-13T07:38:32Z</time>
      </trkpt>
      <trkpt lat="48.22387" lon="7.12065">
        <ele>934.6</ele>
        <time>2022-02-13T07:38:33Z</time>
      </trkpt>
      <trkpt lat="48.22387" lon="7.12066">
        <ele>934.6</ele>
        <time>2022-02-13T07:38:34Z</time>
      </trkpt>
      <trkpt lat="48.22388" lon="7.1207">
        <ele>937.1</ele>
        <time>2022-02-13T07:38:48Z</time>
      </trkpt>
      <trkpt lat="48.22388" lon="7.12069">
        <ele>937.1</ele>
        <time>2022-02-13T07:38:57Z</time>
      </trkpt>
      <trkpt lat="48.22388" lon="7.12069">
        <ele>937.1</ele>
        <time>2022-02-13T07:38:58Z</time>
      </trkpt>
      <trkpt lat="48.22389" lon="7.12071">
        <ele>937.1</ele>
        <time>2022-02-13T07:39:00Z</time>
      </trkpt>
      <trkpt lat="48.22388" lon="7.12085">
        <ele>937.1</ele>
        <time>2022-02-13T07:39:11Z</time>
      </trkpt>
      <trkpt lat="48.22383" lon="7.12097">
        <ele>940.7</ele>
        <time>2022-02-13T07:39:33Z</time>
      </trkpt>
      <trkpt lat="48.22384" lon="7.1211">
        <ele>943.8</ele>
        <time>2022-02-13T07:39:41Z</time>
      </trkpt>
      <trkpt lat="48.22382" lon="7.12113">
        <ele>943.8</ele>
        <time>2022-02-13T07:39:51Z</time>
      </trkpt>
      <trkpt lat="48.22382" lon="7.12113">
        <ele>943.8</ele>
        <time>2022-02-13T07:39:53Z</time>
      </trkpt>
      <trkpt lat="48.22382" lon="7.12113">
        <ele>943.8</ele>
        <time>2022-02-13T07:39:54Z</time>
      </trkpt>
      <trkpt lat="48.22382" lon="7.12112">
        <ele>943.8</ele>
        <time>2022-02-13T07:39:56Z</time>
      </trkpt>
      <trkpt lat="48.22382" lon="7.12112">
        <ele>943.8</ele>
        <time>2022-02-13T07:40:04Z</time>
      </trkpt>
      <trkpt lat="48.22382" lon="7.12113">
        <ele>943.8</ele>
        <time>2022-02-13T07:40:06Z</time>
      </trkpt>
      <trkpt lat="48.22383" lon="7.12127">
        <ele>946.8</ele>
        <time>2022-02-13T07:40:14Z</time>
      </trkpt>
      <trkpt lat="48.22383" lon="7.12139">
        <ele>949.9</ele>
        <time>2022-02-13T07:40:29Z</time>
      </trkpt>
      <trkpt lat="48.22383" lon="7.12139">
        <ele>949.9</ele>
        <time>2022-02-13T07:40:30Z</time>
      </trkpt>
      <trkpt lat="48.22385" lon="7.12152">
        <ele>950</ele>
        <time>2022-02-13T07:40:42Z</time>
      </trkpt>
      <trkpt lat="48.22386" lon="7.12155">
        <ele>953.3</ele>
        <time>2022-02-13T07:40:49Z</time>
      </trkpt>
      <trkpt lat="48.22386" lon="7.12156">
        <ele>953.3</ele>
        <time>2022-02-13T07:40:50Z</time>
      </trkpt>
      <trkpt lat="48.22386" lon="7.12158">
        <ele>953.3</ele>
        <time>2022-02-13T07:41:01Z</time>
      </trkpt>
      <trkpt lat="48.22386" lon="7.12158">
        <ele>953.3</ele>
        <time>2022-02-13T07:41:02Z</time>
      </trkpt>
      <trkpt lat="48.22386" lon="7.12158">
        <ele>953.3</ele>
        <time>2022-02-13T07:41:04Z</time>
      </trkpt>
      <trkpt lat="48.22386" lon="7.12158">
        <ele>953.3</ele>
        <time>2022-02-13T07:41:07Z</time>
      </trkpt>
      <trkpt lat="48.2239" lon="7.12171">
        <ele>952.9</ele>
        <time>2022-02-13T07:41:18Z</time>
      </trkpt>
      <trkpt lat="48.2239" lon="7.12172">
        <ele>956.7</ele>
        <time>2022-02-13T07:41:20Z</time>
      </trkpt>
      <trkpt lat="48.2239" lon="7.12172">
        <ele>956.7</ele>
        <time>2022-02-13T07:41:21Z</time>
      </trkpt>
      <trkpt lat="48.2239" lon="7.12174">
        <ele>956.7</ele>
        <time>2022-02-13T07:41:24Z</time>
      </trkpt>
      <trkpt lat="48.2239" lon="7.12174">
        <ele>956.7</ele>
        <time>2022-02-13T07:41:25Z</time>
      </trkpt>
      <trkpt lat="48.2239" lon="7.12174">
        <ele>956.8</ele>
        <time>2022-02-13T07:41:26Z</time>
      </trkpt>
      <trkpt lat="48.2239" lon="7.12175">
        <ele>956.8</ele>
        <time>2022-02-13T07:41:27Z</time>
      </trkpt>
      <trkpt lat="48.2239" lon="7.12175">
        <ele>956.8</ele>
        <time>2022-02-13T07:41:29Z</time>
      </trkpt>
      <trkpt lat="48.2239" lon="7.12175">
        <ele>956.8</ele>
        <time>2022-02-13T07:41:30Z</time>
      </trkpt>
      <trkpt lat="48.22389" lon="7.12177">
        <ele>956.8</ele>
        <time>2022-02-13T07:41:33Z</time>
      </trkpt>
      <trkpt lat="48.2239" lon="7.12178">
        <ele>956.8</ele>
        <time>2022-02-13T07:41:35Z</time>
      </trkpt>
      <trkpt lat="48.2239" lon="7.12179">
        <ele>956.8</ele>
        <time>2022-02-13T07:41:39Z</time>
      </trkpt>
      <trkpt lat="48.22391" lon="7.12178">
        <ele>956.8</ele>
        <time>2022-02-13T07:41:40Z</time>
      </trkpt>
      <trkpt lat="48.22391" lon="7.12179">
        <ele>956.8</ele>
        <time>2022-02-13T07:41:41Z</time>
      </trkpt>
      <trkpt lat="48.22391" lon="7.12179">
        <ele>956.8</ele>
        <time>2022-02-13T07:41:42Z</time>
      </trkpt>
      <trkpt lat="48.22391" lon="7.12178">
        <ele>956.8</ele>
        <time>2022-02-13T07:41:45Z</time>
      </trkpt>
      <trkpt lat="48.22391" lon="7.12178">
        <ele>956.8</ele>
        <time>2022-02-13T07:41:46Z</time>
      </trkpt>
      <trkpt lat="48.22391" lon="7.12178">
        <ele>956.8</ele>
        <time>2022-02-13T07:41:48Z</time>
      </trkpt>
      <trkpt lat="48.22391" lon="7.12177">
        <ele>956.8</ele>
        <time>2022-02-13T07:41:49Z</time>
      </trkpt>
      <trkpt lat="48.2239" lon="7.12191">
        <ele>960.5</ele>
        <time>2022-02-13T07:42:10Z</time>
      </trkpt>
      <trkpt lat="48.22389" lon="7.12206">
        <ele>960.5</ele>
        <time>2022-02-13T07:42:26Z</time>
      </trkpt>
      <trkpt lat="48.22389" lon="7.1222">
        <ele>963.9</ele>
        <time>2022-02-13T07:42:42Z</time>
      </trkpt>
      <trkpt lat="48.22388" lon="7.1223">
        <ele>967.6</ele>
        <time>2022-02-13T07:42:56Z</time>
      </trkpt>
      <trkpt lat="48.22387" lon="7.1223">
        <ele>967.6</ele>
        <time>2022-02-13T07:42:58Z</time>
      </trkpt>
      <trkpt lat="48.22387" lon="7.1223">
        <ele>967.6</ele>
        <time>2022-02-13T07:42:59Z</time>
      </trkpt>
      <trkpt lat="48.22388" lon="7.1223">
        <ele>967.6</ele>
        <time>2022-02-13T07:43:00Z</time>
      </trkpt>
      <trkpt lat="48.22388" lon="7.12244">
        <ele>970.3</ele>
        <time>2022-02-13T07:43:13Z</time>
      </trkpt>
      <trkpt lat="48.22388" lon="7.12245">
        <ele>970.3</ele>
        <time>2022-02-13T07:43:14Z</time>
      </trkpt>
      <trkpt lat="48.2239" lon="7.12258">
        <ele>972.4</ele>
        <time>2022-02-13T07:43:31Z</time>
      </trkpt>
      <trkpt lat="48.22392" lon="7.12267">
        <ele>972.4</ele>
        <time>2022-02-13T07:43:47Z</time>
      </trkpt>
      <trkpt lat="48.22392" lon="7.12268">
        <ele>972.4</ele>
        <time>2022-02-13T07:43:58Z</time>
      </trkpt>
      <trkpt lat="48.22389" lon="7.12281">
        <ele>974.2</ele>
        <time>2022-02-13T07:44:18Z</time>
      </trkpt>
      <trkpt lat="48.22391" lon="7.12295">
        <ele>975.9</ele>
        <time>2022-02-13T07:44:30Z</time>
      </trkpt>
      <trkpt lat="48.22392" lon="7.12299">
        <ele>975.9</ele>
        <time>2022-02-13T07:44:36Z</time>
      </trkpt>
      <trkpt lat="48.22392" lon="7.123">
        <ele>975.9</ele>
        <time>2022-02-13T07:44:37Z</time>
      </trkpt>
      <trkpt lat="48.22397" lon="7.12312">
        <ele>977.8</ele>
        <time>2022-02-13T07:44:50Z</time>
      </trkpt>
      <trkpt lat="48.22401" lon="7.12325">
        <ele>977.4</ele>
        <time>2022-02-13T07:44:57Z</time>
      </trkpt>
      <trkpt lat="48.22402" lon="7.12328">
        <ele>979.2</ele>
        <time>2022-02-13T07:45:01Z</time>
      </trkpt>
      <trkpt lat="48.22403" lon="7.12328">
        <ele>979.2</ele>
        <time>2022-02-13T07:45:02Z</time>
      </trkpt>
      <trkpt lat="48.22408" lon="7.12338">
        <ele>979.2</ele>
        <time>2022-02-13T07:45:14Z</time>
      </trkpt>
      <trkpt lat="48.22408" lon="7.12337">
        <ele>979.2</ele>
        <time>2022-02-13T07:45:15Z</time>
      </trkpt>
      <trkpt lat="48.22408" lon="7.12337">
        <ele>979.2</ele>
        <time>2022-02-13T07:45:16Z</time>
      </trkpt>
      <trkpt lat="48.22408" lon="7.12337">
        <ele>979.2</ele>
        <time>2022-02-13T07:45:17Z</time>
      </trkpt>
      <trkpt lat="48.22408" lon="7.12337">
        <ele>979.2</ele>
        <time>2022-02-13T07:45:18Z</time>
      </trkpt>
      <trkpt lat="48.22408" lon="7.12336">
        <ele>979.2</ele>
        <time>2022-02-13T07:45:29Z</time>
      </trkpt>
      <trkpt lat="48.2241" lon="7.12335">
        <ele>979.3</ele>
        <time>2022-02-13T07:45:38Z</time>
      </trkpt>
      <trkpt lat="48.2241" lon="7.12334">
        <ele>978.4</ele>
        <time>2022-02-13T07:45:39Z</time>
      </trkpt>
      <trkpt lat="48.22411" lon="7.12336">
        <ele>978.4</ele>
        <time>2022-02-13T07:45:46Z</time>
      </trkpt>
      <trkpt lat="48.22411" lon="7.12335">
        <ele>978.4</ele>
        <time>2022-02-13T07:45:47Z</time>
      </trkpt>
      <trkpt lat="48.22412" lon="7.12335">
        <ele>978.4</ele>
        <time>2022-02-13T07:45:52Z</time>
      </trkpt>
      <trkpt lat="48.22412" lon="7.12334">
        <ele>978.4</ele>
        <time>2022-02-13T07:45:57Z</time>
      </trkpt>
      <trkpt lat="48.22412" lon="7.12334">
        <ele>978.4</ele>
        <time>2022-02-13T07:45:59Z</time>
      </trkpt>
      <trkpt lat="48.22412" lon="7.12334">
        <ele>978.4</ele>
        <time>2022-02-13T07:46:01Z</time>
      </trkpt>
      <trkpt lat="48.22412" lon="7.12334">
        <ele>978.4</ele>
        <time>2022-02-13T07:46:03Z</time>
      </trkpt>
      <trkpt lat="48.22412" lon="7.12334">
        <ele>978.4</ele>
        <time>2022-02-13T07:46:09Z</time>
      </trkpt>
      <trkpt lat="48.22412" lon="7.12333">
        <ele>978.4</ele>
        <time>2022-02-13T07:46:11Z</time>
      </trkpt>
      <trkpt lat="48.22412" lon="7.12333">
        <ele>978.4</ele>
        <time>2022-02-13T07:46:20Z</time>
      </trkpt>
      <trkpt lat="48.22412" lon="7.12333">
        <ele>978.4</ele>
        <time>2022-02-13T07:46:21Z</time>
      </trkpt>
      <trkpt lat="48.22412" lon="7.12333">
        <ele>978.4</ele>
        <time>2022-02-13T07:46:31Z</time>
      </trkpt>
      <trkpt lat="48.22412" lon="7.12333">
        <ele>978.4</ele>
        <time>2022-02-13T07:46:32Z</time>
      </trkpt>
      <trkpt lat="48.22411" lon="7.12333">
        <ele>978.5</ele>
        <time>2022-02-13T07:46:52Z</time>
      </trkpt>
      <trkpt lat="48.22411" lon="7.12333">
        <ele>978.5</ele>
        <time>2022-02-13T07:46:53Z</time>
      </trkpt>
      <trkpt lat="48.22411" lon="7.12333">
        <ele>978.5</ele>
        <time>2022-02-13T07:46:59Z</time>
      </trkpt>
      <trkpt lat="48.22411" lon="7.12333">
        <ele>978.5</ele>
        <time>2022-02-13T07:47:00Z</time>
      </trkpt>
      <trkpt lat="48.22411" lon="7.12332">
        <ele>978.5</ele>
        <time>2022-02-13T07:47:04Z</time>
      </trkpt>
      <trkpt lat="48.22411" lon="7.12332">
        <ele>978.5</ele>
        <time>2022-02-13T07:47:05Z</time>
      </trkpt>
      <trkpt lat="48.22411" lon="7.12332">
        <ele>978.5</ele>
        <time>2022-02-13T07:47:09Z</time>
      </trkpt>
      <trkpt lat="48.22411" lon="7.12332">
        <ele>978.5</ele>
        <time>2022-02-13T07:47:10Z</time>
      </trkpt>
      <trkpt lat="48.22411" lon="7.12332">
        <ele>978.5</ele>
        <time>2022-02-13T07:47:11Z</time>
      </trkpt>
      <trkpt lat="48.22411" lon="7.12332">
        <ele>978.5</ele>
        <time>2022-02-13T07:47:12Z</time>
      </trkpt>
      <trkpt lat="48.22411" lon="7.12333">
        <ele>978.5</ele>
        <time>2022-02-13T07:47:14Z</time>
      </trkpt>
      <trkpt lat="48.22411" lon="7.12333">
        <ele>978.5</ele>
        <time>2022-02-13T07:47:15Z</time>
      </trkpt>
      <trkpt lat="48.2241" lon="7.12333">
        <ele>978.5</ele>
        <time>2022-02-13T07:47:17Z</time>
      </trkpt>
      <trkpt lat="48.2241" lon="7.12333">
        <ele>978.5</ele>
        <time>2022-02-13T07:47:18Z</time>
      </trkpt>
      <trkpt lat="48.2241" lon="7.12333">
        <ele>978.5</ele>
        <time>2022-02-13T07:47:28Z</time>
      </trkpt>
      <trkpt lat="48.2241" lon="7.12333">
        <ele>978.5</ele>
        <time>2022-02-13T07:47:29Z</time>
      </trkpt>
      <trkpt lat="48.2241" lon="7.12333">
        <ele>979.4</ele>
        <time>2022-02-13T07:47:30Z</time>
      </trkpt>
      <trkpt lat="48.2241" lon="7.12333">
        <ele>979.4</ele>
        <time>2022-02-13T07:47:32Z</time>
      </trkpt>
      <trkpt lat="48.2241" lon="7.12333">
        <ele>978.5</ele>
        <time>2022-02-13T07:48:10Z</time>
      </trkpt>
      <trkpt lat="48.2241" lon="7.12333">
        <ele>978.5</ele>
        <time>2022-02-13T07:48:11Z</time>
      </trkpt>
      <trkpt lat="48.2241" lon="7.12333">
        <ele>978.5</ele>
        <time>2022-02-13T07:48:29Z</time>
      </trkpt>
      <trkpt lat="48.2241" lon="7.12333">
        <ele>978.5</ele>
        <time>2022-02-13T07:48:30Z</time>
      </trkpt>
      <trkpt lat="48.22411" lon="7.12333">
        <ele>978.5</ele>
        <time>2022-02-13T07:49:15Z</time>
      </trkpt>
      <trkpt lat="48.22412" lon="7.12334">
        <ele>978.6</ele>
        <time>2022-02-13T07:49:19Z</time>
      </trkpt>
      <trkpt lat="48.22412" lon="7.12334">
        <ele>978.6</ele>
        <time>2022-02-13T07:49:21Z</time>
      </trkpt>
      <trkpt lat="48.22412" lon="7.12334">
        <ele>978.6</ele>
        <time>2022-02-13T07:49:22Z</time>
      </trkpt>
      <trkpt lat="48.22412" lon="7.12334">
        <ele>978.6</ele>
        <time>2022-02-13T07:49:32Z</time>
      </trkpt>
      <trkpt lat="48.22414" lon="7.12348">
        <ele>979.9</ele>
        <time>2022-02-13T07:49:50Z</time>
      </trkpt>
      <trkpt lat="48.22417" lon="7.12362">
        <ele>981.1</ele>
        <time>2022-02-13T07:49:59Z</time>
      </trkpt>
      <trkpt lat="48.2242" lon="7.12376">
        <ele>981.1</ele>
        <time>2022-02-13T07:50:07Z</time>
      </trkpt>
      <trkpt lat="48.22422" lon="7.1239">
        <ele>981.2</ele>
        <time>2022-02-13T07:50:15Z</time>
      </trkpt>
      <trkpt lat="48.22427" lon="7.12402">
        <ele>982.9</ele>
        <time>2022-02-13T07:50:23Z</time>
      </trkpt>
      <trkpt lat="48.22431" lon="7.12414">
        <ele>985.1</ele>
        <time>2022-02-13T07:50:32Z</time>
      </trkpt>
      <trkpt lat="48.22435" lon="7.12427">
        <ele>984.1</ele>
        <time>2022-02-13T07:50:42Z</time>
      </trkpt>
      <trkpt lat="48.22436" lon="7.12441">
        <ele>985.7</ele>
        <time>2022-02-13T07:50:49Z</time>
      </trkpt>
      <trkpt lat="48.22437" lon="7.12455">
        <ele>987</ele>
        <time>2022-02-13T07:50:57Z</time>
      </trkpt>
      <trkpt lat="48.22443" lon="7.12465">
        <ele>988.5</ele>
        <time>2022-02-13T07:51:03Z</time>
      </trkpt>
      <trkpt lat="48.22447" lon="7.12478">
        <ele>987.5</ele>
        <time>2022-02-13T07:51:11Z</time>
      </trkpt>
      <trkpt lat="48.22449" lon="7.12492">
        <ele>989.5</ele>
        <time>2022-02-13T07:51:20Z</time>
      </trkpt>
      <trkpt lat="48.2245" lon="7.12505">
        <ele>991.2</ele>
        <time>2022-02-13T07:51:28Z</time>
      </trkpt>
      <trkpt lat="48.22453" lon="7.12519">
        <ele>992.7</ele>
        <time>2022-02-13T07:51:36Z</time>
      </trkpt>
      <trkpt lat="48.22457" lon="7.12531">
        <ele>991.9</ele>
        <time>2022-02-13T07:51:45Z</time>
      </trkpt>
      <trkpt lat="48.22463" lon="7.12541">
        <ele>992.8</ele>
        <time>2022-02-13T07:51:53Z</time>
      </trkpt>
      <trkpt lat="48.22467" lon="7.12554">
        <ele>992.8</ele>
        <time>2022-02-13T07:52:00Z</time>
      </trkpt>
      <trkpt lat="48.22469" lon="7.12567">
        <ele>992.2</ele>
        <time>2022-02-13T07:52:09Z</time>
      </trkpt>
      <trkpt lat="48.2247" lon="7.12581">
        <ele>992.2</ele>
        <time>2022-02-13T07:52:17Z</time>
      </trkpt>
      <trkpt lat="48.22474" lon="7.12594">
        <ele>993.2</ele>
        <time>2022-02-13T07:52:25Z</time>
      </trkpt>
      <trkpt lat="48.22479" lon="7.12605">
        <ele>992.2</ele>
        <time>2022-02-13T07:52:32Z</time>
      </trkpt>
      <trkpt lat="48.2248" lon="7.1262">
        <ele>992.8</ele>
        <time>2022-02-13T07:52:40Z</time>
      </trkpt>
      <trkpt lat="48.22485" lon="7.12631">
        <ele>992.8</ele>
        <time>2022-02-13T07:52:46Z</time>
      </trkpt>
      <trkpt lat="48.2249" lon="7.12642">
        <ele>992.3</ele>
        <time>2022-02-13T07:52:53Z</time>
      </trkpt>
      <trkpt lat="48.2249" lon="7.12645">
        <ele>992.3</ele>
        <time>2022-02-13T07:52:58Z</time>
      </trkpt>
      <trkpt lat="48.2249" lon="7.12644">
        <ele>992.3</ele>
        <time>2022-02-13T07:52:59Z</time>
      </trkpt>
      <trkpt lat="48.22488" lon="7.12644">
        <ele>992.4</ele>
        <time>2022-02-13T07:53:18Z</time>
      </trkpt>
      <trkpt lat="48.22488" lon="7.12644">
        <ele>992.4</ele>
        <time>2022-02-13T07:53:22Z</time>
      </trkpt>
      <trkpt lat="48.22489" lon="7.12644">
        <ele>992.4</ele>
        <time>2022-02-13T07:53:29Z</time>
      </trkpt>
      <trkpt lat="48.22488" lon="7.12645">
        <ele>992.4</ele>
        <time>2022-02-13T07:53:31Z</time>
      </trkpt>
      <trkpt lat="48.22488" lon="7.12645">
        <ele>992.4</ele>
        <time>2022-02-13T07:53:32Z</time>
      </trkpt>
      <trkpt lat="48.22488" lon="7.12645">
        <ele>992.4</ele>
        <time>2022-02-13T07:53:33Z</time>
      </trkpt>
      <trkpt lat="48.22488" lon="7.12645">
        <ele>992.4</ele>
        <time>2022-02-13T07:53:34Z</time>
      </trkpt>
      <trkpt lat="48.22488" lon="7.12645">
        <ele>992.4</ele>
        <time>2022-02-13T07:53:35Z</time>
      </trkpt>
      <trkpt lat="48.22489" lon="7.12645">
        <ele>992.4</ele>
        <time>2022-02-13T07:53:38Z</time>
      </trkpt>
      <trkpt lat="48.22488" lon="7.12645">
        <ele>992.4</ele>
        <time>2022-02-13T07:53:42Z</time>
      </trkpt>
      <trkpt lat="48.22488" lon="7.12644">
        <ele>992.4</ele>
        <time>2022-02-13T07:53:45Z</time>
      </trkpt>
      <trkpt lat="48.22488" lon="7.12644">
        <ele>992.4</ele>
        <time>2022-02-13T07:53:46Z</time>
      </trkpt>
      <trkpt lat="48.22488" lon="7.12644">
        <ele>992.4</ele>
        <time>2022-02-13T07:53:49Z</time>
      </trkpt>
      <trkpt lat="48.22488" lon="7.12644">
        <ele>992.4</ele>
        <time>2022-02-13T07:53:53Z</time>
      </trkpt>
      <trkpt lat="48.22488" lon="7.12644">
        <ele>992.4</ele>
        <time>2022-02-13T07:53:54Z</time>
      </trkpt>
      <trkpt lat="48.22488" lon="7.12644">
        <ele>992.4</ele>
        <time>2022-02-13T07:53:58Z</time>
      </trkpt>
      <trkpt lat="48.22491" lon="7.12646">
        <ele>992.4</ele>
        <time>2022-02-13T07:54:12Z</time>
      </trkpt>
      <trkpt lat="48.22491" lon="7.12646">
        <ele>992.4</ele>
        <time>2022-02-13T07:54:14Z</time>
      </trkpt>
      <trkpt lat="48.22491" lon="7.12646">
        <ele>992.4</ele>
        <time>2022-02-13T07:54:15Z</time>
      </trkpt>
      <trkpt lat="48.22491" lon="7.12647">
        <ele>992.4</ele>
        <time>2022-02-13T07:54:25Z</time>
      </trkpt>
      <trkpt lat="48.22492" lon="7.12648">
        <ele>992.4</ele>
        <time>2022-02-13T07:54:27Z</time>
      </trkpt>
      <trkpt lat="48.22491" lon="7.12648">
        <ele>992.4</ele>
        <time>2022-02-13T07:54:33Z</time>
      </trkpt>
      <trkpt lat="48.22491" lon="7.12648">
        <ele>992.4</ele>
        <time>2022-02-13T07:54:35Z</time>
      </trkpt>
      <trkpt lat="48.22492" lon="7.12649">
        <ele>992.4</ele>
        <time>2022-02-13T07:54:44Z</time>
      </trkpt>
      <trkpt lat="48.22494" lon="7.12648">
        <ele>992.4</ele>
        <time>2022-02-13T07:54:55Z</time>
      </trkpt>
      <trkpt lat="48.22494" lon="7.12648">
        <ele>992.4</ele>
        <time>2022-02-13T07:54:56Z</time>
      </trkpt>
      <trkpt lat="48.22493" lon="7.12648">
        <ele>992.4</ele>
        <time>2022-02-13T07:54:58Z</time>
      </trkpt>
      <trkpt lat="48.22493" lon="7.12648">
        <ele>992.4</ele>
        <time>2022-02-13T07:55:00Z</time>
      </trkpt>
      <trkpt lat="48.22492" lon="7.12649">
        <ele>992.4</ele>
        <time>2022-02-13T07:55:04Z</time>
      </trkpt>
      <trkpt lat="48.22493" lon="7.12649">
        <ele>992.4</ele>
        <time>2022-02-13T07:55:05Z</time>
      </trkpt>
      <trkpt lat="48.22493" lon="7.12648">
        <ele>992.4</ele>
        <time>2022-02-13T07:55:08Z</time>
      </trkpt>
      <trkpt lat="48.22493" lon="7.12648">
        <ele>992.4</ele>
        <time>2022-02-13T07:55:15Z</time>
      </trkpt>
      <trkpt lat="48.22493" lon="7.12648">
        <ele>992.4</ele>
        <time>2022-02-13T07:55:16Z</time>
      </trkpt>
      <trkpt lat="48.22493" lon="7.12648">
        <ele>992.4</ele>
        <time>2022-02-13T07:55:19Z</time>
      </trkpt>
      <trkpt lat="48.22493" lon="7.12648">
        <ele>992.4</ele>
        <time>2022-02-13T07:55:21Z</time>
      </trkpt>
      <trkpt lat="48.22493" lon="7.12648">
        <ele>992.4</ele>
        <time>2022-02-13T07:55:31Z</time>
      </trkpt>
      <trkpt lat="48.22492" lon="7.12649">
        <ele>992.4</ele>
        <time>2022-02-13T07:55:33Z</time>
      </trkpt>
      <trkpt lat="48.22492" lon="7.12649">
        <ele>992.4</ele>
        <time>2022-02-13T07:56:01Z</time>
      </trkpt>
      <trkpt lat="48.22492" lon="7.12649">
        <ele>992.4</ele>
        <time>2022-02-13T07:56:03Z</time>
      </trkpt>
      <trkpt lat="48.22492" lon="7.1265">
        <ele>992.3</ele>
        <time>2022-02-13T07:56:08Z</time>
      </trkpt>
      <trkpt lat="48.22492" lon="7.1265">
        <ele>992.3</ele>
        <time>2022-02-13T07:56:10Z</time>
      </trkpt>
      <trkpt lat="48.22493" lon="7.1265">
        <ele>992.3</ele>
        <time>2022-02-13T07:56:14Z</time>
      </trkpt>
      <trkpt lat="48.22492" lon="7.1265">
        <ele>992.3</ele>
        <time>2022-02-13T07:56:17Z</time>
      </trkpt>
      <trkpt lat="48.22492" lon="7.1265">
        <ele>992.3</ele>
        <time>2022-02-13T07:56:21Z</time>
      </trkpt>
      <trkpt lat="48.22492" lon="7.1265">
        <ele>992.3</ele>
        <time>2022-02-13T07:56:22Z</time>
      </trkpt>
      <trkpt lat="48.22492" lon="7.1265">
        <ele>992.3</ele>
        <time>2022-02-13T07:56:55Z</time>
      </trkpt>
      <trkpt lat="48.22492" lon="7.1265">
        <ele>992.3</ele>
        <time>2022-02-13T07:56:56Z</time>
      </trkpt>
      <trkpt lat="48.22493" lon="7.1265">
        <ele>992.3</ele>
        <time>2022-02-13T07:56:58Z</time>
      </trkpt>
      <trkpt lat="48.22492" lon="7.1265">
        <ele>992.3</ele>
        <time>2022-02-13T07:57:00Z</time>
      </trkpt>
      <trkpt lat="48.22492" lon="7.12649">
        <ele>992.3</ele>
        <time>2022-02-13T07:57:02Z</time>
      </trkpt>
      <trkpt lat="48.22484" lon="7.12643">
        <ele>992.2</ele>
        <time>2022-02-13T07:57:15Z</time>
      </trkpt>
      <trkpt lat="48.22474" lon="7.12639">
        <ele>991.9</ele>
        <time>2022-02-13T07:57:26Z</time>
      </trkpt>
      <trkpt lat="48.22465" lon="7.12636">
        <ele>991.6</ele>
        <time>2022-02-13T07:57:34Z</time>
      </trkpt>
      <trkpt lat="48.22455" lon="7.12632">
        <ele>991.1</ele>
        <time>2022-02-13T07:57:43Z</time>
      </trkpt>
      <trkpt lat="48.22446" lon="7.12628">
        <ele>990.6</ele>
        <time>2022-02-13T07:57:52Z</time>
      </trkpt>
      <trkpt lat="48.22437" lon="7.12624">
        <ele>990</ele>
        <time>2022-02-13T07:58:02Z</time>
      </trkpt>
      <trkpt lat="48.22427" lon="7.12623">
        <ele>989.4</ele>
        <time>2022-02-13T07:58:12Z</time>
      </trkpt>
      <trkpt lat="48.22418" lon="7.12619">
        <ele>988.8</ele>
        <time>2022-02-13T07:58:20Z</time>
      </trkpt>
      <trkpt lat="48.2241" lon="7.12614">
        <ele>988.1</ele>
        <time>2022-02-13T07:58:28Z</time>
      </trkpt>
      <trkpt lat="48.224" lon="7.12615">
        <ele>987.3</ele>
        <time>2022-02-13T07:58:37Z</time>
      </trkpt>
      <trkpt lat="48.22391" lon="7.12615">
        <ele>986.5</ele>
        <time>2022-02-13T07:58:46Z</time>
      </trkpt>
      <trkpt lat="48.22381" lon="7.12614">
        <ele>985.7</ele>
        <time>2022-02-13T07:58:58Z</time>
      </trkpt>
      <trkpt lat="48.22372" lon="7.1261">
        <ele>984.6</ele>
        <time>2022-02-13T07:59:06Z</time>
      </trkpt>
      <trkpt lat="48.22363" lon="7.1261">
        <ele>983.4</ele>
        <time>2022-02-13T07:59:15Z</time>
      </trkpt>
      <trkpt lat="48.22353" lon="7.1261">
        <ele>982.1</ele>
        <time>2022-02-13T07:59:25Z</time>
      </trkpt>
      <trkpt lat="48.22344" lon="7.12607">
        <ele>980.7</ele>
        <time>2022-02-13T07:59:37Z</time>
      </trkpt>
      <trkpt lat="48.22334" lon="7.12612">
        <ele>979</ele>
        <time>2022-02-13T07:59:46Z</time>
      </trkpt>
      <trkpt lat="48.22324" lon="7.1261">
        <ele>977.3</ele>
        <time>2022-02-13T07:59:55Z</time>
      </trkpt>
      <trkpt lat="48.22315" lon="7.1261">
        <ele>975.7</ele>
        <time>2022-02-13T08:00:06Z</time>
      </trkpt>
      <trkpt lat="48.22306" lon="7.12607">
        <ele>974.1</ele>
        <time>2022-02-13T08:00:18Z</time>
      </trkpt>
      <trkpt lat="48.22297" lon="7.12608">
        <ele>972.6</ele>
        <time>2022-02-13T08:00:28Z</time>
      </trkpt>
      <trkpt lat="48.22287" lon="7.12609">
        <ele>971.3</ele>
        <time>2022-02-13T08:00:38Z</time>
      </trkpt>
      <trkpt lat="48.22278" lon="7.12602">
        <ele>970.1</ele>
        <time>2022-02-13T08:00:46Z</time>
      </trkpt>
      <trkpt lat="48.2227" lon="7.12598">
        <ele>969.1</ele>
        <time>2022-02-13T08:00:55Z</time>
      </trkpt>
      <trkpt lat="48.2226" lon="7.12602">
        <ele>968</ele>
        <time>2022-02-13T08:01:04Z</time>
      </trkpt>
      <trkpt lat="48.2225" lon="7.12603">
        <ele>967</ele>
        <time>2022-02-13T08:01:13Z</time>
      </trkpt>
      <trkpt lat="48.22241" lon="7.126">
        <ele>965.5</ele>
        <time>2022-02-13T08:01:20Z</time>
      </trkpt>
      <trkpt lat="48.22231" lon="7.126">
        <ele>964.3</ele>
        <time>2022-02-13T08:01:27Z</time>
      </trkpt>
      <trkpt lat="48.22222" lon="7.12595">
        <ele>963</ele>
        <time>2022-02-13T08:01:36Z</time>
      </trkpt>
      <trkpt lat="48.22213" lon="7.1259">
        <ele>961.3</ele>
        <time>2022-02-13T08:01:47Z</time>
      </trkpt>
      <trkpt lat="48.22203" lon="7.12588">
        <ele>959.5</ele>
        <time>2022-02-13T08:01:55Z</time>
      </trkpt>
      <trkpt lat="48.22195" lon="7.12581">
        <ele>957.7</ele>
        <time>2022-02-13T08:02:04Z</time>
      </trkpt>
      <trkpt lat="48.22186" lon="7.12576">
        <ele>956.1</ele>
        <time>2022-02-13T08:02:17Z</time>
      </trkpt>
      <trkpt lat="48.22178" lon="7.12568">
        <ele>954.2</ele>
        <time>2022-02-13T08:02:28Z</time>
      </trkpt>
      <trkpt lat="48.22168" lon="7.12566">
        <ele>952.1</ele>
        <time>2022-02-13T08:02:36Z</time>
      </trkpt>
      <trkpt lat="48.2216" lon="7.1256">
        <ele>949.9</ele>
        <time>2022-02-13T08:02:46Z</time>
      </trkpt>
      <trkpt lat="48.2215" lon="7.12556">
        <ele>947.6</ele>
        <time>2022-02-13T08:02:55Z</time>
      </trkpt>
      <trkpt lat="48.22142" lon="7.12548">
        <ele>945.3</ele>
        <time>2022-02-13T08:03:04Z</time>
      </trkpt>
      <trkpt lat="48.22133" lon="7.12539">
        <ele>943</ele>
        <time>2022-02-13T08:03:14Z</time>
      </trkpt>
      <trkpt lat="48.22125" lon="7.12529">
        <ele>940.7</ele>
        <time>2022-02-13T08:03:22Z</time>
      </trkpt>
      <trkpt lat="48.22116" lon="7.1253">
        <ele>938.8</ele>
        <time>2022-02-13T08:03:36Z</time>
      </trkpt>
      <trkpt lat="48.22107" lon="7.12525">
        <ele>936.9</ele>
        <time>2022-02-13T08:03:46Z</time>
      </trkpt>
      <trkpt lat="48.22098" lon="7.12522">
        <ele>935</ele>
        <time>2022-02-13T08:03:57Z</time>
      </trkpt>
      <trkpt lat="48.22089" lon="7.12517">
        <ele>933</ele>
        <time>2022-02-13T08:04:07Z</time>
      </trkpt>
      <trkpt lat="48.2208" lon="7.12515">
        <ele>931.3</ele>
        <time>2022-02-13T08:04:13Z</time>
      </trkpt>
      <trkpt lat="48.22072" lon="7.12504">
        <ele>929.6</ele>
        <time>2022-02-13T08:04:24Z</time>
      </trkpt>
      <trkpt lat="48.22063" lon="7.12501">
        <ele>928</ele>
        <time>2022-02-13T08:04:34Z</time>
      </trkpt>
      <trkpt lat="48.22054" lon="7.12503">
        <ele>926.5</ele>
        <time>2022-02-13T08:04:43Z</time>
      </trkpt>
      <trkpt lat="48.22045" lon="7.12499">
        <ele>925</ele>
        <time>2022-02-13T08:04:54Z</time>
      </trkpt>
      <trkpt lat="48.22035" lon="7.12495">
        <ele>923.3</ele>
        <time>2022-02-13T08:05:00Z</time>
      </trkpt>
      <trkpt lat="48.22025" lon="7.12492">
        <ele>921.7</ele>
        <time>2022-02-13T08:05:06Z</time>
      </trkpt>
      <trkpt lat="48.22017" lon="7.12487">
        <ele>920.2</ele>
        <time>2022-02-13T08:05:14Z</time>
      </trkpt>
      <trkpt lat="48.22008" lon="7.12482">
        <ele>918.6</ele>
        <time>2022-02-13T08:05:26Z</time>
      </trkpt>
      <trkpt lat="48.21998" lon="7.12479">
        <ele>917.3</ele>
        <time>2022-02-13T08:05:34Z</time>
      </trkpt>
      <trkpt lat="48.21989" lon="7.12477">
        <ele>916</ele>
        <time>2022-02-13T08:05:42Z</time>
      </trkpt>
      <trkpt lat="48.21979" lon="7.12479">
        <ele>914.8</ele>
        <time>2022-02-13T08:05:49Z</time>
      </trkpt>
      <trkpt lat="48.21969" lon="7.1248">
        <ele>913.9</ele>
        <time>2022-02-13T08:05:58Z</time>
      </trkpt>
      <trkpt lat="48.21962" lon="7.12471">
        <ele>913</ele>
        <time>2022-02-13T08:06:04Z</time>
      </trkpt>
      <trkpt lat="48.21953" lon="7.12467">
        <ele>911.9</ele>
        <time>2022-02-13T08:06:14Z</time>
      </trkpt>
      <trkpt lat="48.21943" lon="7.12472">
        <ele>911.2</ele>
        <time>2022-02-13T08:06:23Z</time>
      </trkpt>
      <trkpt lat="48.21935" lon="7.12481">
        <ele>911.1</ele>
        <time>2022-02-13T08:06:31Z</time>
      </trkpt>
      <trkpt lat="48.21929" lon="7.1248">
        <ele>911</ele>
        <time>2022-02-13T08:06:43Z</time>
      </trkpt>
      <trkpt lat="48.21929" lon="7.12481">
        <ele>911</ele>
        <time>2022-02-13T08:06:44Z</time>
      </trkpt>
      <trkpt lat="48.2193" lon="7.12484">
        <ele>911</ele>
        <time>2022-02-13T08:06:54Z</time>
      </trkpt>
      <trkpt lat="48.2193" lon="7.12485">
        <ele>911</ele>
        <time>2022-02-13T08:06:55Z</time>
      </trkpt>
      <trkpt lat="48.2193" lon="7.12485">
        <ele>911</ele>
        <time>2022-02-13T08:06:56Z</time>
      </trkpt>
      <trkpt lat="48.2193" lon="7.12484">
        <ele>911</ele>
        <time>2022-02-13T08:06:57Z</time>
      </trkpt>
      <trkpt lat="48.21931" lon="7.12487">
        <ele>911</ele>
        <time>2022-02-13T08:07:03Z</time>
      </trkpt>
      <trkpt lat="48.2193" lon="7.12487">
        <ele>911</ele>
        <time>2022-02-13T08:07:04Z</time>
      </trkpt>
      <trkpt lat="48.2193" lon="7.12487">
        <ele>911</ele>
        <time>2022-02-13T08:07:05Z</time>
      </trkpt>
      <trkpt lat="48.2193" lon="7.12487">
        <ele>911</ele>
        <time>2022-02-13T08:07:28Z</time>
      </trkpt>
      <trkpt lat="48.2193" lon="7.12487">
        <ele>911</ele>
        <time>2022-02-13T08:07:29Z</time>
      </trkpt>
      <trkpt lat="48.2193" lon="7.12487">
        <ele>911</ele>
        <time>2022-02-13T08:08:04Z</time>
      </trkpt>
      <trkpt lat="48.2193" lon="7.12487">
        <ele>911</ele>
        <time>2022-02-13T08:08:06Z</time>
      </trkpt>
      <trkpt lat="48.2193" lon="7.12487">
        <ele>911</ele>
        <time>2022-02-13T08:08:44Z</time>
      </trkpt>
      <trkpt lat="48.2193" lon="7.12487">
        <ele>911</ele>
        <time>2022-02-13T08:08:45Z</time>
      </trkpt>
      <trkpt lat="48.2193" lon="7.12487">
        <ele>911</ele>
        <time>2022-02-13T08:08:54Z</time>
      </trkpt>
      <trkpt lat="48.2193" lon="7.12488">
        <ele>911</ele>
        <time>2022-02-13T08:08:56Z</time>
      </trkpt>
      <trkpt lat="48.2193" lon="7.12488">
        <ele>911</ele>
        <time>2022-02-13T08:08:57Z</time>
      </trkpt>
      <trkpt lat="48.21929" lon="7.12489">
        <ele>911</ele>
        <time>2022-02-13T08:08:59Z</time>
      </trkpt>
      <trkpt lat="48.2193" lon="7.12489">
        <ele>911</ele>
        <time>2022-02-13T08:09:01Z</time>
      </trkpt>
      <trkpt lat="48.2193" lon="7.12489">
        <ele>911</ele>
        <time>2022-02-13T08:09:02Z</time>
      </trkpt>
      <trkpt lat="48.2193" lon="7.12489">
        <ele>911</ele>
        <time>2022-02-13T08:09:04Z</time>
      </trkpt>
      <trkpt lat="48.21923" lon="7.12478">
        <ele>911</ele>
        <time>2022-02-13T08:09:20Z</time>
      </trkpt>
      <trkpt lat="48.21914" lon="7.12475">
        <ele>910.5</ele>
        <time>2022-02-13T08:09:29Z</time>
      </trkpt>
      <trkpt lat="48.21907" lon="7.12485">
        <ele>910.1</ele>
        <time>2022-02-13T08:09:36Z</time>
      </trkpt>
      <trkpt lat="48.21901" lon="7.12496">
        <ele>909.8</ele>
        <time>2022-02-13T08:09:45Z</time>
      </trkpt>
      <trkpt lat="48.21895" lon="7.12508">
        <ele>909.6</ele>
        <time>2022-02-13T08:09:54Z</time>
      </trkpt>
      <trkpt lat="48.21888" lon="7.1252">
        <ele>909.3</ele>
        <time>2022-02-13T08:10:02Z</time>
      </trkpt>
      <trkpt lat="48.21882" lon="7.1253">
        <ele>908.8</ele>
        <time>2022-02-13T08:10:09Z</time>
      </trkpt>
      <trkpt lat="48.21875" lon="7.12541">
        <ele>908.2</ele>
        <time>2022-02-13T08:10:17Z</time>
      </trkpt>
      <trkpt lat="48.21872" lon="7.12554">
        <ele>907.8</ele>
        <time>2022-02-13T08:10:25Z</time>
      </trkpt>
      <trkpt lat="48.21866" lon="7.12566">
        <ele>906.9</ele>
        <time>2022-02-13T08:10:34Z</time>
      </trkpt>
      <trkpt lat="48.21863" lon="7.12579">
        <ele>905.9</ele>
        <time>2022-02-13T08:10:42Z</time>
      </trkpt>
      <trkpt lat="48.2186" lon="7.12592">
        <ele>904.8</ele>
        <time>2022-02-13T08:10:55Z</time>
      </trkpt>
      <trkpt lat="48.21855" lon="7.12604">
        <ele>903.7</ele>
        <time>2022-02-13T08:11:02Z</time>
      </trkpt>
      <trkpt lat="48.21847" lon="7.1261">
        <ele>902.6</ele>
        <time>2022-02-13T08:11:13Z</time>
      </trkpt>
      <trkpt lat="48.21845" lon="7.12616">
        <ele>902.1</ele>
        <time>2022-02-13T08:11:24Z</time>
      </trkpt>
      <trkpt lat="48.21845" lon="7.12617">
        <ele>902.1</ele>
        <time>2022-02-13T08:11:25Z</time>
      </trkpt>
      <trkpt lat="48.21846" lon="7.12618">
        <ele>902</ele>
        <time>2022-02-13T08:11:27Z</time>
      </trkpt>
      <trkpt lat="48.21846" lon="7.12619">
        <ele>902</ele>
        <time>2022-02-13T08:11:28Z</time>
      </trkpt>
      <trkpt lat="48.21846" lon="7.12626">
        <ele>901.6</ele>
        <time>2022-02-13T08:11:38Z</time>
      </trkpt>
      <trkpt lat="48.21847" lon="7.12626">
        <ele>901.6</ele>
        <time>2022-02-13T08:11:39Z</time>
      </trkpt>
      <trkpt lat="48.2184" lon="7.12635">
        <ele>901</ele>
        <time>2022-02-13T08:11:53Z</time>
      </trkpt>
      <trkpt lat="48.21833" lon="7.12644">
        <ele>900.4</ele>
        <time>2022-02-13T08:12:00Z</time>
      </trkpt>
      <trkpt lat="48.21825" lon="7.12652">
        <ele>899.7</ele>
        <time>2022-02-13T08:12:05Z</time>
      </trkpt>
      <trkpt lat="48.21818" lon="7.12663">
        <ele>899</ele>
        <time>2022-02-13T08:12:13Z</time>
      </trkpt>
      <trkpt lat="48.21812" lon="7.12674">
        <ele>898.2</ele>
        <time>2022-02-13T08:12:25Z</time>
      </trkpt>
      <trkpt lat="48.21808" lon="7.12687">
        <ele>897</ele>
        <time>2022-02-13T08:12:34Z</time>
      </trkpt>
      <trkpt lat="48.21802" lon="7.12698">
        <ele>895.8</ele>
        <time>2022-02-13T08:12:41Z</time>
      </trkpt>
      <trkpt lat="48.21798" lon="7.12712">
        <ele>894.6</ele>
        <time>2022-02-13T08:12:47Z</time>
      </trkpt>
      <trkpt lat="48.21793" lon="7.12725">
        <ele>893.4</ele>
        <time>2022-02-13T08:12:54Z</time>
      </trkpt>
      <trkpt lat="48.2179" lon="7.12738">
        <ele>892.5</ele>
        <time>2022-02-13T08:13:02Z</time>
      </trkpt>
      <trkpt lat="48.21787" lon="7.12751">
        <ele>891.8</ele>
        <time>2022-02-13T08:13:11Z</time>
      </trkpt>
      <trkpt lat="48.21781" lon="7.12763">
        <ele>891.3</ele>
        <time>2022-02-13T08:13:22Z</time>
      </trkpt>
      <trkpt lat="48.21773" lon="7.12768">
        <ele>890.8</ele>
        <time>2022-02-13T08:13:29Z</time>
      </trkpt>
      <trkpt lat="48.21765" lon="7.12776">
        <ele>890.3</ele>
        <time>2022-02-13T08:13:35Z</time>
      </trkpt>
      <trkpt lat="48.21757" lon="7.12783">
        <ele>889.5</ele>
        <time>2022-02-13T08:13:41Z</time>
      </trkpt>
      <trkpt lat="48.21749" lon="7.12789">
        <ele>888.1</ele>
        <time>2022-02-13T08:13:47Z</time>
      </trkpt>
      <trkpt lat="48.21748" lon="7.12802">
        <ele>887.6</ele>
        <time>2022-02-13T08:13:58Z</time>
      </trkpt>
      <trkpt lat="48.21756" lon="7.12812">
        <ele>886.9</ele>
        <time>2022-02-13T08:14:05Z</time>
      </trkpt>
      <trkpt lat="48.21765" lon="7.12816">
        <ele>886.4</ele>
        <time>2022-02-13T08:14:13Z</time>
      </trkpt>
      <trkpt lat="48.21775" lon="7.12821">
        <ele>885.7</ele>
        <time>2022-02-13T08:14:24Z</time>
      </trkpt>
      <trkpt lat="48.21784" lon="7.12822">
        <ele>885.2</ele>
        <time>2022-02-13T08:14:34Z</time>
      </trkpt>
      <trkpt lat="48.21785" lon="7.12823">
        <ele>885.1</ele>
        <time>2022-02-13T08:14:36Z</time>
      </trkpt>
      <trkpt lat="48.21785" lon="7.12824">
        <ele>885.1</ele>
        <time>2022-02-13T08:14:38Z</time>
      </trkpt>
      <trkpt lat="48.21793" lon="7.12823">
        <ele>884.6</ele>
        <time>2022-02-13T08:14:47Z</time>
      </trkpt>
      <trkpt lat="48.21793" lon="7.12824">
        <ele>884.6</ele>
        <time>2022-02-13T08:14:48Z</time>
      </trkpt>
      <trkpt lat="48.21802" lon="7.12821">
        <ele>884</ele>
        <time>2022-02-13T08:15:05Z</time>
      </trkpt>
      <trkpt lat="48.21812" lon="7.12816">
        <ele>883.4</ele>
        <time>2022-02-13T08:15:10Z</time>
      </trkpt>
      <trkpt lat="48.21822" lon="7.12816">
        <ele>882.8</ele>
        <time>2022-02-13T08:15:17Z</time>
      </trkpt>
      <trkpt lat="48.21831" lon="7.12806">
        <ele>882.2</ele>
        <time>2022-02-13T08:15:23Z</time>
      </trkpt>
      <trkpt lat="48.21839" lon="7.12802">
        <ele>881.7</ele>
        <time>2022-02-13T08:15:28Z</time>
      </trkpt>
      <trkpt lat="48.21848" lon="7.12798">
        <ele>881.2</ele>
        <time>2022-02-13T08:15:39Z</time>
      </trkpt>
      <trkpt lat="48.21858" lon="7.128">
        <ele>880.7</ele>
        <time>2022-02-13T08:15:49Z</time>
      </trkpt>
      <trkpt lat="48.21868" lon="7.12808">
        <ele>880.1</ele>
        <time>2022-02-13T08:15:56Z</time>
      </trkpt>
      <trkpt lat="48.21875" lon="7.12818">
        <ele>879.7</ele>
        <time>2022-02-13T08:16:00Z</time>
      </trkpt>
      <trkpt lat="48.21882" lon="7.12825">
        <ele>879.2</ele>
        <time>2022-02-13T08:16:07Z</time>
      </trkpt>
      <trkpt lat="48.21887" lon="7.12837">
        <ele>878.7</ele>
        <time>2022-02-13T08:16:17Z</time>
      </trkpt>
      <trkpt lat="48.21895" lon="7.12847">
        <ele>878.1</ele>
        <time>2022-02-13T08:16:27Z</time>
      </trkpt>
      <trkpt lat="48.21896" lon="7.12861">
        <ele>877.7</ele>
        <time>2022-02-13T08:16:35Z</time>
      </trkpt>
      <trkpt lat="48.21903" lon="7.12872">
        <ele>877.2</ele>
        <time>2022-02-13T08:16:41Z</time>
      </trkpt>
      <trkpt lat="48.21908" lon="7.12883">
        <ele>876.7</ele>
        <time>2022-02-13T08:16:48Z</time>
      </trkpt>
      <trkpt lat="48.21911" lon="7.12897">
        <ele>876.1</ele>
        <time>2022-02-13T08:16:55Z</time>
      </trkpt>
      <trkpt lat="48.21918" lon="7.12906">
        <ele>875.5</ele>
        <time>2022-02-13T08:17:05Z</time>
      </trkpt>
      <trkpt lat="48.21926" lon="7.12915">
        <ele>874.8</ele>
        <time>2022-02-13T08:17:14Z</time>
      </trkpt>
      <trkpt lat="48.2193" lon="7.12927">
        <ele>874.3</ele>
        <time>2022-02-13T08:17:20Z</time>
      </trkpt>
      <trkpt lat="48.21937" lon="7.12937">
        <ele>873.7</ele>
        <time>2022-02-13T08:17:27Z</time>
      </trkpt>
      <trkpt lat="48.21945" lon="7.12945">
        <ele>873.2</ele>
        <time>2022-02-13T08:17:33Z</time>
      </trkpt>
      <trkpt lat="48.21954" lon="7.12948">
        <ele>872.6</ele>
        <time>2022-02-13T08:17:40Z</time>
      </trkpt>
      <trkpt lat="48.21964" lon="7.12952">
        <ele>872</ele>
        <time>2022-02-13T08:17:46Z</time>
      </trkpt>
      <trkpt lat="48.21971" lon="7.12961">
        <ele>871.4</ele>
        <time>2022-02-13T08:17:56Z</time>
      </trkpt>
      <trkpt lat="48.2198" lon="7.12969">
        <ele>870.8</ele>
        <time>2022-02-13T08:18:05Z</time>
      </trkpt>
      <trkpt lat="48.21988" lon="7.12976">
        <ele>870.3</ele>
        <time>2022-02-13T08:18:14Z</time>
      </trkpt>
      <trkpt lat="48.21995" lon="7.12987">
        <ele>869.8</ele>
        <time>2022-02-13T08:18:21Z</time>
      </trkpt>
      <trkpt lat="48.22004" lon="7.12992">
        <ele>869.3</ele>
        <time>2022-02-13T08:18:30Z</time>
      </trkpt>
      <trkpt lat="48.22002" lon="7.13005">
        <ele>868.8</ele>
        <time>2022-02-13T08:18:39Z</time>
      </trkpt>
      <trkpt lat="48.21996" lon="7.13016">
        <ele>868.3</ele>
        <time>2022-02-13T08:18:46Z</time>
      </trkpt>
      <trkpt lat="48.21988" lon="7.13022">
        <ele>867.7</ele>
        <time>2022-02-13T08:18:56Z</time>
      </trkpt>
      <trkpt lat="48.21998" lon="7.13019">
        <ele>867</ele>
        <time>2022-02-13T08:19:09Z</time>
      </trkpt>
      <trkpt lat="48.22004" lon="7.13008">
        <ele>866.4</ele>
        <time>2022-02-13T08:19:24Z</time>
      </trkpt>
      <trkpt lat="48.22007" lon="7.13005">
        <ele>866.1</ele>
        <time>2022-02-13T08:19:35Z</time>
      </trkpt>
      <trkpt lat="48.22007" lon="7.13006">
        <ele>866.1</ele>
        <time>2022-02-13T08:19:37Z</time>
      </trkpt>
      <trkpt lat="48.22007" lon="7.13006">
        <ele>866.1</ele>
        <time>2022-02-13T08:19:38Z</time>
      </trkpt>
      <trkpt lat="48.22007" lon="7.13006">
        <ele>866.1</ele>
        <time>2022-02-13T08:19:40Z</time>
      </trkpt>
      <trkpt lat="48.22008" lon="7.13006">
        <ele>866.1</ele>
        <time>2022-02-13T08:19:42Z</time>
      </trkpt>
      <trkpt lat="48.22008" lon="7.13006">
        <ele>866</ele>
        <time>2022-02-13T08:19:44Z</time>
      </trkpt>
      <trkpt lat="48.22008" lon="7.13006">
        <ele>866</ele>
        <time>2022-02-13T08:19:45Z</time>
      </trkpt>
      <trkpt lat="48.22007" lon="7.13006">
        <ele>866</ele>
        <time>2022-02-13T08:19:48Z</time>
      </trkpt>
      <trkpt lat="48.22007" lon="7.13006">
        <ele>866</ele>
        <time>2022-02-13T08:19:51Z</time>
      </trkpt>
      <trkpt lat="48.22007" lon="7.13006">
        <ele>866</ele>
        <time>2022-02-13T08:19:52Z</time>
      </trkpt>
      <trkpt lat="48.2201" lon="7.1301">
        <ele>865.7</ele>
        <time>2022-02-13T08:20:01Z</time>
      </trkpt>
      <trkpt lat="48.2201" lon="7.1301">
        <ele>865.7</ele>
        <time>2022-02-13T08:20:02Z</time>
      </trkpt>
      <trkpt lat="48.2201" lon="7.13009">
        <ele>865.7</ele>
        <time>2022-02-13T08:20:05Z</time>
      </trkpt>
      <trkpt lat="48.2201" lon="7.13009">
        <ele>865.6</ele>
        <time>2022-02-13T08:20:06Z</time>
      </trkpt>
      <trkpt lat="48.2201" lon="7.13012">
        <ele>865.5</ele>
        <time>2022-02-13T08:20:14Z</time>
      </trkpt>
      <trkpt lat="48.22011" lon="7.13012">
        <ele>865.5</ele>
        <time>2022-02-13T08:20:15Z</time>
      </trkpt>
      <trkpt lat="48.22011" lon="7.13011">
        <ele>865.4</ele>
        <time>2022-02-13T08:20:17Z</time>
      </trkpt>
      <trkpt lat="48.22012" lon="7.13012">
        <ele>865.4</ele>
        <time>2022-02-13T08:20:18Z</time>
      </trkpt>
      <trkpt lat="48.22014" lon="7.13014">
        <ele>865.2</ele>
        <time>2022-02-13T08:20:28Z</time>
      </trkpt>
      <trkpt lat="48.22013" lon="7.13014">
        <ele>865.2</ele>
        <time>2022-02-13T08:20:29Z</time>
      </trkpt>
      <trkpt lat="48.22014" lon="7.13013">
        <ele>865.1</ele>
        <time>2022-02-13T08:20:35Z</time>
      </trkpt>
      <trkpt lat="48.22014" lon="7.13013">
        <ele>865.1</ele>
        <time>2022-02-13T08:20:36Z</time>
      </trkpt>
      <trkpt lat="48.22012" lon="7.13009">
        <ele>864.9</ele>
        <time>2022-02-13T08:20:46Z</time>
      </trkpt>
      <trkpt lat="48.22013" lon="7.13009">
        <ele>864.9</ele>
        <time>2022-02-13T08:20:47Z</time>
      </trkpt>
      <trkpt lat="48.2201" lon="7.13001">
        <ele>864.5</ele>
        <time>2022-02-13T08:22:01Z</time>
      </trkpt>
      <trkpt lat="48.2201" lon="7.13001">
        <ele>864.5</ele>
        <time>2022-02-13T08:22:02Z</time>
      </trkpt>
      <trkpt lat="48.2201" lon="7.13003">
        <ele>864.4</ele>
        <time>2022-02-13T08:22:09Z</time>
      </trkpt>
      <trkpt lat="48.2201" lon="7.13004">
        <ele>864.4</ele>
        <time>2022-02-13T08:22:10Z</time>
      </trkpt>
      <trkpt lat="48.22009" lon="7.13005">
        <ele>864.3</ele>
        <time>2022-02-13T08:22:13Z</time>
      </trkpt>
      <trkpt lat="48.22008" lon="7.13006">
        <ele>864.3</ele>
        <time>2022-02-13T08:22:14Z</time>
      </trkpt>
      <trkpt lat="48.2201" lon="7.13011">
        <ele>864.1</ele>
        <time>2022-02-13T08:22:30Z</time>
      </trkpt>
      <trkpt lat="48.22009" lon="7.13011">
        <ele>864</ele>
        <time>2022-02-13T08:22:31Z</time>
      </trkpt>
      <trkpt lat="48.22008" lon="7.13013">
        <ele>863.9</ele>
        <time>2022-02-13T08:22:40Z</time>
      </trkpt>
      <trkpt lat="48.22007" lon="7.13013">
        <ele>863.9</ele>
        <time>2022-02-13T08:22:41Z</time>
      </trkpt>
      <trkpt lat="48.22016" lon="7.13019">
        <ele>863.4</ele>
        <time>2022-02-13T08:23:23Z</time>
      </trkpt>
      <trkpt lat="48.22017" lon="7.13018">
        <ele>863.3</ele>
        <time>2022-02-13T08:23:26Z</time>
      </trkpt>
      <trkpt lat="48.22017" lon="7.13017">
        <ele>863.3</ele>
        <time>2022-02-13T08:23:27Z</time>
      </trkpt>
      <trkpt lat="48.22015" lon="7.13014">
        <ele>863.1</ele>
        <time>2022-02-13T08:23:32Z</time>
      </trkpt>
      <trkpt lat="48.22015" lon="7.13015">
        <ele>863.1</ele>
        <time>2022-02-13T08:23:33Z</time>
      </trkpt>
      <trkpt lat="48.22018" lon="7.13019">
        <ele>862.9</ele>
        <time>2022-02-13T08:23:45Z</time>
      </trkpt>
      <trkpt lat="48.22018" lon="7.13019">
        <ele>862.9</ele>
        <time>2022-02-13T08:23:47Z</time>
      </trkpt>
      <trkpt lat="48.22018" lon="7.13019">
        <ele>862.9</ele>
        <time>2022-02-13T08:23:48Z</time>
      </trkpt>
      <trkpt lat="48.22017" lon="7.13019">
        <ele>862.8</ele>
        <time>2022-02-13T08:23:49Z</time>
      </trkpt>
      <trkpt lat="48.2201" lon="7.13017">
        <ele>862.4</ele>
        <time>2022-02-13T08:24:10Z</time>
      </trkpt>
      <trkpt lat="48.22009" lon="7.13017">
        <ele>862.4</ele>
        <time>2022-02-13T08:24:11Z</time>
      </trkpt>
      <trkpt lat="48.22009" lon="7.13023">
        <ele>862.1</ele>
        <time>2022-02-13T08:24:21Z</time>
      </trkpt>
      <trkpt lat="48.22009" lon="7.13024">
        <ele>862.1</ele>
        <time>2022-02-13T08:24:23Z</time>
      </trkpt>
      <trkpt lat="48.22009" lon="7.13024">
        <ele>862.1</ele>
        <time>2022-02-13T08:24:24Z</time>
      </trkpt>
      <trkpt lat="48.22009" lon="7.13024">
        <ele>862.1</ele>
        <time>2022-02-13T08:24:25Z</time>
      </trkpt>
      <trkpt lat="48.22013" lon="7.13025">
        <ele>861.8</ele>
        <time>2022-02-13T08:24:34Z</time>
      </trkpt>
      <trkpt lat="48.22013" lon="7.13025">
        <ele>861.8</ele>
        <time>2022-02-13T08:24:35Z</time>
      </trkpt>
      <trkpt lat="48.22019" lon="7.13013">
        <ele>861.2</ele>
        <time>2022-02-13T08:25:31Z</time>
      </trkpt>
      <trkpt lat="48.22015" lon="7.13001">
        <ele>860.7</ele>
        <time>2022-02-13T08:25:52Z</time>
      </trkpt>
      <trkpt lat="48.22013" lon="7.12999">
        <ele>860.5</ele>
        <time>2022-02-13T08:26:01Z</time>
      </trkpt>
      <trkpt lat="48.22013" lon="7.12999">
        <ele>860.5</ele>
        <time>2022-02-13T08:26:02Z</time>
      </trkpt>
      <trkpt lat="48.22012" lon="7.12999">
        <ele>860.4</ele>
        <time>2022-02-13T08:26:04Z</time>
      </trkpt>
      <trkpt lat="48.22012" lon="7.12999">
        <ele>860.4</ele>
        <time>2022-02-13T08:26:05Z</time>
      </trkpt>
      <trkpt lat="48.22009" lon="7.13012">
        <ele>859.8</ele>
        <time>2022-02-13T08:26:22Z</time>
      </trkpt>
      <trkpt lat="48.22011" lon="7.13026">
        <ele>859.2</ele>
        <time>2022-02-13T08:26:30Z</time>
      </trkpt>
      <trkpt lat="48.2201" lon="7.1304">
        <ele>858.6</ele>
        <time>2022-02-13T08:26:35Z</time>
      </trkpt>
      <trkpt lat="48.22009" lon="7.13054">
        <ele>858</ele>
        <time>2022-02-13T08:26:41Z</time>
      </trkpt>
      <trkpt lat="48.22009" lon="7.13069">
        <ele>856.7</ele>
        <time>2022-02-13T08:26:48Z</time>
      </trkpt>
      <trkpt lat="48.2201" lon="7.13082">
        <ele>855.5</ele>
        <time>2022-02-13T08:26:58Z</time>
      </trkpt>
      <trkpt lat="48.22016" lon="7.13093">
        <ele>854.3</ele>
        <time>2022-02-13T08:27:05Z</time>
      </trkpt>
      <trkpt lat="48.22017" lon="7.13108">
        <ele>853.1</ele>
        <time>2022-02-13T08:27:12Z</time>
      </trkpt>
      <trkpt lat="48.22023" lon="7.13121">
        <ele>851.7</ele>
        <time>2022-02-13T08:27:22Z</time>
      </trkpt>
      <trkpt lat="48.22024" lon="7.13135">
        <ele>850.6</ele>
        <time>2022-02-13T08:27:29Z</time>
      </trkpt>
      <trkpt lat="48.22024" lon="7.1315">
        <ele>849.3</ele>
        <time>2022-02-13T08:27:34Z</time>
      </trkpt>
      <trkpt lat="48.22021" lon="7.13164">
        <ele>848</ele>
        <time>2022-02-13T08:27:39Z</time>
      </trkpt>
      <trkpt lat="48.2202" lon="7.13179">
        <ele>846.6</ele>
        <time>2022-02-13T08:27:50Z</time>
      </trkpt>
      <trkpt lat="48.22027" lon="7.13188">
        <ele>845.2</ele>
        <time>2022-02-13T08:27:58Z</time>
      </trkpt>
      <trkpt lat="48.22034" lon="7.13198">
        <ele>843.7</ele>
        <time>2022-02-13T08:28:06Z</time>
      </trkpt>
      <trkpt lat="48.22035" lon="7.13212">
        <ele>842.3</ele>
        <time>2022-02-13T08:28:17Z</time>
      </trkpt>
      <trkpt lat="48.22039" lon="7.13226">
        <ele>840.8</ele>
        <time>2022-02-13T08:28:22Z</time>
      </trkpt>
      <trkpt lat="48.22043" lon="7.13238">
        <ele>839.4</ele>
        <time>2022-02-13T08:28:31Z</time>
      </trkpt>
      <trkpt lat="48.22047" lon="7.13253">
        <ele>837.9</ele>
        <time>2022-02-13T08:28:39Z</time>
      </trkpt>
      <trkpt lat="48.2205" lon="7.13267">
        <ele>836.6</ele>
        <time>2022-02-13T08:28:46Z</time>
      </trkpt>
      <trkpt lat="48.2205" lon="7.13282">
        <ele>835.3</ele>
        <time>2022-02-13T08:28:54Z</time>
      </trkpt>
      <trkpt lat="48.22048" lon="7.13297">
        <ele>833.9</ele>
        <time>2022-02-13T08:29:01Z</time>
      </trkpt>
      <trkpt lat="48.22051" lon="7.1331">
        <ele>832.7</ele>
        <time>2022-02-13T08:29:09Z</time>
      </trkpt>
      <trkpt lat="48.22055" lon="7.13324">
        <ele>831.4</ele>
        <time>2022-02-13T08:29:15Z</time>
      </trkpt>
      <trkpt lat="48.2206" lon="7.13335">
        <ele>830.2</ele>
        <time>2022-02-13T08:29:22Z</time>
      </trkpt>
      <trkpt lat="48.22068" lon="7.13346">
        <ele>828.8</ele>
        <time>2022-02-13T08:29:30Z</time>
      </trkpt>
      <trkpt lat="48.22071" lon="7.13359">
        <ele>827.5</ele>
        <time>2022-02-13T08:29:36Z</time>
      </trkpt>
      <trkpt lat="48.22069" lon="7.13374">
        <ele>826</ele>
        <time>2022-02-13T08:29:40Z</time>
      </trkpt>
      <trkpt lat="48.2207" lon="7.13388">
        <ele>824.6</ele>
        <time>2022-02-13T08:29:46Z</time>
      </trkpt>
      <trkpt lat="48.22074" lon="7.13402">
        <ele>823.1</ele>
        <time>2022-02-13T08:29:57Z</time>
      </trkpt>
      <trkpt lat="48.22081" lon="7.13412">
        <ele>821.6</ele>
        <time>2022-02-13T08:30:05Z</time>
      </trkpt>
      <trkpt lat="48.22086" lon="7.13411">
        <ele>820.8</ele>
        <time>2022-02-13T08:30:10Z</time>
      </trkpt>
      <trkpt lat="48.22086" lon="7.13411">
        <ele>820.7</ele>
        <time>2022-02-13T08:30:11Z</time>
      </trkpt>
      <trkpt lat="48.22094" lon="7.13419">
        <ele>819.5</ele>
        <time>2022-02-13T08:30:20Z</time>
      </trkpt>
      <trkpt lat="48.22094" lon="7.13422">
        <ele>819.4</ele>
        <time>2022-02-13T08:30:23Z</time>
      </trkpt>
      <trkpt lat="48.22095" lon="7.13421">
        <ele>819.3</ele>
        <time>2022-02-13T08:30:24Z</time>
      </trkpt>
      <trkpt lat="48.221" lon="7.13425">
        <ele>818.8</ele>
        <time>2022-02-13T08:30:36Z</time>
      </trkpt>
      <trkpt lat="48.22099" lon="7.13426">
        <ele>818.8</ele>
        <time>2022-02-13T08:30:37Z</time>
      </trkpt>
      <trkpt lat="48.22099" lon="7.13426">
        <ele>818.8</ele>
        <time>2022-02-13T08:30:38Z</time>
      </trkpt>
      <trkpt lat="48.22099" lon="7.13425">
        <ele>818.7</ele>
        <time>2022-02-13T08:30:39Z</time>
      </trkpt>
      <trkpt lat="48.22107" lon="7.13434">
        <ele>818.1</ele>
        <time>2022-02-13T08:31:08Z</time>
      </trkpt>
      <trkpt lat="48.22116" lon="7.13436">
        <ele>817.7</ele>
        <time>2022-02-13T08:31:14Z</time>
      </trkpt>
      <trkpt lat="48.22123" lon="7.13447">
        <ele>817.5</ele>
        <time>2022-02-13T08:31:23Z</time>
      </trkpt>
      <trkpt lat="48.22131" lon="7.13455">
        <ele>817.5</ele>
        <time>2022-02-13T08:31:31Z</time>
      </trkpt>
      <trkpt lat="48.22139" lon="7.13463">
        <ele>817.3</ele>
        <time>2022-02-13T08:31:38Z</time>
      </trkpt>
      <trkpt lat="48.22146" lon="7.13475">
        <ele>817.2</ele>
        <time>2022-02-13T08:31:44Z</time>
      </trkpt>
      <trkpt lat="48.22154" lon="7.13483">
        <ele>817.2</ele>
        <time>2022-02-13T08:31:52Z</time>
      </trkpt>
      <trkpt lat="48.22162" lon="7.13491">
        <ele>817.2</ele>
        <time>2022-02-13T08:32:01Z</time>
      </trkpt>
      <trkpt lat="48.22168" lon="7.13501">
        <ele>817.3</ele>
        <time>2022-02-13T08:32:09Z</time>
      </trkpt>
      <trkpt lat="48.22178" lon="7.13503">
        <ele>817.4</ele>
        <time>2022-02-13T08:32:17Z</time>
      </trkpt>
      <trkpt lat="48.22183" lon="7.13515">
        <ele>817.7</ele>
        <time>2022-02-13T08:32:24Z</time>
      </trkpt>
      <trkpt lat="48.22189" lon="7.13527">
        <ele>817.9</ele>
        <time>2022-02-13T08:32:31Z</time>
      </trkpt>
      <trkpt lat="48.22197" lon="7.13533">
        <ele>818.1</ele>
        <time>2022-02-13T08:32:40Z</time>
      </trkpt>
      <trkpt lat="48.22206" lon="7.13534">
        <ele>818.3</ele>
        <time>2022-02-13T08:32:47Z</time>
      </trkpt>
      <trkpt lat="48.22217" lon="7.13529">
        <ele>818.3</ele>
        <time>2022-02-13T08:32:52Z</time>
      </trkpt>
      <trkpt lat="48.22227" lon="7.13526">
        <ele>818.4</ele>
        <time>2022-02-13T08:32:57Z</time>
      </trkpt>
      <trkpt lat="48.22238" lon="7.13519">
        <ele>818.3</ele>
        <time>2022-02-13T08:33:01Z</time>
      </trkpt>
      <trkpt lat="48.22243" lon="7.13506">
        <ele>817.9</ele>
        <time>2022-02-13T08:33:08Z</time>
      </trkpt>
      <trkpt lat="48.2225" lon="7.13497">
        <ele>817.4</ele>
        <time>2022-02-13T08:33:11Z</time>
      </trkpt>
      <trkpt lat="48.22259" lon="7.13489">
        <ele>816.6</ele>
        <time>2022-02-13T08:33:15Z</time>
      </trkpt>
      <trkpt lat="48.22267" lon="7.1348">
        <ele>815.7</ele>
        <time>2022-02-13T08:33:21Z</time>
      </trkpt>
      <trkpt lat="48.22275" lon="7.13472">
        <ele>814.6</ele>
        <time>2022-02-13T08:33:31Z</time>
      </trkpt>
      <trkpt lat="48.22284" lon="7.13469">
        <ele>813.4</ele>
        <time>2022-02-13T08:33:39Z</time>
      </trkpt>
      <trkpt lat="48.22291" lon="7.1348">
        <ele>812.3</ele>
        <time>2022-02-13T08:33:49Z</time>
      </trkpt>
      <trkpt lat="48.22297" lon="7.13491">
        <ele>811.3</ele>
        <time>2022-02-13T08:34:05Z</time>
      </trkpt>
      <trkpt lat="48.22308" lon="7.13485">
        <ele>810.3</ele>
        <time>2022-02-13T08:34:11Z</time>
      </trkpt>
      <trkpt lat="48.22318" lon="7.13481">
        <ele>809.5</ele>
        <time>2022-02-13T08:34:13Z</time>
      </trkpt>
      <trkpt lat="48.22327" lon="7.13486">
        <ele>808.9</ele>
        <time>2022-02-13T08:34:23Z</time>
      </trkpt>
      <trkpt lat="48.22337" lon="7.13485">
        <ele>808.3</ele>
        <time>2022-02-13T08:34:32Z</time>
      </trkpt>
      <trkpt lat="48.22344" lon="7.13495">
        <ele>807.9</ele>
        <time>2022-02-13T08:34:38Z</time>
      </trkpt>
      <trkpt lat="48.22345" lon="7.1351">
        <ele>807.6</ele>
        <time>2022-02-13T08:34:48Z</time>
      </trkpt>
      <trkpt lat="48.22352" lon="7.1352">
        <ele>807.5</ele>
        <time>2022-02-13T08:34:57Z</time>
      </trkpt>
      <trkpt lat="48.22357" lon="7.13532">
        <ele>807.4</ele>
        <time>2022-02-13T08:35:03Z</time>
      </trkpt>
      <trkpt lat="48.22354" lon="7.13546">
        <ele>807.4</ele>
        <time>2022-02-13T08:35:11Z</time>
      </trkpt>
      <trkpt lat="48.22355" lon="7.1356">
        <ele>807.4</ele>
        <time>2022-02-13T08:35:19Z</time>
      </trkpt>
      <trkpt lat="48.22356" lon="7.13574">
        <ele>807.3</ele>
        <time>2022-02-13T08:35:26Z</time>
      </trkpt>
      <trkpt lat="48.22358" lon="7.13589">
        <ele>807.3</ele>
        <time>2022-02-13T08:35:34Z</time>
      </trkpt>
      <trkpt lat="48.2236" lon="7.13604">
        <ele>807.4</ele>
        <time>2022-02-13T08:35:41Z</time>
      </trkpt>
      <trkpt lat="48.22355" lon="7.13616">
        <ele>807.3</ele>
        <time>2022-02-13T08:35:49Z</time>
      </trkpt>
      <trkpt lat="48.22352" lon="7.13631">
        <ele>807</ele>
        <time>2022-02-13T08:35:57Z</time>
      </trkpt>
      <trkpt lat="48.22358" lon="7.13641">
        <ele>806.5</ele>
        <time>2022-02-13T08:36:05Z</time>
      </trkpt>
      <trkpt lat="48.22368" lon="7.13643">
        <ele>805.7</ele>
        <time>2022-02-13T08:36:13Z</time>
      </trkpt>
      <trkpt lat="48.22369" lon="7.13657">
        <ele>804.6</ele>
        <time>2022-02-13T08:36:22Z</time>
      </trkpt>
      <trkpt lat="48.22379" lon="7.1366">
        <ele>803.3</ele>
        <time>2022-02-13T08:36:31Z</time>
      </trkpt>
      <trkpt lat="48.22389" lon="7.13658">
        <ele>802.1</ele>
        <time>2022-02-13T08:36:35Z</time>
      </trkpt>
      <trkpt lat="48.22398" lon="7.13653">
        <ele>801.1</ele>
        <time>2022-02-13T08:36:41Z</time>
      </trkpt>
      <trkpt lat="48.22407" lon="7.13657">
        <ele>800.4</ele>
        <time>2022-02-13T08:36:46Z</time>
      </trkpt>
      <trkpt lat="48.22418" lon="7.13658">
        <ele>799.5</ele>
        <time>2022-02-13T08:36:52Z</time>
      </trkpt>
      <trkpt lat="48.22427" lon="7.13653">
        <ele>798.7</ele>
        <time>2022-02-13T08:36:56Z</time>
      </trkpt>
      <trkpt lat="48.22436" lon="7.13656">
        <ele>794.9</ele>
        <time>2022-02-13T08:37:05Z</time>
      </trkpt>
      <trkpt lat="48.22444" lon="7.13663">
        <ele>793.8</ele>
        <time>2022-02-13T08:37:12Z</time>
      </trkpt>
      <trkpt lat="48.22453" lon="7.13662">
        <ele>792.7</ele>
        <time>2022-02-13T08:37:19Z</time>
      </trkpt>
      <trkpt lat="48.22451" lon="7.13649">
        <ele>791.5</ele>
        <time>2022-02-13T08:37:29Z</time>
      </trkpt>
      <trkpt lat="48.22443" lon="7.13659">
        <ele>790.2</ele>
        <time>2022-02-13T08:37:42Z</time>
      </trkpt>
      <trkpt lat="48.22436" lon="7.13668">
        <ele>789</ele>
        <time>2022-02-13T08:37:50Z</time>
      </trkpt>
      <trkpt lat="48.2244" lon="7.13669">
        <ele>788.5</ele>
        <time>2022-02-13T08:38:21Z</time>
      </trkpt>
      <trkpt lat="48.2244" lon="7.13667">
        <ele>788.4</ele>
        <time>2022-02-13T08:38:22Z</time>
      </trkpt>
      <trkpt lat="48.22446" lon="7.13679">
        <ele>787.1</ele>
        <time>2022-02-13T08:38:37Z</time>
      </trkpt>
      <trkpt lat="48.22446" lon="7.13695">
        <ele>785.7</ele>
        <time>2022-02-13T08:38:47Z</time>
      </trkpt>
      <trkpt lat="48.22445" lon="7.1371">
        <ele>784.5</ele>
        <time>2022-02-13T08:38:53Z</time>
      </trkpt>
      <trkpt lat="48.22443" lon="7.13724">
        <ele>783.4</ele>
        <time>2022-02-13T08:39:04Z</time>
      </trkpt>
      <trkpt lat="48.2244" lon="7.13727">
        <ele>783</ele>
        <time>2022-02-13T08:39:09Z</time>
      </trkpt>
      <trkpt lat="48.22439" lon="7.13729">
        <ele>782.8</ele>
        <time>2022-02-13T08:39:10Z</time>
      </trkpt>
      <trkpt lat="48.22437" lon="7.13742">
        <ele>781.9</ele>
        <time>2022-02-13T08:39:17Z</time>
      </trkpt>
      <trkpt lat="48.22441" lon="7.13755">
        <ele>780.9</ele>
        <time>2022-02-13T08:39:25Z</time>
      </trkpt>
      <trkpt lat="48.22443" lon="7.1377">
        <ele>779.8</ele>
        <time>2022-02-13T08:39:31Z</time>
      </trkpt>
      <trkpt lat="48.2244" lon="7.13784">
        <ele>778.8</ele>
        <time>2022-02-13T08:39:36Z</time>
      </trkpt>
      <trkpt lat="48.22439" lon="7.13796">
        <ele>777.9</ele>
        <time>2022-02-13T08:39:44Z</time>
      </trkpt>
      <trkpt lat="48.22439" lon="7.13796">
        <ele>777.9</ele>
        <time>2022-02-13T08:39:45Z</time>
      </trkpt>
      <trkpt lat="48.22438" lon="7.13797">
        <ele>777.7</ele>
        <time>2022-02-13T08:39:48Z</time>
      </trkpt>
      <trkpt lat="48.22438" lon="7.13797">
        <ele>777.3</ele>
        <time>2022-02-13T08:39:49Z</time>
      </trkpt>
      <trkpt lat="48.22438" lon="7.13797">
        <ele>777.2</ele>
        <time>2022-02-13T08:39:56Z</time>
      </trkpt>
      <trkpt lat="48.22439" lon="7.13797">
        <ele>777.2</ele>
        <time>2022-02-13T08:39:57Z</time>
      </trkpt>
      <trkpt lat="48.22439" lon="7.13783">
        <ele>776.6</ele>
        <time>2022-02-13T08:40:10Z</time>
      </trkpt>
      <trkpt lat="48.22443" lon="7.13768">
        <ele>776.1</ele>
        <time>2022-02-13T08:40:17Z</time>
      </trkpt>
      <trkpt lat="48.22442" lon="7.13755">
        <ele>775.7</ele>
        <time>2022-02-13T08:40:24Z</time>
      </trkpt>
      <trkpt lat="48.22444" lon="7.13741">
        <ele>775.2</ele>
        <time>2022-02-13T08:40:31Z</time>
      </trkpt>
      <trkpt lat="48.22441" lon="7.13727">
        <ele>774.7</ele>
        <time>2022-02-13T08:40:39Z</time>
      </trkpt>
      <trkpt lat="48.22438" lon="7.13714">
        <ele>774.4</ele>
        <time>2022-02-13T08:40:45Z</time>
      </trkpt>
      <trkpt lat="48.22434" lon="7.137">
        <ele>774</ele>
        <time>2022-02-13T08:40:53Z</time>
      </trkpt>
      <trkpt lat="48.22427" lon="7.13689">
        <ele>773.7</ele>
        <time>2022-02-13T08:41:00Z</time>
      </trkpt>
      <trkpt lat="48.22422" lon="7.13677">
        <ele>773.5</ele>
        <time>2022-02-13T08:41:10Z</time>
      </trkpt>
      <trkpt lat="48.22413" lon="7.1367">
        <ele>773.1</ele>
        <time>2022-02-13T08:41:20Z</time>
      </trkpt>
      <trkpt lat="48.22403" lon="7.13672">
        <ele>772.8</ele>
        <time>2022-02-13T08:41:25Z</time>
      </trkpt>
      <trkpt lat="48.224" lon="7.1368">
        <ele>772.5</ele>
        <time>2022-02-13T08:41:35Z</time>
      </trkpt>
      <trkpt lat="48.22399" lon="7.1368">
        <ele>772.5</ele>
        <time>2022-02-13T08:41:36Z</time>
      </trkpt>
      <trkpt lat="48.2239" lon="7.13681">
        <ele>772.2</ele>
        <time>2022-02-13T08:41:44Z</time>
      </trkpt>
      <trkpt lat="48.2238" lon="7.13679">
        <ele>772</ele>
        <time>2022-02-13T08:41:49Z</time>
      </trkpt>
      <trkpt lat="48.22371" lon="7.13679">
        <ele>771.8</ele>
        <time>2022-02-13T08:41:57Z</time>
      </trkpt>
      <trkpt lat="48.22361" lon="7.13679">
        <ele>771.5</ele>
        <time>2022-02-13T08:42:01Z</time>
      </trkpt>
      <trkpt lat="48.22351" lon="7.13678">
        <ele>771.2</ele>
        <time>2022-02-13T08:42:06Z</time>
      </trkpt>
      <trkpt lat="48.22342" lon="7.13679">
        <ele>770.8</ele>
        <time>2022-02-13T08:42:12Z</time>
      </trkpt>
      <trkpt lat="48.22335" lon="7.1367">
        <ele>770.3</ele>
        <time>2022-02-13T08:42:19Z</time>
      </trkpt>
      <trkpt lat="48.22326" lon="7.13665">
        <ele>769.9</ele>
        <time>2022-02-13T08:42:28Z</time>
      </trkpt>
      <trkpt lat="48.22322" lon="7.13653">
        <ele>769.5</ele>
        <time>2022-02-13T08:42:37Z</time>
      </trkpt>
      <trkpt lat="48.22324" lon="7.13638">
        <ele>769.1</ele>
        <time>2022-02-13T08:42:44Z</time>
      </trkpt>
      <trkpt lat="48.22324" lon="7.13625">
        <ele>768.7</ele>
        <time>2022-02-13T08:42:51Z</time>
      </trkpt>
      <trkpt lat="48.22321" lon="7.1361">
        <ele>768.3</ele>
        <time>2022-02-13T08:42:58Z</time>
      </trkpt>
      <trkpt lat="48.22315" lon="7.13599">
        <ele>768</ele>
        <time>2022-02-13T08:43:07Z</time>
      </trkpt>
      <trkpt lat="48.22315" lon="7.13585">
        <ele>767.8</ele>
        <time>2022-02-13T08:43:17Z</time>
      </trkpt>
      <trkpt lat="48.22306" lon="7.1358">
        <ele>767.7</ele>
        <time>2022-02-13T08:43:26Z</time>
      </trkpt>
      <trkpt lat="48.22297" lon="7.13584">
        <ele>767.4</ele>
        <time>2022-02-13T08:43:35Z</time>
      </trkpt>
      <trkpt lat="48.22288" lon="7.13582">
        <ele>767</ele>
        <time>2022-02-13T08:43:40Z</time>
      </trkpt>
      <trkpt lat="48.22277" lon="7.13581">
        <ele>766.5</ele>
        <time>2022-02-13T08:43:45Z</time>
      </trkpt>
      <trkpt lat="48.22267" lon="7.13586">
        <ele>766</ele>
        <time>2022-02-13T08:43:50Z</time>
      </trkpt>
      <trkpt lat="48.22259" lon="7.13593">
        <ele>765.6</ele>
        <time>2022-02-13T08:43:54Z</time>
      </trkpt>
      <trkpt lat="48.22248" lon="7.13594">
        <ele>765.1</ele>
        <time>2022-02-13T08:43:59Z</time>
      </trkpt>
      <trkpt lat="48.22238" lon="7.13595">
        <ele>764.6</ele>
        <time>2022-02-13T08:44:07Z</time>
      </trkpt>
      <trkpt lat="48.22229" lon="7.13596">
        <ele>764.2</ele>
        <time>2022-02-13T08:44:14Z</time>
      </trkpt>
      <trkpt lat="48.22218" lon="7.13597">
        <ele>763.8</ele>
        <time>2022-02-13T08:44:28Z</time>
      </trkpt>
      <trkpt lat="48.22209" lon="7.13599">
        <ele>763.5</ele>
        <time>2022-02-13T08:44:32Z</time>
      </trkpt>
      <trkpt lat="48.222" lon="7.13592">
        <ele>763.3</ele>
        <time>2022-02-13T08:44:37Z</time>
      </trkpt>
      <trkpt lat="48.22191" lon="7.13596">
        <ele>763</ele>
        <time>2022-02-13T08:44:49Z</time>
      </trkpt>
      <trkpt lat="48.22182" lon="7.13596">
        <ele>762.7</ele>
        <time>2022-02-13T08:44:52Z</time>
      </trkpt>
      <trkpt lat="48.22171" lon="7.13597">
        <ele>762.4</ele>
        <time>2022-02-13T08:44:55Z</time>
      </trkpt>
      <trkpt lat="48.22162" lon="7.13593">
        <ele>762</ele>
        <time>2022-02-13T08:45:01Z</time>
      </trkpt>
      <trkpt lat="48.22153" lon="7.13601">
        <ele>761.7</ele>
        <time>2022-02-13T08:45:04Z</time>
      </trkpt>
      <trkpt lat="48.22146" lon="7.1359">
        <ele>761.3</ele>
        <time>2022-02-13T08:45:13Z</time>
      </trkpt>
      <trkpt lat="48.22137" lon="7.13601">
        <ele>760.9</ele>
        <time>2022-02-13T08:45:18Z</time>
      </trkpt>
      <trkpt lat="48.22129" lon="7.13607">
        <ele>760.6</ele>
        <time>2022-02-13T08:45:36Z</time>
      </trkpt>
      <trkpt lat="48.22124" lon="7.13606">
        <ele>760.5</ele>
        <time>2022-02-13T08:45:41Z</time>
      </trkpt>
      <trkpt lat="48.22123" lon="7.13606">
        <ele>760.5</ele>
        <time>2022-02-13T08:45:42Z</time>
      </trkpt>
      <trkpt lat="48.22113" lon="7.13609">
        <ele>760.3</ele>
        <time>2022-02-13T08:45:46Z</time>
      </trkpt>
      <trkpt lat="48.22106" lon="7.13598">
        <ele>760.1</ele>
        <time>2022-02-13T08:45:57Z</time>
      </trkpt>
      <trkpt lat="48.22097" lon="7.13593">
        <ele>759.9</ele>
        <time>2022-02-13T08:46:04Z</time>
      </trkpt>
      <trkpt lat="48.22093" lon="7.13578">
        <ele>759.8</ele>
        <time>2022-02-13T08:46:15Z</time>
      </trkpt>
      <trkpt lat="48.22084" lon="7.13571">
        <ele>759.7</ele>
        <time>2022-02-13T08:46:21Z</time>
      </trkpt>
      <trkpt lat="48.22075" lon="7.13565">
        <ele>759.6</ele>
        <time>2022-02-13T08:46:27Z</time>
      </trkpt>
      <trkpt lat="48.22065" lon="7.13561">
        <ele>759.5</ele>
        <time>2022-02-13T08:46:34Z</time>
      </trkpt>
      <trkpt lat="48.22055" lon="7.13556">
        <ele>759.4</ele>
        <time>2022-02-13T08:46:40Z</time>
      </trkpt>
      <trkpt lat="48.22046" lon="7.13553">
        <ele>759.3</ele>
        <time>2022-02-13T08:46:47Z</time>
      </trkpt>
      <trkpt lat="48.22041" lon="7.13541">
        <ele>759.1</ele>
        <time>2022-02-13T08:46:55Z</time>
      </trkpt>
      <trkpt lat="48.22032" lon="7.13536">
        <ele>759.1</ele>
        <time>2022-02-13T08:47:02Z</time>
      </trkpt>
      <trkpt lat="48.22024" lon="7.1353">
        <ele>759</ele>
        <time>2022-02-13T08:47:09Z</time>
      </trkpt>
      <trkpt lat="48.22015" lon="7.13525">
        <ele>758.9</ele>
        <time>2022-02-13T08:47:17Z</time>
      </trkpt>
      <trkpt lat="48.22006" lon="7.13529">
        <ele>758.7</ele>
        <time>2022-02-13T08:47:23Z</time>
      </trkpt>
      <trkpt lat="48.22002" lon="7.13515">
        <ele>758.5</ele>
        <time>2022-02-13T08:47:30Z</time>
      </trkpt>
      <trkpt lat="48.21995" lon="7.13506">
        <ele>758.1</ele>
        <time>2022-02-13T08:47:38Z</time>
      </trkpt>
      <trkpt lat="48.21989" lon="7.13495">
        <ele>757.5</ele>
        <time>2022-02-13T08:47:46Z</time>
      </trkpt>
      <trkpt lat="48.21982" lon="7.13483">
        <ele>756.8</ele>
        <time>2022-02-13T08:47:54Z</time>
      </trkpt>
      <trkpt lat="48.21974" lon="7.13475">
        <ele>756.2</ele>
        <time>2022-02-13T08:48:02Z</time>
      </trkpt>
      <trkpt lat="48.21965" lon="7.13472">
        <ele>755.6</ele>
        <time>2022-02-13T08:48:10Z</time>
      </trkpt>
      <trkpt lat="48.21954" lon="7.13468">
        <ele>755.1</ele>
        <time>2022-02-13T08:48:18Z</time>
      </trkpt>
      <trkpt lat="48.21956" lon="7.13452">
        <ele>754.7</ele>
        <time>2022-02-13T08:48:21Z</time>
      </trkpt>
      <trkpt lat="48.21953" lon="7.13438">
        <ele>754.3</ele>
        <time>2022-02-13T08:48:26Z</time>
      </trkpt>
      <trkpt lat="48.21953" lon="7.13424">
        <ele>754</ele>
        <time>2022-02-13T08:48:30Z</time>
      </trkpt>
      <trkpt lat="48.21957" lon="7.1341">
        <ele>753.7</ele>
        <time>2022-02-13T08:48:36Z</time>
      </trkpt>
      <trkpt lat="48.21951" lon="7.13399">
        <ele>753.5</ele>
        <time>2022-02-13T08:48:43Z</time>
      </trkpt>
      <trkpt lat="48.21952" lon="7.13385">
        <ele>753.4</ele>
        <time>2022-02-13T08:48:51Z</time>
      </trkpt>
      <trkpt lat="48.21948" lon="7.13371">
        <ele>753.1</ele>
        <time>2022-02-13T08:49:00Z</time>
      </trkpt>
      <trkpt lat="48.21941" lon="7.1336">
        <ele>752.8</ele>
        <time>2022-02-13T08:49:07Z</time>
      </trkpt>
      <trkpt lat="48.2194" lon="7.13344">
        <ele>752.5</ele>
        <time>2022-02-13T08:49:15Z</time>
      </trkpt>
      <trkpt lat="48.21936" lon="7.1333">
        <ele>752.3</ele>
        <time>2022-02-13T08:49:22Z</time>
      </trkpt>
      <trkpt lat="48.21934" lon="7.13314">
        <ele>752.1</ele>
        <time>2022-02-13T08:49:29Z</time>
      </trkpt>
      <trkpt lat="48.21927" lon="7.13303">
        <ele>751.9</ele>
        <time>2022-02-13T08:49:34Z</time>
      </trkpt>
      <trkpt lat="48.21919" lon="7.13297">
        <ele>751.8</ele>
        <time>2022-02-13T08:49:39Z</time>
      </trkpt>
      <trkpt lat="48.21907" lon="7.13293">
        <ele>751.4</ele>
        <time>2022-02-13T08:49:44Z</time>
      </trkpt>
      <trkpt lat="48.21897" lon="7.13298">
        <ele>751.3</ele>
        <time>2022-02-13T08:49:49Z</time>
      </trkpt>
      <trkpt lat="48.21902" lon="7.13285">
        <ele>751.2</ele>
        <time>2022-02-13T08:50:04Z</time>
      </trkpt>
      <trkpt lat="48.21894" lon="7.13276">
        <ele>751.2</ele>
        <time>2022-02-13T08:50:33Z</time>
      </trkpt>
      <trkpt lat="48.21884" lon="7.13277">
        <ele>751.2</ele>
        <time>2022-02-13T08:50:41Z</time>
      </trkpt>
      <trkpt lat="48.21875" lon="7.13273">
        <ele>751.1</ele>
        <time>2022-02-13T08:50:48Z</time>
      </trkpt>
      <trkpt lat="48.21865" lon="7.1327">
        <ele>751</ele>
        <time>2022-02-13T08:50:54Z</time>
      </trkpt>
      <trkpt lat="48.21856" lon="7.13263">
        <ele>750.8</ele>
        <time>2022-02-13T08:50:58Z</time>
      </trkpt>
      <trkpt lat="48.21846" lon="7.1326">
        <ele>750.7</ele>
        <time>2022-02-13T08:51:04Z</time>
      </trkpt>
      <trkpt lat="48.21839" lon="7.13249">
        <ele>750.5</ele>
        <time>2022-02-13T08:51:11Z</time>
      </trkpt>
      <trkpt lat="48.21837" lon="7.13235">
        <ele>750.4</ele>
        <time>2022-02-13T08:51:22Z</time>
      </trkpt>
      <trkpt lat="48.21828" lon="7.13229">
        <ele>750.3</ele>
        <time>2022-02-13T08:51:28Z</time>
      </trkpt>
      <trkpt lat="48.21819" lon="7.13222">
        <ele>750.1</ele>
        <time>2022-02-13T08:51:33Z</time>
      </trkpt>
      <trkpt lat="48.21811" lon="7.13215">
        <ele>750</ele>
        <time>2022-02-13T08:51:41Z</time>
      </trkpt>
      <trkpt lat="48.21801" lon="7.13212">
        <ele>749.8</ele>
        <time>2022-02-13T08:51:49Z</time>
      </trkpt>
      <trkpt lat="48.21792" lon="7.13206">
        <ele>749.7</ele>
        <time>2022-02-13T08:51:55Z</time>
      </trkpt>
      <trkpt lat="48.21783" lon="7.13211">
        <ele>749.5</ele>
        <time>2022-02-13T08:52:03Z</time>
      </trkpt>
      <trkpt lat="48.21773" lon="7.13208">
        <ele>749.5</ele>
        <time>2022-02-13T08:52:13Z</time>
      </trkpt>
      <trkpt lat="48.21763" lon="7.13204">
        <ele>749.5</ele>
        <time>2022-02-13T08:52:18Z</time>
      </trkpt>
      <trkpt lat="48.21754" lon="7.13197">
        <ele>749.6</ele>
        <time>2022-02-13T08:52:26Z</time>
      </trkpt>
      <trkpt lat="48.21744" lon="7.13197">
        <ele>749.5</ele>
        <time>2022-02-13T08:52:32Z</time>
      </trkpt>
      <trkpt lat="48.21735" lon="7.13194">
        <ele>749.3</ele>
        <time>2022-02-13T08:52:38Z</time>
      </trkpt>
      <trkpt lat="48.21727" lon="7.13188">
        <ele>749</ele>
        <time>2022-02-13T08:52:48Z</time>
      </trkpt>
      <trkpt lat="48.21719" lon="7.1318">
        <ele>748.6</ele>
        <time>2022-02-13T08:53:02Z</time>
      </trkpt>
      <trkpt lat="48.21711" lon="7.13171">
        <ele>748.1</ele>
        <time>2022-02-13T08:53:11Z</time>
      </trkpt>
      <trkpt lat="48.21702" lon="7.13174">
        <ele>747.5</ele>
        <time>2022-02-13T08:53:16Z</time>
      </trkpt>
      <trkpt lat="48.21693" lon="7.13175">
        <ele>746.8</ele>
        <time>2022-02-13T08:53:23Z</time>
      </trkpt>
      <trkpt lat="48.21683" lon="7.1318">
        <ele>746</ele>
        <time>2022-02-13T08:53:29Z</time>
      </trkpt>
      <trkpt lat="48.21673" lon="7.13178">
        <ele>745.2</ele>
        <time>2022-02-13T08:53:36Z</time>
      </trkpt>
      <trkpt lat="48.21664" lon="7.1318">
        <ele>744.5</ele>
        <time>2022-02-13T08:53:45Z</time>
      </trkpt>
      <trkpt lat="48.21654" lon="7.13173">
        <ele>743.7</ele>
        <time>2022-02-13T08:53:53Z</time>
      </trkpt>
      <trkpt lat="48.21645" lon="7.13164">
        <ele>743</ele>
        <time>2022-02-13T08:54:01Z</time>
      </trkpt>
      <trkpt lat="48.21635" lon="7.13165">
        <ele>742.3</ele>
        <time>2022-02-13T08:54:07Z</time>
      </trkpt>
      <trkpt lat="48.21627" lon="7.13159">
        <ele>741.5</ele>
        <time>2022-02-13T08:54:14Z</time>
      </trkpt>
      <trkpt lat="48.21619" lon="7.13151">
        <ele>740.8</ele>
        <time>2022-02-13T08:54:24Z</time>
      </trkpt>
      <trkpt lat="48.21618" lon="7.1315">
        <ele>740.7</ele>
        <time>2022-02-13T08:54:26Z</time>
      </trkpt>
      <trkpt lat="48.21618" lon="7.13149">
        <ele>740.6</ele>
        <time>2022-02-13T08:54:27Z</time>
      </trkpt>
      <trkpt lat="48.2161" lon="7.13139">
        <ele>739.9</ele>
        <time>2022-02-13T08:54:52Z</time>
      </trkpt>
      <trkpt lat="48.21603" lon="7.1313">
        <ele>739.1</ele>
        <time>2022-02-13T08:55:02Z</time>
      </trkpt>
      <trkpt lat="48.21597" lon="7.13119">
        <ele>738.3</ele>
        <time>2022-02-13T08:55:12Z</time>
      </trkpt>
      <trkpt lat="48.21588" lon="7.13113">
        <ele>737.4</ele>
        <time>2022-02-13T08:55:20Z</time>
      </trkpt>
      <trkpt lat="48.21585" lon="7.131">
        <ele>736.6</ele>
        <time>2022-02-13T08:55:28Z</time>
      </trkpt>
      <trkpt lat="48.21576" lon="7.13091">
        <ele>735.8</ele>
        <time>2022-02-13T08:55:37Z</time>
      </trkpt>
      <trkpt lat="48.2157" lon="7.1308">
        <ele>735</ele>
        <time>2022-02-13T08:55:44Z</time>
      </trkpt>
      <trkpt lat="48.21568" lon="7.13065">
        <ele>734.2</ele>
        <time>2022-02-13T08:55:49Z</time>
      </trkpt>
      <trkpt lat="48.21559" lon="7.13056">
        <ele>733.2</ele>
        <time>2022-02-13T08:55:55Z</time>
      </trkpt>
      <trkpt lat="48.21549" lon="7.13048">
        <ele>732</ele>
        <time>2022-02-13T08:56:02Z</time>
      </trkpt>
      <trkpt lat="48.21539" lon="7.13046">
        <ele>730.6</ele>
        <time>2022-02-13T08:56:07Z</time>
      </trkpt>
      <trkpt lat="48.21531" lon="7.13037">
        <ele>729.2</ele>
        <time>2022-02-13T08:56:16Z</time>
      </trkpt>
      <trkpt lat="48.21523" lon="7.13032">
        <ele>727.9</ele>
        <time>2022-02-13T08:56:25Z</time>
      </trkpt>
      <trkpt lat="48.21516" lon="7.13023">
        <ele>726.6</ele>
        <time>2022-02-13T08:56:31Z</time>
      </trkpt>
      <trkpt lat="48.21508" lon="7.13013">
        <ele>724.9</ele>
        <time>2022-02-13T08:56:37Z</time>
      </trkpt>
      <trkpt lat="48.215" lon="7.13005">
        <ele>723.5</ele>
        <time>2022-02-13T08:56:44Z</time>
      </trkpt>
      <trkpt lat="48.2149" lon="7.13004">
        <ele>722</ele>
        <time>2022-02-13T08:56:49Z</time>
      </trkpt>
      <trkpt lat="48.21483" lon="7.12995">
        <ele>720.7</ele>
        <time>2022-02-13T08:56:59Z</time>
      </trkpt>
      <trkpt lat="48.21487" lon="7.12986">
        <ele>719.7</ele>
        <time>2022-02-13T08:57:13Z</time>
      </trkpt>
      <trkpt lat="48.21486" lon="7.12985">
        <ele>719.6</ele>
        <time>2022-02-13T08:57:14Z</time>
      </trkpt>
      <trkpt lat="48.21485" lon="7.12988">
        <ele>719.3</ele>
        <time>2022-02-13T08:57:23Z</time>
      </trkpt>
      <trkpt lat="48.21486" lon="7.12989">
        <ele>719.2</ele>
        <time>2022-02-13T08:57:24Z</time>
      </trkpt>
      <trkpt lat="48.21486" lon="7.12988">
        <ele>719.1</ele>
        <time>2022-02-13T08:57:25Z</time>
      </trkpt>
      <trkpt lat="48.21486" lon="7.12988">
        <ele>719.1</ele>
        <time>2022-02-13T08:57:26Z</time>
      </trkpt>
      <trkpt lat="48.21489" lon="7.12987">
        <ele>718.5</ele>
        <time>2022-02-13T08:58:00Z</time>
      </trkpt>
      <trkpt lat="48.21489" lon="7.12987">
        <ele>718.5</ele>
        <time>2022-02-13T08:58:01Z</time>
      </trkpt>
      <trkpt lat="48.21489" lon="7.12987">
        <ele>718.5</ele>
        <time>2022-02-13T08:58:02Z</time>
      </trkpt>
      <trkpt lat="48.21489" lon="7.12988">
        <ele>718.3</ele>
        <time>2022-02-13T08:58:05Z</time>
      </trkpt>
      <trkpt lat="48.21493" lon="7.12983">
        <ele>717.6</ele>
        <time>2022-02-13T08:58:28Z</time>
      </trkpt>
      <trkpt lat="48.21494" lon="7.12981">
        <ele>717.4</ele>
        <time>2022-02-13T08:58:29Z</time>
      </trkpt>
      <trkpt lat="48.21484" lon="7.12985">
        <ele>715.9</ele>
        <time>2022-02-13T08:58:35Z</time>
      </trkpt>
      <trkpt lat="48.21481" lon="7.12983">
        <ele>715.3</ele>
        <time>2022-02-13T08:58:44Z</time>
      </trkpt>
      <trkpt lat="48.21481" lon="7.12982">
        <ele>715.3</ele>
        <time>2022-02-13T08:58:45Z</time>
      </trkpt>
      <trkpt lat="48.21481" lon="7.12967">
        <ele>713.6</ele>
        <time>2022-02-13T08:58:54Z</time>
      </trkpt>
      <trkpt lat="48.21475" lon="7.12953">
        <ele>712.2</ele>
        <time>2022-02-13T08:59:04Z</time>
      </trkpt>
      <trkpt lat="48.21468" lon="7.12945">
        <ele>710.9</ele>
        <time>2022-02-13T08:59:12Z</time>
      </trkpt>
      <trkpt lat="48.21458" lon="7.12946">
        <ele>709.6</ele>
        <time>2022-02-13T08:59:19Z</time>
      </trkpt>
      <trkpt lat="48.21449" lon="7.12949">
        <ele>708.2</ele>
        <time>2022-02-13T08:59:26Z</time>
      </trkpt>
      <trkpt lat="48.21438" lon="7.12945">
        <ele>706.6</ele>
        <time>2022-02-13T08:59:36Z</time>
      </trkpt>
      <trkpt lat="48.21429" lon="7.12943">
        <ele>705.3</ele>
        <time>2022-02-13T08:59:42Z</time>
      </trkpt>
      <trkpt lat="48.2142" lon="7.12938">
        <ele>704</ele>
        <time>2022-02-13T08:59:50Z</time>
      </trkpt>
      <trkpt lat="48.21409" lon="7.12934">
        <ele>702.6</ele>
        <time>2022-02-13T09:00:00Z</time>
      </trkpt>
      <trkpt lat="48.214" lon="7.12935">
        <ele>701.4</ele>
        <time>2022-02-13T09:00:07Z</time>
      </trkpt>
      <trkpt lat="48.2139" lon="7.12937">
        <ele>700.1</ele>
        <time>2022-02-13T09:00:12Z</time>
      </trkpt>
      <trkpt lat="48.21381" lon="7.12942">
        <ele>698.8</ele>
        <time>2022-02-13T09:00:19Z</time>
      </trkpt>
      <trkpt lat="48.21371" lon="7.12947">
        <ele>697.3</ele>
        <time>2022-02-13T09:00:25Z</time>
      </trkpt>
      <trkpt lat="48.21361" lon="7.12948">
        <ele>695.8</ele>
        <time>2022-02-13T09:00:30Z</time>
      </trkpt>
      <trkpt lat="48.21352" lon="7.1295">
        <ele>694.4</ele>
        <time>2022-02-13T09:00:35Z</time>
      </trkpt>
      <trkpt lat="48.21344" lon="7.1296">
        <ele>691.9</ele>
        <time>2022-02-13T09:00:44Z</time>
      </trkpt>
      <trkpt lat="48.21335" lon="7.12962">
        <ele>690.8</ele>
        <time>2022-02-13T09:00:52Z</time>
      </trkpt>
      <trkpt lat="48.21326" lon="7.12958">
        <ele>689.7</ele>
        <time>2022-02-13T09:00:58Z</time>
      </trkpt>
      <trkpt lat="48.21323" lon="7.12949">
        <ele>689</ele>
        <time>2022-02-13T09:01:06Z</time>
      </trkpt>
      <trkpt lat="48.21323" lon="7.12949">
        <ele>688.9</ele>
        <time>2022-02-13T09:01:07Z</time>
      </trkpt>
      <trkpt lat="48.21314" lon="7.12946">
        <ele>687.9</ele>
        <time>2022-02-13T09:01:16Z</time>
      </trkpt>
      <trkpt lat="48.21306" lon="7.12936">
        <ele>686.8</ele>
        <time>2022-02-13T09:01:25Z</time>
      </trkpt>
      <trkpt lat="48.21301" lon="7.12924">
        <ele>685.6</ele>
        <time>2022-02-13T09:01:38Z</time>
      </trkpt>
      <trkpt lat="48.21294" lon="7.12915">
        <ele>684.5</ele>
        <time>2022-02-13T09:01:45Z</time>
      </trkpt>
      <trkpt lat="48.21292" lon="7.129">
        <ele>683.2</ele>
        <time>2022-02-13T09:01:54Z</time>
      </trkpt>
      <trkpt lat="48.21291" lon="7.12894">
        <ele>682.8</ele>
        <time>2022-02-13T09:02:03Z</time>
      </trkpt>
      <trkpt lat="48.21291" lon="7.12894">
        <ele>682.8</ele>
        <time>2022-02-13T09:02:04Z</time>
      </trkpt>
      <trkpt lat="48.21283" lon="7.12887">
        <ele>681.7</ele>
        <time>2022-02-13T09:02:20Z</time>
      </trkpt>
      <trkpt lat="48.21278" lon="7.12876">
        <ele>680.7</ele>
        <time>2022-02-13T09:02:25Z</time>
      </trkpt>
      <trkpt lat="48.21275" lon="7.1288">
        <ele>680.3</ele>
        <time>2022-02-13T09:02:37Z</time>
      </trkpt>
      <trkpt lat="48.21274" lon="7.12882">
        <ele>680.2</ele>
        <time>2022-02-13T09:02:38Z</time>
      </trkpt>
      <trkpt lat="48.21264" lon="7.12893">
        <ele>679</ele>
        <time>2022-02-13T09:02:43Z</time>
      </trkpt>
      <trkpt lat="48.21252" lon="7.1289">
        <ele>678</ele>
        <time>2022-02-13T09:02:44Z</time>
      </trkpt>
      <trkpt lat="48.2124" lon="7.12888">
        <ele>676.9</ele>
        <time>2022-02-13T09:02:45Z</time>
      </trkpt>
      <trkpt lat="48.21231" lon="7.12886">
        <ele>676</ele>
        <time>2022-02-13T09:02:46Z</time>
      </trkpt>
      <trkpt lat="48.21219" lon="7.12886">
        <ele>674.8</ele>
        <time>2022-02-13T09:02:48Z</time>
      </trkpt>
      <trkpt lat="48.21208" lon="7.12887">
        <ele>673.7</ele>
        <time>2022-02-13T09:02:50Z</time>
      </trkpt>
      <trkpt lat="48.21198" lon="7.12886">
        <ele>672.6</ele>
        <time>2022-02-13T09:02:58Z</time>
      </trkpt>
      <trkpt lat="48.21188" lon="7.12885">
        <ele>671.6</ele>
        <time>2022-02-13T09:03:16Z</time>
      </trkpt>
      <trkpt lat="48.21179" lon="7.12881">
        <ele>670.5</ele>
        <time>2022-02-13T09:03:20Z</time>
      </trkpt>
      <trkpt lat="48.2117" lon="7.12883">
        <ele>669.5</ele>
        <time>2022-02-13T09:03:27Z</time>
      </trkpt>
      <trkpt lat="48.21161" lon="7.12886">
        <ele>668.3</ele>
        <time>2022-02-13T09:03:34Z</time>
      </trkpt>
      <trkpt lat="48.2116" lon="7.12901">
        <ele>667.9</ele>
        <time>2022-02-13T09:03:40Z</time>
      </trkpt>
      <trkpt lat="48.21164" lon="7.12913">
        <ele>667.3</ele>
        <time>2022-02-13T09:03:45Z</time>
      </trkpt>
      <trkpt lat="48.21172" lon="7.12924">
        <ele>666.5</ele>
        <time>2022-02-13T09:03:51Z</time>
      </trkpt>
      <trkpt lat="48.21183" lon="7.12927">
        <ele>665.8</ele>
        <time>2022-02-13T09:03:58Z</time>
      </trkpt>
      <trkpt lat="48.21191" lon="7.12931">
        <ele>665.3</ele>
        <time>2022-02-13T09:04:06Z</time>
      </trkpt>
      <trkpt lat="48.21201" lon="7.12932">
        <ele>664.8</ele>
        <time>2022-02-13T09:04:14Z</time>
      </trkpt>
      <trkpt lat="48.21211" lon="7.12936">
        <ele>664.3</ele>
        <time>2022-02-13T09:04:19Z</time>
      </trkpt>
      <trkpt lat="48.2122" lon="7.1294">
        <ele>663.8</ele>
        <time>2022-02-13T09:04:27Z</time>
      </trkpt>
      <trkpt lat="48.21229" lon="7.12948">
        <ele>663.2</ele>
        <time>2022-02-13T09:04:37Z</time>
      </trkpt>
      <trkpt lat="48.21236" lon="7.12959">
        <ele>662.6</ele>
        <time>2022-02-13T09:04:43Z</time>
      </trkpt>
      <trkpt lat="48.21243" lon="7.12968">
        <ele>662</ele>
        <time>2022-02-13T09:04:54Z</time>
      </trkpt>
      <trkpt lat="48.21242" lon="7.12982">
        <ele>661.5</ele>
        <time>2022-02-13T09:05:04Z</time>
      </trkpt>
      <trkpt lat="48.21243" lon="7.12997">
        <ele>660.9</ele>
        <time>2022-02-13T09:05:11Z</time>
      </trkpt>
      <trkpt lat="48.21246" lon="7.13012">
        <ele>660.4</ele>
        <time>2022-02-13T09:05:18Z</time>
      </trkpt>
      <trkpt lat="48.21245" lon="7.13029">
        <ele>659.9</ele>
        <time>2022-02-13T09:05:24Z</time>
      </trkpt>
      <trkpt lat="48.21251" lon="7.1304">
        <ele>659.5</ele>
        <time>2022-02-13T09:05:30Z</time>
      </trkpt>
      <trkpt lat="48.21259" lon="7.13049">
        <ele>659.1</ele>
        <time>2022-02-13T09:05:37Z</time>
      </trkpt>
      <trkpt lat="48.21256" lon="7.13062">
        <ele>658.8</ele>
        <time>2022-02-13T09:05:43Z</time>
      </trkpt>
      <trkpt lat="48.21256" lon="7.13077">
        <ele>658.4</ele>
        <time>2022-02-13T09:05:52Z</time>
      </trkpt>
      <trkpt lat="48.21262" lon="7.1309">
        <ele>658</ele>
        <time>2022-02-13T09:05:55Z</time>
      </trkpt>
      <trkpt lat="48.21267" lon="7.13103">
        <ele>657.7</ele>
        <time>2022-02-13T09:05:58Z</time>
      </trkpt>
      <trkpt lat="48.2127" lon="7.13116">
        <ele>657.4</ele>
        <time>2022-02-13T09:06:05Z</time>
      </trkpt>
      <trkpt lat="48.21276" lon="7.13128">
        <ele>657.1</ele>
        <time>2022-02-13T09:06:09Z</time>
      </trkpt>
      <trkpt lat="48.21283" lon="7.13137">
        <ele>656.9</ele>
        <time>2022-02-13T09:06:14Z</time>
      </trkpt>
      <trkpt lat="48.21293" lon="7.13137">
        <ele>658.7</ele>
        <time>2022-02-13T09:06:24Z</time>
      </trkpt>
      <trkpt lat="48.21297" lon="7.13149">
        <ele>658.7</ele>
        <time>2022-02-13T09:06:29Z</time>
      </trkpt>
      <trkpt lat="48.21303" lon="7.13162">
        <ele>654.9</ele>
        <time>2022-02-13T09:06:36Z</time>
      </trkpt>
      <trkpt lat="48.21302" lon="7.13176">
        <ele>648.6</ele>
        <time>2022-02-13T09:06:40Z</time>
      </trkpt>
      <trkpt lat="48.21295" lon="7.13192">
        <ele>640.4</ele>
        <time>2022-02-13T09:06:43Z</time>
      </trkpt>
      <trkpt lat="48.21291" lon="7.13205">
        <ele>634.3</ele>
        <time>2022-02-13T09:06:56Z</time>
      </trkpt>
      <trkpt lat="48.21301" lon="7.13206">
        <ele>634.6</ele>
        <time>2022-02-13T09:07:12Z</time>
      </trkpt>
      <trkpt lat="48.2133" lon="7.13188">
        <ele>635.5</ele>
        <time>2022-02-13T09:07:15Z</time>
      </trkpt>
      <trkpt lat="48.21343" lon="7.1318">
        <ele>635.8</ele>
        <time>2022-02-13T09:07:16Z</time>
      </trkpt>
      <trkpt lat="48.21353" lon="7.13175">
        <ele>636</ele>
        <time>2022-02-13T09:07:17Z</time>
      </trkpt>
      <trkpt lat="48.21365" lon="7.13168">
        <ele>636.2</ele>
        <time>2022-02-13T09:07:18Z</time>
      </trkpt>
      <trkpt lat="48.21374" lon="7.1316">
        <ele>636.3</ele>
        <time>2022-02-13T09:07:20Z</time>
      </trkpt>
      <trkpt lat="48.21383" lon="7.13157">
        <ele>636.6</ele>
        <time>2022-02-13T09:07:23Z</time>
      </trkpt>
      <trkpt lat="48.21393" lon="7.13155">
        <ele>636.9</ele>
        <time>2022-02-13T09:07:29Z</time>
      </trkpt>
      <trkpt lat="48.21402" lon="7.13148">
        <ele>637.2</ele>
        <time>2022-02-13T09:07:32Z</time>
      </trkpt>
      <trkpt lat="48.21409" lon="7.13157">
        <ele>637.2</ele>
        <time>2022-02-13T09:07:44Z</time>
      </trkpt>
      <trkpt lat="48.21407" lon="7.13171">
        <ele>637</ele>
        <time>2022-02-13T09:07:50Z</time>
      </trkpt>
      <trkpt lat="48.21408" lon="7.13185">
        <ele>636.9</ele>
        <time>2022-02-13T09:08:00Z</time>
      </trkpt>
      <trkpt lat="48.21409" lon="7.132">
        <ele>636.6</ele>
        <time>2022-02-13T09:08:06Z</time>
      </trkpt>
      <trkpt lat="48.21414" lon="7.13213">
        <ele>636.2</ele>
        <time>2022-02-13T09:08:12Z</time>
      </trkpt>
      <trkpt lat="48.2142" lon="7.13229">
        <ele>636</ele>
        <time>2022-02-13T09:08:18Z</time>
      </trkpt>
      <trkpt lat="48.21425" lon="7.13245">
        <ele>636</ele>
        <time>2022-02-13T09:08:21Z</time>
      </trkpt>
      <trkpt lat="48.2143" lon="7.13259">
        <ele>636.3</ele>
        <time>2022-02-13T09:08:24Z</time>
      </trkpt>
      <trkpt lat="48.2142" lon="7.13254">
        <ele>636.4</ele>
        <time>2022-02-13T09:08:29Z</time>
      </trkpt>
      <trkpt lat="48.21411" lon="7.13255">
        <ele>636.4</ele>
        <time>2022-02-13T09:08:32Z</time>
      </trkpt>
      <trkpt lat="48.21401" lon="7.13259">
        <ele>636.5</ele>
        <time>2022-02-13T09:08:38Z</time>
      </trkpt>
      <trkpt lat="48.21391" lon="7.13267">
        <ele>636.5</ele>
        <time>2022-02-13T09:08:41Z</time>
      </trkpt>
      <trkpt lat="48.21401" lon="7.1327">
        <ele>636.5</ele>
        <time>2022-02-13T09:08:58Z</time>
      </trkpt>
      <trkpt lat="48.21409" lon="7.13283">
        <ele>636.6</ele>
        <time>2022-02-13T09:09:01Z</time>
      </trkpt>
      <trkpt lat="48.21417" lon="7.13289">
        <ele>636.6</ele>
        <time>2022-02-13T09:09:04Z</time>
      </trkpt>
      <trkpt lat="48.21423" lon="7.13301">
        <ele>636.6</ele>
        <time>2022-02-13T09:09:12Z</time>
      </trkpt>
      <trkpt lat="48.21433" lon="7.13307">
        <ele>636.6</ele>
        <time>2022-02-13T09:09:18Z</time>
      </trkpt>
      <trkpt lat="48.21442" lon="7.1331">
        <ele>636.7</ele>
        <time>2022-02-13T09:09:24Z</time>
      </trkpt>
      <trkpt lat="48.21444" lon="7.13325">
        <ele>637.4</ele>
        <time>2022-02-13T09:09:30Z</time>
      </trkpt>
      <trkpt lat="48.21435" lon="7.13317">
        <ele>636.7</ele>
        <time>2022-02-13T09:09:50Z</time>
      </trkpt>
      <trkpt lat="48.21427" lon="7.13306">
        <ele>636.6</ele>
        <time>2022-02-13T09:09:54Z</time>
      </trkpt>
      <trkpt lat="48.21421" lon="7.13296">
        <ele>636.6</ele>
        <time>2022-02-13T09:09:57Z</time>
      </trkpt>
      <trkpt lat="48.21415" lon="7.13283">
        <ele>636.6</ele>
        <time>2022-02-13T09:10:01Z</time>
      </trkpt>
      <trkpt lat="48.21412" lon="7.13269">
        <ele>636.5</ele>
        <time>2022-02-13T09:10:05Z</time>
      </trkpt>
      <trkpt lat="48.21403" lon="7.13268">
        <ele>636.5</ele>
        <time>2022-02-13T09:10:16Z</time>
      </trkpt>
      <trkpt lat="48.21392" lon="7.13269">
        <ele>636.4</ele>
        <time>2022-02-13T09:10:20Z</time>
      </trkpt>
      <trkpt lat="48.21383" lon="7.13269">
        <ele>636.3</ele>
        <time>2022-02-13T09:10:25Z</time>
      </trkpt>
      <trkpt lat="48.21396" lon="7.13265">
        <ele>636.1</ele>
        <time>2022-02-13T09:10:31Z</time>
      </trkpt>
      <trkpt lat="48.2139" lon="7.13269">
        <ele>636</ele>
        <time>2022-02-13T09:10:41Z</time>
      </trkpt>
      <trkpt lat="48.2139" lon="7.13269">
        <ele>636</ele>
        <time>2022-02-13T09:10:42Z</time>
      </trkpt>
      <trkpt lat="48.21401" lon="7.13246">
        <ele>636.1</ele>
        <time>2022-02-13T09:10:49Z</time>
      </trkpt>
      <trkpt lat="48.21392" lon="7.13239">
        <ele>636.4</ele>
        <time>2022-02-13T09:10:56Z</time>
      </trkpt>
      <trkpt lat="48.21389" lon="7.13225">
        <ele>636.7</ele>
        <time>2022-02-13T09:11:00Z</time>
      </trkpt>
      <trkpt lat="48.21392" lon="7.13208">
        <ele>636.9</ele>
        <time>2022-02-13T09:11:02Z</time>
      </trkpt>
      <trkpt lat="48.21388" lon="7.13159">
        <ele>637.1</ele>
        <time>2022-02-13T09:11:11Z</time>
      </trkpt>
      <trkpt lat="48.21373" lon="7.13167">
        <ele>636.7</ele>
        <time>2022-02-13T09:11:25Z</time>
      </trkpt>
      <trkpt lat="48.21381" lon="7.13159">
        <ele>636.5</ele>
        <time>2022-02-13T09:11:31Z</time>
      </trkpt>
      <trkpt lat="48.21341" lon="7.13179">
        <ele>635.9</ele>
        <time>2022-02-13T09:12:03Z</time>
      </trkpt>
      <trkpt lat="48.21332" lon="7.13242">
        <ele>634.9</ele>
        <time>2022-02-13T09:12:25Z</time>
      </trkpt>
      <trkpt lat="48.21299" lon="7.13203">
        <ele>634</ele>
        <time>2022-02-13T09:12:44Z</time>
      </trkpt>
      <trkpt lat="48.21297" lon="7.13186">
        <ele>633.8</ele>
        <time>2022-02-13T09:12:46Z</time>
      </trkpt>
      <trkpt lat="48.2123" lon="7.1314">
        <ele>632.6</ele>
        <time>2022-02-13T09:13:36Z</time>
      </trkpt>
      <trkpt lat="48.2123" lon="7.13125">
        <ele>632.4</ele>
        <time>2022-02-13T09:13:40Z</time>
      </trkpt>
      <trkpt lat="48.21189" lon="7.1312">
        <ele>631.6</ele>
        <time>2022-02-13T09:14:04Z</time>
      </trkpt>
      <trkpt lat="48.21186" lon="7.13109">
        <ele>631.4</ele>
        <time>2022-02-13T09:14:26Z</time>
      </trkpt>
      <trkpt lat="48.21183" lon="7.13098">
        <ele>631.2</ele>
        <time>2022-02-13T09:14:27Z</time>
      </trkpt>
      <trkpt lat="48.21199" lon="7.13087">
        <ele>630.7</ele>
        <time>2022-02-13T09:14:29Z</time>
      </trkpt>
      <trkpt lat="48.21196" lon="7.13067">
        <ele>630.4</ele>
        <time>2022-02-13T09:14:43Z</time>
      </trkpt>
      <trkpt lat="48.21208" lon="7.13062">
        <ele>630.2</ele>
        <time>2022-02-13T09:14:47Z</time>
      </trkpt>
      <trkpt lat="48.21216" lon="7.13054">
        <ele>630.1</ele>
        <time>2022-02-13T09:14:50Z</time>
      </trkpt>
      <trkpt lat="48.21206" lon="7.13056">
        <ele>630</ele>
        <time>2022-02-13T09:14:57Z</time>
      </trkpt>
      <trkpt lat="48.21196" lon="7.13064">
        <ele>629.9</ele>
        <time>2022-02-13T09:14:59Z</time>
      </trkpt>
      <trkpt lat="48.21187" lon="7.1307">
        <ele>629.8</ele>
        <time>2022-02-13T09:15:01Z</time>
      </trkpt>
      <trkpt lat="48.21166" lon="7.13086">
        <ele>629.4</ele>
        <time>2022-02-13T09:15:05Z</time>
      </trkpt>
      <trkpt lat="48.21157" lon="7.13092">
        <ele>629.3</ele>
        <time>2022-02-13T09:15:07Z</time>
      </trkpt>
      <trkpt lat="48.21147" lon="7.13097">
        <ele>629.2</ele>
        <time>2022-02-13T09:15:13Z</time>
      </trkpt>
      <trkpt lat="48.2114" lon="7.13107">
        <ele>629</ele>
        <time>2022-02-13T09:15:19Z</time>
      </trkpt>
      <trkpt lat="48.21121" lon="7.13091">
        <ele>628.8</ele>
        <time>2022-02-13T09:15:22Z</time>
      </trkpt>
      <trkpt lat="48.21115" lon="7.1308">
        <ele>628.7</ele>
        <time>2022-02-13T09:15:27Z</time>
      </trkpt>
      <trkpt lat="48.21105" lon="7.13071">
        <ele>628.6</ele>
        <time>2022-02-13T09:15:33Z</time>
      </trkpt>
      <trkpt lat="48.21098" lon="7.13062">
        <ele>628.4</ele>
        <time>2022-02-13T09:15:37Z</time>
      </trkpt>
      <trkpt lat="48.21097" lon="7.13049">
        <ele>628.3</ele>
        <time>2022-02-13T09:15:41Z</time>
      </trkpt>
      <trkpt lat="48.21093" lon="7.13034">
        <ele>628</ele>
        <time>2022-02-13T09:15:46Z</time>
      </trkpt>
      <trkpt lat="48.21085" lon="7.13027">
        <ele>627.7</ele>
        <time>2022-02-13T09:15:50Z</time>
      </trkpt>
      <trkpt lat="48.21075" lon="7.13028">
        <ele>627.3</ele>
        <time>2022-02-13T09:15:55Z</time>
      </trkpt>
      <trkpt lat="48.21066" lon="7.13018">
        <ele>626.7</ele>
        <time>2022-02-13T09:16:04Z</time>
      </trkpt>
      <trkpt lat="48.21054" lon="7.13004">
        <ele>625.9</ele>
        <time>2022-02-13T09:16:13Z</time>
      </trkpt>
      <trkpt lat="48.21045" lon="7.12999">
        <ele>625.4</ele>
        <time>2022-02-13T09:16:20Z</time>
      </trkpt>
      <trkpt lat="48.21036" lon="7.13005">
        <ele>624.7</ele>
        <time>2022-02-13T09:16:26Z</time>
      </trkpt>
      <trkpt lat="48.21027" lon="7.13003">
        <ele>624.2</ele>
        <time>2022-02-13T09:16:33Z</time>
      </trkpt>
      <trkpt lat="48.21019" lon="7.12995">
        <ele>623.6</ele>
        <time>2022-02-13T09:16:47Z</time>
      </trkpt>
      <trkpt lat="48.21028" lon="7.12988">
        <ele>623</ele>
        <time>2022-02-13T09:16:51Z</time>
      </trkpt>
      <trkpt lat="48.21025" lon="7.12975">
        <ele>622.4</ele>
        <time>2022-02-13T09:16:56Z</time>
      </trkpt>
      <trkpt lat="48.21025" lon="7.12961">
        <ele>621.9</ele>
        <time>2022-02-13T09:17:02Z</time>
      </trkpt>
      <trkpt lat="48.21024" lon="7.12946">
        <ele>621.4</ele>
        <time>2022-02-13T09:17:09Z</time>
      </trkpt>
      <trkpt lat="48.21021" lon="7.12933">
        <ele>621</ele>
        <time>2022-02-13T09:17:18Z</time>
      </trkpt>
      <trkpt lat="48.21019" lon="7.1292">
        <ele>620.5</ele>
        <time>2022-02-13T09:17:26Z</time>
      </trkpt>
      <trkpt lat="48.21019" lon="7.12906">
        <ele>620</ele>
        <time>2022-02-13T09:17:33Z</time>
      </trkpt>
      <trkpt lat="48.21019" lon="7.12891">
        <ele>619.6</ele>
        <time>2022-02-13T09:17:41Z</time>
      </trkpt>
      <trkpt lat="48.2101" lon="7.12888">
        <ele>619.1</ele>
        <time>2022-02-13T09:17:54Z</time>
      </trkpt>
      <trkpt lat="48.21001" lon="7.12896">
        <ele>618.4</ele>
        <time>2022-02-13T09:17:58Z</time>
      </trkpt>
      <trkpt lat="48.20994" lon="7.12906">
        <ele>617.8</ele>
        <time>2022-02-13T09:18:02Z</time>
      </trkpt>
      <trkpt lat="48.20985" lon="7.12913">
        <ele>617.1</ele>
        <time>2022-02-13T09:18:08Z</time>
      </trkpt>
      <trkpt lat="48.20979" lon="7.12924">
        <ele>616.5</ele>
        <time>2022-02-13T09:18:14Z</time>
      </trkpt>
      <trkpt lat="48.2097" lon="7.12929">
        <ele>615.8</ele>
        <time>2022-02-13T09:18:20Z</time>
      </trkpt>
      <trkpt lat="48.20962" lon="7.12934">
        <ele>615.2</ele>
        <time>2022-02-13T09:18:26Z</time>
      </trkpt>
      <trkpt lat="48.20952" lon="7.12932">
        <ele>614.7</ele>
        <time>2022-02-13T09:18:30Z</time>
      </trkpt>
      <trkpt lat="48.20942" lon="7.12931">
        <ele>614.1</ele>
        <time>2022-02-13T09:18:39Z</time>
      </trkpt>
      <trkpt lat="48.20932" lon="7.12933">
        <ele>613.4</ele>
        <time>2022-02-13T09:18:44Z</time>
      </trkpt>
      <trkpt lat="48.20927" lon="7.12945">
        <ele>612.9</ele>
        <time>2022-02-13T09:18:49Z</time>
      </trkpt>
      <trkpt lat="48.20918" lon="7.12946">
        <ele>612.3</ele>
        <time>2022-02-13T09:19:05Z</time>
      </trkpt>
      <trkpt lat="48.2091" lon="7.12937">
        <ele>611.6</ele>
        <time>2022-02-13T09:19:12Z</time>
      </trkpt>
      <trkpt lat="48.20901" lon="7.12929">
        <ele>611</ele>
        <time>2022-02-13T09:19:18Z</time>
      </trkpt>
      <trkpt lat="48.2089" lon="7.1293">
        <ele>610.3</ele>
        <time>2022-02-13T09:19:25Z</time>
      </trkpt>
      <trkpt lat="48.20881" lon="7.12923">
        <ele>609.8</ele>
        <time>2022-02-13T09:19:31Z</time>
      </trkpt>
      <trkpt lat="48.20872" lon="7.12924">
        <ele>609.3</ele>
        <time>2022-02-13T09:19:38Z</time>
      </trkpt>
      <trkpt lat="48.20863" lon="7.12917">
        <ele>608.7</ele>
        <time>2022-02-13T09:19:44Z</time>
      </trkpt>
      <trkpt lat="48.20855" lon="7.1291">
        <ele>608.2</ele>
        <time>2022-02-13T09:19:50Z</time>
      </trkpt>
      <trkpt lat="48.20845" lon="7.12912">
        <ele>607.7</ele>
        <time>2022-02-13T09:19:58Z</time>
      </trkpt>
      <trkpt lat="48.20849" lon="7.129">
        <ele>607.2</ele>
        <time>2022-02-13T09:20:10Z</time>
      </trkpt>
      <trkpt lat="48.2084" lon="7.12894">
        <ele>606.6</ele>
        <time>2022-02-13T09:20:18Z</time>
      </trkpt>
      <trkpt lat="48.20834" lon="7.12898">
        <ele>606.2</ele>
        <time>2022-02-13T09:20:22Z</time>
      </trkpt>
      <trkpt lat="48.20834" lon="7.12896">
        <ele>606.1</ele>
        <time>2022-02-13T09:20:23Z</time>
      </trkpt>
      <trkpt lat="48.20835" lon="7.12893">
        <ele>606</ele>
        <time>2022-02-13T09:20:26Z</time>
      </trkpt>
      <trkpt lat="48.20835" lon="7.12892">
        <ele>606</ele>
        <time>2022-02-13T09:20:27Z</time>
      </trkpt>
      <trkpt lat="48.20825" lon="7.12889">
        <ele>605.3</ele>
        <time>2022-02-13T09:20:36Z</time>
      </trkpt>
      <trkpt lat="48.20818" lon="7.1288">
        <ele>604.8</ele>
        <time>2022-02-13T09:20:47Z</time>
      </trkpt>
      <trkpt lat="48.20809" lon="7.12876">
        <ele>604.4</ele>
        <time>2022-02-13T09:20:53Z</time>
      </trkpt>
      <trkpt lat="48.208" lon="7.1288">
        <ele>603.8</ele>
        <time>2022-02-13T09:20:57Z</time>
      </trkpt>
      <trkpt lat="48.20792" lon="7.12874">
        <ele>603.3</ele>
        <time>2022-02-13T09:21:02Z</time>
      </trkpt>
      <trkpt lat="48.20769" lon="7.12892">
        <ele>594.6</ele>
        <time>2022-02-13T09:21:12Z</time>
      </trkpt>
      <trkpt lat="48.2076" lon="7.12901">
        <ele>588.4</ele>
        <time>2022-02-13T09:21:23Z</time>
      </trkpt>
      <trkpt lat="48.20749" lon="7.12916">
        <ele>583.5</ele>
        <time>2022-02-13T09:21:26Z</time>
      </trkpt>
      <trkpt lat="48.20742" lon="7.12929">
        <ele>579.9</ele>
        <time>2022-02-13T09:21:28Z</time>
      </trkpt>
      <trkpt lat="48.20736" lon="7.1294">
        <ele>578.4</ele>
        <time>2022-02-13T09:21:30Z</time>
      </trkpt>
      <trkpt lat="48.20724" lon="7.12953">
        <ele>577.7</ele>
        <time>2022-02-13T09:21:40Z</time>
      </trkpt>
      <trkpt lat="48.20733" lon="7.12945">
        <ele>573.7</ele>
        <time>2022-02-13T09:21:45Z</time>
      </trkpt>
      <trkpt lat="48.20745" lon="7.1294">
        <ele>570.2</ele>
        <time>2022-02-13T09:21:51Z</time>
      </trkpt>
      <trkpt lat="48.20755" lon="7.12931">
        <ele>567.2</ele>
        <time>2022-02-13T09:21:56Z</time>
      </trkpt>
      <trkpt lat="48.20767" lon="7.12942">
        <ele>566.5</ele>
        <time>2022-02-13T09:22:12Z</time>
      </trkpt>
      <trkpt lat="48.20776" lon="7.12947">
        <ele>566.1</ele>
        <time>2022-02-13T09:22:17Z</time>
      </trkpt>
      <trkpt lat="48.20787" lon="7.12947">
        <ele>565.6</ele>
        <time>2022-02-13T09:22:20Z</time>
      </trkpt>
      <trkpt lat="48.20797" lon="7.12949">
        <ele>565.2</ele>
        <time>2022-02-13T09:22:24Z</time>
      </trkpt>
      <trkpt lat="48.20807" lon="7.12947">
        <ele>564.8</ele>
        <time>2022-02-13T09:22:30Z</time>
      </trkpt>
      <trkpt lat="48.20806" lon="7.12963">
        <ele>564.4</ele>
        <time>2022-02-13T09:22:36Z</time>
      </trkpt>
      <trkpt lat="48.20807" lon="7.12983">
        <ele>563.9</ele>
        <time>2022-02-13T09:22:44Z</time>
      </trkpt>
      <trkpt lat="48.20807" lon="7.12997">
        <ele>563.6</ele>
        <time>2022-02-13T09:22:48Z</time>
      </trkpt>
      <trkpt lat="48.208" lon="7.13012">
        <ele>563.1</ele>
        <time>2022-02-13T09:22:54Z</time>
      </trkpt>
      <trkpt lat="48.20806" lon="7.13024">
        <ele>562.8</ele>
        <time>2022-02-13T09:23:02Z</time>
      </trkpt>
      <trkpt lat="48.20803" lon="7.13037">
        <ele>562.5</ele>
        <time>2022-02-13T09:23:05Z</time>
      </trkpt>
      <trkpt lat="48.20809" lon="7.13049">
        <ele>562.1</ele>
        <time>2022-02-13T09:23:12Z</time>
      </trkpt>
      <trkpt lat="48.2082" lon="7.13051">
        <ele>561.7</ele>
        <time>2022-02-13T09:23:20Z</time>
      </trkpt>
      <trkpt lat="48.20829" lon="7.13057">
        <ele>561.4</ele>
        <time>2022-02-13T09:23:25Z</time>
      </trkpt>
      <trkpt lat="48.2083" lon="7.13071">
        <ele>561</ele>
        <time>2022-02-13T09:23:32Z</time>
      </trkpt>
      <trkpt lat="48.20839" lon="7.13075">
        <ele>560.6</ele>
        <time>2022-02-13T09:23:38Z</time>
      </trkpt>
      <trkpt lat="48.20847" lon="7.1308">
        <ele>560.2</ele>
        <time>2022-02-13T09:23:43Z</time>
      </trkpt>
      <trkpt lat="48.20848" lon="7.13095">
        <ele>559.8</ele>
        <time>2022-02-13T09:23:49Z</time>
      </trkpt>
      <trkpt lat="48.20854" lon="7.13107">
        <ele>559.2</ele>
        <time>2022-02-13T09:23:56Z</time>
      </trkpt>
      <trkpt lat="48.20863" lon="7.13114">
        <ele>558.6</ele>
        <time>2022-02-13T09:24:00Z</time>
      </trkpt>
      <trkpt lat="48.20871" lon="7.13122">
        <ele>558.1</ele>
        <time>2022-02-13T09:24:12Z</time>
      </trkpt>
      <trkpt lat="48.20874" lon="7.13137">
        <ele>557.5</ele>
        <time>2022-02-13T09:24:22Z</time>
      </trkpt>
      <trkpt lat="48.20881" lon="7.13147">
        <ele>556.9</ele>
        <time>2022-02-13T09:24:27Z</time>
      </trkpt>
      <trkpt lat="48.20886" lon="7.13159">
        <ele>556.9</ele>
        <time>2022-02-13T09:24:31Z</time>
      </trkpt>
      <trkpt lat="48.20895" lon="7.13156">
        <ele>556.9</ele>
        <time>2022-02-13T09:24:34Z</time>
      </trkpt>
      <trkpt lat="48.20911" lon="7.13175">
        <ele>556</ele>
        <time>2022-02-13T09:24:46Z</time>
      </trkpt>
      <trkpt lat="48.20901" lon="7.13224">
        <ele>554.3</ele>
        <time>2022-02-13T09:25:01Z</time>
      </trkpt>
      <trkpt lat="48.20889" lon="7.13227">
        <ele>553.9</ele>
        <time>2022-02-13T09:25:16Z</time>
      </trkpt>
      <trkpt lat="48.20894" lon="7.13241">
        <ele>553.6</ele>
        <time>2022-02-13T09:25:23Z</time>
      </trkpt>
      <trkpt lat="48.20904" lon="7.13248">
        <ele>553.3</ele>
        <time>2022-02-13T09:25:26Z</time>
      </trkpt>
      <trkpt lat="48.20915" lon="7.13255">
        <ele>553</ele>
        <time>2022-02-13T09:25:28Z</time>
      </trkpt>
      <trkpt lat="48.20913" lon="7.13271">
        <ele>552.8</ele>
        <time>2022-02-13T09:25:32Z</time>
      </trkpt>
      <trkpt lat="48.20922" lon="7.13276">
        <ele>552.7</ele>
        <time>2022-02-13T09:25:40Z</time>
      </trkpt>
      <trkpt lat="48.20933" lon="7.13279">
        <ele>552.5</ele>
        <time>2022-02-13T09:25:46Z</time>
      </trkpt>
      <trkpt lat="48.20943" lon="7.13276">
        <ele>552.3</ele>
        <time>2022-02-13T09:25:50Z</time>
      </trkpt>
      <trkpt lat="48.2095" lon="7.13286">
        <ele>552.2</ele>
        <time>2022-02-13T09:25:56Z</time>
      </trkpt>
      <trkpt lat="48.20957" lon="7.13298">
        <ele>552</ele>
        <time>2022-02-13T09:26:02Z</time>
      </trkpt>
      <trkpt lat="48.20964" lon="7.13307">
        <ele>551.9</ele>
        <time>2022-02-13T09:26:10Z</time>
      </trkpt>
      <trkpt lat="48.20974" lon="7.1331">
        <ele>551.7</ele>
        <time>2022-02-13T09:26:16Z</time>
      </trkpt>
      <trkpt lat="48.20972" lon="7.13326">
        <ele>551.5</ele>
        <time>2022-02-13T09:26:22Z</time>
      </trkpt>
      <trkpt lat="48.2097" lon="7.1334">
        <ele>551.3</ele>
        <time>2022-02-13T09:26:27Z</time>
      </trkpt>
      <trkpt lat="48.20972" lon="7.1336">
        <ele>550.9</ele>
        <time>2022-02-13T09:26:33Z</time>
      </trkpt>
      <trkpt lat="48.20981" lon="7.13368">
        <ele>550.6</ele>
        <time>2022-02-13T09:26:41Z</time>
      </trkpt>
      <trkpt lat="48.20987" lon="7.13379">
        <ele>550.3</ele>
        <time>2022-02-13T09:26:47Z</time>
      </trkpt>
      <trkpt lat="48.21058" lon="7.13329">
        <ele>546.5</ele>
        <time>2022-02-13T09:27:32Z</time>
      </trkpt>
      <trkpt lat="48.21052" lon="7.13354">
        <ele>547.3</ele>
        <time>2022-02-13T09:27:38Z</time>
      </trkpt>
      <trkpt lat="48.21044" lon="7.13362">
        <ele>547.9</ele>
        <time>2022-02-13T09:27:41Z</time>
      </trkpt>
      <trkpt lat="48.21034" lon="7.13355">
        <ele>548.5</ele>
        <time>2022-02-13T09:27:49Z</time>
      </trkpt>
      <trkpt lat="48.21022" lon="7.1336">
        <ele>549.3</ele>
        <time>2022-02-13T09:27:51Z</time>
      </trkpt>
      <trkpt lat="48.21011" lon="7.13366">
        <ele>549.9</ele>
        <time>2022-02-13T09:27:53Z</time>
      </trkpt>
      <trkpt lat="48.21001" lon="7.13384">
        <ele>552</ele>
        <time>2022-02-13T09:28:20Z</time>
      </trkpt>
      <trkpt lat="48.21014" lon="7.13367">
        <ele>554.3</ele>
        <time>2022-02-13T09:28:25Z</time>
      </trkpt>
      <trkpt lat="48.21014" lon="7.13351">
        <ele>555.8</ele>
        <time>2022-02-13T09:28:37Z</time>
      </trkpt>
      <trkpt lat="48.21005" lon="7.13347">
        <ele>557</ele>
        <time>2022-02-13T09:28:56Z</time>
      </trkpt>
      <trkpt lat="48.20996" lon="7.13343">
        <ele>558.3</ele>
        <time>2022-02-13T09:29:33Z</time>
      </trkpt>
      <trkpt lat="48.20987" lon="7.13339">
        <ele>559.6</ele>
        <time>2022-02-13T09:29:41Z</time>
      </trkpt>
      <trkpt lat="48.20977" lon="7.13336">
        <ele>560.9</ele>
        <time>2022-02-13T09:29:49Z</time>
      </trkpt>
      <trkpt lat="48.20967" lon="7.13337">
        <ele>562.2</ele>
        <time>2022-02-13T09:30:04Z</time>
      </trkpt>
      <trkpt lat="48.20976" lon="7.13342">
        <ele>563.4</ele>
        <time>2022-02-13T09:30:24Z</time>
      </trkpt>
      <trkpt lat="48.20965" lon="7.13343">
        <ele>564.8</ele>
        <time>2022-02-13T09:30:31Z</time>
      </trkpt>
      <trkpt lat="48.20962" lon="7.13343">
        <ele>565.3</ele>
        <time>2022-02-13T09:30:34Z</time>
      </trkpt>
      <trkpt lat="48.2096" lon="7.13347">
        <ele>565.7</ele>
        <time>2022-02-13T09:30:37Z</time>
      </trkpt>
      <trkpt lat="48.2096" lon="7.1335">
        <ele>566</ele>
        <time>2022-02-13T09:30:40Z</time>
      </trkpt>
      <trkpt lat="48.2096" lon="7.1335">
        <ele>566</ele>
        <time>2022-02-13T09:30:43Z</time>
      </trkpt>
      <trkpt lat="48.20959" lon="7.13352">
        <ele>566.3</ele>
        <time>2022-02-13T09:30:50Z</time>
      </trkpt>
      <trkpt lat="48.20959" lon="7.13353">
        <ele>566.3</ele>
        <time>2022-02-13T09:30:53Z</time>
      </trkpt>
      <trkpt lat="48.20958" lon="7.13339">
        <ele>567.6</ele>
        <time>2022-02-13T09:31:09Z</time>
      </trkpt>
      <trkpt lat="48.20957" lon="7.13345">
        <ele>568.1</ele>
        <time>2022-02-13T09:31:20Z</time>
      </trkpt>
      <trkpt lat="48.20957" lon="7.13346">
        <ele>568.2</ele>
        <time>2022-02-13T09:31:21Z</time>
      </trkpt>
      <trkpt lat="48.20954" lon="7.13336">
        <ele>569.1</ele>
        <time>2022-02-13T09:31:46Z</time>
      </trkpt>
      <trkpt lat="48.20954" lon="7.13336">
        <ele>569.1</ele>
        <time>2022-02-13T09:31:52Z</time>
      </trkpt>
      <trkpt lat="48.20957" lon="7.13333">
        <ele>569.6</ele>
        <time>2022-02-13T09:32:04Z</time>
      </trkpt>
      <trkpt lat="48.20957" lon="7.13333">
        <ele>569.7</ele>
        <time>2022-02-13T09:32:07Z</time>
      </trkpt>
      <trkpt lat="48.20957" lon="7.13333">
        <ele>569.7</ele>
        <time>2022-02-13T09:32:08Z</time>
      </trkpt>
      <trkpt lat="48.20956" lon="7.13333">
        <ele>569.8</ele>
        <time>2022-02-13T09:32:11Z</time>
      </trkpt>
      <trkpt lat="48.20958" lon="7.13334">
        <ele>570</ele>
        <time>2022-02-13T09:32:16Z</time>
      </trkpt>
      <trkpt lat="48.20958" lon="7.13334">
        <ele>570.1</ele>
        <time>2022-02-13T09:32:18Z</time>
      </trkpt>
      <trkpt lat="48.20959" lon="7.13338">
        <ele>570.4</ele>
        <time>2022-02-13T09:32:24Z</time>
      </trkpt>
      <trkpt lat="48.20959" lon="7.13338">
        <ele>570.4</ele>
        <time>2022-02-13T09:32:29Z</time>
      </trkpt>
      <trkpt lat="48.20959" lon="7.1334">
        <ele>570.6</ele>
        <time>2022-02-13T09:32:32Z</time>
      </trkpt>
      <trkpt lat="48.20959" lon="7.1334">
        <ele>570.6</ele>
        <time>2022-02-13T09:32:33Z</time>
      </trkpt>
      <trkpt lat="48.2096" lon="7.13344">
        <ele>571</ele>
        <time>2022-02-13T09:32:43Z</time>
      </trkpt>
      <trkpt lat="48.2096" lon="7.13344">
        <ele>571</ele>
        <time>2022-02-13T09:32:58Z</time>
      </trkpt>
      <trkpt lat="48.20961" lon="7.13345">
        <ele>571.2</ele>
        <time>2022-02-13T09:33:01Z</time>
      </trkpt>
      <trkpt lat="48.20961" lon="7.13345">
        <ele>571.2</ele>
        <time>2022-02-13T09:33:02Z</time>
      </trkpt>
      <trkpt lat="48.20961" lon="7.13345">
        <ele>571.2</ele>
        <time>2022-02-13T09:33:03Z</time>
      </trkpt>
      <trkpt lat="48.20962" lon="7.13345">
        <ele>571.2</ele>
        <time>2022-02-13T09:33:04Z</time>
      </trkpt>
      <trkpt lat="48.20962" lon="7.13345">
        <ele>571.2</ele>
        <time>2022-02-13T09:33:05Z</time>
      </trkpt>
      <trkpt lat="48.20961" lon="7.13345">
        <ele>571.3</ele>
        <time>2022-02-13T09:33:10Z</time>
      </trkpt>
      <trkpt lat="48.20961" lon="7.13345">
        <ele>571.3</ele>
        <time>2022-02-13T09:33:11Z</time>
      </trkpt>
      <trkpt lat="48.20961" lon="7.13345">
        <ele>571.3</ele>
        <time>2022-02-13T09:33:29Z</time>
      </trkpt>
      <trkpt lat="48.20961" lon="7.13345">
        <ele>571.3</ele>
        <time>2022-02-13T09:33:30Z</time>
      </trkpt>
      <trkpt lat="48.20961" lon="7.13345">
        <ele>571.3</ele>
        <time>2022-02-13T09:33:43Z</time>
      </trkpt>
      <trkpt lat="48.20961" lon="7.13347">
        <ele>571.4</ele>
        <time>2022-02-13T09:33:45Z</time>
      </trkpt>
      <trkpt lat="48.20961" lon="7.13347">
        <ele>571.5</ele>
        <time>2022-02-13T09:34:04Z</time>
      </trkpt>
      <trkpt lat="48.2096" lon="7.13347">
        <ele>571.6</ele>
        <time>2022-02-13T09:34:08Z</time>
      </trkpt>
      <trkpt lat="48.2096" lon="7.13347">
        <ele>571.6</ele>
        <time>2022-02-13T09:34:11Z</time>
      </trkpt>
      <trkpt lat="48.2096" lon="7.13346">
        <ele>571.7</ele>
        <time>2022-02-13T09:34:13Z</time>
      </trkpt>
      <trkpt lat="48.2096" lon="7.13346">
        <ele>571.7</ele>
        <time>2022-02-13T09:34:14Z</time>
      </trkpt>
      <trkpt lat="48.20958" lon="7.13343">
        <ele>572</ele>
        <time>2022-02-13T09:34:20Z</time>
      </trkpt>
      <trkpt lat="48.20958" lon="7.13343">
        <ele>572.1</ele>
        <time>2022-02-13T09:34:21Z</time>
      </trkpt>
      <trkpt lat="48.20959" lon="7.13344">
        <ele>572.2</ele>
        <time>2022-02-13T09:34:29Z</time>
      </trkpt>
      <trkpt lat="48.20959" lon="7.13344">
        <ele>572.2</ele>
        <time>2022-02-13T09:34:34Z</time>
      </trkpt>
      <trkpt lat="48.20959" lon="7.13344">
        <ele>572.2</ele>
        <time>2022-02-13T09:34:35Z</time>
      </trkpt>
      <trkpt lat="48.2096" lon="7.13344">
        <ele>572.3</ele>
        <time>2022-02-13T09:35:09Z</time>
      </trkpt>
      <trkpt lat="48.2096" lon="7.13344">
        <ele>572.4</ele>
        <time>2022-02-13T09:35:12Z</time>
      </trkpt>
      <trkpt lat="48.2096" lon="7.13345">
        <ele>572.4</ele>
        <time>2022-02-13T09:35:14Z</time>
      </trkpt>
      <trkpt lat="48.20959" lon="7.13347">
        <ele>572.7</ele>
        <time>2022-02-13T09:35:21Z</time>
      </trkpt>
      <trkpt lat="48.20958" lon="7.13346">
        <ele>572.7</ele>
        <time>2022-02-13T09:35:25Z</time>
      </trkpt>
      <trkpt lat="48.2096" lon="7.13345">
        <ele>573</ele>
        <time>2022-02-13T09:35:34Z</time>
      </trkpt>
      <trkpt lat="48.2096" lon="7.13345">
        <ele>573</ele>
        <time>2022-02-13T09:35:35Z</time>
      </trkpt>
      <trkpt lat="48.20959" lon="7.13343">
        <ele>573.3</ele>
        <time>2022-02-13T09:35:42Z</time>
      </trkpt>
      <trkpt lat="48.20959" lon="7.13343">
        <ele>573.3</ele>
        <time>2022-02-13T09:35:44Z</time>
      </trkpt>
      <trkpt lat="48.20959" lon="7.13345">
        <ele>573.5</ele>
        <time>2022-02-13T09:35:52Z</time>
      </trkpt>
      <trkpt lat="48.20958" lon="7.13345">
        <ele>573.5</ele>
        <time>2022-02-13T09:35:53Z</time>
      </trkpt>
      <trkpt lat="48.20953" lon="7.13346">
        <ele>574.2</ele>
        <time>2022-02-13T09:36:09Z</time>
      </trkpt>
      <trkpt lat="48.20952" lon="7.13346">
        <ele>574.3</ele>
        <time>2022-02-13T09:36:10Z</time>
      </trkpt>
      <trkpt lat="48.20946" lon="7.13335">
        <ele>575.6</ele>
        <time>2022-02-13T09:36:25Z</time>
      </trkpt>
      <trkpt lat="48.20938" lon="7.13327">
        <ele>577</ele>
        <time>2022-02-13T09:36:39Z</time>
      </trkpt>
      <trkpt lat="48.20937" lon="7.13326">
        <ele>577.1</ele>
        <time>2022-02-13T09:36:41Z</time>
      </trkpt>
      <trkpt lat="48.20937" lon="7.13327">
        <ele>577.2</ele>
        <time>2022-02-13T09:36:42Z</time>
      </trkpt>
      <trkpt lat="48.20928" lon="7.13329">
        <ele>578.4</ele>
        <time>2022-02-13T09:36:51Z</time>
      </trkpt>
      <trkpt lat="48.20918" lon="7.13323">
        <ele>579.8</ele>
        <time>2022-02-13T09:37:00Z</time>
      </trkpt>
      <trkpt lat="48.2091" lon="7.13316">
        <ele>581</ele>
        <time>2022-02-13T09:37:16Z</time>
      </trkpt>
      <trkpt lat="48.209" lon="7.13315">
        <ele>582.3</ele>
        <time>2022-02-13T09:37:22Z</time>
      </trkpt>
      <trkpt lat="48.20893" lon="7.13308">
        <ele>583.6</ele>
        <time>2022-02-13T09:37:50Z</time>
      </trkpt>
      <trkpt lat="48.20887" lon="7.13303">
        <ele>584.5</ele>
        <time>2022-02-13T09:38:01Z</time>
      </trkpt>
      <trkpt lat="48.20887" lon="7.13304">
        <ele>584.6</ele>
        <time>2022-02-13T09:38:02Z</time>
      </trkpt>
      <trkpt lat="48.20879" lon="7.13298">
        <ele>585.9</ele>
        <time>2022-02-13T09:38:17Z</time>
      </trkpt>
      <trkpt lat="48.20871" lon="7.1329">
        <ele>587.1</ele>
        <time>2022-02-13T09:38:33Z</time>
      </trkpt>
      <trkpt lat="48.20869" lon="7.13281">
        <ele>588</ele>
        <time>2022-02-13T09:39:00Z</time>
      </trkpt>
      <trkpt lat="48.20868" lon="7.13281">
        <ele>588</ele>
        <time>2022-02-13T09:39:01Z</time>
      </trkpt>
      <trkpt lat="48.20868" lon="7.1328">
        <ele>588.1</ele>
        <time>2022-02-13T09:39:05Z</time>
      </trkpt>
      <trkpt lat="48.20868" lon="7.1328">
        <ele>588.1</ele>
        <time>2022-02-13T09:39:06Z</time>
      </trkpt>
      <trkpt lat="48.2086" lon="7.13275">
        <ele>589.4</ele>
        <time>2022-02-13T09:39:18Z</time>
      </trkpt>
      <trkpt lat="48.20851" lon="7.1327">
        <ele>590.6</ele>
        <time>2022-02-13T09:39:30Z</time>
      </trkpt>
      <trkpt lat="48.20849" lon="7.13268">
        <ele>590.8</ele>
        <time>2022-02-13T09:39:33Z</time>
      </trkpt>
      <trkpt lat="48.20848" lon="7.13269">
        <ele>591</ele>
        <time>2022-02-13T09:39:34Z</time>
      </trkpt>
      <trkpt lat="48.20839" lon="7.13263">
        <ele>592.3</ele>
        <time>2022-02-13T09:39:49Z</time>
      </trkpt>
      <trkpt lat="48.20838" lon="7.13249">
        <ele>593.5</ele>
        <time>2022-02-13T09:40:06Z</time>
      </trkpt>
      <trkpt lat="48.20829" lon="7.13245">
        <ele>594.8</ele>
        <time>2022-02-13T09:40:18Z</time>
      </trkpt>
      <trkpt lat="48.20824" lon="7.13235">
        <ele>596</ele>
        <time>2022-02-13T09:40:31Z</time>
      </trkpt>
      <trkpt lat="48.20823" lon="7.13235">
        <ele>596</ele>
        <time>2022-02-13T09:40:32Z</time>
      </trkpt>
      <trkpt lat="48.20814" lon="7.13233">
        <ele>597.3</ele>
        <time>2022-02-13T09:40:49Z</time>
      </trkpt>
      <trkpt lat="48.20804" lon="7.13232">
        <ele>598.6</ele>
        <time>2022-02-13T09:41:09Z</time>
      </trkpt>
      <trkpt lat="48.20802" lon="7.13232">
        <ele>598.9</ele>
        <time>2022-02-13T09:41:19Z</time>
      </trkpt>
      <trkpt lat="48.20801" lon="7.13232">
        <ele>599</ele>
        <time>2022-02-13T09:41:20Z</time>
      </trkpt>
      <trkpt lat="48.20792" lon="7.13231">
        <ele>600.2</ele>
        <time>2022-02-13T09:41:33Z</time>
      </trkpt>
      <trkpt lat="48.20783" lon="7.13229">
        <ele>601.4</ele>
        <time>2022-02-13T09:41:39Z</time>
      </trkpt>
      <trkpt lat="48.20785" lon="7.13225">
        <ele>601.8</ele>
        <time>2022-02-13T09:41:55Z</time>
      </trkpt>
      <trkpt lat="48.20785" lon="7.13225">
        <ele>601.9</ele>
        <time>2022-02-13T09:41:56Z</time>
      </trkpt>
      <trkpt lat="48.20776" lon="7.13223">
        <ele>603.1</ele>
        <time>2022-02-13T09:42:06Z</time>
      </trkpt>
      <trkpt lat="48.20766" lon="7.13225">
        <ele>604.4</ele>
        <time>2022-02-13T09:42:31Z</time>
      </trkpt>
      <trkpt lat="48.20757" lon="7.13227">
        <ele>605.7</ele>
        <time>2022-02-13T09:42:42Z</time>
      </trkpt>
      <trkpt lat="48.20747" lon="7.13229">
        <ele>607</ele>
        <time>2022-02-13T09:42:54Z</time>
      </trkpt>
      <trkpt lat="48.20746" lon="7.13227">
        <ele>607.2</ele>
        <time>2022-02-13T09:42:59Z</time>
      </trkpt>
      <trkpt lat="48.20746" lon="7.13227">
        <ele>607.2</ele>
        <time>2022-02-13T09:43:00Z</time>
      </trkpt>
      <trkpt lat="48.20746" lon="7.13227">
        <ele>607.2</ele>
        <time>2022-02-13T09:43:01Z</time>
      </trkpt>
      <trkpt lat="48.20746" lon="7.13227">
        <ele>607.3</ele>
        <time>2022-02-13T09:43:02Z</time>
      </trkpt>
      <trkpt lat="48.20737" lon="7.13225">
        <ele>608.6</ele>
        <time>2022-02-13T09:43:22Z</time>
      </trkpt>
      <trkpt lat="48.20727" lon="7.13225">
        <ele>609.8</ele>
        <time>2022-02-13T09:43:42Z</time>
      </trkpt>
      <trkpt lat="48.20718" lon="7.13224">
        <ele>611.1</ele>
        <time>2022-02-13T09:44:02Z</time>
      </trkpt>
      <trkpt lat="48.20719" lon="7.13224">
        <ele>611.3</ele>
        <time>2022-02-13T09:44:08Z</time>
      </trkpt>
      <trkpt lat="48.20718" lon="7.13223">
        <ele>611.4</ele>
        <time>2022-02-13T09:44:09Z</time>
      </trkpt>
      <trkpt lat="48.20719" lon="7.13226">
        <ele>611.7</ele>
        <time>2022-02-13T09:44:18Z</time>
      </trkpt>
      <trkpt lat="48.20718" lon="7.13225">
        <ele>611.8</ele>
        <time>2022-02-13T09:44:19Z</time>
      </trkpt>
      <trkpt lat="48.20711" lon="7.13222">
        <ele>612.7</ele>
        <time>2022-02-13T09:44:34Z</time>
      </trkpt>
      <trkpt lat="48.20711" lon="7.13223">
        <ele>612.8</ele>
        <time>2022-02-13T09:44:35Z</time>
      </trkpt>
      <trkpt lat="48.20702" lon="7.13219">
        <ele>614</ele>
        <time>2022-02-13T09:44:53Z</time>
      </trkpt>
      <trkpt lat="48.207" lon="7.13219">
        <ele>614.4</ele>
        <time>2022-02-13T09:44:57Z</time>
      </trkpt>
      <trkpt lat="48.20699" lon="7.13219">
        <ele>614.4</ele>
        <time>2022-02-13T09:44:58Z</time>
      </trkpt>
      <trkpt lat="48.2069" lon="7.13215">
        <ele>615.7</ele>
        <time>2022-02-13T09:45:08Z</time>
      </trkpt>
      <trkpt lat="48.20681" lon="7.13209">
        <ele>617</ele>
        <time>2022-02-13T09:45:17Z</time>
      </trkpt>
      <trkpt lat="48.20678" lon="7.13204">
        <ele>617.7</ele>
        <time>2022-02-13T09:45:33Z</time>
      </trkpt>
      <trkpt lat="48.20678" lon="7.13203">
        <ele>617.7</ele>
        <time>2022-02-13T09:45:34Z</time>
      </trkpt>
      <trkpt lat="48.20686" lon="7.13203">
        <ele>618.8</ele>
        <time>2022-02-13T09:45:45Z</time>
      </trkpt>
      <trkpt lat="48.20686" lon="7.13203">
        <ele>618.8</ele>
        <time>2022-02-13T09:45:47Z</time>
      </trkpt>
      <trkpt lat="48.20686" lon="7.13202">
        <ele>618.9</ele>
        <time>2022-02-13T09:45:49Z</time>
      </trkpt>
      <trkpt lat="48.20686" lon="7.13202">
        <ele>618.9</ele>
        <time>2022-02-13T09:45:50Z</time>
      </trkpt>
      <trkpt lat="48.20681" lon="7.13191">
        <ele>620.1</ele>
        <time>2022-02-13T09:46:02Z</time>
      </trkpt>
      <trkpt lat="48.20675" lon="7.13189">
        <ele>621</ele>
        <time>2022-02-13T09:46:10Z</time>
      </trkpt>
      <trkpt lat="48.20675" lon="7.13188">
        <ele>621</ele>
        <time>2022-02-13T09:46:11Z</time>
      </trkpt>
      <trkpt lat="48.20668" lon="7.13177">
        <ele>622.3</ele>
        <time>2022-02-13T09:46:30Z</time>
      </trkpt>
      <trkpt lat="48.20667" lon="7.13164">
        <ele>623.5</ele>
        <time>2022-02-13T09:46:45Z</time>
      </trkpt>
      <trkpt lat="48.20661" lon="7.13152">
        <ele>624.9</ele>
        <time>2022-02-13T09:46:53Z</time>
      </trkpt>
      <trkpt lat="48.20663" lon="7.13157">
        <ele>625.4</ele>
        <time>2022-02-13T09:47:09Z</time>
      </trkpt>
      <trkpt lat="48.20663" lon="7.13156">
        <ele>625.4</ele>
        <time>2022-02-13T09:47:10Z</time>
      </trkpt>
      <trkpt lat="48.20657" lon="7.13145">
        <ele>626.7</ele>
        <time>2022-02-13T09:47:18Z</time>
      </trkpt>
      <trkpt lat="48.2065" lon="7.13135">
        <ele>627.9</ele>
        <time>2022-02-13T09:47:27Z</time>
      </trkpt>
      <trkpt lat="48.20643" lon="7.13125">
        <ele>629.2</ele>
        <time>2022-02-13T09:47:36Z</time>
      </trkpt>
      <trkpt lat="48.20639" lon="7.13111">
        <ele>630.6</ele>
        <time>2022-02-13T09:47:48Z</time>
      </trkpt>
      <trkpt lat="48.20639" lon="7.1311">
        <ele>630.7</ele>
        <time>2022-02-13T09:47:51Z</time>
      </trkpt>
      <trkpt lat="48.20639" lon="7.1311">
        <ele>630.8</ele>
        <time>2022-02-13T09:47:52Z</time>
      </trkpt>
      <trkpt lat="48.2063" lon="7.13106">
        <ele>632</ele>
        <time>2022-02-13T09:47:59Z</time>
      </trkpt>
      <trkpt lat="48.20622" lon="7.13104">
        <ele>633</ele>
        <time>2022-02-13T09:48:10Z</time>
      </trkpt>
      <trkpt lat="48.20622" lon="7.13102">
        <ele>633.2</ele>
        <time>2022-02-13T09:48:11Z</time>
      </trkpt>
      <trkpt lat="48.20613" lon="7.13101">
        <ele>634.4</ele>
        <time>2022-02-13T09:48:51Z</time>
      </trkpt>
      <trkpt lat="48.20603" lon="7.13098">
        <ele>635.7</ele>
        <time>2022-02-13T09:48:59Z</time>
      </trkpt>
      <trkpt lat="48.20594" lon="7.13093">
        <ele>637</ele>
        <time>2022-02-13T09:49:08Z</time>
      </trkpt>
      <trkpt lat="48.20585" lon="7.13091">
        <ele>638.7</ele>
        <time>2022-02-13T09:49:18Z</time>
      </trkpt>
      <trkpt lat="48.20585" lon="7.1309">
        <ele>638.8</ele>
        <time>2022-02-13T09:49:20Z</time>
      </trkpt>
      <trkpt lat="48.20584" lon="7.1309">
        <ele>638.9</ele>
        <time>2022-02-13T09:49:22Z</time>
      </trkpt>
      <trkpt lat="48.20583" lon="7.13092">
        <ele>639</ele>
        <time>2022-02-13T09:49:25Z</time>
      </trkpt>
      <trkpt lat="48.20583" lon="7.13091">
        <ele>639</ele>
        <time>2022-02-13T09:49:26Z</time>
      </trkpt>
      <trkpt lat="48.20583" lon="7.1309">
        <ele>639.1</ele>
        <time>2022-02-13T09:49:39Z</time>
      </trkpt>
      <trkpt lat="48.20582" lon="7.1309">
        <ele>639.2</ele>
        <time>2022-02-13T09:49:40Z</time>
      </trkpt>
      <trkpt lat="48.20573" lon="7.13084">
        <ele>640.2</ele>
        <time>2022-02-13T09:49:50Z</time>
      </trkpt>
      <trkpt lat="48.20573" lon="7.13084">
        <ele>640.2</ele>
        <time>2022-02-13T09:49:52Z</time>
      </trkpt>
      <trkpt lat="48.20573" lon="7.13085">
        <ele>640.3</ele>
        <time>2022-02-13T09:49:53Z</time>
      </trkpt>
      <trkpt lat="48.20562" lon="7.13083">
        <ele>641.4</ele>
        <time>2022-02-13T09:50:01Z</time>
      </trkpt>
      <trkpt lat="48.20553" lon="7.1308">
        <ele>642.4</ele>
        <time>2022-02-13T09:50:12Z</time>
      </trkpt>
      <trkpt lat="48.20547" lon="7.13082">
        <ele>643</ele>
        <time>2022-02-13T09:50:22Z</time>
      </trkpt>
      <trkpt lat="48.20547" lon="7.13082">
        <ele>643</ele>
        <time>2022-02-13T09:50:24Z</time>
      </trkpt>
      <trkpt lat="48.20545" lon="7.13097">
        <ele>644</ele>
        <time>2022-02-13T09:50:33Z</time>
      </trkpt>
      <trkpt lat="48.20541" lon="7.13102">
        <ele>646.3</ele>
        <time>2022-02-13T09:50:40Z</time>
      </trkpt>
      <trkpt lat="48.20542" lon="7.13102">
        <ele>646.3</ele>
        <time>2022-02-13T09:50:41Z</time>
      </trkpt>
      <trkpt lat="48.20545" lon="7.13117">
        <ele>648.8</ele>
        <time>2022-02-13T09:50:57Z</time>
      </trkpt>
      <trkpt lat="48.20549" lon="7.1313">
        <ele>649.2</ele>
        <time>2022-02-13T09:51:04Z</time>
      </trkpt>
      <trkpt lat="48.20555" lon="7.1314">
        <ele>648.7</ele>
        <time>2022-02-13T09:51:17Z</time>
      </trkpt>
      <trkpt lat="48.20561" lon="7.13151">
        <ele>649.4</ele>
        <time>2022-02-13T09:51:58Z</time>
      </trkpt>
      <trkpt lat="48.20562" lon="7.13165">
        <ele>653</ele>
        <time>2022-02-13T09:52:11Z</time>
      </trkpt>
      <trkpt lat="48.20562" lon="7.13163">
        <ele>651.7</ele>
        <time>2022-02-13T09:52:36Z</time>
      </trkpt>
      <trkpt lat="48.20562" lon="7.13164">
        <ele>653.1</ele>
        <time>2022-02-13T09:52:37Z</time>
      </trkpt>
      <trkpt lat="48.20561" lon="7.13166">
        <ele>653.1</ele>
        <time>2022-02-13T09:52:43Z</time>
      </trkpt>
      <trkpt lat="48.20561" lon="7.13167">
        <ele>653.1</ele>
        <time>2022-02-13T09:52:44Z</time>
      </trkpt>
      <trkpt lat="48.20556" lon="7.13173">
        <ele>658</ele>
        <time>2022-02-13T09:53:10Z</time>
      </trkpt>
      <trkpt lat="48.20555" lon="7.13173">
        <ele>658</ele>
        <time>2022-02-13T09:53:11Z</time>
      </trkpt>
      <trkpt lat="48.20551" lon="7.13179">
        <ele>661.4</ele>
        <time>2022-02-13T09:53:33Z</time>
      </trkpt>
      <trkpt lat="48.20551" lon="7.13179">
        <ele>661.5</ele>
        <time>2022-02-13T09:53:35Z</time>
      </trkpt>
      <trkpt lat="48.20552" lon="7.13178">
        <ele>660.5</ele>
        <time>2022-02-13T09:53:43Z</time>
      </trkpt>
      <trkpt lat="48.20551" lon="7.13178">
        <ele>661.5</ele>
        <time>2022-02-13T09:53:44Z</time>
      </trkpt>
      <trkpt lat="48.20553" lon="7.1318">
        <ele>660.5</ele>
        <time>2022-02-13T09:53:47Z</time>
      </trkpt>
      <trkpt lat="48.20553" lon="7.1318">
        <ele>660.6</ele>
        <time>2022-02-13T09:53:48Z</time>
      </trkpt>
      <trkpt lat="48.20553" lon="7.13182">
        <ele>661.9</ele>
        <time>2022-02-13T09:53:56Z</time>
      </trkpt>
      <trkpt lat="48.20552" lon="7.13182">
        <ele>661.9</ele>
        <time>2022-02-13T09:53:57Z</time>
      </trkpt>
      <trkpt lat="48.20554" lon="7.13195">
        <ele>666.2</ele>
        <time>2022-02-13T09:54:13Z</time>
      </trkpt>
      <trkpt lat="48.20558" lon="7.13208">
        <ele>669</ele>
        <time>2022-02-13T09:54:22Z</time>
      </trkpt>
      <trkpt lat="48.20563" lon="7.1322">
        <ele>672.8</ele>
        <time>2022-02-13T09:54:28Z</time>
      </trkpt>
      <trkpt lat="48.20568" lon="7.13232">
        <ele>677.3</ele>
        <time>2022-02-13T09:54:36Z</time>
      </trkpt>
      <trkpt lat="48.20574" lon="7.13244">
        <ele>678.7</ele>
        <time>2022-02-13T09:54:46Z</time>
      </trkpt>
      <trkpt lat="48.20577" lon="7.13259">
        <ele>684.7</ele>
        <time>2022-02-13T09:55:01Z</time>
      </trkpt>
      <trkpt lat="48.20581" lon="7.13271">
        <ele>687.6</ele>
        <time>2022-02-13T09:55:08Z</time>
      </trkpt>
      <trkpt lat="48.20588" lon="7.13282">
        <ele>688.6</ele>
        <time>2022-02-13T09:55:17Z</time>
      </trkpt>
      <trkpt lat="48.20593" lon="7.13294">
        <ele>691.6</ele>
        <time>2022-02-13T09:55:27Z</time>
      </trkpt>
      <trkpt lat="48.20605" lon="7.13294">
        <ele>687.3</ele>
        <time>2022-02-13T09:55:36Z</time>
      </trkpt>
      <trkpt lat="48.20614" lon="7.13287">
        <ele>680</ele>
        <time>2022-02-13T09:55:38Z</time>
      </trkpt>
      <trkpt lat="48.20634" lon="7.1329">
        <ele>673.7</ele>
        <time>2022-02-13T09:55:43Z</time>
      </trkpt>
      <trkpt lat="48.20654" lon="7.13278">
        <ele>660.5</ele>
        <time>2022-02-13T09:55:51Z</time>
      </trkpt>
      <trkpt lat="48.20646" lon="7.133">
        <ele>671.6</ele>
        <time>2022-02-13T09:56:03Z</time>
      </trkpt>
      <trkpt lat="48.2064" lon="7.13312">
        <ele>681.4</ele>
        <time>2022-02-13T09:56:08Z</time>
      </trkpt>
      <trkpt lat="48.20634" lon="7.13328">
        <ele>690.8</ele>
        <time>2022-02-13T09:56:11Z</time>
      </trkpt>
      <trkpt lat="48.20627" lon="7.13342">
        <ele>700.5</ele>
        <time>2022-02-13T09:56:19Z</time>
      </trkpt>
      <trkpt lat="48.20618" lon="7.13348">
        <ele>707.8</ele>
        <time>2022-02-13T09:56:27Z</time>
      </trkpt>
      <trkpt lat="48.20608" lon="7.13347">
        <ele>710.4</ele>
        <time>2022-02-13T09:56:34Z</time>
      </trkpt>
      <trkpt lat="48.20615" lon="7.13359">
        <ele>713</ele>
        <time>2022-02-13T09:56:46Z</time>
      </trkpt>
      <trkpt lat="48.20624" lon="7.13367">
        <ele>713.2</ele>
        <time>2022-02-13T09:56:51Z</time>
      </trkpt>
      <trkpt lat="48.20628" lon="7.13379">
        <ele>716.9</ele>
        <time>2022-02-13T09:57:03Z</time>
      </trkpt>
      <trkpt lat="48.20637" lon="7.13383">
        <ele>713.5</ele>
        <time>2022-02-13T09:57:12Z</time>
      </trkpt>
      <trkpt lat="48.20645" lon="7.13391">
        <ele>714.1</ele>
        <time>2022-02-13T09:57:36Z</time>
      </trkpt>
      <trkpt lat="48.20645" lon="7.13391">
        <ele>714.1</ele>
        <time>2022-02-13T09:57:37Z</time>
      </trkpt>
      <trkpt lat="48.20646" lon="7.13391">
        <ele>713</ele>
        <time>2022-02-13T09:57:38Z</time>
      </trkpt>
      <trkpt lat="48.20641" lon="7.13404">
        <ele>719.7</ele>
        <time>2022-02-13T09:57:51Z</time>
      </trkpt>
      <trkpt lat="48.20634" lon="7.13413">
        <ele>726.1</ele>
        <time>2022-02-13T09:57:55Z</time>
      </trkpt>
      <trkpt lat="48.20632" lon="7.13416">
        <ele>726.1</ele>
        <time>2022-02-13T09:57:59Z</time>
      </trkpt>
      <trkpt lat="48.20631" lon="7.13416">
        <ele>727.3</ele>
        <time>2022-02-13T09:58:00Z</time>
      </trkpt>
      <trkpt lat="48.20641" lon="7.13421">
        <ele>724.4</ele>
        <time>2022-02-13T09:58:21Z</time>
      </trkpt>
      <trkpt lat="48.20639" lon="7.1342">
        <ele>724.7</ele>
        <time>2022-02-13T09:58:37Z</time>
      </trkpt>
      <trkpt lat="48.20638" lon="7.13419">
        <ele>724.7</ele>
        <time>2022-02-13T09:58:38Z</time>
      </trkpt>
      <trkpt lat="48.20638" lon="7.13434">
        <ele>728.5</ele>
        <time>2022-02-13T09:58:57Z</time>
      </trkpt>
      <trkpt lat="48.20646" lon="7.13444">
        <ele>726.7</ele>
        <time>2022-02-13T09:59:02Z</time>
      </trkpt>
      <trkpt lat="48.20655" lon="7.13449">
        <ele>724.3</ele>
        <time>2022-02-13T09:59:07Z</time>
      </trkpt>
      <trkpt lat="48.20657" lon="7.1344">
        <ele>722.7</ele>
        <time>2022-02-13T09:59:31Z</time>
      </trkpt>
      <trkpt lat="48.20657" lon="7.13439">
        <ele>722.7</ele>
        <time>2022-02-13T09:59:32Z</time>
      </trkpt>
      <trkpt lat="48.2066" lon="7.13453">
        <ele>723.9</ele>
        <time>2022-02-13T09:59:43Z</time>
      </trkpt>
      <trkpt lat="48.20664" lon="7.13465">
        <ele>723</ele>
        <time>2022-02-13T09:59:54Z</time>
      </trkpt>
      <trkpt lat="48.20663" lon="7.13479">
        <ele>725.6</ele>
        <time>2022-02-13T10:00:04Z</time>
      </trkpt>
      <trkpt lat="48.20671" lon="7.13484">
        <ele>722.1</ele>
        <time>2022-02-13T10:00:10Z</time>
      </trkpt>
      <trkpt lat="48.2068" lon="7.13489">
        <ele>717.9</ele>
        <time>2022-02-13T10:00:27Z</time>
      </trkpt>
      <trkpt lat="48.20677" lon="7.13502">
        <ele>719.8</ele>
        <time>2022-02-13T10:00:40Z</time>
      </trkpt>
      <trkpt lat="48.20673" lon="7.13515">
        <ele>722.3</ele>
        <time>2022-02-13T10:00:49Z</time>
      </trkpt>
      <trkpt lat="48.20666" lon="7.13523">
        <ele>724.3</ele>
        <time>2022-02-13T10:00:58Z</time>
      </trkpt>
      <trkpt lat="48.20657" lon="7.13527">
        <ele>727.1</ele>
        <time>2022-02-13T10:01:08Z</time>
      </trkpt>
      <trkpt lat="48.20649" lon="7.13534">
        <ele>729</ele>
        <time>2022-02-13T10:01:33Z</time>
      </trkpt>
      <trkpt lat="48.2064" lon="7.13534">
        <ele>732.4</ele>
        <time>2022-02-13T10:01:40Z</time>
      </trkpt>
      <trkpt lat="48.2063" lon="7.13532">
        <ele>735.4</ele>
        <time>2022-02-13T10:01:52Z</time>
      </trkpt>
      <trkpt lat="48.20621" lon="7.13532">
        <ele>736.9</ele>
        <time>2022-02-13T10:01:59Z</time>
      </trkpt>
      <trkpt lat="48.20616" lon="7.13544">
        <ele>737.7</ele>
        <time>2022-02-13T10:02:07Z</time>
      </trkpt>
      <trkpt lat="48.20608" lon="7.13555">
        <ele>738.6</ele>
        <time>2022-02-13T10:02:17Z</time>
      </trkpt>
      <trkpt lat="48.20601" lon="7.13564">
        <ele>739.4</ele>
        <time>2022-02-13T10:02:22Z</time>
      </trkpt>
      <trkpt lat="48.20608" lon="7.13569">
        <ele>740</ele>
        <time>2022-02-13T10:02:38Z</time>
      </trkpt>
      <trkpt lat="48.20607" lon="7.13569">
        <ele>740</ele>
        <time>2022-02-13T10:02:39Z</time>
      </trkpt>
      <trkpt lat="48.20606" lon="7.13568">
        <ele>740.1</ele>
        <time>2022-02-13T10:02:44Z</time>
      </trkpt>
      <trkpt lat="48.20606" lon="7.13568">
        <ele>740.1</ele>
        <time>2022-02-13T10:02:46Z</time>
      </trkpt>
      <trkpt lat="48.20606" lon="7.13568">
        <ele>740.1</ele>
        <time>2022-02-13T10:02:47Z</time>
      </trkpt>
      <trkpt lat="48.20606" lon="7.13568">
        <ele>740.2</ele>
        <time>2022-02-13T10:02:55Z</time>
      </trkpt>
      <trkpt lat="48.20606" lon="7.13568">
        <ele>740.2</ele>
        <time>2022-02-13T10:02:57Z</time>
      </trkpt>
      <trkpt lat="48.20606" lon="7.13568">
        <ele>740.2</ele>
        <time>2022-02-13T10:02:58Z</time>
      </trkpt>
      <trkpt lat="48.20605" lon="7.13568">
        <ele>740.3</ele>
        <time>2022-02-13T10:03:00Z</time>
      </trkpt>
      <trkpt lat="48.20605" lon="7.13567">
        <ele>740.3</ele>
        <time>2022-02-13T10:03:05Z</time>
      </trkpt>
      <trkpt lat="48.20605" lon="7.13567">
        <ele>740.3</ele>
        <time>2022-02-13T10:03:07Z</time>
      </trkpt>
      <trkpt lat="48.20606" lon="7.13567">
        <ele>740.4</ele>
        <time>2022-02-13T10:03:10Z</time>
      </trkpt>
      <trkpt lat="48.20606" lon="7.13567">
        <ele>740.4</ele>
        <time>2022-02-13T10:03:12Z</time>
      </trkpt>
      <trkpt lat="48.20606" lon="7.13567">
        <ele>740.4</ele>
        <time>2022-02-13T10:03:13Z</time>
      </trkpt>
      <trkpt lat="48.20606" lon="7.13567">
        <ele>740.4</ele>
        <time>2022-02-13T10:03:15Z</time>
      </trkpt>
      <trkpt lat="48.20606" lon="7.13568">
        <ele>740.4</ele>
        <time>2022-02-13T10:03:21Z</time>
      </trkpt>
      <trkpt lat="48.20606" lon="7.13568">
        <ele>740.4</ele>
        <time>2022-02-13T10:03:22Z</time>
      </trkpt>
      <trkpt lat="48.20606" lon="7.13568">
        <ele>740.5</ele>
        <time>2022-02-13T10:03:23Z</time>
      </trkpt>
      <trkpt lat="48.20606" lon="7.13568">
        <ele>740.5</ele>
        <time>2022-02-13T10:03:24Z</time>
      </trkpt>
      <trkpt lat="48.20606" lon="7.13568">
        <ele>740.5</ele>
        <time>2022-02-13T10:03:26Z</time>
      </trkpt>
      <trkpt lat="48.20606" lon="7.13568">
        <ele>740.5</ele>
        <time>2022-02-13T10:03:27Z</time>
      </trkpt>
      <trkpt lat="48.20606" lon="7.13568">
        <ele>740.5</ele>
        <time>2022-02-13T10:03:38Z</time>
      </trkpt>
      <trkpt lat="48.20607" lon="7.13568">
        <ele>740.6</ele>
        <time>2022-02-13T10:03:41Z</time>
      </trkpt>
      <trkpt lat="48.20607" lon="7.13569">
        <ele>740.6</ele>
        <time>2022-02-13T10:03:42Z</time>
      </trkpt>
      <trkpt lat="48.20607" lon="7.13569">
        <ele>740.6</ele>
        <time>2022-02-13T10:03:44Z</time>
      </trkpt>
      <trkpt lat="48.20608" lon="7.13569">
        <ele>740.6</ele>
        <time>2022-02-13T10:03:45Z</time>
      </trkpt>
      <trkpt lat="48.20608" lon="7.13569">
        <ele>740.6</ele>
        <time>2022-02-13T10:03:46Z</time>
      </trkpt>
      <trkpt lat="48.20608" lon="7.13569">
        <ele>740.6</ele>
        <time>2022-02-13T10:03:47Z</time>
      </trkpt>
      <trkpt lat="48.20608" lon="7.13569">
        <ele>740.6</ele>
        <time>2022-02-13T10:03:48Z</time>
      </trkpt>
      <trkpt lat="48.20608" lon="7.13569">
        <ele>740.6</ele>
        <time>2022-02-13T10:03:54Z</time>
      </trkpt>
      <trkpt lat="48.20608" lon="7.13569">
        <ele>740.6</ele>
        <time>2022-02-13T10:03:55Z</time>
      </trkpt>
      <trkpt lat="48.20608" lon="7.13569">
        <ele>740.7</ele>
        <time>2022-02-13T10:04:14Z</time>
      </trkpt>
      <trkpt lat="48.20608" lon="7.13569">
        <ele>740.7</ele>
        <time>2022-02-13T10:04:15Z</time>
      </trkpt>
      <trkpt lat="48.20609" lon="7.13569">
        <ele>740.7</ele>
        <time>2022-02-13T10:04:19Z</time>
      </trkpt>
      <trkpt lat="48.20609" lon="7.13569">
        <ele>740.7</ele>
        <time>2022-02-13T10:04:20Z</time>
      </trkpt>
      <trkpt lat="48.20609" lon="7.13569">
        <ele>740.7</ele>
        <time>2022-02-13T10:04:21Z</time>
      </trkpt>
      <trkpt lat="48.20609" lon="7.13569">
        <ele>740.7</ele>
        <time>2022-02-13T10:04:22Z</time>
      </trkpt>
      <trkpt lat="48.20609" lon="7.13569">
        <ele>740.8</ele>
        <time>2022-02-13T10:04:33Z</time>
      </trkpt>
      <trkpt lat="48.2061" lon="7.13569">
        <ele>740.8</ele>
        <time>2022-02-13T10:04:35Z</time>
      </trkpt>
      <trkpt lat="48.2061" lon="7.13569">
        <ele>740.8</ele>
        <time>2022-02-13T10:04:36Z</time>
      </trkpt>
      <trkpt lat="48.2061" lon="7.13569">
        <ele>740.8</ele>
        <time>2022-02-13T10:04:37Z</time>
      </trkpt>
      <trkpt lat="48.2061" lon="7.13569">
        <ele>740.9</ele>
        <time>2022-02-13T10:04:39Z</time>
      </trkpt>
      <trkpt lat="48.20613" lon="7.1357">
        <ele>741.1</ele>
        <time>2022-02-13T10:04:48Z</time>
      </trkpt>
      <trkpt lat="48.20613" lon="7.1357">
        <ele>741.1</ele>
        <time>2022-02-13T10:05:00Z</time>
      </trkpt>
      <trkpt lat="48.20612" lon="7.13569">
        <ele>741.2</ele>
        <time>2022-02-13T10:05:03Z</time>
      </trkpt>
      <trkpt lat="48.20612" lon="7.13568">
        <ele>741.2</ele>
        <time>2022-02-13T10:05:05Z</time>
      </trkpt>
      <trkpt lat="48.20612" lon="7.13568">
        <ele>741.2</ele>
        <time>2022-02-13T10:05:06Z</time>
      </trkpt>
      <trkpt lat="48.20611" lon="7.13568">
        <ele>741.2</ele>
        <time>2022-02-13T10:05:19Z</time>
      </trkpt>
      <trkpt lat="48.20611" lon="7.13568">
        <ele>741.2</ele>
        <time>2022-02-13T10:05:23Z</time>
      </trkpt>
      <trkpt lat="48.20611" lon="7.13568">
        <ele>741.3</ele>
        <time>2022-02-13T10:06:03Z</time>
      </trkpt>
      <trkpt lat="48.20611" lon="7.13568">
        <ele>741.3</ele>
        <time>2022-02-13T10:06:04Z</time>
      </trkpt>
      <trkpt lat="48.20612" lon="7.13568">
        <ele>741.3</ele>
        <time>2022-02-13T10:06:06Z</time>
      </trkpt>
      <trkpt lat="48.20613" lon="7.13567">
        <ele>741.4</ele>
        <time>2022-02-13T10:06:12Z</time>
      </trkpt>
      <trkpt lat="48.20613" lon="7.13567">
        <ele>741.4</ele>
        <time>2022-02-13T10:06:14Z</time>
      </trkpt>
      <trkpt lat="48.20614" lon="7.13567">
        <ele>741.5</ele>
        <time>2022-02-13T10:06:16Z</time>
      </trkpt>
      <trkpt lat="48.20614" lon="7.13567">
        <ele>741.5</ele>
        <time>2022-02-13T10:06:43Z</time>
      </trkpt>
      <trkpt lat="48.20614" lon="7.13567">
        <ele>741.5</ele>
        <time>2022-02-13T10:06:44Z</time>
      </trkpt>
      <trkpt lat="48.20614" lon="7.13567">
        <ele>741.5</ele>
        <time>2022-02-13T10:06:48Z</time>
      </trkpt>
      <trkpt lat="48.20615" lon="7.13567">
        <ele>741.6</ele>
        <time>2022-02-13T10:07:02Z</time>
      </trkpt>
      <trkpt lat="48.20616" lon="7.13567">
        <ele>741.7</ele>
        <time>2022-02-13T10:07:03Z</time>
      </trkpt>
      <trkpt lat="48.20619" lon="7.13567">
        <ele>741.9</ele>
        <time>2022-02-13T10:07:11Z</time>
      </trkpt>
      <trkpt lat="48.20618" lon="7.13567">
        <ele>741.9</ele>
        <time>2022-02-13T10:07:12Z</time>
      </trkpt>
      <trkpt lat="48.20609" lon="7.13562">
        <ele>742.8</ele>
        <time>2022-02-13T10:07:33Z</time>
      </trkpt>
      <trkpt lat="48.20607" lon="7.13575">
        <ele>743.6</ele>
        <time>2022-02-13T10:07:47Z</time>
      </trkpt>
      <trkpt lat="48.20608" lon="7.13575">
        <ele>743.7</ele>
        <time>2022-02-13T10:08:01Z</time>
      </trkpt>
      <trkpt lat="48.20608" lon="7.13574">
        <ele>743.7</ele>
        <time>2022-02-13T10:08:02Z</time>
      </trkpt>
      <trkpt lat="48.20598" lon="7.13579">
        <ele>744.6</ele>
        <time>2022-02-13T10:08:16Z</time>
      </trkpt>
      <trkpt lat="48.20589" lon="7.1358">
        <ele>745.4</ele>
        <time>2022-02-13T10:08:23Z</time>
      </trkpt>
      <trkpt lat="48.2058" lon="7.1358">
        <ele>746.2</ele>
        <time>2022-02-13T10:08:29Z</time>
      </trkpt>
      <trkpt lat="48.2057" lon="7.13579">
        <ele>747</ele>
        <time>2022-02-13T10:08:35Z</time>
      </trkpt>
      <trkpt lat="48.20561" lon="7.13576">
        <ele>747.8</ele>
        <time>2022-02-13T10:08:42Z</time>
      </trkpt>
      <trkpt lat="48.20551" lon="7.13578">
        <ele>748.6</ele>
        <time>2022-02-13T10:08:50Z</time>
      </trkpt>
      <trkpt lat="48.20542" lon="7.1358">
        <ele>749.5</ele>
        <time>2022-02-13T10:08:56Z</time>
      </trkpt>
      <trkpt lat="48.20533" lon="7.13583">
        <ele>750.3</ele>
        <time>2022-02-13T10:09:01Z</time>
      </trkpt>
      <trkpt lat="48.20524" lon="7.13577">
        <ele>751</ele>
        <time>2022-02-13T10:09:11Z</time>
      </trkpt>
      <trkpt lat="48.20515" lon="7.13582">
        <ele>751.9</ele>
        <time>2022-02-13T10:09:23Z</time>
      </trkpt>
      <trkpt lat="48.20506" lon="7.13587">
        <ele>752.7</ele>
        <time>2022-02-13T10:09:32Z</time>
      </trkpt>
      <trkpt lat="48.20497" lon="7.13594">
        <ele>753.6</ele>
        <time>2022-02-13T10:09:41Z</time>
      </trkpt>
      <trkpt lat="48.20487" lon="7.13599">
        <ele>754.5</ele>
        <time>2022-02-13T10:09:45Z</time>
      </trkpt>
      <trkpt lat="48.20478" lon="7.13607">
        <ele>755.4</ele>
        <time>2022-02-13T10:09:51Z</time>
      </trkpt>
      <trkpt lat="48.20473" lon="7.1362">
        <ele>756.2</ele>
        <time>2022-02-13T10:09:57Z</time>
      </trkpt>
      <trkpt lat="48.20479" lon="7.13609">
        <ele>755.3</ele>
        <time>2022-02-13T10:10:09Z</time>
      </trkpt>
      <trkpt lat="48.20488" lon="7.13612">
        <ele>754.5</ele>
        <time>2022-02-13T10:10:26Z</time>
      </trkpt>
      <trkpt lat="48.20497" lon="7.13612">
        <ele>753.7</ele>
        <time>2022-02-13T10:10:32Z</time>
      </trkpt>
      <trkpt lat="48.20496" lon="7.13614">
        <ele>753.6</ele>
        <time>2022-02-13T10:10:33Z</time>
      </trkpt>
      <trkpt lat="48.20501" lon="7.13602">
        <ele>752.7</ele>
        <time>2022-02-13T10:10:47Z</time>
      </trkpt>
      <trkpt lat="48.20506" lon="7.13591">
        <ele>751.9</ele>
        <time>2022-02-13T10:10:53Z</time>
      </trkpt>
      <trkpt lat="48.20513" lon="7.1358">
        <ele>751.1</ele>
        <time>2022-02-13T10:10:58Z</time>
      </trkpt>
      <trkpt lat="48.20513" lon="7.13567">
        <ele>751.3</ele>
        <time>2022-02-13T10:11:09Z</time>
      </trkpt>
      <trkpt lat="48.20515" lon="7.13553">
        <ele>750.3</ele>
        <time>2022-02-13T10:11:21Z</time>
      </trkpt>
      <trkpt lat="48.20521" lon="7.13543">
        <ele>748.3</ele>
        <time>2022-02-13T10:11:31Z</time>
      </trkpt>
      <trkpt lat="48.20523" lon="7.1353">
        <ele>747.1</ele>
        <time>2022-02-13T10:11:36Z</time>
      </trkpt>
      <trkpt lat="48.20523" lon="7.13516">
        <ele>746.8</ele>
        <time>2022-02-13T10:11:45Z</time>
      </trkpt>
      <trkpt lat="48.20522" lon="7.13512">
        <ele>747.7</ele>
        <time>2022-02-13T10:11:50Z</time>
      </trkpt>
      <trkpt lat="48.20521" lon="7.13511">
        <ele>747.9</ele>
        <time>2022-02-13T10:11:51Z</time>
      </trkpt>
      <trkpt lat="48.20513" lon="7.13504">
        <ele>750.2</ele>
        <time>2022-02-13T10:11:57Z</time>
      </trkpt>
      <trkpt lat="48.20505" lon="7.13494">
        <ele>752.7</ele>
        <time>2022-02-13T10:12:03Z</time>
      </trkpt>
      <trkpt lat="48.20507" lon="7.1348">
        <ele>752</ele>
        <time>2022-02-13T10:12:12Z</time>
      </trkpt>
      <trkpt lat="48.20497" lon="7.13476">
        <ele>755.3</ele>
        <time>2022-02-13T10:12:19Z</time>
      </trkpt>
      <trkpt lat="48.2049" lon="7.13467">
        <ele>759</ele>
        <time>2022-02-13T10:12:28Z</time>
      </trkpt>
      <trkpt lat="48.20485" lon="7.13463">
        <ele>761.4</ele>
        <time>2022-02-13T10:12:37Z</time>
      </trkpt>
      <trkpt lat="48.20485" lon="7.13463">
        <ele>761.6</ele>
        <time>2022-02-13T10:12:38Z</time>
      </trkpt>
      <trkpt lat="48.20478" lon="7.13453">
        <ele>764.3</ele>
        <time>2022-02-13T10:12:49Z</time>
      </trkpt>
      <trkpt lat="48.20473" lon="7.13459">
        <ele>766.3</ele>
        <time>2022-02-13T10:12:57Z</time>
      </trkpt>
      <trkpt lat="48.20472" lon="7.13459">
        <ele>766.7</ele>
        <time>2022-02-13T10:12:58Z</time>
      </trkpt>
      <trkpt lat="48.20462" lon="7.13455">
        <ele>771.4</ele>
        <time>2022-02-13T10:13:07Z</time>
      </trkpt>
      <trkpt lat="48.20455" lon="7.13446">
        <ele>774</ele>
        <time>2022-02-13T10:13:17Z</time>
      </trkpt>
      <trkpt lat="48.20447" lon="7.13435">
        <ele>778</ele>
        <time>2022-02-13T10:13:27Z</time>
      </trkpt>
      <trkpt lat="48.20438" lon="7.13427">
        <ele>782.1</ele>
        <time>2022-02-13T10:13:33Z</time>
      </trkpt>
      <trkpt lat="48.2043" lon="7.13423">
        <ele>785.1</ele>
        <time>2022-02-13T10:13:39Z</time>
      </trkpt>
      <trkpt lat="48.2042" lon="7.13418">
        <ele>787.7</ele>
        <time>2022-02-13T10:13:46Z</time>
      </trkpt>
      <trkpt lat="48.20413" lon="7.1341">
        <ele>789.5</ele>
        <time>2022-02-13T10:13:55Z</time>
      </trkpt>
      <trkpt lat="48.20406" lon="7.134">
        <ele>789.4</ele>
        <time>2022-02-13T10:14:07Z</time>
      </trkpt>
      <trkpt lat="48.20401" lon="7.13389">
        <ele>787</ele>
        <time>2022-02-13T10:14:20Z</time>
      </trkpt>
      <trkpt lat="48.20392" lon="7.13396">
        <ele>791.2</ele>
        <time>2022-02-13T10:14:41Z</time>
      </trkpt>
      <trkpt lat="48.20383" lon="7.13391">
        <ele>791.7</ele>
        <time>2022-02-13T10:14:47Z</time>
      </trkpt>
      <trkpt lat="48.20375" lon="7.13384">
        <ele>790.9</ele>
        <time>2022-02-13T10:14:53Z</time>
      </trkpt>
      <trkpt lat="48.20375" lon="7.13383">
        <ele>791.1</ele>
        <time>2022-02-13T10:15:01Z</time>
      </trkpt>
      <trkpt lat="48.20374" lon="7.13383">
        <ele>791.3</ele>
        <time>2022-02-13T10:15:02Z</time>
      </trkpt>
      <trkpt lat="48.20366" lon="7.13377">
        <ele>790.8</ele>
        <time>2022-02-13T10:15:08Z</time>
      </trkpt>
      <trkpt lat="48.20357" lon="7.13372">
        <ele>791.8</ele>
        <time>2022-02-13T10:15:18Z</time>
      </trkpt>
      <trkpt lat="48.20347" lon="7.13367">
        <ele>793.1</ele>
        <time>2022-02-13T10:15:25Z</time>
      </trkpt>
      <trkpt lat="48.20337" lon="7.13361">
        <ele>794.3</ele>
        <time>2022-02-13T10:15:28Z</time>
      </trkpt>
      <trkpt lat="48.20329" lon="7.13353">
        <ele>793.4</ele>
        <time>2022-02-13T10:15:39Z</time>
      </trkpt>
      <trkpt lat="48.20317" lon="7.13351">
        <ele>793.9</ele>
        <time>2022-02-13T10:15:46Z</time>
      </trkpt>
      <trkpt lat="48.20308" lon="7.13344">
        <ele>793.5</ele>
        <time>2022-02-13T10:15:53Z</time>
      </trkpt>
      <trkpt lat="48.20308" lon="7.13344">
        <ele>793.7</ele>
        <time>2022-02-13T10:15:54Z</time>
      </trkpt>
      <trkpt lat="48.20308" lon="7.13345">
        <ele>794.2</ele>
        <time>2022-02-13T10:15:55Z</time>
      </trkpt>
      <trkpt lat="48.20301" lon="7.13336">
        <ele>792.2</ele>
        <time>2022-02-13T10:16:10Z</time>
      </trkpt>
      <trkpt lat="48.20299" lon="7.13333">
        <ele>791.2</ele>
        <time>2022-02-13T10:16:14Z</time>
      </trkpt>
      <trkpt lat="48.20298" lon="7.13333">
        <ele>791.4</ele>
        <time>2022-02-13T10:16:15Z</time>
      </trkpt>
      <trkpt lat="48.20289" lon="7.13326">
        <ele>790.7</ele>
        <time>2022-02-13T10:16:24Z</time>
      </trkpt>
      <trkpt lat="48.20279" lon="7.13324">
        <ele>791</ele>
        <time>2022-02-13T10:16:46Z</time>
      </trkpt>
      <trkpt lat="48.20273" lon="7.13311">
        <ele>787.8</ele>
        <time>2022-02-13T10:16:52Z</time>
      </trkpt>
      <trkpt lat="48.20264" lon="7.13306">
        <ele>788.3</ele>
        <time>2022-02-13T10:17:06Z</time>
      </trkpt>
      <trkpt lat="48.20259" lon="7.13316">
        <ele>792.8</ele>
        <time>2022-02-13T10:17:19Z</time>
      </trkpt>
      <trkpt lat="48.20258" lon="7.13315">
        <ele>793</ele>
        <time>2022-02-13T10:17:20Z</time>
      </trkpt>
      <trkpt lat="48.20249" lon="7.13314">
        <ele>795.2</ele>
        <time>2022-02-13T10:17:36Z</time>
      </trkpt>
      <trkpt lat="48.20241" lon="7.13306">
        <ele>793.4</ele>
        <time>2022-02-13T10:17:46Z</time>
      </trkpt>
      <trkpt lat="48.20233" lon="7.13299">
        <ele>791.7</ele>
        <time>2022-02-13T10:17:52Z</time>
      </trkpt>
      <trkpt lat="48.20223" lon="7.13298">
        <ele>790.9</ele>
        <time>2022-02-13T10:18:01Z</time>
      </trkpt>
      <trkpt lat="48.20235" lon="7.13306">
        <ele>791.9</ele>
        <time>2022-02-13T10:18:12Z</time>
      </trkpt>
      <trkpt lat="48.20243" lon="7.13314">
        <ele>792.7</ele>
        <time>2022-02-13T10:18:15Z</time>
      </trkpt>
      <trkpt lat="48.20237" lon="7.1331">
        <ele>793.2</ele>
        <time>2022-02-13T10:18:28Z</time>
      </trkpt>
      <trkpt lat="48.20239" lon="7.13312">
        <ele>793.3</ele>
        <time>2022-02-13T10:18:29Z</time>
      </trkpt>
      <trkpt lat="48.20243" lon="7.13325">
        <ele>794.1</ele>
        <time>2022-02-13T10:18:33Z</time>
      </trkpt>
      <trkpt lat="48.20246" lon="7.13341">
        <ele>794.9</ele>
        <time>2022-02-13T10:18:40Z</time>
      </trkpt>
      <trkpt lat="48.20255" lon="7.13349">
        <ele>795.7</ele>
        <time>2022-02-13T10:18:44Z</time>
      </trkpt>
      <trkpt lat="48.20264" lon="7.13356">
        <ele>796.5</ele>
        <time>2022-02-13T10:18:47Z</time>
      </trkpt>
      <trkpt lat="48.20274" lon="7.13358">
        <ele>797.3</ele>
        <time>2022-02-13T10:18:51Z</time>
      </trkpt>
      <trkpt lat="48.2027" lon="7.13371">
        <ele>798</ele>
        <time>2022-02-13T10:19:02Z</time>
      </trkpt>
      <trkpt lat="48.20275" lon="7.13378">
        <ele>798.5</ele>
        <time>2022-02-13T10:19:07Z</time>
      </trkpt>
      <trkpt lat="48.20274" lon="7.13377">
        <ele>798.6</ele>
        <time>2022-02-13T10:19:08Z</time>
      </trkpt>
      <trkpt lat="48.20265" lon="7.13373">
        <ele>799.3</ele>
        <time>2022-02-13T10:19:14Z</time>
      </trkpt>
      <trkpt lat="48.20271" lon="7.13378">
        <ele>799.8</ele>
        <time>2022-02-13T10:19:34Z</time>
      </trkpt>
      <trkpt lat="48.20272" lon="7.13377">
        <ele>799.8</ele>
        <time>2022-02-13T10:19:35Z</time>
      </trkpt>
      <trkpt lat="48.20263" lon="7.1337">
        <ele>800.6</ele>
        <time>2022-02-13T10:19:45Z</time>
      </trkpt>
      <trkpt lat="48.20263" lon="7.13369">
        <ele>800.6</ele>
        <time>2022-02-13T10:19:47Z</time>
      </trkpt>
      <trkpt lat="48.20262" lon="7.13371">
        <ele>800.7</ele>
        <time>2022-02-13T10:19:48Z</time>
      </trkpt>
      <trkpt lat="48.2027" lon="7.13384">
        <ele>801.7</ele>
        <time>2022-02-13T10:20:07Z</time>
      </trkpt>
      <trkpt lat="48.20282" lon="7.13389">
        <ele>802.6</ele>
        <time>2022-02-13T10:20:13Z</time>
      </trkpt>
      <trkpt lat="48.20288" lon="7.13399">
        <ele>803.3</ele>
        <time>2022-02-13T10:20:18Z</time>
      </trkpt>
      <trkpt lat="48.20296" lon="7.13409">
        <ele>804.1</ele>
        <time>2022-02-13T10:20:21Z</time>
      </trkpt>
      <trkpt lat="48.20304" lon="7.13419">
        <ele>804.9</ele>
        <time>2022-02-13T10:20:24Z</time>
      </trkpt>
      <trkpt lat="48.20313" lon="7.13429">
        <ele>805.7</ele>
        <time>2022-02-13T10:20:29Z</time>
      </trkpt>
      <trkpt lat="48.20307" lon="7.1344">
        <ele>806.5</ele>
        <time>2022-02-13T10:21:05Z</time>
      </trkpt>
      <trkpt lat="48.20316" lon="7.13444">
        <ele>807.2</ele>
        <time>2022-02-13T10:21:20Z</time>
      </trkpt>
      <trkpt lat="48.20325" lon="7.13451">
        <ele>807.9</ele>
        <time>2022-02-13T10:21:31Z</time>
      </trkpt>
      <trkpt lat="48.20325" lon="7.13459">
        <ele>808.3</ele>
        <time>2022-02-13T10:21:46Z</time>
      </trkpt>
      <trkpt lat="48.20325" lon="7.13459">
        <ele>808.4</ele>
        <time>2022-02-13T10:21:47Z</time>
      </trkpt>
      <trkpt lat="48.2032" lon="7.13446">
        <ele>809.1</ele>
        <time>2022-02-13T10:21:52Z</time>
      </trkpt>
      <trkpt lat="48.20315" lon="7.13431">
        <ele>810</ele>
        <time>2022-02-13T10:21:58Z</time>
      </trkpt>
      <trkpt lat="48.20308" lon="7.1342">
        <ele>810.8</ele>
        <time>2022-02-13T10:22:01Z</time>
      </trkpt>
      <trkpt lat="48.20312" lon="7.13432">
        <ele>811.5</ele>
        <time>2022-02-13T10:22:09Z</time>
      </trkpt>
      <trkpt lat="48.20305" lon="7.13424">
        <ele>812.2</ele>
        <time>2022-02-13T10:22:21Z</time>
      </trkpt>
      <trkpt lat="48.20311" lon="7.13437">
        <ele>813</ele>
        <time>2022-02-13T10:22:39Z</time>
      </trkpt>
      <trkpt lat="48.20315" lon="7.13452">
        <ele>820.2</ele>
        <time>2022-02-13T10:22:42Z</time>
      </trkpt>
      <trkpt lat="48.20308" lon="7.13438">
        <ele>820.8</ele>
        <time>2022-02-13T10:22:56Z</time>
      </trkpt>
      <trkpt lat="48.203" lon="7.13427">
        <ele>820</ele>
        <time>2022-02-13T10:23:01Z</time>
      </trkpt>
      <trkpt lat="48.20296" lon="7.13415">
        <ele>818.8</ele>
        <time>2022-02-13T10:23:04Z</time>
      </trkpt>
      <trkpt lat="48.20294" lon="7.1343">
        <ele>827.9</ele>
        <time>2022-02-13T10:23:17Z</time>
      </trkpt>
      <trkpt lat="48.20301" lon="7.13442">
        <ele>832.8</ele>
        <time>2022-02-13T10:23:23Z</time>
      </trkpt>
      <trkpt lat="48.20305" lon="7.13456">
        <ele>837.9</ele>
        <time>2022-02-13T10:23:33Z</time>
      </trkpt>
      <trkpt lat="48.2031" lon="7.1347">
        <ele>840.8</ele>
        <time>2022-02-13T10:23:36Z</time>
      </trkpt>
      <trkpt lat="48.203" lon="7.13462">
        <ele>842.4</ele>
        <time>2022-02-13T10:23:44Z</time>
      </trkpt>
      <trkpt lat="48.20303" lon="7.13462">
        <ele>842.8</ele>
        <time>2022-02-13T10:23:51Z</time>
      </trkpt>
      <trkpt lat="48.20303" lon="7.13462">
        <ele>842.9</ele>
        <time>2022-02-13T10:23:52Z</time>
      </trkpt>
      <trkpt lat="48.20296" lon="7.13454">
        <ele>844.2</ele>
        <time>2022-02-13T10:23:54Z</time>
      </trkpt>
      <trkpt lat="48.20293" lon="7.13453">
        <ele>844.5</ele>
        <time>2022-02-13T10:23:57Z</time>
      </trkpt>
      <trkpt lat="48.20292" lon="7.13453">
        <ele>844.7</ele>
        <time>2022-02-13T10:23:58Z</time>
      </trkpt>
      <trkpt lat="48.20285" lon="7.13443">
        <ele>846</ele>
        <time>2022-02-13T10:24:05Z</time>
      </trkpt>
      <trkpt lat="48.20282" lon="7.13445">
        <ele>846.5</ele>
        <time>2022-02-13T10:24:14Z</time>
      </trkpt>
      <trkpt lat="48.20282" lon="7.13445">
        <ele>846.6</ele>
        <time>2022-02-13T10:24:15Z</time>
      </trkpt>
      <trkpt lat="48.20275" lon="7.13438">
        <ele>847.7</ele>
        <time>2022-02-13T10:24:28Z</time>
      </trkpt>
      <trkpt lat="48.20275" lon="7.13438">
        <ele>847.8</ele>
        <time>2022-02-13T10:24:29Z</time>
      </trkpt>
      <trkpt lat="48.20279" lon="7.1343">
        <ele>848.7</ele>
        <time>2022-02-13T10:24:46Z</time>
      </trkpt>
      <trkpt lat="48.20279" lon="7.13429">
        <ele>848.8</ele>
        <time>2022-02-13T10:24:47Z</time>
      </trkpt>
      <trkpt lat="48.2027" lon="7.13424">
        <ele>850.2</ele>
        <time>2022-02-13T10:25:01Z</time>
      </trkpt>
      <trkpt lat="48.20259" lon="7.13418">
        <ele>851.8</ele>
        <time>2022-02-13T10:25:09Z</time>
      </trkpt>
      <trkpt lat="48.20251" lon="7.13409">
        <ele>853.2</ele>
        <time>2022-02-13T10:25:19Z</time>
      </trkpt>
      <trkpt lat="48.20242" lon="7.13405">
        <ele>854.6</ele>
        <time>2022-02-13T10:25:47Z</time>
      </trkpt>
      <trkpt lat="48.2024" lon="7.13401">
        <ele>855.1</ele>
        <time>2022-02-13T10:25:58Z</time>
      </trkpt>
      <trkpt lat="48.20241" lon="7.13401">
        <ele>855.1</ele>
        <time>2022-02-13T10:25:59Z</time>
      </trkpt>
      <trkpt lat="48.20243" lon="7.13401">
        <ele>855.5</ele>
        <time>2022-02-13T10:26:05Z</time>
      </trkpt>
      <trkpt lat="48.20243" lon="7.134">
        <ele>855.5</ele>
        <time>2022-02-13T10:26:06Z</time>
      </trkpt>
      <trkpt lat="48.20233" lon="7.13396">
        <ele>857</ele>
        <time>2022-02-13T10:26:26Z</time>
      </trkpt>
      <trkpt lat="48.20224" lon="7.13396">
        <ele>858.3</ele>
        <time>2022-02-13T10:26:32Z</time>
      </trkpt>
      <trkpt lat="48.20215" lon="7.13396">
        <ele>859.6</ele>
        <time>2022-02-13T10:26:38Z</time>
      </trkpt>
      <trkpt lat="48.20206" lon="7.13393">
        <ele>860.9</ele>
        <time>2022-02-13T10:26:48Z</time>
      </trkpt>
      <trkpt lat="48.20201" lon="7.13385">
        <ele>861.9</ele>
        <time>2022-02-13T10:27:01Z</time>
      </trkpt>
      <trkpt lat="48.20202" lon="7.13384">
        <ele>862</ele>
        <time>2022-02-13T10:27:02Z</time>
      </trkpt>
      <trkpt lat="48.20194" lon="7.13394">
        <ele>863.5</ele>
        <time>2022-02-13T10:27:29Z</time>
      </trkpt>
      <trkpt lat="48.20195" lon="7.13397">
        <ele>863.8</ele>
        <time>2022-02-13T10:27:33Z</time>
      </trkpt>
      <trkpt lat="48.20195" lon="7.13398">
        <ele>863.9</ele>
        <time>2022-02-13T10:27:34Z</time>
      </trkpt>
      <trkpt lat="48.20187" lon="7.13393">
        <ele>865.3</ele>
        <time>2022-02-13T10:27:47Z</time>
      </trkpt>
      <trkpt lat="48.20179" lon="7.13386">
        <ele>866.6</ele>
        <time>2022-02-13T10:27:55Z</time>
      </trkpt>
      <trkpt lat="48.2017" lon="7.13383">
        <ele>867.9</ele>
        <time>2022-02-13T10:28:08Z</time>
      </trkpt>
      <trkpt lat="48.2016" lon="7.13382">
        <ele>869.3</ele>
        <time>2022-02-13T10:28:14Z</time>
      </trkpt>
      <trkpt lat="48.20151" lon="7.13379">
        <ele>870.6</ele>
        <time>2022-02-13T10:28:26Z</time>
      </trkpt>
      <trkpt lat="48.20143" lon="7.13371">
        <ele>872</ele>
        <time>2022-02-13T10:28:33Z</time>
      </trkpt>
      <trkpt lat="48.20134" lon="7.13364">
        <ele>873.4</ele>
        <time>2022-02-13T10:28:39Z</time>
      </trkpt>
      <trkpt lat="48.20125" lon="7.13361">
        <ele>874.7</ele>
        <time>2022-02-13T10:28:48Z</time>
      </trkpt>
      <trkpt lat="48.20115" lon="7.13359">
        <ele>876.1</ele>
        <time>2022-02-13T10:28:54Z</time>
      </trkpt>
      <trkpt lat="48.20105" lon="7.13358">
        <ele>879.3</ele>
        <time>2022-02-13T10:28:59Z</time>
      </trkpt>
      <trkpt lat="48.20094" lon="7.13352">
        <ele>880.5</ele>
        <time>2022-02-13T10:29:13Z</time>
      </trkpt>
      <trkpt lat="48.20084" lon="7.13354">
        <ele>882.8</ele>
        <time>2022-02-13T10:29:25Z</time>
      </trkpt>
      <trkpt lat="48.20076" lon="7.13358">
        <ele>886.4</ele>
        <time>2022-02-13T10:29:38Z</time>
      </trkpt>
      <trkpt lat="48.20074" lon="7.13361">
        <ele>888</ele>
        <time>2022-02-13T10:29:42Z</time>
      </trkpt>
      <trkpt lat="48.20075" lon="7.13362">
        <ele>888.2</ele>
        <time>2022-02-13T10:29:43Z</time>
      </trkpt>
      <trkpt lat="48.20078" lon="7.13376">
        <ele>891.7</ele>
        <time>2022-02-13T10:29:54Z</time>
      </trkpt>
      <trkpt lat="48.20085" lon="7.13384">
        <ele>892.3</ele>
        <time>2022-02-13T10:30:22Z</time>
      </trkpt>
      <trkpt lat="48.20089" lon="7.13398">
        <ele>895.9</ele>
        <time>2022-02-13T10:30:47Z</time>
      </trkpt>
      <trkpt lat="48.2009" lon="7.134">
        <ele>897.4</ele>
        <time>2022-02-13T10:31:02Z</time>
      </trkpt>
      <trkpt lat="48.2009" lon="7.134">
        <ele>897.5</ele>
        <time>2022-02-13T10:31:07Z</time>
      </trkpt>
      <trkpt lat="48.2009" lon="7.13404">
        <ele>898.9</ele>
        <time>2022-02-13T10:31:20Z</time>
      </trkpt>
      <trkpt lat="48.20089" lon="7.13404">
        <ele>899.1</ele>
        <time>2022-02-13T10:31:21Z</time>
      </trkpt>
      <trkpt lat="48.20091" lon="7.13402">
        <ele>898</ele>
        <time>2022-02-13T10:31:38Z</time>
      </trkpt>
      <trkpt lat="48.20091" lon="7.13402">
        <ele>898.1</ele>
        <time>2022-02-13T10:31:39Z</time>
      </trkpt>
      <trkpt lat="48.20088" lon="7.13397">
        <ele>897.7</ele>
        <time>2022-02-13T10:31:49Z</time>
      </trkpt>
      <trkpt lat="48.20088" lon="7.13397">
        <ele>897.1</ele>
        <time>2022-02-13T10:31:50Z</time>
      </trkpt>
      <trkpt lat="48.20082" lon="7.13407">
        <ele>902.1</ele>
        <time>2022-02-13T10:31:59Z</time>
      </trkpt>
      <trkpt lat="48.20089" lon="7.13417">
        <ele>903.3</ele>
        <time>2022-02-13T10:32:19Z</time>
      </trkpt>
      <trkpt lat="48.20086" lon="7.13404">
        <ele>900.9</ele>
        <time>2022-02-13T10:32:48Z</time>
      </trkpt>
      <trkpt lat="48.20083" lon="7.13402">
        <ele>900.6</ele>
        <time>2022-02-13T10:32:53Z</time>
      </trkpt>
      <trkpt lat="48.20083" lon="7.13402">
        <ele>900.7</ele>
        <time>2022-02-13T10:32:54Z</time>
      </trkpt>
      <trkpt lat="48.20088" lon="7.13398">
        <ele>898.7</ele>
        <time>2022-02-13T10:33:00Z</time>
      </trkpt>
      <trkpt lat="48.20088" lon="7.13398">
        <ele>898.9</ele>
        <time>2022-02-13T10:33:01Z</time>
      </trkpt>
      <trkpt lat="48.20088" lon="7.13398">
        <ele>899</ele>
        <time>2022-02-13T10:33:03Z</time>
      </trkpt>
      <trkpt lat="48.20088" lon="7.13397">
        <ele>899.2</ele>
        <time>2022-02-13T10:33:04Z</time>
      </trkpt>
      <trkpt lat="48.20086" lon="7.134">
        <ele>900.6</ele>
        <time>2022-02-13T10:33:26Z</time>
      </trkpt>
      <trkpt lat="48.20085" lon="7.134">
        <ele>900.8</ele>
        <time>2022-02-13T10:33:27Z</time>
      </trkpt>
      <trkpt lat="48.20085" lon="7.134">
        <ele>901.7</ele>
        <time>2022-02-13T10:33:29Z</time>
      </trkpt>
      <trkpt lat="48.20084" lon="7.134">
        <ele>901.9</ele>
        <time>2022-02-13T10:33:32Z</time>
      </trkpt>
      <trkpt lat="48.20084" lon="7.13399">
        <ele>902</ele>
        <time>2022-02-13T10:33:34Z</time>
      </trkpt>
      <trkpt lat="48.20084" lon="7.13399">
        <ele>902.2</ele>
        <time>2022-02-13T10:33:36Z</time>
      </trkpt>
      <trkpt lat="48.20084" lon="7.13398">
        <ele>901</ele>
        <time>2022-02-13T10:33:38Z</time>
      </trkpt>
      <trkpt lat="48.20084" lon="7.13398">
        <ele>901.1</ele>
        <time>2022-02-13T10:33:40Z</time>
      </trkpt>
      <trkpt lat="48.20091" lon="7.13407">
        <ele>902.2</ele>
        <time>2022-02-13T10:33:59Z</time>
      </trkpt>
      <trkpt lat="48.20096" lon="7.13421">
        <ele>905.4</ele>
        <time>2022-02-13T10:34:06Z</time>
      </trkpt>
      <trkpt lat="48.20103" lon="7.1343">
        <ele>905.8</ele>
        <time>2022-02-13T10:34:30Z</time>
      </trkpt>
      <trkpt lat="48.20111" lon="7.13439">
        <ele>906.8</ele>
        <time>2022-02-13T10:34:42Z</time>
      </trkpt>
      <trkpt lat="48.20114" lon="7.13451">
        <ele>908.7</ele>
        <time>2022-02-13T10:34:56Z</time>
      </trkpt>
      <trkpt lat="48.20115" lon="7.1345">
        <ele>907.7</ele>
        <time>2022-02-13T10:35:02Z</time>
      </trkpt>
      <trkpt lat="48.20116" lon="7.13451">
        <ele>908.9</ele>
        <time>2022-02-13T10:35:03Z</time>
      </trkpt>
      <trkpt lat="48.20123" lon="7.13464">
        <ele>909.8</ele>
        <time>2022-02-13T10:35:17Z</time>
      </trkpt>
      <trkpt lat="48.20127" lon="7.13477">
        <ele>912.3</ele>
        <time>2022-02-13T10:35:27Z</time>
      </trkpt>
      <trkpt lat="48.20127" lon="7.13478">
        <ele>912.5</ele>
        <time>2022-02-13T10:35:30Z</time>
      </trkpt>
      <trkpt lat="48.20128" lon="7.13477">
        <ele>912.6</ele>
        <time>2022-02-13T10:35:31Z</time>
      </trkpt>
      <trkpt lat="48.20137" lon="7.13483">
        <ele>910.3</ele>
        <time>2022-02-13T10:35:45Z</time>
      </trkpt>
      <trkpt lat="48.20142" lon="7.13495">
        <ele>912.5</ele>
        <time>2022-02-13T10:35:54Z</time>
      </trkpt>
      <trkpt lat="48.20152" lon="7.13497">
        <ele>914.2</ele>
        <time>2022-02-13T10:36:08Z</time>
      </trkpt>
      <trkpt lat="48.20155" lon="7.13495">
        <ele>914.7</ele>
        <time>2022-02-13T10:36:14Z</time>
      </trkpt>
      <trkpt lat="48.20154" lon="7.13494">
        <ele>914.7</ele>
        <time>2022-02-13T10:36:15Z</time>
      </trkpt>
      <trkpt lat="48.20154" lon="7.13494">
        <ele>914.7</ele>
        <time>2022-02-13T10:36:16Z</time>
      </trkpt>
      <trkpt lat="48.20155" lon="7.13494">
        <ele>914.8</ele>
        <time>2022-02-13T10:36:17Z</time>
      </trkpt>
      <trkpt lat="48.20148" lon="7.13484">
        <ele>916.4</ele>
        <time>2022-02-13T10:36:50Z</time>
      </trkpt>
      <trkpt lat="48.20139" lon="7.13484">
        <ele>917.9</ele>
        <time>2022-02-13T10:37:21Z</time>
      </trkpt>
      <trkpt lat="48.20138" lon="7.13484">
        <ele>918.1</ele>
        <time>2022-02-13T10:37:24Z</time>
      </trkpt>
      <trkpt lat="48.20138" lon="7.13484">
        <ele>918.2</ele>
        <time>2022-02-13T10:37:25Z</time>
      </trkpt>
      <trkpt lat="48.20136" lon="7.13484">
        <ele>918.4</ele>
        <time>2022-02-13T10:37:29Z</time>
      </trkpt>
      <trkpt lat="48.20136" lon="7.13484">
        <ele>918.5</ele>
        <time>2022-02-13T10:37:30Z</time>
      </trkpt>
      <trkpt lat="48.20127" lon="7.13483">
        <ele>920</ele>
        <time>2022-02-13T10:38:00Z</time>
      </trkpt>
      <trkpt lat="48.20122" lon="7.13484">
        <ele>920.9</ele>
        <time>2022-02-13T10:38:10Z</time>
      </trkpt>
      <trkpt lat="48.20121" lon="7.13484">
        <ele>920.9</ele>
        <time>2022-02-13T10:38:11Z</time>
      </trkpt>
      <trkpt lat="48.20113" lon="7.13479">
        <ele>922.5</ele>
        <time>2022-02-13T10:38:30Z</time>
      </trkpt>
      <trkpt lat="48.2011" lon="7.13475">
        <ele>923.1</ele>
        <time>2022-02-13T10:38:39Z</time>
      </trkpt>
      <trkpt lat="48.2011" lon="7.13475">
        <ele>923.1</ele>
        <time>2022-02-13T10:38:40Z</time>
      </trkpt>
      <trkpt lat="48.2011" lon="7.13475">
        <ele>923.2</ele>
        <time>2022-02-13T10:38:41Z</time>
      </trkpt>
      <trkpt lat="48.20111" lon="7.13475">
        <ele>923.2</ele>
        <time>2022-02-13T10:38:42Z</time>
      </trkpt>
      <trkpt lat="48.20113" lon="7.13478">
        <ele>923.7</ele>
        <time>2022-02-13T10:38:55Z</time>
      </trkpt>
      <trkpt lat="48.20113" lon="7.13477">
        <ele>923.8</ele>
        <time>2022-02-13T10:38:56Z</time>
      </trkpt>
      <trkpt lat="48.20103" lon="7.13477">
        <ele>925.4</ele>
        <time>2022-02-13T10:39:18Z</time>
      </trkpt>
      <trkpt lat="48.20094" lon="7.13478">
        <ele>926.9</ele>
        <time>2022-02-13T10:39:32Z</time>
      </trkpt>
      <trkpt lat="48.20089" lon="7.13479">
        <ele>927.8</ele>
        <time>2022-02-13T10:39:44Z</time>
      </trkpt>
      <trkpt lat="48.20089" lon="7.13478">
        <ele>927.9</ele>
        <time>2022-02-13T10:39:45Z</time>
      </trkpt>
      <trkpt lat="48.20088" lon="7.13476">
        <ele>928.3</ele>
        <time>2022-02-13T10:39:53Z</time>
      </trkpt>
      <trkpt lat="48.20088" lon="7.13476">
        <ele>928.4</ele>
        <time>2022-02-13T10:39:54Z</time>
      </trkpt>
      <trkpt lat="48.20087" lon="7.13477">
        <ele>928.5</ele>
        <time>2022-02-13T10:40:05Z</time>
      </trkpt>
      <trkpt lat="48.20087" lon="7.13478">
        <ele>928.6</ele>
        <time>2022-02-13T10:40:07Z</time>
      </trkpt>
      <trkpt lat="48.20087" lon="7.13478">
        <ele>928.6</ele>
        <time>2022-02-13T10:40:08Z</time>
      </trkpt>
      <trkpt lat="48.20087" lon="7.13477">
        <ele>928.6</ele>
        <time>2022-02-13T10:40:11Z</time>
      </trkpt>
      <trkpt lat="48.20087" lon="7.13477">
        <ele>928.7</ele>
        <time>2022-02-13T10:40:13Z</time>
      </trkpt>
      <trkpt lat="48.20087" lon="7.13477">
        <ele>928.7</ele>
        <time>2022-02-13T10:40:14Z</time>
      </trkpt>
      <trkpt lat="48.20079" lon="7.13477">
        <ele>930.1</ele>
        <time>2022-02-13T10:40:45Z</time>
      </trkpt>
      <trkpt lat="48.20078" lon="7.13477">
        <ele>930.1</ele>
        <time>2022-02-13T10:40:46Z</time>
      </trkpt>
      <trkpt lat="48.2007" lon="7.13483">
        <ele>931.7</ele>
        <time>2022-02-13T10:41:02Z</time>
      </trkpt>
      <trkpt lat="48.20065" lon="7.13487">
        <ele>932.6</ele>
        <time>2022-02-13T10:41:12Z</time>
      </trkpt>
      <trkpt lat="48.20066" lon="7.13487">
        <ele>932.7</ele>
        <time>2022-02-13T10:41:15Z</time>
      </trkpt>
      <trkpt lat="48.20057" lon="7.13493">
        <ele>934.2</ele>
        <time>2022-02-13T10:41:48Z</time>
      </trkpt>
      <trkpt lat="48.2005" lon="7.13495">
        <ele>935.4</ele>
        <time>2022-02-13T10:42:10Z</time>
      </trkpt>
      <trkpt lat="48.20051" lon="7.13494">
        <ele>935.6</ele>
        <time>2022-02-13T10:42:12Z</time>
      </trkpt>
      <trkpt lat="48.20043" lon="7.13501">
        <ele>937.1</ele>
        <time>2022-02-13T10:42:29Z</time>
      </trkpt>
      <trkpt lat="48.20034" lon="7.13506">
        <ele>938.7</ele>
        <time>2022-02-13T10:42:46Z</time>
      </trkpt>
      <trkpt lat="48.20026" lon="7.13511">
        <ele>940.1</ele>
        <time>2022-02-13T10:42:59Z</time>
      </trkpt>
      <trkpt lat="48.20026" lon="7.1351">
        <ele>940.2</ele>
        <time>2022-02-13T10:43:00Z</time>
      </trkpt>
      <trkpt lat="48.20016" lon="7.13515">
        <ele>944.5</ele>
        <time>2022-02-13T10:43:20Z</time>
      </trkpt>
      <trkpt lat="48.20008" lon="7.13521">
        <ele>944.9</ele>
        <time>2022-02-13T10:43:35Z</time>
      </trkpt>
      <trkpt lat="48.20001" lon="7.13532">
        <ele>945.5</ele>
        <time>2022-02-13T10:43:48Z</time>
      </trkpt>
      <trkpt lat="48.19994" lon="7.1354">
        <ele>946.1</ele>
        <time>2022-02-13T10:44:04Z</time>
      </trkpt>
      <trkpt lat="48.19988" lon="7.13551">
        <ele>946.6</ele>
        <time>2022-02-13T10:44:17Z</time>
      </trkpt>
      <trkpt lat="48.19984" lon="7.13553">
        <ele>946.7</ele>
        <time>2022-02-13T10:44:30Z</time>
      </trkpt>
      <trkpt lat="48.19984" lon="7.13554">
        <ele>946.8</ele>
        <time>2022-02-13T10:44:37Z</time>
      </trkpt>
      <trkpt lat="48.19984" lon="7.13554">
        <ele>946.8</ele>
        <time>2022-02-13T10:44:39Z</time>
      </trkpt>
      <trkpt lat="48.19984" lon="7.13554">
        <ele>946.8</ele>
        <time>2022-02-13T10:44:40Z</time>
      </trkpt>
      <trkpt lat="48.19984" lon="7.13555">
        <ele>946.8</ele>
        <time>2022-02-13T10:44:42Z</time>
      </trkpt>
      <trkpt lat="48.19983" lon="7.13555">
        <ele>946.8</ele>
        <time>2022-02-13T10:44:43Z</time>
      </trkpt>
      <trkpt lat="48.19974" lon="7.13556">
        <ele>947</ele>
        <time>2022-02-13T10:44:55Z</time>
      </trkpt>
      <trkpt lat="48.19971" lon="7.13555">
        <ele>947.1</ele>
        <time>2022-02-13T10:45:00Z</time>
      </trkpt>
      <trkpt lat="48.19971" lon="7.13554">
        <ele>947.1</ele>
        <time>2022-02-13T10:45:01Z</time>
      </trkpt>
      <trkpt lat="48.19971" lon="7.13558">
        <ele>947.1</ele>
        <time>2022-02-13T10:45:09Z</time>
      </trkpt>
      <trkpt lat="48.1997" lon="7.13558">
        <ele>947.1</ele>
        <time>2022-02-13T10:45:10Z</time>
      </trkpt>
      <trkpt lat="48.1997" lon="7.1356">
        <ele>947.1</ele>
        <time>2022-02-13T10:45:23Z</time>
      </trkpt>
      <trkpt lat="48.1997" lon="7.1356">
        <ele>947.1</ele>
        <time>2022-02-13T10:45:24Z</time>
      </trkpt>
      <trkpt lat="48.19961" lon="7.13561">
        <ele>947.2</ele>
        <time>2022-02-13T10:45:45Z</time>
      </trkpt>
      <trkpt lat="48.1996" lon="7.13562">
        <ele>947.2</ele>
        <time>2022-02-13T10:45:48Z</time>
      </trkpt>
      <trkpt lat="48.1996" lon="7.13562">
        <ele>947.2</ele>
        <time>2022-02-13T10:45:49Z</time>
      </trkpt>
      <trkpt lat="48.19961" lon="7.13563">
        <ele>947.2</ele>
        <time>2022-02-13T10:45:52Z</time>
      </trkpt>
      <trkpt lat="48.19961" lon="7.13563">
        <ele>947.2</ele>
        <time>2022-02-13T10:45:53Z</time>
      </trkpt>
      <trkpt lat="48.19954" lon="7.13572">
        <ele>947.5</ele>
        <time>2022-02-13T10:46:11Z</time>
      </trkpt>
      <trkpt lat="48.19954" lon="7.13572">
        <ele>947.3</ele>
        <time>2022-02-13T10:46:12Z</time>
      </trkpt>
      <trkpt lat="48.19954" lon="7.13572">
        <ele>947</ele>
        <time>2022-02-13T10:46:14Z</time>
      </trkpt>
      <trkpt lat="48.19953" lon="7.13577">
        <ele>948</ele>
        <time>2022-02-13T10:46:24Z</time>
      </trkpt>
      <trkpt lat="48.19953" lon="7.13578">
        <ele>947.7</ele>
        <time>2022-02-13T10:46:25Z</time>
      </trkpt>
      <trkpt lat="48.19962" lon="7.13583">
        <ele>951.5</ele>
        <time>2022-02-13T10:46:36Z</time>
      </trkpt>
      <trkpt lat="48.19972" lon="7.13586">
        <ele>955.7</ele>
        <time>2022-02-13T10:46:52Z</time>
      </trkpt>
      <trkpt lat="48.1998" lon="7.1359">
        <ele>958.8</ele>
        <time>2022-02-13T10:46:59Z</time>
      </trkpt>
      <trkpt lat="48.19989" lon="7.13589">
        <ele>959.7</ele>
        <time>2022-02-13T10:47:08Z</time>
      </trkpt>
      <trkpt lat="48.19999" lon="7.13589">
        <ele>960</ele>
        <time>2022-02-13T10:47:15Z</time>
      </trkpt>
      <trkpt lat="48.20008" lon="7.13589">
        <ele>959.8</ele>
        <time>2022-02-13T10:47:27Z</time>
      </trkpt>
      <trkpt lat="48.20017" lon="7.13588">
        <ele>959.2</ele>
        <time>2022-02-13T10:47:36Z</time>
      </trkpt>
      <trkpt lat="48.20024" lon="7.1358">
        <ele>955.9</ele>
        <time>2022-02-13T10:47:53Z</time>
      </trkpt>
      <trkpt lat="48.20018" lon="7.13581">
        <ele>956</ele>
        <time>2022-02-13T10:48:23Z</time>
      </trkpt>
      <trkpt lat="48.20017" lon="7.13581">
        <ele>955.7</ele>
        <time>2022-02-13T10:48:24Z</time>
      </trkpt>
      <trkpt lat="48.20024" lon="7.13593">
        <ele>958.9</ele>
        <time>2022-02-13T10:48:34Z</time>
      </trkpt>
      <trkpt lat="48.20032" lon="7.136">
        <ele>958.6</ele>
        <time>2022-02-13T10:48:43Z</time>
      </trkpt>
      <trkpt lat="48.20034" lon="7.13602">
        <ele>959.1</ele>
        <time>2022-02-13T10:49:02Z</time>
      </trkpt>
      <trkpt lat="48.20035" lon="7.13602">
        <ele>958.9</ele>
        <time>2022-02-13T10:49:03Z</time>
      </trkpt>
      <trkpt lat="48.20034" lon="7.13601">
        <ele>958.6</ele>
        <time>2022-02-13T10:49:07Z</time>
      </trkpt>
      <trkpt lat="48.20034" lon="7.13601">
        <ele>958.3</ele>
        <time>2022-02-13T10:49:09Z</time>
      </trkpt>
      <trkpt lat="48.20043" lon="7.13605">
        <ele>956.5</ele>
        <time>2022-02-13T10:49:24Z</time>
      </trkpt>
      <trkpt lat="48.20051" lon="7.13612">
        <ele>956.8</ele>
        <time>2022-02-13T10:49:32Z</time>
      </trkpt>
      <trkpt lat="48.20059" lon="7.13621">
        <ele>957.4</ele>
        <time>2022-02-13T10:49:40Z</time>
      </trkpt>
      <trkpt lat="48.20066" lon="7.13629">
        <ele>956.7</ele>
        <time>2022-02-13T10:49:47Z</time>
      </trkpt>
      <trkpt lat="48.20074" lon="7.13639">
        <ele>955.3</ele>
        <time>2022-02-13T10:49:56Z</time>
      </trkpt>
      <trkpt lat="48.20082" lon="7.13648">
        <ele>954.5</ele>
        <time>2022-02-13T10:50:05Z</time>
      </trkpt>
      <trkpt lat="48.20083" lon="7.13653">
        <ele>954.8</ele>
        <time>2022-02-13T10:50:23Z</time>
      </trkpt>
      <trkpt lat="48.20083" lon="7.13654">
        <ele>954.5</ele>
        <time>2022-02-13T10:50:26Z</time>
      </trkpt>
      <trkpt lat="48.20082" lon="7.13668">
        <ele>958.4</ele>
        <time>2022-02-13T10:50:35Z</time>
      </trkpt>
      <trkpt lat="48.20078" lon="7.13681">
        <ele>961.8</ele>
        <time>2022-02-13T10:50:43Z</time>
      </trkpt>
      <trkpt lat="48.20075" lon="7.13693">
        <ele>964.7</ele>
        <time>2022-02-13T10:51:04Z</time>
      </trkpt>
      <trkpt lat="48.20071" lon="7.13698">
        <ele>966.2</ele>
        <time>2022-02-13T10:51:16Z</time>
      </trkpt>
      <trkpt lat="48.20071" lon="7.13698">
        <ele>967.1</ele>
        <time>2022-02-13T10:51:17Z</time>
      </trkpt>
      <trkpt lat="48.20065" lon="7.13708">
        <ele>970.8</ele>
        <time>2022-02-13T10:51:30Z</time>
      </trkpt>
      <trkpt lat="48.20061" lon="7.13721">
        <ele>972.6</ele>
        <time>2022-02-13T10:51:44Z</time>
      </trkpt>
      <trkpt lat="48.20061" lon="7.1372">
        <ele>972.4</ele>
        <time>2022-02-13T10:51:45Z</time>
      </trkpt>
      <trkpt lat="48.20061" lon="7.1372">
        <ele>972.1</ele>
        <time>2022-02-13T10:51:47Z</time>
      </trkpt>
      <trkpt lat="48.20059" lon="7.13732">
        <ele>974</ele>
        <time>2022-02-13T10:52:09Z</time>
      </trkpt>
      <trkpt lat="48.2006" lon="7.13732">
        <ele>972.6</ele>
        <time>2022-02-13T10:52:10Z</time>
      </trkpt>
      <trkpt lat="48.20066" lon="7.13722">
        <ele>969.6</ele>
        <time>2022-02-13T10:52:24Z</time>
      </trkpt>
      <trkpt lat="48.20066" lon="7.13716">
        <ele>968.5</ele>
        <time>2022-02-13T10:52:42Z</time>
      </trkpt>
      <trkpt lat="48.20066" lon="7.13715">
        <ele>968.2</ele>
        <time>2022-02-13T10:52:43Z</time>
      </trkpt>
      <trkpt lat="48.20066" lon="7.13715">
        <ele>968</ele>
        <time>2022-02-13T10:52:44Z</time>
      </trkpt>
      <trkpt lat="48.20066" lon="7.13714">
        <ele>967.7</ele>
        <time>2022-02-13T10:52:45Z</time>
      </trkpt>
      <trkpt lat="48.20072" lon="7.13704">
        <ele>963.5</ele>
        <time>2022-02-13T10:52:57Z</time>
      </trkpt>
      <trkpt lat="48.20075" lon="7.13697">
        <ele>961.4</ele>
        <time>2022-02-13T10:53:09Z</time>
      </trkpt>
      <trkpt lat="48.20075" lon="7.13695">
        <ele>961.2</ele>
        <time>2022-02-13T10:53:14Z</time>
      </trkpt>
      <trkpt lat="48.20074" lon="7.13694">
        <ele>960.3</ele>
        <time>2022-02-13T10:53:16Z</time>
      </trkpt>
      <trkpt lat="48.20074" lon="7.13694">
        <ele>961.2</ele>
        <time>2022-02-13T10:53:18Z</time>
      </trkpt>
      <trkpt lat="48.20073" lon="7.13697">
        <ele>961.6</ele>
        <time>2022-02-13T10:53:25Z</time>
      </trkpt>
      <trkpt lat="48.20073" lon="7.13697">
        <ele>961.4</ele>
        <time>2022-02-13T10:53:26Z</time>
      </trkpt>
      <trkpt lat="48.20071" lon="7.13697">
        <ele>962.3</ele>
        <time>2022-02-13T10:53:32Z</time>
      </trkpt>
      <trkpt lat="48.20071" lon="7.13696">
        <ele>962</ele>
        <time>2022-02-13T10:53:33Z</time>
      </trkpt>
      <trkpt lat="48.20071" lon="7.13682">
        <ele>958</ele>
        <time>2022-02-13T10:53:51Z</time>
      </trkpt>
      <trkpt lat="48.20065" lon="7.13672">
        <ele>959.6</ele>
        <time>2022-02-13T10:54:02Z</time>
      </trkpt>
      <trkpt lat="48.20059" lon="7.13664">
        <ele>959.7</ele>
        <time>2022-02-13T10:54:12Z</time>
      </trkpt>
      <trkpt lat="48.20058" lon="7.13664">
        <ele>959.5</ele>
        <time>2022-02-13T10:54:13Z</time>
      </trkpt>
      <trkpt lat="48.2005" lon="7.13659">
        <ele>961.1</ele>
        <time>2022-02-13T10:54:28Z</time>
      </trkpt>
      <trkpt lat="48.20043" lon="7.1365">
        <ele>962</ele>
        <time>2022-02-13T10:54:46Z</time>
      </trkpt>
      <trkpt lat="48.20034" lon="7.13646">
        <ele>963</ele>
        <time>2022-02-13T10:55:00Z</time>
      </trkpt>
      <trkpt lat="48.20026" lon="7.13641">
        <ele>964.1</ele>
        <time>2022-02-13T10:55:17Z</time>
      </trkpt>
      <trkpt lat="48.20017" lon="7.13641">
        <ele>965.1</ele>
        <time>2022-02-13T10:55:27Z</time>
      </trkpt>
      <trkpt lat="48.20007" lon="7.13643">
        <ele>966.1</ele>
        <time>2022-02-13T10:55:40Z</time>
      </trkpt>
      <trkpt lat="48.19997" lon="7.13645">
        <ele>967.2</ele>
        <time>2022-02-13T10:56:00Z</time>
      </trkpt>
      <trkpt lat="48.19997" lon="7.13645">
        <ele>967.3</ele>
        <time>2022-02-13T10:56:02Z</time>
      </trkpt>
      <trkpt lat="48.19997" lon="7.13646">
        <ele>967.4</ele>
        <time>2022-02-13T10:56:07Z</time>
      </trkpt>
      <trkpt lat="48.19997" lon="7.13646">
        <ele>967.4</ele>
        <time>2022-02-13T10:56:08Z</time>
      </trkpt>
      <trkpt lat="48.19997" lon="7.13647">
        <ele>967.4</ele>
        <time>2022-02-13T10:56:09Z</time>
      </trkpt>
      <trkpt lat="48.19995" lon="7.1365">
        <ele>967.8</ele>
        <time>2022-02-13T10:56:15Z</time>
      </trkpt>
      <trkpt lat="48.19995" lon="7.13651">
        <ele>967.8</ele>
        <time>2022-02-13T10:56:19Z</time>
      </trkpt>
      <trkpt lat="48.19986" lon="7.13654">
        <ele>968.9</ele>
        <time>2022-02-13T10:56:43Z</time>
      </trkpt>
      <trkpt lat="48.19977" lon="7.13656">
        <ele>970</ele>
        <time>2022-02-13T10:56:53Z</time>
      </trkpt>
      <trkpt lat="48.19972" lon="7.13662">
        <ele>970.6</ele>
        <time>2022-02-13T10:57:02Z</time>
      </trkpt>
      <trkpt lat="48.19971" lon="7.13662">
        <ele>970.7</ele>
        <time>2022-02-13T10:57:03Z</time>
      </trkpt>
      <trkpt lat="48.19966" lon="7.1367">
        <ele>971.5</ele>
        <time>2022-02-13T10:57:15Z</time>
      </trkpt>
      <trkpt lat="48.19965" lon="7.1367">
        <ele>971.5</ele>
        <time>2022-02-13T10:57:16Z</time>
      </trkpt>
      <trkpt lat="48.19967" lon="7.1367">
        <ele>971.7</ele>
        <time>2022-02-13T10:57:34Z</time>
      </trkpt>
      <trkpt lat="48.19967" lon="7.1367">
        <ele>971.7</ele>
        <time>2022-02-13T10:57:36Z</time>
      </trkpt>
      <trkpt lat="48.19967" lon="7.13671">
        <ele>971.8</ele>
        <time>2022-02-13T10:57:39Z</time>
      </trkpt>
      <trkpt lat="48.19967" lon="7.13672">
        <ele>971.8</ele>
        <time>2022-02-13T10:57:40Z</time>
      </trkpt>
      <trkpt lat="48.19967" lon="7.13671">
        <ele>971.8</ele>
        <time>2022-02-13T10:57:42Z</time>
      </trkpt>
      <trkpt lat="48.19967" lon="7.13671">
        <ele>971.9</ele>
        <time>2022-02-13T10:57:43Z</time>
      </trkpt>
      <trkpt lat="48.19967" lon="7.13671">
        <ele>971.9</ele>
        <time>2022-02-13T10:57:44Z</time>
      </trkpt>
      <trkpt lat="48.19966" lon="7.13671">
        <ele>971.9</ele>
        <time>2022-02-13T10:57:45Z</time>
      </trkpt>
      <trkpt lat="48.19958" lon="7.13679">
        <ele>973.1</ele>
        <time>2022-02-13T10:57:57Z</time>
      </trkpt>
      <trkpt lat="48.19949" lon="7.13681">
        <ele>974.4</ele>
        <time>2022-02-13T10:58:11Z</time>
      </trkpt>
      <trkpt lat="48.19939" lon="7.13687">
        <ele>976</ele>
        <time>2022-02-13T10:58:22Z</time>
      </trkpt>
      <trkpt lat="48.1993" lon="7.13688">
        <ele>977.6</ele>
        <time>2022-02-13T10:58:32Z</time>
      </trkpt>
      <trkpt lat="48.19922" lon="7.13698">
        <ele>979.6</ele>
        <time>2022-02-13T10:58:45Z</time>
      </trkpt>
      <trkpt lat="48.19923" lon="7.13698">
        <ele>979.7</ele>
        <time>2022-02-13T10:58:47Z</time>
      </trkpt>
      <trkpt lat="48.19923" lon="7.13698">
        <ele>979.8</ele>
        <time>2022-02-13T10:58:50Z</time>
      </trkpt>
      <trkpt lat="48.19922" lon="7.137">
        <ele>980</ele>
        <time>2022-02-13T10:58:53Z</time>
      </trkpt>
      <trkpt lat="48.19922" lon="7.137">
        <ele>980</ele>
        <time>2022-02-13T10:59:01Z</time>
      </trkpt>
      <trkpt lat="48.19914" lon="7.13707">
        <ele>982</ele>
        <time>2022-02-13T10:59:15Z</time>
      </trkpt>
      <trkpt lat="48.19906" lon="7.13714">
        <ele>983.8</ele>
        <time>2022-02-13T10:59:26Z</time>
      </trkpt>
      <trkpt lat="48.19906" lon="7.13715">
        <ele>983.9</ele>
        <time>2022-02-13T10:59:28Z</time>
      </trkpt>
      <trkpt lat="48.19906" lon="7.13714">
        <ele>984</ele>
        <time>2022-02-13T10:59:29Z</time>
      </trkpt>
      <trkpt lat="48.19906" lon="7.13714">
        <ele>984</ele>
        <time>2022-02-13T10:59:30Z</time>
      </trkpt>
      <trkpt lat="48.19906" lon="7.13714">
        <ele>984</ele>
        <time>2022-02-13T10:59:31Z</time>
      </trkpt>
      <trkpt lat="48.19905" lon="7.13712">
        <ele>984.4</ele>
        <time>2022-02-13T10:59:47Z</time>
      </trkpt>
      <trkpt lat="48.19905" lon="7.13712">
        <ele>984.4</ele>
        <time>2022-02-13T10:59:48Z</time>
      </trkpt>
      <trkpt lat="48.19905" lon="7.13712">
        <ele>984.5</ele>
        <time>2022-02-13T10:59:50Z</time>
      </trkpt>
      <trkpt lat="48.19905" lon="7.13712">
        <ele>984.5</ele>
        <time>2022-02-13T10:59:54Z</time>
      </trkpt>
      <trkpt lat="48.19905" lon="7.13712">
        <ele>984.5</ele>
        <time>2022-02-13T10:59:55Z</time>
      </trkpt>
      <trkpt lat="48.19905" lon="7.13712">
        <ele>984.6</ele>
        <time>2022-02-13T10:59:56Z</time>
      </trkpt>
      <trkpt lat="48.19903" lon="7.13714">
        <ele>985</ele>
        <time>2022-02-13T11:00:03Z</time>
      </trkpt>
      <trkpt lat="48.19903" lon="7.13715">
        <ele>985.1</ele>
        <time>2022-02-13T11:00:07Z</time>
      </trkpt>
      <trkpt lat="48.19904" lon="7.13718">
        <ele>985.5</ele>
        <time>2022-02-13T11:00:15Z</time>
      </trkpt>
      <trkpt lat="48.19905" lon="7.13718">
        <ele>985.5</ele>
        <time>2022-02-13T11:00:17Z</time>
      </trkpt>
      <trkpt lat="48.19905" lon="7.1372">
        <ele>985.7</ele>
        <time>2022-02-13T11:00:20Z</time>
      </trkpt>
      <trkpt lat="48.19905" lon="7.13721">
        <ele>985.8</ele>
        <time>2022-02-13T11:00:22Z</time>
      </trkpt>
      <trkpt lat="48.19905" lon="7.13721">
        <ele>985.8</ele>
        <time>2022-02-13T11:00:23Z</time>
      </trkpt>
      <trkpt lat="48.19905" lon="7.13721">
        <ele>985.8</ele>
        <time>2022-02-13T11:00:39Z</time>
      </trkpt>
      <trkpt lat="48.19896" lon="7.13722">
        <ele>987.2</ele>
        <time>2022-02-13T11:00:50Z</time>
      </trkpt>
      <trkpt lat="48.19888" lon="7.1373">
        <ele>988.6</ele>
        <time>2022-02-13T11:00:59Z</time>
      </trkpt>
      <trkpt lat="48.19879" lon="7.13733">
        <ele>989.9</ele>
        <time>2022-02-13T11:01:09Z</time>
      </trkpt>
      <trkpt lat="48.1987" lon="7.13736">
        <ele>991</ele>
        <time>2022-02-13T11:01:24Z</time>
      </trkpt>
      <trkpt lat="48.1987" lon="7.13736">
        <ele>991.1</ele>
        <time>2022-02-13T11:01:25Z</time>
      </trkpt>
      <trkpt lat="48.19869" lon="7.13736">
        <ele>991.1</ele>
        <time>2022-02-13T11:01:26Z</time>
      </trkpt>
      <trkpt lat="48.19869" lon="7.13737">
        <ele>991.1</ele>
        <time>2022-02-13T11:01:27Z</time>
      </trkpt>
      <trkpt lat="48.19869" lon="7.13737">
        <ele>991.1</ele>
        <time>2022-02-13T11:01:28Z</time>
      </trkpt>
      <trkpt lat="48.19861" lon="7.13741">
        <ele>992.1</ele>
        <time>2022-02-13T11:01:42Z</time>
      </trkpt>
      <trkpt lat="48.19852" lon="7.1374">
        <ele>993</ele>
        <time>2022-02-13T11:01:52Z</time>
      </trkpt>
      <trkpt lat="48.19852" lon="7.1374">
        <ele>993.1</ele>
        <time>2022-02-13T11:01:55Z</time>
      </trkpt>
      <trkpt lat="48.19852" lon="7.1374">
        <ele>993.1</ele>
        <time>2022-02-13T11:01:56Z</time>
      </trkpt>
      <trkpt lat="48.19852" lon="7.1374">
        <ele>993.1</ele>
        <time>2022-02-13T11:02:01Z</time>
      </trkpt>
      <trkpt lat="48.19844" lon="7.13749">
        <ele>994.3</ele>
        <time>2022-02-13T11:02:22Z</time>
      </trkpt>
      <trkpt lat="48.19835" lon="7.13752">
        <ele>995.6</ele>
        <time>2022-02-13T11:02:38Z</time>
      </trkpt>
      <trkpt lat="48.19834" lon="7.13751">
        <ele>995.8</ele>
        <time>2022-02-13T11:02:42Z</time>
      </trkpt>
      <trkpt lat="48.19834" lon="7.13751">
        <ele>995.8</ele>
        <time>2022-02-13T11:02:43Z</time>
      </trkpt>
      <trkpt lat="48.19834" lon="7.13751">
        <ele>995.9</ele>
        <time>2022-02-13T11:02:44Z</time>
      </trkpt>
      <trkpt lat="48.19834" lon="7.1375">
        <ele>995.9</ele>
        <time>2022-02-13T11:02:45Z</time>
      </trkpt>
      <trkpt lat="48.19832" lon="7.1375">
        <ele>996.1</ele>
        <time>2022-02-13T11:02:58Z</time>
      </trkpt>
      <trkpt lat="48.19832" lon="7.1375">
        <ele>996.1</ele>
        <time>2022-02-13T11:03:00Z</time>
      </trkpt>
      <trkpt lat="48.19823" lon="7.13754">
        <ele>997.5</ele>
        <time>2022-02-13T11:03:12Z</time>
      </trkpt>
      <trkpt lat="48.19814" lon="7.13756">
        <ele>998.8</ele>
        <time>2022-02-13T11:03:24Z</time>
      </trkpt>
      <trkpt lat="48.19805" lon="7.13754">
        <ele>999.9</ele>
        <time>2022-02-13T11:03:38Z</time>
      </trkpt>
      <trkpt lat="48.19797" lon="7.13762">
        <ele>1001</ele>
        <time>2022-02-13T11:03:49Z</time>
      </trkpt>
      <trkpt lat="48.19788" lon="7.13763">
        <ele>1002</ele>
        <time>2022-02-13T11:04:03Z</time>
      </trkpt>
      <trkpt lat="48.19788" lon="7.13763">
        <ele>1002.1</ele>
        <time>2022-02-13T11:04:05Z</time>
      </trkpt>
      <trkpt lat="48.19788" lon="7.13763">
        <ele>1002.1</ele>
        <time>2022-02-13T11:04:07Z</time>
      </trkpt>
      <trkpt lat="48.19788" lon="7.13763">
        <ele>1002.1</ele>
        <time>2022-02-13T11:04:08Z</time>
      </trkpt>
      <trkpt lat="48.19787" lon="7.13763">
        <ele>1002.2</ele>
        <time>2022-02-13T11:04:09Z</time>
      </trkpt>
      <trkpt lat="48.19779" lon="7.13765">
        <ele>1003</ele>
        <time>2022-02-13T11:04:21Z</time>
      </trkpt>
      <trkpt lat="48.19778" lon="7.13765">
        <ele>1003.1</ele>
        <time>2022-02-13T11:04:22Z</time>
      </trkpt>
      <trkpt lat="48.19778" lon="7.13765">
        <ele>1003.1</ele>
        <time>2022-02-13T11:04:24Z</time>
      </trkpt>
      <trkpt lat="48.19778" lon="7.13766">
        <ele>1003.2</ele>
        <time>2022-02-13T11:04:30Z</time>
      </trkpt>
      <trkpt lat="48.19777" lon="7.13766">
        <ele>1003.2</ele>
        <time>2022-02-13T11:04:32Z</time>
      </trkpt>
      <trkpt lat="48.19777" lon="7.13766">
        <ele>1003.2</ele>
        <time>2022-02-13T11:04:33Z</time>
      </trkpt>
      <trkpt lat="48.19777" lon="7.13766">
        <ele>1003.2</ele>
        <time>2022-02-13T11:04:34Z</time>
      </trkpt>
      <trkpt lat="48.19777" lon="7.13766">
        <ele>1003.2</ele>
        <time>2022-02-13T11:04:39Z</time>
      </trkpt>
      <trkpt lat="48.19783" lon="7.13777">
        <ele>1004</ele>
        <time>2022-02-13T11:04:55Z</time>
      </trkpt>
      <trkpt lat="48.19792" lon="7.13784">
        <ele>1004.7</ele>
        <time>2022-02-13T11:05:02Z</time>
      </trkpt>
      <trkpt lat="48.198" lon="7.1379">
        <ele>1005.4</ele>
        <time>2022-02-13T11:05:12Z</time>
      </trkpt>
      <trkpt lat="48.19809" lon="7.13796">
        <ele>1006.4</ele>
        <time>2022-02-13T11:05:22Z</time>
      </trkpt>
      <trkpt lat="48.19817" lon="7.13801">
        <ele>1007.4</ele>
        <time>2022-02-13T11:05:33Z</time>
      </trkpt>
      <trkpt lat="48.19827" lon="7.13805">
        <ele>1008.7</ele>
        <time>2022-02-13T11:05:42Z</time>
      </trkpt>
      <trkpt lat="48.19835" lon="7.1381">
        <ele>1010.1</ele>
        <time>2022-02-13T11:05:51Z</time>
      </trkpt>
      <trkpt lat="48.19844" lon="7.13812">
        <ele>1011.5</ele>
        <time>2022-02-13T11:06:01Z</time>
      </trkpt>
      <trkpt lat="48.19853" lon="7.13813">
        <ele>1012.7</ele>
        <time>2022-02-13T11:06:11Z</time>
      </trkpt>
      <trkpt lat="48.19862" lon="7.13812">
        <ele>1013.8</ele>
        <time>2022-02-13T11:06:21Z</time>
      </trkpt>
      <trkpt lat="48.19862" lon="7.13813">
        <ele>1013.8</ele>
        <time>2022-02-13T11:06:22Z</time>
      </trkpt>
      <trkpt lat="48.19869" lon="7.13817">
        <ele>1014.7</ele>
        <time>2022-02-13T11:06:38Z</time>
      </trkpt>
      <trkpt lat="48.19869" lon="7.13817">
        <ele>1014.7</ele>
        <time>2022-02-13T11:06:42Z</time>
      </trkpt>
      <trkpt lat="48.19869" lon="7.13817">
        <ele>1014.7</ele>
        <time>2022-02-13T11:06:43Z</time>
      </trkpt>
      <trkpt lat="48.19869" lon="7.13817">
        <ele>1014.8</ele>
        <time>2022-02-13T11:06:46Z</time>
      </trkpt>
      <trkpt lat="48.19869" lon="7.13817">
        <ele>1014.8</ele>
        <time>2022-02-13T11:06:47Z</time>
      </trkpt>
      <trkpt lat="48.19869" lon="7.13817">
        <ele>1014.8</ele>
        <time>2022-02-13T11:06:50Z</time>
      </trkpt>
      <trkpt lat="48.19876" lon="7.13809">
        <ele>1015.8</ele>
        <time>2022-02-13T11:07:04Z</time>
      </trkpt>
      <trkpt lat="48.19883" lon="7.1382">
        <ele>1016.8</ele>
        <time>2022-02-13T11:07:35Z</time>
      </trkpt>
      <trkpt lat="48.19891" lon="7.13828">
        <ele>1017.8</ele>
        <time>2022-02-13T11:07:46Z</time>
      </trkpt>
      <trkpt lat="48.199" lon="7.13833">
        <ele>1018.8</ele>
        <time>2022-02-13T11:07:55Z</time>
      </trkpt>
      <trkpt lat="48.19898" lon="7.13834">
        <ele>1019</ele>
        <time>2022-02-13T11:08:09Z</time>
      </trkpt>
      <trkpt lat="48.19898" lon="7.13834">
        <ele>1019</ele>
        <time>2022-02-13T11:08:10Z</time>
      </trkpt>
      <trkpt lat="48.19888" lon="7.13836">
        <ele>1020.3</ele>
        <time>2022-02-13T11:08:24Z</time>
      </trkpt>
      <trkpt lat="48.19878" lon="7.13838">
        <ele>1021.6</ele>
        <time>2022-02-13T11:08:33Z</time>
      </trkpt>
      <trkpt lat="48.19869" lon="7.13842">
        <ele>1023.8</ele>
        <time>2022-02-13T11:08:45Z</time>
      </trkpt>
      <trkpt lat="48.19861" lon="7.13849">
        <ele>1024.8</ele>
        <time>2022-02-13T11:08:58Z</time>
      </trkpt>
      <trkpt lat="48.19853" lon="7.13857">
        <ele>1025.8</ele>
        <time>2022-02-13T11:09:12Z</time>
      </trkpt>
      <trkpt lat="48.19845" lon="7.13863">
        <ele>1026.7</ele>
        <time>2022-02-13T11:09:27Z</time>
      </trkpt>
      <trkpt lat="48.19836" lon="7.13869">
        <ele>1027.8</ele>
        <time>2022-02-13T11:09:38Z</time>
      </trkpt>
      <trkpt lat="48.19828" lon="7.13876">
        <ele>1028.8</ele>
        <time>2022-02-13T11:09:48Z</time>
      </trkpt>
      <trkpt lat="48.19819" lon="7.13882">
        <ele>1029.7</ele>
        <time>2022-02-13T11:09:59Z</time>
      </trkpt>
      <trkpt lat="48.19811" lon="7.13887">
        <ele>1030.5</ele>
        <time>2022-02-13T11:10:11Z</time>
      </trkpt>
      <trkpt lat="48.19802" lon="7.13892">
        <ele>1031.3</ele>
        <time>2022-02-13T11:10:22Z</time>
      </trkpt>
      <trkpt lat="48.19793" lon="7.13896">
        <ele>1031.9</ele>
        <time>2022-02-13T11:10:32Z</time>
      </trkpt>
      <trkpt lat="48.19784" lon="7.13899">
        <ele>1032.5</ele>
        <time>2022-02-13T11:10:43Z</time>
      </trkpt>
      <trkpt lat="48.19775" lon="7.13902">
        <ele>1033.1</ele>
        <time>2022-02-13T11:10:54Z</time>
      </trkpt>
      <trkpt lat="48.19766" lon="7.13903">
        <ele>1033.6</ele>
        <time>2022-02-13T11:11:04Z</time>
      </trkpt>
      <trkpt lat="48.19756" lon="7.13905">
        <ele>1034.2</ele>
        <time>2022-02-13T11:11:18Z</time>
      </trkpt>
      <trkpt lat="48.19747" lon="7.13904">
        <ele>1034.8</ele>
        <time>2022-02-13T11:11:27Z</time>
      </trkpt>
      <trkpt lat="48.19738" lon="7.13906">
        <ele>1035.4</ele>
        <time>2022-02-13T11:11:37Z</time>
      </trkpt>
      <trkpt lat="48.19728" lon="7.13909">
        <ele>1036</ele>
        <time>2022-02-13T11:11:47Z</time>
      </trkpt>
      <trkpt lat="48.19719" lon="7.13911">
        <ele>1036.6</ele>
        <time>2022-02-13T11:11:56Z</time>
      </trkpt>
      <trkpt lat="48.1971" lon="7.13911">
        <ele>1037.2</ele>
        <time>2022-02-13T11:12:04Z</time>
      </trkpt>
      <trkpt lat="48.19701" lon="7.13915">
        <ele>1037.9</ele>
        <time>2022-02-13T11:12:16Z</time>
      </trkpt>
      <trkpt lat="48.19692" lon="7.13915">
        <ele>1038.5</ele>
        <time>2022-02-13T11:12:25Z</time>
      </trkpt>
      <trkpt lat="48.19683" lon="7.13913">
        <ele>1039.2</ele>
        <time>2022-02-13T11:12:33Z</time>
      </trkpt>
      <trkpt lat="48.19674" lon="7.13908">
        <ele>1039.8</ele>
        <time>2022-02-13T11:12:43Z</time>
      </trkpt>
      <trkpt lat="48.19671" lon="7.13907">
        <ele>1040</ele>
        <time>2022-02-13T11:12:53Z</time>
      </trkpt>
      <trkpt lat="48.19672" lon="7.13907">
        <ele>1040.1</ele>
        <time>2022-02-13T11:12:55Z</time>
      </trkpt>
      <trkpt lat="48.19675" lon="7.13898">
        <ele>1040.6</ele>
        <time>2022-02-13T11:13:09Z</time>
      </trkpt>
      <trkpt lat="48.19675" lon="7.13896">
        <ele>1040.6</ele>
        <time>2022-02-13T11:13:10Z</time>
      </trkpt>
      <trkpt lat="48.19675" lon="7.13895">
        <ele>1040.7</ele>
        <time>2022-02-13T11:13:12Z</time>
      </trkpt>
      <trkpt lat="48.19675" lon="7.13895">
        <ele>1040.7</ele>
        <time>2022-02-13T11:13:16Z</time>
      </trkpt>
      <trkpt lat="48.19675" lon="7.13895">
        <ele>1040.7</ele>
        <time>2022-02-13T11:13:17Z</time>
      </trkpt>
      <trkpt lat="48.19675" lon="7.13895">
        <ele>1040.7</ele>
        <time>2022-02-13T11:13:43Z</time>
      </trkpt>
      <trkpt lat="48.19675" lon="7.13895">
        <ele>1040.7</ele>
        <time>2022-02-13T11:13:44Z</time>
      </trkpt>
      <trkpt lat="48.19674" lon="7.13895">
        <ele>1040.7</ele>
        <time>2022-02-13T11:14:01Z</time>
      </trkpt>
      <trkpt lat="48.19674" lon="7.13895">
        <ele>1040.7</ele>
        <time>2022-02-13T11:14:02Z</time>
      </trkpt>
      <trkpt lat="48.19675" lon="7.13895">
        <ele>1040.7</ele>
        <time>2022-02-13T11:14:45Z</time>
      </trkpt>
      <trkpt lat="48.19675" lon="7.13895">
        <ele>1040.7</ele>
        <time>2022-02-13T11:14:46Z</time>
      </trkpt>
      <trkpt lat="48.19674" lon="7.13897">
        <ele>1040.8</ele>
        <time>2022-02-13T11:14:50Z</time>
      </trkpt>
      <trkpt lat="48.19674" lon="7.13898">
        <ele>1040.9</ele>
        <time>2022-02-13T11:14:54Z</time>
      </trkpt>
      <trkpt lat="48.19674" lon="7.13898">
        <ele>1040.9</ele>
        <time>2022-02-13T11:14:55Z</time>
      </trkpt>
      <trkpt lat="48.19674" lon="7.13898">
        <ele>1040.9</ele>
        <time>2022-02-13T11:14:56Z</time>
      </trkpt>
      <trkpt lat="48.19674" lon="7.13898">
        <ele>1040.9</ele>
        <time>2022-02-13T11:15:01Z</time>
      </trkpt>
      <trkpt lat="48.19674" lon="7.13898">
        <ele>1040.9</ele>
        <time>2022-02-13T11:15:03Z</time>
      </trkpt>
      <trkpt lat="48.19674" lon="7.13898">
        <ele>1040.9</ele>
        <time>2022-02-13T11:15:08Z</time>
      </trkpt>
      <trkpt lat="48.19674" lon="7.13897">
        <ele>1041</ele>
        <time>2022-02-13T11:15:10Z</time>
      </trkpt>
      <trkpt lat="48.19674" lon="7.13897">
        <ele>1041</ele>
        <time>2022-02-13T11:15:14Z</time>
      </trkpt>
      <trkpt lat="48.19674" lon="7.13897">
        <ele>1041</ele>
        <time>2022-02-13T11:15:15Z</time>
      </trkpt>
      <trkpt lat="48.19674" lon="7.13898">
        <ele>1041</ele>
        <time>2022-02-13T11:15:16Z</time>
      </trkpt>
      <trkpt lat="48.19674" lon="7.13898">
        <ele>1041</ele>
        <time>2022-02-13T11:15:18Z</time>
      </trkpt>
      <trkpt lat="48.19674" lon="7.13898">
        <ele>1041</ele>
        <time>2022-02-13T11:15:34Z</time>
      </trkpt>
      <trkpt lat="48.19674" lon="7.13899">
        <ele>1041.1</ele>
        <time>2022-02-13T11:15:36Z</time>
      </trkpt>
      <trkpt lat="48.19674" lon="7.13899">
        <ele>1041.1</ele>
        <time>2022-02-13T11:16:05Z</time>
      </trkpt>
      <trkpt lat="48.19674" lon="7.13899">
        <ele>1041.1</ele>
        <time>2022-02-13T11:16:06Z</time>
      </trkpt>
      <trkpt lat="48.19674" lon="7.13899">
        <ele>1041.1</ele>
        <time>2022-02-13T11:16:22Z</time>
      </trkpt>
      <trkpt lat="48.19674" lon="7.13899">
        <ele>1041.1</ele>
        <time>2022-02-13T11:16:24Z</time>
      </trkpt>
      <trkpt lat="48.19674" lon="7.13898">
        <ele>1041.1</ele>
        <time>2022-02-13T11:16:41Z</time>
      </trkpt>
      <trkpt lat="48.19674" lon="7.13898">
        <ele>1041.1</ele>
        <time>2022-02-13T11:16:43Z</time>
      </trkpt>
      <trkpt lat="48.19674" lon="7.13898">
        <ele>1041.2</ele>
        <time>2022-02-13T11:16:44Z</time>
      </trkpt>
      <trkpt lat="48.19674" lon="7.13896">
        <ele>1041.2</ele>
        <time>2022-02-13T11:16:50Z</time>
      </trkpt>
      <trkpt lat="48.19674" lon="7.13896">
        <ele>1041.3</ele>
        <time>2022-02-13T11:16:51Z</time>
      </trkpt>
      <trkpt lat="48.19674" lon="7.13894">
        <ele>1041.4</ele>
        <time>2022-02-13T11:16:56Z</time>
      </trkpt>
      <trkpt lat="48.19674" lon="7.13894">
        <ele>1041.4</ele>
        <time>2022-02-13T11:16:57Z</time>
      </trkpt>
      <trkpt lat="48.19674" lon="7.13894">
        <ele>1041.4</ele>
        <time>2022-02-13T11:17:03Z</time>
      </trkpt>
      <trkpt lat="48.19674" lon="7.13895">
        <ele>1041.5</ele>
        <time>2022-02-13T11:17:05Z</time>
      </trkpt>
      <trkpt lat="48.19673" lon="7.13899">
        <ele>1041.7</ele>
        <time>2022-02-13T11:17:11Z</time>
      </trkpt>
      <trkpt lat="48.19672" lon="7.13899">
        <ele>1041.8</ele>
        <time>2022-02-13T11:17:15Z</time>
      </trkpt>
      <trkpt lat="48.19673" lon="7.13902">
        <ele>1041.9</ele>
        <time>2022-02-13T11:17:30Z</time>
      </trkpt>
      <trkpt lat="48.19673" lon="7.13902">
        <ele>1041.9</ele>
        <time>2022-02-13T11:17:32Z</time>
      </trkpt>
      <trkpt lat="48.19674" lon="7.13902">
        <ele>1042</ele>
        <time>2022-02-13T11:17:39Z</time>
      </trkpt>
      <trkpt lat="48.19674" lon="7.13902">
        <ele>1042</ele>
        <time>2022-02-13T11:17:45Z</time>
      </trkpt>
      <trkpt lat="48.19674" lon="7.13902">
        <ele>1042</ele>
        <time>2022-02-13T11:17:46Z</time>
      </trkpt>
      <trkpt lat="48.19674" lon="7.13902">
        <ele>1042</ele>
        <time>2022-02-13T11:17:47Z</time>
      </trkpt>
      <trkpt lat="48.19674" lon="7.13902">
        <ele>1042</ele>
        <time>2022-02-13T11:17:49Z</time>
      </trkpt>
      <trkpt lat="48.19674" lon="7.13901">
        <ele>1042.1</ele>
        <time>2022-02-13T11:17:57Z</time>
      </trkpt>
      <trkpt lat="48.19674" lon="7.13901">
        <ele>1042.1</ele>
        <time>2022-02-13T11:17:59Z</time>
      </trkpt>
      <trkpt lat="48.19674" lon="7.139">
        <ele>1042.1</ele>
        <time>2022-02-13T11:18:01Z</time>
      </trkpt>
      <trkpt lat="48.19675" lon="7.13899">
        <ele>1042.2</ele>
        <time>2022-02-13T11:18:05Z</time>
      </trkpt>
      <trkpt lat="48.19675" lon="7.13899">
        <ele>1042.2</ele>
        <time>2022-02-13T11:18:09Z</time>
      </trkpt>
      <trkpt lat="48.19674" lon="7.139">
        <ele>1042.2</ele>
        <time>2022-02-13T11:18:14Z</time>
      </trkpt>
      <trkpt lat="48.19674" lon="7.139">
        <ele>1042.2</ele>
        <time>2022-02-13T11:18:17Z</time>
      </trkpt>
      <trkpt lat="48.19674" lon="7.13901">
        <ele>1042.3</ele>
        <time>2022-02-13T11:18:21Z</time>
      </trkpt>
      <trkpt lat="48.19674" lon="7.13901">
        <ele>1042.3</ele>
        <time>2022-02-13T11:18:28Z</time>
      </trkpt>
      <trkpt lat="48.19674" lon="7.13901">
        <ele>1042.3</ele>
        <time>2022-02-13T11:18:32Z</time>
      </trkpt>
      <trkpt lat="48.19674" lon="7.13902">
        <ele>1042.3</ele>
        <time>2022-02-13T11:18:36Z</time>
      </trkpt>
      <trkpt lat="48.19674" lon="7.13902">
        <ele>1042.3</ele>
        <time>2022-02-13T11:18:38Z</time>
      </trkpt>
      <trkpt lat="48.19674" lon="7.13902">
        <ele>1042.4</ele>
        <time>2022-02-13T11:18:42Z</time>
      </trkpt>
      <trkpt lat="48.19674" lon="7.13902">
        <ele>1042.4</ele>
        <time>2022-02-13T11:18:44Z</time>
      </trkpt>
      <trkpt lat="48.19674" lon="7.13901">
        <ele>1042.4</ele>
        <time>2022-02-13T11:18:48Z</time>
      </trkpt>
      <trkpt lat="48.19674" lon="7.13901">
        <ele>1042.4</ele>
        <time>2022-02-13T11:18:51Z</time>
      </trkpt>
      <trkpt lat="48.19674" lon="7.13902">
        <ele>1042.5</ele>
        <time>2022-02-13T11:18:52Z</time>
      </trkpt>
      <trkpt lat="48.19674" lon="7.13902">
        <ele>1042.5</ele>
        <time>2022-02-13T11:18:53Z</time>
      </trkpt>
      <trkpt lat="48.19674" lon="7.13901">
        <ele>1042.5</ele>
        <time>2022-02-13T11:18:54Z</time>
      </trkpt>
      <trkpt lat="48.19675" lon="7.139">
        <ele>1042.6</ele>
        <time>2022-02-13T11:19:00Z</time>
      </trkpt>
      <trkpt lat="48.19675" lon="7.139">
        <ele>1042.6</ele>
        <time>2022-02-13T11:19:01Z</time>
      </trkpt>
      <trkpt lat="48.19675" lon="7.139">
        <ele>1042.6</ele>
        <time>2022-02-13T11:19:03Z</time>
      </trkpt>
      <trkpt lat="48.19674" lon="7.139">
        <ele>1042.7</ele>
        <time>2022-02-13T11:19:05Z</time>
      </trkpt>
      <trkpt lat="48.19674" lon="7.139">
        <ele>1042.7</ele>
        <time>2022-02-13T11:19:06Z</time>
      </trkpt>
      <trkpt lat="48.19675" lon="7.139">
        <ele>1042.7</ele>
        <time>2022-02-13T11:19:10Z</time>
      </trkpt>
      <trkpt lat="48.19675" lon="7.13899">
        <ele>1042.7</ele>
        <time>2022-02-13T11:19:12Z</time>
      </trkpt>
      <trkpt lat="48.19675" lon="7.13899">
        <ele>1042.8</ele>
        <time>2022-02-13T11:19:15Z</time>
      </trkpt>
      <trkpt lat="48.19675" lon="7.13898">
        <ele>1042.9</ele>
        <time>2022-02-13T11:19:19Z</time>
      </trkpt>
      <trkpt lat="48.19675" lon="7.13896">
        <ele>1042.9</ele>
        <time>2022-02-13T11:19:20Z</time>
      </trkpt>
      <trkpt lat="48.19677" lon="7.13897">
        <ele>1043.1</ele>
        <time>2022-02-13T11:19:36Z</time>
      </trkpt>
      <trkpt lat="48.19677" lon="7.13897">
        <ele>1043.1</ele>
        <time>2022-02-13T11:19:40Z</time>
      </trkpt>
      <trkpt lat="48.19677" lon="7.13897">
        <ele>1043.1</ele>
        <time>2022-02-13T11:19:41Z</time>
      </trkpt>
      <trkpt lat="48.19677" lon="7.13897">
        <ele>1043.2</ele>
        <time>2022-02-13T11:19:55Z</time>
      </trkpt>
      <trkpt lat="48.19677" lon="7.13897">
        <ele>1043.2</ele>
        <time>2022-02-13T11:19:56Z</time>
      </trkpt>
      <trkpt lat="48.19677" lon="7.13897">
        <ele>1043.2</ele>
        <time>2022-02-13T11:20:10Z</time>
      </trkpt>
      <trkpt lat="48.19677" lon="7.13897">
        <ele>1043.2</ele>
        <time>2022-02-13T11:20:11Z</time>
      </trkpt>
      <trkpt lat="48.19677" lon="7.13897">
        <ele>1043.2</ele>
        <time>2022-02-13T11:20:12Z</time>
      </trkpt>
      <trkpt lat="48.19676" lon="7.13897">
        <ele>1043.3</ele>
        <time>2022-02-13T11:20:16Z</time>
      </trkpt>
      <trkpt lat="48.19676" lon="7.13898">
        <ele>1043.3</ele>
        <time>2022-02-13T11:20:26Z</time>
      </trkpt>
      <trkpt lat="48.19676" lon="7.13899">
        <ele>1043.4</ele>
        <time>2022-02-13T11:20:30Z</time>
      </trkpt>
      <trkpt lat="48.19675" lon="7.13899">
        <ele>1043.4</ele>
        <time>2022-02-13T11:20:31Z</time>
      </trkpt>
      <trkpt lat="48.19676" lon="7.13899">
        <ele>1043.5</ele>
        <time>2022-02-13T11:20:33Z</time>
      </trkpt>
      <trkpt lat="48.19675" lon="7.13899">
        <ele>1043.5</ele>
        <time>2022-02-13T11:20:48Z</time>
      </trkpt>
      <trkpt lat="48.19675" lon="7.13899">
        <ele>1043.5</ele>
        <time>2022-02-13T11:20:49Z</time>
      </trkpt>
      <trkpt lat="48.19676" lon="7.13899">
        <ele>1043.5</ele>
        <time>2022-02-13T11:20:54Z</time>
      </trkpt>
      <trkpt lat="48.19676" lon="7.13899">
        <ele>1043.5</ele>
        <time>2022-02-13T11:20:57Z</time>
      </trkpt>
      <trkpt lat="48.19675" lon="7.13899">
        <ele>1043.5</ele>
        <time>2022-02-13T11:20:58Z</time>
      </trkpt>
      <trkpt lat="48.19675" lon="7.13899">
        <ele>1043.5</ele>
        <time>2022-02-13T11:20:59Z</time>
      </trkpt>
      <trkpt lat="48.19675" lon="7.139">
        <ele>1043.6</ele>
        <time>2022-02-13T11:21:00Z</time>
      </trkpt>
      <trkpt lat="48.19675" lon="7.13901">
        <ele>1043.7</ele>
        <time>2022-02-13T11:21:03Z</time>
      </trkpt>
      <trkpt lat="48.19675" lon="7.13901">
        <ele>1043.7</ele>
        <time>2022-02-13T11:21:04Z</time>
      </trkpt>
      <trkpt lat="48.19675" lon="7.13901">
        <ele>1043.7</ele>
        <time>2022-02-13T11:21:05Z</time>
      </trkpt>
      <trkpt lat="48.19675" lon="7.13901">
        <ele>1043.7</ele>
        <time>2022-02-13T11:21:12Z</time>
      </trkpt>
      <trkpt lat="48.19675" lon="7.13901">
        <ele>1043.7</ele>
        <time>2022-02-13T11:21:13Z</time>
      </trkpt>
      <trkpt lat="48.19675" lon="7.13901">
        <ele>1043.7</ele>
        <time>2022-02-13T11:21:14Z</time>
      </trkpt>
      <trkpt lat="48.19674" lon="7.13901">
        <ele>1043.8</ele>
        <time>2022-02-13T11:21:20Z</time>
      </trkpt>
      <trkpt lat="48.19674" lon="7.13901">
        <ele>1043.8</ele>
        <time>2022-02-13T11:21:33Z</time>
      </trkpt>
      <trkpt lat="48.19674" lon="7.13901">
        <ele>1043.8</ele>
        <time>2022-02-13T11:21:34Z</time>
      </trkpt>
      <trkpt lat="48.19674" lon="7.139">
        <ele>1043.9</ele>
        <time>2022-02-13T11:21:36Z</time>
      </trkpt>
      <trkpt lat="48.19677" lon="7.13897">
        <ele>1044.1</ele>
        <time>2022-02-13T11:21:48Z</time>
      </trkpt>
      <trkpt lat="48.19677" lon="7.13897">
        <ele>1044.2</ele>
        <time>2022-02-13T11:21:56Z</time>
      </trkpt>
      <trkpt lat="48.19677" lon="7.13897">
        <ele>1044.2</ele>
        <time>2022-02-13T11:21:57Z</time>
      </trkpt>
      <trkpt lat="48.19677" lon="7.13897">
        <ele>1044.2</ele>
        <time>2022-02-13T11:22:01Z</time>
      </trkpt>
      <trkpt lat="48.19677" lon="7.13897">
        <ele>1044.2</ele>
        <time>2022-02-13T11:22:02Z</time>
      </trkpt>
      <trkpt lat="48.19677" lon="7.13897">
        <ele>1044.2</ele>
        <time>2022-02-13T11:22:03Z</time>
      </trkpt>
      <trkpt lat="48.19677" lon="7.13897">
        <ele>1044.2</ele>
        <time>2022-02-13T11:22:05Z</time>
      </trkpt>
      <trkpt lat="48.19677" lon="7.13896">
        <ele>1044.2</ele>
        <time>2022-02-13T11:22:12Z</time>
      </trkpt>
      <trkpt lat="48.19672" lon="7.139">
        <ele>1044.7</ele>
        <time>2022-02-13T11:22:34Z</time>
      </trkpt>
      <trkpt lat="48.19673" lon="7.139">
        <ele>1044.7</ele>
        <time>2022-02-13T11:22:35Z</time>
      </trkpt>
      <trkpt lat="48.19674" lon="7.13896">
        <ele>1044.9</ele>
        <time>2022-02-13T11:22:46Z</time>
      </trkpt>
      <trkpt lat="48.19674" lon="7.13896">
        <ele>1045</ele>
        <time>2022-02-13T11:22:48Z</time>
      </trkpt>
      <trkpt lat="48.19673" lon="7.13897">
        <ele>1045.1</ele>
        <time>2022-02-13T11:22:51Z</time>
      </trkpt>
      <trkpt lat="48.19673" lon="7.13897">
        <ele>1045.1</ele>
        <time>2022-02-13T11:22:52Z</time>
      </trkpt>
      <trkpt lat="48.19671" lon="7.13895">
        <ele>1045.3</ele>
        <time>2022-02-13T11:22:55Z</time>
      </trkpt>
      <trkpt lat="48.19672" lon="7.13895">
        <ele>1045.3</ele>
        <time>2022-02-13T11:22:56Z</time>
      </trkpt>
      <trkpt lat="48.19674" lon="7.13901">
        <ele>1045.7</ele>
        <time>2022-02-13T11:23:26Z</time>
      </trkpt>
      <trkpt lat="48.19674" lon="7.13901">
        <ele>1045.7</ele>
        <time>2022-02-13T11:23:27Z</time>
      </trkpt>
      <trkpt lat="48.19674" lon="7.13901">
        <ele>1045.8</ele>
        <time>2022-02-13T11:23:30Z</time>
      </trkpt>
      <trkpt lat="48.19674" lon="7.13901">
        <ele>1045.8</ele>
        <time>2022-02-13T11:23:31Z</time>
      </trkpt>
      <trkpt lat="48.19674" lon="7.13897">
        <ele>1046</ele>
        <time>2022-02-13T11:23:41Z</time>
      </trkpt>
      <trkpt lat="48.19674" lon="7.13897">
        <ele>1046</ele>
        <time>2022-02-13T11:23:43Z</time>
      </trkpt>
      <trkpt lat="48.19675" lon="7.13897">
        <ele>1046</ele>
        <time>2022-02-13T11:23:45Z</time>
      </trkpt>
      <trkpt lat="48.19675" lon="7.13897">
        <ele>1046</ele>
        <time>2022-02-13T11:23:50Z</time>
      </trkpt>
      <trkpt lat="48.19674" lon="7.13901">
        <ele>1046.2</ele>
        <time>2022-02-13T11:23:56Z</time>
      </trkpt>
      <trkpt lat="48.19674" lon="7.13901">
        <ele>1046.2</ele>
        <time>2022-02-13T11:23:58Z</time>
      </trkpt>
      <trkpt lat="48.19675" lon="7.13899">
        <ele>1046.3</ele>
        <time>2022-02-13T11:24:07Z</time>
      </trkpt>
      <trkpt lat="48.19675" lon="7.13899">
        <ele>1046.3</ele>
        <time>2022-02-13T11:24:08Z</time>
      </trkpt>
      <trkpt lat="48.19676" lon="7.13899">
        <ele>1046.4</ele>
        <time>2022-02-13T11:24:21Z</time>
      </trkpt>
      <trkpt lat="48.19676" lon="7.13899">
        <ele>1046.4</ele>
        <time>2022-02-13T11:24:26Z</time>
      </trkpt>
      <trkpt lat="48.19676" lon="7.13898">
        <ele>1046.5</ele>
        <time>2022-02-13T11:24:30Z</time>
      </trkpt>
      <trkpt lat="48.19676" lon="7.13899">
        <ele>1046.5</ele>
        <time>2022-02-13T11:24:31Z</time>
      </trkpt>
      <trkpt lat="48.19676" lon="7.13899">
        <ele>1046.5</ele>
        <time>2022-02-13T11:24:33Z</time>
      </trkpt>
      <trkpt lat="48.19676" lon="7.13899">
        <ele>1046.5</ele>
        <time>2022-02-13T11:24:35Z</time>
      </trkpt>
      <trkpt lat="48.19675" lon="7.13901">
        <ele>1046.6</ele>
        <time>2022-02-13T11:24:38Z</time>
      </trkpt>
      <trkpt lat="48.19675" lon="7.139">
        <ele>1046.7</ele>
        <time>2022-02-13T11:24:40Z</time>
      </trkpt>
      <trkpt lat="48.19675" lon="7.139">
        <ele>1046.7</ele>
        <time>2022-02-13T11:24:41Z</time>
      </trkpt>
      <trkpt lat="48.19675" lon="7.139">
        <ele>1046.7</ele>
        <time>2022-02-13T11:24:42Z</time>
      </trkpt>
      <trkpt lat="48.19675" lon="7.13899">
        <ele>1046.7</ele>
        <time>2022-02-13T11:24:44Z</time>
      </trkpt>
      <trkpt lat="48.19675" lon="7.13899">
        <ele>1046.7</ele>
        <time>2022-02-13T11:24:47Z</time>
      </trkpt>
      <trkpt lat="48.19675" lon="7.139">
        <ele>1046.8</ele>
        <time>2022-02-13T11:24:48Z</time>
      </trkpt>
      <trkpt lat="48.19675" lon="7.139">
        <ele>1046.8</ele>
        <time>2022-02-13T11:24:49Z</time>
      </trkpt>
      <trkpt lat="48.19675" lon="7.139">
        <ele>1046.8</ele>
        <time>2022-02-13T11:24:50Z</time>
      </trkpt>
      <trkpt lat="48.19675" lon="7.139">
        <ele>1046.8</ele>
        <time>2022-02-13T11:24:52Z</time>
      </trkpt>
      <trkpt lat="48.19675" lon="7.139">
        <ele>1046.8</ele>
        <time>2022-02-13T11:24:53Z</time>
      </trkpt>
      <trkpt lat="48.19675" lon="7.139">
        <ele>1046.8</ele>
        <time>2022-02-13T11:24:54Z</time>
      </trkpt>
      <trkpt lat="48.19676" lon="7.13899">
        <ele>1046.9</ele>
        <time>2022-02-13T11:24:58Z</time>
      </trkpt>
      <trkpt lat="48.19675" lon="7.13898">
        <ele>1046.9</ele>
        <time>2022-02-13T11:24:59Z</time>
      </trkpt>
      <trkpt lat="48.19675" lon="7.13898">
        <ele>1046.9</ele>
        <time>2022-02-13T11:25:00Z</time>
      </trkpt>
      <trkpt lat="48.19675" lon="7.13898">
        <ele>1047</ele>
        <time>2022-02-13T11:25:02Z</time>
      </trkpt>
      <trkpt lat="48.19675" lon="7.13897">
        <ele>1047</ele>
        <time>2022-02-13T11:25:06Z</time>
      </trkpt>
      <trkpt lat="48.19675" lon="7.13897">
        <ele>1047</ele>
        <time>2022-02-13T11:25:08Z</time>
      </trkpt>
      <trkpt lat="48.19674" lon="7.139">
        <ele>1047.2</ele>
        <time>2022-02-13T11:25:14Z</time>
      </trkpt>
      <trkpt lat="48.19674" lon="7.139">
        <ele>1047.2</ele>
        <time>2022-02-13T11:25:55Z</time>
      </trkpt>
      <trkpt lat="48.19674" lon="7.139">
        <ele>1047.2</ele>
        <time>2022-02-13T11:25:56Z</time>
      </trkpt>
      <trkpt lat="48.19675" lon="7.139">
        <ele>1047.2</ele>
        <time>2022-02-13T11:26:04Z</time>
      </trkpt>
      <trkpt lat="48.19675" lon="7.139">
        <ele>1047.2</ele>
        <time>2022-02-13T11:26:05Z</time>
      </trkpt>
      <trkpt lat="48.19675" lon="7.139">
        <ele>1047.3</ele>
        <time>2022-02-13T11:26:11Z</time>
      </trkpt>
      <trkpt lat="48.19675" lon="7.139">
        <ele>1047.3</ele>
        <time>2022-02-13T11:26:14Z</time>
      </trkpt>
      <trkpt lat="48.19675" lon="7.139">
        <ele>1047.3</ele>
        <time>2022-02-13T11:26:57Z</time>
      </trkpt>
      <trkpt lat="48.19675" lon="7.139">
        <ele>1047.3</ele>
        <time>2022-02-13T11:26:58Z</time>
      </trkpt>
      <trkpt lat="48.19675" lon="7.139">
        <ele>1047.3</ele>
        <time>2022-02-13T11:27:04Z</time>
      </trkpt>
      <trkpt lat="48.19675" lon="7.139">
        <ele>1047.3</ele>
        <time>2022-02-13T11:27:05Z</time>
      </trkpt>
      <trkpt lat="48.19675" lon="7.13899">
        <ele>1047.4</ele>
        <time>2022-02-13T11:27:15Z</time>
      </trkpt>
      <trkpt lat="48.19675" lon="7.13898">
        <ele>1047.4</ele>
        <time>2022-02-13T11:27:21Z</time>
      </trkpt>
      <trkpt lat="48.19675" lon="7.13898">
        <ele>1047.4</ele>
        <time>2022-02-13T11:27:26Z</time>
      </trkpt>
      <trkpt lat="48.19675" lon="7.13897">
        <ele>1047.5</ele>
        <time>2022-02-13T11:27:29Z</time>
      </trkpt>
      <trkpt lat="48.19676" lon="7.13897">
        <ele>1047.5</ele>
        <time>2022-02-13T11:27:30Z</time>
      </trkpt>
      <trkpt lat="48.19676" lon="7.13897">
        <ele>1047.5</ele>
        <time>2022-02-13T11:27:31Z</time>
      </trkpt>
      <trkpt lat="48.19676" lon="7.13897">
        <ele>1047.5</ele>
        <time>2022-02-13T11:27:33Z</time>
      </trkpt>
      <trkpt lat="48.19676" lon="7.13897">
        <ele>1047.5</ele>
        <time>2022-02-13T11:27:35Z</time>
      </trkpt>
      <trkpt lat="48.19676" lon="7.13897">
        <ele>1047.5</ele>
        <time>2022-02-13T11:27:36Z</time>
      </trkpt>
      <trkpt lat="48.19674" lon="7.13901">
        <ele>1047.8</ele>
        <time>2022-02-13T11:28:09Z</time>
      </trkpt>
      <trkpt lat="48.19673" lon="7.13901">
        <ele>1047.8</ele>
        <time>2022-02-13T11:28:13Z</time>
      </trkpt>
      <trkpt lat="48.19674" lon="7.13901">
        <ele>1047.8</ele>
        <time>2022-02-13T11:28:17Z</time>
      </trkpt>
      <trkpt lat="48.19674" lon="7.13901">
        <ele>1047.8</ele>
        <time>2022-02-13T11:28:39Z</time>
      </trkpt>
      <trkpt lat="48.19674" lon="7.139">
        <ele>1047.9</ele>
        <time>2022-02-13T11:28:41Z</time>
      </trkpt>
      <trkpt lat="48.19674" lon="7.139">
        <ele>1047.9</ele>
        <time>2022-02-13T11:29:02Z</time>
      </trkpt>
      <trkpt lat="48.19674" lon="7.139">
        <ele>1047.9</ele>
        <time>2022-02-13T11:29:04Z</time>
      </trkpt>
      <trkpt lat="48.19674" lon="7.139">
        <ele>1047.9</ele>
        <time>2022-02-13T11:29:53Z</time>
      </trkpt>
      <trkpt lat="48.19674" lon="7.13901">
        <ele>1047.9</ele>
        <time>2022-02-13T11:29:55Z</time>
      </trkpt>
      <trkpt lat="48.19674" lon="7.13901">
        <ele>1047.9</ele>
        <time>2022-02-13T11:29:57Z</time>
      </trkpt>
      <trkpt lat="48.19674" lon="7.13901">
        <ele>1048</ele>
        <time>2022-02-13T11:29:58Z</time>
      </trkpt>
      <trkpt lat="48.19674" lon="7.13901">
        <ele>1048</ele>
        <time>2022-02-13T11:29:59Z</time>
      </trkpt>
      <trkpt lat="48.19674" lon="7.13901">
        <ele>1048</ele>
        <time>2022-02-13T11:30:00Z</time>
      </trkpt>
      <trkpt lat="48.19675" lon="7.13901">
        <ele>1048</ele>
        <time>2022-02-13T11:30:01Z</time>
      </trkpt>
      <trkpt lat="48.19675" lon="7.13901">
        <ele>1048</ele>
        <time>2022-02-13T11:30:02Z</time>
      </trkpt>
      <trkpt lat="48.19674" lon="7.13902">
        <ele>1048</ele>
        <time>2022-02-13T11:30:10Z</time>
      </trkpt>
      <trkpt lat="48.19674" lon="7.13902">
        <ele>1048</ele>
        <time>2022-02-13T11:30:11Z</time>
      </trkpt>
      <trkpt lat="48.19674" lon="7.13902">
        <ele>1048</ele>
        <time>2022-02-13T11:30:19Z</time>
      </trkpt>
      <trkpt lat="48.19674" lon="7.13902">
        <ele>1048</ele>
        <time>2022-02-13T11:30:21Z</time>
      </trkpt>
      <trkpt lat="48.19674" lon="7.13902">
        <ele>1048.1</ele>
        <time>2022-02-13T11:30:50Z</time>
      </trkpt>
      <trkpt lat="48.19673" lon="7.13903">
        <ele>1048.2</ele>
        <time>2022-02-13T11:31:00Z</time>
      </trkpt>
      <trkpt lat="48.19673" lon="7.13903">
        <ele>1048.2</ele>
        <time>2022-02-13T11:31:01Z</time>
      </trkpt>
      <trkpt lat="48.19673" lon="7.13903">
        <ele>1048.2</ele>
        <time>2022-02-13T11:31:02Z</time>
      </trkpt>
      <trkpt lat="48.19673" lon="7.13903">
        <ele>1048.2</ele>
        <time>2022-02-13T11:31:04Z</time>
      </trkpt>
      <trkpt lat="48.19674" lon="7.13901">
        <ele>1048.3</ele>
        <time>2022-02-13T11:31:10Z</time>
      </trkpt>
      <trkpt lat="48.19674" lon="7.13901">
        <ele>1048.3</ele>
        <time>2022-02-13T11:31:11Z</time>
      </trkpt>
      <trkpt lat="48.19674" lon="7.13901">
        <ele>1048.3</ele>
        <time>2022-02-13T11:31:12Z</time>
      </trkpt>
      <trkpt lat="48.19674" lon="7.139">
        <ele>1048.3</ele>
        <time>2022-02-13T11:31:15Z</time>
      </trkpt>
      <trkpt lat="48.19673" lon="7.13896">
        <ele>1048.6</ele>
        <time>2022-02-13T11:31:23Z</time>
      </trkpt>
      <trkpt lat="48.19673" lon="7.13896">
        <ele>1048.6</ele>
        <time>2022-02-13T11:31:24Z</time>
      </trkpt>
      <trkpt lat="48.19673" lon="7.13899">
        <ele>1048.7</ele>
        <time>2022-02-13T11:31:29Z</time>
      </trkpt>
      <trkpt lat="48.19673" lon="7.13899">
        <ele>1048.7</ele>
        <time>2022-02-13T11:31:33Z</time>
      </trkpt>
      <trkpt lat="48.19674" lon="7.13899">
        <ele>1048.8</ele>
        <time>2022-02-13T11:31:36Z</time>
      </trkpt>
      <trkpt lat="48.19674" lon="7.13899">
        <ele>1048.8</ele>
        <time>2022-02-13T11:31:37Z</time>
      </trkpt>
      <trkpt lat="48.19674" lon="7.13899">
        <ele>1048.8</ele>
        <time>2022-02-13T11:31:38Z</time>
      </trkpt>
      <trkpt lat="48.19674" lon="7.13899">
        <ele>1048.8</ele>
        <time>2022-02-13T11:31:44Z</time>
      </trkpt>
      <trkpt lat="48.19674" lon="7.13899">
        <ele>1048.8</ele>
        <time>2022-02-13T11:31:45Z</time>
      </trkpt>
      <trkpt lat="48.19674" lon="7.13899">
        <ele>1048.8</ele>
        <time>2022-02-13T11:31:47Z</time>
      </trkpt>
      <trkpt lat="48.19674" lon="7.13899">
        <ele>1048.8</ele>
        <time>2022-02-13T11:31:48Z</time>
      </trkpt>
      <trkpt lat="48.19674" lon="7.13899">
        <ele>1048.8</ele>
        <time>2022-02-13T11:31:49Z</time>
      </trkpt>
      <trkpt lat="48.19674" lon="7.139">
        <ele>1048.9</ele>
        <time>2022-02-13T11:31:51Z</time>
      </trkpt>
      <trkpt lat="48.19674" lon="7.139">
        <ele>1048.9</ele>
        <time>2022-02-13T11:31:54Z</time>
      </trkpt>
      <trkpt lat="48.19674" lon="7.139">
        <ele>1048.9</ele>
        <time>2022-02-13T11:31:55Z</time>
      </trkpt>
      <trkpt lat="48.19674" lon="7.13901">
        <ele>1048.9</ele>
        <time>2022-02-13T11:32:03Z</time>
      </trkpt>
      <trkpt lat="48.19674" lon="7.13901">
        <ele>1048.9</ele>
        <time>2022-02-13T11:32:04Z</time>
      </trkpt>
      <trkpt lat="48.19674" lon="7.13901">
        <ele>1048.9</ele>
        <time>2022-02-13T11:32:05Z</time>
      </trkpt>
      <trkpt lat="48.19674" lon="7.13901">
        <ele>1048.9</ele>
        <time>2022-02-13T11:32:06Z</time>
      </trkpt>
      <trkpt lat="48.19674" lon="7.139">
        <ele>1049</ele>
        <time>2022-02-13T11:32:07Z</time>
      </trkpt>
      <trkpt lat="48.19675" lon="7.13899">
        <ele>1049.1</ele>
        <time>2022-02-13T11:32:14Z</time>
      </trkpt>
      <trkpt lat="48.19675" lon="7.13899">
        <ele>1049.1</ele>
        <time>2022-02-13T11:32:19Z</time>
      </trkpt>
      <trkpt lat="48.19675" lon="7.13899">
        <ele>1049.1</ele>
        <time>2022-02-13T11:32:20Z</time>
      </trkpt>
      <trkpt lat="48.19675" lon="7.139">
        <ele>1049.1</ele>
        <time>2022-02-13T11:32:22Z</time>
      </trkpt>
      <trkpt lat="48.19675" lon="7.139">
        <ele>1049.1</ele>
        <time>2022-02-13T11:32:23Z</time>
      </trkpt>
      <trkpt lat="48.19676" lon="7.139">
        <ele>1049.1</ele>
        <time>2022-02-13T11:32:51Z</time>
      </trkpt>
      <trkpt lat="48.19676" lon="7.139">
        <ele>1049.1</ele>
        <time>2022-02-13T11:32:52Z</time>
      </trkpt>
      <trkpt lat="48.19676" lon="7.139">
        <ele>1049.1</ele>
        <time>2022-02-13T11:33:01Z</time>
      </trkpt>
      <trkpt lat="48.19676" lon="7.13899">
        <ele>1049.2</ele>
        <time>2022-02-13T11:33:08Z</time>
      </trkpt>
      <trkpt lat="48.19676" lon="7.13898">
        <ele>1049.2</ele>
        <time>2022-02-13T11:33:09Z</time>
      </trkpt>
      <trkpt lat="48.19677" lon="7.13898">
        <ele>1049.2</ele>
        <time>2022-02-13T11:33:13Z</time>
      </trkpt>
      <trkpt lat="48.19677" lon="7.13898">
        <ele>1049.2</ele>
        <time>2022-02-13T11:33:24Z</time>
      </trkpt>
      <trkpt lat="48.19677" lon="7.13898">
        <ele>1049.3</ele>
        <time>2022-02-13T11:33:26Z</time>
      </trkpt>
      <trkpt lat="48.19677" lon="7.13898">
        <ele>1049.3</ele>
        <time>2022-02-13T11:33:42Z</time>
      </trkpt>
      <trkpt lat="48.19677" lon="7.13898">
        <ele>1049.3</ele>
        <time>2022-02-13T11:33:44Z</time>
      </trkpt>
      <trkpt lat="48.19677" lon="7.13898">
        <ele>1049.3</ele>
        <time>2022-02-13T11:33:48Z</time>
      </trkpt>
      <trkpt lat="48.19677" lon="7.13898">
        <ele>1049.3</ele>
        <time>2022-02-13T11:33:49Z</time>
      </trkpt>
      <trkpt lat="48.19677" lon="7.13898">
        <ele>1049.3</ele>
        <time>2022-02-13T11:33:57Z</time>
      </trkpt>
      <trkpt lat="48.19677" lon="7.13898">
        <ele>1049.3</ele>
        <time>2022-02-13T11:34:00Z</time>
      </trkpt>
      <trkpt lat="48.19676" lon="7.13899">
        <ele>1049.4</ele>
        <time>2022-02-13T11:34:12Z</time>
      </trkpt>
      <trkpt lat="48.19676" lon="7.139">
        <ele>1049.4</ele>
        <time>2022-02-13T11:34:18Z</time>
      </trkpt>
      <trkpt lat="48.19677" lon="7.139">
        <ele>1049.4</ele>
        <time>2022-02-13T11:34:19Z</time>
      </trkpt>
      <trkpt lat="48.19677" lon="7.139">
        <ele>1049.5</ele>
        <time>2022-02-13T11:34:22Z</time>
      </trkpt>
      <trkpt lat="48.19676" lon="7.139">
        <ele>1049.5</ele>
        <time>2022-02-13T11:34:30Z</time>
      </trkpt>
      <trkpt lat="48.19676" lon="7.139">
        <ele>1049.5</ele>
        <time>2022-02-13T11:34:31Z</time>
      </trkpt>
      <trkpt lat="48.19677" lon="7.139">
        <ele>1049.5</ele>
        <time>2022-02-13T11:34:38Z</time>
      </trkpt>
      <trkpt lat="48.19677" lon="7.139">
        <ele>1049.5</ele>
        <time>2022-02-13T11:34:39Z</time>
      </trkpt>
      <trkpt lat="48.19676" lon="7.139">
        <ele>1049.5</ele>
        <time>2022-02-13T11:34:40Z</time>
      </trkpt>
      <trkpt lat="48.19676" lon="7.139">
        <ele>1049.5</ele>
        <time>2022-02-13T11:34:41Z</time>
      </trkpt>
      <trkpt lat="48.19676" lon="7.13901">
        <ele>1049.5</ele>
        <time>2022-02-13T11:34:47Z</time>
      </trkpt>
      <trkpt lat="48.19676" lon="7.13901">
        <ele>1049.5</ele>
        <time>2022-02-13T11:34:59Z</time>
      </trkpt>
      <trkpt lat="48.19676" lon="7.139">
        <ele>1049.6</ele>
        <time>2022-02-13T11:35:00Z</time>
      </trkpt>
      <trkpt lat="48.19676" lon="7.139">
        <ele>1049.6</ele>
        <time>2022-02-13T11:35:06Z</time>
      </trkpt>
      <trkpt lat="48.19676" lon="7.139">
        <ele>1049.6</ele>
        <time>2022-02-13T11:35:07Z</time>
      </trkpt>
      <trkpt lat="48.19675" lon="7.13903">
        <ele>1049.8</ele>
        <time>2022-02-13T11:35:23Z</time>
      </trkpt>
      <trkpt lat="48.19675" lon="7.13903">
        <ele>1049.8</ele>
        <time>2022-02-13T11:35:36Z</time>
      </trkpt>
      <trkpt lat="48.19676" lon="7.13902">
        <ele>1049.8</ele>
        <time>2022-02-13T11:35:40Z</time>
      </trkpt>
      <trkpt lat="48.19675" lon="7.13902">
        <ele>1049.9</ele>
        <time>2022-02-13T11:35:41Z</time>
      </trkpt>
      <trkpt lat="48.19675" lon="7.13903">
        <ele>1049.9</ele>
        <time>2022-02-13T11:35:43Z</time>
      </trkpt>
      <trkpt lat="48.19675" lon="7.13903">
        <ele>1049.9</ele>
        <time>2022-02-13T11:35:45Z</time>
      </trkpt>
      <trkpt lat="48.19674" lon="7.13905">
        <ele>1050</ele>
        <time>2022-02-13T11:35:57Z</time>
      </trkpt>
      <trkpt lat="48.19674" lon="7.13904">
        <ele>1050</ele>
        <time>2022-02-13T11:35:58Z</time>
      </trkpt>
      <trkpt lat="48.19675" lon="7.13902">
        <ele>1050.1</ele>
        <time>2022-02-13T11:36:02Z</time>
      </trkpt>
      <trkpt lat="48.19675" lon="7.13902">
        <ele>1050.2</ele>
        <time>2022-02-13T11:36:03Z</time>
      </trkpt>
      <trkpt lat="48.19676" lon="7.13899">
        <ele>1050.3</ele>
        <time>2022-02-13T11:36:13Z</time>
      </trkpt>
      <trkpt lat="48.19676" lon="7.13899">
        <ele>1050.3</ele>
        <time>2022-02-13T11:36:14Z</time>
      </trkpt>
      <trkpt lat="48.19676" lon="7.13899">
        <ele>1050.3</ele>
        <time>2022-02-13T11:36:15Z</time>
      </trkpt>
      <trkpt lat="48.19677" lon="7.13899">
        <ele>1050.4</ele>
        <time>2022-02-13T11:36:16Z</time>
      </trkpt>
      <trkpt lat="48.19677" lon="7.139">
        <ele>1050.4</ele>
        <time>2022-02-13T11:36:18Z</time>
      </trkpt>
      <trkpt lat="48.19677" lon="7.139">
        <ele>1050.4</ele>
        <time>2022-02-13T11:36:19Z</time>
      </trkpt>
      <trkpt lat="48.19677" lon="7.139">
        <ele>1050.4</ele>
        <time>2022-02-13T11:36:20Z</time>
      </trkpt>
      <trkpt lat="48.19677" lon="7.139">
        <ele>1050.4</ele>
        <time>2022-02-13T11:36:21Z</time>
      </trkpt>
      <trkpt lat="48.19675" lon="7.13899">
        <ele>1050.6</ele>
        <time>2022-02-13T11:36:31Z</time>
      </trkpt>
      <trkpt lat="48.19675" lon="7.139">
        <ele>1050.6</ele>
        <time>2022-02-13T11:36:32Z</time>
      </trkpt>
      <trkpt lat="48.19675" lon="7.139">
        <ele>1050.6</ele>
        <time>2022-02-13T11:36:33Z</time>
      </trkpt>
      <trkpt lat="48.19675" lon="7.13899">
        <ele>1050.6</ele>
        <time>2022-02-13T11:36:34Z</time>
      </trkpt>
      <trkpt lat="48.19675" lon="7.13898">
        <ele>1050.7</ele>
        <time>2022-02-13T11:36:51Z</time>
      </trkpt>
      <trkpt lat="48.19675" lon="7.13898">
        <ele>1050.7</ele>
        <time>2022-02-13T11:36:52Z</time>
      </trkpt>
      <trkpt lat="48.19671" lon="7.13902">
        <ele>1051</ele>
        <time>2022-02-13T11:37:09Z</time>
      </trkpt>
      <trkpt lat="48.19671" lon="7.13901">
        <ele>1051</ele>
        <time>2022-02-13T11:37:11Z</time>
      </trkpt>
      <trkpt lat="48.19672" lon="7.13901">
        <ele>1051.1</ele>
        <time>2022-02-13T11:37:15Z</time>
      </trkpt>
      <trkpt lat="48.19671" lon="7.13901">
        <ele>1051.1</ele>
        <time>2022-02-13T11:37:16Z</time>
      </trkpt>
      <trkpt lat="48.19671" lon="7.13901">
        <ele>1051.1</ele>
        <time>2022-02-13T11:37:17Z</time>
      </trkpt>
      <trkpt lat="48.19671" lon="7.13902">
        <ele>1051.1</ele>
        <time>2022-02-13T11:37:19Z</time>
      </trkpt>
      <trkpt lat="48.19677" lon="7.13899">
        <ele>1051.5</ele>
        <time>2022-02-13T11:37:34Z</time>
      </trkpt>
      <trkpt lat="48.19677" lon="7.139">
        <ele>1051.5</ele>
        <time>2022-02-13T11:37:35Z</time>
      </trkpt>
      <trkpt lat="48.19676" lon="7.13899">
        <ele>1051.6</ele>
        <time>2022-02-13T11:37:37Z</time>
      </trkpt>
      <trkpt lat="48.19677" lon="7.13898">
        <ele>1051.6</ele>
        <time>2022-02-13T11:37:38Z</time>
      </trkpt>
      <trkpt lat="48.19677" lon="7.13898">
        <ele>1051.6</ele>
        <time>2022-02-13T11:37:41Z</time>
      </trkpt>
      <trkpt lat="48.19677" lon="7.13898">
        <ele>1051.6</ele>
        <time>2022-02-13T11:37:42Z</time>
      </trkpt>
      <trkpt lat="48.19675" lon="7.13904">
        <ele>1051.9</ele>
        <time>2022-02-13T11:38:17Z</time>
      </trkpt>
      <trkpt lat="48.19675" lon="7.13904">
        <ele>1051.9</ele>
        <time>2022-02-13T11:38:19Z</time>
      </trkpt>
      <trkpt lat="48.19675" lon="7.13903">
        <ele>1051.9</ele>
        <time>2022-02-13T11:38:21Z</time>
      </trkpt>
      <trkpt lat="48.19675" lon="7.13903">
        <ele>1052</ele>
        <time>2022-02-13T11:38:24Z</time>
      </trkpt>
      <trkpt lat="48.19675" lon="7.13903">
        <ele>1052</ele>
        <time>2022-02-13T11:38:26Z</time>
      </trkpt>
      <trkpt lat="48.19675" lon="7.13903">
        <ele>1052</ele>
        <time>2022-02-13T11:38:27Z</time>
      </trkpt>
      <trkpt lat="48.19674" lon="7.13906">
        <ele>1052.2</ele>
        <time>2022-02-13T11:39:08Z</time>
      </trkpt>
      <trkpt lat="48.19674" lon="7.13906">
        <ele>1052.2</ele>
        <time>2022-02-13T11:39:09Z</time>
      </trkpt>
      <trkpt lat="48.19672" lon="7.13904">
        <ele>1052.3</ele>
        <time>2022-02-13T11:39:15Z</time>
      </trkpt>
      <trkpt lat="48.19672" lon="7.13904">
        <ele>1052.3</ele>
        <time>2022-02-13T11:39:16Z</time>
      </trkpt>
      <trkpt lat="48.19672" lon="7.13903">
        <ele>1052.4</ele>
        <time>2022-02-13T11:39:18Z</time>
      </trkpt>
      <trkpt lat="48.19672" lon="7.13904">
        <ele>1052.4</ele>
        <time>2022-02-13T11:39:19Z</time>
      </trkpt>
      <trkpt lat="48.19672" lon="7.13904">
        <ele>1052.4</ele>
        <time>2022-02-13T11:39:21Z</time>
      </trkpt>
      <trkpt lat="48.19672" lon="7.13904">
        <ele>1052.4</ele>
        <time>2022-02-13T11:39:22Z</time>
      </trkpt>
      <trkpt lat="48.19673" lon="7.13902">
        <ele>1052.5</ele>
        <time>2022-02-13T11:39:30Z</time>
      </trkpt>
      <trkpt lat="48.19673" lon="7.13902">
        <ele>1052.6</ele>
        <time>2022-02-13T11:39:45Z</time>
      </trkpt>
      <trkpt lat="48.19672" lon="7.139">
        <ele>1052.6</ele>
        <time>2022-02-13T11:39:48Z</time>
      </trkpt>
      <trkpt lat="48.19672" lon="7.139">
        <ele>1052.7</ele>
        <time>2022-02-13T11:39:54Z</time>
      </trkpt>
      <trkpt lat="48.19672" lon="7.139">
        <ele>1052.7</ele>
        <time>2022-02-13T11:39:55Z</time>
      </trkpt>
      <trkpt lat="48.19672" lon="7.13901">
        <ele>1052.7</ele>
        <time>2022-02-13T11:40:15Z</time>
      </trkpt>
      <trkpt lat="48.19672" lon="7.13901">
        <ele>1052.7</ele>
        <time>2022-02-13T11:40:16Z</time>
      </trkpt>
      <trkpt lat="48.19672" lon="7.13901">
        <ele>1052.7</ele>
        <time>2022-02-13T11:40:26Z</time>
      </trkpt>
      <trkpt lat="48.19672" lon="7.13901">
        <ele>1052.7</ele>
        <time>2022-02-13T11:40:28Z</time>
      </trkpt>
      <trkpt lat="48.19672" lon="7.13901">
        <ele>1052.7</ele>
        <time>2022-02-13T11:40:32Z</time>
      </trkpt>
      <trkpt lat="48.19672" lon="7.13901">
        <ele>1052.7</ele>
        <time>2022-02-13T11:40:33Z</time>
      </trkpt>
      <trkpt lat="48.19672" lon="7.139">
        <ele>1052.7</ele>
        <time>2022-02-13T11:40:36Z</time>
      </trkpt>
      <trkpt lat="48.19672" lon="7.139">
        <ele>1052.7</ele>
        <time>2022-02-13T11:40:37Z</time>
      </trkpt>
      <trkpt lat="48.19672" lon="7.139">
        <ele>1052.8</ele>
        <time>2022-02-13T11:40:38Z</time>
      </trkpt>
      <trkpt lat="48.19672" lon="7.139">
        <ele>1052.8</ele>
        <time>2022-02-13T11:40:39Z</time>
      </trkpt>
      <trkpt lat="48.19672" lon="7.13901">
        <ele>1052.8</ele>
        <time>2022-02-13T11:41:04Z</time>
      </trkpt>
      <trkpt lat="48.19672" lon="7.13901">
        <ele>1052.8</ele>
        <time>2022-02-13T11:41:05Z</time>
      </trkpt>
      <trkpt lat="48.19672" lon="7.139">
        <ele>1052.8</ele>
        <time>2022-02-13T11:41:06Z</time>
      </trkpt>
      <trkpt lat="48.19672" lon="7.139">
        <ele>1052.8</ele>
        <time>2022-02-13T11:41:07Z</time>
      </trkpt>
      <trkpt lat="48.19673" lon="7.139">
        <ele>1052.8</ele>
        <time>2022-02-13T11:41:09Z</time>
      </trkpt>
      <trkpt lat="48.19673" lon="7.139">
        <ele>1052.8</ele>
        <time>2022-02-13T11:41:10Z</time>
      </trkpt>
      <trkpt lat="48.19673" lon="7.139">
        <ele>1052.8</ele>
        <time>2022-02-13T11:41:11Z</time>
      </trkpt>
      <trkpt lat="48.19672" lon="7.13901">
        <ele>1052.9</ele>
        <time>2022-02-13T11:41:13Z</time>
      </trkpt>
      <trkpt lat="48.19672" lon="7.139">
        <ele>1052.9</ele>
        <time>2022-02-13T11:41:14Z</time>
      </trkpt>
      <trkpt lat="48.19673" lon="7.13899">
        <ele>1053</ele>
        <time>2022-02-13T11:41:21Z</time>
      </trkpt>
      <trkpt lat="48.19673" lon="7.13898">
        <ele>1053</ele>
        <time>2022-02-13T11:41:23Z</time>
      </trkpt>
      <trkpt lat="48.19673" lon="7.13898">
        <ele>1053.1</ele>
        <time>2022-02-13T11:41:24Z</time>
      </trkpt>
      <trkpt lat="48.19673" lon="7.13898">
        <ele>1053.2</ele>
        <time>2022-02-13T11:41:32Z</time>
      </trkpt>
      <trkpt lat="48.19673" lon="7.13898">
        <ele>1053.2</ele>
        <time>2022-02-13T11:41:34Z</time>
      </trkpt>
      <trkpt lat="48.19674" lon="7.13897">
        <ele>1053.4</ele>
        <time>2022-02-13T11:41:35Z</time>
      </trkpt>
      <trkpt lat="48.19674" lon="7.13897">
        <ele>1053.5</ele>
        <time>2022-02-13T11:41:36Z</time>
      </trkpt>
      <trkpt lat="48.19674" lon="7.13896">
        <ele>1053.6</ele>
        <time>2022-02-13T11:41:40Z</time>
      </trkpt>
      <trkpt lat="48.19674" lon="7.13896">
        <ele>1053.6</ele>
        <time>2022-02-13T11:41:42Z</time>
      </trkpt>
      <trkpt lat="48.19674" lon="7.13896">
        <ele>1053.7</ele>
        <time>2022-02-13T11:42:16Z</time>
      </trkpt>
      <trkpt lat="48.19674" lon="7.13896">
        <ele>1053.9</ele>
        <time>2022-02-13T11:42:17Z</time>
      </trkpt>
      <trkpt lat="48.19674" lon="7.13897">
        <ele>1054</ele>
        <time>2022-02-13T11:42:18Z</time>
      </trkpt>
      <trkpt lat="48.19674" lon="7.13897">
        <ele>1054</ele>
        <time>2022-02-13T11:42:21Z</time>
      </trkpt>
      <trkpt lat="48.19674" lon="7.13897">
        <ele>1054.1</ele>
        <time>2022-02-13T11:42:22Z</time>
      </trkpt>
      <trkpt lat="48.19674" lon="7.13898">
        <ele>1054.2</ele>
        <time>2022-02-13T11:42:24Z</time>
      </trkpt>
      <trkpt lat="48.19674" lon="7.13898">
        <ele>1054.3</ele>
        <time>2022-02-13T11:42:25Z</time>
      </trkpt>
      <trkpt lat="48.19675" lon="7.13899">
        <ele>1054.4</ele>
        <time>2022-02-13T11:42:31Z</time>
      </trkpt>
      <trkpt lat="48.19675" lon="7.13899">
        <ele>1054.5</ele>
        <time>2022-02-13T11:42:33Z</time>
      </trkpt>
      <trkpt lat="48.19675" lon="7.139">
        <ele>1054.7</ele>
        <time>2022-02-13T11:42:37Z</time>
      </trkpt>
      <trkpt lat="48.19675" lon="7.139">
        <ele>1054.7</ele>
        <time>2022-02-13T11:43:11Z</time>
      </trkpt>
      <trkpt lat="48.19676" lon="7.13901">
        <ele>1054.9</ele>
        <time>2022-02-13T11:43:18Z</time>
      </trkpt>
      <trkpt lat="48.19676" lon="7.13902">
        <ele>1055</ele>
        <time>2022-02-13T11:43:33Z</time>
      </trkpt>
      <trkpt lat="48.19678" lon="7.13899">
        <ele>1055.2</ele>
        <time>2022-02-13T11:43:50Z</time>
      </trkpt>
      <trkpt lat="48.19678" lon="7.13899">
        <ele>1055.4</ele>
        <time>2022-02-13T11:43:55Z</time>
      </trkpt>
      <trkpt lat="48.19678" lon="7.13899">
        <ele>1055.4</ele>
        <time>2022-02-13T11:43:59Z</time>
      </trkpt>
      <trkpt lat="48.19679" lon="7.13899">
        <ele>1055.5</ele>
        <time>2022-02-13T11:44:00Z</time>
      </trkpt>
      <trkpt lat="48.19679" lon="7.13899">
        <ele>1055.6</ele>
        <time>2022-02-13T11:44:01Z</time>
      </trkpt>
      <trkpt lat="48.19679" lon="7.13899">
        <ele>1055.6</ele>
        <time>2022-02-13T11:44:03Z</time>
      </trkpt>
      <trkpt lat="48.19679" lon="7.13899">
        <ele>1055.7</ele>
        <time>2022-02-13T11:44:05Z</time>
      </trkpt>
      <trkpt lat="48.19679" lon="7.13899">
        <ele>1055.8</ele>
        <time>2022-02-13T11:44:10Z</time>
      </trkpt>
      <trkpt lat="48.19679" lon="7.13901">
        <ele>1056</ele>
        <time>2022-02-13T11:44:18Z</time>
      </trkpt>
      <trkpt lat="48.19679" lon="7.13902">
        <ele>1056.1</ele>
        <time>2022-02-13T11:44:20Z</time>
      </trkpt>
      <trkpt lat="48.19678" lon="7.13902">
        <ele>1056.1</ele>
        <time>2022-02-13T11:44:25Z</time>
      </trkpt>
      <trkpt lat="48.19678" lon="7.13902">
        <ele>1056.3</ele>
        <time>2022-02-13T11:44:26Z</time>
      </trkpt>
      <trkpt lat="48.19678" lon="7.13902">
        <ele>1056.3</ele>
        <time>2022-02-13T11:44:27Z</time>
      </trkpt>
      <trkpt lat="48.19678" lon="7.13901">
        <ele>1056.4</ele>
        <time>2022-02-13T11:44:43Z</time>
      </trkpt>
      <trkpt lat="48.19678" lon="7.13901">
        <ele>1056.5</ele>
        <time>2022-02-13T11:44:44Z</time>
      </trkpt>
      <trkpt lat="48.19678" lon="7.13901">
        <ele>1056.5</ele>
        <time>2022-02-13T11:44:53Z</time>
      </trkpt>
      <trkpt lat="48.19678" lon="7.13901">
        <ele>1056.6</ele>
        <time>2022-02-13T11:44:54Z</time>
      </trkpt>
      <trkpt lat="48.19678" lon="7.139">
        <ele>1056.7</ele>
        <time>2022-02-13T11:45:09Z</time>
      </trkpt>
      <trkpt lat="48.19677" lon="7.139">
        <ele>1056.8</ele>
        <time>2022-02-13T11:45:18Z</time>
      </trkpt>
      <trkpt lat="48.19677" lon="7.13899">
        <ele>1056.9</ele>
        <time>2022-02-13T11:45:31Z</time>
      </trkpt>
      <trkpt lat="48.19677" lon="7.13899">
        <ele>1056.9</ele>
        <time>2022-02-13T11:45:32Z</time>
      </trkpt>
      <trkpt lat="48.19677" lon="7.13899">
        <ele>1057.1</ele>
        <time>2022-02-13T11:45:35Z</time>
      </trkpt>
      <trkpt lat="48.19677" lon="7.13899">
        <ele>1057.1</ele>
        <time>2022-02-13T11:45:36Z</time>
      </trkpt>
      <trkpt lat="48.19677" lon="7.13899">
        <ele>1057.2</ele>
        <time>2022-02-13T11:45:39Z</time>
      </trkpt>
      <trkpt lat="48.19671" lon="7.13907">
        <ele>1057.6</ele>
        <time>2022-02-13T11:46:08Z</time>
      </trkpt>
      <trkpt lat="48.19671" lon="7.13907">
        <ele>1057.7</ele>
        <time>2022-02-13T11:46:09Z</time>
      </trkpt>
      <trkpt lat="48.19675" lon="7.139">
        <ele>1058</ele>
        <time>2022-02-13T11:46:24Z</time>
      </trkpt>
      <trkpt lat="48.19674" lon="7.13901">
        <ele>1058</ele>
        <time>2022-02-13T11:46:25Z</time>
      </trkpt>
      <trkpt lat="48.19679" lon="7.139">
        <ele>1058.3</ele>
        <time>2022-02-13T11:46:50Z</time>
      </trkpt>
      <trkpt lat="48.19679" lon="7.139">
        <ele>1058.4</ele>
        <time>2022-02-13T11:46:51Z</time>
      </trkpt>
      <trkpt lat="48.19681" lon="7.13898">
        <ele>1058.5</ele>
        <time>2022-02-13T11:46:59Z</time>
      </trkpt>
      <trkpt lat="48.19681" lon="7.13897">
        <ele>1058.5</ele>
        <time>2022-02-13T11:47:08Z</time>
      </trkpt>
      <trkpt lat="48.19681" lon="7.13897">
        <ele>1058.6</ele>
        <time>2022-02-13T11:47:09Z</time>
      </trkpt>
      <trkpt lat="48.19681" lon="7.13898">
        <ele>1058.7</ele>
        <time>2022-02-13T11:47:13Z</time>
      </trkpt>
      <trkpt lat="48.19676" lon="7.13899">
        <ele>1058.9</ele>
        <time>2022-02-13T11:47:26Z</time>
      </trkpt>
      <trkpt lat="48.19676" lon="7.13899">
        <ele>1059</ele>
        <time>2022-02-13T11:47:50Z</time>
      </trkpt>
      <trkpt lat="48.19676" lon="7.13899">
        <ele>1059</ele>
        <time>2022-02-13T11:47:51Z</time>
      </trkpt>
      <trkpt lat="48.19676" lon="7.13899">
        <ele>1059.1</ele>
        <time>2022-02-13T11:47:57Z</time>
      </trkpt>
      <trkpt lat="48.19676" lon="7.13899">
        <ele>1059.1</ele>
        <time>2022-02-13T11:47:58Z</time>
      </trkpt>
      <trkpt lat="48.19676" lon="7.13899">
        <ele>1059.1</ele>
        <time>2022-02-13T11:48:01Z</time>
      </trkpt>
      <trkpt lat="48.19675" lon="7.13899">
        <ele>1059.2</ele>
        <time>2022-02-13T11:48:03Z</time>
      </trkpt>
      <trkpt lat="48.19675" lon="7.139">
        <ele>1059.3</ele>
        <time>2022-02-13T11:48:04Z</time>
      </trkpt>
      <trkpt lat="48.19674" lon="7.13899">
        <ele>1059.3</ele>
        <time>2022-02-13T11:48:09Z</time>
      </trkpt>
      <trkpt lat="48.19674" lon="7.13899">
        <ele>1059.4</ele>
        <time>2022-02-13T11:48:14Z</time>
      </trkpt>
      <trkpt lat="48.19674" lon="7.13899">
        <ele>1059.4</ele>
        <time>2022-02-13T11:48:15Z</time>
      </trkpt>
      <trkpt lat="48.19674" lon="7.13898">
        <ele>1059.5</ele>
        <time>2022-02-13T11:48:18Z</time>
      </trkpt>
      <trkpt lat="48.19674" lon="7.13899">
        <ele>1059.5</ele>
        <time>2022-02-13T11:48:21Z</time>
      </trkpt>
      <trkpt lat="48.19674" lon="7.13899">
        <ele>1059.6</ele>
        <time>2022-02-13T11:48:24Z</time>
      </trkpt>
      <trkpt lat="48.19674" lon="7.13899">
        <ele>1059.6</ele>
        <time>2022-02-13T11:48:25Z</time>
      </trkpt>
      <trkpt lat="48.19674" lon="7.13898">
        <ele>1059.7</ele>
        <time>2022-02-13T11:48:30Z</time>
      </trkpt>
      <trkpt lat="48.19674" lon="7.13898">
        <ele>1059.7</ele>
        <time>2022-02-13T11:48:31Z</time>
      </trkpt>
      <trkpt lat="48.19674" lon="7.13898">
        <ele>1059.8</ele>
        <time>2022-02-13T11:48:32Z</time>
      </trkpt>
      <trkpt lat="48.19675" lon="7.13899">
        <ele>1059.8</ele>
        <time>2022-02-13T11:48:35Z</time>
      </trkpt>
      <trkpt lat="48.19675" lon="7.13899">
        <ele>1059.9</ele>
        <time>2022-02-13T11:48:43Z</time>
      </trkpt>
      <trkpt lat="48.19675" lon="7.13899">
        <ele>1059.9</ele>
        <time>2022-02-13T11:48:45Z</time>
      </trkpt>
      <trkpt lat="48.19675" lon="7.13899">
        <ele>1059.9</ele>
        <time>2022-02-13T11:48:46Z</time>
      </trkpt>
      <trkpt lat="48.19675" lon="7.13899">
        <ele>1060</ele>
        <time>2022-02-13T11:48:47Z</time>
      </trkpt>
      <trkpt lat="48.19675" lon="7.13899">
        <ele>1060</ele>
        <time>2022-02-13T11:48:50Z</time>
      </trkpt>
      <trkpt lat="48.19675" lon="7.13899">
        <ele>1060.1</ele>
        <time>2022-02-13T11:48:51Z</time>
      </trkpt>
      <trkpt lat="48.19676" lon="7.13899">
        <ele>1060.1</ele>
        <time>2022-02-13T11:49:01Z</time>
      </trkpt>
      <trkpt lat="48.19676" lon="7.13899">
        <ele>1060.1</ele>
        <time>2022-02-13T11:49:02Z</time>
      </trkpt>
      <trkpt lat="48.19676" lon="7.13899">
        <ele>1060.2</ele>
        <time>2022-02-13T11:49:03Z</time>
      </trkpt>
      <trkpt lat="48.19676" lon="7.13899">
        <ele>1060.2</ele>
        <time>2022-02-13T11:49:04Z</time>
      </trkpt>
      <trkpt lat="48.19676" lon="7.13899">
        <ele>1060.3</ele>
        <time>2022-02-13T11:50:19Z</time>
      </trkpt>
      <trkpt lat="48.19676" lon="7.13899">
        <ele>1060.3</ele>
        <time>2022-02-13T11:50:21Z</time>
      </trkpt>
      <trkpt lat="48.19676" lon="7.13898">
        <ele>1060.4</ele>
        <time>2022-02-13T11:50:24Z</time>
      </trkpt>
      <trkpt lat="48.19676" lon="7.13898">
        <ele>1060.4</ele>
        <time>2022-02-13T11:50:25Z</time>
      </trkpt>
      <trkpt lat="48.19675" lon="7.13899">
        <ele>1060.4</ele>
        <time>2022-02-13T11:50:30Z</time>
      </trkpt>
      <trkpt lat="48.19675" lon="7.13898">
        <ele>1060.5</ele>
        <time>2022-02-13T11:50:31Z</time>
      </trkpt>
      <trkpt lat="48.19676" lon="7.13898">
        <ele>1060.5</ele>
        <time>2022-02-13T11:51:05Z</time>
      </trkpt>
      <trkpt lat="48.19676" lon="7.13898">
        <ele>1060.6</ele>
        <time>2022-02-13T11:51:06Z</time>
      </trkpt>
      <trkpt lat="48.19676" lon="7.13898">
        <ele>1060.6</ele>
        <time>2022-02-13T11:52:14Z</time>
      </trkpt>
      <trkpt lat="48.19676" lon="7.13897">
        <ele>1060.6</ele>
        <time>2022-02-13T11:52:17Z</time>
      </trkpt>
      <trkpt lat="48.19676" lon="7.13897">
        <ele>1060.7</ele>
        <time>2022-02-13T11:52:22Z</time>
      </trkpt>
      <trkpt lat="48.19676" lon="7.13897">
        <ele>1060.7</ele>
        <time>2022-02-13T11:52:23Z</time>
      </trkpt>
      <trkpt lat="48.19676" lon="7.13897">
        <ele>1060.8</ele>
        <time>2022-02-13T11:52:27Z</time>
      </trkpt>
      <trkpt lat="48.19676" lon="7.13896">
        <ele>1060.8</ele>
        <time>2022-02-13T11:52:29Z</time>
      </trkpt>
      <trkpt lat="48.19676" lon="7.13896">
        <ele>1060.8</ele>
        <time>2022-02-13T11:52:32Z</time>
      </trkpt>
      <trkpt lat="48.19676" lon="7.13896">
        <ele>1060.9</ele>
        <time>2022-02-13T11:52:33Z</time>
      </trkpt>
      <trkpt lat="48.19676" lon="7.13896">
        <ele>1060.9</ele>
        <time>2022-02-13T11:52:34Z</time>
      </trkpt>
      <trkpt lat="48.19676" lon="7.13896">
        <ele>1060.9</ele>
        <time>2022-02-13T11:52:35Z</time>
      </trkpt>
      <trkpt lat="48.19676" lon="7.13896">
        <ele>1060.9</ele>
        <time>2022-02-13T11:52:39Z</time>
      </trkpt>
      <trkpt lat="48.19676" lon="7.13896">
        <ele>1060.9</ele>
        <time>2022-02-13T11:52:41Z</time>
      </trkpt>
      <trkpt lat="48.19676" lon="7.13895">
        <ele>1060.9</ele>
        <time>2022-02-13T11:52:42Z</time>
      </trkpt>
      <trkpt lat="48.19676" lon="7.13897">
        <ele>1060.9</ele>
        <time>2022-02-13T11:52:49Z</time>
      </trkpt>
      <trkpt lat="48.19676" lon="7.13896">
        <ele>1060.9</ele>
        <time>2022-02-13T11:52:50Z</time>
      </trkpt>
      <trkpt lat="48.19677" lon="7.13896">
        <ele>1060.9</ele>
        <time>2022-02-13T11:52:53Z</time>
      </trkpt>
      <trkpt lat="48.19676" lon="7.13896">
        <ele>1060.9</ele>
        <time>2022-02-13T11:52:54Z</time>
      </trkpt>
      <trkpt lat="48.19676" lon="7.13896">
        <ele>1060.9</ele>
        <time>2022-02-13T11:52:56Z</time>
      </trkpt>
      <trkpt lat="48.19676" lon="7.13896">
        <ele>1060.9</ele>
        <time>2022-02-13T11:53:56Z</time>
      </trkpt>
      <trkpt lat="48.19676" lon="7.13896">
        <ele>1060.9</ele>
        <time>2022-02-13T11:53:57Z</time>
      </trkpt>
      <trkpt lat="48.19676" lon="7.13897">
        <ele>1060.9</ele>
        <time>2022-02-13T11:53:58Z</time>
      </trkpt>
      <trkpt lat="48.19676" lon="7.13897">
        <ele>1060.9</ele>
        <time>2022-02-13T11:53:59Z</time>
      </trkpt>
      <trkpt lat="48.19676" lon="7.13896">
        <ele>1060.9</ele>
        <time>2022-02-13T11:54:05Z</time>
      </trkpt>
      <trkpt lat="48.19676" lon="7.13896">
        <ele>1060.9</ele>
        <time>2022-02-13T11:54:07Z</time>
      </trkpt>
      <trkpt lat="48.19675" lon="7.13896">
        <ele>1060.9</ele>
        <time>2022-02-13T11:55:19Z</time>
      </trkpt>
      <trkpt lat="48.19675" lon="7.13896">
        <ele>1060.9</ele>
        <time>2022-02-13T11:55:20Z</time>
      </trkpt>
      <trkpt lat="48.19675" lon="7.13897">
        <ele>1060.9</ele>
        <time>2022-02-13T11:55:47Z</time>
      </trkpt>
      <trkpt lat="48.19675" lon="7.13897">
        <ele>1060.9</ele>
        <time>2022-02-13T11:55:48Z</time>
      </trkpt>
      <trkpt lat="48.19675" lon="7.13897">
        <ele>1060.9</ele>
        <time>2022-02-13T11:56:17Z</time>
      </trkpt>
      <trkpt lat="48.19675" lon="7.13897">
        <ele>1060.9</ele>
        <time>2022-02-13T11:56:18Z</time>
      </trkpt>
      <trkpt lat="48.19675" lon="7.13897">
        <ele>1060.9</ele>
        <time>2022-02-13T11:56:40Z</time>
      </trkpt>
      <trkpt lat="48.19675" lon="7.13897">
        <ele>1060.9</ele>
        <time>2022-02-13T11:56:41Z</time>
      </trkpt>
      <trkpt lat="48.19675" lon="7.13898">
        <ele>1060.9</ele>
        <time>2022-02-13T11:58:39Z</time>
      </trkpt>
      <trkpt lat="48.19675" lon="7.13898">
        <ele>1060.9</ele>
        <time>2022-02-13T11:58:42Z</time>
      </trkpt>
      <trkpt lat="48.19675" lon="7.13898">
        <ele>1060.9</ele>
        <time>2022-02-13T11:58:51Z</time>
      </trkpt>
      <trkpt lat="48.19675" lon="7.13898">
        <ele>1060.9</ele>
        <time>2022-02-13T11:58:52Z</time>
      </trkpt>
      <trkpt lat="48.19675" lon="7.13898">
        <ele>1060.9</ele>
        <time>2022-02-13T12:00:25Z</time>
      </trkpt>
      <trkpt lat="48.19675" lon="7.13898">
        <ele>1060.9</ele>
        <time>2022-02-13T12:00:26Z</time>
      </trkpt>
      <trkpt lat="48.19675" lon="7.13899">
        <ele>1060.9</ele>
        <time>2022-02-13T12:02:13Z</time>
      </trkpt>
      <trkpt lat="48.19675" lon="7.13899">
        <ele>1060.9</ele>
        <time>2022-02-13T12:02:14Z</time>
      </trkpt>
      <trkpt lat="48.19675" lon="7.13899">
        <ele>1060.9</ele>
        <time>2022-02-13T12:02:15Z</time>
      </trkpt>
      <trkpt lat="48.19675" lon="7.13899">
        <ele>1060.9</ele>
        <time>2022-02-13T12:02:16Z</time>
      </trkpt>
      <trkpt lat="48.19675" lon="7.13899">
        <ele>1060.9</ele>
        <time>2022-02-13T12:05:10Z</time>
      </trkpt>
      <trkpt lat="48.19675" lon="7.13899">
        <ele>1060.9</ele>
        <time>2022-02-13T12:05:11Z</time>
      </trkpt>
      <trkpt lat="48.19675" lon="7.13899">
        <ele>1060.9</ele>
        <time>2022-02-13T12:05:12Z</time>
      </trkpt>
      <trkpt lat="48.19675" lon="7.13899">
        <ele>1060.9</ele>
        <time>2022-02-13T12:05:13Z</time>
      </trkpt>
      <trkpt lat="48.19675" lon="7.13899">
        <ele>1060.9</ele>
        <time>2022-02-13T12:05:18Z</time>
      </trkpt>
      <trkpt lat="48.19675" lon="7.139">
        <ele>1060.9</ele>
        <time>2022-02-13T12:05:21Z</time>
      </trkpt>
      <trkpt lat="48.19676" lon="7.139">
        <ele>1060.9</ele>
        <time>2022-02-13T12:05:23Z</time>
      </trkpt>
      <trkpt lat="48.19675" lon="7.139">
        <ele>1060.9</ele>
        <time>2022-02-13T12:05:25Z</time>
      </trkpt>
      <trkpt lat="48.19676" lon="7.139">
        <ele>1060.9</ele>
        <time>2022-02-13T12:05:31Z</time>
      </trkpt>
      <trkpt lat="48.19676" lon="7.139">
        <ele>1060.9</ele>
        <time>2022-02-13T12:05:32Z</time>
      </trkpt>
      <trkpt lat="48.19676" lon="7.139">
        <ele>1060.9</ele>
        <time>2022-02-13T12:06:08Z</time>
      </trkpt>
      <trkpt lat="48.19676" lon="7.13899">
        <ele>1060.9</ele>
        <time>2022-02-13T12:06:15Z</time>
      </trkpt>
      <trkpt lat="48.19676" lon="7.13899">
        <ele>1060.9</ele>
        <time>2022-02-13T12:06:17Z</time>
      </trkpt>
      <trkpt lat="48.19676" lon="7.13899">
        <ele>1060.9</ele>
        <time>2022-02-13T12:06:19Z</time>
      </trkpt>
      <trkpt lat="48.19675" lon="7.13899">
        <ele>1060.9</ele>
        <time>2022-02-13T12:06:23Z</time>
      </trkpt>
      <trkpt lat="48.19675" lon="7.13899">
        <ele>1060.9</ele>
        <time>2022-02-13T12:06:24Z</time>
      </trkpt>
      <trkpt lat="48.19675" lon="7.13899">
        <ele>1060.9</ele>
        <time>2022-02-13T12:06:35Z</time>
      </trkpt>
      <trkpt lat="48.19675" lon="7.13899">
        <ele>1060.9</ele>
        <time>2022-02-13T12:06:36Z</time>
      </trkpt>
      <trkpt lat="48.19675" lon="7.13899">
        <ele>1060.9</ele>
        <time>2022-02-13T12:06:37Z</time>
      </trkpt>
      <trkpt lat="48.19674" lon="7.139">
        <ele>1060.9</ele>
        <time>2022-02-13T12:06:43Z</time>
      </trkpt>
      <trkpt lat="48.19674" lon="7.13901">
        <ele>1060.9</ele>
        <time>2022-02-13T12:06:44Z</time>
      </trkpt>
      <trkpt lat="48.19674" lon="7.13903">
        <ele>1060.9</ele>
        <time>2022-02-13T12:06:49Z</time>
      </trkpt>
      <trkpt lat="48.19674" lon="7.13903">
        <ele>1060.9</ele>
        <time>2022-02-13T12:06:57Z</time>
      </trkpt>
      <trkpt lat="48.19674" lon="7.13903">
        <ele>1060.9</ele>
        <time>2022-02-13T12:06:58Z</time>
      </trkpt>
      <trkpt lat="48.19673" lon="7.13902">
        <ele>1060.9</ele>
        <time>2022-02-13T12:08:43Z</time>
      </trkpt>
      <trkpt lat="48.19673" lon="7.13903">
        <ele>1060.9</ele>
        <time>2022-02-13T12:08:45Z</time>
      </trkpt>
      <trkpt lat="48.19673" lon="7.13903">
        <ele>1060.9</ele>
        <time>2022-02-13T12:08:47Z</time>
      </trkpt>
      <trkpt lat="48.19673" lon="7.13903">
        <ele>1060.9</ele>
        <time>2022-02-13T12:08:48Z</time>
      </trkpt>
      <trkpt lat="48.19673" lon="7.13902">
        <ele>1060.9</ele>
        <time>2022-02-13T12:08:49Z</time>
      </trkpt>
      <trkpt lat="48.19672" lon="7.13904">
        <ele>1060.9</ele>
        <time>2022-02-13T12:08:56Z</time>
      </trkpt>
      <trkpt lat="48.19672" lon="7.13904">
        <ele>1060.9</ele>
        <time>2022-02-13T12:08:57Z</time>
      </trkpt>
      <trkpt lat="48.19672" lon="7.13904">
        <ele>1060.9</ele>
        <time>2022-02-13T12:08:59Z</time>
      </trkpt>
      <trkpt lat="48.19672" lon="7.13903">
        <ele>1060.9</ele>
        <time>2022-02-13T12:09:00Z</time>
      </trkpt>
      <trkpt lat="48.19672" lon="7.13903">
        <ele>1060.9</ele>
        <time>2022-02-13T12:09:04Z</time>
      </trkpt>
      <trkpt lat="48.19672" lon="7.13902">
        <ele>1060.9</ele>
        <time>2022-02-13T12:09:06Z</time>
      </trkpt>
      <trkpt lat="48.19672" lon="7.13902">
        <ele>1060.9</ele>
        <time>2022-02-13T12:09:07Z</time>
      </trkpt>
      <trkpt lat="48.19672" lon="7.13901">
        <ele>1060.9</ele>
        <time>2022-02-13T12:09:09Z</time>
      </trkpt>
      <trkpt lat="48.19672" lon="7.13901">
        <ele>1060.9</ele>
        <time>2022-02-13T12:09:10Z</time>
      </trkpt>
      <trkpt lat="48.19672" lon="7.13901">
        <ele>1060.9</ele>
        <time>2022-02-13T12:09:53Z</time>
      </trkpt>
      <trkpt lat="48.19674" lon="7.13897">
        <ele>1060.9</ele>
        <time>2022-02-13T12:10:01Z</time>
      </trkpt>
      <trkpt lat="48.19674" lon="7.13896">
        <ele>1060.9</ele>
        <time>2022-02-13T12:10:02Z</time>
      </trkpt>
      <trkpt lat="48.19674" lon="7.13898">
        <ele>1060.9</ele>
        <time>2022-02-13T12:10:07Z</time>
      </trkpt>
      <trkpt lat="48.19674" lon="7.13898">
        <ele>1060.9</ele>
        <time>2022-02-13T12:10:08Z</time>
      </trkpt>
      <trkpt lat="48.19676" lon="7.13896">
        <ele>1060.9</ele>
        <time>2022-02-13T12:10:18Z</time>
      </trkpt>
      <trkpt lat="48.19675" lon="7.13896">
        <ele>1060.9</ele>
        <time>2022-02-13T12:10:19Z</time>
      </trkpt>
      <trkpt lat="48.19675" lon="7.13897">
        <ele>1060.9</ele>
        <time>2022-02-13T12:10:22Z</time>
      </trkpt>
      <trkpt lat="48.19675" lon="7.13897">
        <ele>1060.9</ele>
        <time>2022-02-13T12:10:23Z</time>
      </trkpt>
      <trkpt lat="48.19675" lon="7.13896">
        <ele>1060.9</ele>
        <time>2022-02-13T12:10:27Z</time>
      </trkpt>
      <trkpt lat="48.19676" lon="7.13896">
        <ele>1060.9</ele>
        <time>2022-02-13T12:10:30Z</time>
      </trkpt>
      <trkpt lat="48.19676" lon="7.13896">
        <ele>1060.9</ele>
        <time>2022-02-13T12:10:33Z</time>
      </trkpt>
      <trkpt lat="48.19675" lon="7.13896">
        <ele>1060.9</ele>
        <time>2022-02-13T12:10:34Z</time>
      </trkpt>
      <trkpt lat="48.19676" lon="7.13897">
        <ele>1060.9</ele>
        <time>2022-02-13T12:10:39Z</time>
      </trkpt>
      <trkpt lat="48.19676" lon="7.13897">
        <ele>1060.9</ele>
        <time>2022-02-13T12:10:41Z</time>
      </trkpt>
      <trkpt lat="48.19676" lon="7.13897">
        <ele>1060.9</ele>
        <time>2022-02-13T12:10:42Z</time>
      </trkpt>
      <trkpt lat="48.19676" lon="7.13898">
        <ele>1060.9</ele>
        <time>2022-02-13T12:10:43Z</time>
      </trkpt>
      <trkpt lat="48.19676" lon="7.13897">
        <ele>1060.9</ele>
        <time>2022-02-13T12:10:46Z</time>
      </trkpt>
      <trkpt lat="48.19677" lon="7.13896">
        <ele>1060.9</ele>
        <time>2022-02-13T12:10:48Z</time>
      </trkpt>
      <trkpt lat="48.19677" lon="7.13896">
        <ele>1060.9</ele>
        <time>2022-02-13T12:10:49Z</time>
      </trkpt>
      <trkpt lat="48.19677" lon="7.13897">
        <ele>1060.9</ele>
        <time>2022-02-13T12:10:50Z</time>
      </trkpt>
      <trkpt lat="48.19676" lon="7.13897">
        <ele>1060.9</ele>
        <time>2022-02-13T12:10:52Z</time>
      </trkpt>
      <trkpt lat="48.19676" lon="7.13897">
        <ele>1060.9</ele>
        <time>2022-02-13T12:10:54Z</time>
      </trkpt>
      <trkpt lat="48.19676" lon="7.13897">
        <ele>1060.9</ele>
        <time>2022-02-13T12:10:55Z</time>
      </trkpt>
      <trkpt lat="48.19677" lon="7.13897">
        <ele>1060.9</ele>
        <time>2022-02-13T12:10:56Z</time>
      </trkpt>
      <trkpt lat="48.19677" lon="7.13897">
        <ele>1060.9</ele>
        <time>2022-02-13T12:10:58Z</time>
      </trkpt>
      <trkpt lat="48.19677" lon="7.13897">
        <ele>1060.9</ele>
        <time>2022-02-13T12:11:00Z</time>
      </trkpt>
      <trkpt lat="48.19677" lon="7.13896">
        <ele>1060.9</ele>
        <time>2022-02-13T12:11:03Z</time>
      </trkpt>
      <trkpt lat="48.19677" lon="7.13896">
        <ele>1060.9</ele>
        <time>2022-02-13T12:11:05Z</time>
      </trkpt>
      <trkpt lat="48.19677" lon="7.13896">
        <ele>1060.9</ele>
        <time>2022-02-13T12:11:06Z</time>
      </trkpt>
      <trkpt lat="48.19677" lon="7.13896">
        <ele>1060.9</ele>
        <time>2022-02-13T12:11:07Z</time>
      </trkpt>
      <trkpt lat="48.19677" lon="7.13896">
        <ele>1060.9</ele>
        <time>2022-02-13T12:11:08Z</time>
      </trkpt>
      <trkpt lat="48.19676" lon="7.13897">
        <ele>1060.9</ele>
        <time>2022-02-13T12:11:11Z</time>
      </trkpt>
      <trkpt lat="48.19676" lon="7.13897">
        <ele>1060.9</ele>
        <time>2022-02-13T12:11:12Z</time>
      </trkpt>
      <trkpt lat="48.19676" lon="7.13897">
        <ele>1060.9</ele>
        <time>2022-02-13T12:11:14Z</time>
      </trkpt>
      <trkpt lat="48.19676" lon="7.13897">
        <ele>1060.9</ele>
        <time>2022-02-13T12:11:15Z</time>
      </trkpt>
      <trkpt lat="48.19676" lon="7.13897">
        <ele>1060.9</ele>
        <time>2022-02-13T12:11:17Z</time>
      </trkpt>
      <trkpt lat="48.19676" lon="7.13897">
        <ele>1060.9</ele>
        <time>2022-02-13T12:11:18Z</time>
      </trkpt>
      <trkpt lat="48.19676" lon="7.13897">
        <ele>1060.9</ele>
        <time>2022-02-13T12:11:19Z</time>
      </trkpt>
      <trkpt lat="48.19676" lon="7.13896">
        <ele>1060.9</ele>
        <time>2022-02-13T12:11:20Z</time>
      </trkpt>
      <trkpt lat="48.19676" lon="7.13896">
        <ele>1060.9</ele>
        <time>2022-02-13T12:11:21Z</time>
      </trkpt>
      <trkpt lat="48.19676" lon="7.13896">
        <ele>1060.9</ele>
        <time>2022-02-13T12:11:22Z</time>
      </trkpt>
      <trkpt lat="48.19676" lon="7.13896">
        <ele>1060.9</ele>
        <time>2022-02-13T12:11:25Z</time>
      </trkpt>
      <trkpt lat="48.19676" lon="7.13896">
        <ele>1060.9</ele>
        <time>2022-02-13T12:11:26Z</time>
      </trkpt>
      <trkpt lat="48.19676" lon="7.13896">
        <ele>1060.9</ele>
        <time>2022-02-13T12:11:38Z</time>
      </trkpt>
      <trkpt lat="48.19676" lon="7.13895">
        <ele>1060.9</ele>
        <time>2022-02-13T12:11:41Z</time>
      </trkpt>
      <trkpt lat="48.19676" lon="7.13896">
        <ele>1060.9</ele>
        <time>2022-02-13T12:11:42Z</time>
      </trkpt>
      <trkpt lat="48.19675" lon="7.13896">
        <ele>1060.9</ele>
        <time>2022-02-13T12:11:46Z</time>
      </trkpt>
      <trkpt lat="48.19675" lon="7.13897">
        <ele>1060.9</ele>
        <time>2022-02-13T12:11:48Z</time>
      </trkpt>
      <trkpt lat="48.19675" lon="7.13897">
        <ele>1060.9</ele>
        <time>2022-02-13T12:11:49Z</time>
      </trkpt>
      <trkpt lat="48.19675" lon="7.13896">
        <ele>1060.9</ele>
        <time>2022-02-13T12:11:51Z</time>
      </trkpt>
      <trkpt lat="48.19675" lon="7.13896">
        <ele>1060.9</ele>
        <time>2022-02-13T12:11:52Z</time>
      </trkpt>
      <trkpt lat="48.19675" lon="7.13896">
        <ele>1060.9</ele>
        <time>2022-02-13T12:11:54Z</time>
      </trkpt>
      <trkpt lat="48.19675" lon="7.13897">
        <ele>1060.9</ele>
        <time>2022-02-13T12:11:55Z</time>
      </trkpt>
      <trkpt lat="48.19675" lon="7.13897">
        <ele>1060.9</ele>
        <time>2022-02-13T12:11:56Z</time>
      </trkpt>
      <trkpt lat="48.19675" lon="7.13897">
        <ele>1060.9</ele>
        <time>2022-02-13T12:11:57Z</time>
      </trkpt>
      <trkpt lat="48.19675" lon="7.13897">
        <ele>1060.9</ele>
        <time>2022-02-13T12:12:12Z</time>
      </trkpt>
      <trkpt lat="48.19675" lon="7.13897">
        <ele>1060.9</ele>
        <time>2022-02-13T12:12:13Z</time>
      </trkpt>
      <trkpt lat="48.19674" lon="7.13897">
        <ele>1060.9</ele>
        <time>2022-02-13T12:12:14Z</time>
      </trkpt>
      <trkpt lat="48.19674" lon="7.13896">
        <ele>1060.9</ele>
        <time>2022-02-13T12:12:16Z</time>
      </trkpt>
      <trkpt lat="48.19674" lon="7.13896">
        <ele>1060.9</ele>
        <time>2022-02-13T12:12:20Z</time>
      </trkpt>
      <trkpt lat="48.19674" lon="7.13896">
        <ele>1060.9</ele>
        <time>2022-02-13T12:12:21Z</time>
      </trkpt>
      <trkpt lat="48.19674" lon="7.13897">
        <ele>1060.9</ele>
        <time>2022-02-13T12:13:17Z</time>
      </trkpt>
      <trkpt lat="48.19675" lon="7.13896">
        <ele>1061</ele>
        <time>2022-02-13T12:13:21Z</time>
      </trkpt>
      <trkpt lat="48.19675" lon="7.13896">
        <ele>1061</ele>
        <time>2022-02-13T12:13:23Z</time>
      </trkpt>
      <trkpt lat="48.19675" lon="7.13896">
        <ele>1061</ele>
        <time>2022-02-13T12:13:31Z</time>
      </trkpt>
      <trkpt lat="48.19675" lon="7.13896">
        <ele>1061</ele>
        <time>2022-02-13T12:13:32Z</time>
      </trkpt>
      <trkpt lat="48.19675" lon="7.13896">
        <ele>1061</ele>
        <time>2022-02-13T12:13:33Z</time>
      </trkpt>
      <trkpt lat="48.19675" lon="7.13896">
        <ele>1061</ele>
        <time>2022-02-13T12:13:35Z</time>
      </trkpt>
      <trkpt lat="48.19675" lon="7.13894">
        <ele>1061</ele>
        <time>2022-02-13T12:13:41Z</time>
      </trkpt>
      <trkpt lat="48.19675" lon="7.13894">
        <ele>1061</ele>
        <time>2022-02-13T12:13:52Z</time>
      </trkpt>
      <trkpt lat="48.19675" lon="7.13892">
        <ele>1061</ele>
        <time>2022-02-13T12:13:56Z</time>
      </trkpt>
      <trkpt lat="48.19675" lon="7.13892">
        <ele>1061</ele>
        <time>2022-02-13T12:13:57Z</time>
      </trkpt>
      <trkpt lat="48.19674" lon="7.13892">
        <ele>1061</ele>
        <time>2022-02-13T12:13:59Z</time>
      </trkpt>
      <trkpt lat="48.19674" lon="7.13892">
        <ele>1061</ele>
        <time>2022-02-13T12:14:09Z</time>
      </trkpt>
      <trkpt lat="48.19674" lon="7.13892">
        <ele>1061</ele>
        <time>2022-02-13T12:14:10Z</time>
      </trkpt>
      <trkpt lat="48.19674" lon="7.13892">
        <ele>1061</ele>
        <time>2022-02-13T12:14:25Z</time>
      </trkpt>
      <trkpt lat="48.19674" lon="7.13892">
        <ele>1061</ele>
        <time>2022-02-13T12:14:27Z</time>
      </trkpt>
      <trkpt lat="48.19674" lon="7.13892">
        <ele>1061</ele>
        <time>2022-02-13T12:14:38Z</time>
      </trkpt>
      <trkpt lat="48.19674" lon="7.13892">
        <ele>1061</ele>
        <time>2022-02-13T12:14:39Z</time>
      </trkpt>
      <trkpt lat="48.19674" lon="7.13892">
        <ele>1061</ele>
        <time>2022-02-13T12:14:42Z</time>
      </trkpt>
      <trkpt lat="48.19674" lon="7.13891">
        <ele>1061</ele>
        <time>2022-02-13T12:14:44Z</time>
      </trkpt>
      <trkpt lat="48.19673" lon="7.13891">
        <ele>1061</ele>
        <time>2022-02-13T12:14:45Z</time>
      </trkpt>
      <trkpt lat="48.19674" lon="7.13891">
        <ele>1061</ele>
        <time>2022-02-13T12:14:47Z</time>
      </trkpt>
      <trkpt lat="48.19673" lon="7.13891">
        <ele>1061</ele>
        <time>2022-02-13T12:15:03Z</time>
      </trkpt>
      <trkpt lat="48.19673" lon="7.13891">
        <ele>1061</ele>
        <time>2022-02-13T12:15:04Z</time>
      </trkpt>
      <trkpt lat="48.19674" lon="7.13891">
        <ele>1061</ele>
        <time>2022-02-13T12:15:05Z</time>
      </trkpt>
      <trkpt lat="48.19674" lon="7.13891">
        <ele>1061</ele>
        <time>2022-02-13T12:15:06Z</time>
      </trkpt>
      <trkpt lat="48.19674" lon="7.13891">
        <ele>1061</ele>
        <time>2022-02-13T12:15:07Z</time>
      </trkpt>
      <trkpt lat="48.19674" lon="7.13891">
        <ele>1061</ele>
        <time>2022-02-13T12:15:08Z</time>
      </trkpt>
      <trkpt lat="48.19674" lon="7.13891">
        <ele>1061</ele>
        <time>2022-02-13T12:15:09Z</time>
      </trkpt>
      <trkpt lat="48.19673" lon="7.13891">
        <ele>1061</ele>
        <time>2022-02-13T12:15:11Z</time>
      </trkpt>
      <trkpt lat="48.19673" lon="7.13891">
        <ele>1061</ele>
        <time>2022-02-13T12:15:16Z</time>
      </trkpt>
      <trkpt lat="48.19673" lon="7.13892">
        <ele>1061</ele>
        <time>2022-02-13T12:15:18Z</time>
      </trkpt>
      <trkpt lat="48.19673" lon="7.13892">
        <ele>1061</ele>
        <time>2022-02-13T12:16:04Z</time>
      </trkpt>
      <trkpt lat="48.19673" lon="7.13892">
        <ele>1061</ele>
        <time>2022-02-13T12:16:05Z</time>
      </trkpt>
      <trkpt lat="48.19673" lon="7.13892">
        <ele>1061</ele>
        <time>2022-02-13T12:16:08Z</time>
      </trkpt>
      <trkpt lat="48.19674" lon="7.13898">
        <ele>1061</ele>
        <time>2022-02-13T12:16:15Z</time>
      </trkpt>
      <trkpt lat="48.19674" lon="7.13898">
        <ele>1061</ele>
        <time>2022-02-13T12:16:26Z</time>
      </trkpt>
      <trkpt lat="48.19674" lon="7.13898">
        <ele>1061</ele>
        <time>2022-02-13T12:16:27Z</time>
      </trkpt>
      <trkpt lat="48.19674" lon="7.13898">
        <ele>1061</ele>
        <time>2022-02-13T12:18:43Z</time>
      </trkpt>
      <trkpt lat="48.19674" lon="7.13898">
        <ele>1061</ele>
        <time>2022-02-13T12:18:44Z</time>
      </trkpt>
      <trkpt lat="48.19675" lon="7.13898">
        <ele>1061</ele>
        <time>2022-02-13T12:20:05Z</time>
      </trkpt>
      <trkpt lat="48.19675" lon="7.13898">
        <ele>1061</ele>
        <time>2022-02-13T12:20:06Z</time>
      </trkpt>
      <trkpt lat="48.19675" lon="7.13898">
        <ele>1061</ele>
        <time>2022-02-13T12:20:44Z</time>
      </trkpt>
      <trkpt lat="48.19675" lon="7.13898">
        <ele>1061</ele>
        <time>2022-02-13T12:20:45Z</time>
      </trkpt>
      <trkpt lat="48.19675" lon="7.13899">
        <ele>1061</ele>
        <time>2022-02-13T12:23:19Z</time>
      </trkpt>
      <trkpt lat="48.19676" lon="7.13897">
        <ele>1061</ele>
        <time>2022-02-13T12:23:25Z</time>
      </trkpt>
      <trkpt lat="48.19676" lon="7.13897">
        <ele>1061</ele>
        <time>2022-02-13T12:23:28Z</time>
      </trkpt>
      <trkpt lat="48.19677" lon="7.13898">
        <ele>1061</ele>
        <time>2022-02-13T12:23:36Z</time>
      </trkpt>
      <trkpt lat="48.19677" lon="7.13898">
        <ele>1061</ele>
        <time>2022-02-13T12:24:29Z</time>
      </trkpt>
      <trkpt lat="48.19677" lon="7.13898">
        <ele>1061</ele>
        <time>2022-02-13T12:24:30Z</time>
      </trkpt>
      <trkpt lat="48.19676" lon="7.13898">
        <ele>1061</ele>
        <time>2022-02-13T12:24:42Z</time>
      </trkpt>
      <trkpt lat="48.19676" lon="7.13898">
        <ele>1061</ele>
        <time>2022-02-13T12:24:43Z</time>
      </trkpt>
      <trkpt lat="48.19676" lon="7.13898">
        <ele>1061</ele>
        <time>2022-02-13T12:24:51Z</time>
      </trkpt>
      <trkpt lat="48.19676" lon="7.13898">
        <ele>1061</ele>
        <time>2022-02-13T12:24:52Z</time>
      </trkpt>
      <trkpt lat="48.19676" lon="7.13898">
        <ele>1061</ele>
        <time>2022-02-13T12:24:53Z</time>
      </trkpt>
      <trkpt lat="48.19675" lon="7.13898">
        <ele>1061</ele>
        <time>2022-02-13T12:24:57Z</time>
      </trkpt>
      <trkpt lat="48.19675" lon="7.13897">
        <ele>1061</ele>
        <time>2022-02-13T12:25:00Z</time>
      </trkpt>
      <trkpt lat="48.19675" lon="7.13897">
        <ele>1061</ele>
        <time>2022-02-13T12:25:02Z</time>
      </trkpt>
      <trkpt lat="48.19675" lon="7.13898">
        <ele>1061</ele>
        <time>2022-02-13T12:25:05Z</time>
      </trkpt>
      <trkpt lat="48.19675" lon="7.13898">
        <ele>1061</ele>
        <time>2022-02-13T12:25:07Z</time>
      </trkpt>
      <trkpt lat="48.19675" lon="7.13898">
        <ele>1061</ele>
        <time>2022-02-13T12:25:10Z</time>
      </trkpt>
      <trkpt lat="48.19675" lon="7.13898">
        <ele>1061</ele>
        <time>2022-02-13T12:25:11Z</time>
      </trkpt>
      <trkpt lat="48.19674" lon="7.13898">
        <ele>1061</ele>
        <time>2022-02-13T12:25:12Z</time>
      </trkpt>
      <trkpt lat="48.19674" lon="7.13898">
        <ele>1061</ele>
        <time>2022-02-13T12:25:13Z</time>
      </trkpt>
      <trkpt lat="48.19674" lon="7.13898">
        <ele>1061</ele>
        <time>2022-02-13T12:25:14Z</time>
      </trkpt>
      <trkpt lat="48.19674" lon="7.13899">
        <ele>1061</ele>
        <time>2022-02-13T12:25:16Z</time>
      </trkpt>
      <trkpt lat="48.19674" lon="7.13899">
        <ele>1061</ele>
        <time>2022-02-13T12:25:22Z</time>
      </trkpt>
      <trkpt lat="48.19674" lon="7.13898">
        <ele>1061</ele>
        <time>2022-02-13T12:25:23Z</time>
      </trkpt>
      <trkpt lat="48.19674" lon="7.13898">
        <ele>1061</ele>
        <time>2022-02-13T12:25:25Z</time>
      </trkpt>
      <trkpt lat="48.19675" lon="7.13898">
        <ele>1061</ele>
        <time>2022-02-13T12:25:28Z</time>
      </trkpt>
      <trkpt lat="48.19675" lon="7.13897">
        <ele>1061</ele>
        <time>2022-02-13T12:25:31Z</time>
      </trkpt>
      <trkpt lat="48.19675" lon="7.13897">
        <ele>1061</ele>
        <time>2022-02-13T12:25:33Z</time>
      </trkpt>
      <trkpt lat="48.19675" lon="7.13897">
        <ele>1061</ele>
        <time>2022-02-13T12:25:34Z</time>
      </trkpt>
      <trkpt lat="48.19675" lon="7.13897">
        <ele>1061</ele>
        <time>2022-02-13T12:25:35Z</time>
      </trkpt>
      <trkpt lat="48.19675" lon="7.13897">
        <ele>1061</ele>
        <time>2022-02-13T12:25:38Z</time>
      </trkpt>
      <trkpt lat="48.19675" lon="7.13897">
        <ele>1061</ele>
        <time>2022-02-13T12:25:40Z</time>
      </trkpt>
      <trkpt lat="48.19676" lon="7.13897">
        <ele>1061</ele>
        <time>2022-02-13T12:25:41Z</time>
      </trkpt>
      <trkpt lat="48.19676" lon="7.13896">
        <ele>1061</ele>
        <time>2022-02-13T12:25:42Z</time>
      </trkpt>
      <trkpt lat="48.19675" lon="7.13896">
        <ele>1061</ele>
        <time>2022-02-13T12:25:44Z</time>
      </trkpt>
      <trkpt lat="48.19676" lon="7.13897">
        <ele>1061</ele>
        <time>2022-02-13T12:25:49Z</time>
      </trkpt>
      <trkpt lat="48.19676" lon="7.13897">
        <ele>1061</ele>
        <time>2022-02-13T12:26:03Z</time>
      </trkpt>
      <trkpt lat="48.19676" lon="7.13898">
        <ele>1061</ele>
        <time>2022-02-13T12:26:06Z</time>
      </trkpt>
      <trkpt lat="48.19676" lon="7.13898">
        <ele>1061</ele>
        <time>2022-02-13T12:26:08Z</time>
      </trkpt>
      <trkpt lat="48.19675" lon="7.13893">
        <ele>1061</ele>
        <time>2022-02-13T12:26:16Z</time>
      </trkpt>
      <trkpt lat="48.19675" lon="7.13892">
        <ele>1061</ele>
        <time>2022-02-13T12:26:17Z</time>
      </trkpt>
      <trkpt lat="48.19675" lon="7.13892">
        <ele>1061</ele>
        <time>2022-02-13T12:26:18Z</time>
      </trkpt>
      <trkpt lat="48.19675" lon="7.13892">
        <ele>1061</ele>
        <time>2022-02-13T12:26:19Z</time>
      </trkpt>
      <trkpt lat="48.19674" lon="7.13894">
        <ele>1061</ele>
        <time>2022-02-13T12:26:24Z</time>
      </trkpt>
      <trkpt lat="48.19674" lon="7.13894">
        <ele>1061</ele>
        <time>2022-02-13T12:26:25Z</time>
      </trkpt>
      <trkpt lat="48.19674" lon="7.13894">
        <ele>1061</ele>
        <time>2022-02-13T12:26:28Z</time>
      </trkpt>
      <trkpt lat="48.19674" lon="7.13893">
        <ele>1061</ele>
        <time>2022-02-13T12:26:29Z</time>
      </trkpt>
      <trkpt lat="48.19674" lon="7.13893">
        <ele>1061</ele>
        <time>2022-02-13T12:26:33Z</time>
      </trkpt>
      <trkpt lat="48.19674" lon="7.13893">
        <ele>1061</ele>
        <time>2022-02-13T12:26:35Z</time>
      </trkpt>
      <trkpt lat="48.19673" lon="7.13893">
        <ele>1061</ele>
        <time>2022-02-13T12:26:41Z</time>
      </trkpt>
      <trkpt lat="48.19673" lon="7.13893">
        <ele>1061</ele>
        <time>2022-02-13T12:26:45Z</time>
      </trkpt>
      <trkpt lat="48.19673" lon="7.13893">
        <ele>1061</ele>
        <time>2022-02-13T12:26:49Z</time>
      </trkpt>
      <trkpt lat="48.19673" lon="7.13893">
        <ele>1061</ele>
        <time>2022-02-13T12:27:19Z</time>
      </trkpt>
      <trkpt lat="48.19673" lon="7.13892">
        <ele>1061</ele>
        <time>2022-02-13T12:27:21Z</time>
      </trkpt>
      <trkpt lat="48.19673" lon="7.13892">
        <ele>1061</ele>
        <time>2022-02-13T12:27:26Z</time>
      </trkpt>
      <trkpt lat="48.19673" lon="7.13892">
        <ele>1061</ele>
        <time>2022-02-13T12:27:27Z</time>
      </trkpt>
      <trkpt lat="48.19674" lon="7.13892">
        <ele>1061</ele>
        <time>2022-02-13T12:27:33Z</time>
      </trkpt>
      <trkpt lat="48.19674" lon="7.13892">
        <ele>1061</ele>
        <time>2022-02-13T12:27:34Z</time>
      </trkpt>
      <trkpt lat="48.19674" lon="7.13892">
        <ele>1061</ele>
        <time>2022-02-13T12:27:53Z</time>
      </trkpt>
      <trkpt lat="48.19674" lon="7.13892">
        <ele>1061</ele>
        <time>2022-02-13T12:27:54Z</time>
      </trkpt>
      <trkpt lat="48.19674" lon="7.13892">
        <ele>1061</ele>
        <time>2022-02-13T12:28:30Z</time>
      </trkpt>
      <trkpt lat="48.19674" lon="7.13892">
        <ele>1061</ele>
        <time>2022-02-13T12:28:31Z</time>
      </trkpt>
      <trkpt lat="48.19674" lon="7.13892">
        <ele>1061</ele>
        <time>2022-02-13T12:28:34Z</time>
      </trkpt>
      <trkpt lat="48.19674" lon="7.13892">
        <ele>1061</ele>
        <time>2022-02-13T12:28:35Z</time>
      </trkpt>
      <trkpt lat="48.19674" lon="7.13892">
        <ele>1061</ele>
        <time>2022-02-13T12:28:37Z</time>
      </trkpt>
      <trkpt lat="48.1967" lon="7.13906">
        <ele>1061</ele>
        <time>2022-02-13T12:28:50Z</time>
      </trkpt>
      <trkpt lat="48.19664" lon="7.13918">
        <ele>1061.8</ele>
        <time>2022-02-13T12:29:02Z</time>
      </trkpt>
      <trkpt lat="48.19656" lon="7.13926">
        <ele>1062.5</ele>
        <time>2022-02-13T12:29:11Z</time>
      </trkpt>
      <trkpt lat="48.19649" lon="7.13934">
        <ele>1063.2</ele>
        <time>2022-02-13T12:29:20Z</time>
      </trkpt>
      <trkpt lat="48.19641" lon="7.13942">
        <ele>1064.1</ele>
        <time>2022-02-13T12:29:30Z</time>
      </trkpt>
      <trkpt lat="48.19633" lon="7.13948">
        <ele>1064.9</ele>
        <time>2022-02-13T12:29:40Z</time>
      </trkpt>
      <trkpt lat="48.19625" lon="7.13955">
        <ele>1065.8</ele>
        <time>2022-02-13T12:29:51Z</time>
      </trkpt>
      <trkpt lat="48.19616" lon="7.1396">
        <ele>1066.1</ele>
        <time>2022-02-13T12:30:02Z</time>
      </trkpt>
      <trkpt lat="48.19611" lon="7.13971">
        <ele>1066.1</ele>
        <time>2022-02-13T12:30:15Z</time>
      </trkpt>
      <trkpt lat="48.19609" lon="7.13985">
        <ele>1066</ele>
        <time>2022-02-13T12:30:26Z</time>
      </trkpt>
      <trkpt lat="48.19606" lon="7.13999">
        <ele>1065.8</ele>
        <time>2022-02-13T12:30:36Z</time>
      </trkpt>
      <trkpt lat="48.19604" lon="7.14012">
        <ele>1065.6</ele>
        <time>2022-02-13T12:30:47Z</time>
      </trkpt>
      <trkpt lat="48.19607" lon="7.14026">
        <ele>1065.3</ele>
        <time>2022-02-13T12:30:58Z</time>
      </trkpt>
      <trkpt lat="48.19607" lon="7.1404">
        <ele>1065.1</ele>
        <time>2022-02-13T12:31:08Z</time>
      </trkpt>
      <trkpt lat="48.19607" lon="7.1405">
        <ele>1064.9</ele>
        <time>2022-02-13T12:31:26Z</time>
      </trkpt>
      <trkpt lat="48.19607" lon="7.1405">
        <ele>1064.9</ele>
        <time>2022-02-13T12:31:42Z</time>
      </trkpt>
      <trkpt lat="48.19608" lon="7.14056">
        <ele>1064.9</ele>
        <time>2022-02-13T12:31:52Z</time>
      </trkpt>
      <trkpt lat="48.19608" lon="7.14056">
        <ele>1064.9</ele>
        <time>2022-02-13T12:32:01Z</time>
      </trkpt>
      <trkpt lat="48.1961" lon="7.1407">
        <ele>1064.8</ele>
        <time>2022-02-13T12:32:14Z</time>
      </trkpt>
      <trkpt lat="48.19611" lon="7.14072">
        <ele>1064.7</ele>
        <time>2022-02-13T12:32:19Z</time>
      </trkpt>
      <trkpt lat="48.19611" lon="7.14072">
        <ele>1064.7</ele>
        <time>2022-02-13T12:32:28Z</time>
      </trkpt>
      <trkpt lat="48.19611" lon="7.14072">
        <ele>1064.7</ele>
        <time>2022-02-13T12:32:29Z</time>
      </trkpt>
      <trkpt lat="48.19611" lon="7.14072">
        <ele>1064.7</ele>
        <time>2022-02-13T12:32:30Z</time>
      </trkpt>
      <trkpt lat="48.19611" lon="7.14072">
        <ele>1064.7</ele>
        <time>2022-02-13T12:32:34Z</time>
      </trkpt>
      <trkpt lat="48.19611" lon="7.14072">
        <ele>1064.7</ele>
        <time>2022-02-13T12:32:37Z</time>
      </trkpt>
      <trkpt lat="48.19613" lon="7.14086">
        <ele>1064.7</ele>
        <time>2022-02-13T12:32:46Z</time>
      </trkpt>
      <trkpt lat="48.19616" lon="7.141">
        <ele>1064.6</ele>
        <time>2022-02-13T12:32:56Z</time>
      </trkpt>
      <trkpt lat="48.19618" lon="7.14114">
        <ele>1064.5</ele>
        <time>2022-02-13T12:33:05Z</time>
      </trkpt>
      <trkpt lat="48.19621" lon="7.14128">
        <ele>1064.3</ele>
        <time>2022-02-13T12:33:15Z</time>
      </trkpt>
      <trkpt lat="48.19624" lon="7.14143">
        <ele>1064.2</ele>
        <time>2022-02-13T12:33:24Z</time>
      </trkpt>
      <trkpt lat="48.19627" lon="7.14156">
        <ele>1064</ele>
        <time>2022-02-13T12:33:32Z</time>
      </trkpt>
      <trkpt lat="48.19629" lon="7.1417">
        <ele>1063.8</ele>
        <time>2022-02-13T12:33:41Z</time>
      </trkpt>
      <trkpt lat="48.19632" lon="7.14184">
        <ele>1063.7</ele>
        <time>2022-02-13T12:33:51Z</time>
      </trkpt>
      <trkpt lat="48.19636" lon="7.14197">
        <ele>1063.6</ele>
        <time>2022-02-13T12:34:00Z</time>
      </trkpt>
      <trkpt lat="48.19639" lon="7.14211">
        <ele>1063.6</ele>
        <time>2022-02-13T12:34:09Z</time>
      </trkpt>
      <trkpt lat="48.19642" lon="7.14226">
        <ele>1063.5</ele>
        <time>2022-02-13T12:34:20Z</time>
      </trkpt>
      <trkpt lat="48.19645" lon="7.14239">
        <ele>1063.4</ele>
        <time>2022-02-13T12:34:30Z</time>
      </trkpt>
      <trkpt lat="48.19648" lon="7.14253">
        <ele>1063.3</ele>
        <time>2022-02-13T12:34:41Z</time>
      </trkpt>
      <trkpt lat="48.19651" lon="7.14267">
        <ele>1063.2</ele>
        <time>2022-02-13T12:34:52Z</time>
      </trkpt>
      <trkpt lat="48.19654" lon="7.1428">
        <ele>1063.1</ele>
        <time>2022-02-13T12:35:01Z</time>
      </trkpt>
      <trkpt lat="48.19658" lon="7.14293">
        <ele>1062.9</ele>
        <time>2022-02-13T12:35:11Z</time>
      </trkpt>
      <trkpt lat="48.1966" lon="7.14308">
        <ele>1062.6</ele>
        <time>2022-02-13T12:35:20Z</time>
      </trkpt>
      <trkpt lat="48.19663" lon="7.14321">
        <ele>1062.2</ele>
        <time>2022-02-13T12:35:27Z</time>
      </trkpt>
      <trkpt lat="48.19667" lon="7.14335">
        <ele>1061.7</ele>
        <time>2022-02-13T12:35:35Z</time>
      </trkpt>
      <trkpt lat="48.19669" lon="7.14348">
        <ele>1061.1</ele>
        <time>2022-02-13T12:35:43Z</time>
      </trkpt>
      <trkpt lat="48.19672" lon="7.14362">
        <ele>1060.5</ele>
        <time>2022-02-13T12:35:51Z</time>
      </trkpt>
      <trkpt lat="48.19674" lon="7.14375">
        <ele>1059.9</ele>
        <time>2022-02-13T12:35:59Z</time>
      </trkpt>
      <trkpt lat="48.19677" lon="7.1439">
        <ele>1059.5</ele>
        <time>2022-02-13T12:36:07Z</time>
      </trkpt>
      <trkpt lat="48.19678" lon="7.14405">
        <ele>1059</ele>
        <time>2022-02-13T12:36:15Z</time>
      </trkpt>
      <trkpt lat="48.19681" lon="7.14419">
        <ele>1058.8</ele>
        <time>2022-02-13T12:36:23Z</time>
      </trkpt>
      <trkpt lat="48.19685" lon="7.14433">
        <ele>1058.6</ele>
        <time>2022-02-13T12:36:31Z</time>
      </trkpt>
      <trkpt lat="48.1969" lon="7.14444">
        <ele>1055.3</ele>
        <time>2022-02-13T12:36:38Z</time>
      </trkpt>
      <trkpt lat="48.19696" lon="7.14454">
        <ele>1051.7</ele>
        <time>2022-02-13T12:36:45Z</time>
      </trkpt>
      <trkpt lat="48.19702" lon="7.14466">
        <ele>1047.8</ele>
        <time>2022-02-13T12:36:53Z</time>
      </trkpt>
      <trkpt lat="48.19709" lon="7.14476">
        <ele>1045.3</ele>
        <time>2022-02-13T12:37:00Z</time>
      </trkpt>
      <trkpt lat="48.19715" lon="7.14487">
        <ele>1045.6</ele>
        <time>2022-02-13T12:37:07Z</time>
      </trkpt>
      <trkpt lat="48.19723" lon="7.14496">
        <ele>1046</ele>
        <time>2022-02-13T12:37:16Z</time>
      </trkpt>
      <trkpt lat="48.19731" lon="7.14506">
        <ele>1046.2</ele>
        <time>2022-02-13T12:37:24Z</time>
      </trkpt>
      <trkpt lat="48.19737" lon="7.14517">
        <ele>1046.3</ele>
        <time>2022-02-13T12:37:33Z</time>
      </trkpt>
      <trkpt lat="48.19743" lon="7.14529">
        <ele>1046.1</ele>
        <time>2022-02-13T12:37:42Z</time>
      </trkpt>
      <trkpt lat="48.1975" lon="7.14538">
        <ele>1045.7</ele>
        <time>2022-02-13T12:37:51Z</time>
      </trkpt>
      <trkpt lat="48.19759" lon="7.14544">
        <ele>1045</ele>
        <time>2022-02-13T12:38:00Z</time>
      </trkpt>
      <trkpt lat="48.19767" lon="7.1455">
        <ele>1043.9</ele>
        <time>2022-02-13T12:38:09Z</time>
      </trkpt>
      <trkpt lat="48.19775" lon="7.14558">
        <ele>1042.3</ele>
        <time>2022-02-13T12:38:20Z</time>
      </trkpt>
      <trkpt lat="48.19783" lon="7.14565">
        <ele>1040.8</ele>
        <time>2022-02-13T12:38:28Z</time>
      </trkpt>
      <trkpt lat="48.19792" lon="7.14569">
        <ele>1039.3</ele>
        <time>2022-02-13T12:38:38Z</time>
      </trkpt>
      <trkpt lat="48.19801" lon="7.14572">
        <ele>1037.5</ele>
        <time>2022-02-13T12:38:53Z</time>
      </trkpt>
      <trkpt lat="48.19809" lon="7.14579">
        <ele>1035.3</ele>
        <time>2022-02-13T12:39:01Z</time>
      </trkpt>
      <trkpt lat="48.19812" lon="7.14581">
        <ele>1034.5</ele>
        <time>2022-02-13T12:39:10Z</time>
      </trkpt>
      <trkpt lat="48.19813" lon="7.1458">
        <ele>1034.4</ele>
        <time>2022-02-13T12:39:12Z</time>
      </trkpt>
      <trkpt lat="48.1982" lon="7.14588">
        <ele>1032.2</ele>
        <time>2022-02-13T12:39:27Z</time>
      </trkpt>
      <trkpt lat="48.19829" lon="7.14594">
        <ele>1029.8</ele>
        <time>2022-02-13T12:39:39Z</time>
      </trkpt>
      <trkpt lat="48.19837" lon="7.14598">
        <ele>1027</ele>
        <time>2022-02-13T12:39:50Z</time>
      </trkpt>
      <trkpt lat="48.19843" lon="7.14599">
        <ele>1025.3</ele>
        <time>2022-02-13T12:40:00Z</time>
      </trkpt>
      <trkpt lat="48.19843" lon="7.14599">
        <ele>1025.2</ele>
        <time>2022-02-13T12:40:01Z</time>
      </trkpt>
      <trkpt lat="48.19843" lon="7.14599">
        <ele>1025.2</ele>
        <time>2022-02-13T12:40:02Z</time>
      </trkpt>
      <trkpt lat="48.19843" lon="7.146">
        <ele>1025.1</ele>
        <time>2022-02-13T12:40:03Z</time>
      </trkpt>
      <trkpt lat="48.19852" lon="7.14605">
        <ele>1022.1</ele>
        <time>2022-02-13T12:40:13Z</time>
      </trkpt>
      <trkpt lat="48.19862" lon="7.14603">
        <ele>1018.6</ele>
        <time>2022-02-13T12:40:24Z</time>
      </trkpt>
      <trkpt lat="48.19871" lon="7.14605">
        <ele>1015</ele>
        <time>2022-02-13T12:40:35Z</time>
      </trkpt>
      <trkpt lat="48.19872" lon="7.14605">
        <ele>1014.8</ele>
        <time>2022-02-13T12:40:37Z</time>
      </trkpt>
      <trkpt lat="48.19873" lon="7.14605">
        <ele>1014.6</ele>
        <time>2022-02-13T12:40:38Z</time>
      </trkpt>
      <trkpt lat="48.19883" lon="7.14607">
        <ele>1010.8</ele>
        <time>2022-02-13T12:40:50Z</time>
      </trkpt>
      <trkpt lat="48.1989" lon="7.14617">
        <ele>1007.6</ele>
        <time>2022-02-13T12:40:55Z</time>
      </trkpt>
      <trkpt lat="48.19894" lon="7.14621">
        <ele>1006.2</ele>
        <time>2022-02-13T12:41:03Z</time>
      </trkpt>
      <trkpt lat="48.19894" lon="7.14621">
        <ele>1006.1</ele>
        <time>2022-02-13T12:41:04Z</time>
      </trkpt>
      <trkpt lat="48.19903" lon="7.14626">
        <ele>1003.6</ele>
        <time>2022-02-13T12:41:15Z</time>
      </trkpt>
      <trkpt lat="48.19912" lon="7.14632">
        <ele>1001.5</ele>
        <time>2022-02-13T12:41:22Z</time>
      </trkpt>
      <trkpt lat="48.19919" lon="7.14641">
        <ele>999.3</ele>
        <time>2022-02-13T12:41:32Z</time>
      </trkpt>
      <trkpt lat="48.19927" lon="7.14649">
        <ele>996.9</ele>
        <time>2022-02-13T12:41:42Z</time>
      </trkpt>
      <trkpt lat="48.19933" lon="7.14659">
        <ele>994.7</ele>
        <time>2022-02-13T12:41:52Z</time>
      </trkpt>
      <trkpt lat="48.1994" lon="7.1467">
        <ele>992.6</ele>
        <time>2022-02-13T12:42:01Z</time>
      </trkpt>
      <trkpt lat="48.19944" lon="7.14683">
        <ele>990.4</ele>
        <time>2022-02-13T12:42:19Z</time>
      </trkpt>
      <trkpt lat="48.19948" lon="7.14695">
        <ele>988.1</ele>
        <time>2022-02-13T12:42:27Z</time>
      </trkpt>
      <trkpt lat="48.19955" lon="7.14707">
        <ele>985.5</ele>
        <time>2022-02-13T12:42:35Z</time>
      </trkpt>
      <trkpt lat="48.19964" lon="7.14712">
        <ele>982.9</ele>
        <time>2022-02-13T12:42:44Z</time>
      </trkpt>
      <trkpt lat="48.19968" lon="7.14713">
        <ele>981.8</ele>
        <time>2022-02-13T12:42:51Z</time>
      </trkpt>
      <trkpt lat="48.19969" lon="7.14713">
        <ele>981.8</ele>
        <time>2022-02-13T12:42:54Z</time>
      </trkpt>
      <trkpt lat="48.19978" lon="7.14715">
        <ele>979.8</ele>
        <time>2022-02-13T12:43:10Z</time>
      </trkpt>
      <trkpt lat="48.19987" lon="7.1472">
        <ele>977.9</ele>
        <time>2022-02-13T12:43:21Z</time>
      </trkpt>
      <trkpt lat="48.19995" lon="7.14728">
        <ele>975.8</ele>
        <time>2022-02-13T12:43:31Z</time>
      </trkpt>
      <trkpt lat="48.20003" lon="7.14734">
        <ele>973.3</ele>
        <time>2022-02-13T12:43:44Z</time>
      </trkpt>
      <trkpt lat="48.20012" lon="7.14742">
        <ele>971</ele>
        <time>2022-02-13T12:43:55Z</time>
      </trkpt>
      <trkpt lat="48.2002" lon="7.14747">
        <ele>969.2</ele>
        <time>2022-02-13T12:44:07Z</time>
      </trkpt>
      <trkpt lat="48.20029" lon="7.14753">
        <ele>967.7</ele>
        <time>2022-02-13T12:44:17Z</time>
      </trkpt>
      <trkpt lat="48.20038" lon="7.1476">
        <ele>966</ele>
        <time>2022-02-13T12:44:36Z</time>
      </trkpt>
      <trkpt lat="48.20047" lon="7.14765">
        <ele>964.4</ele>
        <time>2022-02-13T12:44:44Z</time>
      </trkpt>
      <trkpt lat="48.20054" lon="7.14774">
        <ele>962.9</ele>
        <time>2022-02-13T12:44:52Z</time>
      </trkpt>
      <trkpt lat="48.2006" lon="7.14781">
        <ele>961.8</ele>
        <time>2022-02-13T12:45:00Z</time>
      </trkpt>
      <trkpt lat="48.2006" lon="7.14781">
        <ele>961.8</ele>
        <time>2022-02-13T12:45:04Z</time>
      </trkpt>
      <trkpt lat="48.20068" lon="7.14788">
        <ele>960.7</ele>
        <time>2022-02-13T12:45:13Z</time>
      </trkpt>
      <trkpt lat="48.20077" lon="7.14791">
        <ele>959.8</ele>
        <time>2022-02-13T12:45:22Z</time>
      </trkpt>
      <trkpt lat="48.20086" lon="7.14795">
        <ele>959</ele>
        <time>2022-02-13T12:45:30Z</time>
      </trkpt>
      <trkpt lat="48.20095" lon="7.14798">
        <ele>958.2</ele>
        <time>2022-02-13T12:45:39Z</time>
      </trkpt>
      <trkpt lat="48.20104" lon="7.14804">
        <ele>957.2</ele>
        <time>2022-02-13T12:45:46Z</time>
      </trkpt>
      <trkpt lat="48.20114" lon="7.14808">
        <ele>955.9</ele>
        <time>2022-02-13T12:45:54Z</time>
      </trkpt>
      <trkpt lat="48.20123" lon="7.14809">
        <ele>954.7</ele>
        <time>2022-02-13T12:46:05Z</time>
      </trkpt>
      <trkpt lat="48.20133" lon="7.14812">
        <ele>953.5</ele>
        <time>2022-02-13T12:46:13Z</time>
      </trkpt>
      <trkpt lat="48.20143" lon="7.14814">
        <ele>952.5</ele>
        <time>2022-02-13T12:46:20Z</time>
      </trkpt>
      <trkpt lat="48.20152" lon="7.14816">
        <ele>951.8</ele>
        <time>2022-02-13T12:46:26Z</time>
      </trkpt>
      <trkpt lat="48.20163" lon="7.14817">
        <ele>951.1</ele>
        <time>2022-02-13T12:46:34Z</time>
      </trkpt>
      <trkpt lat="48.20172" lon="7.1482">
        <ele>950.5</ele>
        <time>2022-02-13T12:46:40Z</time>
      </trkpt>
      <trkpt lat="48.20181" lon="7.14824">
        <ele>950</ele>
        <time>2022-02-13T12:46:45Z</time>
      </trkpt>
      <trkpt lat="48.20192" lon="7.14826">
        <ele>950.1</ele>
        <time>2022-02-13T12:46:51Z</time>
      </trkpt>
      <trkpt lat="48.20202" lon="7.14827">
        <ele>950.4</ele>
        <time>2022-02-13T12:47:00Z</time>
      </trkpt>
      <trkpt lat="48.20211" lon="7.14829">
        <ele>950.7</ele>
        <time>2022-02-13T12:47:10Z</time>
      </trkpt>
      <trkpt lat="48.2022" lon="7.14833">
        <ele>950.9</ele>
        <time>2022-02-13T12:47:17Z</time>
      </trkpt>
      <trkpt lat="48.2023" lon="7.14835">
        <ele>951.2</ele>
        <time>2022-02-13T12:47:24Z</time>
      </trkpt>
      <trkpt lat="48.2024" lon="7.14835">
        <ele>951.6</ele>
        <time>2022-02-13T12:47:33Z</time>
      </trkpt>
      <trkpt lat="48.2025" lon="7.14838">
        <ele>952</ele>
        <time>2022-02-13T12:47:41Z</time>
      </trkpt>
      <trkpt lat="48.20259" lon="7.14841">
        <ele>952.3</ele>
        <time>2022-02-13T12:47:48Z</time>
      </trkpt>
      <trkpt lat="48.20269" lon="7.14842">
        <ele>952.6</ele>
        <time>2022-02-13T12:47:59Z</time>
      </trkpt>
      <trkpt lat="48.20278" lon="7.14848">
        <ele>952.9</ele>
        <time>2022-02-13T12:48:06Z</time>
      </trkpt>
      <trkpt lat="48.20287" lon="7.14853">
        <ele>953.2</ele>
        <time>2022-02-13T12:48:13Z</time>
      </trkpt>
      <trkpt lat="48.20295" lon="7.14861">
        <ele>953.6</ele>
        <time>2022-02-13T12:48:20Z</time>
      </trkpt>
      <trkpt lat="48.20305" lon="7.14864">
        <ele>954.2</ele>
        <time>2022-02-13T12:48:31Z</time>
      </trkpt>
      <trkpt lat="48.20315" lon="7.14866">
        <ele>954.7</ele>
        <time>2022-02-13T12:48:38Z</time>
      </trkpt>
      <trkpt lat="48.20324" lon="7.1487">
        <ele>955</ele>
        <time>2022-02-13T12:48:43Z</time>
      </trkpt>
      <trkpt lat="48.20335" lon="7.14872">
        <ele>955</ele>
        <time>2022-02-13T12:48:50Z</time>
      </trkpt>
      <trkpt lat="48.20345" lon="7.14875">
        <ele>954.8</ele>
        <time>2022-02-13T12:48:55Z</time>
      </trkpt>
      <trkpt lat="48.20355" lon="7.14878">
        <ele>954.3</ele>
        <time>2022-02-13T12:49:02Z</time>
      </trkpt>
      <trkpt lat="48.20365" lon="7.14875">
        <ele>953.8</ele>
        <time>2022-02-13T12:49:11Z</time>
      </trkpt>
      <trkpt lat="48.20372" lon="7.14868">
        <ele>953.3</ele>
        <time>2022-02-13T12:49:21Z</time>
      </trkpt>
      <trkpt lat="48.20382" lon="7.14867">
        <ele>952.7</ele>
        <time>2022-02-13T12:49:28Z</time>
      </trkpt>
      <trkpt lat="48.20392" lon="7.14867">
        <ele>951.6</ele>
        <time>2022-02-13T12:49:34Z</time>
      </trkpt>
      <trkpt lat="48.20401" lon="7.14867">
        <ele>950.4</ele>
        <time>2022-02-13T12:49:41Z</time>
      </trkpt>
      <trkpt lat="48.2041" lon="7.14865">
        <ele>949.4</ele>
        <time>2022-02-13T12:49:50Z</time>
      </trkpt>
      <trkpt lat="48.20417" lon="7.14856">
        <ele>948.5</ele>
        <time>2022-02-13T12:49:57Z</time>
      </trkpt>
      <trkpt lat="48.20424" lon="7.14847">
        <ele>947.5</ele>
        <time>2022-02-13T12:50:05Z</time>
      </trkpt>
      <trkpt lat="48.20431" lon="7.14839">
        <ele>946.2</ele>
        <time>2022-02-13T12:50:11Z</time>
      </trkpt>
      <trkpt lat="48.2044" lon="7.14832">
        <ele>944.6</ele>
        <time>2022-02-13T12:50:20Z</time>
      </trkpt>
      <trkpt lat="48.20448" lon="7.14824">
        <ele>942.8</ele>
        <time>2022-02-13T12:50:30Z</time>
      </trkpt>
      <trkpt lat="48.20456" lon="7.14815">
        <ele>940.9</ele>
        <time>2022-02-13T12:50:40Z</time>
      </trkpt>
      <trkpt lat="48.20465" lon="7.14813">
        <ele>938.9</ele>
        <time>2022-02-13T12:50:49Z</time>
      </trkpt>
      <trkpt lat="48.20475" lon="7.14812">
        <ele>937.3</ele>
        <time>2022-02-13T12:50:55Z</time>
      </trkpt>
      <trkpt lat="48.20481" lon="7.14801">
        <ele>935.8</ele>
        <time>2022-02-13T12:51:04Z</time>
      </trkpt>
      <trkpt lat="48.20488" lon="7.1479">
        <ele>934.3</ele>
        <time>2022-02-13T12:51:12Z</time>
      </trkpt>
      <trkpt lat="48.20498" lon="7.14785">
        <ele>932.9</ele>
        <time>2022-02-13T12:51:20Z</time>
      </trkpt>
      <trkpt lat="48.20507" lon="7.1478">
        <ele>931.6</ele>
        <time>2022-02-13T12:51:27Z</time>
      </trkpt>
      <trkpt lat="48.20517" lon="7.14777">
        <ele>930.1</ele>
        <time>2022-02-13T12:51:33Z</time>
      </trkpt>
      <trkpt lat="48.20527" lon="7.14771">
        <ele>928.9</ele>
        <time>2022-02-13T12:51:41Z</time>
      </trkpt>
      <trkpt lat="48.20537" lon="7.14773">
        <ele>927.9</ele>
        <time>2022-02-13T12:51:46Z</time>
      </trkpt>
      <trkpt lat="48.20546" lon="7.14767">
        <ele>927.1</ele>
        <time>2022-02-13T12:51:54Z</time>
      </trkpt>
      <trkpt lat="48.20554" lon="7.14759">
        <ele>926.3</ele>
        <time>2022-02-13T12:52:02Z</time>
      </trkpt>
      <trkpt lat="48.20562" lon="7.14751">
        <ele>925.5</ele>
        <time>2022-02-13T12:52:10Z</time>
      </trkpt>
      <trkpt lat="48.20572" lon="7.14748">
        <ele>924.9</ele>
        <time>2022-02-13T12:52:19Z</time>
      </trkpt>
      <trkpt lat="48.20581" lon="7.14743">
        <ele>924.4</ele>
        <time>2022-02-13T12:52:28Z</time>
      </trkpt>
      <trkpt lat="48.20591" lon="7.14743">
        <ele>923.9</ele>
        <time>2022-02-13T12:52:35Z</time>
      </trkpt>
      <trkpt lat="48.20601" lon="7.14745">
        <ele>923.1</ele>
        <time>2022-02-13T12:52:41Z</time>
      </trkpt>
      <trkpt lat="48.2061" lon="7.14741">
        <ele>922.2</ele>
        <time>2022-02-13T12:52:49Z</time>
      </trkpt>
      <trkpt lat="48.20619" lon="7.14737">
        <ele>921.4</ele>
        <time>2022-02-13T12:52:58Z</time>
      </trkpt>
      <trkpt lat="48.20628" lon="7.14736">
        <ele>920.4</ele>
        <time>2022-02-13T12:53:07Z</time>
      </trkpt>
      <trkpt lat="48.20638" lon="7.14735">
        <ele>919.5</ele>
        <time>2022-02-13T12:53:12Z</time>
      </trkpt>
      <trkpt lat="48.20646" lon="7.14729">
        <ele>918.7</ele>
        <time>2022-02-13T12:53:18Z</time>
      </trkpt>
      <trkpt lat="48.20656" lon="7.14724">
        <ele>917.9</ele>
        <time>2022-02-13T12:53:26Z</time>
      </trkpt>
      <trkpt lat="48.20667" lon="7.14727">
        <ele>917.2</ele>
        <time>2022-02-13T12:53:32Z</time>
      </trkpt>
      <trkpt lat="48.20676" lon="7.14726">
        <ele>916.7</ele>
        <time>2022-02-13T12:53:39Z</time>
      </trkpt>
      <trkpt lat="48.20686" lon="7.14724">
        <ele>916.3</ele>
        <time>2022-02-13T12:53:46Z</time>
      </trkpt>
      <trkpt lat="48.20695" lon="7.14723">
        <ele>916.1</ele>
        <time>2022-02-13T12:53:53Z</time>
      </trkpt>
      <trkpt lat="48.20705" lon="7.14723">
        <ele>916.1</ele>
        <time>2022-02-13T12:54:01Z</time>
      </trkpt>
      <trkpt lat="48.20714" lon="7.14719">
        <ele>916.2</ele>
        <time>2022-02-13T12:54:10Z</time>
      </trkpt>
      <trkpt lat="48.20724" lon="7.14718">
        <ele>916.5</ele>
        <time>2022-02-13T12:54:17Z</time>
      </trkpt>
      <trkpt lat="48.20734" lon="7.14717">
        <ele>916.9</ele>
        <time>2022-02-13T12:54:24Z</time>
      </trkpt>
      <trkpt lat="48.20743" lon="7.14722">
        <ele>917.4</ele>
        <time>2022-02-13T12:54:29Z</time>
      </trkpt>
      <trkpt lat="48.20752" lon="7.14722">
        <ele>918</ele>
        <time>2022-02-13T12:54:36Z</time>
      </trkpt>
      <trkpt lat="48.20761" lon="7.14718">
        <ele>918.7</ele>
        <time>2022-02-13T12:54:45Z</time>
      </trkpt>
      <trkpt lat="48.20771" lon="7.14717">
        <ele>919.4</ele>
        <time>2022-02-13T12:54:55Z</time>
      </trkpt>
      <trkpt lat="48.20781" lon="7.14713">
        <ele>920.1</ele>
        <time>2022-02-13T12:55:04Z</time>
      </trkpt>
      <trkpt lat="48.20789" lon="7.14709">
        <ele>920.6</ele>
        <time>2022-02-13T12:55:15Z</time>
      </trkpt>
      <trkpt lat="48.20799" lon="7.14705">
        <ele>921.3</ele>
        <time>2022-02-13T12:55:25Z</time>
      </trkpt>
      <trkpt lat="48.20808" lon="7.14704">
        <ele>921.9</ele>
        <time>2022-02-13T12:55:32Z</time>
      </trkpt>
      <trkpt lat="48.20817" lon="7.147">
        <ele>922.6</ele>
        <time>2022-02-13T12:55:41Z</time>
      </trkpt>
      <trkpt lat="48.20826" lon="7.14704">
        <ele>923.2</ele>
        <time>2022-02-13T12:55:48Z</time>
      </trkpt>
      <trkpt lat="48.20835" lon="7.14707">
        <ele>923.8</ele>
        <time>2022-02-13T12:55:56Z</time>
      </trkpt>
      <trkpt lat="48.20844" lon="7.14703">
        <ele>924.3</ele>
        <time>2022-02-13T12:56:04Z</time>
      </trkpt>
      <trkpt lat="48.20853" lon="7.14701">
        <ele>924.6</ele>
        <time>2022-02-13T12:56:11Z</time>
      </trkpt>
      <trkpt lat="48.20863" lon="7.14701">
        <ele>924.4</ele>
        <time>2022-02-13T12:56:21Z</time>
      </trkpt>
      <trkpt lat="48.20869" lon="7.14701">
        <ele>924</ele>
        <time>2022-02-13T12:56:29Z</time>
      </trkpt>
      <trkpt lat="48.20869" lon="7.14701">
        <ele>924</ele>
        <time>2022-02-13T12:56:36Z</time>
      </trkpt>
      <trkpt lat="48.20869" lon="7.14701">
        <ele>923.9</ele>
        <time>2022-02-13T12:56:37Z</time>
      </trkpt>
      <trkpt lat="48.20869" lon="7.14701">
        <ele>923.9</ele>
        <time>2022-02-13T12:56:47Z</time>
      </trkpt>
      <trkpt lat="48.20877" lon="7.14709">
        <ele>922.7</ele>
        <time>2022-02-13T12:56:57Z</time>
      </trkpt>
      <trkpt lat="48.20883" lon="7.14719">
        <ele>921.1</ele>
        <time>2022-02-13T12:57:07Z</time>
      </trkpt>
      <trkpt lat="48.20891" lon="7.14729">
        <ele>919.3</ele>
        <time>2022-02-13T12:57:17Z</time>
      </trkpt>
      <trkpt lat="48.20897" lon="7.14738">
        <ele>917.6</ele>
        <time>2022-02-13T12:57:25Z</time>
      </trkpt>
      <trkpt lat="48.20904" lon="7.14748">
        <ele>915.7</ele>
        <time>2022-02-13T12:57:34Z</time>
      </trkpt>
      <trkpt lat="48.20912" lon="7.14755">
        <ele>913.8</ele>
        <time>2022-02-13T12:57:45Z</time>
      </trkpt>
      <trkpt lat="48.2092" lon="7.14764">
        <ele>911.8</ele>
        <time>2022-02-13T12:57:53Z</time>
      </trkpt>
      <trkpt lat="48.20925" lon="7.14767">
        <ele>910.7</ele>
        <time>2022-02-13T12:58:02Z</time>
      </trkpt>
      <trkpt lat="48.20925" lon="7.14767">
        <ele>910.7</ele>
        <time>2022-02-13T12:58:04Z</time>
      </trkpt>
      <trkpt lat="48.20933" lon="7.14773">
        <ele>908.8</ele>
        <time>2022-02-13T12:58:13Z</time>
      </trkpt>
      <trkpt lat="48.2094" lon="7.14784">
        <ele>906.6</ele>
        <time>2022-02-13T12:58:20Z</time>
      </trkpt>
      <trkpt lat="48.20947" lon="7.14793">
        <ele>904.1</ele>
        <time>2022-02-13T12:58:30Z</time>
      </trkpt>
      <trkpt lat="48.20948" lon="7.14807">
        <ele>901.6</ele>
        <time>2022-02-13T12:58:44Z</time>
      </trkpt>
      <trkpt lat="48.20957" lon="7.14809">
        <ele>899</ele>
        <time>2022-02-13T12:58:52Z</time>
      </trkpt>
      <trkpt lat="48.20959" lon="7.1481">
        <ele>898.6</ele>
        <time>2022-02-13T12:58:56Z</time>
      </trkpt>
      <trkpt lat="48.20959" lon="7.1481">
        <ele>898.5</ele>
        <time>2022-02-13T12:58:57Z</time>
      </trkpt>
      <trkpt lat="48.20967" lon="7.14816">
        <ele>896.4</ele>
        <time>2022-02-13T12:59:26Z</time>
      </trkpt>
      <trkpt lat="48.20977" lon="7.14821">
        <ele>894.6</ele>
        <time>2022-02-13T12:59:38Z</time>
      </trkpt>
      <trkpt lat="48.20985" lon="7.14827">
        <ele>892.9</ele>
        <time>2022-02-13T12:59:44Z</time>
      </trkpt>
      <trkpt lat="48.2099" lon="7.14831">
        <ele>891.9</ele>
        <time>2022-02-13T12:59:51Z</time>
      </trkpt>
      <trkpt lat="48.2099" lon="7.14832">
        <ele>891.8</ele>
        <time>2022-02-13T12:59:52Z</time>
      </trkpt>
      <trkpt lat="48.2099" lon="7.14832">
        <ele>891.8</ele>
        <time>2022-02-13T12:59:53Z</time>
      </trkpt>
      <trkpt lat="48.20991" lon="7.14832">
        <ele>891.7</ele>
        <time>2022-02-13T12:59:54Z</time>
      </trkpt>
      <trkpt lat="48.21001" lon="7.14837">
        <ele>889.7</ele>
        <time>2022-02-13T13:00:03Z</time>
      </trkpt>
      <trkpt lat="48.21008" lon="7.14846">
        <ele>888.1</ele>
        <time>2022-02-13T13:00:11Z</time>
      </trkpt>
      <trkpt lat="48.21017" lon="7.14853">
        <ele>886.8</ele>
        <time>2022-02-13T13:00:16Z</time>
      </trkpt>
      <trkpt lat="48.21025" lon="7.14859">
        <ele>885.7</ele>
        <time>2022-02-13T13:00:24Z</time>
      </trkpt>
      <trkpt lat="48.21034" lon="7.14866">
        <ele>884.7</ele>
        <time>2022-02-13T13:00:29Z</time>
      </trkpt>
      <trkpt lat="48.21042" lon="7.14875">
        <ele>883.8</ele>
        <time>2022-02-13T13:00:41Z</time>
      </trkpt>
      <trkpt lat="48.2105" lon="7.14884">
        <ele>883</ele>
        <time>2022-02-13T13:00:49Z</time>
      </trkpt>
      <trkpt lat="48.21057" lon="7.14893">
        <ele>882.3</ele>
        <time>2022-02-13T13:00:57Z</time>
      </trkpt>
      <trkpt lat="48.21065" lon="7.14904">
        <ele>881.7</ele>
        <time>2022-02-13T13:01:05Z</time>
      </trkpt>
      <trkpt lat="48.21074" lon="7.14912">
        <ele>881.1</ele>
        <time>2022-02-13T13:01:12Z</time>
      </trkpt>
      <trkpt lat="48.21082" lon="7.14921">
        <ele>880.6</ele>
        <time>2022-02-13T13:01:19Z</time>
      </trkpt>
      <trkpt lat="48.21089" lon="7.14931">
        <ele>880.1</ele>
        <time>2022-02-13T13:01:27Z</time>
      </trkpt>
      <trkpt lat="48.21096" lon="7.14941">
        <ele>879.7</ele>
        <time>2022-02-13T13:01:37Z</time>
      </trkpt>
      <trkpt lat="48.21105" lon="7.14947">
        <ele>879.3</ele>
        <time>2022-02-13T13:01:45Z</time>
      </trkpt>
      <trkpt lat="48.21112" lon="7.14956">
        <ele>879.1</ele>
        <time>2022-02-13T13:01:52Z</time>
      </trkpt>
      <trkpt lat="48.21121" lon="7.14965">
        <ele>878.8</ele>
        <time>2022-02-13T13:01:59Z</time>
      </trkpt>
      <trkpt lat="48.21129" lon="7.14973">
        <ele>878.5</ele>
        <time>2022-02-13T13:02:06Z</time>
      </trkpt>
      <trkpt lat="48.21137" lon="7.14979">
        <ele>878</ele>
        <time>2022-02-13T13:02:12Z</time>
      </trkpt>
      <trkpt lat="48.21144" lon="7.14989">
        <ele>877.1</ele>
        <time>2022-02-13T13:02:19Z</time>
      </trkpt>
      <trkpt lat="48.21149" lon="7.15001">
        <ele>876.1</ele>
        <time>2022-02-13T13:02:29Z</time>
      </trkpt>
      <trkpt lat="48.21152" lon="7.15014">
        <ele>874.9</ele>
        <time>2022-02-13T13:02:39Z</time>
      </trkpt>
      <trkpt lat="48.21159" lon="7.15024">
        <ele>873.6</ele>
        <time>2022-02-13T13:02:47Z</time>
      </trkpt>
      <trkpt lat="48.21164" lon="7.15036">
        <ele>872.3</ele>
        <time>2022-02-13T13:02:58Z</time>
      </trkpt>
      <trkpt lat="48.2117" lon="7.15042">
        <ele>871.2</ele>
        <time>2022-02-13T13:03:13Z</time>
      </trkpt>
      <trkpt lat="48.2117" lon="7.15043">
        <ele>871.2</ele>
        <time>2022-02-13T13:03:15Z</time>
      </trkpt>
      <trkpt lat="48.21167" lon="7.15046">
        <ele>870.6</ele>
        <time>2022-02-13T13:03:23Z</time>
      </trkpt>
      <trkpt lat="48.21166" lon="7.15046">
        <ele>870.5</ele>
        <time>2022-02-13T13:03:25Z</time>
      </trkpt>
      <trkpt lat="48.21165" lon="7.15047">
        <ele>870.3</ele>
        <time>2022-02-13T13:03:27Z</time>
      </trkpt>
      <trkpt lat="48.21165" lon="7.15047">
        <ele>870.3</ele>
        <time>2022-02-13T13:03:34Z</time>
      </trkpt>
      <trkpt lat="48.21166" lon="7.15047">
        <ele>870.2</ele>
        <time>2022-02-13T13:03:41Z</time>
      </trkpt>
      <trkpt lat="48.21166" lon="7.15048">
        <ele>870.1</ele>
        <time>2022-02-13T13:03:42Z</time>
      </trkpt>
      <trkpt lat="48.21172" lon="7.15058">
        <ele>868.8</ele>
        <time>2022-02-13T13:04:08Z</time>
      </trkpt>
      <trkpt lat="48.21177" lon="7.15071">
        <ele>867.4</ele>
        <time>2022-02-13T13:04:20Z</time>
      </trkpt>
      <trkpt lat="48.21183" lon="7.15081">
        <ele>866.2</ele>
        <time>2022-02-13T13:04:26Z</time>
      </trkpt>
      <trkpt lat="48.21191" lon="7.1509">
        <ele>864.9</ele>
        <time>2022-02-13T13:04:33Z</time>
      </trkpt>
      <trkpt lat="48.21201" lon="7.15096">
        <ele>863.7</ele>
        <time>2022-02-13T13:04:40Z</time>
      </trkpt>
      <trkpt lat="48.21209" lon="7.15104">
        <ele>862.5</ele>
        <time>2022-02-13T13:04:50Z</time>
      </trkpt>
      <trkpt lat="48.21216" lon="7.15111">
        <ele>861.2</ele>
        <time>2022-02-13T13:05:03Z</time>
      </trkpt>
      <trkpt lat="48.21223" lon="7.15121">
        <ele>859.8</ele>
        <time>2022-02-13T13:05:10Z</time>
      </trkpt>
      <trkpt lat="48.2123" lon="7.15132">
        <ele>858.2</ele>
        <time>2022-02-13T13:05:21Z</time>
      </trkpt>
      <trkpt lat="48.21238" lon="7.15135">
        <ele>856.8</ele>
        <time>2022-02-13T13:05:31Z</time>
      </trkpt>
      <trkpt lat="48.21241" lon="7.15137">
        <ele>856.3</ele>
        <time>2022-02-13T13:05:36Z</time>
      </trkpt>
      <trkpt lat="48.21241" lon="7.15137">
        <ele>856.3</ele>
        <time>2022-02-13T13:05:37Z</time>
      </trkpt>
      <trkpt lat="48.2125" lon="7.15141">
        <ele>854.8</ele>
        <time>2022-02-13T13:05:45Z</time>
      </trkpt>
      <trkpt lat="48.21259" lon="7.15148">
        <ele>853.2</ele>
        <time>2022-02-13T13:05:56Z</time>
      </trkpt>
      <trkpt lat="48.21269" lon="7.15154">
        <ele>851.8</ele>
        <time>2022-02-13T13:06:04Z</time>
      </trkpt>
      <trkpt lat="48.21278" lon="7.15161">
        <ele>850.7</ele>
        <time>2022-02-13T13:06:09Z</time>
      </trkpt>
      <trkpt lat="48.21285" lon="7.1517">
        <ele>849.7</ele>
        <time>2022-02-13T13:06:18Z</time>
      </trkpt>
      <trkpt lat="48.21293" lon="7.15175">
        <ele>848.7</ele>
        <time>2022-02-13T13:06:27Z</time>
      </trkpt>
      <trkpt lat="48.21302" lon="7.1518">
        <ele>847.6</ele>
        <time>2022-02-13T13:06:35Z</time>
      </trkpt>
      <trkpt lat="48.21312" lon="7.15186">
        <ele>846.3</ele>
        <time>2022-02-13T13:06:45Z</time>
      </trkpt>
      <trkpt lat="48.21321" lon="7.15191">
        <ele>845.3</ele>
        <time>2022-02-13T13:06:52Z</time>
      </trkpt>
      <trkpt lat="48.2133" lon="7.15195">
        <ele>844.4</ele>
        <time>2022-02-13T13:06:57Z</time>
      </trkpt>
      <trkpt lat="48.21339" lon="7.15199">
        <ele>843.8</ele>
        <time>2022-02-13T13:07:03Z</time>
      </trkpt>
      <trkpt lat="48.21348" lon="7.15204">
        <ele>843.3</ele>
        <time>2022-02-13T13:07:10Z</time>
      </trkpt>
      <trkpt lat="48.21357" lon="7.15209">
        <ele>842.9</ele>
        <time>2022-02-13T13:07:19Z</time>
      </trkpt>
      <trkpt lat="48.21367" lon="7.15209">
        <ele>842.4</ele>
        <time>2022-02-13T13:07:29Z</time>
      </trkpt>
      <trkpt lat="48.21376" lon="7.1521">
        <ele>841.7</ele>
        <time>2022-02-13T13:07:36Z</time>
      </trkpt>
      <trkpt lat="48.21386" lon="7.15212">
        <ele>840.9</ele>
        <time>2022-02-13T13:07:44Z</time>
      </trkpt>
      <trkpt lat="48.21395" lon="7.1521">
        <ele>840.1</ele>
        <time>2022-02-13T13:07:55Z</time>
      </trkpt>
      <trkpt lat="48.21404" lon="7.15214">
        <ele>839.2</ele>
        <time>2022-02-13T13:08:03Z</time>
      </trkpt>
      <trkpt lat="48.21413" lon="7.15215">
        <ele>838.1</ele>
        <time>2022-02-13T13:08:11Z</time>
      </trkpt>
      <trkpt lat="48.21423" lon="7.15217">
        <ele>837</ele>
        <time>2022-02-13T13:08:18Z</time>
      </trkpt>
      <trkpt lat="48.21432" lon="7.15219">
        <ele>835.9</ele>
        <time>2022-02-13T13:08:26Z</time>
      </trkpt>
      <trkpt lat="48.21441" lon="7.15221">
        <ele>835.1</ele>
        <time>2022-02-13T13:08:32Z</time>
      </trkpt>
      <trkpt lat="48.2145" lon="7.15224">
        <ele>834.4</ele>
        <time>2022-02-13T13:08:38Z</time>
      </trkpt>
      <trkpt lat="48.2146" lon="7.15227">
        <ele>833.6</ele>
        <time>2022-02-13T13:08:45Z</time>
      </trkpt>
      <trkpt lat="48.21468" lon="7.15231">
        <ele>832.8</ele>
        <time>2022-02-13T13:08:51Z</time>
      </trkpt>
      <trkpt lat="48.21477" lon="7.15235">
        <ele>831.7</ele>
        <time>2022-02-13T13:08:58Z</time>
      </trkpt>
      <trkpt lat="48.21482" lon="7.15237">
        <ele>830.9</ele>
        <time>2022-02-13T13:09:05Z</time>
      </trkpt>
      <trkpt lat="48.21483" lon="7.15238">
        <ele>830.8</ele>
        <time>2022-02-13T13:09:06Z</time>
      </trkpt>
      <trkpt lat="48.21492" lon="7.15239">
        <ele>829.2</ele>
        <time>2022-02-13T13:09:16Z</time>
      </trkpt>
      <trkpt lat="48.21501" lon="7.1524">
        <ele>827.4</ele>
        <time>2022-02-13T13:09:25Z</time>
      </trkpt>
      <trkpt lat="48.21511" lon="7.15244">
        <ele>825.6</ele>
        <time>2022-02-13T13:09:34Z</time>
      </trkpt>
      <trkpt lat="48.2152" lon="7.1525">
        <ele>824.2</ele>
        <time>2022-02-13T13:09:41Z</time>
      </trkpt>
      <trkpt lat="48.21526" lon="7.1526">
        <ele>823.1</ele>
        <time>2022-02-13T13:09:50Z</time>
      </trkpt>
      <trkpt lat="48.21535" lon="7.15266">
        <ele>822.2</ele>
        <time>2022-02-13T13:09:58Z</time>
      </trkpt>
      <trkpt lat="48.21544" lon="7.15268">
        <ele>821.5</ele>
        <time>2022-02-13T13:10:06Z</time>
      </trkpt>
      <trkpt lat="48.21553" lon="7.15273">
        <ele>820.6</ele>
        <time>2022-02-13T13:10:14Z</time>
      </trkpt>
      <trkpt lat="48.21562" lon="7.15279">
        <ele>819.7</ele>
        <time>2022-02-13T13:10:21Z</time>
      </trkpt>
      <trkpt lat="48.2157" lon="7.15287">
        <ele>818.7</ele>
        <time>2022-02-13T13:10:29Z</time>
      </trkpt>
      <trkpt lat="48.21578" lon="7.15295">
        <ele>818</ele>
        <time>2022-02-13T13:10:36Z</time>
      </trkpt>
      <trkpt lat="48.21586" lon="7.15303">
        <ele>817.3</ele>
        <time>2022-02-13T13:10:44Z</time>
      </trkpt>
      <trkpt lat="48.21594" lon="7.15311">
        <ele>816.5</ele>
        <time>2022-02-13T13:10:52Z</time>
      </trkpt>
      <trkpt lat="48.21601" lon="7.1532">
        <ele>815.7</ele>
        <time>2022-02-13T13:11:00Z</time>
      </trkpt>
      <trkpt lat="48.21608" lon="7.15329">
        <ele>815</ele>
        <time>2022-02-13T13:11:07Z</time>
      </trkpt>
      <trkpt lat="48.21615" lon="7.15337">
        <ele>814.3</ele>
        <time>2022-02-13T13:11:15Z</time>
      </trkpt>
      <trkpt lat="48.21623" lon="7.15344">
        <ele>813.7</ele>
        <time>2022-02-13T13:11:23Z</time>
      </trkpt>
      <trkpt lat="48.2163" lon="7.15354">
        <ele>813.2</ele>
        <time>2022-02-13T13:11:32Z</time>
      </trkpt>
      <trkpt lat="48.21638" lon="7.15364">
        <ele>812.8</ele>
        <time>2022-02-13T13:11:41Z</time>
      </trkpt>
      <trkpt lat="48.21646" lon="7.15373">
        <ele>812.4</ele>
        <time>2022-02-13T13:11:51Z</time>
      </trkpt>
      <trkpt lat="48.21653" lon="7.1538">
        <ele>812.1</ele>
        <time>2022-02-13T13:12:00Z</time>
      </trkpt>
      <trkpt lat="48.21662" lon="7.15383">
        <ele>811.7</ele>
        <time>2022-02-13T13:12:09Z</time>
      </trkpt>
      <trkpt lat="48.21671" lon="7.15387">
        <ele>811.2</ele>
        <time>2022-02-13T13:12:18Z</time>
      </trkpt>
      <trkpt lat="48.21678" lon="7.1539">
        <ele>810.7</ele>
        <time>2022-02-13T13:12:29Z</time>
      </trkpt>
      <trkpt lat="48.21678" lon="7.15391">
        <ele>810.7</ele>
        <time>2022-02-13T13:12:30Z</time>
      </trkpt>
      <trkpt lat="48.21678" lon="7.15391">
        <ele>810.6</ele>
        <time>2022-02-13T13:12:32Z</time>
      </trkpt>
      <trkpt lat="48.21678" lon="7.15392">
        <ele>810.6</ele>
        <time>2022-02-13T13:12:33Z</time>
      </trkpt>
      <trkpt lat="48.21678" lon="7.15392">
        <ele>810.6</ele>
        <time>2022-02-13T13:12:34Z</time>
      </trkpt>
      <trkpt lat="48.21677" lon="7.15393">
        <ele>810.5</ele>
        <time>2022-02-13T13:12:35Z</time>
      </trkpt>
      <trkpt lat="48.21676" lon="7.15394">
        <ele>810.4</ele>
        <time>2022-02-13T13:12:39Z</time>
      </trkpt>
      <trkpt lat="48.21676" lon="7.15394">
        <ele>810.4</ele>
        <time>2022-02-13T13:12:40Z</time>
      </trkpt>
      <trkpt lat="48.21676" lon="7.15394">
        <ele>810.4</ele>
        <time>2022-02-13T13:12:42Z</time>
      </trkpt>
      <trkpt lat="48.21676" lon="7.15394">
        <ele>810.3</ele>
        <time>2022-02-13T13:12:44Z</time>
      </trkpt>
      <trkpt lat="48.21676" lon="7.15394">
        <ele>810.3</ele>
        <time>2022-02-13T13:12:46Z</time>
      </trkpt>
      <trkpt lat="48.21676" lon="7.15394">
        <ele>810.3</ele>
        <time>2022-02-13T13:13:00Z</time>
      </trkpt>
      <trkpt lat="48.21678" lon="7.15399">
        <ele>809.9</ele>
        <time>2022-02-13T13:13:10Z</time>
      </trkpt>
      <trkpt lat="48.21678" lon="7.15399">
        <ele>809.8</ele>
        <time>2022-02-13T13:13:16Z</time>
      </trkpt>
      <trkpt lat="48.21678" lon="7.15399">
        <ele>809.8</ele>
        <time>2022-02-13T13:13:17Z</time>
      </trkpt>
      <trkpt lat="48.21678" lon="7.15399">
        <ele>809.8</ele>
        <time>2022-02-13T13:13:40Z</time>
      </trkpt>
      <trkpt lat="48.21678" lon="7.15399">
        <ele>809.8</ele>
        <time>2022-02-13T13:13:41Z</time>
      </trkpt>
      <trkpt lat="48.21678" lon="7.15398">
        <ele>809.8</ele>
        <time>2022-02-13T13:13:42Z</time>
      </trkpt>
      <trkpt lat="48.21688" lon="7.15395">
        <ele>808.4</ele>
        <time>2022-02-13T13:14:00Z</time>
      </trkpt>
      <trkpt lat="48.21697" lon="7.15399">
        <ele>806.9</ele>
        <time>2022-02-13T13:14:08Z</time>
      </trkpt>
      <trkpt lat="48.21706" lon="7.15404">
        <ele>805.2</ele>
        <time>2022-02-13T13:14:16Z</time>
      </trkpt>
      <trkpt lat="48.21707" lon="7.15404">
        <ele>805.1</ele>
        <time>2022-02-13T13:14:19Z</time>
      </trkpt>
      <trkpt lat="48.21707" lon="7.15404">
        <ele>805</ele>
        <time>2022-02-13T13:14:20Z</time>
      </trkpt>
      <trkpt lat="48.21716" lon="7.15411">
        <ele>803.2</ele>
        <time>2022-02-13T13:14:28Z</time>
      </trkpt>
      <trkpt lat="48.21724" lon="7.15417">
        <ele>801.1</ele>
        <time>2022-02-13T13:14:36Z</time>
      </trkpt>
      <trkpt lat="48.21731" lon="7.15426">
        <ele>798.6</ele>
        <time>2022-02-13T13:14:48Z</time>
      </trkpt>
      <trkpt lat="48.2174" lon="7.15434">
        <ele>795.5</ele>
        <time>2022-02-13T13:14:58Z</time>
      </trkpt>
      <trkpt lat="48.21748" lon="7.15442">
        <ele>792.4</ele>
        <time>2022-02-13T13:15:07Z</time>
      </trkpt>
      <trkpt lat="48.21757" lon="7.15447">
        <ele>789.4</ele>
        <time>2022-02-13T13:15:17Z</time>
      </trkpt>
      <trkpt lat="48.21765" lon="7.15455">
        <ele>785.9</ele>
        <time>2022-02-13T13:15:22Z</time>
      </trkpt>
      <trkpt lat="48.21772" lon="7.15463">
        <ele>778</ele>
        <time>2022-02-13T13:15:31Z</time>
      </trkpt>
      <trkpt lat="48.21777" lon="7.15475">
        <ele>776.4</ele>
        <time>2022-02-13T13:15:41Z</time>
      </trkpt>
      <trkpt lat="48.21785" lon="7.15484">
        <ele>774.4</ele>
        <time>2022-02-13T13:15:51Z</time>
      </trkpt>
      <trkpt lat="48.21791" lon="7.15485">
        <ele>773.2</ele>
        <time>2022-02-13T13:16:00Z</time>
      </trkpt>
      <trkpt lat="48.21792" lon="7.15486">
        <ele>772.9</ele>
        <time>2022-02-13T13:16:01Z</time>
      </trkpt>
      <trkpt lat="48.21801" lon="7.1549">
        <ele>771.1</ele>
        <time>2022-02-13T13:16:09Z</time>
      </trkpt>
      <trkpt lat="48.2181" lon="7.15495">
        <ele>769.4</ele>
        <time>2022-02-13T13:16:18Z</time>
      </trkpt>
      <trkpt lat="48.21817" lon="7.15505">
        <ele>768</ele>
        <time>2022-02-13T13:16:26Z</time>
      </trkpt>
      <trkpt lat="48.21826" lon="7.15512">
        <ele>766.4</ele>
        <time>2022-02-13T13:16:45Z</time>
      </trkpt>
      <trkpt lat="48.21829" lon="7.1551">
        <ele>765.8</ele>
        <time>2022-02-13T13:16:55Z</time>
      </trkpt>
      <trkpt lat="48.21829" lon="7.1551">
        <ele>765.7</ele>
        <time>2022-02-13T13:16:59Z</time>
      </trkpt>
      <trkpt lat="48.2183" lon="7.15506">
        <ele>765.2</ele>
        <time>2022-02-13T13:17:05Z</time>
      </trkpt>
      <trkpt lat="48.2183" lon="7.15506">
        <ele>765.1</ele>
        <time>2022-02-13T13:17:06Z</time>
      </trkpt>
      <trkpt lat="48.2183" lon="7.15508">
        <ele>764.9</ele>
        <time>2022-02-13T13:17:10Z</time>
      </trkpt>
      <trkpt lat="48.2183" lon="7.15508">
        <ele>764.9</ele>
        <time>2022-02-13T13:17:11Z</time>
      </trkpt>
      <trkpt lat="48.2183" lon="7.15508">
        <ele>764.9</ele>
        <time>2022-02-13T13:17:12Z</time>
      </trkpt>
      <trkpt lat="48.2183" lon="7.15509">
        <ele>764.8</ele>
        <time>2022-02-13T13:17:13Z</time>
      </trkpt>
      <trkpt lat="48.21831" lon="7.15509">
        <ele>764.6</ele>
        <time>2022-02-13T13:17:17Z</time>
      </trkpt>
      <trkpt lat="48.21832" lon="7.15509">
        <ele>764.5</ele>
        <time>2022-02-13T13:17:18Z</time>
      </trkpt>
      <trkpt lat="48.2184" lon="7.15515">
        <ele>762.7</ele>
        <time>2022-02-13T13:17:31Z</time>
      </trkpt>
      <trkpt lat="48.21849" lon="7.1551">
        <ele>761.2</ele>
        <time>2022-02-13T13:17:45Z</time>
      </trkpt>
      <trkpt lat="48.21857" lon="7.15503">
        <ele>759.7</ele>
        <time>2022-02-13T13:17:57Z</time>
      </trkpt>
      <trkpt lat="48.21858" lon="7.15499">
        <ele>759.3</ele>
        <time>2022-02-13T13:18:03Z</time>
      </trkpt>
      <trkpt lat="48.21858" lon="7.15498">
        <ele>759.2</ele>
        <time>2022-02-13T13:18:04Z</time>
      </trkpt>
      <trkpt lat="48.21858" lon="7.15498">
        <ele>759.2</ele>
        <time>2022-02-13T13:18:05Z</time>
      </trkpt>
      <trkpt lat="48.21858" lon="7.15498">
        <ele>759.2</ele>
        <time>2022-02-13T13:18:06Z</time>
      </trkpt>
      <trkpt lat="48.21858" lon="7.15498">
        <ele>759.2</ele>
        <time>2022-02-13T13:18:07Z</time>
      </trkpt>
      <trkpt lat="48.21858" lon="7.15498">
        <ele>759.1</ele>
        <time>2022-02-13T13:18:08Z</time>
      </trkpt>
      <trkpt lat="48.21866" lon="7.15506">
        <ele>757.9</ele>
        <time>2022-02-13T13:18:17Z</time>
      </trkpt>
      <trkpt lat="48.21875" lon="7.15511">
        <ele>756.9</ele>
        <time>2022-02-13T13:18:24Z</time>
      </trkpt>
      <trkpt lat="48.21885" lon="7.15515">
        <ele>755.9</ele>
        <time>2022-02-13T13:18:32Z</time>
      </trkpt>
      <trkpt lat="48.21894" lon="7.15517">
        <ele>755.1</ele>
        <time>2022-02-13T13:18:41Z</time>
      </trkpt>
      <trkpt lat="48.21904" lon="7.15519">
        <ele>754.1</ele>
        <time>2022-02-13T13:18:50Z</time>
      </trkpt>
      <trkpt lat="48.21913" lon="7.15523">
        <ele>753.1</ele>
        <time>2022-02-13T13:18:58Z</time>
      </trkpt>
      <trkpt lat="48.21922" lon="7.15527">
        <ele>752.2</ele>
        <time>2022-02-13T13:19:06Z</time>
      </trkpt>
      <trkpt lat="48.21932" lon="7.15531">
        <ele>751.2</ele>
        <time>2022-02-13T13:19:14Z</time>
      </trkpt>
      <trkpt lat="48.21941" lon="7.15533">
        <ele>750.3</ele>
        <time>2022-02-13T13:19:20Z</time>
      </trkpt>
      <trkpt lat="48.2195" lon="7.15537">
        <ele>749.3</ele>
        <time>2022-02-13T13:19:27Z</time>
      </trkpt>
      <trkpt lat="48.21959" lon="7.15538">
        <ele>748.5</ele>
        <time>2022-02-13T13:19:34Z</time>
      </trkpt>
      <trkpt lat="48.21968" lon="7.15543">
        <ele>747.8</ele>
        <time>2022-02-13T13:19:43Z</time>
      </trkpt>
      <trkpt lat="48.21976" lon="7.1555">
        <ele>747.2</ele>
        <time>2022-02-13T13:19:51Z</time>
      </trkpt>
      <trkpt lat="48.21985" lon="7.15553">
        <ele>747</ele>
        <time>2022-02-13T13:19:58Z</time>
      </trkpt>
      <trkpt lat="48.21994" lon="7.15553">
        <ele>746.8</ele>
        <time>2022-02-13T13:20:05Z</time>
      </trkpt>
      <trkpt lat="48.22003" lon="7.15557">
        <ele>746.2</ele>
        <time>2022-02-13T13:20:14Z</time>
      </trkpt>
      <trkpt lat="48.22012" lon="7.15562">
        <ele>745.3</ele>
        <time>2022-02-13T13:20:23Z</time>
      </trkpt>
      <trkpt lat="48.2202" lon="7.15569">
        <ele>744.3</ele>
        <time>2022-02-13T13:20:30Z</time>
      </trkpt>
      <trkpt lat="48.22029" lon="7.15574">
        <ele>743.3</ele>
        <time>2022-02-13T13:20:37Z</time>
      </trkpt>
      <trkpt lat="48.22037" lon="7.15576">
        <ele>742.3</ele>
        <time>2022-02-13T13:20:45Z</time>
      </trkpt>
      <trkpt lat="48.22046" lon="7.15581">
        <ele>741.2</ele>
        <time>2022-02-13T13:20:54Z</time>
      </trkpt>
      <trkpt lat="48.22055" lon="7.15584">
        <ele>739.9</ele>
        <time>2022-02-13T13:21:03Z</time>
      </trkpt>
      <trkpt lat="48.22064" lon="7.15587">
        <ele>738.1</ele>
        <time>2022-02-13T13:21:12Z</time>
      </trkpt>
      <trkpt lat="48.22072" lon="7.15593">
        <ele>736</ele>
        <time>2022-02-13T13:21:21Z</time>
      </trkpt>
      <trkpt lat="48.22082" lon="7.15599">
        <ele>733.7</ele>
        <time>2022-02-13T13:21:29Z</time>
      </trkpt>
      <trkpt lat="48.22091" lon="7.15603">
        <ele>732</ele>
        <time>2022-02-13T13:21:35Z</time>
      </trkpt>
      <trkpt lat="48.22099" lon="7.1561">
        <ele>730.5</ele>
        <time>2022-02-13T13:21:41Z</time>
      </trkpt>
      <trkpt lat="48.22107" lon="7.15619">
        <ele>729.2</ele>
        <time>2022-02-13T13:21:49Z</time>
      </trkpt>
      <trkpt lat="48.22115" lon="7.15628">
        <ele>728.2</ele>
        <time>2022-02-13T13:21:57Z</time>
      </trkpt>
      <trkpt lat="48.22123" lon="7.15636">
        <ele>727.5</ele>
        <time>2022-02-13T13:22:03Z</time>
      </trkpt>
      <trkpt lat="48.22131" lon="7.15645">
        <ele>726.9</ele>
        <time>2022-02-13T13:22:11Z</time>
      </trkpt>
      <trkpt lat="48.22139" lon="7.15651">
        <ele>726.1</ele>
        <time>2022-02-13T13:22:18Z</time>
      </trkpt>
      <trkpt lat="48.22147" lon="7.15659">
        <ele>725.4</ele>
        <time>2022-02-13T13:22:26Z</time>
      </trkpt>
      <trkpt lat="48.22155" lon="7.15666">
        <ele>724.8</ele>
        <time>2022-02-13T13:22:34Z</time>
      </trkpt>
      <trkpt lat="48.22163" lon="7.15673">
        <ele>724.4</ele>
        <time>2022-02-13T13:22:43Z</time>
      </trkpt>
      <trkpt lat="48.22171" lon="7.15679">
        <ele>724.2</ele>
        <time>2022-02-13T13:22:49Z</time>
      </trkpt>
      <trkpt lat="48.22179" lon="7.15687">
        <ele>723.9</ele>
        <time>2022-02-13T13:22:56Z</time>
      </trkpt>
      <trkpt lat="48.22188" lon="7.15694">
        <ele>723.5</ele>
        <time>2022-02-13T13:23:04Z</time>
      </trkpt>
      <trkpt lat="48.22196" lon="7.15701">
        <ele>723</ele>
        <time>2022-02-13T13:23:12Z</time>
      </trkpt>
      <trkpt lat="48.22197" lon="7.15701">
        <ele>722.9</ele>
        <time>2022-02-13T13:23:16Z</time>
      </trkpt>
      <trkpt lat="48.22197" lon="7.15701">
        <ele>722.9</ele>
        <time>2022-02-13T13:23:21Z</time>
      </trkpt>
      <trkpt lat="48.22197" lon="7.157">
        <ele>722.9</ele>
        <time>2022-02-13T13:23:22Z</time>
      </trkpt>
      <trkpt lat="48.22197" lon="7.157">
        <ele>722.9</ele>
        <time>2022-02-13T13:23:23Z</time>
      </trkpt>
      <trkpt lat="48.22197" lon="7.157">
        <ele>722.9</ele>
        <time>2022-02-13T13:23:24Z</time>
      </trkpt>
      <trkpt lat="48.22197" lon="7.157">
        <ele>722.9</ele>
        <time>2022-02-13T13:23:25Z</time>
      </trkpt>
      <trkpt lat="48.22197" lon="7.157">
        <ele>722.9</ele>
        <time>2022-02-13T13:23:26Z</time>
      </trkpt>
      <trkpt lat="48.22197" lon="7.157">
        <ele>722.8</ele>
        <time>2022-02-13T13:23:44Z</time>
      </trkpt>
      <trkpt lat="48.22198" lon="7.15701">
        <ele>722.8</ele>
        <time>2022-02-13T13:23:51Z</time>
      </trkpt>
      <trkpt lat="48.22198" lon="7.15701">
        <ele>722.8</ele>
        <time>2022-02-13T13:24:14Z</time>
      </trkpt>
      <trkpt lat="48.22198" lon="7.15701">
        <ele>722.8</ele>
        <time>2022-02-13T13:24:15Z</time>
      </trkpt>
      <trkpt lat="48.22198" lon="7.15701">
        <ele>722.7</ele>
        <time>2022-02-13T13:24:24Z</time>
      </trkpt>
      <trkpt lat="48.22198" lon="7.15701">
        <ele>722.7</ele>
        <time>2022-02-13T13:24:26Z</time>
      </trkpt>
      <trkpt lat="48.22197" lon="7.15701">
        <ele>722.7</ele>
        <time>2022-02-13T13:24:27Z</time>
      </trkpt>
      <trkpt lat="48.22197" lon="7.15701">
        <ele>722.7</ele>
        <time>2022-02-13T13:24:30Z</time>
      </trkpt>
      <trkpt lat="48.22197" lon="7.15702">
        <ele>722.6</ele>
        <time>2022-02-13T13:24:31Z</time>
      </trkpt>
      <trkpt lat="48.22198" lon="7.15701">
        <ele>722.6</ele>
        <time>2022-02-13T13:24:33Z</time>
      </trkpt>
      <trkpt lat="48.22197" lon="7.15702">
        <ele>722.5</ele>
        <time>2022-02-13T13:24:34Z</time>
      </trkpt>
      <trkpt lat="48.22196" lon="7.15702">
        <ele>722.4</ele>
        <time>2022-02-13T13:24:38Z</time>
      </trkpt>
      <trkpt lat="48.22196" lon="7.15702">
        <ele>722.4</ele>
        <time>2022-02-13T13:24:39Z</time>
      </trkpt>
      <trkpt lat="48.22196" lon="7.15702">
        <ele>722.4</ele>
        <time>2022-02-13T13:24:42Z</time>
      </trkpt>
      <trkpt lat="48.22195" lon="7.15702">
        <ele>722.4</ele>
        <time>2022-02-13T13:24:43Z</time>
      </trkpt>
      <trkpt lat="48.22195" lon="7.15702">
        <ele>722.4</ele>
        <time>2022-02-13T13:24:44Z</time>
      </trkpt>
      <trkpt lat="48.22195" lon="7.15702">
        <ele>722.4</ele>
        <time>2022-02-13T13:24:50Z</time>
      </trkpt>
      <trkpt lat="48.22195" lon="7.15702">
        <ele>722.4</ele>
        <time>2022-02-13T13:24:51Z</time>
      </trkpt>
      <trkpt lat="48.22195" lon="7.15701">
        <ele>722.4</ele>
        <time>2022-02-13T13:25:02Z</time>
      </trkpt>
      <trkpt lat="48.22196" lon="7.15698">
        <ele>722.2</ele>
        <time>2022-02-13T13:25:09Z</time>
      </trkpt>
      <trkpt lat="48.22196" lon="7.15699">
        <ele>722.2</ele>
        <time>2022-02-13T13:25:12Z</time>
      </trkpt>
      <trkpt lat="48.22204" lon="7.15707">
        <ele>721.4</ele>
        <time>2022-02-13T13:25:24Z</time>
      </trkpt>
      <trkpt lat="48.22212" lon="7.15716">
        <ele>720.5</ele>
        <time>2022-02-13T13:25:34Z</time>
      </trkpt>
      <trkpt lat="48.22219" lon="7.15724">
        <ele>719.5</ele>
        <time>2022-02-13T13:25:41Z</time>
      </trkpt>
      <trkpt lat="48.22227" lon="7.1573">
        <ele>718.4</ele>
        <time>2022-02-13T13:25:49Z</time>
      </trkpt>
      <trkpt lat="48.22236" lon="7.15737">
        <ele>717</ele>
        <time>2022-02-13T13:25:56Z</time>
      </trkpt>
      <trkpt lat="48.22245" lon="7.15744">
        <ele>715.6</ele>
        <time>2022-02-13T13:26:05Z</time>
      </trkpt>
      <trkpt lat="48.22254" lon="7.1575">
        <ele>714.4</ele>
        <time>2022-02-13T13:26:12Z</time>
      </trkpt>
      <trkpt lat="48.22261" lon="7.15758">
        <ele>713.3</ele>
        <time>2022-02-13T13:26:19Z</time>
      </trkpt>
      <trkpt lat="48.2227" lon="7.15761">
        <ele>712.1</ele>
        <time>2022-02-13T13:26:28Z</time>
      </trkpt>
      <trkpt lat="48.22279" lon="7.15765">
        <ele>710.8</ele>
        <time>2022-02-13T13:26:36Z</time>
      </trkpt>
      <trkpt lat="48.22288" lon="7.15772">
        <ele>709.9</ele>
        <time>2022-02-13T13:26:45Z</time>
      </trkpt>
      <trkpt lat="48.22298" lon="7.15774">
        <ele>709.5</ele>
        <time>2022-02-13T13:26:53Z</time>
      </trkpt>
      <trkpt lat="48.22308" lon="7.15779">
        <ele>709.3</ele>
        <time>2022-02-13T13:26:58Z</time>
      </trkpt>
      <trkpt lat="48.22317" lon="7.15783">
        <ele>709.3</ele>
        <time>2022-02-13T13:27:06Z</time>
      </trkpt>
      <trkpt lat="48.22325" lon="7.15786">
        <ele>709.3</ele>
        <time>2022-02-13T13:27:13Z</time>
      </trkpt>
      <trkpt lat="48.22333" lon="7.15794">
        <ele>709.3</ele>
        <time>2022-02-13T13:27:22Z</time>
      </trkpt>
      <trkpt lat="48.22341" lon="7.15803">
        <ele>709.3</ele>
        <time>2022-02-13T13:27:34Z</time>
      </trkpt>
      <trkpt lat="48.2235" lon="7.15806">
        <ele>709.4</ele>
        <time>2022-02-13T13:27:42Z</time>
      </trkpt>
      <trkpt lat="48.22357" lon="7.15816">
        <ele>709.3</ele>
        <time>2022-02-13T13:27:50Z</time>
      </trkpt>
      <trkpt lat="48.22365" lon="7.15825">
        <ele>709.1</ele>
        <time>2022-02-13T13:27:58Z</time>
      </trkpt>
      <trkpt lat="48.22371" lon="7.15837">
        <ele>708.8</ele>
        <time>2022-02-13T13:28:06Z</time>
      </trkpt>
      <trkpt lat="48.22379" lon="7.15847">
        <ele>708.2</ele>
        <time>2022-02-13T13:28:14Z</time>
      </trkpt>
      <trkpt lat="48.22386" lon="7.15856">
        <ele>707.2</ele>
        <time>2022-02-13T13:28:20Z</time>
      </trkpt>
      <trkpt lat="48.22388" lon="7.15869">
        <ele>705.8</ele>
        <time>2022-02-13T13:28:30Z</time>
      </trkpt>
      <trkpt lat="48.22395" lon="7.15882">
        <ele>704.2</ele>
        <time>2022-02-13T13:28:40Z</time>
      </trkpt>
      <trkpt lat="48.22401" lon="7.15893">
        <ele>702.8</ele>
        <time>2022-02-13T13:28:48Z</time>
      </trkpt>
      <trkpt lat="48.22406" lon="7.15905">
        <ele>701.5</ele>
        <time>2022-02-13T13:28:55Z</time>
      </trkpt>
      <trkpt lat="48.22409" lon="7.15919">
        <ele>699.8</ele>
        <time>2022-02-13T13:29:04Z</time>
      </trkpt>
      <trkpt lat="48.22409" lon="7.15932">
        <ele>698.1</ele>
        <time>2022-02-13T13:29:12Z</time>
      </trkpt>
      <trkpt lat="48.22412" lon="7.15944">
        <ele>696.8</ele>
        <time>2022-02-13T13:29:27Z</time>
      </trkpt>
      <trkpt lat="48.22412" lon="7.15944">
        <ele>696.7</ele>
        <time>2022-02-13T13:29:28Z</time>
      </trkpt>
      <trkpt lat="48.22412" lon="7.15944">
        <ele>696.7</ele>
        <time>2022-02-13T13:29:30Z</time>
      </trkpt>
      <trkpt lat="48.22412" lon="7.15944">
        <ele>696.7</ele>
        <time>2022-02-13T13:29:32Z</time>
      </trkpt>
      <trkpt lat="48.22412" lon="7.15944">
        <ele>696.6</ele>
        <time>2022-02-13T13:29:34Z</time>
      </trkpt>
      <trkpt lat="48.22412" lon="7.15944">
        <ele>696.6</ele>
        <time>2022-02-13T13:29:35Z</time>
      </trkpt>
      <trkpt lat="48.22412" lon="7.15944">
        <ele>696.6</ele>
        <time>2022-02-13T13:29:37Z</time>
      </trkpt>
      <trkpt lat="48.22412" lon="7.15944">
        <ele>696.6</ele>
        <time>2022-02-13T13:29:39Z</time>
      </trkpt>
      <trkpt lat="48.22413" lon="7.15945">
        <ele>696.5</ele>
        <time>2022-02-13T13:29:43Z</time>
      </trkpt>
      <trkpt lat="48.22413" lon="7.15945">
        <ele>696.4</ele>
        <time>2022-02-13T13:29:44Z</time>
      </trkpt>
      <trkpt lat="48.22413" lon="7.15945">
        <ele>696.4</ele>
        <time>2022-02-13T13:29:45Z</time>
      </trkpt>
      <trkpt lat="48.22413" lon="7.15946">
        <ele>696.4</ele>
        <time>2022-02-13T13:29:46Z</time>
      </trkpt>
      <trkpt lat="48.22413" lon="7.15945">
        <ele>696.3</ele>
        <time>2022-02-13T13:29:48Z</time>
      </trkpt>
      <trkpt lat="48.22413" lon="7.15945">
        <ele>696.2</ele>
        <time>2022-02-13T13:29:49Z</time>
      </trkpt>
      <trkpt lat="48.22413" lon="7.15944">
        <ele>696.1</ele>
        <time>2022-02-13T13:29:56Z</time>
      </trkpt>
      <trkpt lat="48.22413" lon="7.15944">
        <ele>696.1</ele>
        <time>2022-02-13T13:29:57Z</time>
      </trkpt>
      <trkpt lat="48.22412" lon="7.15943">
        <ele>696</ele>
        <time>2022-02-13T13:29:59Z</time>
      </trkpt>
      <trkpt lat="48.22412" lon="7.15943">
        <ele>696</ele>
        <time>2022-02-13T13:30:00Z</time>
      </trkpt>
      <trkpt lat="48.22412" lon="7.15943">
        <ele>696</ele>
        <time>2022-02-13T13:30:03Z</time>
      </trkpt>
      <trkpt lat="48.22412" lon="7.15942">
        <ele>695.9</ele>
        <time>2022-02-13T13:30:12Z</time>
      </trkpt>
      <trkpt lat="48.22412" lon="7.15942">
        <ele>695.9</ele>
        <time>2022-02-13T13:30:13Z</time>
      </trkpt>
      <trkpt lat="48.22412" lon="7.15942">
        <ele>695.9</ele>
        <time>2022-02-13T13:30:19Z</time>
      </trkpt>
      <trkpt lat="48.22412" lon="7.15942">
        <ele>695.8</ele>
        <time>2022-02-13T13:30:23Z</time>
      </trkpt>
      <trkpt lat="48.22412" lon="7.15942">
        <ele>695.8</ele>
        <time>2022-02-13T13:30:25Z</time>
      </trkpt>
      <trkpt lat="48.22412" lon="7.15942">
        <ele>695.7</ele>
        <time>2022-02-13T13:30:27Z</time>
      </trkpt>
      <trkpt lat="48.22411" lon="7.15942">
        <ele>695.7</ele>
        <time>2022-02-13T13:30:29Z</time>
      </trkpt>
      <trkpt lat="48.22411" lon="7.15942">
        <ele>695.7</ele>
        <time>2022-02-13T13:30:30Z</time>
      </trkpt>
      <trkpt lat="48.22411" lon="7.15942">
        <ele>695.7</ele>
        <time>2022-02-13T13:30:41Z</time>
      </trkpt>
      <trkpt lat="48.22403" lon="7.1595">
        <ele>694.4</ele>
        <time>2022-02-13T13:30:52Z</time>
      </trkpt>
      <trkpt lat="48.22394" lon="7.15951">
        <ele>693.2</ele>
        <time>2022-02-13T13:31:01Z</time>
      </trkpt>
      <trkpt lat="48.22384" lon="7.1595">
        <ele>691.6</ele>
        <time>2022-02-13T13:31:12Z</time>
      </trkpt>
      <trkpt lat="48.22379" lon="7.15948">
        <ele>690.9</ele>
        <time>2022-02-13T13:31:20Z</time>
      </trkpt>
      <trkpt lat="48.2238" lon="7.15948">
        <ele>690.9</ele>
        <time>2022-02-13T13:31:21Z</time>
      </trkpt>
      <trkpt lat="48.2238" lon="7.15948">
        <ele>690.9</ele>
        <time>2022-02-13T13:31:22Z</time>
      </trkpt>
      <trkpt lat="48.2238" lon="7.15948">
        <ele>690.9</ele>
        <time>2022-02-13T13:31:23Z</time>
      </trkpt>
      <trkpt lat="48.2238" lon="7.15948">
        <ele>690.9</ele>
        <time>2022-02-13T13:31:29Z</time>
      </trkpt>
      <trkpt lat="48.2238" lon="7.15948">
        <ele>690.8</ele>
        <time>2022-02-13T13:31:30Z</time>
      </trkpt>
      <trkpt lat="48.22379" lon="7.15946">
        <ele>690.6</ele>
        <time>2022-02-13T13:31:39Z</time>
      </trkpt>
      <trkpt lat="48.22378" lon="7.15946">
        <ele>690.5</ele>
        <time>2022-02-13T13:31:44Z</time>
      </trkpt>
      <trkpt lat="48.22378" lon="7.15945">
        <ele>690.4</ele>
        <time>2022-02-13T13:31:48Z</time>
      </trkpt>
      <trkpt lat="48.22378" lon="7.15945">
        <ele>690.4</ele>
        <time>2022-02-13T13:31:50Z</time>
      </trkpt>
      <trkpt lat="48.22377" lon="7.15947">
        <ele>690.2</ele>
        <time>2022-02-13T13:31:56Z</time>
      </trkpt>
      <trkpt lat="48.22377" lon="7.15947">
        <ele>690.2</ele>
        <time>2022-02-13T13:32:08Z</time>
      </trkpt>
      <trkpt lat="48.22376" lon="7.15947">
        <ele>690</ele>
        <time>2022-02-13T13:32:12Z</time>
      </trkpt>
      <trkpt lat="48.22376" lon="7.15947">
        <ele>690</ele>
        <time>2022-02-13T13:32:13Z</time>
      </trkpt>
      <trkpt lat="48.22373" lon="7.1596">
        <ele>688.6</ele>
        <time>2022-02-13T13:32:30Z</time>
      </trkpt>
      <trkpt lat="48.22368" lon="7.15973">
        <ele>687.4</ele>
        <time>2022-02-13T13:32:39Z</time>
      </trkpt>
      <trkpt lat="48.22365" lon="7.15986">
        <ele>686.1</ele>
        <time>2022-02-13T13:32:56Z</time>
      </trkpt>
      <trkpt lat="48.22366" lon="7.16">
        <ele>684.8</ele>
        <time>2022-02-13T13:33:07Z</time>
      </trkpt>
      <trkpt lat="48.22369" lon="7.16013">
        <ele>683.5</ele>
        <time>2022-02-13T13:33:17Z</time>
      </trkpt>
      <trkpt lat="48.2237" lon="7.16028">
        <ele>682.2</ele>
        <time>2022-02-13T13:33:26Z</time>
      </trkpt>
      <trkpt lat="48.22371" lon="7.16043">
        <ele>680.8</ele>
        <time>2022-02-13T13:33:34Z</time>
      </trkpt>
      <trkpt lat="48.22361" lon="7.16047">
        <ele>681.2</ele>
        <time>2022-02-13T13:33:46Z</time>
      </trkpt>
      <trkpt lat="48.22353" lon="7.16044">
        <ele>681</ele>
        <time>2022-02-13T13:33:51Z</time>
      </trkpt>
      <trkpt lat="48.22347" lon="7.16056">
        <ele>677.6</ele>
        <time>2022-02-13T13:34:07Z</time>
      </trkpt>
      <trkpt lat="48.22346" lon="7.1607">
        <ele>674.9</ele>
        <time>2022-02-13T13:34:14Z</time>
      </trkpt>
      <trkpt lat="48.22337" lon="7.16069">
        <ele>674</ele>
        <time>2022-02-13T13:34:32Z</time>
      </trkpt>
      <trkpt lat="48.22336" lon="7.16069">
        <ele>673.8</ele>
        <time>2022-02-13T13:34:35Z</time>
      </trkpt>
      <trkpt lat="48.22335" lon="7.16068">
        <ele>674.9</ele>
        <time>2022-02-13T13:34:36Z</time>
      </trkpt>
      <trkpt lat="48.22325" lon="7.16065">
        <ele>673.7</ele>
        <time>2022-02-13T13:34:45Z</time>
      </trkpt>
      <trkpt lat="48.22315" lon="7.16061">
        <ele>672.7</ele>
        <time>2022-02-13T13:34:53Z</time>
      </trkpt>
      <trkpt lat="48.22306" lon="7.16056">
        <ele>671.9</ele>
        <time>2022-02-13T13:35:00Z</time>
      </trkpt>
      <trkpt lat="48.22306" lon="7.16071">
        <ele>669.3</ele>
        <time>2022-02-13T13:35:07Z</time>
      </trkpt>
      <trkpt lat="48.22309" lon="7.16085">
        <ele>667.3</ele>
        <time>2022-02-13T13:35:14Z</time>
      </trkpt>
      <trkpt lat="48.2231" lon="7.161">
        <ele>663.4</ele>
        <time>2022-02-13T13:35:23Z</time>
      </trkpt>
      <trkpt lat="48.2231" lon="7.16115">
        <ele>661.4</ele>
        <time>2022-02-13T13:35:32Z</time>
      </trkpt>
      <trkpt lat="48.22308" lon="7.16128">
        <ele>657.8</ele>
        <time>2022-02-13T13:35:42Z</time>
      </trkpt>
      <trkpt lat="48.223" lon="7.16123">
        <ele>656.6</ele>
        <time>2022-02-13T13:35:54Z</time>
      </trkpt>
      <trkpt lat="48.22293" lon="7.16111">
        <ele>655.2</ele>
        <time>2022-02-13T13:36:02Z</time>
      </trkpt>
      <trkpt lat="48.22284" lon="7.16104">
        <ele>653.9</ele>
        <time>2022-02-13T13:36:08Z</time>
      </trkpt>
      <trkpt lat="48.22276" lon="7.16097">
        <ele>652.6</ele>
        <time>2022-02-13T13:36:16Z</time>
      </trkpt>
      <trkpt lat="48.22267" lon="7.1609">
        <ele>651.3</ele>
        <time>2022-02-13T13:36:27Z</time>
      </trkpt>
      <trkpt lat="48.22258" lon="7.16086">
        <ele>649.9</ele>
        <time>2022-02-13T13:36:40Z</time>
      </trkpt>
      <trkpt lat="48.22251" lon="7.16075">
        <ele>648.5</ele>
        <time>2022-02-13T13:36:50Z</time>
      </trkpt>
      <trkpt lat="48.22245" lon="7.16063">
        <ele>647.3</ele>
        <time>2022-02-13T13:37:01Z</time>
      </trkpt>
      <trkpt lat="48.22237" lon="7.16058">
        <ele>646</ele>
        <time>2022-02-13T13:37:08Z</time>
      </trkpt>
      <trkpt lat="48.22227" lon="7.16061">
        <ele>644.7</ele>
        <time>2022-02-13T13:37:13Z</time>
      </trkpt>
      <trkpt lat="48.22218" lon="7.16069">
        <ele>644</ele>
        <time>2022-02-13T13:37:22Z</time>
      </trkpt>
      <trkpt lat="48.22218" lon="7.16083">
        <ele>642.4</ele>
        <time>2022-02-13T13:37:36Z</time>
      </trkpt>
      <trkpt lat="48.22227" lon="7.16089">
        <ele>640.8</ele>
        <time>2022-02-13T13:37:46Z</time>
      </trkpt>
      <trkpt lat="48.22234" lon="7.16101">
        <ele>639.1</ele>
        <time>2022-02-13T13:37:52Z</time>
      </trkpt>
      <trkpt lat="48.22238" lon="7.16113">
        <ele>637.6</ele>
        <time>2022-02-13T13:37:58Z</time>
      </trkpt>
      <trkpt lat="48.22242" lon="7.16126">
        <ele>636.2</ele>
        <time>2022-02-13T13:38:04Z</time>
      </trkpt>
      <trkpt lat="48.22248" lon="7.16138">
        <ele>634.6</ele>
        <time>2022-02-13T13:38:11Z</time>
      </trkpt>
      <trkpt lat="48.22252" lon="7.16152">
        <ele>632.9</ele>
        <time>2022-02-13T13:38:18Z</time>
      </trkpt>
      <trkpt lat="48.22258" lon="7.16164">
        <ele>631.2</ele>
        <time>2022-02-13T13:38:24Z</time>
      </trkpt>
      <trkpt lat="48.22263" lon="7.16176">
        <ele>629.7</ele>
        <time>2022-02-13T13:38:36Z</time>
      </trkpt>
      <trkpt lat="48.22267" lon="7.16189">
        <ele>628.2</ele>
        <time>2022-02-13T13:38:47Z</time>
      </trkpt>
      <trkpt lat="48.2227" lon="7.16202">
        <ele>626.7</ele>
        <time>2022-02-13T13:38:55Z</time>
      </trkpt>
      <trkpt lat="48.22271" lon="7.16206">
        <ele>620</ele>
        <time>2022-02-13T13:39:01Z</time>
      </trkpt>
      <trkpt lat="48.22271" lon="7.16207">
        <ele>619.8</ele>
        <time>2022-02-13T13:39:02Z</time>
      </trkpt>
      <trkpt lat="48.22266" lon="7.16195">
        <ele>616.9</ele>
        <time>2022-02-13T13:39:21Z</time>
      </trkpt>
      <trkpt lat="48.22259" lon="7.16184">
        <ele>613.9</ele>
        <time>2022-02-13T13:39:30Z</time>
      </trkpt>
      <trkpt lat="48.22251" lon="7.16177">
        <ele>610.8</ele>
        <time>2022-02-13T13:39:38Z</time>
      </trkpt>
      <trkpt lat="48.22242" lon="7.16172">
        <ele>607.9</ele>
        <time>2022-02-13T13:39:46Z</time>
      </trkpt>
      <trkpt lat="48.2224" lon="7.16168">
        <ele>606.9</ele>
        <time>2022-02-13T13:39:58Z</time>
      </trkpt>
      <trkpt lat="48.2224" lon="7.16168">
        <ele>606.8</ele>
        <time>2022-02-13T13:39:59Z</time>
      </trkpt>
      <trkpt lat="48.22233" lon="7.16177">
        <ele>604</ele>
        <time>2022-02-13T13:40:21Z</time>
      </trkpt>
      <trkpt lat="48.22237" lon="7.16191">
        <ele>600.9</ele>
        <time>2022-02-13T13:40:31Z</time>
      </trkpt>
      <trkpt lat="48.2223" lon="7.16202">
        <ele>597.8</ele>
        <time>2022-02-13T13:40:49Z</time>
      </trkpt>
      <trkpt lat="48.22228" lon="7.16217">
        <ele>594.6</ele>
        <time>2022-02-13T13:40:57Z</time>
      </trkpt>
      <trkpt lat="48.22228" lon="7.16231">
        <ele>591.8</ele>
        <time>2022-02-13T13:41:07Z</time>
      </trkpt>
      <trkpt lat="48.22232" lon="7.16243">
        <ele>589</ele>
        <time>2022-02-13T13:41:13Z</time>
      </trkpt>
      <trkpt lat="48.22232" lon="7.16256">
        <ele>586.3</ele>
        <time>2022-02-13T13:41:26Z</time>
      </trkpt>
      <trkpt lat="48.22231" lon="7.16257">
        <ele>586.1</ele>
        <time>2022-02-13T13:41:27Z</time>
      </trkpt>
      <trkpt lat="48.22227" lon="7.16269">
        <ele>583.3</ele>
        <time>2022-02-13T13:41:38Z</time>
      </trkpt>
      <trkpt lat="48.22227" lon="7.16269">
        <ele>583.1</ele>
        <time>2022-02-13T13:41:39Z</time>
      </trkpt>
      <trkpt lat="48.22218" lon="7.16274">
        <ele>580.1</ele>
        <time>2022-02-13T13:41:58Z</time>
      </trkpt>
      <trkpt lat="48.22208" lon="7.16274">
        <ele>577.2</ele>
        <time>2022-02-13T13:42:12Z</time>
      </trkpt>
      <trkpt lat="48.22207" lon="7.16277">
        <ele>576.6</ele>
        <time>2022-02-13T13:42:16Z</time>
      </trkpt>
      <trkpt lat="48.22208" lon="7.16277">
        <ele>576.4</ele>
        <time>2022-02-13T13:42:17Z</time>
      </trkpt>
      <trkpt lat="48.22212" lon="7.16291">
        <ele>573.3</ele>
        <time>2022-02-13T13:42:30Z</time>
      </trkpt>
      <trkpt lat="48.22215" lon="7.16303">
        <ele>570.5</ele>
        <time>2022-02-13T13:42:39Z</time>
      </trkpt>
      <trkpt lat="48.22216" lon="7.16318">
        <ele>567.5</ele>
        <time>2022-02-13T13:42:51Z</time>
      </trkpt>
      <trkpt lat="48.22218" lon="7.16332">
        <ele>564.5</ele>
        <time>2022-02-13T13:43:00Z</time>
      </trkpt>
      <trkpt lat="48.22223" lon="7.16344">
        <ele>561.7</ele>
        <time>2022-02-13T13:43:16Z</time>
      </trkpt>
      <trkpt lat="48.22221" lon="7.16333">
        <ele>559.4</ele>
        <time>2022-02-13T13:43:26Z</time>
      </trkpt>
      <trkpt lat="48.22221" lon="7.16333">
        <ele>559.2</ele>
        <time>2022-02-13T13:43:27Z</time>
      </trkpt>
      <trkpt lat="48.2222" lon="7.16332">
        <ele>559</ele>
        <time>2022-02-13T13:43:30Z</time>
      </trkpt>
      <trkpt lat="48.2222" lon="7.16331">
        <ele>558.8</ele>
        <time>2022-02-13T13:43:31Z</time>
      </trkpt>
      <trkpt lat="48.22211" lon="7.16337">
        <ele>555.7</ele>
        <time>2022-02-13T13:43:50Z</time>
      </trkpt>
      <trkpt lat="48.22206" lon="7.16341">
        <ele>553.8</ele>
        <time>2022-02-13T13:44:12Z</time>
      </trkpt>
      <trkpt lat="48.22205" lon="7.16341">
        <ele>553.7</ele>
        <time>2022-02-13T13:44:13Z</time>
      </trkpt>
      <trkpt lat="48.22206" lon="7.16355">
        <ele>550.8</ele>
        <time>2022-02-13T13:44:34Z</time>
      </trkpt>
      <trkpt lat="48.22201" lon="7.16367">
        <ele>547.8</ele>
        <time>2022-02-13T13:44:44Z</time>
      </trkpt>
      <trkpt lat="48.22202" lon="7.16382">
        <ele>544.9</ele>
        <time>2022-02-13T13:44:54Z</time>
      </trkpt>
      <trkpt lat="48.22204" lon="7.16395">
        <ele>542</ele>
        <time>2022-02-13T13:45:02Z</time>
      </trkpt>
      <trkpt lat="48.22203" lon="7.16409">
        <ele>539.1</ele>
        <time>2022-02-13T13:45:10Z</time>
      </trkpt>
      <trkpt lat="48.22208" lon="7.16422">
        <ele>536.1</ele>
        <time>2022-02-13T13:45:17Z</time>
      </trkpt>
      <trkpt lat="48.22199" lon="7.16414">
        <ele>535.4</ele>
        <time>2022-02-13T13:45:36Z</time>
      </trkpt>
      <trkpt lat="48.2219" lon="7.16409">
        <ele>534.3</ele>
        <time>2022-02-13T13:45:46Z</time>
      </trkpt>
      <trkpt lat="48.22181" lon="7.16408">
        <ele>533.3</ele>
        <time>2022-02-13T13:45:55Z</time>
      </trkpt>
      <trkpt lat="48.22172" lon="7.1641">
        <ele>532.2</ele>
        <time>2022-02-13T13:46:00Z</time>
      </trkpt>
      <trkpt lat="48.22162" lon="7.16408">
        <ele>530.9</ele>
        <time>2022-02-13T13:46:11Z</time>
      </trkpt>
      <trkpt lat="48.22152" lon="7.16405">
        <ele>529.7</ele>
        <time>2022-02-13T13:46:18Z</time>
      </trkpt>
      <trkpt lat="48.22141" lon="7.16403">
        <ele>528.2</ele>
        <time>2022-02-13T13:46:24Z</time>
      </trkpt>
      <trkpt lat="48.22132" lon="7.16407">
        <ele>527.4</ele>
        <time>2022-02-13T13:46:29Z</time>
      </trkpt>
      <trkpt lat="48.22127" lon="7.16418">
        <ele>515.5</ele>
        <time>2022-02-13T13:46:36Z</time>
      </trkpt>
      <trkpt lat="48.22133" lon="7.16428">
        <ele>515.5</ele>
        <time>2022-02-13T13:46:47Z</time>
      </trkpt>
      <trkpt lat="48.22143" lon="7.16432">
        <ele>515.5</ele>
        <time>2022-02-13T13:46:53Z</time>
      </trkpt>
      <trkpt lat="48.22153" lon="7.16435">
        <ele>515.5</ele>
        <time>2022-02-13T13:46:58Z</time>
      </trkpt>
      <trkpt lat="48.22162" lon="7.16433">
        <ele>515.6</ele>
        <time>2022-02-13T13:47:04Z</time>
      </trkpt>
      <trkpt lat="48.22172" lon="7.16436">
        <ele>515.8</ele>
        <time>2022-02-13T13:47:17Z</time>
      </trkpt>
      <trkpt lat="48.22176" lon="7.16435">
        <ele>515.9</ele>
        <time>2022-02-13T13:47:22Z</time>
      </trkpt>
      <trkpt lat="48.22177" lon="7.16434">
        <ele>515.9</ele>
        <time>2022-02-13T13:47:23Z</time>
      </trkpt>
      <trkpt lat="48.22181" lon="7.16446">
        <ele>516.1</ele>
        <time>2022-02-13T13:47:39Z</time>
      </trkpt>
      <trkpt lat="48.22183" lon="7.16461">
        <ele>516.5</ele>
        <time>2022-02-13T13:47:51Z</time>
      </trkpt>
      <trkpt lat="48.22186" lon="7.16475">
        <ele>516.9</ele>
        <time>2022-02-13T13:48:01Z</time>
      </trkpt>
      <trkpt lat="48.22189" lon="7.16489">
        <ele>517.3</ele>
        <time>2022-02-13T13:48:10Z</time>
      </trkpt>
      <trkpt lat="48.2219" lon="7.16504">
        <ele>516.4</ele>
        <time>2022-02-13T13:48:19Z</time>
      </trkpt>
      <trkpt lat="48.2219" lon="7.16518">
        <ele>515.1</ele>
        <time>2022-02-13T13:48:39Z</time>
      </trkpt>
      <trkpt lat="48.2219" lon="7.16519">
        <ele>515</ele>
        <time>2022-02-13T13:48:41Z</time>
      </trkpt>
      <trkpt lat="48.2219" lon="7.16519">
        <ele>515</ele>
        <time>2022-02-13T13:48:42Z</time>
      </trkpt>
      <trkpt lat="48.22191" lon="7.1652">
        <ele>514.9</ele>
        <time>2022-02-13T13:48:47Z</time>
      </trkpt>
      <trkpt lat="48.22191" lon="7.1652">
        <ele>514.9</ele>
        <time>2022-02-13T13:48:56Z</time>
      </trkpt>
      <trkpt lat="48.22191" lon="7.1652">
        <ele>514.9</ele>
        <time>2022-02-13T13:48:57Z</time>
      </trkpt>
      <trkpt lat="48.22191" lon="7.1652">
        <ele>514.8</ele>
        <time>2022-02-13T13:49:11Z</time>
      </trkpt>
      <trkpt lat="48.22192" lon="7.1652">
        <ele>514.7</ele>
        <time>2022-02-13T13:49:16Z</time>
      </trkpt>
      <trkpt lat="48.22191" lon="7.1652">
        <ele>514.7</ele>
        <time>2022-02-13T13:49:18Z</time>
      </trkpt>
      <trkpt lat="48.22191" lon="7.1652">
        <ele>514.7</ele>
        <time>2022-02-13T13:49:19Z</time>
      </trkpt>
      <trkpt lat="48.22192" lon="7.1652">
        <ele>514.7</ele>
        <time>2022-02-13T13:49:40Z</time>
      </trkpt>
      <trkpt lat="48.22192" lon="7.1652">
        <ele>514.7</ele>
        <time>2022-02-13T13:49:41Z</time>
      </trkpt>
      <trkpt lat="48.22191" lon="7.1652">
        <ele>514.7</ele>
        <time>2022-02-13T13:49:51Z</time>
      </trkpt>
      <trkpt lat="48.22191" lon="7.1652">
        <ele>514.7</ele>
        <time>2022-02-13T13:49:52Z</time>
      </trkpt>
      <trkpt lat="48.22192" lon="7.1652">
        <ele>514.6</ele>
        <time>2022-02-13T13:50:00Z</time>
      </trkpt>
      <trkpt lat="48.22192" lon="7.1652">
        <ele>514.6</ele>
        <time>2022-02-13T13:50:01Z</time>
      </trkpt>
      <trkpt lat="48.22192" lon="7.1652">
        <ele>514.6</ele>
        <time>2022-02-13T13:50:43Z</time>
      </trkpt>
      <trkpt lat="48.22192" lon="7.1652">
        <ele>514.6</ele>
        <time>2022-02-13T13:50:46Z</time>
      </trkpt>
      <trkpt lat="48.22192" lon="7.16519">
        <ele>514.5</ele>
        <time>2022-02-13T13:50:47Z</time>
      </trkpt>
      <trkpt lat="48.2219" lon="7.16532">
        <ele>513.3</ele>
        <time>2022-02-13T13:51:09Z</time>
      </trkpt>
      <trkpt lat="48.22195" lon="7.16545">
        <ele>512</ele>
        <time>2022-02-13T13:51:21Z</time>
      </trkpt>
      <trkpt lat="48.22204" lon="7.1655">
        <ele>510.5</ele>
        <time>2022-02-13T13:51:29Z</time>
      </trkpt>
      <trkpt lat="48.22213" lon="7.16554">
        <ele>508.9</ele>
        <time>2022-02-13T13:51:38Z</time>
      </trkpt>
      <trkpt lat="48.22222" lon="7.16558">
        <ele>507.2</ele>
        <time>2022-02-13T13:51:48Z</time>
      </trkpt>
      <trkpt lat="48.22231" lon="7.16561">
        <ele>505.5</ele>
        <time>2022-02-13T13:51:57Z</time>
      </trkpt>
      <trkpt lat="48.22238" lon="7.16572">
        <ele>503.9</ele>
        <time>2022-02-13T13:52:05Z</time>
      </trkpt>
      <trkpt lat="48.22246" lon="7.1658">
        <ele>502.5</ele>
        <time>2022-02-13T13:52:14Z</time>
      </trkpt>
      <trkpt lat="48.22253" lon="7.1659">
        <ele>501.3</ele>
        <time>2022-02-13T13:52:23Z</time>
      </trkpt>
      <trkpt lat="48.22257" lon="7.16603">
        <ele>500.1</ele>
        <time>2022-02-13T13:52:32Z</time>
      </trkpt>
      <trkpt lat="48.22262" lon="7.16615">
        <ele>499</ele>
        <time>2022-02-13T13:52:40Z</time>
      </trkpt>
      <trkpt lat="48.22269" lon="7.16627">
        <ele>497.8</ele>
        <time>2022-02-13T13:52:48Z</time>
      </trkpt>
      <trkpt lat="48.22275" lon="7.16638">
        <ele>496.8</ele>
        <time>2022-02-13T13:52:56Z</time>
      </trkpt>
      <trkpt lat="48.22282" lon="7.16649">
        <ele>495.8</ele>
        <time>2022-02-13T13:53:04Z</time>
      </trkpt>
      <trkpt lat="48.22289" lon="7.16656">
        <ele>495.1</ele>
        <time>2022-02-13T13:53:12Z</time>
      </trkpt>
      <trkpt lat="48.22296" lon="7.16665">
        <ele>494.5</ele>
        <time>2022-02-13T13:53:21Z</time>
      </trkpt>
      <trkpt lat="48.22304" lon="7.16673">
        <ele>494.1</ele>
        <time>2022-02-13T13:53:31Z</time>
      </trkpt>
      <trkpt lat="48.22311" lon="7.16682">
        <ele>494</ele>
        <time>2022-02-13T13:53:39Z</time>
      </trkpt>
      <trkpt lat="48.22319" lon="7.16688">
        <ele>493.8</ele>
        <time>2022-02-13T13:53:48Z</time>
      </trkpt>
      <trkpt lat="48.22325" lon="7.16699">
        <ele>493.7</ele>
        <time>2022-02-13T13:53:56Z</time>
      </trkpt>
      <trkpt lat="48.22333" lon="7.16706">
        <ele>493.9</ele>
        <time>2022-02-13T13:54:04Z</time>
      </trkpt>
      <trkpt lat="48.22343" lon="7.16709">
        <ele>494.3</ele>
        <time>2022-02-13T13:54:12Z</time>
      </trkpt>
      <trkpt lat="48.22352" lon="7.16712">
        <ele>494.9</ele>
        <time>2022-02-13T13:54:19Z</time>
      </trkpt>
      <trkpt lat="48.22359" lon="7.16722">
        <ele>495.8</ele>
        <time>2022-02-13T13:54:27Z</time>
      </trkpt>
      <trkpt lat="48.22367" lon="7.1673">
        <ele>496.5</ele>
        <time>2022-02-13T13:54:36Z</time>
      </trkpt>
      <trkpt lat="48.22376" lon="7.16737">
        <ele>497.1</ele>
        <time>2022-02-13T13:54:43Z</time>
      </trkpt>
      <trkpt lat="48.22384" lon="7.16742">
        <ele>497.6</ele>
        <time>2022-02-13T13:54:50Z</time>
      </trkpt>
      <trkpt lat="48.22391" lon="7.16751">
        <ele>498.1</ele>
        <time>2022-02-13T13:54:57Z</time>
      </trkpt>
      <trkpt lat="48.22398" lon="7.1676">
        <ele>498.6</ele>
        <time>2022-02-13T13:55:05Z</time>
      </trkpt>
      <trkpt lat="48.22405" lon="7.1677">
        <ele>499.2</ele>
        <time>2022-02-13T13:55:15Z</time>
      </trkpt>
      <trkpt lat="48.22414" lon="7.16776">
        <ele>499.5</ele>
        <time>2022-02-13T13:55:26Z</time>
      </trkpt>
      <trkpt lat="48.22423" lon="7.16781">
        <ele>499.6</ele>
        <time>2022-02-13T13:55:34Z</time>
      </trkpt>
      <trkpt lat="48.22433" lon="7.16787">
        <ele>499.6</ele>
        <time>2022-02-13T13:55:42Z</time>
      </trkpt>
      <trkpt lat="48.22442" lon="7.16792">
        <ele>499.4</ele>
        <time>2022-02-13T13:55:50Z</time>
      </trkpt>
      <trkpt lat="48.22451" lon="7.16796">
        <ele>499.2</ele>
        <time>2022-02-13T13:55:57Z</time>
      </trkpt>
      <trkpt lat="48.2246" lon="7.16802">
        <ele>499</ele>
        <time>2022-02-13T13:56:05Z</time>
      </trkpt>
      <trkpt lat="48.22469" lon="7.16802">
        <ele>498.6</ele>
        <time>2022-02-13T13:56:12Z</time>
      </trkpt>
      <trkpt lat="48.22477" lon="7.16805">
        <ele>498.3</ele>
        <time>2022-02-13T13:56:21Z</time>
      </trkpt>
      <trkpt lat="48.22477" lon="7.16805">
        <ele>498.2</ele>
        <time>2022-02-13T13:56:22Z</time>
      </trkpt>
      <trkpt lat="48.22486" lon="7.1681">
        <ele>497.8</ele>
        <time>2022-02-13T13:56:29Z</time>
      </trkpt>
      <trkpt lat="48.22495" lon="7.16816">
        <ele>497.5</ele>
        <time>2022-02-13T13:56:37Z</time>
      </trkpt>
      <trkpt lat="48.22504" lon="7.16821">
        <ele>497.3</ele>
        <time>2022-02-13T13:56:44Z</time>
      </trkpt>
      <trkpt lat="48.22513" lon="7.16824">
        <ele>497.1</ele>
        <time>2022-02-13T13:56:53Z</time>
      </trkpt>
      <trkpt lat="48.22523" lon="7.16827">
        <ele>497</ele>
        <time>2022-02-13T13:57:01Z</time>
      </trkpt>
      <trkpt lat="48.22531" lon="7.16831">
        <ele>496.6</ele>
        <time>2022-02-13T13:57:10Z</time>
      </trkpt>
      <trkpt lat="48.2254" lon="7.16837">
        <ele>496.1</ele>
        <time>2022-02-13T13:57:19Z</time>
      </trkpt>
      <trkpt lat="48.22549" lon="7.16841">
        <ele>495.6</ele>
        <time>2022-02-13T13:57:28Z</time>
      </trkpt>
      <trkpt lat="48.22558" lon="7.16843">
        <ele>495.1</ele>
        <time>2022-02-13T13:57:36Z</time>
      </trkpt>
      <trkpt lat="48.22568" lon="7.16845">
        <ele>494.8</ele>
        <time>2022-02-13T13:57:44Z</time>
      </trkpt>
      <trkpt lat="48.22577" lon="7.16847">
        <ele>494.5</ele>
        <time>2022-02-13T13:57:51Z</time>
      </trkpt>
      <trkpt lat="48.22586" lon="7.16849">
        <ele>494.2</ele>
        <time>2022-02-13T13:57:59Z</time>
      </trkpt>
      <trkpt lat="48.22596" lon="7.16853">
        <ele>493.8</ele>
        <time>2022-02-13T13:58:07Z</time>
      </trkpt>
      <trkpt lat="48.22605" lon="7.16856">
        <ele>493.5</ele>
        <time>2022-02-13T13:58:15Z</time>
      </trkpt>
      <trkpt lat="48.22614" lon="7.16857">
        <ele>493.2</ele>
        <time>2022-02-13T13:58:23Z</time>
      </trkpt>
      <trkpt lat="48.22623" lon="7.16859">
        <ele>492.9</ele>
        <time>2022-02-13T13:58:32Z</time>
      </trkpt>
      <trkpt lat="48.22633" lon="7.16861">
        <ele>492.7</ele>
        <time>2022-02-13T13:58:41Z</time>
      </trkpt>
      <trkpt lat="48.22643" lon="7.16863">
        <ele>492.6</ele>
        <time>2022-02-13T13:58:50Z</time>
      </trkpt>
      <trkpt lat="48.22652" lon="7.16862">
        <ele>492.6</ele>
        <time>2022-02-13T13:58:59Z</time>
      </trkpt>
      <trkpt lat="48.22662" lon="7.16864">
        <ele>492.7</ele>
        <time>2022-02-13T13:59:08Z</time>
      </trkpt>
      <trkpt lat="48.22671" lon="7.16865">
        <ele>492.8</ele>
        <time>2022-02-13T13:59:16Z</time>
      </trkpt>
      <trkpt lat="48.22681" lon="7.16866">
        <ele>492.9</ele>
        <time>2022-02-13T13:59:25Z</time>
      </trkpt>
      <trkpt lat="48.2269" lon="7.16866">
        <ele>493.2</ele>
        <time>2022-02-13T13:59:33Z</time>
      </trkpt>
      <trkpt lat="48.227" lon="7.16867">
        <ele>493.7</ele>
        <time>2022-02-13T13:59:42Z</time>
      </trkpt>
      <trkpt lat="48.22709" lon="7.16868">
        <ele>494.3</ele>
        <time>2022-02-13T13:59:53Z</time>
      </trkpt>
      <trkpt lat="48.22719" lon="7.16874">
        <ele>494.9</ele>
        <time>2022-02-13T14:00:03Z</time>
      </trkpt>
      <trkpt lat="48.22726" lon="7.16883">
        <ele>495.4</ele>
        <time>2022-02-13T14:00:12Z</time>
      </trkpt>
      <trkpt lat="48.22736" lon="7.16886">
        <ele>495.7</ele>
        <time>2022-02-13T14:00:22Z</time>
      </trkpt>
      <trkpt lat="48.22744" lon="7.16895">
        <ele>495.9</ele>
        <time>2022-02-13T14:00:31Z</time>
      </trkpt>
      <trkpt lat="48.2275" lon="7.16905">
        <ele>495.9</ele>
        <time>2022-02-13T14:00:40Z</time>
      </trkpt>
      <trkpt lat="48.22756" lon="7.16915">
        <ele>495.7</ele>
        <time>2022-02-13T14:00:49Z</time>
      </trkpt>
      <trkpt lat="48.22763" lon="7.16923">
        <ele>495.4</ele>
        <time>2022-02-13T14:00:58Z</time>
      </trkpt>
      <trkpt lat="48.22771" lon="7.16931">
        <ele>495.2</ele>
        <time>2022-02-13T14:01:08Z</time>
      </trkpt>
      <trkpt lat="48.22771" lon="7.16944">
        <ele>495.5</ele>
        <time>2022-02-13T14:01:16Z</time>
      </trkpt>
      <trkpt lat="48.22769" lon="7.16959">
        <ele>495.8</ele>
        <time>2022-02-13T14:01:25Z</time>
      </trkpt>
      <trkpt lat="48.22768" lon="7.16973">
        <ele>496.1</ele>
        <time>2022-02-13T14:01:33Z</time>
      </trkpt>
      <trkpt lat="48.22766" lon="7.1699">
        <ele>496.4</ele>
        <time>2022-02-13T14:01:41Z</time>
      </trkpt>
      <trkpt lat="48.22767" lon="7.16993">
        <ele>496.5</ele>
        <time>2022-02-13T14:01:51Z</time>
      </trkpt>
      <trkpt lat="48.22767" lon="7.16996">
        <ele>496.5</ele>
        <time>2022-02-13T14:02:01Z</time>
      </trkpt>
      <trkpt lat="48.22768" lon="7.17">
        <ele>496.6</ele>
        <time>2022-02-13T14:02:11Z</time>
      </trkpt>
      <trkpt lat="48.22768" lon="7.17003">
        <ele>496.6</ele>
        <time>2022-02-13T14:02:21Z</time>
      </trkpt>
      <trkpt lat="48.22769" lon="7.17006">
        <ele>496.7</ele>
        <time>2022-02-13T14:02:29Z</time>
      </trkpt>
      <trkpt lat="48.2277" lon="7.17009">
        <ele>496.7</ele>
        <time>2022-02-13T14:02:30Z</time>
      </trkpt>
      <trkpt lat="48.2277" lon="7.17013">
        <ele>496.8</ele>
        <time>2022-02-13T14:02:42Z</time>
      </trkpt>
      <trkpt lat="48.22771" lon="7.17016">
        <ele>496.9</ele>
        <time>2022-02-13T14:02:51Z</time>
      </trkpt>
      <trkpt lat="48.22771" lon="7.17019">
        <ele>496.9</ele>
        <time>2022-02-13T14:02:56Z</time>
      </trkpt>
      <trkpt lat="48.22772" lon="7.17022">
        <ele>497.3</ele>
        <time>2022-02-13T14:02:58Z</time>
      </trkpt>
      <trkpt lat="48.22772" lon="7.17025">
        <ele>497.2</ele>
        <time>2022-02-13T14:03:02Z</time>
      </trkpt>
      <trkpt lat="48.22773" lon="7.17029">
        <ele>497.1</ele>
        <time>2022-02-13T14:03:03Z</time>
      </trkpt>
      <trkpt lat="48.22774" lon="7.17032">
        <ele>497.1</ele>
        <time>2022-02-13T14:03:13Z</time>
      </trkpt>
      <trkpt lat="48.22774" lon="7.17035">
        <ele>497</ele>
        <time>2022-02-13T14:03:16Z</time>
      </trkpt>
      <trkpt lat="48.22775" lon="7.17038">
        <ele>496.9</ele>
        <time>2022-02-13T14:03:17Z</time>
      </trkpt>
      <trkpt lat="48.22775" lon="7.17042">
        <ele>496.8</ele>
        <time>2022-02-13T14:03:21Z</time>
      </trkpt>
      <trkpt lat="48.22776" lon="7.17045">
        <ele>496.7</ele>
        <time>2022-02-13T14:03:24Z</time>
      </trkpt>
      <trkpt lat="48.22776" lon="7.17048">
        <ele>496.6</ele>
        <time>2022-02-13T14:03:27Z</time>
      </trkpt>
      <trkpt lat="48.22777" lon="7.17051">
        <ele>496.6</ele>
        <time>2022-02-13T14:03:32Z</time>
      </trkpt>
      <trkpt lat="48.22778" lon="7.17054">
        <ele>496.5</ele>
        <time>2022-02-13T14:03:33Z</time>
      </trkpt>
      <trkpt lat="48.22778" lon="7.17058">
        <ele>496.4</ele>
        <time>2022-02-13T14:03:36Z</time>
      </trkpt>
      <trkpt lat="48.22779" lon="7.17061">
        <ele>496.3</ele>
        <time>2022-02-13T14:03:44Z</time>
      </trkpt>
      <trkpt lat="48.22779" lon="7.17064">
        <ele>496.2</ele>
        <time>2022-02-13T14:03:44Z</time>
      </trkpt>
      <trkpt lat="48.22779" lon="7.17064">
        <ele>496.2</ele>
        <time>2022-02-13T14:03:44Z</time>
      </trkpt>
      <trkpt lat="48.22779" lon="7.17064">
        <ele>496.2</ele>
        <time>2022-02-13T14:03:44Z</time>
      </trkpt>
    </trkseg>
  </trk>
</gpx>